<?xml version="1.0" encoding="UTF-8" standalone="no" ?>
<gpx xmlns="http://www.topografix.com/GPX/1/1" xmlns:xsi="http://www.w3.org/2001/XMLSchema-instance" xsi:schemaLocation="http://www.topografix.com/GPX/1/1 http://www.topografix.com/GPX/1/1/gpx.xsd" version="1.1" creator="VisuGPX - https://www.visugpx.com">
  <metadata>
    <name>Ploufragan VTT</name>
  </metadata>
  <trk>
    <name><![CDATA[Ploufragan VTT]]></name>
    <trkseg>
      <trkpt lat="48.49698" lon="-2.79747">
        <ele>137.19999694824</ele>
        <time>2022-09-04T05:53:44.000Z</time>
      </trkpt>
      <trkpt lat="48.49695" lon="-2.79761">
        <ele>133.39999389648</ele>
        <time>2022-09-04T05:53:46.000Z</time>
      </trkpt>
      <trkpt lat="48.49688" lon="-2.79781">
        <ele>133.60000610352</ele>
        <time>2022-09-04T05:53:49.000Z</time>
      </trkpt>
      <trkpt lat="48.49687" lon="-2.79789">
        <ele>134</ele>
        <time>2022-09-04T05:53:50.000Z</time>
      </trkpt>
      <trkpt lat="48.49686" lon="-2.79795">
        <ele>134.19999694824</ele>
        <time>2022-09-04T05:53:51.000Z</time>
      </trkpt>
      <trkpt lat="48.49684" lon="-2.79801">
        <ele>134.39999389648</ele>
        <time>2022-09-04T05:53:52.000Z</time>
      </trkpt>
      <trkpt lat="48.49683" lon="-2.79806">
        <ele>134.39999389648</ele>
        <time>2022-09-04T05:53:53.000Z</time>
      </trkpt>
      <trkpt lat="48.4968" lon="-2.79809">
        <ele>133.80000305176</ele>
        <time>2022-09-04T05:53:54.000Z</time>
      </trkpt>
      <trkpt lat="48.49671" lon="-2.79809">
        <ele>134.19999694824</ele>
        <time>2022-09-04T05:53:56.000Z</time>
      </trkpt>
      <trkpt lat="48.49666" lon="-2.79807">
        <ele>134.19999694824</ele>
        <time>2022-09-04T05:53:57.000Z</time>
      </trkpt>
      <trkpt lat="48.49661" lon="-2.79805">
        <ele>134.19999694824</ele>
        <time>2022-09-04T05:53:58.000Z</time>
      </trkpt>
      <trkpt lat="48.49657" lon="-2.79802">
        <ele>134.19999694824</ele>
        <time>2022-09-04T05:53:59.000Z</time>
      </trkpt>
      <trkpt lat="48.49653" lon="-2.79799">
        <ele>134.19999694824</ele>
        <time>2022-09-04T05:54:00.000Z</time>
      </trkpt>
      <trkpt lat="48.49645" lon="-2.7979">
        <ele>134.39999389648</ele>
        <time>2022-09-04T05:54:02.000Z</time>
      </trkpt>
      <trkpt lat="48.49622" lon="-2.79767">
        <ele>134.60000610352</ele>
        <time>2022-09-04T05:54:07.000Z</time>
      </trkpt>
      <trkpt lat="48.49613" lon="-2.79757">
        <ele>135.19999694824</ele>
        <time>2022-09-04T05:54:09.000Z</time>
      </trkpt>
      <trkpt lat="48.49605" lon="-2.79746">
        <ele>135.39999389648</ele>
        <time>2022-09-04T05:54:11.000Z</time>
      </trkpt>
      <trkpt lat="48.49593" lon="-2.79729">
        <ele>135.60000610352</ele>
        <time>2022-09-04T05:54:14.000Z</time>
      </trkpt>
      <trkpt lat="48.49575" lon="-2.79706">
        <ele>135.60000610352</ele>
        <time>2022-09-04T05:54:18.000Z</time>
      </trkpt>
      <trkpt lat="48.49571" lon="-2.79702">
        <ele>135.39999389648</ele>
        <time>2022-09-04T05:54:19.000Z</time>
      </trkpt>
      <trkpt lat="48.49545" lon="-2.79676">
        <ele>135.19999694824</ele>
        <time>2022-09-04T05:54:24.000Z</time>
      </trkpt>
      <trkpt lat="48.4954" lon="-2.79672">
        <ele>135.19999694824</ele>
        <time>2022-09-04T05:54:25.000Z</time>
      </trkpt>
      <trkpt lat="48.49535" lon="-2.79667">
        <ele>135.19999694824</ele>
        <time>2022-09-04T05:54:26.000Z</time>
      </trkpt>
      <trkpt lat="48.49524" lon="-2.79659">
        <ele>135.19999694824</ele>
        <time>2022-09-04T05:54:28.000Z</time>
      </trkpt>
      <trkpt lat="48.49519" lon="-2.79655">
        <ele>135.19999694824</ele>
        <time>2022-09-04T05:54:29.000Z</time>
      </trkpt>
      <trkpt lat="48.49514" lon="-2.79651">
        <ele>135.19999694824</ele>
        <time>2022-09-04T05:54:30.000Z</time>
      </trkpt>
      <trkpt lat="48.49508" lon="-2.79649">
        <ele>135.19999694824</ele>
        <time>2022-09-04T05:54:31.000Z</time>
      </trkpt>
      <trkpt lat="48.49502" lon="-2.79647">
        <ele>135</ele>
        <time>2022-09-04T05:54:32.000Z</time>
      </trkpt>
      <trkpt lat="48.49486" lon="-2.79642">
        <ele>134.80000305176</ele>
        <time>2022-09-04T05:54:35.000Z</time>
      </trkpt>
      <trkpt lat="48.49481" lon="-2.79641">
        <ele>134.60000610352</ele>
        <time>2022-09-04T05:54:36.000Z</time>
      </trkpt>
      <trkpt lat="48.49476" lon="-2.79643">
        <ele>134.60000610352</ele>
        <time>2022-09-04T05:54:37.000Z</time>
      </trkpt>
      <trkpt lat="48.49473" lon="-2.79646">
        <ele>134.60000610352</ele>
        <time>2022-09-04T05:54:38.000Z</time>
      </trkpt>
      <trkpt lat="48.4947" lon="-2.79651">
        <ele>134.60000610352</ele>
        <time>2022-09-04T05:54:39.000Z</time>
      </trkpt>
      <trkpt lat="48.49468" lon="-2.79657">
        <ele>134.60000610352</ele>
        <time>2022-09-04T05:54:40.000Z</time>
      </trkpt>
      <trkpt lat="48.49465" lon="-2.79663">
        <ele>134.60000610352</ele>
        <time>2022-09-04T05:54:41.000Z</time>
      </trkpt>
      <trkpt lat="48.49463" lon="-2.7967">
        <ele>134.60000610352</ele>
        <time>2022-09-04T05:54:42.000Z</time>
      </trkpt>
      <trkpt lat="48.4946" lon="-2.79677">
        <ele>134.60000610352</ele>
        <time>2022-09-04T05:54:43.000Z</time>
      </trkpt>
      <trkpt lat="48.49458" lon="-2.79684">
        <ele>134.60000610352</ele>
        <time>2022-09-04T05:54:44.000Z</time>
      </trkpt>
      <trkpt lat="48.49433" lon="-2.7974">
        <ele>134.80000305176</ele>
        <time>2022-09-04T05:54:53.000Z</time>
      </trkpt>
      <trkpt lat="48.49431" lon="-2.79748">
        <ele>134.80000305176</ele>
        <time>2022-09-04T05:54:54.000Z</time>
      </trkpt>
      <trkpt lat="48.49428" lon="-2.79755">
        <ele>134.80000305176</ele>
        <time>2022-09-04T05:54:55.000Z</time>
      </trkpt>
      <trkpt lat="48.49426" lon="-2.79761">
        <ele>134.80000305176</ele>
        <time>2022-09-04T05:54:56.000Z</time>
      </trkpt>
      <trkpt lat="48.4942" lon="-2.79774">
        <ele>135</ele>
        <time>2022-09-04T05:54:58.000Z</time>
      </trkpt>
      <trkpt lat="48.49418" lon="-2.79781">
        <ele>135</ele>
        <time>2022-09-04T05:54:59.000Z</time>
      </trkpt>
      <trkpt lat="48.49413" lon="-2.79793">
        <ele>135.19999694824</ele>
        <time>2022-09-04T05:55:01.000Z</time>
      </trkpt>
      <trkpt lat="48.49411" lon="-2.798">
        <ele>135.19999694824</ele>
        <time>2022-09-04T05:55:02.000Z</time>
      </trkpt>
      <trkpt lat="48.49408" lon="-2.79805">
        <ele>135.19999694824</ele>
        <time>2022-09-04T05:55:03.000Z</time>
      </trkpt>
      <trkpt lat="48.49405" lon="-2.7981">
        <ele>135.19999694824</ele>
        <time>2022-09-04T05:55:04.000Z</time>
      </trkpt>
      <trkpt lat="48.49401" lon="-2.79813">
        <ele>135.39999389648</ele>
        <time>2022-09-04T05:55:05.000Z</time>
      </trkpt>
      <trkpt lat="48.49398" lon="-2.79817">
        <ele>135.60000610352</ele>
        <time>2022-09-04T05:55:06.000Z</time>
      </trkpt>
      <trkpt lat="48.49395" lon="-2.79822">
        <ele>135.60000610352</ele>
        <time>2022-09-04T05:55:07.000Z</time>
      </trkpt>
      <trkpt lat="48.49393" lon="-2.79826">
        <ele>135.60000610352</ele>
        <time>2022-09-04T05:55:08.000Z</time>
      </trkpt>
      <trkpt lat="48.4939" lon="-2.79831">
        <ele>135.60000610352</ele>
        <time>2022-09-04T05:55:09.000Z</time>
      </trkpt>
      <trkpt lat="48.49388" lon="-2.79835">
        <ele>135.39999389648</ele>
        <time>2022-09-04T05:55:10.000Z</time>
      </trkpt>
      <trkpt lat="48.49386" lon="-2.79839">
        <ele>135.19999694824</ele>
        <time>2022-09-04T05:55:11.000Z</time>
      </trkpt>
      <trkpt lat="48.49385" lon="-2.79843">
        <ele>135.60000610352</ele>
        <time>2022-09-04T05:55:12.000Z</time>
      </trkpt>
      <trkpt lat="48.49384" lon="-2.79847">
        <ele>135.80000305176</ele>
        <time>2022-09-04T05:55:13.000Z</time>
      </trkpt>
      <trkpt lat="48.49383" lon="-2.79852">
        <ele>136</ele>
        <time>2022-09-04T05:55:14.000Z</time>
      </trkpt>
      <trkpt lat="48.49383" lon="-2.79856">
        <ele>135.39999389648</ele>
        <time>2022-09-04T05:55:15.000Z</time>
      </trkpt>
      <trkpt lat="48.49383" lon="-2.7986">
        <ele>135</ele>
        <time>2022-09-04T05:55:16.000Z</time>
      </trkpt>
      <trkpt lat="48.49384" lon="-2.79864">
        <ele>134.60000610352</ele>
        <time>2022-09-04T05:55:17.000Z</time>
      </trkpt>
      <trkpt lat="48.49385" lon="-2.79867">
        <ele>135.39999389648</ele>
        <time>2022-09-04T05:55:18.000Z</time>
      </trkpt>
      <trkpt lat="48.49387" lon="-2.7987">
        <ele>136</ele>
        <time>2022-09-04T05:55:19.000Z</time>
      </trkpt>
      <trkpt lat="48.49388" lon="-2.79873">
        <ele>136.39999389648</ele>
        <time>2022-09-04T05:55:20.000Z</time>
      </trkpt>
      <trkpt lat="48.49389" lon="-2.79877">
        <ele>137.19999694824</ele>
        <time>2022-09-04T05:55:21.000Z</time>
      </trkpt>
      <trkpt lat="48.4939" lon="-2.79881">
        <ele>137.39999389648</ele>
        <time>2022-09-04T05:55:22.000Z</time>
      </trkpt>
      <trkpt lat="48.4939" lon="-2.79886">
        <ele>137.60000610352</ele>
        <time>2022-09-04T05:55:23.000Z</time>
      </trkpt>
      <trkpt lat="48.49392" lon="-2.79891">
        <ele>137.60000610352</ele>
        <time>2022-09-04T05:55:24.000Z</time>
      </trkpt>
      <trkpt lat="48.49397" lon="-2.79901">
        <ele>137.60000610352</ele>
        <time>2022-09-04T05:55:26.000Z</time>
      </trkpt>
      <trkpt lat="48.49401" lon="-2.79904">
        <ele>137.60000610352</ele>
        <time>2022-09-04T05:55:27.000Z</time>
      </trkpt>
      <trkpt lat="48.49405" lon="-2.79908">
        <ele>137.60000610352</ele>
        <time>2022-09-04T05:55:28.000Z</time>
      </trkpt>
      <trkpt lat="48.49409" lon="-2.79913">
        <ele>137.60000610352</ele>
        <time>2022-09-04T05:55:29.000Z</time>
      </trkpt>
      <trkpt lat="48.49413" lon="-2.79918">
        <ele>137.60000610352</ele>
        <time>2022-09-04T05:55:30.000Z</time>
      </trkpt>
      <trkpt lat="48.49416" lon="-2.79924">
        <ele>137.60000610352</ele>
        <time>2022-09-04T05:55:31.000Z</time>
      </trkpt>
      <trkpt lat="48.49417" lon="-2.7993">
        <ele>137.60000610352</ele>
        <time>2022-09-04T05:55:32.000Z</time>
      </trkpt>
      <trkpt lat="48.49417" lon="-2.79937">
        <ele>137.39999389648</ele>
        <time>2022-09-04T05:55:33.000Z</time>
      </trkpt>
      <trkpt lat="48.49415" lon="-2.79943">
        <ele>137.39999389648</ele>
        <time>2022-09-04T05:55:34.000Z</time>
      </trkpt>
      <trkpt lat="48.49413" lon="-2.79948">
        <ele>137.39999389648</ele>
        <time>2022-09-04T05:55:35.000Z</time>
      </trkpt>
      <trkpt lat="48.49411" lon="-2.79953">
        <ele>137.39999389648</ele>
        <time>2022-09-04T05:55:36.000Z</time>
      </trkpt>
      <trkpt lat="48.49409" lon="-2.79958">
        <ele>137.60000610352</ele>
        <time>2022-09-04T05:55:37.000Z</time>
      </trkpt>
      <trkpt lat="48.49407" lon="-2.79963">
        <ele>137.60000610352</ele>
        <time>2022-09-04T05:55:38.000Z</time>
      </trkpt>
      <trkpt lat="48.49402" lon="-2.79975">
        <ele>137.60000610352</ele>
        <time>2022-09-04T05:55:40.000Z</time>
      </trkpt>
      <trkpt lat="48.49397" lon="-2.79987">
        <ele>137.80000305176</ele>
        <time>2022-09-04T05:55:42.000Z</time>
      </trkpt>
      <trkpt lat="48.49389" lon="-2.80006">
        <ele>138.19999694824</ele>
        <time>2022-09-04T05:55:45.000Z</time>
      </trkpt>
      <trkpt lat="48.49386" lon="-2.80013">
        <ele>138.19999694824</ele>
        <time>2022-09-04T05:55:46.000Z</time>
      </trkpt>
      <trkpt lat="48.49378" lon="-2.80036">
        <ele>138.60000610352</ele>
        <time>2022-09-04T05:55:49.000Z</time>
      </trkpt>
      <trkpt lat="48.49377" lon="-2.80043">
        <ele>138.60000610352</ele>
        <time>2022-09-04T05:55:50.000Z</time>
      </trkpt>
      <trkpt lat="48.49377" lon="-2.80052">
        <ele>138.60000610352</ele>
        <time>2022-09-04T05:55:51.000Z</time>
      </trkpt>
      <trkpt lat="48.49378" lon="-2.8006">
        <ele>138.80000305176</ele>
        <time>2022-09-04T05:55:52.000Z</time>
      </trkpt>
      <trkpt lat="48.49379" lon="-2.80065">
        <ele>138.80000305176</ele>
        <time>2022-09-04T05:55:53.000Z</time>
      </trkpt>
      <trkpt lat="48.49381" lon="-2.80068">
        <ele>138.80000305176</ele>
        <time>2022-09-04T05:55:54.000Z</time>
      </trkpt>
      <trkpt lat="48.49383" lon="-2.80071">
        <ele>138.80000305176</ele>
        <time>2022-09-04T05:55:55.000Z</time>
      </trkpt>
      <trkpt lat="48.49386" lon="-2.80072">
        <ele>138.80000305176</ele>
        <time>2022-09-04T05:55:56.000Z</time>
      </trkpt>
      <trkpt lat="48.49389" lon="-2.80073">
        <ele>138.80000305176</ele>
        <time>2022-09-04T05:55:57.000Z</time>
      </trkpt>
      <trkpt lat="48.49392" lon="-2.80076">
        <ele>138.80000305176</ele>
        <time>2022-09-04T05:55:58.000Z</time>
      </trkpt>
      <trkpt lat="48.49396" lon="-2.80079">
        <ele>138.80000305176</ele>
        <time>2022-09-04T05:55:59.000Z</time>
      </trkpt>
      <trkpt lat="48.49408" lon="-2.80089">
        <ele>138.80000305176</ele>
        <time>2022-09-04T05:56:02.000Z</time>
      </trkpt>
      <trkpt lat="48.49418" lon="-2.80091">
        <ele>138.80000305176</ele>
        <time>2022-09-04T05:56:04.000Z</time>
      </trkpt>
      <trkpt lat="48.49428" lon="-2.80096">
        <ele>138.80000305176</ele>
        <time>2022-09-04T05:56:06.000Z</time>
      </trkpt>
      <trkpt lat="48.49463" lon="-2.80118">
        <ele>138.80000305176</ele>
        <time>2022-09-04T05:56:12.000Z</time>
      </trkpt>
      <trkpt lat="48.49468" lon="-2.80123">
        <ele>138.80000305176</ele>
        <time>2022-09-04T05:56:13.000Z</time>
      </trkpt>
      <trkpt lat="48.49473" lon="-2.80128">
        <ele>138.80000305176</ele>
        <time>2022-09-04T05:56:14.000Z</time>
      </trkpt>
      <trkpt lat="48.49477" lon="-2.80135">
        <ele>138.60000610352</ele>
        <time>2022-09-04T05:56:15.000Z</time>
      </trkpt>
      <trkpt lat="48.4948" lon="-2.80141">
        <ele>138.60000610352</ele>
        <time>2022-09-04T05:56:16.000Z</time>
      </trkpt>
      <trkpt lat="48.49484" lon="-2.80146">
        <ele>138.60000610352</ele>
        <time>2022-09-04T05:56:17.000Z</time>
      </trkpt>
      <trkpt lat="48.49501" lon="-2.80159">
        <ele>138.19999694824</ele>
        <time>2022-09-04T05:56:20.000Z</time>
      </trkpt>
      <trkpt lat="48.49507" lon="-2.80164">
        <ele>138.19999694824</ele>
        <time>2022-09-04T05:56:21.000Z</time>
      </trkpt>
      <trkpt lat="48.49537" lon="-2.80186">
        <ele>137.60000610352</ele>
        <time>2022-09-04T05:56:26.000Z</time>
      </trkpt>
      <trkpt lat="48.49543" lon="-2.8019">
        <ele>137.39999389648</ele>
        <time>2022-09-04T05:56:27.000Z</time>
      </trkpt>
      <trkpt lat="48.49561" lon="-2.80201">
        <ele>137.19999694824</ele>
        <time>2022-09-04T05:56:30.000Z</time>
      </trkpt>
      <trkpt lat="48.49573" lon="-2.80201">
        <ele>137</ele>
        <time>2022-09-04T05:56:32.000Z</time>
      </trkpt>
      <trkpt lat="48.49581" lon="-2.80203">
        <ele>136.80000305176</ele>
        <time>2022-09-04T05:56:33.000Z</time>
      </trkpt>
      <trkpt lat="48.49591" lon="-2.80212">
        <ele>136.60000610352</ele>
        <time>2022-09-04T05:56:35.000Z</time>
      </trkpt>
      <trkpt lat="48.49593" lon="-2.80219">
        <ele>136.60000610352</ele>
        <time>2022-09-04T05:56:36.000Z</time>
      </trkpt>
      <trkpt lat="48.49592" lon="-2.80226">
        <ele>136.39999389648</ele>
        <time>2022-09-04T05:56:37.000Z</time>
      </trkpt>
      <trkpt lat="48.49591" lon="-2.80231">
        <ele>136.39999389648</ele>
        <time>2022-09-04T05:56:38.000Z</time>
      </trkpt>
      <trkpt lat="48.4959" lon="-2.80235">
        <ele>136.19999694824</ele>
        <time>2022-09-04T05:56:39.000Z</time>
      </trkpt>
      <trkpt lat="48.49588" lon="-2.80239">
        <ele>136.19999694824</ele>
        <time>2022-09-04T05:56:40.000Z</time>
      </trkpt>
      <trkpt lat="48.49588" lon="-2.80244">
        <ele>136.19999694824</ele>
        <time>2022-09-04T05:56:41.000Z</time>
      </trkpt>
      <trkpt lat="48.49581" lon="-2.80262">
        <ele>136</ele>
        <time>2022-09-04T05:56:44.000Z</time>
      </trkpt>
      <trkpt lat="48.49566" lon="-2.80303">
        <ele>135.80000305176</ele>
        <time>2022-09-04T05:56:49.000Z</time>
      </trkpt>
      <trkpt lat="48.49542" lon="-2.80374">
        <ele>135.60000610352</ele>
        <time>2022-09-04T05:56:57.000Z</time>
      </trkpt>
      <trkpt lat="48.49518" lon="-2.80447">
        <ele>135.80000305176</ele>
        <time>2022-09-04T05:57:05.000Z</time>
      </trkpt>
      <trkpt lat="48.49514" lon="-2.80455">
        <ele>135.80000305176</ele>
        <time>2022-09-04T05:57:06.000Z</time>
      </trkpt>
      <trkpt lat="48.49511" lon="-2.80462">
        <ele>135.80000305176</ele>
        <time>2022-09-04T05:57:07.000Z</time>
      </trkpt>
      <trkpt lat="48.49509" lon="-2.8047">
        <ele>136</ele>
        <time>2022-09-04T05:57:08.000Z</time>
      </trkpt>
      <trkpt lat="48.49508" lon="-2.80476">
        <ele>135.80000305176</ele>
        <time>2022-09-04T05:57:09.000Z</time>
      </trkpt>
      <trkpt lat="48.49509" lon="-2.80482">
        <ele>136</ele>
        <time>2022-09-04T05:57:10.000Z</time>
      </trkpt>
      <trkpt lat="48.49511" lon="-2.80487">
        <ele>136</ele>
        <time>2022-09-04T05:57:11.000Z</time>
      </trkpt>
      <trkpt lat="48.49515" lon="-2.80491">
        <ele>135.80000305176</ele>
        <time>2022-09-04T05:57:12.000Z</time>
      </trkpt>
      <trkpt lat="48.4952" lon="-2.80494">
        <ele>135.80000305176</ele>
        <time>2022-09-04T05:57:13.000Z</time>
      </trkpt>
      <trkpt lat="48.4953" lon="-2.80501">
        <ele>135.60000610352</ele>
        <time>2022-09-04T05:57:15.000Z</time>
      </trkpt>
      <trkpt lat="48.49536" lon="-2.80505">
        <ele>135.60000610352</ele>
        <time>2022-09-04T05:57:16.000Z</time>
      </trkpt>
      <trkpt lat="48.49552" lon="-2.80517">
        <ele>135</ele>
        <time>2022-09-04T05:57:19.000Z</time>
      </trkpt>
      <trkpt lat="48.49563" lon="-2.80527">
        <ele>134.80000305176</ele>
        <time>2022-09-04T05:57:21.000Z</time>
      </trkpt>
      <trkpt lat="48.49578" lon="-2.80544">
        <ele>134.60000610352</ele>
        <time>2022-09-04T05:57:24.000Z</time>
      </trkpt>
      <trkpt lat="48.49598" lon="-2.80569">
        <ele>134.39999389648</ele>
        <time>2022-09-04T05:57:28.000Z</time>
      </trkpt>
      <trkpt lat="48.49613" lon="-2.80586">
        <ele>134.19999694824</ele>
        <time>2022-09-04T05:57:31.000Z</time>
      </trkpt>
      <trkpt lat="48.49619" lon="-2.80588">
        <ele>134.19999694824</ele>
        <time>2022-09-04T05:57:32.000Z</time>
      </trkpt>
      <trkpt lat="48.49624" lon="-2.80589">
        <ele>134.19999694824</ele>
        <time>2022-09-04T05:57:33.000Z</time>
      </trkpt>
      <trkpt lat="48.4963" lon="-2.8059">
        <ele>134.19999694824</ele>
        <time>2022-09-04T05:57:34.000Z</time>
      </trkpt>
      <trkpt lat="48.49634" lon="-2.80593">
        <ele>134</ele>
        <time>2022-09-04T05:57:35.000Z</time>
      </trkpt>
      <trkpt lat="48.49635" lon="-2.80599">
        <ele>134</ele>
        <time>2022-09-04T05:57:36.000Z</time>
      </trkpt>
      <trkpt lat="48.49635" lon="-2.80607">
        <ele>133.60000610352</ele>
        <time>2022-09-04T05:57:37.000Z</time>
      </trkpt>
      <trkpt lat="48.49633" lon="-2.80614">
        <ele>133.39999389648</ele>
        <time>2022-09-04T05:57:38.000Z</time>
      </trkpt>
      <trkpt lat="48.49631" lon="-2.80621">
        <ele>133.19999694824</ele>
        <time>2022-09-04T05:57:39.000Z</time>
      </trkpt>
      <trkpt lat="48.49628" lon="-2.80629">
        <ele>133.19999694824</ele>
        <time>2022-09-04T05:57:40.000Z</time>
      </trkpt>
      <trkpt lat="48.49624" lon="-2.80637">
        <ele>133.19999694824</ele>
        <time>2022-09-04T05:57:41.000Z</time>
      </trkpt>
      <trkpt lat="48.49623" lon="-2.80644">
        <ele>133</ele>
        <time>2022-09-04T05:57:42.000Z</time>
      </trkpt>
      <trkpt lat="48.49623" lon="-2.80649">
        <ele>133</ele>
        <time>2022-09-04T05:57:43.000Z</time>
      </trkpt>
      <trkpt lat="48.49626" lon="-2.80651">
        <ele>132.80000305176</ele>
        <time>2022-09-04T05:57:44.000Z</time>
      </trkpt>
      <trkpt lat="48.4963" lon="-2.8065">
        <ele>132.80000305176</ele>
        <time>2022-09-04T05:57:45.000Z</time>
      </trkpt>
      <trkpt lat="48.49651" lon="-2.80636">
        <ele>132.39999389648</ele>
        <time>2022-09-04T05:57:49.000Z</time>
      </trkpt>
      <trkpt lat="48.49668" lon="-2.80624">
        <ele>132.39999389648</ele>
        <time>2022-09-04T05:57:52.000Z</time>
      </trkpt>
      <trkpt lat="48.497" lon="-2.80604">
        <ele>132</ele>
        <time>2022-09-04T05:57:57.000Z</time>
      </trkpt>
      <trkpt lat="48.49755" lon="-2.80572">
        <ele>131.80000305176</ele>
        <time>2022-09-04T05:58:05.000Z</time>
      </trkpt>
      <trkpt lat="48.49809" lon="-2.80538">
        <ele>132</ele>
        <time>2022-09-04T05:58:13.000Z</time>
      </trkpt>
      <trkpt lat="48.49816" lon="-2.80533">
        <ele>132</ele>
        <time>2022-09-04T05:58:14.000Z</time>
      </trkpt>
      <trkpt lat="48.49858" lon="-2.80507">
        <ele>131.80000305176</ele>
        <time>2022-09-04T05:58:20.000Z</time>
      </trkpt>
      <trkpt lat="48.49865" lon="-2.80504">
        <ele>131.80000305176</ele>
        <time>2022-09-04T05:58:21.000Z</time>
      </trkpt>
      <trkpt lat="48.4987" lon="-2.80501">
        <ele>131.60000610352</ele>
        <time>2022-09-04T05:58:22.000Z</time>
      </trkpt>
      <trkpt lat="48.49877" lon="-2.80497">
        <ele>131.60000610352</ele>
        <time>2022-09-04T05:58:23.000Z</time>
      </trkpt>
      <trkpt lat="48.4993" lon="-2.80467">
        <ele>131.80000305176</ele>
        <time>2022-09-04T05:58:31.000Z</time>
      </trkpt>
      <trkpt lat="48.49937" lon="-2.80463">
        <ele>131.80000305176</ele>
        <time>2022-09-04T05:58:32.000Z</time>
      </trkpt>
      <trkpt lat="48.49945" lon="-2.80459">
        <ele>131.80000305176</ele>
        <time>2022-09-04T05:58:33.000Z</time>
      </trkpt>
      <trkpt lat="48.49952" lon="-2.80456">
        <ele>131.80000305176</ele>
        <time>2022-09-04T05:58:34.000Z</time>
      </trkpt>
      <trkpt lat="48.49957" lon="-2.80454">
        <ele>131.39999389648</ele>
        <time>2022-09-04T05:58:35.000Z</time>
      </trkpt>
      <trkpt lat="48.49963" lon="-2.80451">
        <ele>131.39999389648</ele>
        <time>2022-09-04T05:58:36.000Z</time>
      </trkpt>
      <trkpt lat="48.49968" lon="-2.80449">
        <ele>131.19999694824</ele>
        <time>2022-09-04T05:58:37.000Z</time>
      </trkpt>
      <trkpt lat="48.49972" lon="-2.80445">
        <ele>131.19999694824</ele>
        <time>2022-09-04T05:58:38.000Z</time>
      </trkpt>
      <trkpt lat="48.49974" lon="-2.80438">
        <ele>131.19999694824</ele>
        <time>2022-09-04T05:58:39.000Z</time>
      </trkpt>
      <trkpt lat="48.49974" lon="-2.80433">
        <ele>131</ele>
        <time>2022-09-04T05:58:40.000Z</time>
      </trkpt>
      <trkpt lat="48.49972" lon="-2.80426">
        <ele>131</ele>
        <time>2022-09-04T05:58:41.000Z</time>
      </trkpt>
      <trkpt lat="48.49964" lon="-2.80405">
        <ele>130.80000305176</ele>
        <time>2022-09-04T05:58:44.000Z</time>
      </trkpt>
      <trkpt lat="48.49951" lon="-2.80375">
        <ele>131.19999694824</ele>
        <time>2022-09-04T05:58:48.000Z</time>
      </trkpt>
      <trkpt lat="48.49942" lon="-2.80344">
        <ele>131.60000610352</ele>
        <time>2022-09-04T05:58:52.000Z</time>
      </trkpt>
      <trkpt lat="48.49931" lon="-2.80304">
        <ele>132.19999694824</ele>
        <time>2022-09-04T05:58:57.000Z</time>
      </trkpt>
      <trkpt lat="48.4993" lon="-2.80297">
        <ele>132.39999389648</ele>
        <time>2022-09-04T05:58:58.000Z</time>
      </trkpt>
      <trkpt lat="48.49928" lon="-2.80289">
        <ele>132.60000610352</ele>
        <time>2022-09-04T05:58:59.000Z</time>
      </trkpt>
      <trkpt lat="48.49925" lon="-2.8027">
        <ele>132.60000610352</ele>
        <time>2022-09-04T05:59:01.000Z</time>
      </trkpt>
      <trkpt lat="48.49911" lon="-2.80193">
        <ele>132.80000305176</ele>
        <time>2022-09-04T05:59:10.000Z</time>
      </trkpt>
      <trkpt lat="48.4991" lon="-2.80183">
        <ele>132.80000305176</ele>
        <time>2022-09-04T05:59:11.000Z</time>
      </trkpt>
      <trkpt lat="48.49904" lon="-2.80156">
        <ele>132.80000305176</ele>
        <time>2022-09-04T05:59:14.000Z</time>
      </trkpt>
      <trkpt lat="48.49901" lon="-2.80139">
        <ele>132.80000305176</ele>
        <time>2022-09-04T05:59:16.000Z</time>
      </trkpt>
      <trkpt lat="48.49898" lon="-2.80123">
        <ele>132.80000305176</ele>
        <time>2022-09-04T05:59:18.000Z</time>
      </trkpt>
      <trkpt lat="48.49887" lon="-2.80067">
        <ele>132.60000610352</ele>
        <time>2022-09-04T05:59:24.000Z</time>
      </trkpt>
      <trkpt lat="48.49886" lon="-2.80058">
        <ele>132.60000610352</ele>
        <time>2022-09-04T05:59:25.000Z</time>
      </trkpt>
      <trkpt lat="48.49884" lon="-2.80049">
        <ele>132.39999389648</ele>
        <time>2022-09-04T05:59:26.000Z</time>
      </trkpt>
      <trkpt lat="48.49883" lon="-2.80041">
        <ele>132.39999389648</ele>
        <time>2022-09-04T05:59:27.000Z</time>
      </trkpt>
      <trkpt lat="48.49878" lon="-2.80024">
        <ele>132.19999694824</ele>
        <time>2022-09-04T05:59:29.000Z</time>
      </trkpt>
      <trkpt lat="48.49874" lon="-2.80007">
        <ele>132.19999694824</ele>
        <time>2022-09-04T05:59:31.000Z</time>
      </trkpt>
      <trkpt lat="48.49871" lon="-2.79999">
        <ele>131.80000305176</ele>
        <time>2022-09-04T05:59:32.000Z</time>
      </trkpt>
      <trkpt lat="48.49867" lon="-2.79993">
        <ele>131.80000305176</ele>
        <time>2022-09-04T05:59:33.000Z</time>
      </trkpt>
      <trkpt lat="48.49859" lon="-2.79981">
        <ele>131.80000305176</ele>
        <time>2022-09-04T05:59:35.000Z</time>
      </trkpt>
      <trkpt lat="48.49854" lon="-2.79976">
        <ele>131.80000305176</ele>
        <time>2022-09-04T05:59:36.000Z</time>
      </trkpt>
      <trkpt lat="48.49845" lon="-2.79969">
        <ele>132</ele>
        <time>2022-09-04T05:59:38.000Z</time>
      </trkpt>
      <trkpt lat="48.49824" lon="-2.79953">
        <ele>132.39999389648</ele>
        <time>2022-09-04T05:59:42.000Z</time>
      </trkpt>
      <trkpt lat="48.49818" lon="-2.79949">
        <ele>132.39999389648</ele>
        <time>2022-09-04T05:59:43.000Z</time>
      </trkpt>
      <trkpt lat="48.49803" lon="-2.79937">
        <ele>132.60000610352</ele>
        <time>2022-09-04T05:59:46.000Z</time>
      </trkpt>
      <trkpt lat="48.49778" lon="-2.79915">
        <ele>132.60000610352</ele>
        <time>2022-09-04T05:59:51.000Z</time>
      </trkpt>
      <trkpt lat="48.49763" lon="-2.79901">
        <ele>132.60000610352</ele>
        <time>2022-09-04T05:59:54.000Z</time>
      </trkpt>
      <trkpt lat="48.49743" lon="-2.79881">
        <ele>132.60000610352</ele>
        <time>2022-09-04T05:59:58.000Z</time>
      </trkpt>
      <trkpt lat="48.49715" lon="-2.79848">
        <ele>133</ele>
        <time>2022-09-04T06:00:04.000Z</time>
      </trkpt>
      <trkpt lat="48.49709" lon="-2.79842">
        <ele>133</ele>
        <time>2022-09-04T06:00:05.000Z</time>
      </trkpt>
      <trkpt lat="48.49705" lon="-2.79838">
        <ele>133</ele>
        <time>2022-09-04T06:00:06.000Z</time>
      </trkpt>
      <trkpt lat="48.497" lon="-2.79833">
        <ele>133</ele>
        <time>2022-09-04T06:00:07.000Z</time>
      </trkpt>
      <trkpt lat="48.49695" lon="-2.79828">
        <ele>133</ele>
        <time>2022-09-04T06:00:08.000Z</time>
      </trkpt>
      <trkpt lat="48.49689" lon="-2.79824">
        <ele>133</ele>
        <time>2022-09-04T06:00:09.000Z</time>
      </trkpt>
      <trkpt lat="48.49686" lon="-2.79818">
        <ele>133</ele>
        <time>2022-09-04T06:00:10.000Z</time>
      </trkpt>
      <trkpt lat="48.49683" lon="-2.7981">
        <ele>133</ele>
        <time>2022-09-04T06:00:11.000Z</time>
      </trkpt>
      <trkpt lat="48.49683" lon="-2.79802">
        <ele>133</ele>
        <time>2022-09-04T06:00:12.000Z</time>
      </trkpt>
      <trkpt lat="48.49685" lon="-2.79794">
        <ele>133</ele>
        <time>2022-09-04T06:00:13.000Z</time>
      </trkpt>
      <trkpt lat="48.49688" lon="-2.79785">
        <ele>133</ele>
        <time>2022-09-04T06:00:14.000Z</time>
      </trkpt>
      <trkpt lat="48.49692" lon="-2.79767">
        <ele>133</ele>
        <time>2022-09-04T06:00:16.000Z</time>
      </trkpt>
      <trkpt lat="48.49695" lon="-2.79756">
        <ele>133</ele>
        <time>2022-09-04T06:00:17.000Z</time>
      </trkpt>
      <trkpt lat="48.497" lon="-2.7974">
        <ele>132.80000305176</ele>
        <time>2022-09-04T06:00:19.000Z</time>
      </trkpt>
      <trkpt lat="48.49713" lon="-2.7968">
        <ele>132.39999389648</ele>
        <time>2022-09-04T06:00:25.000Z</time>
      </trkpt>
      <trkpt lat="48.4972" lon="-2.79613">
        <ele>131.80000305176</ele>
        <time>2022-09-04T06:00:31.000Z</time>
      </trkpt>
      <trkpt lat="48.49725" lon="-2.7959">
        <ele>131.39999389648</ele>
        <time>2022-09-04T06:00:33.000Z</time>
      </trkpt>
      <trkpt lat="48.49731" lon="-2.79567">
        <ele>131</ele>
        <time>2022-09-04T06:00:35.000Z</time>
      </trkpt>
      <trkpt lat="48.49739" lon="-2.79546">
        <ele>130.39999389648</ele>
        <time>2022-09-04T06:00:37.000Z</time>
      </trkpt>
      <trkpt lat="48.49743" lon="-2.79536">
        <ele>130.19999694824</ele>
        <time>2022-09-04T06:00:38.000Z</time>
      </trkpt>
      <trkpt lat="48.49754" lon="-2.79517">
        <ele>129</ele>
        <time>2022-09-04T06:00:40.000Z</time>
      </trkpt>
      <trkpt lat="48.49785" lon="-2.79476">
        <ele>128</ele>
        <time>2022-09-04T06:00:45.000Z</time>
      </trkpt>
      <trkpt lat="48.49791" lon="-2.79466">
        <ele>127.59999847412</ele>
        <time>2022-09-04T06:00:46.000Z</time>
      </trkpt>
      <trkpt lat="48.49807" lon="-2.79435">
        <ele>126.59999847412</ele>
        <time>2022-09-04T06:00:49.000Z</time>
      </trkpt>
      <trkpt lat="48.49822" lon="-2.79399">
        <ele>125.59999847412</ele>
        <time>2022-09-04T06:00:52.000Z</time>
      </trkpt>
      <trkpt lat="48.49826" lon="-2.79387">
        <ele>125.19999694824</ele>
        <time>2022-09-04T06:00:53.000Z</time>
      </trkpt>
      <trkpt lat="48.49841" lon="-2.79338">
        <ele>123.59999847412</ele>
        <time>2022-09-04T06:00:57.000Z</time>
      </trkpt>
      <trkpt lat="48.49848" lon="-2.79315">
        <ele>123</ele>
        <time>2022-09-04T06:00:59.000Z</time>
      </trkpt>
      <trkpt lat="48.49862" lon="-2.79282">
        <ele>122.40000152588</ele>
        <time>2022-09-04T06:01:02.000Z</time>
      </trkpt>
      <trkpt lat="48.49874" lon="-2.79261">
        <ele>122</ele>
        <time>2022-09-04T06:01:04.000Z</time>
      </trkpt>
      <trkpt lat="48.49885" lon="-2.79238">
        <ele>121.59999847412</ele>
        <time>2022-09-04T06:01:06.000Z</time>
      </trkpt>
      <trkpt lat="48.49888" lon="-2.79226">
        <ele>121.40000152588</ele>
        <time>2022-09-04T06:01:07.000Z</time>
      </trkpt>
      <trkpt lat="48.49892" lon="-2.79214">
        <ele>121</ele>
        <time>2022-09-04T06:01:08.000Z</time>
      </trkpt>
      <trkpt lat="48.49894" lon="-2.79201">
        <ele>121</ele>
        <time>2022-09-04T06:01:09.000Z</time>
      </trkpt>
      <trkpt lat="48.49896" lon="-2.7919">
        <ele>120</ele>
        <time>2022-09-04T06:01:10.000Z</time>
      </trkpt>
      <trkpt lat="48.49897" lon="-2.7918">
        <ele>118.80000305176</ele>
        <time>2022-09-04T06:01:11.000Z</time>
      </trkpt>
      <trkpt lat="48.49896" lon="-2.79171">
        <ele>118.59999847412</ele>
        <time>2022-09-04T06:01:12.000Z</time>
      </trkpt>
      <trkpt lat="48.49896" lon="-2.79163">
        <ele>118.19999694824</ele>
        <time>2022-09-04T06:01:13.000Z</time>
      </trkpt>
      <trkpt lat="48.49897" lon="-2.79155">
        <ele>118</ele>
        <time>2022-09-04T06:01:14.000Z</time>
      </trkpt>
      <trkpt lat="48.49898" lon="-2.79147">
        <ele>117.40000152588</ele>
        <time>2022-09-04T06:01:15.000Z</time>
      </trkpt>
      <trkpt lat="48.499" lon="-2.79132">
        <ele>116.59999847412</ele>
        <time>2022-09-04T06:01:17.000Z</time>
      </trkpt>
      <trkpt lat="48.49904" lon="-2.79128">
        <ele>116.40000152588</ele>
        <time>2022-09-04T06:01:18.000Z</time>
      </trkpt>
      <trkpt lat="48.49909" lon="-2.79126">
        <ele>116</ele>
        <time>2022-09-04T06:01:19.000Z</time>
      </trkpt>
      <trkpt lat="48.49921" lon="-2.79127">
        <ele>115.40000152588</ele>
        <time>2022-09-04T06:01:21.000Z</time>
      </trkpt>
      <trkpt lat="48.49928" lon="-2.7913">
        <ele>115</ele>
        <time>2022-09-04T06:01:22.000Z</time>
      </trkpt>
      <trkpt lat="48.49934" lon="-2.79133">
        <ele>114.80000305176</ele>
        <time>2022-09-04T06:01:23.000Z</time>
      </trkpt>
      <trkpt lat="48.49941" lon="-2.79135">
        <ele>114.59999847412</ele>
        <time>2022-09-04T06:01:24.000Z</time>
      </trkpt>
      <trkpt lat="48.49955" lon="-2.79139">
        <ele>114.40000152588</ele>
        <time>2022-09-04T06:01:26.000Z</time>
      </trkpt>
      <trkpt lat="48.49967" lon="-2.79151">
        <ele>114.19999694824</ele>
        <time>2022-09-04T06:01:28.000Z</time>
      </trkpt>
      <trkpt lat="48.49972" lon="-2.79158">
        <ele>114</ele>
        <time>2022-09-04T06:01:29.000Z</time>
      </trkpt>
      <trkpt lat="48.49976" lon="-2.79165">
        <ele>113.59999847412</ele>
        <time>2022-09-04T06:01:30.000Z</time>
      </trkpt>
      <trkpt lat="48.49981" lon="-2.79174">
        <ele>113.19999694824</ele>
        <time>2022-09-04T06:01:31.000Z</time>
      </trkpt>
      <trkpt lat="48.49985" lon="-2.79183">
        <ele>113</ele>
        <time>2022-09-04T06:01:32.000Z</time>
      </trkpt>
      <trkpt lat="48.49989" lon="-2.79192">
        <ele>112.59999847412</ele>
        <time>2022-09-04T06:01:33.000Z</time>
      </trkpt>
      <trkpt lat="48.49997" lon="-2.79211">
        <ele>111.80000305176</ele>
        <time>2022-09-04T06:01:35.000Z</time>
      </trkpt>
      <trkpt lat="48.5" lon="-2.79221">
        <ele>111.80000305176</ele>
        <time>2022-09-04T06:01:36.000Z</time>
      </trkpt>
      <trkpt lat="48.50004" lon="-2.79232">
        <ele>111.80000305176</ele>
        <time>2022-09-04T06:01:37.000Z</time>
      </trkpt>
      <trkpt lat="48.50008" lon="-2.79241">
        <ele>111.40000152588</ele>
        <time>2022-09-04T06:01:38.000Z</time>
      </trkpt>
      <trkpt lat="48.50012" lon="-2.79251">
        <ele>111.40000152588</ele>
        <time>2022-09-04T06:01:39.000Z</time>
      </trkpt>
      <trkpt lat="48.50014" lon="-2.79258">
        <ele>111.19999694824</ele>
        <time>2022-09-04T06:01:40.000Z</time>
      </trkpt>
      <trkpt lat="48.50017" lon="-2.79266">
        <ele>111.19999694824</ele>
        <time>2022-09-04T06:01:41.000Z</time>
      </trkpt>
      <trkpt lat="48.50021" lon="-2.79275">
        <ele>111.19999694824</ele>
        <time>2022-09-04T06:01:42.000Z</time>
      </trkpt>
      <trkpt lat="48.50024" lon="-2.79284">
        <ele>111.19999694824</ele>
        <time>2022-09-04T06:01:43.000Z</time>
      </trkpt>
      <trkpt lat="48.50026" lon="-2.79293">
        <ele>111.19999694824</ele>
        <time>2022-09-04T06:01:44.000Z</time>
      </trkpt>
      <trkpt lat="48.50028" lon="-2.79303">
        <ele>111.19999694824</ele>
        <time>2022-09-04T06:01:45.000Z</time>
      </trkpt>
      <trkpt lat="48.5003" lon="-2.79313">
        <ele>111.40000152588</ele>
        <time>2022-09-04T06:01:46.000Z</time>
      </trkpt>
      <trkpt lat="48.50031" lon="-2.79332">
        <ele>111.40000152588</ele>
        <time>2022-09-04T06:01:48.000Z</time>
      </trkpt>
      <trkpt lat="48.50031" lon="-2.79373">
        <ele>110.80000305176</ele>
        <time>2022-09-04T06:01:52.000Z</time>
      </trkpt>
      <trkpt lat="48.50034" lon="-2.79381">
        <ele>110.80000305176</ele>
        <time>2022-09-04T06:01:53.000Z</time>
      </trkpt>
      <trkpt lat="48.50038" lon="-2.79388">
        <ele>110.80000305176</ele>
        <time>2022-09-04T06:01:54.000Z</time>
      </trkpt>
      <trkpt lat="48.50042" lon="-2.79393">
        <ele>110.80000305176</ele>
        <time>2022-09-04T06:01:55.000Z</time>
      </trkpt>
      <trkpt lat="48.50046" lon="-2.79398">
        <ele>110.80000305176</ele>
        <time>2022-09-04T06:01:56.000Z</time>
      </trkpt>
      <trkpt lat="48.5005" lon="-2.79402">
        <ele>111</ele>
        <time>2022-09-04T06:01:57.000Z</time>
      </trkpt>
      <trkpt lat="48.50054" lon="-2.79405">
        <ele>111</ele>
        <time>2022-09-04T06:01:58.000Z</time>
      </trkpt>
      <trkpt lat="48.50058" lon="-2.79406">
        <ele>111</ele>
        <time>2022-09-04T06:01:59.000Z</time>
      </trkpt>
      <trkpt lat="48.50061" lon="-2.79404">
        <ele>111</ele>
        <time>2022-09-04T06:02:00.000Z</time>
      </trkpt>
      <trkpt lat="48.50064" lon="-2.79403">
        <ele>111.19999694824</ele>
        <time>2022-09-04T06:02:01.000Z</time>
      </trkpt>
      <trkpt lat="48.50066" lon="-2.79399">
        <ele>111</ele>
        <time>2022-09-04T06:02:02.000Z</time>
      </trkpt>
      <trkpt lat="48.50068" lon="-2.79397">
        <ele>111.19999694824</ele>
        <time>2022-09-04T06:02:03.000Z</time>
      </trkpt>
      <trkpt lat="48.50071" lon="-2.79392">
        <ele>111.19999694824</ele>
        <time>2022-09-04T06:02:04.000Z</time>
      </trkpt>
      <trkpt lat="48.50075" lon="-2.79385">
        <ele>111.40000152588</ele>
        <time>2022-09-04T06:02:05.000Z</time>
      </trkpt>
      <trkpt lat="48.50079" lon="-2.7938">
        <ele>111.59999847412</ele>
        <time>2022-09-04T06:02:06.000Z</time>
      </trkpt>
      <trkpt lat="48.50089" lon="-2.79371">
        <ele>111.80000305176</ele>
        <time>2022-09-04T06:02:08.000Z</time>
      </trkpt>
      <trkpt lat="48.50099" lon="-2.79367">
        <ele>111.80000305176</ele>
        <time>2022-09-04T06:02:10.000Z</time>
      </trkpt>
      <trkpt lat="48.50105" lon="-2.79367">
        <ele>111.80000305176</ele>
        <time>2022-09-04T06:02:11.000Z</time>
      </trkpt>
      <trkpt lat="48.5011" lon="-2.79366">
        <ele>111.80000305176</ele>
        <time>2022-09-04T06:02:12.000Z</time>
      </trkpt>
      <trkpt lat="48.50116" lon="-2.79367">
        <ele>111.80000305176</ele>
        <time>2022-09-04T06:02:13.000Z</time>
      </trkpt>
      <trkpt lat="48.50121" lon="-2.79367">
        <ele>111.80000305176</ele>
        <time>2022-09-04T06:02:14.000Z</time>
      </trkpt>
      <trkpt lat="48.50137" lon="-2.79369">
        <ele>111.80000305176</ele>
        <time>2022-09-04T06:02:17.000Z</time>
      </trkpt>
      <trkpt lat="48.50148" lon="-2.79374">
        <ele>111.80000305176</ele>
        <time>2022-09-04T06:02:19.000Z</time>
      </trkpt>
      <trkpt lat="48.50153" lon="-2.79377">
        <ele>111.80000305176</ele>
        <time>2022-09-04T06:02:20.000Z</time>
      </trkpt>
      <trkpt lat="48.50161" lon="-2.79385">
        <ele>111.80000305176</ele>
        <time>2022-09-04T06:02:22.000Z</time>
      </trkpt>
      <trkpt lat="48.50165" lon="-2.79391">
        <ele>111.80000305176</ele>
        <time>2022-09-04T06:02:23.000Z</time>
      </trkpt>
      <trkpt lat="48.50169" lon="-2.79397">
        <ele>112</ele>
        <time>2022-09-04T06:02:24.000Z</time>
      </trkpt>
      <trkpt lat="48.50173" lon="-2.79403">
        <ele>112</ele>
        <time>2022-09-04T06:02:25.000Z</time>
      </trkpt>
      <trkpt lat="48.50177" lon="-2.79409">
        <ele>112</ele>
        <time>2022-09-04T06:02:26.000Z</time>
      </trkpt>
      <trkpt lat="48.50181" lon="-2.79415">
        <ele>112.19999694824</ele>
        <time>2022-09-04T06:02:27.000Z</time>
      </trkpt>
      <trkpt lat="48.50184" lon="-2.79421">
        <ele>112.40000152588</ele>
        <time>2022-09-04T06:02:28.000Z</time>
      </trkpt>
      <trkpt lat="48.5019" lon="-2.79435">
        <ele>112.59999847412</ele>
        <time>2022-09-04T06:02:30.000Z</time>
      </trkpt>
      <trkpt lat="48.50194" lon="-2.79442">
        <ele>112.59999847412</ele>
        <time>2022-09-04T06:02:31.000Z</time>
      </trkpt>
      <trkpt lat="48.502" lon="-2.79455">
        <ele>113</ele>
        <time>2022-09-04T06:02:33.000Z</time>
      </trkpt>
      <trkpt lat="48.50203" lon="-2.79461">
        <ele>113</ele>
        <time>2022-09-04T06:02:34.000Z</time>
      </trkpt>
      <trkpt lat="48.5021" lon="-2.7947">
        <ele>113</ele>
        <time>2022-09-04T06:02:36.000Z</time>
      </trkpt>
      <trkpt lat="48.50213" lon="-2.79474">
        <ele>113</ele>
        <time>2022-09-04T06:02:37.000Z</time>
      </trkpt>
      <trkpt lat="48.50227" lon="-2.79497">
        <ele>113</ele>
        <time>2022-09-04T06:02:41.000Z</time>
      </trkpt>
      <trkpt lat="48.50247" lon="-2.79538">
        <ele>113</ele>
        <time>2022-09-04T06:02:47.000Z</time>
      </trkpt>
      <trkpt lat="48.50261" lon="-2.79565">
        <ele>113.40000152588</ele>
        <time>2022-09-04T06:02:51.000Z</time>
      </trkpt>
      <trkpt lat="48.50271" lon="-2.79587">
        <ele>113.59999847412</ele>
        <time>2022-09-04T06:02:54.000Z</time>
      </trkpt>
      <trkpt lat="48.50292" lon="-2.79643">
        <ele>113.80000305176</ele>
        <time>2022-09-04T06:03:01.000Z</time>
      </trkpt>
      <trkpt lat="48.50294" lon="-2.79651">
        <ele>113.80000305176</ele>
        <time>2022-09-04T06:03:02.000Z</time>
      </trkpt>
      <trkpt lat="48.50295" lon="-2.7966">
        <ele>113.80000305176</ele>
        <time>2022-09-04T06:03:03.000Z</time>
      </trkpt>
      <trkpt lat="48.50296" lon="-2.7967">
        <ele>113.80000305176</ele>
        <time>2022-09-04T06:03:04.000Z</time>
      </trkpt>
      <trkpt lat="48.50297" lon="-2.79679">
        <ele>113.80000305176</ele>
        <time>2022-09-04T06:03:05.000Z</time>
      </trkpt>
      <trkpt lat="48.50298" lon="-2.79688">
        <ele>113.80000305176</ele>
        <time>2022-09-04T06:03:06.000Z</time>
      </trkpt>
      <trkpt lat="48.503" lon="-2.79696">
        <ele>113.80000305176</ele>
        <time>2022-09-04T06:03:07.000Z</time>
      </trkpt>
      <trkpt lat="48.50302" lon="-2.79704">
        <ele>113.80000305176</ele>
        <time>2022-09-04T06:03:08.000Z</time>
      </trkpt>
      <trkpt lat="48.50304" lon="-2.79712">
        <ele>113.80000305176</ele>
        <time>2022-09-04T06:03:09.000Z</time>
      </trkpt>
      <trkpt lat="48.50307" lon="-2.79718">
        <ele>113.80000305176</ele>
        <time>2022-09-04T06:03:10.000Z</time>
      </trkpt>
      <trkpt lat="48.5031" lon="-2.79724">
        <ele>114</ele>
        <time>2022-09-04T06:03:11.000Z</time>
      </trkpt>
      <trkpt lat="48.50314" lon="-2.7973">
        <ele>114.19999694824</ele>
        <time>2022-09-04T06:03:12.000Z</time>
      </trkpt>
      <trkpt lat="48.50318" lon="-2.79735">
        <ele>114.40000152588</ele>
        <time>2022-09-04T06:03:13.000Z</time>
      </trkpt>
      <trkpt lat="48.50321" lon="-2.7974">
        <ele>114.59999847412</ele>
        <time>2022-09-04T06:03:14.000Z</time>
      </trkpt>
      <trkpt lat="48.50325" lon="-2.79744">
        <ele>114.80000305176</ele>
        <time>2022-09-04T06:03:15.000Z</time>
      </trkpt>
      <trkpt lat="48.50328" lon="-2.79749">
        <ele>115</ele>
        <time>2022-09-04T06:03:16.000Z</time>
      </trkpt>
      <trkpt lat="48.50332" lon="-2.79753">
        <ele>115.19999694824</ele>
        <time>2022-09-04T06:03:17.000Z</time>
      </trkpt>
      <trkpt lat="48.50336" lon="-2.79757">
        <ele>115.40000152588</ele>
        <time>2022-09-04T06:03:18.000Z</time>
      </trkpt>
      <trkpt lat="48.50339" lon="-2.79761">
        <ele>115.59999847412</ele>
        <time>2022-09-04T06:03:19.000Z</time>
      </trkpt>
      <trkpt lat="48.50343" lon="-2.79765">
        <ele>115.80000305176</ele>
        <time>2022-09-04T06:03:20.000Z</time>
      </trkpt>
      <trkpt lat="48.50351" lon="-2.79772">
        <ele>116.19999694824</ele>
        <time>2022-09-04T06:03:22.000Z</time>
      </trkpt>
      <trkpt lat="48.50363" lon="-2.79783">
        <ele>116.80000305176</ele>
        <time>2022-09-04T06:03:25.000Z</time>
      </trkpt>
      <trkpt lat="48.50367" lon="-2.79786">
        <ele>117</ele>
        <time>2022-09-04T06:03:26.000Z</time>
      </trkpt>
      <trkpt lat="48.50372" lon="-2.79789">
        <ele>117.19999694824</ele>
        <time>2022-09-04T06:03:27.000Z</time>
      </trkpt>
      <trkpt lat="48.50376" lon="-2.79793">
        <ele>117.40000152588</ele>
        <time>2022-09-04T06:03:28.000Z</time>
      </trkpt>
      <trkpt lat="48.50381" lon="-2.79797">
        <ele>117.40000152588</ele>
        <time>2022-09-04T06:03:29.000Z</time>
      </trkpt>
      <trkpt lat="48.50386" lon="-2.79801">
        <ele>117.59999847412</ele>
        <time>2022-09-04T06:03:30.000Z</time>
      </trkpt>
      <trkpt lat="48.5039" lon="-2.79806">
        <ele>117.80000305176</ele>
        <time>2022-09-04T06:03:31.000Z</time>
      </trkpt>
      <trkpt lat="48.50395" lon="-2.7981">
        <ele>118</ele>
        <time>2022-09-04T06:03:32.000Z</time>
      </trkpt>
      <trkpt lat="48.504" lon="-2.79815">
        <ele>118.19999694824</ele>
        <time>2022-09-04T06:03:33.000Z</time>
      </trkpt>
      <trkpt lat="48.50404" lon="-2.7982">
        <ele>118.19999694824</ele>
        <time>2022-09-04T06:03:34.000Z</time>
      </trkpt>
      <trkpt lat="48.50409" lon="-2.79825">
        <ele>118.19999694824</ele>
        <time>2022-09-04T06:03:35.000Z</time>
      </trkpt>
      <trkpt lat="48.50414" lon="-2.79831">
        <ele>118.19999694824</ele>
        <time>2022-09-04T06:03:36.000Z</time>
      </trkpt>
      <trkpt lat="48.50418" lon="-2.79836">
        <ele>118.19999694824</ele>
        <time>2022-09-04T06:03:37.000Z</time>
      </trkpt>
      <trkpt lat="48.50423" lon="-2.79841">
        <ele>118.19999694824</ele>
        <time>2022-09-04T06:03:38.000Z</time>
      </trkpt>
      <trkpt lat="48.50428" lon="-2.79847">
        <ele>118.19999694824</ele>
        <time>2022-09-04T06:03:39.000Z</time>
      </trkpt>
      <trkpt lat="48.50432" lon="-2.79852">
        <ele>118.19999694824</ele>
        <time>2022-09-04T06:03:40.000Z</time>
      </trkpt>
      <trkpt lat="48.50437" lon="-2.79858">
        <ele>118.19999694824</ele>
        <time>2022-09-04T06:03:41.000Z</time>
      </trkpt>
      <trkpt lat="48.50442" lon="-2.79863">
        <ele>118.19999694824</ele>
        <time>2022-09-04T06:03:42.000Z</time>
      </trkpt>
      <trkpt lat="48.50446" lon="-2.79868">
        <ele>118.19999694824</ele>
        <time>2022-09-04T06:03:43.000Z</time>
      </trkpt>
      <trkpt lat="48.5045" lon="-2.79874">
        <ele>118.19999694824</ele>
        <time>2022-09-04T06:03:44.000Z</time>
      </trkpt>
      <trkpt lat="48.50452" lon="-2.79881">
        <ele>118.19999694824</ele>
        <time>2022-09-04T06:03:45.000Z</time>
      </trkpt>
      <trkpt lat="48.50453" lon="-2.79889">
        <ele>118.19999694824</ele>
        <time>2022-09-04T06:03:46.000Z</time>
      </trkpt>
      <trkpt lat="48.50451" lon="-2.79896">
        <ele>118.19999694824</ele>
        <time>2022-09-04T06:03:47.000Z</time>
      </trkpt>
      <trkpt lat="48.50449" lon="-2.79903">
        <ele>118.19999694824</ele>
        <time>2022-09-04T06:03:48.000Z</time>
      </trkpt>
      <trkpt lat="48.50446" lon="-2.7991">
        <ele>118.19999694824</ele>
        <time>2022-09-04T06:03:49.000Z</time>
      </trkpt>
      <trkpt lat="48.50443" lon="-2.79916">
        <ele>118.19999694824</ele>
        <time>2022-09-04T06:03:50.000Z</time>
      </trkpt>
      <trkpt lat="48.50439" lon="-2.79921">
        <ele>118.19999694824</ele>
        <time>2022-09-04T06:03:51.000Z</time>
      </trkpt>
      <trkpt lat="48.50436" lon="-2.79926">
        <ele>118.19999694824</ele>
        <time>2022-09-04T06:03:52.000Z</time>
      </trkpt>
      <trkpt lat="48.50433" lon="-2.7993">
        <ele>118.19999694824</ele>
        <time>2022-09-04T06:03:53.000Z</time>
      </trkpt>
      <trkpt lat="48.50429" lon="-2.79934">
        <ele>118.40000152588</ele>
        <time>2022-09-04T06:03:54.000Z</time>
      </trkpt>
      <trkpt lat="48.50422" lon="-2.79942">
        <ele>118.80000305176</ele>
        <time>2022-09-04T06:03:56.000Z</time>
      </trkpt>
      <trkpt lat="48.50419" lon="-2.79945">
        <ele>119</ele>
        <time>2022-09-04T06:03:57.000Z</time>
      </trkpt>
      <trkpt lat="48.50416" lon="-2.79949">
        <ele>119.40000152588</ele>
        <time>2022-09-04T06:03:58.000Z</time>
      </trkpt>
      <trkpt lat="48.50413" lon="-2.79953">
        <ele>119.40000152588</ele>
        <time>2022-09-04T06:03:59.000Z</time>
      </trkpt>
      <trkpt lat="48.5041" lon="-2.79957">
        <ele>119.59999847412</ele>
        <time>2022-09-04T06:04:00.000Z</time>
      </trkpt>
      <trkpt lat="48.50406" lon="-2.7996">
        <ele>119.80000305176</ele>
        <time>2022-09-04T06:04:01.000Z</time>
      </trkpt>
      <trkpt lat="48.50403" lon="-2.79963">
        <ele>119.80000305176</ele>
        <time>2022-09-04T06:04:02.000Z</time>
      </trkpt>
      <trkpt lat="48.50396" lon="-2.79967">
        <ele>120</ele>
        <time>2022-09-04T06:04:04.000Z</time>
      </trkpt>
      <trkpt lat="48.50392" lon="-2.79969">
        <ele>120.40000152588</ele>
        <time>2022-09-04T06:04:05.000Z</time>
      </trkpt>
      <trkpt lat="48.50388" lon="-2.79971">
        <ele>120.40000152588</ele>
        <time>2022-09-04T06:04:06.000Z</time>
      </trkpt>
      <trkpt lat="48.50384" lon="-2.79973">
        <ele>120.59999847412</ele>
        <time>2022-09-04T06:04:07.000Z</time>
      </trkpt>
      <trkpt lat="48.50374" lon="-2.79978">
        <ele>121.19999694824</ele>
        <time>2022-09-04T06:04:10.000Z</time>
      </trkpt>
      <trkpt lat="48.50371" lon="-2.7998">
        <ele>121.40000152588</ele>
        <time>2022-09-04T06:04:11.000Z</time>
      </trkpt>
      <trkpt lat="48.50367" lon="-2.79982">
        <ele>121.59999847412</ele>
        <time>2022-09-04T06:04:12.000Z</time>
      </trkpt>
      <trkpt lat="48.50364" lon="-2.79985">
        <ele>121.59999847412</ele>
        <time>2022-09-04T06:04:13.000Z</time>
      </trkpt>
      <trkpt lat="48.5036" lon="-2.79987">
        <ele>121.80000305176</ele>
        <time>2022-09-04T06:04:14.000Z</time>
      </trkpt>
      <trkpt lat="48.50357" lon="-2.7999">
        <ele>121.80000305176</ele>
        <time>2022-09-04T06:04:15.000Z</time>
      </trkpt>
      <trkpt lat="48.50355" lon="-2.79991">
        <ele>121.80000305176</ele>
        <time>2022-09-04T06:04:16.000Z</time>
      </trkpt>
      <trkpt lat="48.50351" lon="-2.79994">
        <ele>122</ele>
        <time>2022-09-04T06:04:17.000Z</time>
      </trkpt>
      <trkpt lat="48.50347" lon="-2.79997">
        <ele>122.19999694824</ele>
        <time>2022-09-04T06:04:18.000Z</time>
      </trkpt>
      <trkpt lat="48.50344" lon="-2.79999">
        <ele>122.40000152588</ele>
        <time>2022-09-04T06:04:19.000Z</time>
      </trkpt>
      <trkpt lat="48.50341" lon="-2.80001">
        <ele>122.80000305176</ele>
        <time>2022-09-04T06:04:20.000Z</time>
      </trkpt>
      <trkpt lat="48.50338" lon="-2.80004">
        <ele>122.80000305176</ele>
        <time>2022-09-04T06:04:21.000Z</time>
      </trkpt>
      <trkpt lat="48.50335" lon="-2.80007">
        <ele>123</ele>
        <time>2022-09-04T06:04:22.000Z</time>
      </trkpt>
      <trkpt lat="48.50332" lon="-2.80009">
        <ele>123.19999694824</ele>
        <time>2022-09-04T06:04:23.000Z</time>
      </trkpt>
      <trkpt lat="48.50329" lon="-2.80012">
        <ele>123.19999694824</ele>
        <time>2022-09-04T06:04:24.000Z</time>
      </trkpt>
      <trkpt lat="48.50326" lon="-2.80015">
        <ele>123.40000152588</ele>
        <time>2022-09-04T06:04:25.000Z</time>
      </trkpt>
      <trkpt lat="48.50322" lon="-2.80019">
        <ele>123.59999847412</ele>
        <time>2022-09-04T06:04:26.000Z</time>
      </trkpt>
      <trkpt lat="48.50319" lon="-2.80022">
        <ele>123.80000305176</ele>
        <time>2022-09-04T06:04:27.000Z</time>
      </trkpt>
      <trkpt lat="48.50315" lon="-2.80025">
        <ele>123.80000305176</ele>
        <time>2022-09-04T06:04:28.000Z</time>
      </trkpt>
      <trkpt lat="48.50313" lon="-2.80027">
        <ele>124</ele>
        <time>2022-09-04T06:04:29.000Z</time>
      </trkpt>
      <trkpt lat="48.5031" lon="-2.8003">
        <ele>124</ele>
        <time>2022-09-04T06:04:30.000Z</time>
      </trkpt>
      <trkpt lat="48.50306" lon="-2.80033">
        <ele>124</ele>
        <time>2022-09-04T06:04:31.000Z</time>
      </trkpt>
      <trkpt lat="48.50303" lon="-2.80036">
        <ele>124</ele>
        <time>2022-09-04T06:04:32.000Z</time>
      </trkpt>
      <trkpt lat="48.503" lon="-2.80038">
        <ele>124.19999694824</ele>
        <time>2022-09-04T06:04:33.000Z</time>
      </trkpt>
      <trkpt lat="48.50296" lon="-2.80041">
        <ele>124.40000152588</ele>
        <time>2022-09-04T06:04:34.000Z</time>
      </trkpt>
      <trkpt lat="48.50293" lon="-2.80044">
        <ele>124.80000305176</ele>
        <time>2022-09-04T06:04:35.000Z</time>
      </trkpt>
      <trkpt lat="48.50288" lon="-2.80047">
        <ele>125</ele>
        <time>2022-09-04T06:04:36.000Z</time>
      </trkpt>
      <trkpt lat="48.50285" lon="-2.8005">
        <ele>125</ele>
        <time>2022-09-04T06:04:37.000Z</time>
      </trkpt>
      <trkpt lat="48.50282" lon="-2.80052">
        <ele>125.19999694824</ele>
        <time>2022-09-04T06:04:38.000Z</time>
      </trkpt>
      <trkpt lat="48.50278" lon="-2.80055">
        <ele>125.19999694824</ele>
        <time>2022-09-04T06:04:39.000Z</time>
      </trkpt>
      <trkpt lat="48.50275" lon="-2.80057">
        <ele>125.40000152588</ele>
        <time>2022-09-04T06:04:40.000Z</time>
      </trkpt>
      <trkpt lat="48.50272" lon="-2.80059">
        <ele>125.40000152588</ele>
        <time>2022-09-04T06:04:41.000Z</time>
      </trkpt>
      <trkpt lat="48.50269" lon="-2.80061">
        <ele>125.80000305176</ele>
        <time>2022-09-04T06:04:42.000Z</time>
      </trkpt>
      <trkpt lat="48.50266" lon="-2.80063">
        <ele>125.80000305176</ele>
        <time>2022-09-04T06:04:43.000Z</time>
      </trkpt>
      <trkpt lat="48.50262" lon="-2.80067">
        <ele>126.19999694824</ele>
        <time>2022-09-04T06:04:44.000Z</time>
      </trkpt>
      <trkpt lat="48.50259" lon="-2.8007">
        <ele>126.40000152588</ele>
        <time>2022-09-04T06:04:45.000Z</time>
      </trkpt>
      <trkpt lat="48.50256" lon="-2.80074">
        <ele>126.59999847412</ele>
        <time>2022-09-04T06:04:46.000Z</time>
      </trkpt>
      <trkpt lat="48.50252" lon="-2.80076">
        <ele>126.80000305176</ele>
        <time>2022-09-04T06:04:47.000Z</time>
      </trkpt>
      <trkpt lat="48.50249" lon="-2.80079">
        <ele>126.80000305176</ele>
        <time>2022-09-04T06:04:48.000Z</time>
      </trkpt>
      <trkpt lat="48.50245" lon="-2.80081">
        <ele>127</ele>
        <time>2022-09-04T06:04:49.000Z</time>
      </trkpt>
      <trkpt lat="48.50242" lon="-2.80084">
        <ele>127</ele>
        <time>2022-09-04T06:04:50.000Z</time>
      </trkpt>
      <trkpt lat="48.50238" lon="-2.80086">
        <ele>127.19999694824</ele>
        <time>2022-09-04T06:04:51.000Z</time>
      </trkpt>
      <trkpt lat="48.50234" lon="-2.80088">
        <ele>127.40000152588</ele>
        <time>2022-09-04T06:04:52.000Z</time>
      </trkpt>
      <trkpt lat="48.5023" lon="-2.80091">
        <ele>127.59999847412</ele>
        <time>2022-09-04T06:04:53.000Z</time>
      </trkpt>
      <trkpt lat="48.50226" lon="-2.80093">
        <ele>127.59999847412</ele>
        <time>2022-09-04T06:04:54.000Z</time>
      </trkpt>
      <trkpt lat="48.50223" lon="-2.80096">
        <ele>127.80000305176</ele>
        <time>2022-09-04T06:04:55.000Z</time>
      </trkpt>
      <trkpt lat="48.50219" lon="-2.80098">
        <ele>127.80000305176</ele>
        <time>2022-09-04T06:04:56.000Z</time>
      </trkpt>
      <trkpt lat="48.50214" lon="-2.80101">
        <ele>128</ele>
        <time>2022-09-04T06:04:57.000Z</time>
      </trkpt>
      <trkpt lat="48.5021" lon="-2.80104">
        <ele>128</ele>
        <time>2022-09-04T06:04:58.000Z</time>
      </trkpt>
      <trkpt lat="48.50205" lon="-2.80106">
        <ele>128.19999694824</ele>
        <time>2022-09-04T06:04:59.000Z</time>
      </trkpt>
      <trkpt lat="48.50201" lon="-2.80109">
        <ele>128.19999694824</ele>
        <time>2022-09-04T06:05:00.000Z</time>
      </trkpt>
      <trkpt lat="48.50197" lon="-2.80112">
        <ele>128.19999694824</ele>
        <time>2022-09-04T06:05:01.000Z</time>
      </trkpt>
      <trkpt lat="48.50193" lon="-2.80116">
        <ele>128.39999389648</ele>
        <time>2022-09-04T06:05:02.000Z</time>
      </trkpt>
      <trkpt lat="48.5019" lon="-2.8012">
        <ele>128.39999389648</ele>
        <time>2022-09-04T06:05:03.000Z</time>
      </trkpt>
      <trkpt lat="48.50188" lon="-2.80125">
        <ele>128.39999389648</ele>
        <time>2022-09-04T06:05:04.000Z</time>
      </trkpt>
      <trkpt lat="48.50188" lon="-2.80129">
        <ele>128.39999389648</ele>
        <time>2022-09-04T06:05:05.000Z</time>
      </trkpt>
      <trkpt lat="48.5019" lon="-2.80136">
        <ele>128.39999389648</ele>
        <time>2022-09-04T06:05:06.000Z</time>
      </trkpt>
      <trkpt lat="48.50193" lon="-2.8014">
        <ele>128.39999389648</ele>
        <time>2022-09-04T06:05:07.000Z</time>
      </trkpt>
      <trkpt lat="48.50197" lon="-2.80143">
        <ele>128.39999389648</ele>
        <time>2022-09-04T06:05:08.000Z</time>
      </trkpt>
      <trkpt lat="48.50202" lon="-2.80146">
        <ele>128.39999389648</ele>
        <time>2022-09-04T06:05:09.000Z</time>
      </trkpt>
      <trkpt lat="48.50207" lon="-2.80149">
        <ele>128.39999389648</ele>
        <time>2022-09-04T06:05:10.000Z</time>
      </trkpt>
      <trkpt lat="48.50212" lon="-2.80153">
        <ele>128.39999389648</ele>
        <time>2022-09-04T06:05:11.000Z</time>
      </trkpt>
      <trkpt lat="48.50217" lon="-2.80157">
        <ele>128.39999389648</ele>
        <time>2022-09-04T06:05:12.000Z</time>
      </trkpt>
      <trkpt lat="48.50234" lon="-2.80171">
        <ele>128.39999389648</ele>
        <time>2022-09-04T06:05:15.000Z</time>
      </trkpt>
      <trkpt lat="48.50281" lon="-2.80215">
        <ele>128.19999694824</ele>
        <time>2022-09-04T06:05:23.000Z</time>
      </trkpt>
      <trkpt lat="48.50324" lon="-2.80257">
        <ele>128</ele>
        <time>2022-09-04T06:05:30.000Z</time>
      </trkpt>
      <trkpt lat="48.50373" lon="-2.80306">
        <ele>127.59999847412</ele>
        <time>2022-09-04T06:05:38.000Z</time>
      </trkpt>
      <trkpt lat="48.5038" lon="-2.80312">
        <ele>127.59999847412</ele>
        <time>2022-09-04T06:05:39.000Z</time>
      </trkpt>
      <trkpt lat="48.50399" lon="-2.80329">
        <ele>127.19999694824</ele>
        <time>2022-09-04T06:05:42.000Z</time>
      </trkpt>
      <trkpt lat="48.50452" lon="-2.80371">
        <ele>126.59999847412</ele>
        <time>2022-09-04T06:05:50.000Z</time>
      </trkpt>
      <trkpt lat="48.50466" lon="-2.80379">
        <ele>126.40000152588</ele>
        <time>2022-09-04T06:05:52.000Z</time>
      </trkpt>
      <trkpt lat="48.50479" lon="-2.80387">
        <ele>126.19999694824</ele>
        <time>2022-09-04T06:05:54.000Z</time>
      </trkpt>
      <trkpt lat="48.50538" lon="-2.80421">
        <ele>125.80000305176</ele>
        <time>2022-09-04T06:06:02.000Z</time>
      </trkpt>
      <trkpt lat="48.50545" lon="-2.80425">
        <ele>125.80000305176</ele>
        <time>2022-09-04T06:06:03.000Z</time>
      </trkpt>
      <trkpt lat="48.50552" lon="-2.80427">
        <ele>125.80000305176</ele>
        <time>2022-09-04T06:06:04.000Z</time>
      </trkpt>
      <trkpt lat="48.50558" lon="-2.80426">
        <ele>125.59999847412</ele>
        <time>2022-09-04T06:06:05.000Z</time>
      </trkpt>
      <trkpt lat="48.50564" lon="-2.80421">
        <ele>125.59999847412</ele>
        <time>2022-09-04T06:06:06.000Z</time>
      </trkpt>
      <trkpt lat="48.50568" lon="-2.80415">
        <ele>125.59999847412</ele>
        <time>2022-09-04T06:06:07.000Z</time>
      </trkpt>
      <trkpt lat="48.50571" lon="-2.80407">
        <ele>125.59999847412</ele>
        <time>2022-09-04T06:06:08.000Z</time>
      </trkpt>
      <trkpt lat="48.50572" lon="-2.80399">
        <ele>125.59999847412</ele>
        <time>2022-09-04T06:06:09.000Z</time>
      </trkpt>
      <trkpt lat="48.50573" lon="-2.8039">
        <ele>125.80000305176</ele>
        <time>2022-09-04T06:06:10.000Z</time>
      </trkpt>
      <trkpt lat="48.50575" lon="-2.80381">
        <ele>125.80000305176</ele>
        <time>2022-09-04T06:06:11.000Z</time>
      </trkpt>
      <trkpt lat="48.50576" lon="-2.80371">
        <ele>125.80000305176</ele>
        <time>2022-09-04T06:06:12.000Z</time>
      </trkpt>
      <trkpt lat="48.50578" lon="-2.80361">
        <ele>125.80000305176</ele>
        <time>2022-09-04T06:06:13.000Z</time>
      </trkpt>
      <trkpt lat="48.50587" lon="-2.80336">
        <ele>125.80000305176</ele>
        <time>2022-09-04T06:06:16.000Z</time>
      </trkpt>
      <trkpt lat="48.50596" lon="-2.80319">
        <ele>125.80000305176</ele>
        <time>2022-09-04T06:06:18.000Z</time>
      </trkpt>
      <trkpt lat="48.506" lon="-2.80311">
        <ele>125.80000305176</ele>
        <time>2022-09-04T06:06:19.000Z</time>
      </trkpt>
      <trkpt lat="48.50604" lon="-2.80303">
        <ele>125.80000305176</ele>
        <time>2022-09-04T06:06:20.000Z</time>
      </trkpt>
      <trkpt lat="48.50608" lon="-2.80295">
        <ele>125.80000305176</ele>
        <time>2022-09-04T06:06:21.000Z</time>
      </trkpt>
      <trkpt lat="48.50628" lon="-2.80254">
        <ele>125.59999847412</ele>
        <time>2022-09-04T06:06:26.000Z</time>
      </trkpt>
      <trkpt lat="48.50636" lon="-2.80237">
        <ele>125.40000152588</ele>
        <time>2022-09-04T06:06:28.000Z</time>
      </trkpt>
      <trkpt lat="48.50648" lon="-2.80209">
        <ele>125.19999694824</ele>
        <time>2022-09-04T06:06:31.000Z</time>
      </trkpt>
      <trkpt lat="48.50656" lon="-2.8019">
        <ele>124.80000305176</ele>
        <time>2022-09-04T06:06:33.000Z</time>
      </trkpt>
      <trkpt lat="48.50672" lon="-2.80138">
        <ele>124</ele>
        <time>2022-09-04T06:06:38.000Z</time>
      </trkpt>
      <trkpt lat="48.50675" lon="-2.80128">
        <ele>123.59999847412</ele>
        <time>2022-09-04T06:06:39.000Z</time>
      </trkpt>
      <trkpt lat="48.50684" lon="-2.80105">
        <ele>123.19999694824</ele>
        <time>2022-09-04T06:06:41.000Z</time>
      </trkpt>
      <trkpt lat="48.5069" lon="-2.80082">
        <ele>122.59999847412</ele>
        <time>2022-09-04T06:06:43.000Z</time>
      </trkpt>
      <trkpt lat="48.50705" lon="-2.80037">
        <ele>121.19999694824</ele>
        <time>2022-09-04T06:06:47.000Z</time>
      </trkpt>
      <trkpt lat="48.50708" lon="-2.80025">
        <ele>121.19999694824</ele>
        <time>2022-09-04T06:06:48.000Z</time>
      </trkpt>
      <trkpt lat="48.5071" lon="-2.80014">
        <ele>120.80000305176</ele>
        <time>2022-09-04T06:06:49.000Z</time>
      </trkpt>
      <trkpt lat="48.50726" lon="-2.79971">
        <ele>120.40000152588</ele>
        <time>2022-09-04T06:06:53.000Z</time>
      </trkpt>
      <trkpt lat="48.5073" lon="-2.7996">
        <ele>119.80000305176</ele>
        <time>2022-09-04T06:06:54.000Z</time>
      </trkpt>
      <trkpt lat="48.50733" lon="-2.79949">
        <ele>119.59999847412</ele>
        <time>2022-09-04T06:06:55.000Z</time>
      </trkpt>
      <trkpt lat="48.50736" lon="-2.79941">
        <ele>119.40000152588</ele>
        <time>2022-09-04T06:06:56.000Z</time>
      </trkpt>
      <trkpt lat="48.5074" lon="-2.79928">
        <ele>119.19999694824</ele>
        <time>2022-09-04T06:06:57.000Z</time>
      </trkpt>
      <trkpt lat="48.50747" lon="-2.79906">
        <ele>118.59999847412</ele>
        <time>2022-09-04T06:06:59.000Z</time>
      </trkpt>
      <trkpt lat="48.50751" lon="-2.79896">
        <ele>118.19999694824</ele>
        <time>2022-09-04T06:07:00.000Z</time>
      </trkpt>
      <trkpt lat="48.50758" lon="-2.79875">
        <ele>117.80000305176</ele>
        <time>2022-09-04T06:07:02.000Z</time>
      </trkpt>
      <trkpt lat="48.50762" lon="-2.79865">
        <ele>117.40000152588</ele>
        <time>2022-09-04T06:07:03.000Z</time>
      </trkpt>
      <trkpt lat="48.50766" lon="-2.79855">
        <ele>117.19999694824</ele>
        <time>2022-09-04T06:07:04.000Z</time>
      </trkpt>
      <trkpt lat="48.5077" lon="-2.79847">
        <ele>117</ele>
        <time>2022-09-04T06:07:05.000Z</time>
      </trkpt>
      <trkpt lat="48.50775" lon="-2.79841">
        <ele>116.80000305176</ele>
        <time>2022-09-04T06:07:06.000Z</time>
      </trkpt>
      <trkpt lat="48.50782" lon="-2.79837">
        <ele>116.19999694824</ele>
        <time>2022-09-04T06:07:07.000Z</time>
      </trkpt>
      <trkpt lat="48.50789" lon="-2.79834">
        <ele>116.19999694824</ele>
        <time>2022-09-04T06:07:08.000Z</time>
      </trkpt>
      <trkpt lat="48.50794" lon="-2.79833">
        <ele>116</ele>
        <time>2022-09-04T06:07:09.000Z</time>
      </trkpt>
      <trkpt lat="48.50801" lon="-2.79832">
        <ele>116</ele>
        <time>2022-09-04T06:07:10.000Z</time>
      </trkpt>
      <trkpt lat="48.50808" lon="-2.79832">
        <ele>115.80000305176</ele>
        <time>2022-09-04T06:07:11.000Z</time>
      </trkpt>
      <trkpt lat="48.50817" lon="-2.79833">
        <ele>115.80000305176</ele>
        <time>2022-09-04T06:07:12.000Z</time>
      </trkpt>
      <trkpt lat="48.50824" lon="-2.79836">
        <ele>115.59999847412</ele>
        <time>2022-09-04T06:07:13.000Z</time>
      </trkpt>
      <trkpt lat="48.50831" lon="-2.79839">
        <ele>115.40000152588</ele>
        <time>2022-09-04T06:07:14.000Z</time>
      </trkpt>
      <trkpt lat="48.50837" lon="-2.79843">
        <ele>115.19999694824</ele>
        <time>2022-09-04T06:07:15.000Z</time>
      </trkpt>
      <trkpt lat="48.50849" lon="-2.7985">
        <ele>115</ele>
        <time>2022-09-04T06:07:17.000Z</time>
      </trkpt>
      <trkpt lat="48.50855" lon="-2.79855">
        <ele>114.80000305176</ele>
        <time>2022-09-04T06:07:18.000Z</time>
      </trkpt>
      <trkpt lat="48.50867" lon="-2.79867">
        <ele>114.80000305176</ele>
        <time>2022-09-04T06:07:20.000Z</time>
      </trkpt>
      <trkpt lat="48.50872" lon="-2.79873">
        <ele>114.59999847412</ele>
        <time>2022-09-04T06:07:21.000Z</time>
      </trkpt>
      <trkpt lat="48.50878" lon="-2.79879">
        <ele>114.59999847412</ele>
        <time>2022-09-04T06:07:22.000Z</time>
      </trkpt>
      <trkpt lat="48.50883" lon="-2.79886">
        <ele>114.59999847412</ele>
        <time>2022-09-04T06:07:23.000Z</time>
      </trkpt>
      <trkpt lat="48.50888" lon="-2.79892">
        <ele>114.59999847412</ele>
        <time>2022-09-04T06:07:24.000Z</time>
      </trkpt>
      <trkpt lat="48.50894" lon="-2.79897">
        <ele>114.80000305176</ele>
        <time>2022-09-04T06:07:25.000Z</time>
      </trkpt>
      <trkpt lat="48.509" lon="-2.79904">
        <ele>114.80000305176</ele>
        <time>2022-09-04T06:07:26.000Z</time>
      </trkpt>
      <trkpt lat="48.50905" lon="-2.7991">
        <ele>114.80000305176</ele>
        <time>2022-09-04T06:07:27.000Z</time>
      </trkpt>
      <trkpt lat="48.5091" lon="-2.79916">
        <ele>114.80000305176</ele>
        <time>2022-09-04T06:07:28.000Z</time>
      </trkpt>
      <trkpt lat="48.50924" lon="-2.79932">
        <ele>114.80000305176</ele>
        <time>2022-09-04T06:07:31.000Z</time>
      </trkpt>
      <trkpt lat="48.50929" lon="-2.79937">
        <ele>114.80000305176</ele>
        <time>2022-09-04T06:07:32.000Z</time>
      </trkpt>
      <trkpt lat="48.50934" lon="-2.79942">
        <ele>115</ele>
        <time>2022-09-04T06:07:33.000Z</time>
      </trkpt>
      <trkpt lat="48.50938" lon="-2.79946">
        <ele>115</ele>
        <time>2022-09-04T06:07:34.000Z</time>
      </trkpt>
      <trkpt lat="48.50942" lon="-2.7995">
        <ele>115.19999694824</ele>
        <time>2022-09-04T06:07:35.000Z</time>
      </trkpt>
      <trkpt lat="48.50946" lon="-2.79954">
        <ele>115.19999694824</ele>
        <time>2022-09-04T06:07:36.000Z</time>
      </trkpt>
      <trkpt lat="48.5095" lon="-2.79958">
        <ele>115.19999694824</ele>
        <time>2022-09-04T06:07:37.000Z</time>
      </trkpt>
      <trkpt lat="48.5096" lon="-2.79964">
        <ele>115.19999694824</ele>
        <time>2022-09-04T06:07:39.000Z</time>
      </trkpt>
      <trkpt lat="48.50969" lon="-2.79965">
        <ele>115.19999694824</ele>
        <time>2022-09-04T06:07:41.000Z</time>
      </trkpt>
      <trkpt lat="48.50973" lon="-2.79963">
        <ele>115.19999694824</ele>
        <time>2022-09-04T06:07:42.000Z</time>
      </trkpt>
      <trkpt lat="48.50978" lon="-2.79957">
        <ele>115</ele>
        <time>2022-09-04T06:07:43.000Z</time>
      </trkpt>
      <trkpt lat="48.50986" lon="-2.79946">
        <ele>115</ele>
        <time>2022-09-04T06:07:45.000Z</time>
      </trkpt>
      <trkpt lat="48.50989" lon="-2.79939">
        <ele>115</ele>
        <time>2022-09-04T06:07:46.000Z</time>
      </trkpt>
      <trkpt lat="48.50992" lon="-2.79933">
        <ele>114.80000305176</ele>
        <time>2022-09-04T06:07:47.000Z</time>
      </trkpt>
      <trkpt lat="48.51003" lon="-2.79912">
        <ele>114.80000305176</ele>
        <time>2022-09-04T06:07:50.000Z</time>
      </trkpt>
      <trkpt lat="48.51013" lon="-2.79894">
        <ele>114.59999847412</ele>
        <time>2022-09-04T06:07:53.000Z</time>
      </trkpt>
      <trkpt lat="48.5102" lon="-2.79878">
        <ele>114.19999694824</ele>
        <time>2022-09-04T06:07:55.000Z</time>
      </trkpt>
      <trkpt lat="48.51023" lon="-2.79873">
        <ele>114.19999694824</ele>
        <time>2022-09-04T06:07:56.000Z</time>
      </trkpt>
      <trkpt lat="48.51025" lon="-2.79867">
        <ele>114.19999694824</ele>
        <time>2022-09-04T06:07:57.000Z</time>
      </trkpt>
      <trkpt lat="48.51027" lon="-2.7986">
        <ele>114</ele>
        <time>2022-09-04T06:07:58.000Z</time>
      </trkpt>
      <trkpt lat="48.5103" lon="-2.79855">
        <ele>113.59999847412</ele>
        <time>2022-09-04T06:07:59.000Z</time>
      </trkpt>
      <trkpt lat="48.51035" lon="-2.79844">
        <ele>113.40000152588</ele>
        <time>2022-09-04T06:08:01.000Z</time>
      </trkpt>
      <trkpt lat="48.51038" lon="-2.79836">
        <ele>113.40000152588</ele>
        <time>2022-09-04T06:08:02.000Z</time>
      </trkpt>
      <trkpt lat="48.51042" lon="-2.79819">
        <ele>113.19999694824</ele>
        <time>2022-09-04T06:08:04.000Z</time>
      </trkpt>
      <trkpt lat="48.51044" lon="-2.79811">
        <ele>113</ele>
        <time>2022-09-04T06:08:05.000Z</time>
      </trkpt>
      <trkpt lat="48.51048" lon="-2.79803">
        <ele>112.80000305176</ele>
        <time>2022-09-04T06:08:06.000Z</time>
      </trkpt>
      <trkpt lat="48.51063" lon="-2.79765">
        <ele>111.80000305176</ele>
        <time>2022-09-04T06:08:11.000Z</time>
      </trkpt>
      <trkpt lat="48.5107" lon="-2.79748">
        <ele>111.59999847412</ele>
        <time>2022-09-04T06:08:13.000Z</time>
      </trkpt>
      <trkpt lat="48.51078" lon="-2.79722">
        <ele>111</ele>
        <time>2022-09-04T06:08:16.000Z</time>
      </trkpt>
      <trkpt lat="48.51091" lon="-2.79678">
        <ele>110.40000152588</ele>
        <time>2022-09-04T06:08:21.000Z</time>
      </trkpt>
      <trkpt lat="48.51093" lon="-2.79666">
        <ele>110.40000152588</ele>
        <time>2022-09-04T06:08:22.000Z</time>
      </trkpt>
      <trkpt lat="48.51093" lon="-2.79645">
        <ele>110.19999694824</ele>
        <time>2022-09-04T06:08:24.000Z</time>
      </trkpt>
      <trkpt lat="48.51092" lon="-2.79634">
        <ele>110.19999694824</ele>
        <time>2022-09-04T06:08:25.000Z</time>
      </trkpt>
      <trkpt lat="48.5109" lon="-2.79624">
        <ele>110</ele>
        <time>2022-09-04T06:08:26.000Z</time>
      </trkpt>
      <trkpt lat="48.51089" lon="-2.79614">
        <ele>110</ele>
        <time>2022-09-04T06:08:27.000Z</time>
      </trkpt>
      <trkpt lat="48.51089" lon="-2.79603">
        <ele>109.80000305176</ele>
        <time>2022-09-04T06:08:28.000Z</time>
      </trkpt>
      <trkpt lat="48.51089" lon="-2.79593">
        <ele>109.80000305176</ele>
        <time>2022-09-04T06:08:29.000Z</time>
      </trkpt>
      <trkpt lat="48.51091" lon="-2.79574">
        <ele>109.40000152588</ele>
        <time>2022-09-04T06:08:31.000Z</time>
      </trkpt>
      <trkpt lat="48.51093" lon="-2.79564">
        <ele>109.40000152588</ele>
        <time>2022-09-04T06:08:32.000Z</time>
      </trkpt>
      <trkpt lat="48.51096" lon="-2.79555">
        <ele>109.40000152588</ele>
        <time>2022-09-04T06:08:33.000Z</time>
      </trkpt>
      <trkpt lat="48.51098" lon="-2.79546">
        <ele>109.19999694824</ele>
        <time>2022-09-04T06:08:34.000Z</time>
      </trkpt>
      <trkpt lat="48.511" lon="-2.79537">
        <ele>109</ele>
        <time>2022-09-04T06:08:35.000Z</time>
      </trkpt>
      <trkpt lat="48.51106" lon="-2.7951">
        <ele>108.80000305176</ele>
        <time>2022-09-04T06:08:38.000Z</time>
      </trkpt>
      <trkpt lat="48.51126" lon="-2.79437">
        <ele>108.40000152588</ele>
        <time>2022-09-04T06:08:46.000Z</time>
      </trkpt>
      <trkpt lat="48.51128" lon="-2.79428">
        <ele>108.40000152588</ele>
        <time>2022-09-04T06:08:47.000Z</time>
      </trkpt>
      <trkpt lat="48.51135" lon="-2.79401">
        <ele>108.40000152588</ele>
        <time>2022-09-04T06:08:50.000Z</time>
      </trkpt>
      <trkpt lat="48.51145" lon="-2.79378">
        <ele>108.40000152588</ele>
        <time>2022-09-04T06:08:53.000Z</time>
      </trkpt>
      <trkpt lat="48.5118" lon="-2.79324">
        <ele>108.80000305176</ele>
        <time>2022-09-04T06:09:00.000Z</time>
      </trkpt>
      <trkpt lat="48.5122" lon="-2.79257">
        <ele>108.59999847412</ele>
        <time>2022-09-04T06:09:08.000Z</time>
      </trkpt>
      <trkpt lat="48.51242" lon="-2.79223">
        <ele>108.59999847412</ele>
        <time>2022-09-04T06:09:12.000Z</time>
      </trkpt>
      <trkpt lat="48.51247" lon="-2.79215">
        <ele>108.59999847412</ele>
        <time>2022-09-04T06:09:13.000Z</time>
      </trkpt>
      <trkpt lat="48.51252" lon="-2.79206">
        <ele>108.40000152588</ele>
        <time>2022-09-04T06:09:14.000Z</time>
      </trkpt>
      <trkpt lat="48.51257" lon="-2.79199">
        <ele>108.40000152588</ele>
        <time>2022-09-04T06:09:15.000Z</time>
      </trkpt>
      <trkpt lat="48.51262" lon="-2.7919">
        <ele>108.40000152588</ele>
        <time>2022-09-04T06:09:16.000Z</time>
      </trkpt>
      <trkpt lat="48.51268" lon="-2.79182">
        <ele>108.40000152588</ele>
        <time>2022-09-04T06:09:17.000Z</time>
      </trkpt>
      <trkpt lat="48.51273" lon="-2.79174">
        <ele>108.40000152588</ele>
        <time>2022-09-04T06:09:18.000Z</time>
      </trkpt>
      <trkpt lat="48.51278" lon="-2.79166">
        <ele>108.19999694824</ele>
        <time>2022-09-04T06:09:19.000Z</time>
      </trkpt>
      <trkpt lat="48.51283" lon="-2.79159">
        <ele>108.19999694824</ele>
        <time>2022-09-04T06:09:20.000Z</time>
      </trkpt>
      <trkpt lat="48.51288" lon="-2.79151">
        <ele>108</ele>
        <time>2022-09-04T06:09:21.000Z</time>
      </trkpt>
      <trkpt lat="48.51293" lon="-2.79144">
        <ele>107.80000305176</ele>
        <time>2022-09-04T06:09:22.000Z</time>
      </trkpt>
      <trkpt lat="48.51298" lon="-2.79138">
        <ele>107.80000305176</ele>
        <time>2022-09-04T06:09:23.000Z</time>
      </trkpt>
      <trkpt lat="48.51302" lon="-2.7913">
        <ele>107.59999847412</ele>
        <time>2022-09-04T06:09:24.000Z</time>
      </trkpt>
      <trkpt lat="48.51305" lon="-2.7912">
        <ele>107.59999847412</ele>
        <time>2022-09-04T06:09:25.000Z</time>
      </trkpt>
      <trkpt lat="48.51305" lon="-2.79111">
        <ele>107.59999847412</ele>
        <time>2022-09-04T06:09:26.000Z</time>
      </trkpt>
      <trkpt lat="48.51303" lon="-2.79102">
        <ele>107.59999847412</ele>
        <time>2022-09-04T06:09:27.000Z</time>
      </trkpt>
      <trkpt lat="48.513" lon="-2.79093">
        <ele>107.59999847412</ele>
        <time>2022-09-04T06:09:28.000Z</time>
      </trkpt>
      <trkpt lat="48.51296" lon="-2.79085">
        <ele>107.59999847412</ele>
        <time>2022-09-04T06:09:29.000Z</time>
      </trkpt>
      <trkpt lat="48.51291" lon="-2.79077">
        <ele>107.59999847412</ele>
        <time>2022-09-04T06:09:30.000Z</time>
      </trkpt>
      <trkpt lat="48.51287" lon="-2.79069">
        <ele>107.59999847412</ele>
        <time>2022-09-04T06:09:31.000Z</time>
      </trkpt>
      <trkpt lat="48.51283" lon="-2.79062">
        <ele>107.59999847412</ele>
        <time>2022-09-04T06:09:32.000Z</time>
      </trkpt>
      <trkpt lat="48.51263" lon="-2.79023">
        <ele>107.59999847412</ele>
        <time>2022-09-04T06:09:37.000Z</time>
      </trkpt>
      <trkpt lat="48.51247" lon="-2.78992">
        <ele>107.19999694824</ele>
        <time>2022-09-04T06:09:41.000Z</time>
      </trkpt>
      <trkpt lat="48.51239" lon="-2.78976">
        <ele>106.80000305176</ele>
        <time>2022-09-04T06:09:43.000Z</time>
      </trkpt>
      <trkpt lat="48.51231" lon="-2.78959">
        <ele>106.59999847412</ele>
        <time>2022-09-04T06:09:45.000Z</time>
      </trkpt>
      <trkpt lat="48.51227" lon="-2.78951">
        <ele>106.59999847412</ele>
        <time>2022-09-04T06:09:46.000Z</time>
      </trkpt>
      <trkpt lat="48.51216" lon="-2.78928">
        <ele>106.40000152588</ele>
        <time>2022-09-04T06:09:49.000Z</time>
      </trkpt>
      <trkpt lat="48.51212" lon="-2.78921">
        <ele>106.19999694824</ele>
        <time>2022-09-04T06:09:50.000Z</time>
      </trkpt>
      <trkpt lat="48.51207" lon="-2.78915">
        <ele>106.40000152588</ele>
        <time>2022-09-04T06:09:51.000Z</time>
      </trkpt>
      <trkpt lat="48.51202" lon="-2.78911">
        <ele>106.19999694824</ele>
        <time>2022-09-04T06:09:52.000Z</time>
      </trkpt>
      <trkpt lat="48.51197" lon="-2.7891">
        <ele>106</ele>
        <time>2022-09-04T06:09:53.000Z</time>
      </trkpt>
      <trkpt lat="48.51192" lon="-2.78913">
        <ele>106</ele>
        <time>2022-09-04T06:09:54.000Z</time>
      </trkpt>
      <trkpt lat="48.51187" lon="-2.78918">
        <ele>105.80000305176</ele>
        <time>2022-09-04T06:09:55.000Z</time>
      </trkpt>
      <trkpt lat="48.51182" lon="-2.78923">
        <ele>105.80000305176</ele>
        <time>2022-09-04T06:09:56.000Z</time>
      </trkpt>
      <trkpt lat="48.51167" lon="-2.7894">
        <ele>105.40000152588</ele>
        <time>2022-09-04T06:09:59.000Z</time>
      </trkpt>
      <trkpt lat="48.51156" lon="-2.78948">
        <ele>105.19999694824</ele>
        <time>2022-09-04T06:10:01.000Z</time>
      </trkpt>
      <trkpt lat="48.5115" lon="-2.78951">
        <ele>105</ele>
        <time>2022-09-04T06:10:02.000Z</time>
      </trkpt>
      <trkpt lat="48.51126" lon="-2.78958">
        <ele>104.80000305176</ele>
        <time>2022-09-04T06:10:06.000Z</time>
      </trkpt>
      <trkpt lat="48.51089" lon="-2.78958">
        <ele>104.80000305176</ele>
        <time>2022-09-04T06:10:12.000Z</time>
      </trkpt>
      <trkpt lat="48.51061" lon="-2.78939">
        <ele>104.59999847412</ele>
        <time>2022-09-04T06:10:17.000Z</time>
      </trkpt>
      <trkpt lat="48.51047" lon="-2.78921">
        <ele>104.19999694824</ele>
        <time>2022-09-04T06:10:20.000Z</time>
      </trkpt>
      <trkpt lat="48.51039" lon="-2.78906">
        <ele>104.19999694824</ele>
        <time>2022-09-04T06:10:22.000Z</time>
      </trkpt>
      <trkpt lat="48.51036" lon="-2.78897">
        <ele>104</ele>
        <time>2022-09-04T06:10:23.000Z</time>
      </trkpt>
      <trkpt lat="48.51027" lon="-2.7886">
        <ele>103.80000305176</ele>
        <time>2022-09-04T06:10:27.000Z</time>
      </trkpt>
      <trkpt lat="48.51023" lon="-2.78803">
        <ele>103</ele>
        <time>2022-09-04T06:10:33.000Z</time>
      </trkpt>
      <trkpt lat="48.51027" lon="-2.78726">
        <ele>101.80000305176</ele>
        <time>2022-09-04T06:10:40.000Z</time>
      </trkpt>
      <trkpt lat="48.51029" lon="-2.78685">
        <ele>100.80000305176</ele>
        <time>2022-09-04T06:10:44.000Z</time>
      </trkpt>
      <trkpt lat="48.51029" lon="-2.78674">
        <ele>100.59999847412</ele>
        <time>2022-09-04T06:10:45.000Z</time>
      </trkpt>
      <trkpt lat="48.51026" lon="-2.78651">
        <ele>100</ele>
        <time>2022-09-04T06:10:47.000Z</time>
      </trkpt>
      <trkpt lat="48.51019" lon="-2.78633">
        <ele>99.599998474121</ele>
        <time>2022-09-04T06:10:49.000Z</time>
      </trkpt>
      <trkpt lat="48.51015" lon="-2.78626">
        <ele>99.400001525879</ele>
        <time>2022-09-04T06:10:50.000Z</time>
      </trkpt>
      <trkpt lat="48.5101" lon="-2.78622">
        <ele>99.400001525879</ele>
        <time>2022-09-04T06:10:51.000Z</time>
      </trkpt>
      <trkpt lat="48.51004" lon="-2.78621">
        <ele>99</ele>
        <time>2022-09-04T06:10:52.000Z</time>
      </trkpt>
      <trkpt lat="48.50997" lon="-2.78621">
        <ele>98.599998474121</ele>
        <time>2022-09-04T06:10:53.000Z</time>
      </trkpt>
      <trkpt lat="48.50991" lon="-2.78621">
        <ele>98.599998474121</ele>
        <time>2022-09-04T06:10:54.000Z</time>
      </trkpt>
      <trkpt lat="48.50985" lon="-2.78622">
        <ele>98.400001525879</ele>
        <time>2022-09-04T06:10:55.000Z</time>
      </trkpt>
      <trkpt lat="48.5098" lon="-2.78623">
        <ele>98.400001525879</ele>
        <time>2022-09-04T06:10:56.000Z</time>
      </trkpt>
      <trkpt lat="48.50975" lon="-2.78624">
        <ele>98.400001525879</ele>
        <time>2022-09-04T06:10:57.000Z</time>
      </trkpt>
      <trkpt lat="48.50973" lon="-2.78625">
        <ele>98.400001525879</ele>
        <time>2022-09-04T06:10:58.000Z</time>
      </trkpt>
      <trkpt lat="48.5097" lon="-2.78626">
        <ele>98.400001525879</ele>
        <time>2022-09-04T06:10:59.000Z</time>
      </trkpt>
      <trkpt lat="48.50968" lon="-2.78626">
        <ele>98.400001525879</ele>
        <time>2022-09-04T06:11:00.000Z</time>
      </trkpt>
      <trkpt lat="48.50967" lon="-2.78625">
        <ele>98.199996948242</ele>
        <time>2022-09-04T06:11:01.000Z</time>
      </trkpt>
      <trkpt lat="48.50967" lon="-2.78624">
        <ele>98</ele>
        <time>2022-09-04T06:11:02.000Z</time>
      </trkpt>
      <trkpt lat="48.50967" lon="-2.78624">
        <ele>97.800003051758</ele>
        <time>2022-09-04T06:11:03.000Z</time>
      </trkpt>
      <trkpt lat="48.50967" lon="-2.78624">
        <ele>97.599998474121</ele>
        <time>2022-09-04T06:11:04.000Z</time>
      </trkpt>
      <trkpt lat="48.50967" lon="-2.78621">
        <ele>97.599998474121</ele>
        <time>2022-09-04T06:11:05.000Z</time>
      </trkpt>
      <trkpt lat="48.50965" lon="-2.78609">
        <ele>97.400001525879</ele>
        <time>2022-09-04T06:11:08.000Z</time>
      </trkpt>
      <trkpt lat="48.50964" lon="-2.78603">
        <ele>97.400001525879</ele>
        <time>2022-09-04T06:11:09.000Z</time>
      </trkpt>
      <trkpt lat="48.50964" lon="-2.7858">
        <ele>97</ele>
        <time>2022-09-04T06:11:12.000Z</time>
      </trkpt>
      <trkpt lat="48.50963" lon="-2.78573">
        <ele>97</ele>
        <time>2022-09-04T06:11:13.000Z</time>
      </trkpt>
      <trkpt lat="48.50962" lon="-2.78568">
        <ele>97</ele>
        <time>2022-09-04T06:11:14.000Z</time>
      </trkpt>
      <trkpt lat="48.50959" lon="-2.78564">
        <ele>97</ele>
        <time>2022-09-04T06:11:15.000Z</time>
      </trkpt>
      <trkpt lat="48.50956" lon="-2.78562">
        <ele>96.800003051758</ele>
        <time>2022-09-04T06:11:16.000Z</time>
      </trkpt>
      <trkpt lat="48.50952" lon="-2.78562">
        <ele>96.800003051758</ele>
        <time>2022-09-04T06:11:17.000Z</time>
      </trkpt>
      <trkpt lat="48.5094" lon="-2.7856">
        <ele>96.599998474121</ele>
        <time>2022-09-04T06:11:19.000Z</time>
      </trkpt>
      <trkpt lat="48.50933" lon="-2.78559">
        <ele>96.599998474121</ele>
        <time>2022-09-04T06:11:20.000Z</time>
      </trkpt>
      <trkpt lat="48.50927" lon="-2.78558">
        <ele>96.599998474121</ele>
        <time>2022-09-04T06:11:21.000Z</time>
      </trkpt>
      <trkpt lat="48.50916" lon="-2.78558">
        <ele>96.400001525879</ele>
        <time>2022-09-04T06:11:23.000Z</time>
      </trkpt>
      <trkpt lat="48.5091" lon="-2.78558">
        <ele>96.400001525879</ele>
        <time>2022-09-04T06:11:24.000Z</time>
      </trkpt>
      <trkpt lat="48.50905" lon="-2.78557">
        <ele>96.400001525879</ele>
        <time>2022-09-04T06:11:25.000Z</time>
      </trkpt>
      <trkpt lat="48.509" lon="-2.78557">
        <ele>96.400001525879</ele>
        <time>2022-09-04T06:11:26.000Z</time>
      </trkpt>
      <trkpt lat="48.50895" lon="-2.78556">
        <ele>96.199996948242</ele>
        <time>2022-09-04T06:11:27.000Z</time>
      </trkpt>
      <trkpt lat="48.50891" lon="-2.78557">
        <ele>96.199996948242</ele>
        <time>2022-09-04T06:11:28.000Z</time>
      </trkpt>
      <trkpt lat="48.50887" lon="-2.78559">
        <ele>96.199996948242</ele>
        <time>2022-09-04T06:11:29.000Z</time>
      </trkpt>
      <trkpt lat="48.50884" lon="-2.78562">
        <ele>96.199996948242</ele>
        <time>2022-09-04T06:11:30.000Z</time>
      </trkpt>
      <trkpt lat="48.50883" lon="-2.78567">
        <ele>96.199996948242</ele>
        <time>2022-09-04T06:11:31.000Z</time>
      </trkpt>
      <trkpt lat="48.50883" lon="-2.78581">
        <ele>96.400001525879</ele>
        <time>2022-09-04T06:11:33.000Z</time>
      </trkpt>
      <trkpt lat="48.50877" lon="-2.78639">
        <ele>97.199996948242</ele>
        <time>2022-09-04T06:11:41.000Z</time>
      </trkpt>
      <trkpt lat="48.50876" lon="-2.78647">
        <ele>97.199996948242</ele>
        <time>2022-09-04T06:11:42.000Z</time>
      </trkpt>
      <trkpt lat="48.50872" lon="-2.78699">
        <ele>97.599998474121</ele>
        <time>2022-09-04T06:11:49.000Z</time>
      </trkpt>
      <trkpt lat="48.50869" lon="-2.78722">
        <ele>98</ele>
        <time>2022-09-04T06:11:52.000Z</time>
      </trkpt>
      <trkpt lat="48.50869" lon="-2.78729">
        <ele>98</ele>
        <time>2022-09-04T06:11:53.000Z</time>
      </trkpt>
      <trkpt lat="48.50868" lon="-2.78735">
        <ele>98.199996948242</ele>
        <time>2022-09-04T06:11:54.000Z</time>
      </trkpt>
      <trkpt lat="48.50867" lon="-2.7874">
        <ele>98.400001525879</ele>
        <time>2022-09-04T06:11:55.000Z</time>
      </trkpt>
      <trkpt lat="48.50865" lon="-2.78743">
        <ele>98.400001525879</ele>
        <time>2022-09-04T06:11:56.000Z</time>
      </trkpt>
      <trkpt lat="48.50863" lon="-2.78746">
        <ele>98.599998474121</ele>
        <time>2022-09-04T06:11:57.000Z</time>
      </trkpt>
      <trkpt lat="48.5086" lon="-2.78747">
        <ele>98.599998474121</ele>
        <time>2022-09-04T06:11:58.000Z</time>
      </trkpt>
      <trkpt lat="48.50856" lon="-2.78745">
        <ele>98.599998474121</ele>
        <time>2022-09-04T06:11:59.000Z</time>
      </trkpt>
      <trkpt lat="48.50852" lon="-2.78744">
        <ele>98.800003051758</ele>
        <time>2022-09-04T06:12:00.000Z</time>
      </trkpt>
      <trkpt lat="48.50844" lon="-2.78741">
        <ele>99</ele>
        <time>2022-09-04T06:12:02.000Z</time>
      </trkpt>
      <trkpt lat="48.50842" lon="-2.7874">
        <ele>99.199996948242</ele>
        <time>2022-09-04T06:12:03.000Z</time>
      </trkpt>
      <trkpt lat="48.5084" lon="-2.78739">
        <ele>99.199996948242</ele>
        <time>2022-09-04T06:12:04.000Z</time>
      </trkpt>
      <trkpt lat="48.50839" lon="-2.78738">
        <ele>99.400001525879</ele>
        <time>2022-09-04T06:12:05.000Z</time>
      </trkpt>
      <trkpt lat="48.50838" lon="-2.78737">
        <ele>99.400001525879</ele>
        <time>2022-09-04T06:12:06.000Z</time>
      </trkpt>
      <trkpt lat="48.50838" lon="-2.78735">
        <ele>99.400001525879</ele>
        <time>2022-09-04T06:12:07.000Z</time>
      </trkpt>
      <trkpt lat="48.50837" lon="-2.78731">
        <ele>99.400001525879</ele>
        <time>2022-09-04T06:12:08.000Z</time>
      </trkpt>
      <trkpt lat="48.50836" lon="-2.78727">
        <ele>99.400001525879</ele>
        <time>2022-09-04T06:12:09.000Z</time>
      </trkpt>
      <trkpt lat="48.50837" lon="-2.78712">
        <ele>99.400001525879</ele>
        <time>2022-09-04T06:12:11.000Z</time>
      </trkpt>
      <trkpt lat="48.50838" lon="-2.78704">
        <ele>99.400001525879</ele>
        <time>2022-09-04T06:12:12.000Z</time>
      </trkpt>
      <trkpt lat="48.50839" lon="-2.78696">
        <ele>99.400001525879</ele>
        <time>2022-09-04T06:12:13.000Z</time>
      </trkpt>
      <trkpt lat="48.5084" lon="-2.78687">
        <ele>99</ele>
        <time>2022-09-04T06:12:14.000Z</time>
      </trkpt>
      <trkpt lat="48.50844" lon="-2.78651">
        <ele>99</ele>
        <time>2022-09-04T06:12:18.000Z</time>
      </trkpt>
      <trkpt lat="48.50849" lon="-2.78585">
        <ele>98.800003051758</ele>
        <time>2022-09-04T06:12:25.000Z</time>
      </trkpt>
      <trkpt lat="48.50851" lon="-2.78546">
        <ele>98.800003051758</ele>
        <time>2022-09-04T06:12:29.000Z</time>
      </trkpt>
      <trkpt lat="48.5085" lon="-2.78526">
        <ele>98.400001525879</ele>
        <time>2022-09-04T06:12:31.000Z</time>
      </trkpt>
      <trkpt lat="48.50849" lon="-2.78516">
        <ele>98.400001525879</ele>
        <time>2022-09-04T06:12:32.000Z</time>
      </trkpt>
      <trkpt lat="48.5085" lon="-2.78497">
        <ele>98.199996948242</ele>
        <time>2022-09-04T06:12:34.000Z</time>
      </trkpt>
      <trkpt lat="48.50851" lon="-2.78488">
        <ele>98</ele>
        <time>2022-09-04T06:12:35.000Z</time>
      </trkpt>
      <trkpt lat="48.50851" lon="-2.78478">
        <ele>98</ele>
        <time>2022-09-04T06:12:36.000Z</time>
      </trkpt>
      <trkpt lat="48.50852" lon="-2.78469">
        <ele>97.599998474121</ele>
        <time>2022-09-04T06:12:37.000Z</time>
      </trkpt>
      <trkpt lat="48.50852" lon="-2.78459">
        <ele>97.599998474121</ele>
        <time>2022-09-04T06:12:38.000Z</time>
      </trkpt>
      <trkpt lat="48.50853" lon="-2.78441">
        <ele>97.599998474121</ele>
        <time>2022-09-04T06:12:40.000Z</time>
      </trkpt>
      <trkpt lat="48.50854" lon="-2.78432">
        <ele>97.599998474121</ele>
        <time>2022-09-04T06:12:41.000Z</time>
      </trkpt>
      <trkpt lat="48.50857" lon="-2.78425">
        <ele>97.599998474121</ele>
        <time>2022-09-04T06:12:42.000Z</time>
      </trkpt>
      <trkpt lat="48.50862" lon="-2.78421">
        <ele>97.599998474121</ele>
        <time>2022-09-04T06:12:43.000Z</time>
      </trkpt>
      <trkpt lat="48.50868" lon="-2.78417">
        <ele>97.400001525879</ele>
        <time>2022-09-04T06:12:44.000Z</time>
      </trkpt>
      <trkpt lat="48.50871" lon="-2.7841">
        <ele>97</ele>
        <time>2022-09-04T06:12:45.000Z</time>
      </trkpt>
      <trkpt lat="48.50873" lon="-2.78401">
        <ele>97</ele>
        <time>2022-09-04T06:12:46.000Z</time>
      </trkpt>
      <trkpt lat="48.50874" lon="-2.78392">
        <ele>97</ele>
        <time>2022-09-04T06:12:47.000Z</time>
      </trkpt>
      <trkpt lat="48.50876" lon="-2.78383">
        <ele>96.800003051758</ele>
        <time>2022-09-04T06:12:48.000Z</time>
      </trkpt>
      <trkpt lat="48.50877" lon="-2.78374">
        <ele>96.199996948242</ele>
        <time>2022-09-04T06:12:49.000Z</time>
      </trkpt>
      <trkpt lat="48.50878" lon="-2.78365">
        <ele>96.199996948242</ele>
        <time>2022-09-04T06:12:50.000Z</time>
      </trkpt>
      <trkpt lat="48.50879" lon="-2.78357">
        <ele>96.199996948242</ele>
        <time>2022-09-04T06:12:51.000Z</time>
      </trkpt>
      <trkpt lat="48.5088" lon="-2.7835">
        <ele>96.199996948242</ele>
        <time>2022-09-04T06:12:52.000Z</time>
      </trkpt>
      <trkpt lat="48.5088" lon="-2.78345">
        <ele>95.800003051758</ele>
        <time>2022-09-04T06:12:53.000Z</time>
      </trkpt>
      <trkpt lat="48.50881" lon="-2.78343">
        <ele>95.599998474121</ele>
        <time>2022-09-04T06:12:54.000Z</time>
      </trkpt>
      <trkpt lat="48.50882" lon="-2.78341">
        <ele>95.599998474121</ele>
        <time>2022-09-04T06:12:55.000Z</time>
      </trkpt>
      <trkpt lat="48.50885" lon="-2.78341">
        <ele>95.400001525879</ele>
        <time>2022-09-04T06:12:56.000Z</time>
      </trkpt>
      <trkpt lat="48.50893" lon="-2.7834">
        <ele>95</ele>
        <time>2022-09-04T06:12:58.000Z</time>
      </trkpt>
      <trkpt lat="48.50904" lon="-2.78339">
        <ele>94.800003051758</ele>
        <time>2022-09-04T06:13:00.000Z</time>
      </trkpt>
      <trkpt lat="48.50927" lon="-2.78333">
        <ele>94.400001525879</ele>
        <time>2022-09-04T06:13:04.000Z</time>
      </trkpt>
      <trkpt lat="48.50936" lon="-2.78324">
        <ele>94.400001525879</ele>
        <time>2022-09-04T06:13:06.000Z</time>
      </trkpt>
      <trkpt lat="48.5094" lon="-2.78317">
        <ele>94.400001525879</ele>
        <time>2022-09-04T06:13:07.000Z</time>
      </trkpt>
      <trkpt lat="48.50945" lon="-2.78314">
        <ele>94.400001525879</ele>
        <time>2022-09-04T06:13:08.000Z</time>
      </trkpt>
      <trkpt lat="48.50951" lon="-2.78312">
        <ele>94.400001525879</ele>
        <time>2022-09-04T06:13:09.000Z</time>
      </trkpt>
      <trkpt lat="48.50957" lon="-2.78311">
        <ele>94.400001525879</ele>
        <time>2022-09-04T06:13:10.000Z</time>
      </trkpt>
      <trkpt lat="48.50962" lon="-2.78309">
        <ele>94.400001525879</ele>
        <time>2022-09-04T06:13:11.000Z</time>
      </trkpt>
      <trkpt lat="48.50968" lon="-2.78307">
        <ele>94.400001525879</ele>
        <time>2022-09-04T06:13:12.000Z</time>
      </trkpt>
      <trkpt lat="48.50973" lon="-2.78306">
        <ele>94.800003051758</ele>
        <time>2022-09-04T06:13:13.000Z</time>
      </trkpt>
      <trkpt lat="48.50979" lon="-2.78305">
        <ele>94.800003051758</ele>
        <time>2022-09-04T06:13:14.000Z</time>
      </trkpt>
      <trkpt lat="48.50984" lon="-2.78305">
        <ele>95</ele>
        <time>2022-09-04T06:13:15.000Z</time>
      </trkpt>
      <trkpt lat="48.50989" lon="-2.78304">
        <ele>95</ele>
        <time>2022-09-04T06:13:16.000Z</time>
      </trkpt>
      <trkpt lat="48.50993" lon="-2.78303">
        <ele>95</ele>
        <time>2022-09-04T06:13:17.000Z</time>
      </trkpt>
      <trkpt lat="48.50995" lon="-2.78299">
        <ele>95.400001525879</ele>
        <time>2022-09-04T06:13:18.000Z</time>
      </trkpt>
      <trkpt lat="48.50996" lon="-2.78294">
        <ele>95.400001525879</ele>
        <time>2022-09-04T06:13:19.000Z</time>
      </trkpt>
      <trkpt lat="48.50994" lon="-2.7829">
        <ele>95.599998474121</ele>
        <time>2022-09-04T06:13:20.000Z</time>
      </trkpt>
      <trkpt lat="48.5099" lon="-2.7829">
        <ele>95.599998474121</ele>
        <time>2022-09-04T06:13:21.000Z</time>
      </trkpt>
      <trkpt lat="48.50969" lon="-2.78293">
        <ele>96.199996948242</ele>
        <time>2022-09-04T06:13:25.000Z</time>
      </trkpt>
      <trkpt lat="48.50947" lon="-2.78297">
        <ele>96</ele>
        <time>2022-09-04T06:13:29.000Z</time>
      </trkpt>
      <trkpt lat="48.50942" lon="-2.78296">
        <ele>95.800003051758</ele>
        <time>2022-09-04T06:13:30.000Z</time>
      </trkpt>
      <trkpt lat="48.50938" lon="-2.78293">
        <ele>95.800003051758</ele>
        <time>2022-09-04T06:13:31.000Z</time>
      </trkpt>
      <trkpt lat="48.50938" lon="-2.78289">
        <ele>95.599998474121</ele>
        <time>2022-09-04T06:13:32.000Z</time>
      </trkpt>
      <trkpt lat="48.50938" lon="-2.78285">
        <ele>95.599998474121</ele>
        <time>2022-09-04T06:13:33.000Z</time>
      </trkpt>
      <trkpt lat="48.50938" lon="-2.7828">
        <ele>95.400001525879</ele>
        <time>2022-09-04T06:13:34.000Z</time>
      </trkpt>
      <trkpt lat="48.50937" lon="-2.78266">
        <ele>95.199996948242</ele>
        <time>2022-09-04T06:13:36.000Z</time>
      </trkpt>
      <trkpt lat="48.50936" lon="-2.78259">
        <ele>95.199996948242</ele>
        <time>2022-09-04T06:13:37.000Z</time>
      </trkpt>
      <trkpt lat="48.50934" lon="-2.78252">
        <ele>95</ele>
        <time>2022-09-04T06:13:38.000Z</time>
      </trkpt>
      <trkpt lat="48.50931" lon="-2.78245">
        <ele>95</ele>
        <time>2022-09-04T06:13:39.000Z</time>
      </trkpt>
      <trkpt lat="48.50929" lon="-2.78238">
        <ele>95</ele>
        <time>2022-09-04T06:13:40.000Z</time>
      </trkpt>
      <trkpt lat="48.50919" lon="-2.78204">
        <ele>94.800003051758</ele>
        <time>2022-09-04T06:13:44.000Z</time>
      </trkpt>
      <trkpt lat="48.50909" lon="-2.78192">
        <ele>95</ele>
        <time>2022-09-04T06:13:46.000Z</time>
      </trkpt>
      <trkpt lat="48.50904" lon="-2.78187">
        <ele>95</ele>
        <time>2022-09-04T06:13:47.000Z</time>
      </trkpt>
      <trkpt lat="48.50899" lon="-2.78183">
        <ele>95</ele>
        <time>2022-09-04T06:13:48.000Z</time>
      </trkpt>
      <trkpt lat="48.50894" lon="-2.78179">
        <ele>94.800003051758</ele>
        <time>2022-09-04T06:13:49.000Z</time>
      </trkpt>
      <trkpt lat="48.50891" lon="-2.78175">
        <ele>94.800003051758</ele>
        <time>2022-09-04T06:13:50.000Z</time>
      </trkpt>
      <trkpt lat="48.50889" lon="-2.7817">
        <ele>94.800003051758</ele>
        <time>2022-09-04T06:13:51.000Z</time>
      </trkpt>
      <trkpt lat="48.50888" lon="-2.78165">
        <ele>94.800003051758</ele>
        <time>2022-09-04T06:13:52.000Z</time>
      </trkpt>
      <trkpt lat="48.50886" lon="-2.78161">
        <ele>94.599998474121</ele>
        <time>2022-09-04T06:13:53.000Z</time>
      </trkpt>
      <trkpt lat="48.50883" lon="-2.78157">
        <ele>94.599998474121</ele>
        <time>2022-09-04T06:13:54.000Z</time>
      </trkpt>
      <trkpt lat="48.5088" lon="-2.78152">
        <ele>94.400001525879</ele>
        <time>2022-09-04T06:13:55.000Z</time>
      </trkpt>
      <trkpt lat="48.50876" lon="-2.78148">
        <ele>94.400001525879</ele>
        <time>2022-09-04T06:13:56.000Z</time>
      </trkpt>
      <trkpt lat="48.50872" lon="-2.78145">
        <ele>94.400001525879</ele>
        <time>2022-09-04T06:13:57.000Z</time>
      </trkpt>
      <trkpt lat="48.50863" lon="-2.7814">
        <ele>94.199996948242</ele>
        <time>2022-09-04T06:13:59.000Z</time>
      </trkpt>
      <trkpt lat="48.50858" lon="-2.78137">
        <ele>94.199996948242</ele>
        <time>2022-09-04T06:14:00.000Z</time>
      </trkpt>
      <trkpt lat="48.50852" lon="-2.78133">
        <ele>94.199996948242</ele>
        <time>2022-09-04T06:14:01.000Z</time>
      </trkpt>
      <trkpt lat="48.5084" lon="-2.78124">
        <ele>93.800003051758</ele>
        <time>2022-09-04T06:14:03.000Z</time>
      </trkpt>
      <trkpt lat="48.50834" lon="-2.78119">
        <ele>93.800003051758</ele>
        <time>2022-09-04T06:14:04.000Z</time>
      </trkpt>
      <trkpt lat="48.50808" lon="-2.78101">
        <ele>93.599998474121</ele>
        <time>2022-09-04T06:14:09.000Z</time>
      </trkpt>
      <trkpt lat="48.50791" lon="-2.78088">
        <ele>93.400001525879</ele>
        <time>2022-09-04T06:14:12.000Z</time>
      </trkpt>
      <trkpt lat="48.50784" lon="-2.78083">
        <ele>93.199996948242</ele>
        <time>2022-09-04T06:14:13.000Z</time>
      </trkpt>
      <trkpt lat="48.50779" lon="-2.78079">
        <ele>93.199996948242</ele>
        <time>2022-09-04T06:14:14.000Z</time>
      </trkpt>
      <trkpt lat="48.50777" lon="-2.78076">
        <ele>93.199996948242</ele>
        <time>2022-09-04T06:14:15.000Z</time>
      </trkpt>
      <trkpt lat="48.50775" lon="-2.7807">
        <ele>93.199996948242</ele>
        <time>2022-09-04T06:14:16.000Z</time>
      </trkpt>
      <trkpt lat="48.50776" lon="-2.78053">
        <ele>93</ele>
        <time>2022-09-04T06:14:18.000Z</time>
      </trkpt>
      <trkpt lat="48.50778" lon="-2.78045">
        <ele>93</ele>
        <time>2022-09-04T06:14:19.000Z</time>
      </trkpt>
      <trkpt lat="48.50787" lon="-2.7799">
        <ele>92.800003051758</ele>
        <time>2022-09-04T06:14:25.000Z</time>
      </trkpt>
      <trkpt lat="48.50791" lon="-2.77964">
        <ele>92.800003051758</ele>
        <time>2022-09-04T06:14:28.000Z</time>
      </trkpt>
      <trkpt lat="48.50793" lon="-2.77956">
        <ele>92.800003051758</ele>
        <time>2022-09-04T06:14:29.000Z</time>
      </trkpt>
      <trkpt lat="48.50794" lon="-2.77947">
        <ele>92.800003051758</ele>
        <time>2022-09-04T06:14:30.000Z</time>
      </trkpt>
      <trkpt lat="48.50796" lon="-2.77939">
        <ele>92.800003051758</ele>
        <time>2022-09-04T06:14:31.000Z</time>
      </trkpt>
      <trkpt lat="48.50798" lon="-2.7793">
        <ele>92.800003051758</ele>
        <time>2022-09-04T06:14:32.000Z</time>
      </trkpt>
      <trkpt lat="48.508" lon="-2.77922">
        <ele>92.800003051758</ele>
        <time>2022-09-04T06:14:33.000Z</time>
      </trkpt>
      <trkpt lat="48.50802" lon="-2.77914">
        <ele>93</ele>
        <time>2022-09-04T06:14:34.000Z</time>
      </trkpt>
      <trkpt lat="48.50803" lon="-2.77906">
        <ele>93</ele>
        <time>2022-09-04T06:14:35.000Z</time>
      </trkpt>
      <trkpt lat="48.50804" lon="-2.77889">
        <ele>93.199996948242</ele>
        <time>2022-09-04T06:14:37.000Z</time>
      </trkpt>
      <trkpt lat="48.50803" lon="-2.7788">
        <ele>93.400001525879</ele>
        <time>2022-09-04T06:14:38.000Z</time>
      </trkpt>
      <trkpt lat="48.50801" lon="-2.77873">
        <ele>93.400001525879</ele>
        <time>2022-09-04T06:14:39.000Z</time>
      </trkpt>
      <trkpt lat="48.50798" lon="-2.7787">
        <ele>93.599998474121</ele>
        <time>2022-09-04T06:14:40.000Z</time>
      </trkpt>
      <trkpt lat="48.50794" lon="-2.77868">
        <ele>93.800003051758</ele>
        <time>2022-09-04T06:14:41.000Z</time>
      </trkpt>
      <trkpt lat="48.50789" lon="-2.77867">
        <ele>94</ele>
        <time>2022-09-04T06:14:42.000Z</time>
      </trkpt>
      <trkpt lat="48.50779" lon="-2.77865">
        <ele>94</ele>
        <time>2022-09-04T06:14:44.000Z</time>
      </trkpt>
      <trkpt lat="48.50775" lon="-2.77863">
        <ele>94.199996948242</ele>
        <time>2022-09-04T06:14:45.000Z</time>
      </trkpt>
      <trkpt lat="48.5077" lon="-2.77862">
        <ele>94.199996948242</ele>
        <time>2022-09-04T06:14:46.000Z</time>
      </trkpt>
      <trkpt lat="48.50767" lon="-2.77861">
        <ele>94.199996948242</ele>
        <time>2022-09-04T06:14:47.000Z</time>
      </trkpt>
      <trkpt lat="48.50764" lon="-2.77861">
        <ele>94.199996948242</ele>
        <time>2022-09-04T06:14:48.000Z</time>
      </trkpt>
      <trkpt lat="48.50761" lon="-2.7786">
        <ele>94.400001525879</ele>
        <time>2022-09-04T06:14:49.000Z</time>
      </trkpt>
      <trkpt lat="48.50761" lon="-2.77859">
        <ele>94.400001525879</ele>
        <time>2022-09-04T06:14:50.000Z</time>
      </trkpt>
      <trkpt lat="48.50761" lon="-2.77858">
        <ele>94.400001525879</ele>
        <time>2022-09-04T06:14:51.000Z</time>
      </trkpt>
      <trkpt lat="48.50762" lon="-2.77858">
        <ele>94.599998474121</ele>
        <time>2022-09-04T06:14:52.000Z</time>
      </trkpt>
      <trkpt lat="48.50764" lon="-2.77859">
        <ele>94.599998474121</ele>
        <time>2022-09-04T06:14:53.000Z</time>
      </trkpt>
      <trkpt lat="48.50768" lon="-2.77865">
        <ele>94.599998474121</ele>
        <time>2022-09-04T06:14:55.000Z</time>
      </trkpt>
      <trkpt lat="48.50768" lon="-2.77871">
        <ele>94.599998474121</ele>
        <time>2022-09-04T06:14:56.000Z</time>
      </trkpt>
      <trkpt lat="48.50767" lon="-2.77878">
        <ele>94.599998474121</ele>
        <time>2022-09-04T06:14:57.000Z</time>
      </trkpt>
      <trkpt lat="48.50761" lon="-2.77891">
        <ele>94.599998474121</ele>
        <time>2022-09-04T06:14:59.000Z</time>
      </trkpt>
      <trkpt lat="48.50753" lon="-2.77894">
        <ele>94.599998474121</ele>
        <time>2022-09-04T06:15:01.000Z</time>
      </trkpt>
      <trkpt lat="48.50749" lon="-2.77893">
        <ele>94.800003051758</ele>
        <time>2022-09-04T06:15:02.000Z</time>
      </trkpt>
      <trkpt lat="48.50745" lon="-2.77891">
        <ele>94.800003051758</ele>
        <time>2022-09-04T06:15:03.000Z</time>
      </trkpt>
      <trkpt lat="48.5074" lon="-2.7789">
        <ele>94.800003051758</ele>
        <time>2022-09-04T06:15:04.000Z</time>
      </trkpt>
      <trkpt lat="48.50732" lon="-2.7789">
        <ele>94.800003051758</ele>
        <time>2022-09-04T06:15:06.000Z</time>
      </trkpt>
      <trkpt lat="48.50727" lon="-2.77891">
        <ele>94.800003051758</ele>
        <time>2022-09-04T06:15:07.000Z</time>
      </trkpt>
      <trkpt lat="48.50722" lon="-2.77892">
        <ele>94.800003051758</ele>
        <time>2022-09-04T06:15:08.000Z</time>
      </trkpt>
      <trkpt lat="48.50716" lon="-2.77895">
        <ele>94.800003051758</ele>
        <time>2022-09-04T06:15:09.000Z</time>
      </trkpt>
      <trkpt lat="48.50706" lon="-2.779">
        <ele>95</ele>
        <time>2022-09-04T06:15:11.000Z</time>
      </trkpt>
      <trkpt lat="48.50701" lon="-2.77902">
        <ele>95.199996948242</ele>
        <time>2022-09-04T06:15:12.000Z</time>
      </trkpt>
      <trkpt lat="48.50663" lon="-2.7792">
        <ele>95</ele>
        <time>2022-09-04T06:15:19.000Z</time>
      </trkpt>
      <trkpt lat="48.50658" lon="-2.77924">
        <ele>94.800003051758</ele>
        <time>2022-09-04T06:15:20.000Z</time>
      </trkpt>
      <trkpt lat="48.50654" lon="-2.7793">
        <ele>94.800003051758</ele>
        <time>2022-09-04T06:15:21.000Z</time>
      </trkpt>
      <trkpt lat="48.50649" lon="-2.77945">
        <ele>94.800003051758</ele>
        <time>2022-09-04T06:15:23.000Z</time>
      </trkpt>
      <trkpt lat="48.50646" lon="-2.77952">
        <ele>94.800003051758</ele>
        <time>2022-09-04T06:15:24.000Z</time>
      </trkpt>
      <trkpt lat="48.50644" lon="-2.77959">
        <ele>94.800003051758</ele>
        <time>2022-09-04T06:15:25.000Z</time>
      </trkpt>
      <trkpt lat="48.50637" lon="-2.77981">
        <ele>94.599998474121</ele>
        <time>2022-09-04T06:15:28.000Z</time>
      </trkpt>
      <trkpt lat="48.50633" lon="-2.77987">
        <ele>94.800003051758</ele>
        <time>2022-09-04T06:15:29.000Z</time>
      </trkpt>
      <trkpt lat="48.50629" lon="-2.7799">
        <ele>94.800003051758</ele>
        <time>2022-09-04T06:15:30.000Z</time>
      </trkpt>
      <trkpt lat="48.50624" lon="-2.77993">
        <ele>94.599998474121</ele>
        <time>2022-09-04T06:15:31.000Z</time>
      </trkpt>
      <trkpt lat="48.50619" lon="-2.77995">
        <ele>94.800003051758</ele>
        <time>2022-09-04T06:15:32.000Z</time>
      </trkpt>
      <trkpt lat="48.50614" lon="-2.77996">
        <ele>95</ele>
        <time>2022-09-04T06:15:33.000Z</time>
      </trkpt>
      <trkpt lat="48.50609" lon="-2.77995">
        <ele>95</ele>
        <time>2022-09-04T06:15:34.000Z</time>
      </trkpt>
      <trkpt lat="48.50604" lon="-2.77994">
        <ele>95</ele>
        <time>2022-09-04T06:15:35.000Z</time>
      </trkpt>
      <trkpt lat="48.50599" lon="-2.77992">
        <ele>95</ele>
        <time>2022-09-04T06:15:36.000Z</time>
      </trkpt>
      <trkpt lat="48.5058" lon="-2.77982">
        <ele>95</ele>
        <time>2022-09-04T06:15:40.000Z</time>
      </trkpt>
      <trkpt lat="48.50577" lon="-2.7798">
        <ele>95</ele>
        <time>2022-09-04T06:15:41.000Z</time>
      </trkpt>
      <trkpt lat="48.50568" lon="-2.77976">
        <ele>95</ele>
        <time>2022-09-04T06:15:43.000Z</time>
      </trkpt>
      <trkpt lat="48.50564" lon="-2.77973">
        <ele>95</ele>
        <time>2022-09-04T06:15:44.000Z</time>
      </trkpt>
      <trkpt lat="48.50559" lon="-2.7797">
        <ele>95</ele>
        <time>2022-09-04T06:15:45.000Z</time>
      </trkpt>
      <trkpt lat="48.50553" lon="-2.77968">
        <ele>95.199996948242</ele>
        <time>2022-09-04T06:15:46.000Z</time>
      </trkpt>
      <trkpt lat="48.5053" lon="-2.7796">
        <ele>95.400001525879</ele>
        <time>2022-09-04T06:15:50.000Z</time>
      </trkpt>
      <trkpt lat="48.50524" lon="-2.77956">
        <ele>95.400001525879</ele>
        <time>2022-09-04T06:15:51.000Z</time>
      </trkpt>
      <trkpt lat="48.50493" lon="-2.7793">
        <ele>95.599998474121</ele>
        <time>2022-09-04T06:15:57.000Z</time>
      </trkpt>
      <trkpt lat="48.50488" lon="-2.77924">
        <ele>95.599998474121</ele>
        <time>2022-09-04T06:15:58.000Z</time>
      </trkpt>
      <trkpt lat="48.50468" lon="-2.77917">
        <ele>95.400001525879</ele>
        <time>2022-09-04T06:16:01.000Z</time>
      </trkpt>
      <trkpt lat="48.50462" lon="-2.77916">
        <ele>95.199996948242</ele>
        <time>2022-09-04T06:16:02.000Z</time>
      </trkpt>
      <trkpt lat="48.50456" lon="-2.77915">
        <ele>95</ele>
        <time>2022-09-04T06:16:03.000Z</time>
      </trkpt>
      <trkpt lat="48.5045" lon="-2.77913">
        <ele>95</ele>
        <time>2022-09-04T06:16:04.000Z</time>
      </trkpt>
      <trkpt lat="48.50444" lon="-2.77912">
        <ele>95</ele>
        <time>2022-09-04T06:16:05.000Z</time>
      </trkpt>
      <trkpt lat="48.50439" lon="-2.7791">
        <ele>95</ele>
        <time>2022-09-04T06:16:06.000Z</time>
      </trkpt>
      <trkpt lat="48.50427" lon="-2.77906">
        <ele>95</ele>
        <time>2022-09-04T06:16:08.000Z</time>
      </trkpt>
      <trkpt lat="48.50413" lon="-2.77902">
        <ele>95</ele>
        <time>2022-09-04T06:16:10.000Z</time>
      </trkpt>
      <trkpt lat="48.5039" lon="-2.779">
        <ele>95.400001525879</ele>
        <time>2022-09-04T06:16:14.000Z</time>
      </trkpt>
      <trkpt lat="48.50363" lon="-2.77904">
        <ele>96</ele>
        <time>2022-09-04T06:16:19.000Z</time>
      </trkpt>
      <trkpt lat="48.50358" lon="-2.77904">
        <ele>96</ele>
        <time>2022-09-04T06:16:20.000Z</time>
      </trkpt>
      <trkpt lat="48.50352" lon="-2.77905">
        <ele>96.199996948242</ele>
        <time>2022-09-04T06:16:21.000Z</time>
      </trkpt>
      <trkpt lat="48.50346" lon="-2.77906">
        <ele>96.199996948242</ele>
        <time>2022-09-04T06:16:22.000Z</time>
      </trkpt>
      <trkpt lat="48.5034" lon="-2.77907">
        <ele>96.199996948242</ele>
        <time>2022-09-04T06:16:23.000Z</time>
      </trkpt>
      <trkpt lat="48.50334" lon="-2.77907">
        <ele>96.400001525879</ele>
        <time>2022-09-04T06:16:24.000Z</time>
      </trkpt>
      <trkpt lat="48.50328" lon="-2.77907">
        <ele>96.400001525879</ele>
        <time>2022-09-04T06:16:25.000Z</time>
      </trkpt>
      <trkpt lat="48.50322" lon="-2.77908">
        <ele>96.599998474121</ele>
        <time>2022-09-04T06:16:26.000Z</time>
      </trkpt>
      <trkpt lat="48.50317" lon="-2.77909">
        <ele>96.599998474121</ele>
        <time>2022-09-04T06:16:27.000Z</time>
      </trkpt>
      <trkpt lat="48.50311" lon="-2.7791">
        <ele>96.599998474121</ele>
        <time>2022-09-04T06:16:28.000Z</time>
      </trkpt>
      <trkpt lat="48.50306" lon="-2.77911">
        <ele>96.599998474121</ele>
        <time>2022-09-04T06:16:29.000Z</time>
      </trkpt>
      <trkpt lat="48.50301" lon="-2.77911">
        <ele>96.599998474121</ele>
        <time>2022-09-04T06:16:30.000Z</time>
      </trkpt>
      <trkpt lat="48.50295" lon="-2.77911">
        <ele>96.599998474121</ele>
        <time>2022-09-04T06:16:31.000Z</time>
      </trkpt>
      <trkpt lat="48.50285" lon="-2.77911">
        <ele>96.800003051758</ele>
        <time>2022-09-04T06:16:33.000Z</time>
      </trkpt>
      <trkpt lat="48.50279" lon="-2.77911">
        <ele>97</ele>
        <time>2022-09-04T06:16:34.000Z</time>
      </trkpt>
      <trkpt lat="48.50269" lon="-2.77911">
        <ele>97.199996948242</ele>
        <time>2022-09-04T06:16:36.000Z</time>
      </trkpt>
      <trkpt lat="48.50248" lon="-2.77917">
        <ele>97.800003051758</ele>
        <time>2022-09-04T06:16:40.000Z</time>
      </trkpt>
      <trkpt lat="48.50243" lon="-2.7792">
        <ele>98</ele>
        <time>2022-09-04T06:16:41.000Z</time>
      </trkpt>
      <trkpt lat="48.50237" lon="-2.77929">
        <ele>98.199996948242</ele>
        <time>2022-09-04T06:16:43.000Z</time>
      </trkpt>
      <trkpt lat="48.50234" lon="-2.77936">
        <ele>98.199996948242</ele>
        <time>2022-09-04T06:16:44.000Z</time>
      </trkpt>
      <trkpt lat="48.5023" lon="-2.77944">
        <ele>98.400001525879</ele>
        <time>2022-09-04T06:16:45.000Z</time>
      </trkpt>
      <trkpt lat="48.50226" lon="-2.77951">
        <ele>98.400001525879</ele>
        <time>2022-09-04T06:16:46.000Z</time>
      </trkpt>
      <trkpt lat="48.50214" lon="-2.7798">
        <ele>98.800003051758</ele>
        <time>2022-09-04T06:16:50.000Z</time>
      </trkpt>
      <trkpt lat="48.50211" lon="-2.77987">
        <ele>98.800003051758</ele>
        <time>2022-09-04T06:16:51.000Z</time>
      </trkpt>
      <trkpt lat="48.50201" lon="-2.78007">
        <ele>99</ele>
        <time>2022-09-04T06:16:54.000Z</time>
      </trkpt>
      <trkpt lat="48.50198" lon="-2.78014">
        <ele>99</ele>
        <time>2022-09-04T06:16:55.000Z</time>
      </trkpt>
      <trkpt lat="48.50191" lon="-2.78027">
        <ele>99.199996948242</ele>
        <time>2022-09-04T06:16:57.000Z</time>
      </trkpt>
      <trkpt lat="48.50188" lon="-2.78033">
        <ele>99.199996948242</ele>
        <time>2022-09-04T06:16:58.000Z</time>
      </trkpt>
      <trkpt lat="48.50184" lon="-2.78037">
        <ele>99.400001525879</ele>
        <time>2022-09-04T06:16:59.000Z</time>
      </trkpt>
      <trkpt lat="48.5018" lon="-2.78041">
        <ele>99.599998474121</ele>
        <time>2022-09-04T06:17:00.000Z</time>
      </trkpt>
      <trkpt lat="48.50176" lon="-2.78041">
        <ele>99.599998474121</ele>
        <time>2022-09-04T06:17:01.000Z</time>
      </trkpt>
      <trkpt lat="48.50173" lon="-2.78039">
        <ele>99.800003051758</ele>
        <time>2022-09-04T06:17:02.000Z</time>
      </trkpt>
      <trkpt lat="48.50168" lon="-2.78034">
        <ele>99.800003051758</ele>
        <time>2022-09-04T06:17:03.000Z</time>
      </trkpt>
      <trkpt lat="48.50164" lon="-2.7803">
        <ele>100</ele>
        <time>2022-09-04T06:17:04.000Z</time>
      </trkpt>
      <trkpt lat="48.50161" lon="-2.78025">
        <ele>100.19999694824</ele>
        <time>2022-09-04T06:17:05.000Z</time>
      </trkpt>
      <trkpt lat="48.50157" lon="-2.78019">
        <ele>100.40000152588</ele>
        <time>2022-09-04T06:17:06.000Z</time>
      </trkpt>
      <trkpt lat="48.50155" lon="-2.78013">
        <ele>100.80000305176</ele>
        <time>2022-09-04T06:17:07.000Z</time>
      </trkpt>
      <trkpt lat="48.50154" lon="-2.78006">
        <ele>101</ele>
        <time>2022-09-04T06:17:08.000Z</time>
      </trkpt>
      <trkpt lat="48.50154" lon="-2.77999">
        <ele>101</ele>
        <time>2022-09-04T06:17:09.000Z</time>
      </trkpt>
      <trkpt lat="48.50154" lon="-2.77991">
        <ele>101.19999694824</ele>
        <time>2022-09-04T06:17:10.000Z</time>
      </trkpt>
      <trkpt lat="48.50154" lon="-2.77986">
        <ele>101.40000152588</ele>
        <time>2022-09-04T06:17:11.000Z</time>
      </trkpt>
      <trkpt lat="48.50151" lon="-2.77979">
        <ele>101.59999847412</ele>
        <time>2022-09-04T06:17:12.000Z</time>
      </trkpt>
      <trkpt lat="48.50147" lon="-2.77976">
        <ele>101.59999847412</ele>
        <time>2022-09-04T06:17:13.000Z</time>
      </trkpt>
      <trkpt lat="48.50143" lon="-2.77977">
        <ele>101.80000305176</ele>
        <time>2022-09-04T06:17:14.000Z</time>
      </trkpt>
      <trkpt lat="48.50139" lon="-2.7798">
        <ele>102</ele>
        <time>2022-09-04T06:17:15.000Z</time>
      </trkpt>
      <trkpt lat="48.50136" lon="-2.77984">
        <ele>102.19999694824</ele>
        <time>2022-09-04T06:17:16.000Z</time>
      </trkpt>
      <trkpt lat="48.50133" lon="-2.77989">
        <ele>102.19999694824</ele>
        <time>2022-09-04T06:17:17.000Z</time>
      </trkpt>
      <trkpt lat="48.50129" lon="-2.77993">
        <ele>102.80000305176</ele>
        <time>2022-09-04T06:17:18.000Z</time>
      </trkpt>
      <trkpt lat="48.50124" lon="-2.77997">
        <ele>103.19999694824</ele>
        <time>2022-09-04T06:17:19.000Z</time>
      </trkpt>
      <trkpt lat="48.50121" lon="-2.77998">
        <ele>103.40000152588</ele>
        <time>2022-09-04T06:17:20.000Z</time>
      </trkpt>
      <trkpt lat="48.50115" lon="-2.77998">
        <ele>103.80000305176</ele>
        <time>2022-09-04T06:17:21.000Z</time>
      </trkpt>
      <trkpt lat="48.50111" lon="-2.77995">
        <ele>104</ele>
        <time>2022-09-04T06:17:22.000Z</time>
      </trkpt>
      <trkpt lat="48.50108" lon="-2.7799">
        <ele>104.19999694824</ele>
        <time>2022-09-04T06:17:23.000Z</time>
      </trkpt>
      <trkpt lat="48.50105" lon="-2.77985">
        <ele>104.19999694824</ele>
        <time>2022-09-04T06:17:24.000Z</time>
      </trkpt>
      <trkpt lat="48.50104" lon="-2.77976">
        <ele>104.40000152588</ele>
        <time>2022-09-04T06:17:25.000Z</time>
      </trkpt>
      <trkpt lat="48.50103" lon="-2.77968">
        <ele>104.40000152588</ele>
        <time>2022-09-04T06:17:26.000Z</time>
      </trkpt>
      <trkpt lat="48.50103" lon="-2.7796">
        <ele>104.59999847412</ele>
        <time>2022-09-04T06:17:27.000Z</time>
      </trkpt>
      <trkpt lat="48.50103" lon="-2.77954">
        <ele>104.59999847412</ele>
        <time>2022-09-04T06:17:28.000Z</time>
      </trkpt>
      <trkpt lat="48.50103" lon="-2.77946">
        <ele>104.59999847412</ele>
        <time>2022-09-04T06:17:29.000Z</time>
      </trkpt>
      <trkpt lat="48.50103" lon="-2.77936">
        <ele>104.80000305176</ele>
        <time>2022-09-04T06:17:30.000Z</time>
      </trkpt>
      <trkpt lat="48.50103" lon="-2.77929">
        <ele>104.80000305176</ele>
        <time>2022-09-04T06:17:31.000Z</time>
      </trkpt>
      <trkpt lat="48.50102" lon="-2.77921">
        <ele>104.80000305176</ele>
        <time>2022-09-04T06:17:32.000Z</time>
      </trkpt>
      <trkpt lat="48.50101" lon="-2.77914">
        <ele>104.80000305176</ele>
        <time>2022-09-04T06:17:33.000Z</time>
      </trkpt>
      <trkpt lat="48.50101" lon="-2.77906">
        <ele>105</ele>
        <time>2022-09-04T06:17:34.000Z</time>
      </trkpt>
      <trkpt lat="48.50099" lon="-2.77899">
        <ele>105</ele>
        <time>2022-09-04T06:17:35.000Z</time>
      </trkpt>
      <trkpt lat="48.50097" lon="-2.7789">
        <ele>105.19999694824</ele>
        <time>2022-09-04T06:17:36.000Z</time>
      </trkpt>
      <trkpt lat="48.50095" lon="-2.77882">
        <ele>105.19999694824</ele>
        <time>2022-09-04T06:17:37.000Z</time>
      </trkpt>
      <trkpt lat="48.50094" lon="-2.77875">
        <ele>105.59999847412</ele>
        <time>2022-09-04T06:17:38.000Z</time>
      </trkpt>
      <trkpt lat="48.50092" lon="-2.77865">
        <ele>105.80000305176</ele>
        <time>2022-09-04T06:17:39.000Z</time>
      </trkpt>
      <trkpt lat="48.5009" lon="-2.77856">
        <ele>106.19999694824</ele>
        <time>2022-09-04T06:17:40.000Z</time>
      </trkpt>
      <trkpt lat="48.50087" lon="-2.77847">
        <ele>106.40000152588</ele>
        <time>2022-09-04T06:17:41.000Z</time>
      </trkpt>
      <trkpt lat="48.50086" lon="-2.7784">
        <ele>106.59999847412</ele>
        <time>2022-09-04T06:17:42.000Z</time>
      </trkpt>
      <trkpt lat="48.50084" lon="-2.77831">
        <ele>106.59999847412</ele>
        <time>2022-09-04T06:17:43.000Z</time>
      </trkpt>
      <trkpt lat="48.50081" lon="-2.7782">
        <ele>106.59999847412</ele>
        <time>2022-09-04T06:17:44.000Z</time>
      </trkpt>
      <trkpt lat="48.50079" lon="-2.77811">
        <ele>106.59999847412</ele>
        <time>2022-09-04T06:17:45.000Z</time>
      </trkpt>
      <trkpt lat="48.50077" lon="-2.77802">
        <ele>106.59999847412</ele>
        <time>2022-09-04T06:17:46.000Z</time>
      </trkpt>
      <trkpt lat="48.50074" lon="-2.77794">
        <ele>106.59999847412</ele>
        <time>2022-09-04T06:17:47.000Z</time>
      </trkpt>
      <trkpt lat="48.50071" lon="-2.77786">
        <ele>106.40000152588</ele>
        <time>2022-09-04T06:17:48.000Z</time>
      </trkpt>
      <trkpt lat="48.50067" lon="-2.77778">
        <ele>106</ele>
        <time>2022-09-04T06:17:49.000Z</time>
      </trkpt>
      <trkpt lat="48.50062" lon="-2.77773">
        <ele>105.80000305176</ele>
        <time>2022-09-04T06:17:50.000Z</time>
      </trkpt>
      <trkpt lat="48.50056" lon="-2.7777">
        <ele>105.40000152588</ele>
        <time>2022-09-04T06:17:51.000Z</time>
      </trkpt>
      <trkpt lat="48.5005" lon="-2.77768">
        <ele>105.40000152588</ele>
        <time>2022-09-04T06:17:52.000Z</time>
      </trkpt>
      <trkpt lat="48.50044" lon="-2.77765">
        <ele>105.19999694824</ele>
        <time>2022-09-04T06:17:53.000Z</time>
      </trkpt>
      <trkpt lat="48.50038" lon="-2.7776">
        <ele>104.59999847412</ele>
        <time>2022-09-04T06:17:54.000Z</time>
      </trkpt>
      <trkpt lat="48.50033" lon="-2.77754">
        <ele>104.59999847412</ele>
        <time>2022-09-04T06:17:55.000Z</time>
      </trkpt>
      <trkpt lat="48.50029" lon="-2.77746">
        <ele>104</ele>
        <time>2022-09-04T06:17:56.000Z</time>
      </trkpt>
      <trkpt lat="48.50027" lon="-2.77737">
        <ele>103.80000305176</ele>
        <time>2022-09-04T06:17:57.000Z</time>
      </trkpt>
      <trkpt lat="48.50026" lon="-2.77728">
        <ele>103.19999694824</ele>
        <time>2022-09-04T06:17:58.000Z</time>
      </trkpt>
      <trkpt lat="48.50026" lon="-2.77717">
        <ele>103</ele>
        <time>2022-09-04T06:17:59.000Z</time>
      </trkpt>
      <trkpt lat="48.50027" lon="-2.77707">
        <ele>102.59999847412</ele>
        <time>2022-09-04T06:18:00.000Z</time>
      </trkpt>
      <trkpt lat="48.50028" lon="-2.77696">
        <ele>102.59999847412</ele>
        <time>2022-09-04T06:18:01.000Z</time>
      </trkpt>
      <trkpt lat="48.5003" lon="-2.77686">
        <ele>102.40000152588</ele>
        <time>2022-09-04T06:18:02.000Z</time>
      </trkpt>
      <trkpt lat="48.50031" lon="-2.77675">
        <ele>102.19999694824</ele>
        <time>2022-09-04T06:18:03.000Z</time>
      </trkpt>
      <trkpt lat="48.50029" lon="-2.77652">
        <ele>101.59999847412</ele>
        <time>2022-09-04T06:18:05.000Z</time>
      </trkpt>
      <trkpt lat="48.50023" lon="-2.77629">
        <ele>101.19999694824</ele>
        <time>2022-09-04T06:18:07.000Z</time>
      </trkpt>
      <trkpt lat="48.50019" lon="-2.77617">
        <ele>101.19999694824</ele>
        <time>2022-09-04T06:18:08.000Z</time>
      </trkpt>
      <trkpt lat="48.50014" lon="-2.77606">
        <ele>101</ele>
        <time>2022-09-04T06:18:09.000Z</time>
      </trkpt>
      <trkpt lat="48.50009" lon="-2.77594">
        <ele>100.59999847412</ele>
        <time>2022-09-04T06:18:10.000Z</time>
      </trkpt>
      <trkpt lat="48.5" lon="-2.77573">
        <ele>99.400001525879</ele>
        <time>2022-09-04T06:18:12.000Z</time>
      </trkpt>
      <trkpt lat="48.49984" lon="-2.77539">
        <ele>98.400001525879</ele>
        <time>2022-09-04T06:18:15.000Z</time>
      </trkpt>
      <trkpt lat="48.49979" lon="-2.77528">
        <ele>98.199996948242</ele>
        <time>2022-09-04T06:18:16.000Z</time>
      </trkpt>
      <trkpt lat="48.49968" lon="-2.77504">
        <ele>96.800003051758</ele>
        <time>2022-09-04T06:18:18.000Z</time>
      </trkpt>
      <trkpt lat="48.49958" lon="-2.77481">
        <ele>95.599998474121</ele>
        <time>2022-09-04T06:18:20.000Z</time>
      </trkpt>
      <trkpt lat="48.49941" lon="-2.77446">
        <ele>94.400001525879</ele>
        <time>2022-09-04T06:18:23.000Z</time>
      </trkpt>
      <trkpt lat="48.49929" lon="-2.77424">
        <ele>93</ele>
        <time>2022-09-04T06:18:25.000Z</time>
      </trkpt>
      <trkpt lat="48.49918" lon="-2.774">
        <ele>91.599998474121</ele>
        <time>2022-09-04T06:18:27.000Z</time>
      </trkpt>
      <trkpt lat="48.49907" lon="-2.77381">
        <ele>90.800003051758</ele>
        <time>2022-09-04T06:18:29.000Z</time>
      </trkpt>
      <trkpt lat="48.49903" lon="-2.77375">
        <ele>90.400001525879</ele>
        <time>2022-09-04T06:18:30.000Z</time>
      </trkpt>
      <trkpt lat="48.49901" lon="-2.77373">
        <ele>89.599998474121</ele>
        <time>2022-09-04T06:18:31.000Z</time>
      </trkpt>
      <trkpt lat="48.49901" lon="-2.77376">
        <ele>89.400001525879</ele>
        <time>2022-09-04T06:18:32.000Z</time>
      </trkpt>
      <trkpt lat="48.49901" lon="-2.77379">
        <ele>88.800003051758</ele>
        <time>2022-09-04T06:18:33.000Z</time>
      </trkpt>
      <trkpt lat="48.49904" lon="-2.77391">
        <ele>87.800003051758</ele>
        <time>2022-09-04T06:18:35.000Z</time>
      </trkpt>
      <trkpt lat="48.49905" lon="-2.77399">
        <ele>87.599998474121</ele>
        <time>2022-09-04T06:18:36.000Z</time>
      </trkpt>
      <trkpt lat="48.49906" lon="-2.77409">
        <ele>87</ele>
        <time>2022-09-04T06:18:37.000Z</time>
      </trkpt>
      <trkpt lat="48.49909" lon="-2.77429">
        <ele>86.400001525879</ele>
        <time>2022-09-04T06:18:39.000Z</time>
      </trkpt>
      <trkpt lat="48.49908" lon="-2.77436">
        <ele>86</ele>
        <time>2022-09-04T06:18:40.000Z</time>
      </trkpt>
      <trkpt lat="48.49906" lon="-2.77441">
        <ele>85.400001525879</ele>
        <time>2022-09-04T06:18:41.000Z</time>
      </trkpt>
      <trkpt lat="48.49905" lon="-2.77444">
        <ele>84.800003051758</ele>
        <time>2022-09-04T06:18:42.000Z</time>
      </trkpt>
      <trkpt lat="48.49903" lon="-2.77449">
        <ele>84.599998474121</ele>
        <time>2022-09-04T06:18:43.000Z</time>
      </trkpt>
      <trkpt lat="48.49902" lon="-2.77454">
        <ele>84.599998474121</ele>
        <time>2022-09-04T06:18:44.000Z</time>
      </trkpt>
      <trkpt lat="48.49898" lon="-2.77477">
        <ele>84.400001525879</ele>
        <time>2022-09-04T06:18:47.000Z</time>
      </trkpt>
      <trkpt lat="48.49897" lon="-2.77485">
        <ele>84.400001525879</ele>
        <time>2022-09-04T06:18:48.000Z</time>
      </trkpt>
      <trkpt lat="48.49896" lon="-2.77492">
        <ele>84.400001525879</ele>
        <time>2022-09-04T06:18:49.000Z</time>
      </trkpt>
      <trkpt lat="48.49895" lon="-2.77501">
        <ele>84.400001525879</ele>
        <time>2022-09-04T06:18:50.000Z</time>
      </trkpt>
      <trkpt lat="48.49895" lon="-2.77507">
        <ele>84.400001525879</ele>
        <time>2022-09-04T06:18:51.000Z</time>
      </trkpt>
      <trkpt lat="48.49898" lon="-2.77524">
        <ele>84.400001525879</ele>
        <time>2022-09-04T06:18:53.000Z</time>
      </trkpt>
      <trkpt lat="48.49899" lon="-2.77537">
        <ele>84.400001525879</ele>
        <time>2022-09-04T06:18:54.000Z</time>
      </trkpt>
      <trkpt lat="48.49898" lon="-2.77549">
        <ele>84.400001525879</ele>
        <time>2022-09-04T06:18:55.000Z</time>
      </trkpt>
      <trkpt lat="48.49897" lon="-2.77557">
        <ele>84.199996948242</ele>
        <time>2022-09-04T06:18:56.000Z</time>
      </trkpt>
      <trkpt lat="48.49895" lon="-2.77563">
        <ele>84.199996948242</ele>
        <time>2022-09-04T06:18:57.000Z</time>
      </trkpt>
      <trkpt lat="48.49892" lon="-2.7757">
        <ele>84</ele>
        <time>2022-09-04T06:18:58.000Z</time>
      </trkpt>
      <trkpt lat="48.49888" lon="-2.77577">
        <ele>83.800003051758</ele>
        <time>2022-09-04T06:18:59.000Z</time>
      </trkpt>
      <trkpt lat="48.49884" lon="-2.77583">
        <ele>83.800003051758</ele>
        <time>2022-09-04T06:19:00.000Z</time>
      </trkpt>
      <trkpt lat="48.4988" lon="-2.77591">
        <ele>83.800003051758</ele>
        <time>2022-09-04T06:19:01.000Z</time>
      </trkpt>
      <trkpt lat="48.49877" lon="-2.77597">
        <ele>83.599998474121</ele>
        <time>2022-09-04T06:19:02.000Z</time>
      </trkpt>
      <trkpt lat="48.49864" lon="-2.77617">
        <ele>83.599998474121</ele>
        <time>2022-09-04T06:19:05.000Z</time>
      </trkpt>
      <trkpt lat="48.49857" lon="-2.77628">
        <ele>83.800003051758</ele>
        <time>2022-09-04T06:19:07.000Z</time>
      </trkpt>
      <trkpt lat="48.49854" lon="-2.77631">
        <ele>84</ele>
        <time>2022-09-04T06:19:08.000Z</time>
      </trkpt>
      <trkpt lat="48.49849" lon="-2.77636">
        <ele>84</ele>
        <time>2022-09-04T06:19:09.000Z</time>
      </trkpt>
      <trkpt lat="48.49845" lon="-2.7764">
        <ele>84</ele>
        <time>2022-09-04T06:19:10.000Z</time>
      </trkpt>
      <trkpt lat="48.49842" lon="-2.77642">
        <ele>84</ele>
        <time>2022-09-04T06:19:11.000Z</time>
      </trkpt>
      <trkpt lat="48.49838" lon="-2.77643">
        <ele>84</ele>
        <time>2022-09-04T06:19:12.000Z</time>
      </trkpt>
      <trkpt lat="48.49834" lon="-2.77645">
        <ele>84</ele>
        <time>2022-09-04T06:19:13.000Z</time>
      </trkpt>
      <trkpt lat="48.49831" lon="-2.77646">
        <ele>84.199996948242</ele>
        <time>2022-09-04T06:19:14.000Z</time>
      </trkpt>
      <trkpt lat="48.49826" lon="-2.77647">
        <ele>84</ele>
        <time>2022-09-04T06:19:15.000Z</time>
      </trkpt>
      <trkpt lat="48.49823" lon="-2.77647">
        <ele>84</ele>
        <time>2022-09-04T06:19:16.000Z</time>
      </trkpt>
      <trkpt lat="48.4982" lon="-2.77647">
        <ele>84.199996948242</ele>
        <time>2022-09-04T06:19:17.000Z</time>
      </trkpt>
      <trkpt lat="48.49818" lon="-2.7765">
        <ele>84.199996948242</ele>
        <time>2022-09-04T06:19:18.000Z</time>
      </trkpt>
      <trkpt lat="48.49816" lon="-2.77652">
        <ele>84.800003051758</ele>
        <time>2022-09-04T06:19:19.000Z</time>
      </trkpt>
      <trkpt lat="48.49815" lon="-2.77656">
        <ele>85.199996948242</ele>
        <time>2022-09-04T06:19:20.000Z</time>
      </trkpt>
      <trkpt lat="48.49814" lon="-2.77661">
        <ele>85.599998474121</ele>
        <time>2022-09-04T06:19:21.000Z</time>
      </trkpt>
      <trkpt lat="48.49813" lon="-2.77666">
        <ele>85.800003051758</ele>
        <time>2022-09-04T06:19:22.000Z</time>
      </trkpt>
      <trkpt lat="48.49812" lon="-2.77671">
        <ele>86</ele>
        <time>2022-09-04T06:19:23.000Z</time>
      </trkpt>
      <trkpt lat="48.49811" lon="-2.77677">
        <ele>86</ele>
        <time>2022-09-04T06:19:24.000Z</time>
      </trkpt>
      <trkpt lat="48.49809" lon="-2.77684">
        <ele>86</ele>
        <time>2022-09-04T06:19:25.000Z</time>
      </trkpt>
      <trkpt lat="48.49807" lon="-2.77697">
        <ele>86</ele>
        <time>2022-09-04T06:19:27.000Z</time>
      </trkpt>
      <trkpt lat="48.49801" lon="-2.77719">
        <ele>86</ele>
        <time>2022-09-04T06:19:30.000Z</time>
      </trkpt>
      <trkpt lat="48.49799" lon="-2.77726">
        <ele>86</ele>
        <time>2022-09-04T06:19:31.000Z</time>
      </trkpt>
      <trkpt lat="48.49797" lon="-2.77733">
        <ele>85.800003051758</ele>
        <time>2022-09-04T06:19:32.000Z</time>
      </trkpt>
      <trkpt lat="48.49795" lon="-2.77739">
        <ele>85.800003051758</ele>
        <time>2022-09-04T06:19:33.000Z</time>
      </trkpt>
      <trkpt lat="48.49793" lon="-2.77745">
        <ele>85.800003051758</ele>
        <time>2022-09-04T06:19:34.000Z</time>
      </trkpt>
      <trkpt lat="48.49792" lon="-2.77751">
        <ele>85.800003051758</ele>
        <time>2022-09-04T06:19:35.000Z</time>
      </trkpt>
      <trkpt lat="48.49792" lon="-2.77755">
        <ele>85.800003051758</ele>
        <time>2022-09-04T06:19:36.000Z</time>
      </trkpt>
      <trkpt lat="48.49792" lon="-2.77762">
        <ele>85.800003051758</ele>
        <time>2022-09-04T06:19:37.000Z</time>
      </trkpt>
      <trkpt lat="48.49792" lon="-2.77767">
        <ele>85.800003051758</ele>
        <time>2022-09-04T06:19:38.000Z</time>
      </trkpt>
      <trkpt lat="48.49793" lon="-2.77771">
        <ele>85.800003051758</ele>
        <time>2022-09-04T06:19:39.000Z</time>
      </trkpt>
      <trkpt lat="48.49793" lon="-2.77776">
        <ele>85.800003051758</ele>
        <time>2022-09-04T06:19:40.000Z</time>
      </trkpt>
      <trkpt lat="48.49792" lon="-2.77781">
        <ele>86</ele>
        <time>2022-09-04T06:19:41.000Z</time>
      </trkpt>
      <trkpt lat="48.49791" lon="-2.77784">
        <ele>86.400001525879</ele>
        <time>2022-09-04T06:19:42.000Z</time>
      </trkpt>
      <trkpt lat="48.4979" lon="-2.77788">
        <ele>87</ele>
        <time>2022-09-04T06:19:43.000Z</time>
      </trkpt>
      <trkpt lat="48.4979" lon="-2.77791">
        <ele>87.400001525879</ele>
        <time>2022-09-04T06:19:44.000Z</time>
      </trkpt>
      <trkpt lat="48.49788" lon="-2.77795">
        <ele>87.800003051758</ele>
        <time>2022-09-04T06:19:45.000Z</time>
      </trkpt>
      <trkpt lat="48.49787" lon="-2.77799">
        <ele>88.199996948242</ele>
        <time>2022-09-04T06:19:46.000Z</time>
      </trkpt>
      <trkpt lat="48.49784" lon="-2.77806">
        <ele>89</ele>
        <time>2022-09-04T06:19:48.000Z</time>
      </trkpt>
      <trkpt lat="48.49783" lon="-2.77811">
        <ele>89.199996948242</ele>
        <time>2022-09-04T06:19:49.000Z</time>
      </trkpt>
      <trkpt lat="48.49782" lon="-2.77814">
        <ele>90</ele>
        <time>2022-09-04T06:19:50.000Z</time>
      </trkpt>
      <trkpt lat="48.49781" lon="-2.77818">
        <ele>90.199996948242</ele>
        <time>2022-09-04T06:19:51.000Z</time>
      </trkpt>
      <trkpt lat="48.49779" lon="-2.77822">
        <ele>91</ele>
        <time>2022-09-04T06:19:52.000Z</time>
      </trkpt>
      <trkpt lat="48.49777" lon="-2.77826">
        <ele>91.400001525879</ele>
        <time>2022-09-04T06:19:53.000Z</time>
      </trkpt>
      <trkpt lat="48.49775" lon="-2.7783">
        <ele>92</ele>
        <time>2022-09-04T06:19:54.000Z</time>
      </trkpt>
      <trkpt lat="48.49773" lon="-2.77834">
        <ele>92.199996948242</ele>
        <time>2022-09-04T06:19:55.000Z</time>
      </trkpt>
      <trkpt lat="48.4977" lon="-2.77838">
        <ele>92.599998474121</ele>
        <time>2022-09-04T06:19:56.000Z</time>
      </trkpt>
      <trkpt lat="48.49769" lon="-2.77842">
        <ele>92.599998474121</ele>
        <time>2022-09-04T06:19:57.000Z</time>
      </trkpt>
      <trkpt lat="48.49767" lon="-2.77846">
        <ele>92.800003051758</ele>
        <time>2022-09-04T06:19:58.000Z</time>
      </trkpt>
      <trkpt lat="48.49766" lon="-2.7785">
        <ele>93</ele>
        <time>2022-09-04T06:19:59.000Z</time>
      </trkpt>
      <trkpt lat="48.49764" lon="-2.77854">
        <ele>93</ele>
        <time>2022-09-04T06:20:00.000Z</time>
      </trkpt>
      <trkpt lat="48.49762" lon="-2.77857">
        <ele>93.199996948242</ele>
        <time>2022-09-04T06:20:01.000Z</time>
      </trkpt>
      <trkpt lat="48.49761" lon="-2.7786">
        <ele>93.400001525879</ele>
        <time>2022-09-04T06:20:02.000Z</time>
      </trkpt>
      <trkpt lat="48.49759" lon="-2.77862">
        <ele>93.599998474121</ele>
        <time>2022-09-04T06:20:03.000Z</time>
      </trkpt>
      <trkpt lat="48.49757" lon="-2.77865">
        <ele>93.599998474121</ele>
        <time>2022-09-04T06:20:04.000Z</time>
      </trkpt>
      <trkpt lat="48.49755" lon="-2.77867">
        <ele>94</ele>
        <time>2022-09-04T06:20:05.000Z</time>
      </trkpt>
      <trkpt lat="48.49753" lon="-2.77869">
        <ele>94.400001525879</ele>
        <time>2022-09-04T06:20:06.000Z</time>
      </trkpt>
      <trkpt lat="48.49752" lon="-2.77871">
        <ele>94.800003051758</ele>
        <time>2022-09-04T06:20:07.000Z</time>
      </trkpt>
      <trkpt lat="48.49751" lon="-2.77871">
        <ele>95</ele>
        <time>2022-09-04T06:20:08.000Z</time>
      </trkpt>
      <trkpt lat="48.49751" lon="-2.77871">
        <ele>95.199996948242</ele>
        <time>2022-09-04T06:20:09.000Z</time>
      </trkpt>
      <trkpt lat="48.4975" lon="-2.77872">
        <ele>95.400001525879</ele>
        <time>2022-09-04T06:20:10.000Z</time>
      </trkpt>
      <trkpt lat="48.4975" lon="-2.77872">
        <ele>95.400001525879</ele>
        <time>2022-09-04T06:20:11.000Z</time>
      </trkpt>
      <trkpt lat="48.4975" lon="-2.77873">
        <ele>95.599998474121</ele>
        <time>2022-09-04T06:20:12.000Z</time>
      </trkpt>
      <trkpt lat="48.49749" lon="-2.77875">
        <ele>95.599998474121</ele>
        <time>2022-09-04T06:20:13.000Z</time>
      </trkpt>
      <trkpt lat="48.49748" lon="-2.77877">
        <ele>96</ele>
        <time>2022-09-04T06:20:14.000Z</time>
      </trkpt>
      <trkpt lat="48.49747" lon="-2.77879">
        <ele>96</ele>
        <time>2022-09-04T06:20:15.000Z</time>
      </trkpt>
      <trkpt lat="48.49746" lon="-2.77882">
        <ele>96.400001525879</ele>
        <time>2022-09-04T06:20:16.000Z</time>
      </trkpt>
      <trkpt lat="48.49743" lon="-2.77886">
        <ele>96.400001525879</ele>
        <time>2022-09-04T06:20:17.000Z</time>
      </trkpt>
      <trkpt lat="48.49739" lon="-2.77891">
        <ele>96.400001525879</ele>
        <time>2022-09-04T06:20:18.000Z</time>
      </trkpt>
      <trkpt lat="48.49734" lon="-2.77897">
        <ele>96.400001525879</ele>
        <time>2022-09-04T06:20:19.000Z</time>
      </trkpt>
      <trkpt lat="48.4973" lon="-2.77902">
        <ele>96.199996948242</ele>
        <time>2022-09-04T06:20:20.000Z</time>
      </trkpt>
      <trkpt lat="48.49726" lon="-2.77905">
        <ele>96.199996948242</ele>
        <time>2022-09-04T06:20:21.000Z</time>
      </trkpt>
      <trkpt lat="48.49722" lon="-2.7791">
        <ele>96.199996948242</ele>
        <time>2022-09-04T06:20:22.000Z</time>
      </trkpt>
      <trkpt lat="48.49719" lon="-2.77915">
        <ele>96.199996948242</ele>
        <time>2022-09-04T06:20:23.000Z</time>
      </trkpt>
      <trkpt lat="48.49715" lon="-2.77919">
        <ele>96.199996948242</ele>
        <time>2022-09-04T06:20:24.000Z</time>
      </trkpt>
      <trkpt lat="48.49711" lon="-2.77923">
        <ele>96.199996948242</ele>
        <time>2022-09-04T06:20:25.000Z</time>
      </trkpt>
      <trkpt lat="48.49709" lon="-2.77926">
        <ele>96.199996948242</ele>
        <time>2022-09-04T06:20:26.000Z</time>
      </trkpt>
      <trkpt lat="48.49705" lon="-2.7793">
        <ele>96</ele>
        <time>2022-09-04T06:20:27.000Z</time>
      </trkpt>
      <trkpt lat="48.49701" lon="-2.77934">
        <ele>96</ele>
        <time>2022-09-04T06:20:28.000Z</time>
      </trkpt>
      <trkpt lat="48.49697" lon="-2.77938">
        <ele>95.599998474121</ele>
        <time>2022-09-04T06:20:29.000Z</time>
      </trkpt>
      <trkpt lat="48.49692" lon="-2.77943">
        <ele>95.599998474121</ele>
        <time>2022-09-04T06:20:30.000Z</time>
      </trkpt>
      <trkpt lat="48.49688" lon="-2.77947">
        <ele>95.400001525879</ele>
        <time>2022-09-04T06:20:31.000Z</time>
      </trkpt>
      <trkpt lat="48.49683" lon="-2.77948">
        <ele>95</ele>
        <time>2022-09-04T06:20:32.000Z</time>
      </trkpt>
      <trkpt lat="48.49677" lon="-2.77945">
        <ele>94.599998474121</ele>
        <time>2022-09-04T06:20:33.000Z</time>
      </trkpt>
      <trkpt lat="48.4967" lon="-2.77943">
        <ele>94.199996948242</ele>
        <time>2022-09-04T06:20:34.000Z</time>
      </trkpt>
      <trkpt lat="48.49663" lon="-2.77944">
        <ele>94</ele>
        <time>2022-09-04T06:20:35.000Z</time>
      </trkpt>
      <trkpt lat="48.49657" lon="-2.77948">
        <ele>93.400001525879</ele>
        <time>2022-09-04T06:20:36.000Z</time>
      </trkpt>
      <trkpt lat="48.49652" lon="-2.77953">
        <ele>92.800003051758</ele>
        <time>2022-09-04T06:20:37.000Z</time>
      </trkpt>
      <trkpt lat="48.49647" lon="-2.7796">
        <ele>91.599998474121</ele>
        <time>2022-09-04T06:20:38.000Z</time>
      </trkpt>
      <trkpt lat="48.49646" lon="-2.77967">
        <ele>91</ele>
        <time>2022-09-04T06:20:39.000Z</time>
      </trkpt>
      <trkpt lat="48.49643" lon="-2.77976">
        <ele>90.400001525879</ele>
        <time>2022-09-04T06:20:40.000Z</time>
      </trkpt>
      <trkpt lat="48.4964" lon="-2.77984">
        <ele>90</ele>
        <time>2022-09-04T06:20:41.000Z</time>
      </trkpt>
      <trkpt lat="48.49638" lon="-2.77992">
        <ele>89.800003051758</ele>
        <time>2022-09-04T06:20:42.000Z</time>
      </trkpt>
      <trkpt lat="48.49636" lon="-2.78">
        <ele>89.599998474121</ele>
        <time>2022-09-04T06:20:43.000Z</time>
      </trkpt>
      <trkpt lat="48.49635" lon="-2.78008">
        <ele>89.599998474121</ele>
        <time>2022-09-04T06:20:44.000Z</time>
      </trkpt>
      <trkpt lat="48.49632" lon="-2.78015">
        <ele>89.599998474121</ele>
        <time>2022-09-04T06:20:45.000Z</time>
      </trkpt>
      <trkpt lat="48.4963" lon="-2.78022">
        <ele>89.599998474121</ele>
        <time>2022-09-04T06:20:46.000Z</time>
      </trkpt>
      <trkpt lat="48.49617" lon="-2.78053">
        <ele>89.599998474121</ele>
        <time>2022-09-04T06:20:50.000Z</time>
      </trkpt>
      <trkpt lat="48.49614" lon="-2.78061">
        <ele>89.599998474121</ele>
        <time>2022-09-04T06:20:51.000Z</time>
      </trkpt>
      <trkpt lat="48.49612" lon="-2.78067">
        <ele>89.599998474121</ele>
        <time>2022-09-04T06:20:52.000Z</time>
      </trkpt>
      <trkpt lat="48.49609" lon="-2.78075">
        <ele>89.800003051758</ele>
        <time>2022-09-04T06:20:53.000Z</time>
      </trkpt>
      <trkpt lat="48.49606" lon="-2.78081">
        <ele>89.800003051758</ele>
        <time>2022-09-04T06:20:54.000Z</time>
      </trkpt>
      <trkpt lat="48.49604" lon="-2.78088">
        <ele>89.800003051758</ele>
        <time>2022-09-04T06:20:55.000Z</time>
      </trkpt>
      <trkpt lat="48.49602" lon="-2.78096">
        <ele>89.800003051758</ele>
        <time>2022-09-04T06:20:56.000Z</time>
      </trkpt>
      <trkpt lat="48.496" lon="-2.78103">
        <ele>90</ele>
        <time>2022-09-04T06:20:57.000Z</time>
      </trkpt>
      <trkpt lat="48.49598" lon="-2.7811">
        <ele>90</ele>
        <time>2022-09-04T06:20:58.000Z</time>
      </trkpt>
      <trkpt lat="48.49595" lon="-2.78122">
        <ele>90.400001525879</ele>
        <time>2022-09-04T06:21:00.000Z</time>
      </trkpt>
      <trkpt lat="48.49592" lon="-2.78134">
        <ele>90.599998474121</ele>
        <time>2022-09-04T06:21:02.000Z</time>
      </trkpt>
      <trkpt lat="48.49586" lon="-2.78167">
        <ele>91</ele>
        <time>2022-09-04T06:21:06.000Z</time>
      </trkpt>
      <trkpt lat="48.49584" lon="-2.78175">
        <ele>91.199996948242</ele>
        <time>2022-09-04T06:21:07.000Z</time>
      </trkpt>
      <trkpt lat="48.49582" lon="-2.78183">
        <ele>91.199996948242</ele>
        <time>2022-09-04T06:21:08.000Z</time>
      </trkpt>
      <trkpt lat="48.4958" lon="-2.7819">
        <ele>91.199996948242</ele>
        <time>2022-09-04T06:21:09.000Z</time>
      </trkpt>
      <trkpt lat="48.49577" lon="-2.78205">
        <ele>91.400001525879</ele>
        <time>2022-09-04T06:21:11.000Z</time>
      </trkpt>
      <trkpt lat="48.49575" lon="-2.78212">
        <ele>91.599998474121</ele>
        <time>2022-09-04T06:21:12.000Z</time>
      </trkpt>
      <trkpt lat="48.49574" lon="-2.78219">
        <ele>91.800003051758</ele>
        <time>2022-09-04T06:21:13.000Z</time>
      </trkpt>
      <trkpt lat="48.49563" lon="-2.78254">
        <ele>92.199996948242</ele>
        <time>2022-09-04T06:21:18.000Z</time>
      </trkpt>
      <trkpt lat="48.49561" lon="-2.7826">
        <ele>92.199996948242</ele>
        <time>2022-09-04T06:21:19.000Z</time>
      </trkpt>
      <trkpt lat="48.49558" lon="-2.78268">
        <ele>92.400001525879</ele>
        <time>2022-09-04T06:21:20.000Z</time>
      </trkpt>
      <trkpt lat="48.49553" lon="-2.78277">
        <ele>92.400001525879</ele>
        <time>2022-09-04T06:21:21.000Z</time>
      </trkpt>
      <trkpt lat="48.49551" lon="-2.78285">
        <ele>92.599998474121</ele>
        <time>2022-09-04T06:21:22.000Z</time>
      </trkpt>
      <trkpt lat="48.49548" lon="-2.78299">
        <ele>93</ele>
        <time>2022-09-04T06:21:24.000Z</time>
      </trkpt>
      <trkpt lat="48.49545" lon="-2.78305">
        <ele>93</ele>
        <time>2022-09-04T06:21:25.000Z</time>
      </trkpt>
      <trkpt lat="48.49538" lon="-2.78313">
        <ele>93.400001525879</ele>
        <time>2022-09-04T06:21:26.000Z</time>
      </trkpt>
      <trkpt lat="48.49535" lon="-2.78319">
        <ele>93.400001525879</ele>
        <time>2022-09-04T06:21:27.000Z</time>
      </trkpt>
      <trkpt lat="48.49533" lon="-2.78326">
        <ele>93.599998474121</ele>
        <time>2022-09-04T06:21:28.000Z</time>
      </trkpt>
      <trkpt lat="48.49529" lon="-2.78332">
        <ele>93.599998474121</ele>
        <time>2022-09-04T06:21:29.000Z</time>
      </trkpt>
      <trkpt lat="48.49524" lon="-2.78338">
        <ele>93.599998474121</ele>
        <time>2022-09-04T06:21:30.000Z</time>
      </trkpt>
      <trkpt lat="48.4952" lon="-2.78342">
        <ele>93.800003051758</ele>
        <time>2022-09-04T06:21:31.000Z</time>
      </trkpt>
      <trkpt lat="48.49517" lon="-2.78346">
        <ele>94</ele>
        <time>2022-09-04T06:21:32.000Z</time>
      </trkpt>
      <trkpt lat="48.49513" lon="-2.78351">
        <ele>94.599998474121</ele>
        <time>2022-09-04T06:21:33.000Z</time>
      </trkpt>
      <trkpt lat="48.49509" lon="-2.78356">
        <ele>94.800003051758</ele>
        <time>2022-09-04T06:21:34.000Z</time>
      </trkpt>
      <trkpt lat="48.49508" lon="-2.7836">
        <ele>95.199996948242</ele>
        <time>2022-09-04T06:21:35.000Z</time>
      </trkpt>
      <trkpt lat="48.49507" lon="-2.78363">
        <ele>95.199996948242</ele>
        <time>2022-09-04T06:21:36.000Z</time>
      </trkpt>
      <trkpt lat="48.49506" lon="-2.78366">
        <ele>95.599998474121</ele>
        <time>2022-09-04T06:21:37.000Z</time>
      </trkpt>
      <trkpt lat="48.49501" lon="-2.78371">
        <ele>95.599998474121</ele>
        <time>2022-09-04T06:21:38.000Z</time>
      </trkpt>
      <trkpt lat="48.49496" lon="-2.78376">
        <ele>96</ele>
        <time>2022-09-04T06:21:39.000Z</time>
      </trkpt>
      <trkpt lat="48.49491" lon="-2.7838">
        <ele>96.199996948242</ele>
        <time>2022-09-04T06:21:40.000Z</time>
      </trkpt>
      <trkpt lat="48.49485" lon="-2.78386">
        <ele>96.400001525879</ele>
        <time>2022-09-04T06:21:41.000Z</time>
      </trkpt>
      <trkpt lat="48.49481" lon="-2.7839">
        <ele>96.800003051758</ele>
        <time>2022-09-04T06:21:42.000Z</time>
      </trkpt>
      <trkpt lat="48.49475" lon="-2.78394">
        <ele>97</ele>
        <time>2022-09-04T06:21:43.000Z</time>
      </trkpt>
      <trkpt lat="48.49473" lon="-2.78397">
        <ele>97.199996948242</ele>
        <time>2022-09-04T06:21:44.000Z</time>
      </trkpt>
      <trkpt lat="48.4947" lon="-2.784">
        <ele>97.400001525879</ele>
        <time>2022-09-04T06:21:45.000Z</time>
      </trkpt>
      <trkpt lat="48.49466" lon="-2.78404">
        <ele>97.599998474121</ele>
        <time>2022-09-04T06:21:46.000Z</time>
      </trkpt>
      <trkpt lat="48.49462" lon="-2.78408">
        <ele>97.599998474121</ele>
        <time>2022-09-04T06:21:47.000Z</time>
      </trkpt>
      <trkpt lat="48.49458" lon="-2.78414">
        <ele>97.800003051758</ele>
        <time>2022-09-04T06:21:48.000Z</time>
      </trkpt>
      <trkpt lat="48.49455" lon="-2.78422">
        <ele>98</ele>
        <time>2022-09-04T06:21:49.000Z</time>
      </trkpt>
      <trkpt lat="48.49453" lon="-2.78429">
        <ele>98</ele>
        <time>2022-09-04T06:21:50.000Z</time>
      </trkpt>
      <trkpt lat="48.49451" lon="-2.78435">
        <ele>98</ele>
        <time>2022-09-04T06:21:51.000Z</time>
      </trkpt>
      <trkpt lat="48.49448" lon="-2.78445">
        <ele>98</ele>
        <time>2022-09-04T06:21:52.000Z</time>
      </trkpt>
      <trkpt lat="48.49445" lon="-2.78453">
        <ele>98.199996948242</ele>
        <time>2022-09-04T06:21:53.000Z</time>
      </trkpt>
      <trkpt lat="48.49442" lon="-2.78461">
        <ele>98.199996948242</ele>
        <time>2022-09-04T06:21:54.000Z</time>
      </trkpt>
      <trkpt lat="48.4944" lon="-2.78468">
        <ele>98.199996948242</ele>
        <time>2022-09-04T06:21:55.000Z</time>
      </trkpt>
      <trkpt lat="48.49437" lon="-2.78477">
        <ele>98.199996948242</ele>
        <time>2022-09-04T06:21:56.000Z</time>
      </trkpt>
      <trkpt lat="48.49433" lon="-2.78485">
        <ele>98.199996948242</ele>
        <time>2022-09-04T06:21:57.000Z</time>
      </trkpt>
      <trkpt lat="48.49429" lon="-2.78494">
        <ele>98.199996948242</ele>
        <time>2022-09-04T06:21:58.000Z</time>
      </trkpt>
      <trkpt lat="48.49426" lon="-2.785">
        <ele>98.199996948242</ele>
        <time>2022-09-04T06:21:59.000Z</time>
      </trkpt>
      <trkpt lat="48.49422" lon="-2.78507">
        <ele>98.199996948242</ele>
        <time>2022-09-04T06:22:00.000Z</time>
      </trkpt>
      <trkpt lat="48.4942" lon="-2.78511">
        <ele>98.199996948242</ele>
        <time>2022-09-04T06:22:01.000Z</time>
      </trkpt>
      <trkpt lat="48.49418" lon="-2.78516">
        <ele>98.199996948242</ele>
        <time>2022-09-04T06:22:02.000Z</time>
      </trkpt>
      <trkpt lat="48.49416" lon="-2.7852">
        <ele>98.199996948242</ele>
        <time>2022-09-04T06:22:03.000Z</time>
      </trkpt>
      <trkpt lat="48.49413" lon="-2.78526">
        <ele>98.400001525879</ele>
        <time>2022-09-04T06:22:04.000Z</time>
      </trkpt>
      <trkpt lat="48.49411" lon="-2.78532">
        <ele>98.400001525879</ele>
        <time>2022-09-04T06:22:05.000Z</time>
      </trkpt>
      <trkpt lat="48.49408" lon="-2.78538">
        <ele>98.599998474121</ele>
        <time>2022-09-04T06:22:06.000Z</time>
      </trkpt>
      <trkpt lat="48.49404" lon="-2.78544">
        <ele>98.599998474121</ele>
        <time>2022-09-04T06:22:07.000Z</time>
      </trkpt>
      <trkpt lat="48.494" lon="-2.7855">
        <ele>98.800003051758</ele>
        <time>2022-09-04T06:22:08.000Z</time>
      </trkpt>
      <trkpt lat="48.49397" lon="-2.78555">
        <ele>98.800003051758</ele>
        <time>2022-09-04T06:22:09.000Z</time>
      </trkpt>
      <trkpt lat="48.49391" lon="-2.78562">
        <ele>98.800003051758</ele>
        <time>2022-09-04T06:22:10.000Z</time>
      </trkpt>
      <trkpt lat="48.49386" lon="-2.78568">
        <ele>98.599998474121</ele>
        <time>2022-09-04T06:22:11.000Z</time>
      </trkpt>
      <trkpt lat="48.49373" lon="-2.78588">
        <ele>98.800003051758</ele>
        <time>2022-09-04T06:22:13.000Z</time>
      </trkpt>
      <trkpt lat="48.49367" lon="-2.786">
        <ele>99</ele>
        <time>2022-09-04T06:22:15.000Z</time>
      </trkpt>
      <trkpt lat="48.49365" lon="-2.78606">
        <ele>99</ele>
        <time>2022-09-04T06:22:16.000Z</time>
      </trkpt>
      <trkpt lat="48.49362" lon="-2.78614">
        <ele>99.199996948242</ele>
        <time>2022-09-04T06:22:17.000Z</time>
      </trkpt>
      <trkpt lat="48.49357" lon="-2.78621">
        <ele>99.199996948242</ele>
        <time>2022-09-04T06:22:18.000Z</time>
      </trkpt>
      <trkpt lat="48.49356" lon="-2.78626">
        <ele>99.400001525879</ele>
        <time>2022-09-04T06:22:19.000Z</time>
      </trkpt>
      <trkpt lat="48.49355" lon="-2.78631">
        <ele>99.400001525879</ele>
        <time>2022-09-04T06:22:20.000Z</time>
      </trkpt>
      <trkpt lat="48.49353" lon="-2.78634">
        <ele>99.800003051758</ele>
        <time>2022-09-04T06:22:21.000Z</time>
      </trkpt>
      <trkpt lat="48.49352" lon="-2.7864">
        <ele>99.800003051758</ele>
        <time>2022-09-04T06:22:22.000Z</time>
      </trkpt>
      <trkpt lat="48.49351" lon="-2.78645">
        <ele>100</ele>
        <time>2022-09-04T06:22:23.000Z</time>
      </trkpt>
      <trkpt lat="48.4935" lon="-2.78651">
        <ele>100</ele>
        <time>2022-09-04T06:22:24.000Z</time>
      </trkpt>
      <trkpt lat="48.49349" lon="-2.78655">
        <ele>100.19999694824</ele>
        <time>2022-09-04T06:22:25.000Z</time>
      </trkpt>
      <trkpt lat="48.49346" lon="-2.78659">
        <ele>100.40000152588</ele>
        <time>2022-09-04T06:22:26.000Z</time>
      </trkpt>
      <trkpt lat="48.49342" lon="-2.78661">
        <ele>100.40000152588</ele>
        <time>2022-09-04T06:22:27.000Z</time>
      </trkpt>
      <trkpt lat="48.4934" lon="-2.7866">
        <ele>100.80000305176</ele>
        <time>2022-09-04T06:22:28.000Z</time>
      </trkpt>
      <trkpt lat="48.49338" lon="-2.78658">
        <ele>101</ele>
        <time>2022-09-04T06:22:29.000Z</time>
      </trkpt>
      <trkpt lat="48.49338" lon="-2.78654">
        <ele>101.59999847412</ele>
        <time>2022-09-04T06:22:30.000Z</time>
      </trkpt>
      <trkpt lat="48.49337" lon="-2.78651">
        <ele>101.80000305176</ele>
        <time>2022-09-04T06:22:31.000Z</time>
      </trkpt>
      <trkpt lat="48.49337" lon="-2.78649">
        <ele>102.19999694824</ele>
        <time>2022-09-04T06:22:32.000Z</time>
      </trkpt>
      <trkpt lat="48.49336" lon="-2.78645">
        <ele>102.19999694824</ele>
        <time>2022-09-04T06:22:33.000Z</time>
      </trkpt>
      <trkpt lat="48.49336" lon="-2.78642">
        <ele>102.40000152588</ele>
        <time>2022-09-04T06:22:34.000Z</time>
      </trkpt>
      <trkpt lat="48.49335" lon="-2.78639">
        <ele>102.40000152588</ele>
        <time>2022-09-04T06:22:35.000Z</time>
      </trkpt>
      <trkpt lat="48.49335" lon="-2.78636">
        <ele>103</ele>
        <time>2022-09-04T06:22:36.000Z</time>
      </trkpt>
      <trkpt lat="48.49334" lon="-2.78633">
        <ele>103</ele>
        <time>2022-09-04T06:22:37.000Z</time>
      </trkpt>
      <trkpt lat="48.49333" lon="-2.78631">
        <ele>103.59999847412</ele>
        <time>2022-09-04T06:22:38.000Z</time>
      </trkpt>
      <trkpt lat="48.49331" lon="-2.78629">
        <ele>104.19999694824</ele>
        <time>2022-09-04T06:22:39.000Z</time>
      </trkpt>
      <trkpt lat="48.49331" lon="-2.78628">
        <ele>104.59999847412</ele>
        <time>2022-09-04T06:22:40.000Z</time>
      </trkpt>
      <trkpt lat="48.4933" lon="-2.78627">
        <ele>105.19999694824</ele>
        <time>2022-09-04T06:22:41.000Z</time>
      </trkpt>
      <trkpt lat="48.49328" lon="-2.78627">
        <ele>105.40000152588</ele>
        <time>2022-09-04T06:22:42.000Z</time>
      </trkpt>
      <trkpt lat="48.49326" lon="-2.78626">
        <ele>106.19999694824</ele>
        <time>2022-09-04T06:22:43.000Z</time>
      </trkpt>
      <trkpt lat="48.49324" lon="-2.78627">
        <ele>106.80000305176</ele>
        <time>2022-09-04T06:22:44.000Z</time>
      </trkpt>
      <trkpt lat="48.49321" lon="-2.7863">
        <ele>107.19999694824</ele>
        <time>2022-09-04T06:22:45.000Z</time>
      </trkpt>
      <trkpt lat="48.4932" lon="-2.78634">
        <ele>107.40000152588</ele>
        <time>2022-09-04T06:22:46.000Z</time>
      </trkpt>
      <trkpt lat="48.49319" lon="-2.78639">
        <ele>107.59999847412</ele>
        <time>2022-09-04T06:22:47.000Z</time>
      </trkpt>
      <trkpt lat="48.49318" lon="-2.78645">
        <ele>107.80000305176</ele>
        <time>2022-09-04T06:22:48.000Z</time>
      </trkpt>
      <trkpt lat="48.49317" lon="-2.7865">
        <ele>107.80000305176</ele>
        <time>2022-09-04T06:22:49.000Z</time>
      </trkpt>
      <trkpt lat="48.49317" lon="-2.78654">
        <ele>108</ele>
        <time>2022-09-04T06:22:50.000Z</time>
      </trkpt>
      <trkpt lat="48.49316" lon="-2.7866">
        <ele>108</ele>
        <time>2022-09-04T06:22:51.000Z</time>
      </trkpt>
      <trkpt lat="48.49315" lon="-2.78664">
        <ele>108</ele>
        <time>2022-09-04T06:22:52.000Z</time>
      </trkpt>
      <trkpt lat="48.49314" lon="-2.78667">
        <ele>108</ele>
        <time>2022-09-04T06:22:53.000Z</time>
      </trkpt>
      <trkpt lat="48.49313" lon="-2.7867">
        <ele>108</ele>
        <time>2022-09-04T06:22:54.000Z</time>
      </trkpt>
      <trkpt lat="48.49312" lon="-2.78674">
        <ele>108</ele>
        <time>2022-09-04T06:22:55.000Z</time>
      </trkpt>
      <trkpt lat="48.49311" lon="-2.78679">
        <ele>108</ele>
        <time>2022-09-04T06:22:56.000Z</time>
      </trkpt>
      <trkpt lat="48.4931" lon="-2.78683">
        <ele>107.80000305176</ele>
        <time>2022-09-04T06:22:57.000Z</time>
      </trkpt>
      <trkpt lat="48.49309" lon="-2.78688">
        <ele>107.80000305176</ele>
        <time>2022-09-04T06:22:58.000Z</time>
      </trkpt>
      <trkpt lat="48.49308" lon="-2.78693">
        <ele>107.80000305176</ele>
        <time>2022-09-04T06:22:59.000Z</time>
      </trkpt>
      <trkpt lat="48.49305" lon="-2.787">
        <ele>107.80000305176</ele>
        <time>2022-09-04T06:23:00.000Z</time>
      </trkpt>
      <trkpt lat="48.49303" lon="-2.78704">
        <ele>107.40000152588</ele>
        <time>2022-09-04T06:23:01.000Z</time>
      </trkpt>
      <trkpt lat="48.49301" lon="-2.78706">
        <ele>107.40000152588</ele>
        <time>2022-09-04T06:23:02.000Z</time>
      </trkpt>
      <trkpt lat="48.49298" lon="-2.78708">
        <ele>107.19999694824</ele>
        <time>2022-09-04T06:23:03.000Z</time>
      </trkpt>
      <trkpt lat="48.49295" lon="-2.78709">
        <ele>107.19999694824</ele>
        <time>2022-09-04T06:23:04.000Z</time>
      </trkpt>
      <trkpt lat="48.49293" lon="-2.78711">
        <ele>106.59999847412</ele>
        <time>2022-09-04T06:23:05.000Z</time>
      </trkpt>
      <trkpt lat="48.49291" lon="-2.78713">
        <ele>106.40000152588</ele>
        <time>2022-09-04T06:23:06.000Z</time>
      </trkpt>
      <trkpt lat="48.4929" lon="-2.78717">
        <ele>106.19999694824</ele>
        <time>2022-09-04T06:23:07.000Z</time>
      </trkpt>
      <trkpt lat="48.49288" lon="-2.78723">
        <ele>106.19999694824</ele>
        <time>2022-09-04T06:23:08.000Z</time>
      </trkpt>
      <trkpt lat="48.49285" lon="-2.7873">
        <ele>106</ele>
        <time>2022-09-04T06:23:09.000Z</time>
      </trkpt>
      <trkpt lat="48.49282" lon="-2.78737">
        <ele>105.80000305176</ele>
        <time>2022-09-04T06:23:10.000Z</time>
      </trkpt>
      <trkpt lat="48.49273" lon="-2.78749">
        <ele>105.19999694824</ele>
        <time>2022-09-04T06:23:12.000Z</time>
      </trkpt>
      <trkpt lat="48.49268" lon="-2.78753">
        <ele>105.19999694824</ele>
        <time>2022-09-04T06:23:13.000Z</time>
      </trkpt>
      <trkpt lat="48.49263" lon="-2.78758">
        <ele>105</ele>
        <time>2022-09-04T06:23:14.000Z</time>
      </trkpt>
      <trkpt lat="48.49258" lon="-2.78762">
        <ele>104.80000305176</ele>
        <time>2022-09-04T06:23:15.000Z</time>
      </trkpt>
      <trkpt lat="48.49252" lon="-2.78766">
        <ele>104.59999847412</ele>
        <time>2022-09-04T06:23:16.000Z</time>
      </trkpt>
      <trkpt lat="48.49247" lon="-2.7877">
        <ele>104.40000152588</ele>
        <time>2022-09-04T06:23:17.000Z</time>
      </trkpt>
      <trkpt lat="48.49242" lon="-2.78773">
        <ele>104.19999694824</ele>
        <time>2022-09-04T06:23:18.000Z</time>
      </trkpt>
      <trkpt lat="48.49237" lon="-2.78775">
        <ele>104.19999694824</ele>
        <time>2022-09-04T06:23:19.000Z</time>
      </trkpt>
      <trkpt lat="48.49233" lon="-2.78777">
        <ele>104</ele>
        <time>2022-09-04T06:23:20.000Z</time>
      </trkpt>
      <trkpt lat="48.4923" lon="-2.78778">
        <ele>104.19999694824</ele>
        <time>2022-09-04T06:23:21.000Z</time>
      </trkpt>
      <trkpt lat="48.49226" lon="-2.78779">
        <ele>104.19999694824</ele>
        <time>2022-09-04T06:23:22.000Z</time>
      </trkpt>
      <trkpt lat="48.49224" lon="-2.78781">
        <ele>104.19999694824</ele>
        <time>2022-09-04T06:23:23.000Z</time>
      </trkpt>
      <trkpt lat="48.49213" lon="-2.78791">
        <ele>105.40000152588</ele>
        <time>2022-09-04T06:23:26.000Z</time>
      </trkpt>
      <trkpt lat="48.49208" lon="-2.78794">
        <ele>106</ele>
        <time>2022-09-04T06:23:27.000Z</time>
      </trkpt>
      <trkpt lat="48.49202" lon="-2.78796">
        <ele>106</ele>
        <time>2022-09-04T06:23:28.000Z</time>
      </trkpt>
      <trkpt lat="48.49195" lon="-2.78798">
        <ele>106.19999694824</ele>
        <time>2022-09-04T06:23:29.000Z</time>
      </trkpt>
      <trkpt lat="48.49189" lon="-2.78802">
        <ele>106.40000152588</ele>
        <time>2022-09-04T06:23:30.000Z</time>
      </trkpt>
      <trkpt lat="48.49184" lon="-2.78804">
        <ele>106.40000152588</ele>
        <time>2022-09-04T06:23:31.000Z</time>
      </trkpt>
      <trkpt lat="48.49181" lon="-2.78806">
        <ele>106.40000152588</ele>
        <time>2022-09-04T06:23:32.000Z</time>
      </trkpt>
      <trkpt lat="48.49177" lon="-2.78807">
        <ele>106.59999847412</ele>
        <time>2022-09-04T06:23:33.000Z</time>
      </trkpt>
      <trkpt lat="48.49174" lon="-2.78808">
        <ele>106.59999847412</ele>
        <time>2022-09-04T06:23:34.000Z</time>
      </trkpt>
      <trkpt lat="48.49168" lon="-2.7881">
        <ele>106.59999847412</ele>
        <time>2022-09-04T06:23:35.000Z</time>
      </trkpt>
      <trkpt lat="48.49158" lon="-2.78816">
        <ele>107.19999694824</ele>
        <time>2022-09-04T06:23:37.000Z</time>
      </trkpt>
      <trkpt lat="48.49153" lon="-2.78816">
        <ele>107.59999847412</ele>
        <time>2022-09-04T06:23:38.000Z</time>
      </trkpt>
      <trkpt lat="48.49147" lon="-2.78818">
        <ele>107.59999847412</ele>
        <time>2022-09-04T06:23:39.000Z</time>
      </trkpt>
      <trkpt lat="48.49128" lon="-2.78828">
        <ele>107.59999847412</ele>
        <time>2022-09-04T06:23:43.000Z</time>
      </trkpt>
      <trkpt lat="48.49124" lon="-2.78831">
        <ele>107.80000305176</ele>
        <time>2022-09-04T06:23:44.000Z</time>
      </trkpt>
      <trkpt lat="48.49121" lon="-2.78833">
        <ele>108</ele>
        <time>2022-09-04T06:23:45.000Z</time>
      </trkpt>
      <trkpt lat="48.49115" lon="-2.78833">
        <ele>108</ele>
        <time>2022-09-04T06:23:46.000Z</time>
      </trkpt>
      <trkpt lat="48.49111" lon="-2.78832">
        <ele>108</ele>
        <time>2022-09-04T06:23:47.000Z</time>
      </trkpt>
      <trkpt lat="48.49107" lon="-2.78832">
        <ele>108.19999694824</ele>
        <time>2022-09-04T06:23:48.000Z</time>
      </trkpt>
      <trkpt lat="48.49104" lon="-2.78833">
        <ele>108.19999694824</ele>
        <time>2022-09-04T06:23:49.000Z</time>
      </trkpt>
      <trkpt lat="48.491" lon="-2.78834">
        <ele>108.59999847412</ele>
        <time>2022-09-04T06:23:50.000Z</time>
      </trkpt>
      <trkpt lat="48.49097" lon="-2.78835">
        <ele>108.80000305176</ele>
        <time>2022-09-04T06:23:51.000Z</time>
      </trkpt>
      <trkpt lat="48.49093" lon="-2.78836">
        <ele>109</ele>
        <time>2022-09-04T06:23:52.000Z</time>
      </trkpt>
      <trkpt lat="48.4909" lon="-2.78836">
        <ele>109.40000152588</ele>
        <time>2022-09-04T06:23:53.000Z</time>
      </trkpt>
      <trkpt lat="48.49087" lon="-2.78837">
        <ele>109.40000152588</ele>
        <time>2022-09-04T06:23:54.000Z</time>
      </trkpt>
      <trkpt lat="48.49083" lon="-2.78838">
        <ele>109.59999847412</ele>
        <time>2022-09-04T06:23:55.000Z</time>
      </trkpt>
      <trkpt lat="48.49079" lon="-2.78838">
        <ele>109.80000305176</ele>
        <time>2022-09-04T06:23:56.000Z</time>
      </trkpt>
      <trkpt lat="48.49076" lon="-2.78837">
        <ele>110</ele>
        <time>2022-09-04T06:23:57.000Z</time>
      </trkpt>
      <trkpt lat="48.49073" lon="-2.78836">
        <ele>110.19999694824</ele>
        <time>2022-09-04T06:23:58.000Z</time>
      </trkpt>
      <trkpt lat="48.49071" lon="-2.78835">
        <ele>110.40000152588</ele>
        <time>2022-09-04T06:23:59.000Z</time>
      </trkpt>
      <trkpt lat="48.49069" lon="-2.78836">
        <ele>110.59999847412</ele>
        <time>2022-09-04T06:24:00.000Z</time>
      </trkpt>
      <trkpt lat="48.49068" lon="-2.78837">
        <ele>111</ele>
        <time>2022-09-04T06:24:01.000Z</time>
      </trkpt>
      <trkpt lat="48.49066" lon="-2.78841">
        <ele>111.40000152588</ele>
        <time>2022-09-04T06:24:02.000Z</time>
      </trkpt>
      <trkpt lat="48.49065" lon="-2.78848">
        <ele>111.59999847412</ele>
        <time>2022-09-04T06:24:03.000Z</time>
      </trkpt>
      <trkpt lat="48.49062" lon="-2.78855">
        <ele>111.80000305176</ele>
        <time>2022-09-04T06:24:04.000Z</time>
      </trkpt>
      <trkpt lat="48.49057" lon="-2.78861">
        <ele>111.80000305176</ele>
        <time>2022-09-04T06:24:05.000Z</time>
      </trkpt>
      <trkpt lat="48.49052" lon="-2.78864">
        <ele>111.80000305176</ele>
        <time>2022-09-04T06:24:06.000Z</time>
      </trkpt>
      <trkpt lat="48.49048" lon="-2.78866">
        <ele>111.80000305176</ele>
        <time>2022-09-04T06:24:07.000Z</time>
      </trkpt>
      <trkpt lat="48.49044" lon="-2.78868">
        <ele>111.19999694824</ele>
        <time>2022-09-04T06:24:08.000Z</time>
      </trkpt>
      <trkpt lat="48.4904" lon="-2.78868">
        <ele>110.80000305176</ele>
        <time>2022-09-04T06:24:09.000Z</time>
      </trkpt>
      <trkpt lat="48.49037" lon="-2.78868">
        <ele>110.40000152588</ele>
        <time>2022-09-04T06:24:10.000Z</time>
      </trkpt>
      <trkpt lat="48.49034" lon="-2.78868">
        <ele>110.40000152588</ele>
        <time>2022-09-04T06:24:11.000Z</time>
      </trkpt>
      <trkpt lat="48.4903" lon="-2.78868">
        <ele>110.40000152588</ele>
        <time>2022-09-04T06:24:12.000Z</time>
      </trkpt>
      <trkpt lat="48.49027" lon="-2.78866">
        <ele>110.19999694824</ele>
        <time>2022-09-04T06:24:13.000Z</time>
      </trkpt>
      <trkpt lat="48.49024" lon="-2.78865">
        <ele>110.40000152588</ele>
        <time>2022-09-04T06:24:14.000Z</time>
      </trkpt>
      <trkpt lat="48.49021" lon="-2.78865">
        <ele>110.40000152588</ele>
        <time>2022-09-04T06:24:15.000Z</time>
      </trkpt>
      <trkpt lat="48.49017" lon="-2.78864">
        <ele>110.59999847412</ele>
        <time>2022-09-04T06:24:16.000Z</time>
      </trkpt>
      <trkpt lat="48.49014" lon="-2.78863">
        <ele>111.19999694824</ele>
        <time>2022-09-04T06:24:17.000Z</time>
      </trkpt>
      <trkpt lat="48.49011" lon="-2.78862">
        <ele>111.59999847412</ele>
        <time>2022-09-04T06:24:18.000Z</time>
      </trkpt>
      <trkpt lat="48.49004" lon="-2.78863">
        <ele>112.59999847412</ele>
        <time>2022-09-04T06:24:20.000Z</time>
      </trkpt>
      <trkpt lat="48.49002" lon="-2.78863">
        <ele>113</ele>
        <time>2022-09-04T06:24:21.000Z</time>
      </trkpt>
      <trkpt lat="48.49" lon="-2.78862">
        <ele>113.40000152588</ele>
        <time>2022-09-04T06:24:22.000Z</time>
      </trkpt>
      <trkpt lat="48.48996" lon="-2.78863">
        <ele>113.59999847412</ele>
        <time>2022-09-04T06:24:23.000Z</time>
      </trkpt>
      <trkpt lat="48.48995" lon="-2.78865">
        <ele>114</ele>
        <time>2022-09-04T06:24:24.000Z</time>
      </trkpt>
      <trkpt lat="48.48994" lon="-2.78868">
        <ele>114.19999694824</ele>
        <time>2022-09-04T06:24:25.000Z</time>
      </trkpt>
      <trkpt lat="48.48993" lon="-2.78872">
        <ele>114.59999847412</ele>
        <time>2022-09-04T06:24:26.000Z</time>
      </trkpt>
      <trkpt lat="48.48991" lon="-2.78876">
        <ele>114.80000305176</ele>
        <time>2022-09-04T06:24:27.000Z</time>
      </trkpt>
      <trkpt lat="48.48988" lon="-2.78879">
        <ele>115</ele>
        <time>2022-09-04T06:24:28.000Z</time>
      </trkpt>
      <trkpt lat="48.48984" lon="-2.78882">
        <ele>115.19999694824</ele>
        <time>2022-09-04T06:24:29.000Z</time>
      </trkpt>
      <trkpt lat="48.48981" lon="-2.78884">
        <ele>115.19999694824</ele>
        <time>2022-09-04T06:24:30.000Z</time>
      </trkpt>
      <trkpt lat="48.48978" lon="-2.78887">
        <ele>115.40000152588</ele>
        <time>2022-09-04T06:24:31.000Z</time>
      </trkpt>
      <trkpt lat="48.48975" lon="-2.78889">
        <ele>115.40000152588</ele>
        <time>2022-09-04T06:24:32.000Z</time>
      </trkpt>
      <trkpt lat="48.4897" lon="-2.78892">
        <ele>115.59999847412</ele>
        <time>2022-09-04T06:24:33.000Z</time>
      </trkpt>
      <trkpt lat="48.48966" lon="-2.78895">
        <ele>115.40000152588</ele>
        <time>2022-09-04T06:24:34.000Z</time>
      </trkpt>
      <trkpt lat="48.48961" lon="-2.78899">
        <ele>115.19999694824</ele>
        <time>2022-09-04T06:24:35.000Z</time>
      </trkpt>
      <trkpt lat="48.48957" lon="-2.78903">
        <ele>115.40000152588</ele>
        <time>2022-09-04T06:24:36.000Z</time>
      </trkpt>
      <trkpt lat="48.48953" lon="-2.78907">
        <ele>115.59999847412</ele>
        <time>2022-09-04T06:24:37.000Z</time>
      </trkpt>
      <trkpt lat="48.48949" lon="-2.78911">
        <ele>115.59999847412</ele>
        <time>2022-09-04T06:24:38.000Z</time>
      </trkpt>
      <trkpt lat="48.48944" lon="-2.78916">
        <ele>115.40000152588</ele>
        <time>2022-09-04T06:24:39.000Z</time>
      </trkpt>
      <trkpt lat="48.4894" lon="-2.7892">
        <ele>115.40000152588</ele>
        <time>2022-09-04T06:24:40.000Z</time>
      </trkpt>
      <trkpt lat="48.48936" lon="-2.78924">
        <ele>115.40000152588</ele>
        <time>2022-09-04T06:24:41.000Z</time>
      </trkpt>
      <trkpt lat="48.48931" lon="-2.78928">
        <ele>115.40000152588</ele>
        <time>2022-09-04T06:24:42.000Z</time>
      </trkpt>
      <trkpt lat="48.48926" lon="-2.78931">
        <ele>115.59999847412</ele>
        <time>2022-09-04T06:24:43.000Z</time>
      </trkpt>
      <trkpt lat="48.48922" lon="-2.78935">
        <ele>115.59999847412</ele>
        <time>2022-09-04T06:24:44.000Z</time>
      </trkpt>
      <trkpt lat="48.48918" lon="-2.7894">
        <ele>115.59999847412</ele>
        <time>2022-09-04T06:24:45.000Z</time>
      </trkpt>
      <trkpt lat="48.48914" lon="-2.78944">
        <ele>115.59999847412</ele>
        <time>2022-09-04T06:24:46.000Z</time>
      </trkpt>
      <trkpt lat="48.4891" lon="-2.78949">
        <ele>115.59999847412</ele>
        <time>2022-09-04T06:24:47.000Z</time>
      </trkpt>
      <trkpt lat="48.48905" lon="-2.78953">
        <ele>115.80000305176</ele>
        <time>2022-09-04T06:24:48.000Z</time>
      </trkpt>
      <trkpt lat="48.48901" lon="-2.78957">
        <ele>115.80000305176</ele>
        <time>2022-09-04T06:24:49.000Z</time>
      </trkpt>
      <trkpt lat="48.48897" lon="-2.7896">
        <ele>115.80000305176</ele>
        <time>2022-09-04T06:24:50.000Z</time>
      </trkpt>
      <trkpt lat="48.48893" lon="-2.78963">
        <ele>115.80000305176</ele>
        <time>2022-09-04T06:24:51.000Z</time>
      </trkpt>
      <trkpt lat="48.48887" lon="-2.78967">
        <ele>115.80000305176</ele>
        <time>2022-09-04T06:24:52.000Z</time>
      </trkpt>
      <trkpt lat="48.48863" lon="-2.78985">
        <ele>115.59999847412</ele>
        <time>2022-09-04T06:24:57.000Z</time>
      </trkpt>
      <trkpt lat="48.48827" lon="-2.79014">
        <ele>114.80000305176</ele>
        <time>2022-09-04T06:25:04.000Z</time>
      </trkpt>
      <trkpt lat="48.48822" lon="-2.79018">
        <ele>114.59999847412</ele>
        <time>2022-09-04T06:25:05.000Z</time>
      </trkpt>
      <trkpt lat="48.48817" lon="-2.79021">
        <ele>114.59999847412</ele>
        <time>2022-09-04T06:25:06.000Z</time>
      </trkpt>
      <trkpt lat="48.48812" lon="-2.79025">
        <ele>114.59999847412</ele>
        <time>2022-09-04T06:25:07.000Z</time>
      </trkpt>
      <trkpt lat="48.48808" lon="-2.79028">
        <ele>114.59999847412</ele>
        <time>2022-09-04T06:25:08.000Z</time>
      </trkpt>
      <trkpt lat="48.48804" lon="-2.7903">
        <ele>114.59999847412</ele>
        <time>2022-09-04T06:25:09.000Z</time>
      </trkpt>
      <trkpt lat="48.488" lon="-2.79033">
        <ele>114.59999847412</ele>
        <time>2022-09-04T06:25:10.000Z</time>
      </trkpt>
      <trkpt lat="48.48797" lon="-2.79036">
        <ele>114.59999847412</ele>
        <time>2022-09-04T06:25:11.000Z</time>
      </trkpt>
      <trkpt lat="48.48792" lon="-2.79038">
        <ele>114.59999847412</ele>
        <time>2022-09-04T06:25:12.000Z</time>
      </trkpt>
      <trkpt lat="48.4878" lon="-2.79043">
        <ele>114.59999847412</ele>
        <time>2022-09-04T06:25:15.000Z</time>
      </trkpt>
      <trkpt lat="48.48778" lon="-2.79046">
        <ele>114.80000305176</ele>
        <time>2022-09-04T06:25:16.000Z</time>
      </trkpt>
      <trkpt lat="48.48775" lon="-2.79048">
        <ele>114.80000305176</ele>
        <time>2022-09-04T06:25:17.000Z</time>
      </trkpt>
      <trkpt lat="48.48772" lon="-2.79051">
        <ele>115</ele>
        <time>2022-09-04T06:25:18.000Z</time>
      </trkpt>
      <trkpt lat="48.4877" lon="-2.79055">
        <ele>115</ele>
        <time>2022-09-04T06:25:19.000Z</time>
      </trkpt>
      <trkpt lat="48.48758" lon="-2.79058">
        <ele>115</ele>
        <time>2022-09-04T06:25:22.000Z</time>
      </trkpt>
      <trkpt lat="48.48754" lon="-2.79059">
        <ele>115</ele>
        <time>2022-09-04T06:25:23.000Z</time>
      </trkpt>
      <trkpt lat="48.4875" lon="-2.79059">
        <ele>115.19999694824</ele>
        <time>2022-09-04T06:25:24.000Z</time>
      </trkpt>
      <trkpt lat="48.48742" lon="-2.79059">
        <ele>115.40000152588</ele>
        <time>2022-09-04T06:25:26.000Z</time>
      </trkpt>
      <trkpt lat="48.48739" lon="-2.79059">
        <ele>115.40000152588</ele>
        <time>2022-09-04T06:25:27.000Z</time>
      </trkpt>
      <trkpt lat="48.48737" lon="-2.79059">
        <ele>115.59999847412</ele>
        <time>2022-09-04T06:25:28.000Z</time>
      </trkpt>
      <trkpt lat="48.48734" lon="-2.79059">
        <ele>115.59999847412</ele>
        <time>2022-09-04T06:25:29.000Z</time>
      </trkpt>
      <trkpt lat="48.48733" lon="-2.79059">
        <ele>115.80000305176</ele>
        <time>2022-09-04T06:25:30.000Z</time>
      </trkpt>
      <trkpt lat="48.48731" lon="-2.79059">
        <ele>116.19999694824</ele>
        <time>2022-09-04T06:25:31.000Z</time>
      </trkpt>
      <trkpt lat="48.48728" lon="-2.7906">
        <ele>116.59999847412</ele>
        <time>2022-09-04T06:25:32.000Z</time>
      </trkpt>
      <trkpt lat="48.48727" lon="-2.79063">
        <ele>117</ele>
        <time>2022-09-04T06:25:33.000Z</time>
      </trkpt>
      <trkpt lat="48.48726" lon="-2.79066">
        <ele>118</ele>
        <time>2022-09-04T06:25:34.000Z</time>
      </trkpt>
      <trkpt lat="48.48725" lon="-2.79072">
        <ele>118.40000152588</ele>
        <time>2022-09-04T06:25:35.000Z</time>
      </trkpt>
      <trkpt lat="48.48723" lon="-2.79076">
        <ele>118.80000305176</ele>
        <time>2022-09-04T06:25:36.000Z</time>
      </trkpt>
      <trkpt lat="48.48721" lon="-2.7908">
        <ele>119</ele>
        <time>2022-09-04T06:25:37.000Z</time>
      </trkpt>
      <trkpt lat="48.48719" lon="-2.79084">
        <ele>119.19999694824</ele>
        <time>2022-09-04T06:25:38.000Z</time>
      </trkpt>
      <trkpt lat="48.48718" lon="-2.79088">
        <ele>119.19999694824</ele>
        <time>2022-09-04T06:25:39.000Z</time>
      </trkpt>
      <trkpt lat="48.48716" lon="-2.79093">
        <ele>119.19999694824</ele>
        <time>2022-09-04T06:25:40.000Z</time>
      </trkpt>
      <trkpt lat="48.48713" lon="-2.79099">
        <ele>119.19999694824</ele>
        <time>2022-09-04T06:25:41.000Z</time>
      </trkpt>
      <trkpt lat="48.4871" lon="-2.79103">
        <ele>119.19999694824</ele>
        <time>2022-09-04T06:25:42.000Z</time>
      </trkpt>
      <trkpt lat="48.48707" lon="-2.79107">
        <ele>119.19999694824</ele>
        <time>2022-09-04T06:25:43.000Z</time>
      </trkpt>
      <trkpt lat="48.48704" lon="-2.79112">
        <ele>119.19999694824</ele>
        <time>2022-09-04T06:25:44.000Z</time>
      </trkpt>
      <trkpt lat="48.48701" lon="-2.79116">
        <ele>119</ele>
        <time>2022-09-04T06:25:45.000Z</time>
      </trkpt>
      <trkpt lat="48.48699" lon="-2.7912">
        <ele>119</ele>
        <time>2022-09-04T06:25:46.000Z</time>
      </trkpt>
      <trkpt lat="48.48696" lon="-2.79123">
        <ele>119</ele>
        <time>2022-09-04T06:25:47.000Z</time>
      </trkpt>
      <trkpt lat="48.48693" lon="-2.79125">
        <ele>118.80000305176</ele>
        <time>2022-09-04T06:25:48.000Z</time>
      </trkpt>
      <trkpt lat="48.48689" lon="-2.79128">
        <ele>118.80000305176</ele>
        <time>2022-09-04T06:25:49.000Z</time>
      </trkpt>
      <trkpt lat="48.48683" lon="-2.79132">
        <ele>118.80000305176</ele>
        <time>2022-09-04T06:25:50.000Z</time>
      </trkpt>
      <trkpt lat="48.48678" lon="-2.79136">
        <ele>118.80000305176</ele>
        <time>2022-09-04T06:25:51.000Z</time>
      </trkpt>
      <trkpt lat="48.48672" lon="-2.7914">
        <ele>118.80000305176</ele>
        <time>2022-09-04T06:25:52.000Z</time>
      </trkpt>
      <trkpt lat="48.48668" lon="-2.79143">
        <ele>118.80000305176</ele>
        <time>2022-09-04T06:25:53.000Z</time>
      </trkpt>
      <trkpt lat="48.48663" lon="-2.79146">
        <ele>118.80000305176</ele>
        <time>2022-09-04T06:25:54.000Z</time>
      </trkpt>
      <trkpt lat="48.48659" lon="-2.7915">
        <ele>118.80000305176</ele>
        <time>2022-09-04T06:25:55.000Z</time>
      </trkpt>
      <trkpt lat="48.48653" lon="-2.79155">
        <ele>118.80000305176</ele>
        <time>2022-09-04T06:25:56.000Z</time>
      </trkpt>
      <trkpt lat="48.48646" lon="-2.79159">
        <ele>119</ele>
        <time>2022-09-04T06:25:57.000Z</time>
      </trkpt>
      <trkpt lat="48.48641" lon="-2.79163">
        <ele>119</ele>
        <time>2022-09-04T06:25:58.000Z</time>
      </trkpt>
      <trkpt lat="48.48635" lon="-2.79171">
        <ele>119</ele>
        <time>2022-09-04T06:26:00.000Z</time>
      </trkpt>
      <trkpt lat="48.4863" lon="-2.79176">
        <ele>119</ele>
        <time>2022-09-04T06:26:01.000Z</time>
      </trkpt>
      <trkpt lat="48.4861" lon="-2.79193">
        <ele>118.59999847412</ele>
        <time>2022-09-04T06:26:04.000Z</time>
      </trkpt>
      <trkpt lat="48.48605" lon="-2.79197">
        <ele>118.40000152588</ele>
        <time>2022-09-04T06:26:05.000Z</time>
      </trkpt>
      <trkpt lat="48.48589" lon="-2.7921">
        <ele>118.19999694824</ele>
        <time>2022-09-04T06:26:08.000Z</time>
      </trkpt>
      <trkpt lat="48.48578" lon="-2.79218">
        <ele>118.19999694824</ele>
        <time>2022-09-04T06:26:10.000Z</time>
      </trkpt>
      <trkpt lat="48.48574" lon="-2.7922">
        <ele>118.19999694824</ele>
        <time>2022-09-04T06:26:11.000Z</time>
      </trkpt>
      <trkpt lat="48.4857" lon="-2.79223">
        <ele>118.19999694824</ele>
        <time>2022-09-04T06:26:12.000Z</time>
      </trkpt>
      <trkpt lat="48.48568" lon="-2.79226">
        <ele>118.19999694824</ele>
        <time>2022-09-04T06:26:13.000Z</time>
      </trkpt>
      <trkpt lat="48.48567" lon="-2.79227">
        <ele>118.19999694824</ele>
        <time>2022-09-04T06:26:14.000Z</time>
      </trkpt>
      <trkpt lat="48.48566" lon="-2.79228">
        <ele>118.40000152588</ele>
        <time>2022-09-04T06:26:15.000Z</time>
      </trkpt>
      <trkpt lat="48.48566" lon="-2.79228">
        <ele>118.40000152588</ele>
        <time>2022-09-04T06:26:16.000Z</time>
      </trkpt>
      <trkpt lat="48.4856" lon="-2.7923">
        <ele>119</ele>
        <time>2022-09-04T06:26:18.000Z</time>
      </trkpt>
      <trkpt lat="48.48555" lon="-2.79231">
        <ele>119.80000305176</ele>
        <time>2022-09-04T06:26:19.000Z</time>
      </trkpt>
      <trkpt lat="48.4855" lon="-2.79235">
        <ele>120.19999694824</ele>
        <time>2022-09-04T06:26:20.000Z</time>
      </trkpt>
      <trkpt lat="48.48545" lon="-2.79237">
        <ele>120.80000305176</ele>
        <time>2022-09-04T06:26:21.000Z</time>
      </trkpt>
      <trkpt lat="48.48541" lon="-2.79239">
        <ele>121.59999847412</ele>
        <time>2022-09-04T06:26:23.000Z</time>
      </trkpt>
      <trkpt lat="48.48539" lon="-2.7924">
        <ele>121.80000305176</ele>
        <time>2022-09-04T06:26:24.000Z</time>
      </trkpt>
      <trkpt lat="48.48537" lon="-2.79242">
        <ele>122.19999694824</ele>
        <time>2022-09-04T06:26:25.000Z</time>
      </trkpt>
      <trkpt lat="48.48533" lon="-2.79244">
        <ele>122.80000305176</ele>
        <time>2022-09-04T06:26:26.000Z</time>
      </trkpt>
      <trkpt lat="48.48529" lon="-2.79245">
        <ele>123.19999694824</ele>
        <time>2022-09-04T06:26:27.000Z</time>
      </trkpt>
      <trkpt lat="48.48526" lon="-2.79248">
        <ele>123.80000305176</ele>
        <time>2022-09-04T06:26:28.000Z</time>
      </trkpt>
      <trkpt lat="48.48522" lon="-2.79249">
        <ele>124</ele>
        <time>2022-09-04T06:26:29.000Z</time>
      </trkpt>
      <trkpt lat="48.48518" lon="-2.7925">
        <ele>124.40000152588</ele>
        <time>2022-09-04T06:26:30.000Z</time>
      </trkpt>
      <trkpt lat="48.48514" lon="-2.79252">
        <ele>124.59999847412</ele>
        <time>2022-09-04T06:26:31.000Z</time>
      </trkpt>
      <trkpt lat="48.4851" lon="-2.79256">
        <ele>124.80000305176</ele>
        <time>2022-09-04T06:26:32.000Z</time>
      </trkpt>
      <trkpt lat="48.48507" lon="-2.79262">
        <ele>125</ele>
        <time>2022-09-04T06:26:33.000Z</time>
      </trkpt>
      <trkpt lat="48.48506" lon="-2.79269">
        <ele>125</ele>
        <time>2022-09-04T06:26:34.000Z</time>
      </trkpt>
      <trkpt lat="48.48503" lon="-2.79276">
        <ele>125</ele>
        <time>2022-09-04T06:26:35.000Z</time>
      </trkpt>
      <trkpt lat="48.48503" lon="-2.79282">
        <ele>125</ele>
        <time>2022-09-04T06:26:36.000Z</time>
      </trkpt>
      <trkpt lat="48.48501" lon="-2.79288">
        <ele>125</ele>
        <time>2022-09-04T06:26:37.000Z</time>
      </trkpt>
      <trkpt lat="48.48499" lon="-2.79294">
        <ele>124.80000305176</ele>
        <time>2022-09-04T06:26:38.000Z</time>
      </trkpt>
      <trkpt lat="48.48497" lon="-2.79302">
        <ele>124.59999847412</ele>
        <time>2022-09-04T06:26:39.000Z</time>
      </trkpt>
      <trkpt lat="48.48493" lon="-2.7931">
        <ele>124.59999847412</ele>
        <time>2022-09-04T06:26:40.000Z</time>
      </trkpt>
      <trkpt lat="48.48492" lon="-2.79316">
        <ele>124.59999847412</ele>
        <time>2022-09-04T06:26:41.000Z</time>
      </trkpt>
      <trkpt lat="48.48491" lon="-2.79322">
        <ele>124.59999847412</ele>
        <time>2022-09-04T06:26:42.000Z</time>
      </trkpt>
      <trkpt lat="48.48489" lon="-2.79331">
        <ele>124.40000152588</ele>
        <time>2022-09-04T06:26:43.000Z</time>
      </trkpt>
      <trkpt lat="48.48486" lon="-2.7934">
        <ele>124.40000152588</ele>
        <time>2022-09-04T06:26:44.000Z</time>
      </trkpt>
      <trkpt lat="48.48484" lon="-2.79346">
        <ele>124.19999694824</ele>
        <time>2022-09-04T06:26:45.000Z</time>
      </trkpt>
      <trkpt lat="48.48482" lon="-2.79349">
        <ele>124.19999694824</ele>
        <time>2022-09-04T06:26:46.000Z</time>
      </trkpt>
      <trkpt lat="48.48482" lon="-2.79352">
        <ele>124.19999694824</ele>
        <time>2022-09-04T06:26:47.000Z</time>
      </trkpt>
      <trkpt lat="48.48482" lon="-2.79355">
        <ele>124.19999694824</ele>
        <time>2022-09-04T06:26:48.000Z</time>
      </trkpt>
      <trkpt lat="48.48482" lon="-2.7936">
        <ele>124</ele>
        <time>2022-09-04T06:26:49.000Z</time>
      </trkpt>
      <trkpt lat="48.48484" lon="-2.79366">
        <ele>124</ele>
        <time>2022-09-04T06:26:50.000Z</time>
      </trkpt>
      <trkpt lat="48.48487" lon="-2.79375">
        <ele>124</ele>
        <time>2022-09-04T06:26:51.000Z</time>
      </trkpt>
      <trkpt lat="48.48487" lon="-2.79383">
        <ele>124</ele>
        <time>2022-09-04T06:26:52.000Z</time>
      </trkpt>
      <trkpt lat="48.48486" lon="-2.7939">
        <ele>124</ele>
        <time>2022-09-04T06:26:53.000Z</time>
      </trkpt>
      <trkpt lat="48.48486" lon="-2.79398">
        <ele>123.80000305176</ele>
        <time>2022-09-04T06:26:54.000Z</time>
      </trkpt>
      <trkpt lat="48.48482" lon="-2.79419">
        <ele>123.80000305176</ele>
        <time>2022-09-04T06:26:56.000Z</time>
      </trkpt>
      <trkpt lat="48.48482" lon="-2.79427">
        <ele>123.59999847412</ele>
        <time>2022-09-04T06:26:57.000Z</time>
      </trkpt>
      <trkpt lat="48.4848" lon="-2.79432">
        <ele>123.40000152588</ele>
        <time>2022-09-04T06:26:58.000Z</time>
      </trkpt>
      <trkpt lat="48.48479" lon="-2.79437">
        <ele>123</ele>
        <time>2022-09-04T06:26:59.000Z</time>
      </trkpt>
      <trkpt lat="48.48479" lon="-2.7944">
        <ele>122.80000305176</ele>
        <time>2022-09-04T06:27:00.000Z</time>
      </trkpt>
      <trkpt lat="48.48479" lon="-2.79444">
        <ele>122.40000152588</ele>
        <time>2022-09-04T06:27:01.000Z</time>
      </trkpt>
      <trkpt lat="48.48478" lon="-2.79447">
        <ele>122.40000152588</ele>
        <time>2022-09-04T06:27:02.000Z</time>
      </trkpt>
      <trkpt lat="48.48478" lon="-2.79452">
        <ele>122.19999694824</ele>
        <time>2022-09-04T06:27:03.000Z</time>
      </trkpt>
      <trkpt lat="48.48476" lon="-2.79461">
        <ele>122.19999694824</ele>
        <time>2022-09-04T06:27:05.000Z</time>
      </trkpt>
      <trkpt lat="48.48473" lon="-2.79465">
        <ele>122.19999694824</ele>
        <time>2022-09-04T06:27:06.000Z</time>
      </trkpt>
      <trkpt lat="48.48463" lon="-2.79465">
        <ele>122.59999847412</ele>
        <time>2022-09-04T06:27:09.000Z</time>
      </trkpt>
      <trkpt lat="48.48448" lon="-2.79464">
        <ele>123.19999694824</ele>
        <time>2022-09-04T06:27:14.000Z</time>
      </trkpt>
      <trkpt lat="48.48444" lon="-2.79464">
        <ele>123.19999694824</ele>
        <time>2022-09-04T06:27:15.000Z</time>
      </trkpt>
      <trkpt lat="48.48441" lon="-2.79464">
        <ele>123.80000305176</ele>
        <time>2022-09-04T06:27:16.000Z</time>
      </trkpt>
      <trkpt lat="48.48439" lon="-2.79463">
        <ele>123.80000305176</ele>
        <time>2022-09-04T06:27:17.000Z</time>
      </trkpt>
      <trkpt lat="48.48435" lon="-2.79463">
        <ele>124.40000152588</ele>
        <time>2022-09-04T06:27:18.000Z</time>
      </trkpt>
      <trkpt lat="48.48433" lon="-2.79464">
        <ele>124.80000305176</ele>
        <time>2022-09-04T06:27:19.000Z</time>
      </trkpt>
      <trkpt lat="48.48431" lon="-2.79464">
        <ele>125.40000152588</ele>
        <time>2022-09-04T06:27:20.000Z</time>
      </trkpt>
      <trkpt lat="48.48429" lon="-2.79464">
        <ele>126</ele>
        <time>2022-09-04T06:27:21.000Z</time>
      </trkpt>
      <trkpt lat="48.48423" lon="-2.79464">
        <ele>126.80000305176</ele>
        <time>2022-09-04T06:27:23.000Z</time>
      </trkpt>
      <trkpt lat="48.48419" lon="-2.79465">
        <ele>127</ele>
        <time>2022-09-04T06:27:24.000Z</time>
      </trkpt>
      <trkpt lat="48.48416" lon="-2.79466">
        <ele>127.40000152588</ele>
        <time>2022-09-04T06:27:25.000Z</time>
      </trkpt>
      <trkpt lat="48.48413" lon="-2.79467">
        <ele>127.59999847412</ele>
        <time>2022-09-04T06:27:26.000Z</time>
      </trkpt>
      <trkpt lat="48.4841" lon="-2.79468">
        <ele>128.19999694824</ele>
        <time>2022-09-04T06:27:27.000Z</time>
      </trkpt>
      <trkpt lat="48.48407" lon="-2.79469">
        <ele>128.39999389648</ele>
        <time>2022-09-04T06:27:28.000Z</time>
      </trkpt>
      <trkpt lat="48.48405" lon="-2.7947">
        <ele>128.80000305176</ele>
        <time>2022-09-04T06:27:29.000Z</time>
      </trkpt>
      <trkpt lat="48.48402" lon="-2.79471">
        <ele>129</ele>
        <time>2022-09-04T06:27:30.000Z</time>
      </trkpt>
      <trkpt lat="48.48399" lon="-2.79471">
        <ele>129.19999694824</ele>
        <time>2022-09-04T06:27:31.000Z</time>
      </trkpt>
      <trkpt lat="48.48396" lon="-2.79471">
        <ele>129.80000305176</ele>
        <time>2022-09-04T06:27:32.000Z</time>
      </trkpt>
      <trkpt lat="48.48393" lon="-2.79472">
        <ele>130.19999694824</ele>
        <time>2022-09-04T06:27:33.000Z</time>
      </trkpt>
      <trkpt lat="48.4839" lon="-2.79472">
        <ele>130.80000305176</ele>
        <time>2022-09-04T06:27:34.000Z</time>
      </trkpt>
      <trkpt lat="48.48387" lon="-2.79473">
        <ele>130.80000305176</ele>
        <time>2022-09-04T06:27:35.000Z</time>
      </trkpt>
      <trkpt lat="48.48384" lon="-2.79473">
        <ele>131.39999389648</ele>
        <time>2022-09-04T06:27:36.000Z</time>
      </trkpt>
      <trkpt lat="48.48381" lon="-2.79473">
        <ele>131.39999389648</ele>
        <time>2022-09-04T06:27:37.000Z</time>
      </trkpt>
      <trkpt lat="48.48377" lon="-2.79474">
        <ele>131.80000305176</ele>
        <time>2022-09-04T06:27:38.000Z</time>
      </trkpt>
      <trkpt lat="48.48372" lon="-2.79474">
        <ele>132</ele>
        <time>2022-09-04T06:27:39.000Z</time>
      </trkpt>
      <trkpt lat="48.48368" lon="-2.79473">
        <ele>132.39999389648</ele>
        <time>2022-09-04T06:27:40.000Z</time>
      </trkpt>
      <trkpt lat="48.48365" lon="-2.79471">
        <ele>132.39999389648</ele>
        <time>2022-09-04T06:27:41.000Z</time>
      </trkpt>
      <trkpt lat="48.48362" lon="-2.79467">
        <ele>132.60000610352</ele>
        <time>2022-09-04T06:27:42.000Z</time>
      </trkpt>
      <trkpt lat="48.4836" lon="-2.79462">
        <ele>132.60000610352</ele>
        <time>2022-09-04T06:27:43.000Z</time>
      </trkpt>
      <trkpt lat="48.48358" lon="-2.79456">
        <ele>132.80000305176</ele>
        <time>2022-09-04T06:27:44.000Z</time>
      </trkpt>
      <trkpt lat="48.48356" lon="-2.79449">
        <ele>132.80000305176</ele>
        <time>2022-09-04T06:27:45.000Z</time>
      </trkpt>
      <trkpt lat="48.48355" lon="-2.79445">
        <ele>132.80000305176</ele>
        <time>2022-09-04T06:27:46.000Z</time>
      </trkpt>
      <trkpt lat="48.48353" lon="-2.79439">
        <ele>133</ele>
        <time>2022-09-04T06:27:47.000Z</time>
      </trkpt>
      <trkpt lat="48.48352" lon="-2.79433">
        <ele>133</ele>
        <time>2022-09-04T06:27:48.000Z</time>
      </trkpt>
      <trkpt lat="48.48351" lon="-2.79427">
        <ele>133</ele>
        <time>2022-09-04T06:27:49.000Z</time>
      </trkpt>
      <trkpt lat="48.48349" lon="-2.79421">
        <ele>133</ele>
        <time>2022-09-04T06:27:50.000Z</time>
      </trkpt>
      <trkpt lat="48.48348" lon="-2.79416">
        <ele>133.19999694824</ele>
        <time>2022-09-04T06:27:51.000Z</time>
      </trkpt>
      <trkpt lat="48.48346" lon="-2.7941">
        <ele>133.19999694824</ele>
        <time>2022-09-04T06:27:52.000Z</time>
      </trkpt>
      <trkpt lat="48.48345" lon="-2.79404">
        <ele>133.19999694824</ele>
        <time>2022-09-04T06:27:53.000Z</time>
      </trkpt>
      <trkpt lat="48.48343" lon="-2.79398">
        <ele>133.39999389648</ele>
        <time>2022-09-04T06:27:54.000Z</time>
      </trkpt>
      <trkpt lat="48.48341" lon="-2.79392">
        <ele>133.80000305176</ele>
        <time>2022-09-04T06:27:55.000Z</time>
      </trkpt>
      <trkpt lat="48.4834" lon="-2.79387">
        <ele>134</ele>
        <time>2022-09-04T06:27:56.000Z</time>
      </trkpt>
      <trkpt lat="48.48338" lon="-2.7938">
        <ele>134</ele>
        <time>2022-09-04T06:27:57.000Z</time>
      </trkpt>
      <trkpt lat="48.48337" lon="-2.79374">
        <ele>134</ele>
        <time>2022-09-04T06:27:58.000Z</time>
      </trkpt>
      <trkpt lat="48.48336" lon="-2.79367">
        <ele>134</ele>
        <time>2022-09-04T06:27:59.000Z</time>
      </trkpt>
      <trkpt lat="48.48335" lon="-2.79361">
        <ele>134.39999389648</ele>
        <time>2022-09-04T06:28:00.000Z</time>
      </trkpt>
      <trkpt lat="48.48334" lon="-2.79355">
        <ele>134.39999389648</ele>
        <time>2022-09-04T06:28:01.000Z</time>
      </trkpt>
      <trkpt lat="48.48333" lon="-2.79349">
        <ele>134.39999389648</ele>
        <time>2022-09-04T06:28:02.000Z</time>
      </trkpt>
      <trkpt lat="48.48332" lon="-2.79342">
        <ele>134.39999389648</ele>
        <time>2022-09-04T06:28:03.000Z</time>
      </trkpt>
      <trkpt lat="48.48332" lon="-2.79335">
        <ele>134.60000610352</ele>
        <time>2022-09-04T06:28:04.000Z</time>
      </trkpt>
      <trkpt lat="48.48335" lon="-2.7933">
        <ele>134.60000610352</ele>
        <time>2022-09-04T06:28:05.000Z</time>
      </trkpt>
      <trkpt lat="48.48339" lon="-2.79327">
        <ele>135</ele>
        <time>2022-09-04T06:28:06.000Z</time>
      </trkpt>
      <trkpt lat="48.48344" lon="-2.79325">
        <ele>135.19999694824</ele>
        <time>2022-09-04T06:28:07.000Z</time>
      </trkpt>
      <trkpt lat="48.4835" lon="-2.79322">
        <ele>135.19999694824</ele>
        <time>2022-09-04T06:28:08.000Z</time>
      </trkpt>
      <trkpt lat="48.48354" lon="-2.79319">
        <ele>135.19999694824</ele>
        <time>2022-09-04T06:28:09.000Z</time>
      </trkpt>
      <trkpt lat="48.48359" lon="-2.79315">
        <ele>135.19999694824</ele>
        <time>2022-09-04T06:28:10.000Z</time>
      </trkpt>
      <trkpt lat="48.48364" lon="-2.79311">
        <ele>135.19999694824</ele>
        <time>2022-09-04T06:28:11.000Z</time>
      </trkpt>
      <trkpt lat="48.48369" lon="-2.79306">
        <ele>135.19999694824</ele>
        <time>2022-09-04T06:28:12.000Z</time>
      </trkpt>
      <trkpt lat="48.48375" lon="-2.79299">
        <ele>135.19999694824</ele>
        <time>2022-09-04T06:28:13.000Z</time>
      </trkpt>
      <trkpt lat="48.48379" lon="-2.79295">
        <ele>135.19999694824</ele>
        <time>2022-09-04T06:28:14.000Z</time>
      </trkpt>
      <trkpt lat="48.48385" lon="-2.79289">
        <ele>134.60000610352</ele>
        <time>2022-09-04T06:28:15.000Z</time>
      </trkpt>
      <trkpt lat="48.4839" lon="-2.79284">
        <ele>134.60000610352</ele>
        <time>2022-09-04T06:28:16.000Z</time>
      </trkpt>
      <trkpt lat="48.48396" lon="-2.79278">
        <ele>134.39999389648</ele>
        <time>2022-09-04T06:28:17.000Z</time>
      </trkpt>
      <trkpt lat="48.48413" lon="-2.79261">
        <ele>133.80000305176</ele>
        <time>2022-09-04T06:28:20.000Z</time>
      </trkpt>
      <trkpt lat="48.48464" lon="-2.7921">
        <ele>132.80000305176</ele>
        <time>2022-09-04T06:28:28.000Z</time>
      </trkpt>
      <trkpt lat="48.4847" lon="-2.79204">
        <ele>132.80000305176</ele>
        <time>2022-09-04T06:28:29.000Z</time>
      </trkpt>
      <trkpt lat="48.4852" lon="-2.79151">
        <ele>131.80000305176</ele>
        <time>2022-09-04T06:28:37.000Z</time>
      </trkpt>
      <trkpt lat="48.48539" lon="-2.79135">
        <ele>131.19999694824</ele>
        <time>2022-09-04T06:28:40.000Z</time>
      </trkpt>
      <trkpt lat="48.48545" lon="-2.7913">
        <ele>130.80000305176</ele>
        <time>2022-09-04T06:28:41.000Z</time>
      </trkpt>
      <trkpt lat="48.48548" lon="-2.79125">
        <ele>130.80000305176</ele>
        <time>2022-09-04T06:28:42.000Z</time>
      </trkpt>
      <trkpt lat="48.48549" lon="-2.79119">
        <ele>130.60000610352</ele>
        <time>2022-09-04T06:28:43.000Z</time>
      </trkpt>
      <trkpt lat="48.48546" lon="-2.79115">
        <ele>130.60000610352</ele>
        <time>2022-09-04T06:28:44.000Z</time>
      </trkpt>
      <trkpt lat="48.48543" lon="-2.79111">
        <ele>130.60000610352</ele>
        <time>2022-09-04T06:28:45.000Z</time>
      </trkpt>
      <trkpt lat="48.48524" lon="-2.79088">
        <ele>130.39999389648</ele>
        <time>2022-09-04T06:28:50.000Z</time>
      </trkpt>
      <trkpt lat="48.48498" lon="-2.79056">
        <ele>130.80000305176</ele>
        <time>2022-09-04T06:28:56.000Z</time>
      </trkpt>
      <trkpt lat="48.48495" lon="-2.79051">
        <ele>130.80000305176</ele>
        <time>2022-09-04T06:28:57.000Z</time>
      </trkpt>
      <trkpt lat="48.48494" lon="-2.79047">
        <ele>130.80000305176</ele>
        <time>2022-09-04T06:28:58.000Z</time>
      </trkpt>
      <trkpt lat="48.48492" lon="-2.79043">
        <ele>131.19999694824</ele>
        <time>2022-09-04T06:28:59.000Z</time>
      </trkpt>
      <trkpt lat="48.48492" lon="-2.79039">
        <ele>131.19999694824</ele>
        <time>2022-09-04T06:29:00.000Z</time>
      </trkpt>
      <trkpt lat="48.48493" lon="-2.79033">
        <ele>131.39999389648</ele>
        <time>2022-09-04T06:29:01.000Z</time>
      </trkpt>
      <trkpt lat="48.48499" lon="-2.7902">
        <ele>131.39999389648</ele>
        <time>2022-09-04T06:29:03.000Z</time>
      </trkpt>
      <trkpt lat="48.48503" lon="-2.79014">
        <ele>131.39999389648</ele>
        <time>2022-09-04T06:29:04.000Z</time>
      </trkpt>
      <trkpt lat="48.48508" lon="-2.79008">
        <ele>131.39999389648</ele>
        <time>2022-09-04T06:29:05.000Z</time>
      </trkpt>
      <trkpt lat="48.48513" lon="-2.79002">
        <ele>131.39999389648</ele>
        <time>2022-09-04T06:29:06.000Z</time>
      </trkpt>
      <trkpt lat="48.48524" lon="-2.78989">
        <ele>131.39999389648</ele>
        <time>2022-09-04T06:29:08.000Z</time>
      </trkpt>
      <trkpt lat="48.48556" lon="-2.78949">
        <ele>131.19999694824</ele>
        <time>2022-09-04T06:29:14.000Z</time>
      </trkpt>
      <trkpt lat="48.48565" lon="-2.78937">
        <ele>131.19999694824</ele>
        <time>2022-09-04T06:29:16.000Z</time>
      </trkpt>
      <trkpt lat="48.48565" lon="-2.78932">
        <ele>131.19999694824</ele>
        <time>2022-09-04T06:29:17.000Z</time>
      </trkpt>
      <trkpt lat="48.48564" lon="-2.78927">
        <ele>130.80000305176</ele>
        <time>2022-09-04T06:29:18.000Z</time>
      </trkpt>
      <trkpt lat="48.48561" lon="-2.78923">
        <ele>130.60000610352</ele>
        <time>2022-09-04T06:29:19.000Z</time>
      </trkpt>
      <trkpt lat="48.4855" lon="-2.78919">
        <ele>130</ele>
        <time>2022-09-04T06:29:21.000Z</time>
      </trkpt>
      <trkpt lat="48.48525" lon="-2.78915">
        <ele>129.60000610352</ele>
        <time>2022-09-04T06:29:25.000Z</time>
      </trkpt>
      <trkpt lat="48.48513" lon="-2.78912">
        <ele>129.60000610352</ele>
        <time>2022-09-04T06:29:27.000Z</time>
      </trkpt>
      <trkpt lat="48.48507" lon="-2.78909">
        <ele>129.60000610352</ele>
        <time>2022-09-04T06:29:28.000Z</time>
      </trkpt>
      <trkpt lat="48.48468" lon="-2.78883">
        <ele>129.60000610352</ele>
        <time>2022-09-04T06:29:35.000Z</time>
      </trkpt>
      <trkpt lat="48.48447" lon="-2.78866">
        <ele>129.80000305176</ele>
        <time>2022-09-04T06:29:39.000Z</time>
      </trkpt>
      <trkpt lat="48.48436" lon="-2.78857">
        <ele>129.80000305176</ele>
        <time>2022-09-04T06:29:41.000Z</time>
      </trkpt>
      <trkpt lat="48.4842" lon="-2.78844">
        <ele>129.80000305176</ele>
        <time>2022-09-04T06:29:44.000Z</time>
      </trkpt>
      <trkpt lat="48.48382" lon="-2.78808">
        <ele>128.80000305176</ele>
        <time>2022-09-04T06:29:51.000Z</time>
      </trkpt>
      <trkpt lat="48.48357" lon="-2.78787">
        <ele>128.19999694824</ele>
        <time>2022-09-04T06:29:55.000Z</time>
      </trkpt>
      <trkpt lat="48.48352" lon="-2.78782">
        <ele>128</ele>
        <time>2022-09-04T06:29:56.000Z</time>
      </trkpt>
      <trkpt lat="48.4834" lon="-2.7877">
        <ele>127.80000305176</ele>
        <time>2022-09-04T06:29:58.000Z</time>
      </trkpt>
      <trkpt lat="48.4833" lon="-2.78757">
        <ele>127.19999694824</ele>
        <time>2022-09-04T06:30:00.000Z</time>
      </trkpt>
      <trkpt lat="48.48319" lon="-2.78741">
        <ele>126.80000305176</ele>
        <time>2022-09-04T06:30:02.000Z</time>
      </trkpt>
      <trkpt lat="48.48313" lon="-2.78734">
        <ele>126.59999847412</ele>
        <time>2022-09-04T06:30:03.000Z</time>
      </trkpt>
      <trkpt lat="48.48308" lon="-2.78726">
        <ele>126</ele>
        <time>2022-09-04T06:30:04.000Z</time>
      </trkpt>
      <trkpt lat="48.48303" lon="-2.78717">
        <ele>125.59999847412</ele>
        <time>2022-09-04T06:30:05.000Z</time>
      </trkpt>
      <trkpt lat="48.48298" lon="-2.78707">
        <ele>125.59999847412</ele>
        <time>2022-09-04T06:30:06.000Z</time>
      </trkpt>
      <trkpt lat="48.48295" lon="-2.78698">
        <ele>125.40000152588</ele>
        <time>2022-09-04T06:30:07.000Z</time>
      </trkpt>
      <trkpt lat="48.48283" lon="-2.78669">
        <ele>125</ele>
        <time>2022-09-04T06:30:10.000Z</time>
      </trkpt>
      <trkpt lat="48.48276" lon="-2.78649">
        <ele>124.80000305176</ele>
        <time>2022-09-04T06:30:12.000Z</time>
      </trkpt>
      <trkpt lat="48.48273" lon="-2.78639">
        <ele>124.59999847412</ele>
        <time>2022-09-04T06:30:13.000Z</time>
      </trkpt>
      <trkpt lat="48.4827" lon="-2.78629">
        <ele>124.59999847412</ele>
        <time>2022-09-04T06:30:14.000Z</time>
      </trkpt>
      <trkpt lat="48.48267" lon="-2.78619">
        <ele>124.59999847412</ele>
        <time>2022-09-04T06:30:15.000Z</time>
      </trkpt>
      <trkpt lat="48.48265" lon="-2.78609">
        <ele>124.59999847412</ele>
        <time>2022-09-04T06:30:16.000Z</time>
      </trkpt>
      <trkpt lat="48.48262" lon="-2.78599">
        <ele>124.40000152588</ele>
        <time>2022-09-04T06:30:17.000Z</time>
      </trkpt>
      <trkpt lat="48.48257" lon="-2.78579">
        <ele>123.59999847412</ele>
        <time>2022-09-04T06:30:19.000Z</time>
      </trkpt>
      <trkpt lat="48.48253" lon="-2.78557">
        <ele>123</ele>
        <time>2022-09-04T06:30:21.000Z</time>
      </trkpt>
      <trkpt lat="48.48246" lon="-2.78534">
        <ele>122.59999847412</ele>
        <time>2022-09-04T06:30:23.000Z</time>
      </trkpt>
      <trkpt lat="48.48242" lon="-2.78524">
        <ele>121.80000305176</ele>
        <time>2022-09-04T06:30:24.000Z</time>
      </trkpt>
      <trkpt lat="48.48237" lon="-2.78516">
        <ele>121.19999694824</ele>
        <time>2022-09-04T06:30:25.000Z</time>
      </trkpt>
      <trkpt lat="48.48231" lon="-2.78512">
        <ele>120.19999694824</ele>
        <time>2022-09-04T06:30:26.000Z</time>
      </trkpt>
      <trkpt lat="48.48225" lon="-2.7851">
        <ele>119.40000152588</ele>
        <time>2022-09-04T06:30:27.000Z</time>
      </trkpt>
      <trkpt lat="48.48218" lon="-2.7851">
        <ele>118</ele>
        <time>2022-09-04T06:30:28.000Z</time>
      </trkpt>
      <trkpt lat="48.48202" lon="-2.78514">
        <ele>116.80000305176</ele>
        <time>2022-09-04T06:30:30.000Z</time>
      </trkpt>
      <trkpt lat="48.48196" lon="-2.78512">
        <ele>116.40000152588</ele>
        <time>2022-09-04T06:30:31.000Z</time>
      </trkpt>
      <trkpt lat="48.48193" lon="-2.78507">
        <ele>115.19999694824</ele>
        <time>2022-09-04T06:30:32.000Z</time>
      </trkpt>
      <trkpt lat="48.4819" lon="-2.78501">
        <ele>114.19999694824</ele>
        <time>2022-09-04T06:30:33.000Z</time>
      </trkpt>
      <trkpt lat="48.48188" lon="-2.78495">
        <ele>113.59999847412</ele>
        <time>2022-09-04T06:30:34.000Z</time>
      </trkpt>
      <trkpt lat="48.48187" lon="-2.78487">
        <ele>113</ele>
        <time>2022-09-04T06:30:35.000Z</time>
      </trkpt>
      <trkpt lat="48.48186" lon="-2.7848">
        <ele>112.80000305176</ele>
        <time>2022-09-04T06:30:36.000Z</time>
      </trkpt>
      <trkpt lat="48.48185" lon="-2.78473">
        <ele>112.59999847412</ele>
        <time>2022-09-04T06:30:37.000Z</time>
      </trkpt>
      <trkpt lat="48.48185" lon="-2.78466">
        <ele>112.40000152588</ele>
        <time>2022-09-04T06:30:38.000Z</time>
      </trkpt>
      <trkpt lat="48.48185" lon="-2.78462">
        <ele>112.40000152588</ele>
        <time>2022-09-04T06:30:39.000Z</time>
      </trkpt>
      <trkpt lat="48.48185" lon="-2.78458">
        <ele>112.40000152588</ele>
        <time>2022-09-04T06:30:40.000Z</time>
      </trkpt>
      <trkpt lat="48.48187" lon="-2.78453">
        <ele>112.40000152588</ele>
        <time>2022-09-04T06:30:41.000Z</time>
      </trkpt>
      <trkpt lat="48.4819" lon="-2.78448">
        <ele>112.40000152588</ele>
        <time>2022-09-04T06:30:42.000Z</time>
      </trkpt>
      <trkpt lat="48.48191" lon="-2.78443">
        <ele>113.19999694824</ele>
        <time>2022-09-04T06:30:43.000Z</time>
      </trkpt>
      <trkpt lat="48.48193" lon="-2.78437">
        <ele>113.40000152588</ele>
        <time>2022-09-04T06:30:44.000Z</time>
      </trkpt>
      <trkpt lat="48.48197" lon="-2.78428">
        <ele>114</ele>
        <time>2022-09-04T06:30:46.000Z</time>
      </trkpt>
      <trkpt lat="48.48199" lon="-2.78424">
        <ele>114.19999694824</ele>
        <time>2022-09-04T06:30:47.000Z</time>
      </trkpt>
      <trkpt lat="48.48206" lon="-2.78412">
        <ele>115</ele>
        <time>2022-09-04T06:30:49.000Z</time>
      </trkpt>
      <trkpt lat="48.48208" lon="-2.78406">
        <ele>115.40000152588</ele>
        <time>2022-09-04T06:30:50.000Z</time>
      </trkpt>
      <trkpt lat="48.4821" lon="-2.78402">
        <ele>115.59999847412</ele>
        <time>2022-09-04T06:30:51.000Z</time>
      </trkpt>
      <trkpt lat="48.48212" lon="-2.78396">
        <ele>115.80000305176</ele>
        <time>2022-09-04T06:30:52.000Z</time>
      </trkpt>
      <trkpt lat="48.48215" lon="-2.78391">
        <ele>115.80000305176</ele>
        <time>2022-09-04T06:30:53.000Z</time>
      </trkpt>
      <trkpt lat="48.48218" lon="-2.78387">
        <ele>116</ele>
        <time>2022-09-04T06:30:54.000Z</time>
      </trkpt>
      <trkpt lat="48.48221" lon="-2.78382">
        <ele>116.19999694824</ele>
        <time>2022-09-04T06:30:55.000Z</time>
      </trkpt>
      <trkpt lat="48.48225" lon="-2.78377">
        <ele>116.40000152588</ele>
        <time>2022-09-04T06:30:56.000Z</time>
      </trkpt>
      <trkpt lat="48.48228" lon="-2.78374">
        <ele>116.80000305176</ele>
        <time>2022-09-04T06:30:57.000Z</time>
      </trkpt>
      <trkpt lat="48.48239" lon="-2.78363">
        <ele>118</ele>
        <time>2022-09-04T06:31:00.000Z</time>
      </trkpt>
      <trkpt lat="48.48244" lon="-2.7836">
        <ele>118.40000152588</ele>
        <time>2022-09-04T06:31:01.000Z</time>
      </trkpt>
      <trkpt lat="48.48256" lon="-2.78356">
        <ele>118.59999847412</ele>
        <time>2022-09-04T06:31:03.000Z</time>
      </trkpt>
      <trkpt lat="48.48261" lon="-2.78354">
        <ele>118.80000305176</ele>
        <time>2022-09-04T06:31:04.000Z</time>
      </trkpt>
      <trkpt lat="48.48266" lon="-2.78352">
        <ele>119</ele>
        <time>2022-09-04T06:31:05.000Z</time>
      </trkpt>
      <trkpt lat="48.48271" lon="-2.7835">
        <ele>119</ele>
        <time>2022-09-04T06:31:06.000Z</time>
      </trkpt>
      <trkpt lat="48.48276" lon="-2.78348">
        <ele>119.19999694824</ele>
        <time>2022-09-04T06:31:07.000Z</time>
      </trkpt>
      <trkpt lat="48.48282" lon="-2.78347">
        <ele>119.40000152588</ele>
        <time>2022-09-04T06:31:08.000Z</time>
      </trkpt>
      <trkpt lat="48.48287" lon="-2.78345">
        <ele>119.59999847412</ele>
        <time>2022-09-04T06:31:09.000Z</time>
      </trkpt>
      <trkpt lat="48.48292" lon="-2.78344">
        <ele>119.59999847412</ele>
        <time>2022-09-04T06:31:10.000Z</time>
      </trkpt>
      <trkpt lat="48.48298" lon="-2.78342">
        <ele>119.59999847412</ele>
        <time>2022-09-04T06:31:11.000Z</time>
      </trkpt>
      <trkpt lat="48.48304" lon="-2.7834">
        <ele>119.40000152588</ele>
        <time>2022-09-04T06:31:12.000Z</time>
      </trkpt>
      <trkpt lat="48.48311" lon="-2.78337">
        <ele>119.19999694824</ele>
        <time>2022-09-04T06:31:13.000Z</time>
      </trkpt>
      <trkpt lat="48.48318" lon="-2.78335">
        <ele>118.80000305176</ele>
        <time>2022-09-04T06:31:14.000Z</time>
      </trkpt>
      <trkpt lat="48.48326" lon="-2.78332">
        <ele>118.80000305176</ele>
        <time>2022-09-04T06:31:15.000Z</time>
      </trkpt>
      <trkpt lat="48.48333" lon="-2.78328">
        <ele>118.40000152588</ele>
        <time>2022-09-04T06:31:16.000Z</time>
      </trkpt>
      <trkpt lat="48.48341" lon="-2.78324">
        <ele>117.80000305176</ele>
        <time>2022-09-04T06:31:17.000Z</time>
      </trkpt>
      <trkpt lat="48.48348" lon="-2.78321">
        <ele>116.80000305176</ele>
        <time>2022-09-04T06:31:18.000Z</time>
      </trkpt>
      <trkpt lat="48.48356" lon="-2.78318">
        <ele>116.19999694824</ele>
        <time>2022-09-04T06:31:19.000Z</time>
      </trkpt>
      <trkpt lat="48.48364" lon="-2.78315">
        <ele>116</ele>
        <time>2022-09-04T06:31:20.000Z</time>
      </trkpt>
      <trkpt lat="48.48372" lon="-2.78312">
        <ele>115.80000305176</ele>
        <time>2022-09-04T06:31:21.000Z</time>
      </trkpt>
      <trkpt lat="48.48387" lon="-2.78307">
        <ele>115</ele>
        <time>2022-09-04T06:31:23.000Z</time>
      </trkpt>
      <trkpt lat="48.48395" lon="-2.78304">
        <ele>114.59999847412</ele>
        <time>2022-09-04T06:31:24.000Z</time>
      </trkpt>
      <trkpt lat="48.48401" lon="-2.78301">
        <ele>114</ele>
        <time>2022-09-04T06:31:25.000Z</time>
      </trkpt>
      <trkpt lat="48.48407" lon="-2.78297">
        <ele>114</ele>
        <time>2022-09-04T06:31:26.000Z</time>
      </trkpt>
      <trkpt lat="48.48413" lon="-2.78292">
        <ele>113.80000305176</ele>
        <time>2022-09-04T06:31:27.000Z</time>
      </trkpt>
      <trkpt lat="48.48418" lon="-2.78288">
        <ele>113.80000305176</ele>
        <time>2022-09-04T06:31:28.000Z</time>
      </trkpt>
      <trkpt lat="48.48422" lon="-2.78286">
        <ele>113.80000305176</ele>
        <time>2022-09-04T06:31:29.000Z</time>
      </trkpt>
      <trkpt lat="48.48426" lon="-2.78284">
        <ele>113.80000305176</ele>
        <time>2022-09-04T06:31:30.000Z</time>
      </trkpt>
      <trkpt lat="48.4843" lon="-2.78282">
        <ele>113.80000305176</ele>
        <time>2022-09-04T06:31:31.000Z</time>
      </trkpt>
      <trkpt lat="48.48445" lon="-2.78274">
        <ele>113</ele>
        <time>2022-09-04T06:31:34.000Z</time>
      </trkpt>
      <trkpt lat="48.48462" lon="-2.78264">
        <ele>112.80000305176</ele>
        <time>2022-09-04T06:31:37.000Z</time>
      </trkpt>
      <trkpt lat="48.48468" lon="-2.78262">
        <ele>112.80000305176</ele>
        <time>2022-09-04T06:31:38.000Z</time>
      </trkpt>
      <trkpt lat="48.48473" lon="-2.78262">
        <ele>112.80000305176</ele>
        <time>2022-09-04T06:31:39.000Z</time>
      </trkpt>
      <trkpt lat="48.48477" lon="-2.78264">
        <ele>112.40000152588</ele>
        <time>2022-09-04T06:31:40.000Z</time>
      </trkpt>
      <trkpt lat="48.48482" lon="-2.78267">
        <ele>112.40000152588</ele>
        <time>2022-09-04T06:31:41.000Z</time>
      </trkpt>
      <trkpt lat="48.48487" lon="-2.78268">
        <ele>111.40000152588</ele>
        <time>2022-09-04T06:31:42.000Z</time>
      </trkpt>
      <trkpt lat="48.48492" lon="-2.78268">
        <ele>110</ele>
        <time>2022-09-04T06:31:43.000Z</time>
      </trkpt>
      <trkpt lat="48.48496" lon="-2.78267">
        <ele>109.40000152588</ele>
        <time>2022-09-04T06:31:44.000Z</time>
      </trkpt>
      <trkpt lat="48.48499" lon="-2.78265">
        <ele>108</ele>
        <time>2022-09-04T06:31:45.000Z</time>
      </trkpt>
      <trkpt lat="48.48503" lon="-2.78264">
        <ele>107.19999694824</ele>
        <time>2022-09-04T06:31:46.000Z</time>
      </trkpt>
      <trkpt lat="48.48508" lon="-2.78262">
        <ele>106.19999694824</ele>
        <time>2022-09-04T06:31:47.000Z</time>
      </trkpt>
      <trkpt lat="48.48513" lon="-2.78261">
        <ele>106</ele>
        <time>2022-09-04T06:31:48.000Z</time>
      </trkpt>
      <trkpt lat="48.48517" lon="-2.78259">
        <ele>105.59999847412</ele>
        <time>2022-09-04T06:31:49.000Z</time>
      </trkpt>
      <trkpt lat="48.48522" lon="-2.78258">
        <ele>105.59999847412</ele>
        <time>2022-09-04T06:31:50.000Z</time>
      </trkpt>
      <trkpt lat="48.48533" lon="-2.78251">
        <ele>105</ele>
        <time>2022-09-04T06:31:52.000Z</time>
      </trkpt>
      <trkpt lat="48.48538" lon="-2.78246">
        <ele>105</ele>
        <time>2022-09-04T06:31:53.000Z</time>
      </trkpt>
      <trkpt lat="48.48542" lon="-2.78241">
        <ele>104.80000305176</ele>
        <time>2022-09-04T06:31:54.000Z</time>
      </trkpt>
      <trkpt lat="48.48546" lon="-2.78236">
        <ele>104.80000305176</ele>
        <time>2022-09-04T06:31:55.000Z</time>
      </trkpt>
      <trkpt lat="48.48553" lon="-2.7823">
        <ele>104.59999847412</ele>
        <time>2022-09-04T06:31:56.000Z</time>
      </trkpt>
      <trkpt lat="48.48559" lon="-2.78223">
        <ele>104.59999847412</ele>
        <time>2022-09-04T06:31:57.000Z</time>
      </trkpt>
      <trkpt lat="48.48565" lon="-2.78217">
        <ele>104.59999847412</ele>
        <time>2022-09-04T06:31:58.000Z</time>
      </trkpt>
      <trkpt lat="48.48575" lon="-2.78203">
        <ele>104.59999847412</ele>
        <time>2022-09-04T06:32:00.000Z</time>
      </trkpt>
      <trkpt lat="48.4858" lon="-2.78197">
        <ele>104.40000152588</ele>
        <time>2022-09-04T06:32:01.000Z</time>
      </trkpt>
      <trkpt lat="48.48593" lon="-2.78185">
        <ele>103.80000305176</ele>
        <time>2022-09-04T06:32:03.000Z</time>
      </trkpt>
      <trkpt lat="48.48606" lon="-2.78174">
        <ele>103.40000152588</ele>
        <time>2022-09-04T06:32:05.000Z</time>
      </trkpt>
      <trkpt lat="48.48616" lon="-2.78163">
        <ele>102.80000305176</ele>
        <time>2022-09-04T06:32:07.000Z</time>
      </trkpt>
      <trkpt lat="48.48621" lon="-2.78158">
        <ele>102.59999847412</ele>
        <time>2022-09-04T06:32:08.000Z</time>
      </trkpt>
      <trkpt lat="48.48632" lon="-2.78149">
        <ele>102.59999847412</ele>
        <time>2022-09-04T06:32:10.000Z</time>
      </trkpt>
      <trkpt lat="48.48637" lon="-2.78143">
        <ele>102.59999847412</ele>
        <time>2022-09-04T06:32:11.000Z</time>
      </trkpt>
      <trkpt lat="48.48645" lon="-2.78136">
        <ele>102.59999847412</ele>
        <time>2022-09-04T06:32:12.000Z</time>
      </trkpt>
      <trkpt lat="48.48646" lon="-2.78128">
        <ele>102.80000305176</ele>
        <time>2022-09-04T06:32:13.000Z</time>
      </trkpt>
      <trkpt lat="48.48645" lon="-2.78122">
        <ele>102.80000305176</ele>
        <time>2022-09-04T06:32:14.000Z</time>
      </trkpt>
      <trkpt lat="48.48647" lon="-2.78114">
        <ele>102.80000305176</ele>
        <time>2022-09-04T06:32:15.000Z</time>
      </trkpt>
      <trkpt lat="48.4865" lon="-2.78105">
        <ele>103</ele>
        <time>2022-09-04T06:32:16.000Z</time>
      </trkpt>
      <trkpt lat="48.4865" lon="-2.78099">
        <ele>103.19999694824</ele>
        <time>2022-09-04T06:32:17.000Z</time>
      </trkpt>
      <trkpt lat="48.4865" lon="-2.78092">
        <ele>103.40000152588</ele>
        <time>2022-09-04T06:32:18.000Z</time>
      </trkpt>
      <trkpt lat="48.4865" lon="-2.78087">
        <ele>103.59999847412</ele>
        <time>2022-09-04T06:32:19.000Z</time>
      </trkpt>
      <trkpt lat="48.48649" lon="-2.78079">
        <ele>104</ele>
        <time>2022-09-04T06:32:20.000Z</time>
      </trkpt>
      <trkpt lat="48.48649" lon="-2.78074">
        <ele>104.40000152588</ele>
        <time>2022-09-04T06:32:21.000Z</time>
      </trkpt>
      <trkpt lat="48.48648" lon="-2.78071">
        <ele>105</ele>
        <time>2022-09-04T06:32:22.000Z</time>
      </trkpt>
      <trkpt lat="48.48647" lon="-2.78067">
        <ele>105.19999694824</ele>
        <time>2022-09-04T06:32:23.000Z</time>
      </trkpt>
      <trkpt lat="48.48648" lon="-2.78061">
        <ele>105.80000305176</ele>
        <time>2022-09-04T06:32:24.000Z</time>
      </trkpt>
      <trkpt lat="48.48648" lon="-2.78057">
        <ele>106</ele>
        <time>2022-09-04T06:32:25.000Z</time>
      </trkpt>
      <trkpt lat="48.48648" lon="-2.7804">
        <ele>107.19999694824</ele>
        <time>2022-09-04T06:32:28.000Z</time>
      </trkpt>
      <trkpt lat="48.48646" lon="-2.78026">
        <ele>107.40000152588</ele>
        <time>2022-09-04T06:32:30.000Z</time>
      </trkpt>
      <trkpt lat="48.48645" lon="-2.7802">
        <ele>107.59999847412</ele>
        <time>2022-09-04T06:32:31.000Z</time>
      </trkpt>
      <trkpt lat="48.48645" lon="-2.78013">
        <ele>107.59999847412</ele>
        <time>2022-09-04T06:32:32.000Z</time>
      </trkpt>
      <trkpt lat="48.48644" lon="-2.78006">
        <ele>107.80000305176</ele>
        <time>2022-09-04T06:32:33.000Z</time>
      </trkpt>
      <trkpt lat="48.48645" lon="-2.77999">
        <ele>107.80000305176</ele>
        <time>2022-09-04T06:32:34.000Z</time>
      </trkpt>
      <trkpt lat="48.48645" lon="-2.77993">
        <ele>107.80000305176</ele>
        <time>2022-09-04T06:32:35.000Z</time>
      </trkpt>
      <trkpt lat="48.48643" lon="-2.77987">
        <ele>107.80000305176</ele>
        <time>2022-09-04T06:32:36.000Z</time>
      </trkpt>
      <trkpt lat="48.48642" lon="-2.77983">
        <ele>107.80000305176</ele>
        <time>2022-09-04T06:32:37.000Z</time>
      </trkpt>
      <trkpt lat="48.48636" lon="-2.77981">
        <ele>107.80000305176</ele>
        <time>2022-09-04T06:32:38.000Z</time>
      </trkpt>
      <trkpt lat="48.48632" lon="-2.7798">
        <ele>108</ele>
        <time>2022-09-04T06:32:39.000Z</time>
      </trkpt>
      <trkpt lat="48.48627" lon="-2.7798">
        <ele>108</ele>
        <time>2022-09-04T06:32:40.000Z</time>
      </trkpt>
      <trkpt lat="48.48623" lon="-2.7798">
        <ele>108</ele>
        <time>2022-09-04T06:32:41.000Z</time>
      </trkpt>
      <trkpt lat="48.48619" lon="-2.77979">
        <ele>108.19999694824</ele>
        <time>2022-09-04T06:32:42.000Z</time>
      </trkpt>
      <trkpt lat="48.48617" lon="-2.7798">
        <ele>108.19999694824</ele>
        <time>2022-09-04T06:32:43.000Z</time>
      </trkpt>
      <trkpt lat="48.48613" lon="-2.77981">
        <ele>108.19999694824</ele>
        <time>2022-09-04T06:32:44.000Z</time>
      </trkpt>
      <trkpt lat="48.48609" lon="-2.77981">
        <ele>108.19999694824</ele>
        <time>2022-09-04T06:32:45.000Z</time>
      </trkpt>
      <trkpt lat="48.48606" lon="-2.77981">
        <ele>108.19999694824</ele>
        <time>2022-09-04T06:32:46.000Z</time>
      </trkpt>
      <trkpt lat="48.48603" lon="-2.77981">
        <ele>108.19999694824</ele>
        <time>2022-09-04T06:32:47.000Z</time>
      </trkpt>
      <trkpt lat="48.48598" lon="-2.77981">
        <ele>108.19999694824</ele>
        <time>2022-09-04T06:32:48.000Z</time>
      </trkpt>
      <trkpt lat="48.48595" lon="-2.77982">
        <ele>108.59999847412</ele>
        <time>2022-09-04T06:32:49.000Z</time>
      </trkpt>
      <trkpt lat="48.4859" lon="-2.77983">
        <ele>108.80000305176</ele>
        <time>2022-09-04T06:32:50.000Z</time>
      </trkpt>
      <trkpt lat="48.48586" lon="-2.77984">
        <ele>109</ele>
        <time>2022-09-04T06:32:51.000Z</time>
      </trkpt>
      <trkpt lat="48.48582" lon="-2.77984">
        <ele>109.19999694824</ele>
        <time>2022-09-04T06:32:52.000Z</time>
      </trkpt>
      <trkpt lat="48.48577" lon="-2.77984">
        <ele>109.40000152588</ele>
        <time>2022-09-04T06:32:53.000Z</time>
      </trkpt>
      <trkpt lat="48.48572" lon="-2.77984">
        <ele>109.40000152588</ele>
        <time>2022-09-04T06:32:54.000Z</time>
      </trkpt>
      <trkpt lat="48.48567" lon="-2.77983">
        <ele>109.59999847412</ele>
        <time>2022-09-04T06:32:55.000Z</time>
      </trkpt>
      <trkpt lat="48.48564" lon="-2.77982">
        <ele>109.59999847412</ele>
        <time>2022-09-04T06:32:56.000Z</time>
      </trkpt>
      <trkpt lat="48.48559" lon="-2.77981">
        <ele>109.59999847412</ele>
        <time>2022-09-04T06:32:57.000Z</time>
      </trkpt>
      <trkpt lat="48.48555" lon="-2.77977">
        <ele>109.80000305176</ele>
        <time>2022-09-04T06:32:58.000Z</time>
      </trkpt>
      <trkpt lat="48.48551" lon="-2.77973">
        <ele>110</ele>
        <time>2022-09-04T06:32:59.000Z</time>
      </trkpt>
      <trkpt lat="48.48548" lon="-2.77968">
        <ele>110</ele>
        <time>2022-09-04T06:33:00.000Z</time>
      </trkpt>
      <trkpt lat="48.48545" lon="-2.77962">
        <ele>110.19999694824</ele>
        <time>2022-09-04T06:33:01.000Z</time>
      </trkpt>
      <trkpt lat="48.48543" lon="-2.77955">
        <ele>110.19999694824</ele>
        <time>2022-09-04T06:33:02.000Z</time>
      </trkpt>
      <trkpt lat="48.48542" lon="-2.77948">
        <ele>110.19999694824</ele>
        <time>2022-09-04T06:33:03.000Z</time>
      </trkpt>
      <trkpt lat="48.4854" lon="-2.77941">
        <ele>110.19999694824</ele>
        <time>2022-09-04T06:33:04.000Z</time>
      </trkpt>
      <trkpt lat="48.48539" lon="-2.77933">
        <ele>110.19999694824</ele>
        <time>2022-09-04T06:33:05.000Z</time>
      </trkpt>
      <trkpt lat="48.48537" lon="-2.77926">
        <ele>110.19999694824</ele>
        <time>2022-09-04T06:33:06.000Z</time>
      </trkpt>
      <trkpt lat="48.48535" lon="-2.77919">
        <ele>110.19999694824</ele>
        <time>2022-09-04T06:33:07.000Z</time>
      </trkpt>
      <trkpt lat="48.48534" lon="-2.77912">
        <ele>110.40000152588</ele>
        <time>2022-09-04T06:33:08.000Z</time>
      </trkpt>
      <trkpt lat="48.48532" lon="-2.77906">
        <ele>110.59999847412</ele>
        <time>2022-09-04T06:33:09.000Z</time>
      </trkpt>
      <trkpt lat="48.4853" lon="-2.779">
        <ele>110.59999847412</ele>
        <time>2022-09-04T06:33:10.000Z</time>
      </trkpt>
      <trkpt lat="48.48527" lon="-2.77898">
        <ele>110.80000305176</ele>
        <time>2022-09-04T06:33:11.000Z</time>
      </trkpt>
      <trkpt lat="48.48522" lon="-2.77897">
        <ele>110.80000305176</ele>
        <time>2022-09-04T06:33:12.000Z</time>
      </trkpt>
      <trkpt lat="48.48512" lon="-2.77895">
        <ele>111</ele>
        <time>2022-09-04T06:33:14.000Z</time>
      </trkpt>
      <trkpt lat="48.48506" lon="-2.77894">
        <ele>111</ele>
        <time>2022-09-04T06:33:15.000Z</time>
      </trkpt>
      <trkpt lat="48.48502" lon="-2.77893">
        <ele>111</ele>
        <time>2022-09-04T06:33:16.000Z</time>
      </trkpt>
      <trkpt lat="48.48498" lon="-2.77893">
        <ele>111</ele>
        <time>2022-09-04T06:33:17.000Z</time>
      </trkpt>
      <trkpt lat="48.48489" lon="-2.77898">
        <ele>111</ele>
        <time>2022-09-04T06:33:19.000Z</time>
      </trkpt>
      <trkpt lat="48.48484" lon="-2.77904">
        <ele>111</ele>
        <time>2022-09-04T06:33:20.000Z</time>
      </trkpt>
      <trkpt lat="48.48481" lon="-2.77908">
        <ele>111</ele>
        <time>2022-09-04T06:33:21.000Z</time>
      </trkpt>
      <trkpt lat="48.48477" lon="-2.77913">
        <ele>110.80000305176</ele>
        <time>2022-09-04T06:33:22.000Z</time>
      </trkpt>
      <trkpt lat="48.48473" lon="-2.77919">
        <ele>110.80000305176</ele>
        <time>2022-09-04T06:33:23.000Z</time>
      </trkpt>
      <trkpt lat="48.48465" lon="-2.77928">
        <ele>111</ele>
        <time>2022-09-04T06:33:25.000Z</time>
      </trkpt>
      <trkpt lat="48.48462" lon="-2.77931">
        <ele>111</ele>
        <time>2022-09-04T06:33:26.000Z</time>
      </trkpt>
      <trkpt lat="48.48459" lon="-2.77935">
        <ele>111</ele>
        <time>2022-09-04T06:33:27.000Z</time>
      </trkpt>
      <trkpt lat="48.48455" lon="-2.77939">
        <ele>111.19999694824</ele>
        <time>2022-09-04T06:33:28.000Z</time>
      </trkpt>
      <trkpt lat="48.4845" lon="-2.77942">
        <ele>111.19999694824</ele>
        <time>2022-09-04T06:33:29.000Z</time>
      </trkpt>
      <trkpt lat="48.48447" lon="-2.77945">
        <ele>111.19999694824</ele>
        <time>2022-09-04T06:33:30.000Z</time>
      </trkpt>
      <trkpt lat="48.48443" lon="-2.77948">
        <ele>111.40000152588</ele>
        <time>2022-09-04T06:33:31.000Z</time>
      </trkpt>
      <trkpt lat="48.4844" lon="-2.77951">
        <ele>111.40000152588</ele>
        <time>2022-09-04T06:33:32.000Z</time>
      </trkpt>
      <trkpt lat="48.48436" lon="-2.77955">
        <ele>111.59999847412</ele>
        <time>2022-09-04T06:33:33.000Z</time>
      </trkpt>
      <trkpt lat="48.48432" lon="-2.77959">
        <ele>112.19999694824</ele>
        <time>2022-09-04T06:33:34.000Z</time>
      </trkpt>
      <trkpt lat="48.4843" lon="-2.77962">
        <ele>112.40000152588</ele>
        <time>2022-09-04T06:33:35.000Z</time>
      </trkpt>
      <trkpt lat="48.48411" lon="-2.77979">
        <ele>113.40000152588</ele>
        <time>2022-09-04T06:33:40.000Z</time>
      </trkpt>
      <trkpt lat="48.48407" lon="-2.77981">
        <ele>113.59999847412</ele>
        <time>2022-09-04T06:33:41.000Z</time>
      </trkpt>
      <trkpt lat="48.48399" lon="-2.77985">
        <ele>113.80000305176</ele>
        <time>2022-09-04T06:33:43.000Z</time>
      </trkpt>
      <trkpt lat="48.48395" lon="-2.77987">
        <ele>113.80000305176</ele>
        <time>2022-09-04T06:33:44.000Z</time>
      </trkpt>
      <trkpt lat="48.48391" lon="-2.77989">
        <ele>114</ele>
        <time>2022-09-04T06:33:45.000Z</time>
      </trkpt>
      <trkpt lat="48.48387" lon="-2.77991">
        <ele>114</ele>
        <time>2022-09-04T06:33:46.000Z</time>
      </trkpt>
      <trkpt lat="48.48383" lon="-2.77994">
        <ele>114.19999694824</ele>
        <time>2022-09-04T06:33:47.000Z</time>
      </trkpt>
      <trkpt lat="48.48378" lon="-2.77996">
        <ele>114.19999694824</ele>
        <time>2022-09-04T06:33:48.000Z</time>
      </trkpt>
      <trkpt lat="48.48375" lon="-2.78">
        <ele>114.40000152588</ele>
        <time>2022-09-04T06:33:49.000Z</time>
      </trkpt>
      <trkpt lat="48.48372" lon="-2.78003">
        <ele>114.40000152588</ele>
        <time>2022-09-04T06:33:50.000Z</time>
      </trkpt>
      <trkpt lat="48.48369" lon="-2.78008">
        <ele>114.40000152588</ele>
        <time>2022-09-04T06:33:51.000Z</time>
      </trkpt>
      <trkpt lat="48.48366" lon="-2.78014">
        <ele>114.59999847412</ele>
        <time>2022-09-04T06:33:52.000Z</time>
      </trkpt>
      <trkpt lat="48.48364" lon="-2.7802">
        <ele>114.59999847412</ele>
        <time>2022-09-04T06:33:53.000Z</time>
      </trkpt>
      <trkpt lat="48.48362" lon="-2.78026">
        <ele>114.80000305176</ele>
        <time>2022-09-04T06:33:54.000Z</time>
      </trkpt>
      <trkpt lat="48.4836" lon="-2.78033">
        <ele>114.80000305176</ele>
        <time>2022-09-04T06:33:55.000Z</time>
      </trkpt>
      <trkpt lat="48.48359" lon="-2.7804">
        <ele>114.80000305176</ele>
        <time>2022-09-04T06:33:56.000Z</time>
      </trkpt>
      <trkpt lat="48.48357" lon="-2.78047">
        <ele>114.80000305176</ele>
        <time>2022-09-04T06:33:57.000Z</time>
      </trkpt>
      <trkpt lat="48.48355" lon="-2.78054">
        <ele>115</ele>
        <time>2022-09-04T06:33:58.000Z</time>
      </trkpt>
      <trkpt lat="48.48353" lon="-2.7806">
        <ele>115</ele>
        <time>2022-09-04T06:33:59.000Z</time>
      </trkpt>
      <trkpt lat="48.4835" lon="-2.78066">
        <ele>115</ele>
        <time>2022-09-04T06:34:00.000Z</time>
      </trkpt>
      <trkpt lat="48.48347" lon="-2.7807">
        <ele>115</ele>
        <time>2022-09-04T06:34:01.000Z</time>
      </trkpt>
      <trkpt lat="48.48343" lon="-2.78074">
        <ele>115.19999694824</ele>
        <time>2022-09-04T06:34:02.000Z</time>
      </trkpt>
      <trkpt lat="48.48339" lon="-2.78077">
        <ele>115.19999694824</ele>
        <time>2022-09-04T06:34:03.000Z</time>
      </trkpt>
      <trkpt lat="48.48335" lon="-2.78079">
        <ele>115.19999694824</ele>
        <time>2022-09-04T06:34:04.000Z</time>
      </trkpt>
      <trkpt lat="48.4833" lon="-2.78081">
        <ele>115.19999694824</ele>
        <time>2022-09-04T06:34:05.000Z</time>
      </trkpt>
      <trkpt lat="48.48311" lon="-2.78083">
        <ele>115.40000152588</ele>
        <time>2022-09-04T06:34:09.000Z</time>
      </trkpt>
      <trkpt lat="48.48292" lon="-2.78085">
        <ele>116.19999694824</ele>
        <time>2022-09-04T06:34:13.000Z</time>
      </trkpt>
      <trkpt lat="48.48283" lon="-2.78085">
        <ele>116.40000152588</ele>
        <time>2022-09-04T06:34:15.000Z</time>
      </trkpt>
      <trkpt lat="48.48278" lon="-2.78085">
        <ele>116.59999847412</ele>
        <time>2022-09-04T06:34:16.000Z</time>
      </trkpt>
      <trkpt lat="48.48264" lon="-2.78087">
        <ele>117</ele>
        <time>2022-09-04T06:34:19.000Z</time>
      </trkpt>
      <trkpt lat="48.4826" lon="-2.78088">
        <ele>117</ele>
        <time>2022-09-04T06:34:20.000Z</time>
      </trkpt>
      <trkpt lat="48.48255" lon="-2.7809">
        <ele>117</ele>
        <time>2022-09-04T06:34:21.000Z</time>
      </trkpt>
      <trkpt lat="48.48247" lon="-2.78094">
        <ele>117.19999694824</ele>
        <time>2022-09-04T06:34:23.000Z</time>
      </trkpt>
      <trkpt lat="48.48236" lon="-2.78106">
        <ele>117.59999847412</ele>
        <time>2022-09-04T06:34:26.000Z</time>
      </trkpt>
      <trkpt lat="48.48233" lon="-2.78111">
        <ele>117.80000305176</ele>
        <time>2022-09-04T06:34:27.000Z</time>
      </trkpt>
      <trkpt lat="48.4823" lon="-2.78116">
        <ele>117.80000305176</ele>
        <time>2022-09-04T06:34:28.000Z</time>
      </trkpt>
      <trkpt lat="48.48228" lon="-2.78122">
        <ele>117.80000305176</ele>
        <time>2022-09-04T06:34:29.000Z</time>
      </trkpt>
      <trkpt lat="48.48225" lon="-2.78128">
        <ele>118</ele>
        <time>2022-09-04T06:34:30.000Z</time>
      </trkpt>
      <trkpt lat="48.48223" lon="-2.78133">
        <ele>118.19999694824</ele>
        <time>2022-09-04T06:34:31.000Z</time>
      </trkpt>
      <trkpt lat="48.4822" lon="-2.78139">
        <ele>118.19999694824</ele>
        <time>2022-09-04T06:34:32.000Z</time>
      </trkpt>
      <trkpt lat="48.48217" lon="-2.78144">
        <ele>118.40000152588</ele>
        <time>2022-09-04T06:34:33.000Z</time>
      </trkpt>
      <trkpt lat="48.48215" lon="-2.78149">
        <ele>118.40000152588</ele>
        <time>2022-09-04T06:34:34.000Z</time>
      </trkpt>
      <trkpt lat="48.48212" lon="-2.78154">
        <ele>118.59999847412</ele>
        <time>2022-09-04T06:34:35.000Z</time>
      </trkpt>
      <trkpt lat="48.48209" lon="-2.78158">
        <ele>118.59999847412</ele>
        <time>2022-09-04T06:34:36.000Z</time>
      </trkpt>
      <trkpt lat="48.48205" lon="-2.7816">
        <ele>119.19999694824</ele>
        <time>2022-09-04T06:34:37.000Z</time>
      </trkpt>
      <trkpt lat="48.48202" lon="-2.78162">
        <ele>119.40000152588</ele>
        <time>2022-09-04T06:34:38.000Z</time>
      </trkpt>
      <trkpt lat="48.48198" lon="-2.78163">
        <ele>119.80000305176</ele>
        <time>2022-09-04T06:34:39.000Z</time>
      </trkpt>
      <trkpt lat="48.48194" lon="-2.78163">
        <ele>119.80000305176</ele>
        <time>2022-09-04T06:34:40.000Z</time>
      </trkpt>
      <trkpt lat="48.4819" lon="-2.78162">
        <ele>120.19999694824</ele>
        <time>2022-09-04T06:34:41.000Z</time>
      </trkpt>
      <trkpt lat="48.48186" lon="-2.7816">
        <ele>120.59999847412</ele>
        <time>2022-09-04T06:34:42.000Z</time>
      </trkpt>
      <trkpt lat="48.48182" lon="-2.78158">
        <ele>120.59999847412</ele>
        <time>2022-09-04T06:34:43.000Z</time>
      </trkpt>
      <trkpt lat="48.48179" lon="-2.78156">
        <ele>120.80000305176</ele>
        <time>2022-09-04T06:34:44.000Z</time>
      </trkpt>
      <trkpt lat="48.48175" lon="-2.78153">
        <ele>120.80000305176</ele>
        <time>2022-09-04T06:34:45.000Z</time>
      </trkpt>
      <trkpt lat="48.48172" lon="-2.78149">
        <ele>120.80000305176</ele>
        <time>2022-09-04T06:34:46.000Z</time>
      </trkpt>
      <trkpt lat="48.48168" lon="-2.78145">
        <ele>121</ele>
        <time>2022-09-04T06:34:47.000Z</time>
      </trkpt>
      <trkpt lat="48.48164" lon="-2.78141">
        <ele>121</ele>
        <time>2022-09-04T06:34:48.000Z</time>
      </trkpt>
      <trkpt lat="48.48161" lon="-2.78136">
        <ele>121</ele>
        <time>2022-09-04T06:34:49.000Z</time>
      </trkpt>
      <trkpt lat="48.48157" lon="-2.78132">
        <ele>121</ele>
        <time>2022-09-04T06:34:50.000Z</time>
      </trkpt>
      <trkpt lat="48.48153" lon="-2.78127">
        <ele>121.19999694824</ele>
        <time>2022-09-04T06:34:51.000Z</time>
      </trkpt>
      <trkpt lat="48.48149" lon="-2.78123">
        <ele>121.19999694824</ele>
        <time>2022-09-04T06:34:52.000Z</time>
      </trkpt>
      <trkpt lat="48.48145" lon="-2.78118">
        <ele>121.40000152588</ele>
        <time>2022-09-04T06:34:53.000Z</time>
      </trkpt>
      <trkpt lat="48.4814" lon="-2.78114">
        <ele>121.40000152588</ele>
        <time>2022-09-04T06:34:54.000Z</time>
      </trkpt>
      <trkpt lat="48.48136" lon="-2.78109">
        <ele>121.40000152588</ele>
        <time>2022-09-04T06:34:55.000Z</time>
      </trkpt>
      <trkpt lat="48.48132" lon="-2.78105">
        <ele>121.40000152588</ele>
        <time>2022-09-04T06:34:56.000Z</time>
      </trkpt>
      <trkpt lat="48.48132" lon="-2.78105">
        <ele>121.40000152588</ele>
        <time>2022-09-04T06:34:57.000Z</time>
      </trkpt>
      <trkpt lat="48.48122" lon="-2.78099">
        <ele>121.59999847412</ele>
        <time>2022-09-04T06:34:58.000Z</time>
      </trkpt>
      <trkpt lat="48.48117" lon="-2.78097">
        <ele>121.40000152588</ele>
        <time>2022-09-04T06:34:59.000Z</time>
      </trkpt>
      <trkpt lat="48.48112" lon="-2.78095">
        <ele>121.40000152588</ele>
        <time>2022-09-04T06:35:00.000Z</time>
      </trkpt>
      <trkpt lat="48.48106" lon="-2.78094">
        <ele>121.40000152588</ele>
        <time>2022-09-04T06:35:01.000Z</time>
      </trkpt>
      <trkpt lat="48.48101" lon="-2.78093">
        <ele>121.40000152588</ele>
        <time>2022-09-04T06:35:02.000Z</time>
      </trkpt>
      <trkpt lat="48.48095" lon="-2.78092">
        <ele>121.40000152588</ele>
        <time>2022-09-04T06:35:03.000Z</time>
      </trkpt>
      <trkpt lat="48.4809" lon="-2.78091">
        <ele>121.40000152588</ele>
        <time>2022-09-04T06:35:04.000Z</time>
      </trkpt>
      <trkpt lat="48.48079" lon="-2.78088">
        <ele>121.40000152588</ele>
        <time>2022-09-04T06:35:06.000Z</time>
      </trkpt>
      <trkpt lat="48.48074" lon="-2.78086">
        <ele>121.40000152588</ele>
        <time>2022-09-04T06:35:07.000Z</time>
      </trkpt>
      <trkpt lat="48.48068" lon="-2.78083">
        <ele>121.40000152588</ele>
        <time>2022-09-04T06:35:08.000Z</time>
      </trkpt>
      <trkpt lat="48.48045" lon="-2.78061">
        <ele>121.40000152588</ele>
        <time>2022-09-04T06:35:13.000Z</time>
      </trkpt>
      <trkpt lat="48.4801" lon="-2.78035">
        <ele>121.59999847412</ele>
        <time>2022-09-04T06:35:20.000Z</time>
      </trkpt>
      <trkpt lat="48.48005" lon="-2.78033">
        <ele>121.59999847412</ele>
        <time>2022-09-04T06:35:21.000Z</time>
      </trkpt>
      <trkpt lat="48.48" lon="-2.78031">
        <ele>121.59999847412</ele>
        <time>2022-09-04T06:35:22.000Z</time>
      </trkpt>
      <trkpt lat="48.47994" lon="-2.7803">
        <ele>121.59999847412</ele>
        <time>2022-09-04T06:35:23.000Z</time>
      </trkpt>
      <trkpt lat="48.47971" lon="-2.78029">
        <ele>121.59999847412</ele>
        <time>2022-09-04T06:35:27.000Z</time>
      </trkpt>
      <trkpt lat="48.47966" lon="-2.78028">
        <ele>121.59999847412</ele>
        <time>2022-09-04T06:35:28.000Z</time>
      </trkpt>
      <trkpt lat="48.4796" lon="-2.78027">
        <ele>121.40000152588</ele>
        <time>2022-09-04T06:35:29.000Z</time>
      </trkpt>
      <trkpt lat="48.47955" lon="-2.78024">
        <ele>121.40000152588</ele>
        <time>2022-09-04T06:35:30.000Z</time>
      </trkpt>
      <trkpt lat="48.47945" lon="-2.78017">
        <ele>121.40000152588</ele>
        <time>2022-09-04T06:35:32.000Z</time>
      </trkpt>
      <trkpt lat="48.47935" lon="-2.78006">
        <ele>121.59999847412</ele>
        <time>2022-09-04T06:35:34.000Z</time>
      </trkpt>
      <trkpt lat="48.47928" lon="-2.77992">
        <ele>121.80000305176</ele>
        <time>2022-09-04T06:35:36.000Z</time>
      </trkpt>
      <trkpt lat="48.47926" lon="-2.77984">
        <ele>121.80000305176</ele>
        <time>2022-09-04T06:35:37.000Z</time>
      </trkpt>
      <trkpt lat="48.47924" lon="-2.77975">
        <ele>122</ele>
        <time>2022-09-04T06:35:38.000Z</time>
      </trkpt>
      <trkpt lat="48.47923" lon="-2.77966">
        <ele>122</ele>
        <time>2022-09-04T06:35:39.000Z</time>
      </trkpt>
      <trkpt lat="48.47921" lon="-2.77957">
        <ele>122</ele>
        <time>2022-09-04T06:35:40.000Z</time>
      </trkpt>
      <trkpt lat="48.47919" lon="-2.7789">
        <ele>121.40000152588</ele>
        <time>2022-09-04T06:35:47.000Z</time>
      </trkpt>
      <trkpt lat="48.47918" lon="-2.77836">
        <ele>120.80000305176</ele>
        <time>2022-09-04T06:35:52.000Z</time>
      </trkpt>
      <trkpt lat="48.47918" lon="-2.77813">
        <ele>120.40000152588</ele>
        <time>2022-09-04T06:35:54.000Z</time>
      </trkpt>
      <trkpt lat="48.47916" lon="-2.77759">
        <ele>119.40000152588</ele>
        <time>2022-09-04T06:35:58.000Z</time>
      </trkpt>
      <trkpt lat="48.47916" lon="-2.77734">
        <ele>118.40000152588</ele>
        <time>2022-09-04T06:36:00.000Z</time>
      </trkpt>
      <trkpt lat="48.47916" lon="-2.77723">
        <ele>117.80000305176</ele>
        <time>2022-09-04T06:36:01.000Z</time>
      </trkpt>
      <trkpt lat="48.47916" lon="-2.77711">
        <ele>117.19999694824</ele>
        <time>2022-09-04T06:36:02.000Z</time>
      </trkpt>
      <trkpt lat="48.47917" lon="-2.77706">
        <ele>117</ele>
        <time>2022-09-04T06:36:03.000Z</time>
      </trkpt>
      <trkpt lat="48.47918" lon="-2.777">
        <ele>116.40000152588</ele>
        <time>2022-09-04T06:36:04.000Z</time>
      </trkpt>
      <trkpt lat="48.47921" lon="-2.77696">
        <ele>115</ele>
        <time>2022-09-04T06:36:05.000Z</time>
      </trkpt>
      <trkpt lat="48.47925" lon="-2.77692">
        <ele>114.59999847412</ele>
        <time>2022-09-04T06:36:06.000Z</time>
      </trkpt>
      <trkpt lat="48.4793" lon="-2.7769">
        <ele>114</ele>
        <time>2022-09-04T06:36:07.000Z</time>
      </trkpt>
      <trkpt lat="48.47934" lon="-2.77688">
        <ele>113.80000305176</ele>
        <time>2022-09-04T06:36:08.000Z</time>
      </trkpt>
      <trkpt lat="48.47939" lon="-2.77684">
        <ele>113.80000305176</ele>
        <time>2022-09-04T06:36:09.000Z</time>
      </trkpt>
      <trkpt lat="48.47943" lon="-2.77678">
        <ele>113.59999847412</ele>
        <time>2022-09-04T06:36:10.000Z</time>
      </trkpt>
      <trkpt lat="48.47945" lon="-2.77671">
        <ele>113.19999694824</ele>
        <time>2022-09-04T06:36:11.000Z</time>
      </trkpt>
      <trkpt lat="48.47945" lon="-2.77663">
        <ele>113.19999694824</ele>
        <time>2022-09-04T06:36:12.000Z</time>
      </trkpt>
      <trkpt lat="48.47944" lon="-2.77654">
        <ele>113</ele>
        <time>2022-09-04T06:36:13.000Z</time>
      </trkpt>
      <trkpt lat="48.47943" lon="-2.77637">
        <ele>112.80000305176</ele>
        <time>2022-09-04T06:36:15.000Z</time>
      </trkpt>
      <trkpt lat="48.47943" lon="-2.77628">
        <ele>112.80000305176</ele>
        <time>2022-09-04T06:36:16.000Z</time>
      </trkpt>
      <trkpt lat="48.4794" lon="-2.77602">
        <ele>113</ele>
        <time>2022-09-04T06:36:19.000Z</time>
      </trkpt>
      <trkpt lat="48.47935" lon="-2.77578">
        <ele>113.40000152588</ele>
        <time>2022-09-04T06:36:22.000Z</time>
      </trkpt>
      <trkpt lat="48.47932" lon="-2.7757">
        <ele>113.59999847412</ele>
        <time>2022-09-04T06:36:23.000Z</time>
      </trkpt>
      <trkpt lat="48.47929" lon="-2.77561">
        <ele>113.80000305176</ele>
        <time>2022-09-04T06:36:24.000Z</time>
      </trkpt>
      <trkpt lat="48.47926" lon="-2.77556">
        <ele>114</ele>
        <time>2022-09-04T06:36:25.000Z</time>
      </trkpt>
      <trkpt lat="48.47912" lon="-2.77528">
        <ele>114.80000305176</ele>
        <time>2022-09-04T06:36:29.000Z</time>
      </trkpt>
      <trkpt lat="48.47907" lon="-2.77512">
        <ele>115</ele>
        <time>2022-09-04T06:36:31.000Z</time>
      </trkpt>
      <trkpt lat="48.47905" lon="-2.77504">
        <ele>115.19999694824</ele>
        <time>2022-09-04T06:36:32.000Z</time>
      </trkpt>
      <trkpt lat="48.47903" lon="-2.77466">
        <ele>115.40000152588</ele>
        <time>2022-09-04T06:36:36.000Z</time>
      </trkpt>
      <trkpt lat="48.47904" lon="-2.77397">
        <ele>115.19999694824</ele>
        <time>2022-09-04T06:36:43.000Z</time>
      </trkpt>
      <trkpt lat="48.47904" lon="-2.77377">
        <ele>114.80000305176</ele>
        <time>2022-09-04T06:36:45.000Z</time>
      </trkpt>
      <trkpt lat="48.47904" lon="-2.77367">
        <ele>114.59999847412</ele>
        <time>2022-09-04T06:36:46.000Z</time>
      </trkpt>
      <trkpt lat="48.47904" lon="-2.77358">
        <ele>114.59999847412</ele>
        <time>2022-09-04T06:36:47.000Z</time>
      </trkpt>
      <trkpt lat="48.47904" lon="-2.77348">
        <ele>114.40000152588</ele>
        <time>2022-09-04T06:36:48.000Z</time>
      </trkpt>
      <trkpt lat="48.47904" lon="-2.77337">
        <ele>114.40000152588</ele>
        <time>2022-09-04T06:36:49.000Z</time>
      </trkpt>
      <trkpt lat="48.47904" lon="-2.77329">
        <ele>114.40000152588</ele>
        <time>2022-09-04T06:36:50.000Z</time>
      </trkpt>
      <trkpt lat="48.47904" lon="-2.7732">
        <ele>114.40000152588</ele>
        <time>2022-09-04T06:36:51.000Z</time>
      </trkpt>
      <trkpt lat="48.47904" lon="-2.77311">
        <ele>114.40000152588</ele>
        <time>2022-09-04T06:36:52.000Z</time>
      </trkpt>
      <trkpt lat="48.47904" lon="-2.77302">
        <ele>114.40000152588</ele>
        <time>2022-09-04T06:36:53.000Z</time>
      </trkpt>
      <trkpt lat="48.47904" lon="-2.77293">
        <ele>114.40000152588</ele>
        <time>2022-09-04T06:36:54.000Z</time>
      </trkpt>
      <trkpt lat="48.47904" lon="-2.77283">
        <ele>114.40000152588</ele>
        <time>2022-09-04T06:36:55.000Z</time>
      </trkpt>
      <trkpt lat="48.47903" lon="-2.77247">
        <ele>115</ele>
        <time>2022-09-04T06:36:59.000Z</time>
      </trkpt>
      <trkpt lat="48.47903" lon="-2.77192">
        <ele>115.19999694824</ele>
        <time>2022-09-04T06:37:05.000Z</time>
      </trkpt>
      <trkpt lat="48.47904" lon="-2.77146">
        <ele>115</ele>
        <time>2022-09-04T06:37:10.000Z</time>
      </trkpt>
      <trkpt lat="48.47903" lon="-2.77128">
        <ele>115</ele>
        <time>2022-09-04T06:37:12.000Z</time>
      </trkpt>
      <trkpt lat="48.47903" lon="-2.77122">
        <ele>115</ele>
        <time>2022-09-04T06:37:13.000Z</time>
      </trkpt>
      <trkpt lat="48.47904" lon="-2.77117">
        <ele>114.80000305176</ele>
        <time>2022-09-04T06:37:14.000Z</time>
      </trkpt>
      <trkpt lat="48.47907" lon="-2.77113">
        <ele>114.80000305176</ele>
        <time>2022-09-04T06:37:15.000Z</time>
      </trkpt>
      <trkpt lat="48.47911" lon="-2.7711">
        <ele>114.59999847412</ele>
        <time>2022-09-04T06:37:16.000Z</time>
      </trkpt>
      <trkpt lat="48.47922" lon="-2.7711">
        <ele>114.59999847412</ele>
        <time>2022-09-04T06:37:18.000Z</time>
      </trkpt>
      <trkpt lat="48.47929" lon="-2.77112">
        <ele>114.40000152588</ele>
        <time>2022-09-04T06:37:19.000Z</time>
      </trkpt>
      <trkpt lat="48.47935" lon="-2.77114">
        <ele>114.40000152588</ele>
        <time>2022-09-04T06:37:20.000Z</time>
      </trkpt>
      <trkpt lat="48.47942" lon="-2.77118">
        <ele>114.19999694824</ele>
        <time>2022-09-04T06:37:21.000Z</time>
      </trkpt>
      <trkpt lat="48.4795" lon="-2.77123">
        <ele>114.19999694824</ele>
        <time>2022-09-04T06:37:22.000Z</time>
      </trkpt>
      <trkpt lat="48.47961" lon="-2.77131">
        <ele>114.19999694824</ele>
        <time>2022-09-04T06:37:24.000Z</time>
      </trkpt>
      <trkpt lat="48.47967" lon="-2.77137">
        <ele>114</ele>
        <time>2022-09-04T06:37:25.000Z</time>
      </trkpt>
      <trkpt lat="48.47978" lon="-2.7715">
        <ele>113.80000305176</ele>
        <time>2022-09-04T06:37:27.000Z</time>
      </trkpt>
      <trkpt lat="48.47983" lon="-2.77157">
        <ele>113.59999847412</ele>
        <time>2022-09-04T06:37:28.000Z</time>
      </trkpt>
      <trkpt lat="48.47988" lon="-2.77165">
        <ele>113.59999847412</ele>
        <time>2022-09-04T06:37:29.000Z</time>
      </trkpt>
      <trkpt lat="48.47992" lon="-2.77173">
        <ele>113.59999847412</ele>
        <time>2022-09-04T06:37:30.000Z</time>
      </trkpt>
      <trkpt lat="48.48002" lon="-2.77189">
        <ele>113.40000152588</ele>
        <time>2022-09-04T06:37:32.000Z</time>
      </trkpt>
      <trkpt lat="48.48032" lon="-2.77236">
        <ele>113</ele>
        <time>2022-09-04T06:37:38.000Z</time>
      </trkpt>
      <trkpt lat="48.48044" lon="-2.77253">
        <ele>112.59999847412</ele>
        <time>2022-09-04T06:37:40.000Z</time>
      </trkpt>
      <trkpt lat="48.48057" lon="-2.7727">
        <ele>111.80000305176</ele>
        <time>2022-09-04T06:37:42.000Z</time>
      </trkpt>
      <trkpt lat="48.48072" lon="-2.77284">
        <ele>111.19999694824</ele>
        <time>2022-09-04T06:37:44.000Z</time>
      </trkpt>
      <trkpt lat="48.4808" lon="-2.77289">
        <ele>110.59999847412</ele>
        <time>2022-09-04T06:37:45.000Z</time>
      </trkpt>
      <trkpt lat="48.48088" lon="-2.77292">
        <ele>110.40000152588</ele>
        <time>2022-09-04T06:37:46.000Z</time>
      </trkpt>
      <trkpt lat="48.48106" lon="-2.77294">
        <ele>109.59999847412</ele>
        <time>2022-09-04T06:37:48.000Z</time>
      </trkpt>
      <trkpt lat="48.48114" lon="-2.77293">
        <ele>109</ele>
        <time>2022-09-04T06:37:49.000Z</time>
      </trkpt>
      <trkpt lat="48.48122" lon="-2.77291">
        <ele>108.80000305176</ele>
        <time>2022-09-04T06:37:50.000Z</time>
      </trkpt>
      <trkpt lat="48.4813" lon="-2.77289">
        <ele>108.40000152588</ele>
        <time>2022-09-04T06:37:51.000Z</time>
      </trkpt>
      <trkpt lat="48.48138" lon="-2.77287">
        <ele>107.80000305176</ele>
        <time>2022-09-04T06:37:52.000Z</time>
      </trkpt>
      <trkpt lat="48.48146" lon="-2.77285">
        <ele>107.59999847412</ele>
        <time>2022-09-04T06:37:53.000Z</time>
      </trkpt>
      <trkpt lat="48.48154" lon="-2.77282">
        <ele>107.59999847412</ele>
        <time>2022-09-04T06:37:54.000Z</time>
      </trkpt>
      <trkpt lat="48.48154" lon="-2.77282">
        <ele>107.40000152588</ele>
        <time>2022-09-04T06:37:55.000Z</time>
      </trkpt>
      <trkpt lat="48.4817" lon="-2.77275">
        <ele>107.40000152588</ele>
        <time>2022-09-04T06:37:56.000Z</time>
      </trkpt>
      <trkpt lat="48.48178" lon="-2.7727">
        <ele>107.19999694824</ele>
        <time>2022-09-04T06:37:57.000Z</time>
      </trkpt>
      <trkpt lat="48.48185" lon="-2.77264">
        <ele>107.19999694824</ele>
        <time>2022-09-04T06:37:58.000Z</time>
      </trkpt>
      <trkpt lat="48.48192" lon="-2.77259">
        <ele>107.19999694824</ele>
        <time>2022-09-04T06:37:59.000Z</time>
      </trkpt>
      <trkpt lat="48.48199" lon="-2.77254">
        <ele>107.19999694824</ele>
        <time>2022-09-04T06:38:00.000Z</time>
      </trkpt>
      <trkpt lat="48.48205" lon="-2.77249">
        <ele>107.40000152588</ele>
        <time>2022-09-04T06:38:01.000Z</time>
      </trkpt>
      <trkpt lat="48.48212" lon="-2.77244">
        <ele>107.40000152588</ele>
        <time>2022-09-04T06:38:02.000Z</time>
      </trkpt>
      <trkpt lat="48.48218" lon="-2.77239">
        <ele>107.40000152588</ele>
        <time>2022-09-04T06:38:03.000Z</time>
      </trkpt>
      <trkpt lat="48.48224" lon="-2.77236">
        <ele>107.59999847412</ele>
        <time>2022-09-04T06:38:04.000Z</time>
      </trkpt>
      <trkpt lat="48.48231" lon="-2.77233">
        <ele>107.59999847412</ele>
        <time>2022-09-04T06:38:05.000Z</time>
      </trkpt>
      <trkpt lat="48.48237" lon="-2.7723">
        <ele>107.80000305176</ele>
        <time>2022-09-04T06:38:06.000Z</time>
      </trkpt>
      <trkpt lat="48.48244" lon="-2.77227">
        <ele>107.80000305176</ele>
        <time>2022-09-04T06:38:07.000Z</time>
      </trkpt>
      <trkpt lat="48.48256" lon="-2.77216">
        <ele>107.80000305176</ele>
        <time>2022-09-04T06:38:09.000Z</time>
      </trkpt>
      <trkpt lat="48.4826" lon="-2.77208">
        <ele>107.80000305176</ele>
        <time>2022-09-04T06:38:10.000Z</time>
      </trkpt>
      <trkpt lat="48.48264" lon="-2.77199">
        <ele>107.80000305176</ele>
        <time>2022-09-04T06:38:11.000Z</time>
      </trkpt>
      <trkpt lat="48.48266" lon="-2.77189">
        <ele>107.80000305176</ele>
        <time>2022-09-04T06:38:12.000Z</time>
      </trkpt>
      <trkpt lat="48.48268" lon="-2.77178">
        <ele>107.59999847412</ele>
        <time>2022-09-04T06:38:13.000Z</time>
      </trkpt>
      <trkpt lat="48.4827" lon="-2.77168">
        <ele>107.59999847412</ele>
        <time>2022-09-04T06:38:14.000Z</time>
      </trkpt>
      <trkpt lat="48.48272" lon="-2.77157">
        <ele>107.59999847412</ele>
        <time>2022-09-04T06:38:15.000Z</time>
      </trkpt>
      <trkpt lat="48.48279" lon="-2.77095">
        <ele>107.40000152588</ele>
        <time>2022-09-04T06:38:21.000Z</time>
      </trkpt>
      <trkpt lat="48.4828" lon="-2.77085">
        <ele>107.40000152588</ele>
        <time>2022-09-04T06:38:22.000Z</time>
      </trkpt>
      <trkpt lat="48.48281" lon="-2.77075">
        <ele>107.40000152588</ele>
        <time>2022-09-04T06:38:23.000Z</time>
      </trkpt>
      <trkpt lat="48.48281" lon="-2.77065">
        <ele>107.40000152588</ele>
        <time>2022-09-04T06:38:24.000Z</time>
      </trkpt>
      <trkpt lat="48.48279" lon="-2.77056">
        <ele>107.19999694824</ele>
        <time>2022-09-04T06:38:25.000Z</time>
      </trkpt>
      <trkpt lat="48.48276" lon="-2.77046">
        <ele>107.19999694824</ele>
        <time>2022-09-04T06:38:26.000Z</time>
      </trkpt>
      <trkpt lat="48.48273" lon="-2.77038">
        <ele>107.19999694824</ele>
        <time>2022-09-04T06:38:27.000Z</time>
      </trkpt>
      <trkpt lat="48.48268" lon="-2.77032">
        <ele>107.40000152588</ele>
        <time>2022-09-04T06:38:28.000Z</time>
      </trkpt>
      <trkpt lat="48.48264" lon="-2.77027">
        <ele>107.19999694824</ele>
        <time>2022-09-04T06:38:29.000Z</time>
      </trkpt>
      <trkpt lat="48.4826" lon="-2.77021">
        <ele>107.19999694824</ele>
        <time>2022-09-04T06:38:30.000Z</time>
      </trkpt>
      <trkpt lat="48.48255" lon="-2.77017">
        <ele>107</ele>
        <time>2022-09-04T06:38:31.000Z</time>
      </trkpt>
      <trkpt lat="48.4825" lon="-2.77013">
        <ele>107</ele>
        <time>2022-09-04T06:38:32.000Z</time>
      </trkpt>
      <trkpt lat="48.48244" lon="-2.7701">
        <ele>107</ele>
        <time>2022-09-04T06:38:33.000Z</time>
      </trkpt>
      <trkpt lat="48.48238" lon="-2.77005">
        <ele>107</ele>
        <time>2022-09-04T06:38:34.000Z</time>
      </trkpt>
      <trkpt lat="48.48232" lon="-2.77">
        <ele>107</ele>
        <time>2022-09-04T06:38:35.000Z</time>
      </trkpt>
      <trkpt lat="48.48226" lon="-2.76994">
        <ele>107.19999694824</ele>
        <time>2022-09-04T06:38:36.000Z</time>
      </trkpt>
      <trkpt lat="48.48222" lon="-2.76987">
        <ele>107.80000305176</ele>
        <time>2022-09-04T06:38:37.000Z</time>
      </trkpt>
      <trkpt lat="48.48218" lon="-2.76979">
        <ele>108</ele>
        <time>2022-09-04T06:38:38.000Z</time>
      </trkpt>
      <trkpt lat="48.48217" lon="-2.76971">
        <ele>108.19999694824</ele>
        <time>2022-09-04T06:38:39.000Z</time>
      </trkpt>
      <trkpt lat="48.48216" lon="-2.76965">
        <ele>108.40000152588</ele>
        <time>2022-09-04T06:38:40.000Z</time>
      </trkpt>
      <trkpt lat="48.48214" lon="-2.76958">
        <ele>108.40000152588</ele>
        <time>2022-09-04T06:38:41.000Z</time>
      </trkpt>
      <trkpt lat="48.48213" lon="-2.76952">
        <ele>108.59999847412</ele>
        <time>2022-09-04T06:38:42.000Z</time>
      </trkpt>
      <trkpt lat="48.48212" lon="-2.76945">
        <ele>109.19999694824</ele>
        <time>2022-09-04T06:38:43.000Z</time>
      </trkpt>
      <trkpt lat="48.48211" lon="-2.76937">
        <ele>109.80000305176</ele>
        <time>2022-09-04T06:38:44.000Z</time>
      </trkpt>
      <trkpt lat="48.48209" lon="-2.76921">
        <ele>110.19999694824</ele>
        <time>2022-09-04T06:38:46.000Z</time>
      </trkpt>
      <trkpt lat="48.48208" lon="-2.76907">
        <ele>110.59999847412</ele>
        <time>2022-09-04T06:38:48.000Z</time>
      </trkpt>
      <trkpt lat="48.48205" lon="-2.76894">
        <ele>110.80000305176</ele>
        <time>2022-09-04T06:38:50.000Z</time>
      </trkpt>
      <trkpt lat="48.48204" lon="-2.76887">
        <ele>111</ele>
        <time>2022-09-04T06:38:51.000Z</time>
      </trkpt>
      <trkpt lat="48.48203" lon="-2.7688">
        <ele>111</ele>
        <time>2022-09-04T06:38:52.000Z</time>
      </trkpt>
      <trkpt lat="48.48202" lon="-2.76874">
        <ele>111.40000152588</ele>
        <time>2022-09-04T06:38:53.000Z</time>
      </trkpt>
      <trkpt lat="48.482" lon="-2.76867">
        <ele>111.59999847412</ele>
        <time>2022-09-04T06:38:54.000Z</time>
      </trkpt>
      <trkpt lat="48.48198" lon="-2.76861">
        <ele>111.80000305176</ele>
        <time>2022-09-04T06:38:55.000Z</time>
      </trkpt>
      <trkpt lat="48.48197" lon="-2.76856">
        <ele>111.80000305176</ele>
        <time>2022-09-04T06:38:56.000Z</time>
      </trkpt>
      <trkpt lat="48.48194" lon="-2.76851">
        <ele>112</ele>
        <time>2022-09-04T06:38:57.000Z</time>
      </trkpt>
      <trkpt lat="48.48192" lon="-2.76846">
        <ele>112</ele>
        <time>2022-09-04T06:38:58.000Z</time>
      </trkpt>
      <trkpt lat="48.48189" lon="-2.7684">
        <ele>112.40000152588</ele>
        <time>2022-09-04T06:38:59.000Z</time>
      </trkpt>
      <trkpt lat="48.48188" lon="-2.76834">
        <ele>112.40000152588</ele>
        <time>2022-09-04T06:39:00.000Z</time>
      </trkpt>
      <trkpt lat="48.48187" lon="-2.76825">
        <ele>112.40000152588</ele>
        <time>2022-09-04T06:39:01.000Z</time>
      </trkpt>
      <trkpt lat="48.48186" lon="-2.76817">
        <ele>112.59999847412</ele>
        <time>2022-09-04T06:39:02.000Z</time>
      </trkpt>
      <trkpt lat="48.48185" lon="-2.76808">
        <ele>112.59999847412</ele>
        <time>2022-09-04T06:39:03.000Z</time>
      </trkpt>
      <trkpt lat="48.48184" lon="-2.76802">
        <ele>112.59999847412</ele>
        <time>2022-09-04T06:39:04.000Z</time>
      </trkpt>
      <trkpt lat="48.48183" lon="-2.76795">
        <ele>112.59999847412</ele>
        <time>2022-09-04T06:39:05.000Z</time>
      </trkpt>
      <trkpt lat="48.48184" lon="-2.7679">
        <ele>112.80000305176</ele>
        <time>2022-09-04T06:39:06.000Z</time>
      </trkpt>
      <trkpt lat="48.48186" lon="-2.76783">
        <ele>112.80000305176</ele>
        <time>2022-09-04T06:39:07.000Z</time>
      </trkpt>
      <trkpt lat="48.48187" lon="-2.76776">
        <ele>113</ele>
        <time>2022-09-04T06:39:08.000Z</time>
      </trkpt>
      <trkpt lat="48.48188" lon="-2.7677">
        <ele>113</ele>
        <time>2022-09-04T06:39:09.000Z</time>
      </trkpt>
      <trkpt lat="48.4819" lon="-2.76764">
        <ele>113.19999694824</ele>
        <time>2022-09-04T06:39:10.000Z</time>
      </trkpt>
      <trkpt lat="48.48192" lon="-2.76757">
        <ele>113.19999694824</ele>
        <time>2022-09-04T06:39:11.000Z</time>
      </trkpt>
      <trkpt lat="48.48195" lon="-2.7675">
        <ele>113.40000152588</ele>
        <time>2022-09-04T06:39:12.000Z</time>
      </trkpt>
      <trkpt lat="48.48195" lon="-2.7675">
        <ele>113.40000152588</ele>
        <time>2022-09-04T06:39:13.000Z</time>
      </trkpt>
      <trkpt lat="48.48201" lon="-2.76739">
        <ele>113.59999847412</ele>
        <time>2022-09-04T06:39:14.000Z</time>
      </trkpt>
      <trkpt lat="48.48204" lon="-2.76736">
        <ele>113.59999847412</ele>
        <time>2022-09-04T06:39:15.000Z</time>
      </trkpt>
      <trkpt lat="48.48208" lon="-2.76733">
        <ele>113.80000305176</ele>
        <time>2022-09-04T06:39:16.000Z</time>
      </trkpt>
      <trkpt lat="48.48212" lon="-2.76733">
        <ele>114</ele>
        <time>2022-09-04T06:39:17.000Z</time>
      </trkpt>
      <trkpt lat="48.48216" lon="-2.76734">
        <ele>114</ele>
        <time>2022-09-04T06:39:18.000Z</time>
      </trkpt>
      <trkpt lat="48.48221" lon="-2.76734">
        <ele>114</ele>
        <time>2022-09-04T06:39:19.000Z</time>
      </trkpt>
      <trkpt lat="48.48227" lon="-2.76733">
        <ele>114</ele>
        <time>2022-09-04T06:39:20.000Z</time>
      </trkpt>
      <trkpt lat="48.48233" lon="-2.76734">
        <ele>114.19999694824</ele>
        <time>2022-09-04T06:39:21.000Z</time>
      </trkpt>
      <trkpt lat="48.48241" lon="-2.76734">
        <ele>114.19999694824</ele>
        <time>2022-09-04T06:39:22.000Z</time>
      </trkpt>
      <trkpt lat="48.48248" lon="-2.76734">
        <ele>114.19999694824</ele>
        <time>2022-09-04T06:39:23.000Z</time>
      </trkpt>
      <trkpt lat="48.48254" lon="-2.76734">
        <ele>114.19999694824</ele>
        <time>2022-09-04T06:39:24.000Z</time>
      </trkpt>
      <trkpt lat="48.48261" lon="-2.76733">
        <ele>114.19999694824</ele>
        <time>2022-09-04T06:39:25.000Z</time>
      </trkpt>
      <trkpt lat="48.48267" lon="-2.76734">
        <ele>114.19999694824</ele>
        <time>2022-09-04T06:39:26.000Z</time>
      </trkpt>
      <trkpt lat="48.48273" lon="-2.76736">
        <ele>114.19999694824</ele>
        <time>2022-09-04T06:39:27.000Z</time>
      </trkpt>
      <trkpt lat="48.48279" lon="-2.76739">
        <ele>114</ele>
        <time>2022-09-04T06:39:28.000Z</time>
      </trkpt>
      <trkpt lat="48.48284" lon="-2.76743">
        <ele>114</ele>
        <time>2022-09-04T06:39:29.000Z</time>
      </trkpt>
      <trkpt lat="48.4829" lon="-2.76746">
        <ele>113.80000305176</ele>
        <time>2022-09-04T06:39:30.000Z</time>
      </trkpt>
      <trkpt lat="48.48295" lon="-2.7675">
        <ele>114</ele>
        <time>2022-09-04T06:39:31.000Z</time>
      </trkpt>
      <trkpt lat="48.483" lon="-2.76754">
        <ele>113.80000305176</ele>
        <time>2022-09-04T06:39:32.000Z</time>
      </trkpt>
      <trkpt lat="48.48304" lon="-2.76758">
        <ele>113.80000305176</ele>
        <time>2022-09-04T06:39:33.000Z</time>
      </trkpt>
      <trkpt lat="48.48309" lon="-2.76762">
        <ele>114</ele>
        <time>2022-09-04T06:39:34.000Z</time>
      </trkpt>
      <trkpt lat="48.48315" lon="-2.76766">
        <ele>114</ele>
        <time>2022-09-04T06:39:35.000Z</time>
      </trkpt>
      <trkpt lat="48.4832" lon="-2.76769">
        <ele>114</ele>
        <time>2022-09-04T06:39:36.000Z</time>
      </trkpt>
      <trkpt lat="48.48323" lon="-2.76773">
        <ele>114</ele>
        <time>2022-09-04T06:39:37.000Z</time>
      </trkpt>
      <trkpt lat="48.48328" lon="-2.76777">
        <ele>114</ele>
        <time>2022-09-04T06:39:38.000Z</time>
      </trkpt>
      <trkpt lat="48.48332" lon="-2.7678">
        <ele>114.19999694824</ele>
        <time>2022-09-04T06:39:39.000Z</time>
      </trkpt>
      <trkpt lat="48.48342" lon="-2.76783">
        <ele>114.19999694824</ele>
        <time>2022-09-04T06:39:41.000Z</time>
      </trkpt>
      <trkpt lat="48.48348" lon="-2.76784">
        <ele>114.40000152588</ele>
        <time>2022-09-04T06:39:42.000Z</time>
      </trkpt>
      <trkpt lat="48.48353" lon="-2.76784">
        <ele>114.40000152588</ele>
        <time>2022-09-04T06:39:43.000Z</time>
      </trkpt>
      <trkpt lat="48.48393" lon="-2.76784">
        <ele>114</ele>
        <time>2022-09-04T06:39:49.000Z</time>
      </trkpt>
      <trkpt lat="48.48419" lon="-2.76783">
        <ele>113</ele>
        <time>2022-09-04T06:39:52.000Z</time>
      </trkpt>
      <trkpt lat="48.48443" lon="-2.76777">
        <ele>112.19999694824</ele>
        <time>2022-09-04T06:39:55.000Z</time>
      </trkpt>
      <trkpt lat="48.48451" lon="-2.76774">
        <ele>111.80000305176</ele>
        <time>2022-09-04T06:39:56.000Z</time>
      </trkpt>
      <trkpt lat="48.48478" lon="-2.76765">
        <ele>110.40000152588</ele>
        <time>2022-09-04T06:39:59.000Z</time>
      </trkpt>
      <trkpt lat="48.48504" lon="-2.76756">
        <ele>109.19999694824</ele>
        <time>2022-09-04T06:40:02.000Z</time>
      </trkpt>
      <trkpt lat="48.48522" lon="-2.76749">
        <ele>108</ele>
        <time>2022-09-04T06:40:04.000Z</time>
      </trkpt>
      <trkpt lat="48.48549" lon="-2.76737">
        <ele>106.59999847412</ele>
        <time>2022-09-04T06:40:07.000Z</time>
      </trkpt>
      <trkpt lat="48.48566" lon="-2.76729">
        <ele>105</ele>
        <time>2022-09-04T06:40:09.000Z</time>
      </trkpt>
      <trkpt lat="48.48584" lon="-2.7672">
        <ele>104</ele>
        <time>2022-09-04T06:40:11.000Z</time>
      </trkpt>
      <trkpt lat="48.48591" lon="-2.76716">
        <ele>103.59999847412</ele>
        <time>2022-09-04T06:40:12.000Z</time>
      </trkpt>
      <trkpt lat="48.48598" lon="-2.76711">
        <ele>103.19999694824</ele>
        <time>2022-09-04T06:40:13.000Z</time>
      </trkpt>
      <trkpt lat="48.48604" lon="-2.76705">
        <ele>102.59999847412</ele>
        <time>2022-09-04T06:40:14.000Z</time>
      </trkpt>
      <trkpt lat="48.4861" lon="-2.76699">
        <ele>102.19999694824</ele>
        <time>2022-09-04T06:40:15.000Z</time>
      </trkpt>
      <trkpt lat="48.48617" lon="-2.76693">
        <ele>102</ele>
        <time>2022-09-04T06:40:16.000Z</time>
      </trkpt>
      <trkpt lat="48.48624" lon="-2.76688">
        <ele>101.80000305176</ele>
        <time>2022-09-04T06:40:17.000Z</time>
      </trkpt>
      <trkpt lat="48.48631" lon="-2.76684">
        <ele>101.19999694824</ele>
        <time>2022-09-04T06:40:18.000Z</time>
      </trkpt>
      <trkpt lat="48.48637" lon="-2.7668">
        <ele>101</ele>
        <time>2022-09-04T06:40:19.000Z</time>
      </trkpt>
      <trkpt lat="48.48644" lon="-2.76676">
        <ele>100.80000305176</ele>
        <time>2022-09-04T06:40:20.000Z</time>
      </trkpt>
      <trkpt lat="48.48651" lon="-2.76672">
        <ele>100.80000305176</ele>
        <time>2022-09-04T06:40:21.000Z</time>
      </trkpt>
      <trkpt lat="48.48657" lon="-2.76668">
        <ele>100.59999847412</ele>
        <time>2022-09-04T06:40:22.000Z</time>
      </trkpt>
      <trkpt lat="48.48663" lon="-2.76664">
        <ele>100.59999847412</ele>
        <time>2022-09-04T06:40:23.000Z</time>
      </trkpt>
      <trkpt lat="48.48669" lon="-2.76659">
        <ele>100.40000152588</ele>
        <time>2022-09-04T06:40:24.000Z</time>
      </trkpt>
      <trkpt lat="48.48675" lon="-2.76654">
        <ele>99.800003051758</ele>
        <time>2022-09-04T06:40:25.000Z</time>
      </trkpt>
      <trkpt lat="48.48686" lon="-2.76641">
        <ele>99.400001525879</ele>
        <time>2022-09-04T06:40:27.000Z</time>
      </trkpt>
      <trkpt lat="48.487" lon="-2.7663">
        <ele>99</ele>
        <time>2022-09-04T06:40:29.000Z</time>
      </trkpt>
      <trkpt lat="48.48708" lon="-2.76626">
        <ele>99</ele>
        <time>2022-09-04T06:40:30.000Z</time>
      </trkpt>
      <trkpt lat="48.48716" lon="-2.76624">
        <ele>98.800003051758</ele>
        <time>2022-09-04T06:40:31.000Z</time>
      </trkpt>
      <trkpt lat="48.48723" lon="-2.76625">
        <ele>98.800003051758</ele>
        <time>2022-09-04T06:40:32.000Z</time>
      </trkpt>
      <trkpt lat="48.48731" lon="-2.76628">
        <ele>98</ele>
        <time>2022-09-04T06:40:33.000Z</time>
      </trkpt>
      <trkpt lat="48.48739" lon="-2.76632">
        <ele>97.599998474121</ele>
        <time>2022-09-04T06:40:34.000Z</time>
      </trkpt>
      <trkpt lat="48.48747" lon="-2.76637">
        <ele>97</ele>
        <time>2022-09-04T06:40:35.000Z</time>
      </trkpt>
      <trkpt lat="48.48756" lon="-2.76641">
        <ele>96.599998474121</ele>
        <time>2022-09-04T06:40:36.000Z</time>
      </trkpt>
      <trkpt lat="48.48764" lon="-2.76643">
        <ele>96.199996948242</ele>
        <time>2022-09-04T06:40:37.000Z</time>
      </trkpt>
      <trkpt lat="48.48772" lon="-2.76642">
        <ele>95.400001525879</ele>
        <time>2022-09-04T06:40:38.000Z</time>
      </trkpt>
      <trkpt lat="48.48778" lon="-2.76637">
        <ele>94.599998474121</ele>
        <time>2022-09-04T06:40:39.000Z</time>
      </trkpt>
      <trkpt lat="48.48784" lon="-2.76629">
        <ele>93</ele>
        <time>2022-09-04T06:40:40.000Z</time>
      </trkpt>
      <trkpt lat="48.48789" lon="-2.7662">
        <ele>92.599998474121</ele>
        <time>2022-09-04T06:40:41.000Z</time>
      </trkpt>
      <trkpt lat="48.48799" lon="-2.76602">
        <ele>92</ele>
        <time>2022-09-04T06:40:43.000Z</time>
      </trkpt>
      <trkpt lat="48.48804" lon="-2.76593">
        <ele>91.400001525879</ele>
        <time>2022-09-04T06:40:44.000Z</time>
      </trkpt>
      <trkpt lat="48.48809" lon="-2.76583">
        <ele>91.199996948242</ele>
        <time>2022-09-04T06:40:45.000Z</time>
      </trkpt>
      <trkpt lat="48.48815" lon="-2.76575">
        <ele>91</ele>
        <time>2022-09-04T06:40:46.000Z</time>
      </trkpt>
      <trkpt lat="48.4882" lon="-2.76566">
        <ele>91</ele>
        <time>2022-09-04T06:40:47.000Z</time>
      </trkpt>
      <trkpt lat="48.48825" lon="-2.76558">
        <ele>91</ele>
        <time>2022-09-04T06:40:48.000Z</time>
      </trkpt>
      <trkpt lat="48.4883" lon="-2.76551">
        <ele>90.800003051758</ele>
        <time>2022-09-04T06:40:49.000Z</time>
      </trkpt>
      <trkpt lat="48.48843" lon="-2.76537">
        <ele>90.800003051758</ele>
        <time>2022-09-04T06:40:51.000Z</time>
      </trkpt>
      <trkpt lat="48.48849" lon="-2.76531">
        <ele>90.800003051758</ele>
        <time>2022-09-04T06:40:52.000Z</time>
      </trkpt>
      <trkpt lat="48.48855" lon="-2.76524">
        <ele>90.400001525879</ele>
        <time>2022-09-04T06:40:53.000Z</time>
      </trkpt>
      <trkpt lat="48.4886" lon="-2.76517">
        <ele>90.400001525879</ele>
        <time>2022-09-04T06:40:54.000Z</time>
      </trkpt>
      <trkpt lat="48.48863" lon="-2.76508">
        <ele>90.400001525879</ele>
        <time>2022-09-04T06:40:55.000Z</time>
      </trkpt>
      <trkpt lat="48.48866" lon="-2.76498">
        <ele>90.400001525879</ele>
        <time>2022-09-04T06:40:56.000Z</time>
      </trkpt>
      <trkpt lat="48.48867" lon="-2.76486">
        <ele>90.199996948242</ele>
        <time>2022-09-04T06:40:57.000Z</time>
      </trkpt>
      <trkpt lat="48.48869" lon="-2.76474">
        <ele>90.199996948242</ele>
        <time>2022-09-04T06:40:58.000Z</time>
      </trkpt>
      <trkpt lat="48.48869" lon="-2.76462">
        <ele>90.199996948242</ele>
        <time>2022-09-04T06:40:59.000Z</time>
      </trkpt>
      <trkpt lat="48.48872" lon="-2.76437">
        <ele>90</ele>
        <time>2022-09-04T06:41:01.000Z</time>
      </trkpt>
      <trkpt lat="48.48872" lon="-2.76426">
        <ele>89.800003051758</ele>
        <time>2022-09-04T06:41:02.000Z</time>
      </trkpt>
      <trkpt lat="48.48871" lon="-2.76414">
        <ele>89.800003051758</ele>
        <time>2022-09-04T06:41:03.000Z</time>
      </trkpt>
      <trkpt lat="48.4887" lon="-2.76378">
        <ele>89.400001525879</ele>
        <time>2022-09-04T06:41:06.000Z</time>
      </trkpt>
      <trkpt lat="48.48869" lon="-2.76366">
        <ele>89.400001525879</ele>
        <time>2022-09-04T06:41:07.000Z</time>
      </trkpt>
      <trkpt lat="48.48867" lon="-2.76354">
        <ele>89</ele>
        <time>2022-09-04T06:41:08.000Z</time>
      </trkpt>
      <trkpt lat="48.48866" lon="-2.76343">
        <ele>88.800003051758</ele>
        <time>2022-09-04T06:41:09.000Z</time>
      </trkpt>
      <trkpt lat="48.48865" lon="-2.76332">
        <ele>88.599998474121</ele>
        <time>2022-09-04T06:41:10.000Z</time>
      </trkpt>
      <trkpt lat="48.48863" lon="-2.76322">
        <ele>88.599998474121</ele>
        <time>2022-09-04T06:41:11.000Z</time>
      </trkpt>
      <trkpt lat="48.4886" lon="-2.76313">
        <ele>88.400001525879</ele>
        <time>2022-09-04T06:41:12.000Z</time>
      </trkpt>
      <trkpt lat="48.48857" lon="-2.76304">
        <ele>88.400001525879</ele>
        <time>2022-09-04T06:41:13.000Z</time>
      </trkpt>
      <trkpt lat="48.48855" lon="-2.76295">
        <ele>88.400001525879</ele>
        <time>2022-09-04T06:41:14.000Z</time>
      </trkpt>
      <trkpt lat="48.48854" lon="-2.76285">
        <ele>88.599998474121</ele>
        <time>2022-09-04T06:41:15.000Z</time>
      </trkpt>
      <trkpt lat="48.48855" lon="-2.76276">
        <ele>88.599998474121</ele>
        <time>2022-09-04T06:41:16.000Z</time>
      </trkpt>
      <trkpt lat="48.48856" lon="-2.76266">
        <ele>89</ele>
        <time>2022-09-04T06:41:17.000Z</time>
      </trkpt>
      <trkpt lat="48.48857" lon="-2.76256">
        <ele>89</ele>
        <time>2022-09-04T06:41:18.000Z</time>
      </trkpt>
      <trkpt lat="48.48858" lon="-2.76247">
        <ele>89.199996948242</ele>
        <time>2022-09-04T06:41:19.000Z</time>
      </trkpt>
      <trkpt lat="48.48858" lon="-2.76238">
        <ele>89.199996948242</ele>
        <time>2022-09-04T06:41:20.000Z</time>
      </trkpt>
      <trkpt lat="48.48858" lon="-2.76229">
        <ele>89.599998474121</ele>
        <time>2022-09-04T06:41:21.000Z</time>
      </trkpt>
      <trkpt lat="48.48858" lon="-2.76219">
        <ele>89.599998474121</ele>
        <time>2022-09-04T06:41:22.000Z</time>
      </trkpt>
      <trkpt lat="48.48856" lon="-2.76192">
        <ele>90</ele>
        <time>2022-09-04T06:41:25.000Z</time>
      </trkpt>
      <trkpt lat="48.48856" lon="-2.76182">
        <ele>90.199996948242</ele>
        <time>2022-09-04T06:41:26.000Z</time>
      </trkpt>
      <trkpt lat="48.48855" lon="-2.76164">
        <ele>90.599998474121</ele>
        <time>2022-09-04T06:41:28.000Z</time>
      </trkpt>
      <trkpt lat="48.48855" lon="-2.76155">
        <ele>90.800003051758</ele>
        <time>2022-09-04T06:41:29.000Z</time>
      </trkpt>
      <trkpt lat="48.48853" lon="-2.76117">
        <ele>91.599998474121</ele>
        <time>2022-09-04T06:41:33.000Z</time>
      </trkpt>
      <trkpt lat="48.48852" lon="-2.76108">
        <ele>91.800003051758</ele>
        <time>2022-09-04T06:41:35.000Z</time>
      </trkpt>
      <trkpt lat="48.48849" lon="-2.7607">
        <ele>92.199996948242</ele>
        <time>2022-09-04T06:41:38.000Z</time>
      </trkpt>
      <trkpt lat="48.48849" lon="-2.7606">
        <ele>92.199996948242</ele>
        <time>2022-09-04T06:41:39.000Z</time>
      </trkpt>
      <trkpt lat="48.48848" lon="-2.7605">
        <ele>92.400001525879</ele>
        <time>2022-09-04T06:41:40.000Z</time>
      </trkpt>
      <trkpt lat="48.48848" lon="-2.7604">
        <ele>92.400001525879</ele>
        <time>2022-09-04T06:41:41.000Z</time>
      </trkpt>
      <trkpt lat="48.48848" lon="-2.76031">
        <ele>92.599998474121</ele>
        <time>2022-09-04T06:41:42.000Z</time>
      </trkpt>
      <trkpt lat="48.48848" lon="-2.76021">
        <ele>93</ele>
        <time>2022-09-04T06:41:43.000Z</time>
      </trkpt>
      <trkpt lat="48.48849" lon="-2.76011">
        <ele>93.199996948242</ele>
        <time>2022-09-04T06:41:44.000Z</time>
      </trkpt>
      <trkpt lat="48.48849" lon="-2.76002">
        <ele>93.599998474121</ele>
        <time>2022-09-04T06:41:45.000Z</time>
      </trkpt>
      <trkpt lat="48.4885" lon="-2.75992">
        <ele>94</ele>
        <time>2022-09-04T06:41:46.000Z</time>
      </trkpt>
      <trkpt lat="48.4885" lon="-2.75982">
        <ele>94</ele>
        <time>2022-09-04T06:41:47.000Z</time>
      </trkpt>
      <trkpt lat="48.48851" lon="-2.75973">
        <ele>94.400001525879</ele>
        <time>2022-09-04T06:41:48.000Z</time>
      </trkpt>
      <trkpt lat="48.48852" lon="-2.75964">
        <ele>94.599998474121</ele>
        <time>2022-09-04T06:41:49.000Z</time>
      </trkpt>
      <trkpt lat="48.48852" lon="-2.75956">
        <ele>94.800003051758</ele>
        <time>2022-09-04T06:41:50.000Z</time>
      </trkpt>
      <trkpt lat="48.48853" lon="-2.75947">
        <ele>95</ele>
        <time>2022-09-04T06:41:51.000Z</time>
      </trkpt>
      <trkpt lat="48.48855" lon="-2.75938">
        <ele>95.400001525879</ele>
        <time>2022-09-04T06:41:52.000Z</time>
      </trkpt>
      <trkpt lat="48.48857" lon="-2.75929">
        <ele>95.400001525879</ele>
        <time>2022-09-04T06:41:53.000Z</time>
      </trkpt>
      <trkpt lat="48.48859" lon="-2.7592">
        <ele>96</ele>
        <time>2022-09-04T06:41:54.000Z</time>
      </trkpt>
      <trkpt lat="48.48861" lon="-2.75912">
        <ele>96.199996948242</ele>
        <time>2022-09-04T06:41:55.000Z</time>
      </trkpt>
      <trkpt lat="48.48864" lon="-2.75903">
        <ele>96.599998474121</ele>
        <time>2022-09-04T06:41:56.000Z</time>
      </trkpt>
      <trkpt lat="48.48866" lon="-2.75894">
        <ele>96.800003051758</ele>
        <time>2022-09-04T06:41:57.000Z</time>
      </trkpt>
      <trkpt lat="48.48869" lon="-2.75886">
        <ele>97.199996948242</ele>
        <time>2022-09-04T06:41:58.000Z</time>
      </trkpt>
      <trkpt lat="48.4887" lon="-2.75878">
        <ele>97.400001525879</ele>
        <time>2022-09-04T06:41:59.000Z</time>
      </trkpt>
      <trkpt lat="48.48871" lon="-2.75871">
        <ele>97.400001525879</ele>
        <time>2022-09-04T06:42:00.000Z</time>
      </trkpt>
      <trkpt lat="48.4887" lon="-2.75865">
        <ele>97.800003051758</ele>
        <time>2022-09-04T06:42:01.000Z</time>
      </trkpt>
      <trkpt lat="48.48868" lon="-2.75862">
        <ele>98.199996948242</ele>
        <time>2022-09-04T06:42:02.000Z</time>
      </trkpt>
      <trkpt lat="48.48866" lon="-2.75859">
        <ele>98.400001525879</ele>
        <time>2022-09-04T06:42:03.000Z</time>
      </trkpt>
      <trkpt lat="48.48863" lon="-2.75855">
        <ele>98.599998474121</ele>
        <time>2022-09-04T06:42:04.000Z</time>
      </trkpt>
      <trkpt lat="48.4886" lon="-2.75852">
        <ele>98.800003051758</ele>
        <time>2022-09-04T06:42:05.000Z</time>
      </trkpt>
      <trkpt lat="48.48858" lon="-2.75849">
        <ele>99</ele>
        <time>2022-09-04T06:42:06.000Z</time>
      </trkpt>
      <trkpt lat="48.48856" lon="-2.75846">
        <ele>100.19999694824</ele>
        <time>2022-09-04T06:42:07.000Z</time>
      </trkpt>
      <trkpt lat="48.48854" lon="-2.75842">
        <ele>100.40000152588</ele>
        <time>2022-09-04T06:42:08.000Z</time>
      </trkpt>
      <trkpt lat="48.48851" lon="-2.75839">
        <ele>100.80000305176</ele>
        <time>2022-09-04T06:42:09.000Z</time>
      </trkpt>
      <trkpt lat="48.48848" lon="-2.75836">
        <ele>101.19999694824</ele>
        <time>2022-09-04T06:42:10.000Z</time>
      </trkpt>
      <trkpt lat="48.48846" lon="-2.75833">
        <ele>101.40000152588</ele>
        <time>2022-09-04T06:42:11.000Z</time>
      </trkpt>
      <trkpt lat="48.48843" lon="-2.7583">
        <ele>101.40000152588</ele>
        <time>2022-09-04T06:42:12.000Z</time>
      </trkpt>
      <trkpt lat="48.4884" lon="-2.75827">
        <ele>101.80000305176</ele>
        <time>2022-09-04T06:42:13.000Z</time>
      </trkpt>
      <trkpt lat="48.48838" lon="-2.75825">
        <ele>102.19999694824</ele>
        <time>2022-09-04T06:42:14.000Z</time>
      </trkpt>
      <trkpt lat="48.48835" lon="-2.75823">
        <ele>102.59999847412</ele>
        <time>2022-09-04T06:42:15.000Z</time>
      </trkpt>
      <trkpt lat="48.48832" lon="-2.75821">
        <ele>103</ele>
        <time>2022-09-04T06:42:16.000Z</time>
      </trkpt>
      <trkpt lat="48.48829" lon="-2.75818">
        <ele>103.40000152588</ele>
        <time>2022-09-04T06:42:17.000Z</time>
      </trkpt>
      <trkpt lat="48.48827" lon="-2.75815">
        <ele>103.80000305176</ele>
        <time>2022-09-04T06:42:18.000Z</time>
      </trkpt>
      <trkpt lat="48.48824" lon="-2.75811">
        <ele>104</ele>
        <time>2022-09-04T06:42:19.000Z</time>
      </trkpt>
      <trkpt lat="48.4882" lon="-2.75808">
        <ele>104.59999847412</ele>
        <time>2022-09-04T06:42:20.000Z</time>
      </trkpt>
      <trkpt lat="48.48815" lon="-2.75806">
        <ele>104.59999847412</ele>
        <time>2022-09-04T06:42:21.000Z</time>
      </trkpt>
      <trkpt lat="48.48811" lon="-2.75803">
        <ele>105</ele>
        <time>2022-09-04T06:42:22.000Z</time>
      </trkpt>
      <trkpt lat="48.48807" lon="-2.758">
        <ele>105.19999694824</ele>
        <time>2022-09-04T06:42:23.000Z</time>
      </trkpt>
      <trkpt lat="48.48804" lon="-2.75797">
        <ele>105.19999694824</ele>
        <time>2022-09-04T06:42:24.000Z</time>
      </trkpt>
      <trkpt lat="48.48801" lon="-2.75794">
        <ele>105.40000152588</ele>
        <time>2022-09-04T06:42:25.000Z</time>
      </trkpt>
      <trkpt lat="48.48798" lon="-2.75791">
        <ele>105.59999847412</ele>
        <time>2022-09-04T06:42:26.000Z</time>
      </trkpt>
      <trkpt lat="48.48796" lon="-2.75788">
        <ele>105.80000305176</ele>
        <time>2022-09-04T06:42:27.000Z</time>
      </trkpt>
      <trkpt lat="48.48794" lon="-2.75786">
        <ele>106</ele>
        <time>2022-09-04T06:42:28.000Z</time>
      </trkpt>
      <trkpt lat="48.4879" lon="-2.75783">
        <ele>106.40000152588</ele>
        <time>2022-09-04T06:42:29.000Z</time>
      </trkpt>
      <trkpt lat="48.48786" lon="-2.7578">
        <ele>106.59999847412</ele>
        <time>2022-09-04T06:42:30.000Z</time>
      </trkpt>
      <trkpt lat="48.4878" lon="-2.75776">
        <ele>107</ele>
        <time>2022-09-04T06:42:31.000Z</time>
      </trkpt>
      <trkpt lat="48.48775" lon="-2.75773">
        <ele>107.19999694824</ele>
        <time>2022-09-04T06:42:32.000Z</time>
      </trkpt>
      <trkpt lat="48.48771" lon="-2.7577">
        <ele>107.40000152588</ele>
        <time>2022-09-04T06:42:33.000Z</time>
      </trkpt>
      <trkpt lat="48.48766" lon="-2.75768">
        <ele>107.59999847412</ele>
        <time>2022-09-04T06:42:34.000Z</time>
      </trkpt>
      <trkpt lat="48.48761" lon="-2.75765">
        <ele>107.80000305176</ele>
        <time>2022-09-04T06:42:35.000Z</time>
      </trkpt>
      <trkpt lat="48.48756" lon="-2.75764">
        <ele>107.80000305176</ele>
        <time>2022-09-04T06:42:36.000Z</time>
      </trkpt>
      <trkpt lat="48.48752" lon="-2.75761">
        <ele>107.80000305176</ele>
        <time>2022-09-04T06:42:37.000Z</time>
      </trkpt>
      <trkpt lat="48.48747" lon="-2.75758">
        <ele>107.80000305176</ele>
        <time>2022-09-04T06:42:38.000Z</time>
      </trkpt>
      <trkpt lat="48.48742" lon="-2.75755">
        <ele>107.80000305176</ele>
        <time>2022-09-04T06:42:39.000Z</time>
      </trkpt>
      <trkpt lat="48.48738" lon="-2.75752">
        <ele>108</ele>
        <time>2022-09-04T06:42:40.000Z</time>
      </trkpt>
      <trkpt lat="48.48733" lon="-2.7575">
        <ele>108</ele>
        <time>2022-09-04T06:42:41.000Z</time>
      </trkpt>
      <trkpt lat="48.48729" lon="-2.75748">
        <ele>108</ele>
        <time>2022-09-04T06:42:42.000Z</time>
      </trkpt>
      <trkpt lat="48.48724" lon="-2.75746">
        <ele>107.80000305176</ele>
        <time>2022-09-04T06:42:43.000Z</time>
      </trkpt>
      <trkpt lat="48.4872" lon="-2.75743">
        <ele>107.80000305176</ele>
        <time>2022-09-04T06:42:44.000Z</time>
      </trkpt>
      <trkpt lat="48.48717" lon="-2.7574">
        <ele>107.80000305176</ele>
        <time>2022-09-04T06:42:45.000Z</time>
      </trkpt>
      <trkpt lat="48.48715" lon="-2.75735">
        <ele>107.80000305176</ele>
        <time>2022-09-04T06:42:46.000Z</time>
      </trkpt>
      <trkpt lat="48.48716" lon="-2.7573">
        <ele>107.80000305176</ele>
        <time>2022-09-04T06:42:47.000Z</time>
      </trkpt>
      <trkpt lat="48.4872" lon="-2.75726">
        <ele>107.59999847412</ele>
        <time>2022-09-04T06:42:48.000Z</time>
      </trkpt>
      <trkpt lat="48.48724" lon="-2.75724">
        <ele>107.59999847412</ele>
        <time>2022-09-04T06:42:49.000Z</time>
      </trkpt>
      <trkpt lat="48.4873" lon="-2.75722">
        <ele>107.40000152588</ele>
        <time>2022-09-04T06:42:50.000Z</time>
      </trkpt>
      <trkpt lat="48.48736" lon="-2.75719">
        <ele>107.19999694824</ele>
        <time>2022-09-04T06:42:51.000Z</time>
      </trkpt>
      <trkpt lat="48.48742" lon="-2.75717">
        <ele>107.19999694824</ele>
        <time>2022-09-04T06:42:52.000Z</time>
      </trkpt>
      <trkpt lat="48.48748" lon="-2.75714">
        <ele>106.80000305176</ele>
        <time>2022-09-04T06:42:53.000Z</time>
      </trkpt>
      <trkpt lat="48.48755" lon="-2.75712">
        <ele>106.80000305176</ele>
        <time>2022-09-04T06:42:54.000Z</time>
      </trkpt>
      <trkpt lat="48.48762" lon="-2.7571">
        <ele>106.19999694824</ele>
        <time>2022-09-04T06:42:55.000Z</time>
      </trkpt>
      <trkpt lat="48.48776" lon="-2.75705">
        <ele>105.80000305176</ele>
        <time>2022-09-04T06:42:57.000Z</time>
      </trkpt>
      <trkpt lat="48.48798" lon="-2.75695">
        <ele>105.19999694824</ele>
        <time>2022-09-04T06:43:00.000Z</time>
      </trkpt>
      <trkpt lat="48.48822" lon="-2.75686">
        <ele>104.40000152588</ele>
        <time>2022-09-04T06:43:03.000Z</time>
      </trkpt>
      <trkpt lat="48.4883" lon="-2.75683">
        <ele>104.19999694824</ele>
        <time>2022-09-04T06:43:04.000Z</time>
      </trkpt>
      <trkpt lat="48.48836" lon="-2.7568">
        <ele>104</ele>
        <time>2022-09-04T06:43:05.000Z</time>
      </trkpt>
      <trkpt lat="48.4884" lon="-2.75676">
        <ele>103.59999847412</ele>
        <time>2022-09-04T06:43:06.000Z</time>
      </trkpt>
      <trkpt lat="48.48843" lon="-2.75671">
        <ele>103.19999694824</ele>
        <time>2022-09-04T06:43:07.000Z</time>
      </trkpt>
      <trkpt lat="48.48843" lon="-2.75665">
        <ele>102.80000305176</ele>
        <time>2022-09-04T06:43:08.000Z</time>
      </trkpt>
      <trkpt lat="48.48842" lon="-2.75659">
        <ele>102.40000152588</ele>
        <time>2022-09-04T06:43:09.000Z</time>
      </trkpt>
      <trkpt lat="48.48836" lon="-2.75638">
        <ele>101.80000305176</ele>
        <time>2022-09-04T06:43:12.000Z</time>
      </trkpt>
      <trkpt lat="48.48835" lon="-2.7563">
        <ele>101.59999847412</ele>
        <time>2022-09-04T06:43:13.000Z</time>
      </trkpt>
      <trkpt lat="48.48824" lon="-2.75578">
        <ele>101.40000152588</ele>
        <time>2022-09-04T06:43:19.000Z</time>
      </trkpt>
      <trkpt lat="48.48819" lon="-2.75551">
        <ele>101.40000152588</ele>
        <time>2022-09-04T06:43:22.000Z</time>
      </trkpt>
      <trkpt lat="48.48821" lon="-2.75534">
        <ele>101.40000152588</ele>
        <time>2022-09-04T06:43:24.000Z</time>
      </trkpt>
      <trkpt lat="48.48824" lon="-2.75527">
        <ele>101.40000152588</ele>
        <time>2022-09-04T06:43:25.000Z</time>
      </trkpt>
      <trkpt lat="48.48827" lon="-2.75519">
        <ele>101.19999694824</ele>
        <time>2022-09-04T06:43:26.000Z</time>
      </trkpt>
      <trkpt lat="48.4883" lon="-2.75511">
        <ele>101.19999694824</ele>
        <time>2022-09-04T06:43:27.000Z</time>
      </trkpt>
      <trkpt lat="48.48833" lon="-2.75502">
        <ele>101</ele>
        <time>2022-09-04T06:43:28.000Z</time>
      </trkpt>
      <trkpt lat="48.48835" lon="-2.75494">
        <ele>101</ele>
        <time>2022-09-04T06:43:29.000Z</time>
      </trkpt>
      <trkpt lat="48.48843" lon="-2.75478">
        <ele>100.59999847412</ele>
        <time>2022-09-04T06:43:31.000Z</time>
      </trkpt>
      <trkpt lat="48.48846" lon="-2.7547">
        <ele>100.40000152588</ele>
        <time>2022-09-04T06:43:32.000Z</time>
      </trkpt>
      <trkpt lat="48.48853" lon="-2.75451">
        <ele>100</ele>
        <time>2022-09-04T06:43:34.000Z</time>
      </trkpt>
      <trkpt lat="48.48855" lon="-2.75443">
        <ele>99.599998474121</ele>
        <time>2022-09-04T06:43:35.000Z</time>
      </trkpt>
      <trkpt lat="48.48856" lon="-2.75437">
        <ele>99.599998474121</ele>
        <time>2022-09-04T06:43:36.000Z</time>
      </trkpt>
      <trkpt lat="48.48856" lon="-2.75431">
        <ele>99.199996948242</ele>
        <time>2022-09-04T06:43:37.000Z</time>
      </trkpt>
      <trkpt lat="48.48854" lon="-2.75428">
        <ele>99.199996948242</ele>
        <time>2022-09-04T06:43:38.000Z</time>
      </trkpt>
      <trkpt lat="48.48851" lon="-2.75425">
        <ele>99</ele>
        <time>2022-09-04T06:43:39.000Z</time>
      </trkpt>
      <trkpt lat="48.48848" lon="-2.75424">
        <ele>98.800003051758</ele>
        <time>2022-09-04T06:43:40.000Z</time>
      </trkpt>
      <trkpt lat="48.48844" lon="-2.75422">
        <ele>98.400001525879</ele>
        <time>2022-09-04T06:43:41.000Z</time>
      </trkpt>
      <trkpt lat="48.4884" lon="-2.7542">
        <ele>98.199996948242</ele>
        <time>2022-09-04T06:43:42.000Z</time>
      </trkpt>
      <trkpt lat="48.48824" lon="-2.75409">
        <ele>97.800003051758</ele>
        <time>2022-09-04T06:43:46.000Z</time>
      </trkpt>
      <trkpt lat="48.4882" lon="-2.75406">
        <ele>97.800003051758</ele>
        <time>2022-09-04T06:43:47.000Z</time>
      </trkpt>
      <trkpt lat="48.488" lon="-2.75382">
        <ele>98.400001525879</ele>
        <time>2022-09-04T06:43:52.000Z</time>
      </trkpt>
      <trkpt lat="48.48784" lon="-2.75346">
        <ele>99</ele>
        <time>2022-09-04T06:43:58.000Z</time>
      </trkpt>
      <trkpt lat="48.48778" lon="-2.75333">
        <ele>99.199996948242</ele>
        <time>2022-09-04T06:44:00.000Z</time>
      </trkpt>
      <trkpt lat="48.48776" lon="-2.75326">
        <ele>99.199996948242</ele>
        <time>2022-09-04T06:44:01.000Z</time>
      </trkpt>
      <trkpt lat="48.48774" lon="-2.75319">
        <ele>99.199996948242</ele>
        <time>2022-09-04T06:44:02.000Z</time>
      </trkpt>
      <trkpt lat="48.48772" lon="-2.75314">
        <ele>99.400001525879</ele>
        <time>2022-09-04T06:44:03.000Z</time>
      </trkpt>
      <trkpt lat="48.48769" lon="-2.75309">
        <ele>99.400001525879</ele>
        <time>2022-09-04T06:44:04.000Z</time>
      </trkpt>
      <trkpt lat="48.48765" lon="-2.75308">
        <ele>99.400001525879</ele>
        <time>2022-09-04T06:44:05.000Z</time>
      </trkpt>
      <trkpt lat="48.4876" lon="-2.75308">
        <ele>99.400001525879</ele>
        <time>2022-09-04T06:44:06.000Z</time>
      </trkpt>
      <trkpt lat="48.48755" lon="-2.75308">
        <ele>99.400001525879</ele>
        <time>2022-09-04T06:44:07.000Z</time>
      </trkpt>
      <trkpt lat="48.48749" lon="-2.75309">
        <ele>99.400001525879</ele>
        <time>2022-09-04T06:44:08.000Z</time>
      </trkpt>
      <trkpt lat="48.48733" lon="-2.75307">
        <ele>99.599998474121</ele>
        <time>2022-09-04T06:44:11.000Z</time>
      </trkpt>
      <trkpt lat="48.48716" lon="-2.75302">
        <ele>99.800003051758</ele>
        <time>2022-09-04T06:44:14.000Z</time>
      </trkpt>
      <trkpt lat="48.48711" lon="-2.75303">
        <ele>99.800003051758</ele>
        <time>2022-09-04T06:44:15.000Z</time>
      </trkpt>
      <trkpt lat="48.48694" lon="-2.75297">
        <ele>100.19999694824</ele>
        <time>2022-09-04T06:44:18.000Z</time>
      </trkpt>
      <trkpt lat="48.48671" lon="-2.75292">
        <ele>100.40000152588</ele>
        <time>2022-09-04T06:44:23.000Z</time>
      </trkpt>
      <trkpt lat="48.48665" lon="-2.7529">
        <ele>100.40000152588</ele>
        <time>2022-09-04T06:44:24.000Z</time>
      </trkpt>
      <trkpt lat="48.4866" lon="-2.75289">
        <ele>100.40000152588</ele>
        <time>2022-09-04T06:44:25.000Z</time>
      </trkpt>
      <trkpt lat="48.4865" lon="-2.75285">
        <ele>100.40000152588</ele>
        <time>2022-09-04T06:44:27.000Z</time>
      </trkpt>
      <trkpt lat="48.48645" lon="-2.75283">
        <ele>100.40000152588</ele>
        <time>2022-09-04T06:44:28.000Z</time>
      </trkpt>
      <trkpt lat="48.48641" lon="-2.75282">
        <ele>100.59999847412</ele>
        <time>2022-09-04T06:44:29.000Z</time>
      </trkpt>
      <trkpt lat="48.48636" lon="-2.7528">
        <ele>100.59999847412</ele>
        <time>2022-09-04T06:44:30.000Z</time>
      </trkpt>
      <trkpt lat="48.48631" lon="-2.75278">
        <ele>100.59999847412</ele>
        <time>2022-09-04T06:44:31.000Z</time>
      </trkpt>
      <trkpt lat="48.48626" lon="-2.75275">
        <ele>100.80000305176</ele>
        <time>2022-09-04T06:44:32.000Z</time>
      </trkpt>
      <trkpt lat="48.48621" lon="-2.75273">
        <ele>100.80000305176</ele>
        <time>2022-09-04T06:44:33.000Z</time>
      </trkpt>
      <trkpt lat="48.48616" lon="-2.75271">
        <ele>101</ele>
        <time>2022-09-04T06:44:34.000Z</time>
      </trkpt>
      <trkpt lat="48.48611" lon="-2.7527">
        <ele>101</ele>
        <time>2022-09-04T06:44:35.000Z</time>
      </trkpt>
      <trkpt lat="48.48605" lon="-2.75269">
        <ele>101</ele>
        <time>2022-09-04T06:44:36.000Z</time>
      </trkpt>
      <trkpt lat="48.486" lon="-2.75268">
        <ele>101</ele>
        <time>2022-09-04T06:44:37.000Z</time>
      </trkpt>
      <trkpt lat="48.48596" lon="-2.75267">
        <ele>101</ele>
        <time>2022-09-04T06:44:38.000Z</time>
      </trkpt>
      <trkpt lat="48.48591" lon="-2.75266">
        <ele>101</ele>
        <time>2022-09-04T06:44:39.000Z</time>
      </trkpt>
      <trkpt lat="48.48586" lon="-2.75266">
        <ele>101</ele>
        <time>2022-09-04T06:44:40.000Z</time>
      </trkpt>
      <trkpt lat="48.48577" lon="-2.75264">
        <ele>101.19999694824</ele>
        <time>2022-09-04T06:44:42.000Z</time>
      </trkpt>
      <trkpt lat="48.48572" lon="-2.75263">
        <ele>101.40000152588</ele>
        <time>2022-09-04T06:44:43.000Z</time>
      </trkpt>
      <trkpt lat="48.48567" lon="-2.75263">
        <ele>101.40000152588</ele>
        <time>2022-09-04T06:44:44.000Z</time>
      </trkpt>
      <trkpt lat="48.48562" lon="-2.75262">
        <ele>101.59999847412</ele>
        <time>2022-09-04T06:44:45.000Z</time>
      </trkpt>
      <trkpt lat="48.48558" lon="-2.75259">
        <ele>101.80000305176</ele>
        <time>2022-09-04T06:44:46.000Z</time>
      </trkpt>
      <trkpt lat="48.48555" lon="-2.75256">
        <ele>101.59999847412</ele>
        <time>2022-09-04T06:44:47.000Z</time>
      </trkpt>
      <trkpt lat="48.48551" lon="-2.75254">
        <ele>101.80000305176</ele>
        <time>2022-09-04T06:44:48.000Z</time>
      </trkpt>
      <trkpt lat="48.48546" lon="-2.75253">
        <ele>101.80000305176</ele>
        <time>2022-09-04T06:44:49.000Z</time>
      </trkpt>
      <trkpt lat="48.48537" lon="-2.75252">
        <ele>102.59999847412</ele>
        <time>2022-09-04T06:44:51.000Z</time>
      </trkpt>
      <trkpt lat="48.48532" lon="-2.75251">
        <ele>102.80000305176</ele>
        <time>2022-09-04T06:44:52.000Z</time>
      </trkpt>
      <trkpt lat="48.48523" lon="-2.75244">
        <ele>103.19999694824</ele>
        <time>2022-09-04T06:44:54.000Z</time>
      </trkpt>
      <trkpt lat="48.48519" lon="-2.7524">
        <ele>103.19999694824</ele>
        <time>2022-09-04T06:44:55.000Z</time>
      </trkpt>
      <trkpt lat="48.48516" lon="-2.75236">
        <ele>103.40000152588</ele>
        <time>2022-09-04T06:44:56.000Z</time>
      </trkpt>
      <trkpt lat="48.48513" lon="-2.75231">
        <ele>103.59999847412</ele>
        <time>2022-09-04T06:44:57.000Z</time>
      </trkpt>
      <trkpt lat="48.4851" lon="-2.75226">
        <ele>103.80000305176</ele>
        <time>2022-09-04T06:44:58.000Z</time>
      </trkpt>
      <trkpt lat="48.48506" lon="-2.75223">
        <ele>103.80000305176</ele>
        <time>2022-09-04T06:44:59.000Z</time>
      </trkpt>
      <trkpt lat="48.48503" lon="-2.75219">
        <ele>104</ele>
        <time>2022-09-04T06:45:00.000Z</time>
      </trkpt>
      <trkpt lat="48.48501" lon="-2.75215">
        <ele>104</ele>
        <time>2022-09-04T06:45:01.000Z</time>
      </trkpt>
      <trkpt lat="48.48499" lon="-2.75211">
        <ele>104.19999694824</ele>
        <time>2022-09-04T06:45:02.000Z</time>
      </trkpt>
      <trkpt lat="48.48497" lon="-2.75208">
        <ele>104.59999847412</ele>
        <time>2022-09-04T06:45:03.000Z</time>
      </trkpt>
      <trkpt lat="48.48495" lon="-2.75205">
        <ele>104.80000305176</ele>
        <time>2022-09-04T06:45:04.000Z</time>
      </trkpt>
      <trkpt lat="48.48492" lon="-2.75203">
        <ele>105.19999694824</ele>
        <time>2022-09-04T06:45:05.000Z</time>
      </trkpt>
      <trkpt lat="48.48489" lon="-2.75201">
        <ele>105.40000152588</ele>
        <time>2022-09-04T06:45:06.000Z</time>
      </trkpt>
      <trkpt lat="48.48486" lon="-2.75199">
        <ele>105.80000305176</ele>
        <time>2022-09-04T06:45:07.000Z</time>
      </trkpt>
      <trkpt lat="48.48483" lon="-2.75196">
        <ele>106</ele>
        <time>2022-09-04T06:45:08.000Z</time>
      </trkpt>
      <trkpt lat="48.4848" lon="-2.75194">
        <ele>106.40000152588</ele>
        <time>2022-09-04T06:45:09.000Z</time>
      </trkpt>
      <trkpt lat="48.48477" lon="-2.75191">
        <ele>106.59999847412</ele>
        <time>2022-09-04T06:45:10.000Z</time>
      </trkpt>
      <trkpt lat="48.48474" lon="-2.75189">
        <ele>106.80000305176</ele>
        <time>2022-09-04T06:45:11.000Z</time>
      </trkpt>
      <trkpt lat="48.48474" lon="-2.75189">
        <ele>107</ele>
        <time>2022-09-04T06:45:12.000Z</time>
      </trkpt>
      <trkpt lat="48.48468" lon="-2.75184">
        <ele>107.40000152588</ele>
        <time>2022-09-04T06:45:13.000Z</time>
      </trkpt>
      <trkpt lat="48.48465" lon="-2.75182">
        <ele>107.59999847412</ele>
        <time>2022-09-04T06:45:14.000Z</time>
      </trkpt>
      <trkpt lat="48.48462" lon="-2.7518">
        <ele>107.80000305176</ele>
        <time>2022-09-04T06:45:15.000Z</time>
      </trkpt>
      <trkpt lat="48.4846" lon="-2.75179">
        <ele>108.19999694824</ele>
        <time>2022-09-04T06:45:16.000Z</time>
      </trkpt>
      <trkpt lat="48.48456" lon="-2.75177">
        <ele>108.40000152588</ele>
        <time>2022-09-04T06:45:17.000Z</time>
      </trkpt>
      <trkpt lat="48.48452" lon="-2.75176">
        <ele>108.59999847412</ele>
        <time>2022-09-04T06:45:18.000Z</time>
      </trkpt>
      <trkpt lat="48.48449" lon="-2.75175">
        <ele>108.80000305176</ele>
        <time>2022-09-04T06:45:19.000Z</time>
      </trkpt>
      <trkpt lat="48.48445" lon="-2.75174">
        <ele>109</ele>
        <time>2022-09-04T06:45:20.000Z</time>
      </trkpt>
      <trkpt lat="48.4844" lon="-2.75172">
        <ele>109.19999694824</ele>
        <time>2022-09-04T06:45:21.000Z</time>
      </trkpt>
      <trkpt lat="48.48435" lon="-2.7517">
        <ele>109.40000152588</ele>
        <time>2022-09-04T06:45:22.000Z</time>
      </trkpt>
      <trkpt lat="48.48431" lon="-2.75169">
        <ele>109.59999847412</ele>
        <time>2022-09-04T06:45:23.000Z</time>
      </trkpt>
      <trkpt lat="48.48426" lon="-2.75168">
        <ele>109.59999847412</ele>
        <time>2022-09-04T06:45:24.000Z</time>
      </trkpt>
      <trkpt lat="48.48421" lon="-2.75168">
        <ele>109.80000305176</ele>
        <time>2022-09-04T06:45:25.000Z</time>
      </trkpt>
      <trkpt lat="48.48417" lon="-2.75168">
        <ele>110</ele>
        <time>2022-09-04T06:45:26.000Z</time>
      </trkpt>
      <trkpt lat="48.48412" lon="-2.75169">
        <ele>110</ele>
        <time>2022-09-04T06:45:27.000Z</time>
      </trkpt>
      <trkpt lat="48.48407" lon="-2.75168">
        <ele>110.19999694824</ele>
        <time>2022-09-04T06:45:28.000Z</time>
      </trkpt>
      <trkpt lat="48.48403" lon="-2.75167">
        <ele>110.40000152588</ele>
        <time>2022-09-04T06:45:29.000Z</time>
      </trkpt>
      <trkpt lat="48.48398" lon="-2.75166">
        <ele>110.40000152588</ele>
        <time>2022-09-04T06:45:30.000Z</time>
      </trkpt>
      <trkpt lat="48.48393" lon="-2.75165">
        <ele>110.40000152588</ele>
        <time>2022-09-04T06:45:31.000Z</time>
      </trkpt>
      <trkpt lat="48.48387" lon="-2.75164">
        <ele>110.59999847412</ele>
        <time>2022-09-04T06:45:32.000Z</time>
      </trkpt>
      <trkpt lat="48.48382" lon="-2.75164">
        <ele>110.59999847412</ele>
        <time>2022-09-04T06:45:33.000Z</time>
      </trkpt>
      <trkpt lat="48.48378" lon="-2.75163">
        <ele>110.59999847412</ele>
        <time>2022-09-04T06:45:34.000Z</time>
      </trkpt>
      <trkpt lat="48.48374" lon="-2.75163">
        <ele>110.59999847412</ele>
        <time>2022-09-04T06:45:35.000Z</time>
      </trkpt>
      <trkpt lat="48.48369" lon="-2.75164">
        <ele>110.80000305176</ele>
        <time>2022-09-04T06:45:36.000Z</time>
      </trkpt>
      <trkpt lat="48.48365" lon="-2.75164">
        <ele>110.80000305176</ele>
        <time>2022-09-04T06:45:37.000Z</time>
      </trkpt>
      <trkpt lat="48.48361" lon="-2.75163">
        <ele>111</ele>
        <time>2022-09-04T06:45:38.000Z</time>
      </trkpt>
      <trkpt lat="48.48355" lon="-2.75163">
        <ele>111.19999694824</ele>
        <time>2022-09-04T06:45:39.000Z</time>
      </trkpt>
      <trkpt lat="48.48351" lon="-2.75162">
        <ele>111.40000152588</ele>
        <time>2022-09-04T06:45:40.000Z</time>
      </trkpt>
      <trkpt lat="48.48346" lon="-2.75161">
        <ele>111.59999847412</ele>
        <time>2022-09-04T06:45:41.000Z</time>
      </trkpt>
      <trkpt lat="48.48342" lon="-2.7516">
        <ele>111.80000305176</ele>
        <time>2022-09-04T06:45:42.000Z</time>
      </trkpt>
      <trkpt lat="48.48337" lon="-2.75159">
        <ele>111.80000305176</ele>
        <time>2022-09-04T06:45:43.000Z</time>
      </trkpt>
      <trkpt lat="48.48333" lon="-2.75159">
        <ele>112</ele>
        <time>2022-09-04T06:45:44.000Z</time>
      </trkpt>
      <trkpt lat="48.48329" lon="-2.75158">
        <ele>112</ele>
        <time>2022-09-04T06:45:45.000Z</time>
      </trkpt>
      <trkpt lat="48.48325" lon="-2.75157">
        <ele>112.19999694824</ele>
        <time>2022-09-04T06:45:46.000Z</time>
      </trkpt>
      <trkpt lat="48.48321" lon="-2.75154">
        <ele>112.40000152588</ele>
        <time>2022-09-04T06:45:47.000Z</time>
      </trkpt>
      <trkpt lat="48.48317" lon="-2.75151">
        <ele>112.40000152588</ele>
        <time>2022-09-04T06:45:48.000Z</time>
      </trkpt>
      <trkpt lat="48.48313" lon="-2.75149">
        <ele>112.59999847412</ele>
        <time>2022-09-04T06:45:49.000Z</time>
      </trkpt>
      <trkpt lat="48.48309" lon="-2.75147">
        <ele>112.59999847412</ele>
        <time>2022-09-04T06:45:50.000Z</time>
      </trkpt>
      <trkpt lat="48.48305" lon="-2.75145">
        <ele>112.80000305176</ele>
        <time>2022-09-04T06:45:51.000Z</time>
      </trkpt>
      <trkpt lat="48.48301" lon="-2.75144">
        <ele>112.80000305176</ele>
        <time>2022-09-04T06:45:52.000Z</time>
      </trkpt>
      <trkpt lat="48.48296" lon="-2.75143">
        <ele>113</ele>
        <time>2022-09-04T06:45:53.000Z</time>
      </trkpt>
      <trkpt lat="48.48292" lon="-2.75143">
        <ele>113</ele>
        <time>2022-09-04T06:45:54.000Z</time>
      </trkpt>
      <trkpt lat="48.48288" lon="-2.75143">
        <ele>113.19999694824</ele>
        <time>2022-09-04T06:45:55.000Z</time>
      </trkpt>
      <trkpt lat="48.48284" lon="-2.75143">
        <ele>113.40000152588</ele>
        <time>2022-09-04T06:45:56.000Z</time>
      </trkpt>
      <trkpt lat="48.4828" lon="-2.75142">
        <ele>113.59999847412</ele>
        <time>2022-09-04T06:45:57.000Z</time>
      </trkpt>
      <trkpt lat="48.48275" lon="-2.75141">
        <ele>113.80000305176</ele>
        <time>2022-09-04T06:45:58.000Z</time>
      </trkpt>
      <trkpt lat="48.48271" lon="-2.75141">
        <ele>114.19999694824</ele>
        <time>2022-09-04T06:45:59.000Z</time>
      </trkpt>
      <trkpt lat="48.48267" lon="-2.75141">
        <ele>114.59999847412</ele>
        <time>2022-09-04T06:46:00.000Z</time>
      </trkpt>
      <trkpt lat="48.48262" lon="-2.75141">
        <ele>114.59999847412</ele>
        <time>2022-09-04T06:46:01.000Z</time>
      </trkpt>
      <trkpt lat="48.48258" lon="-2.7514">
        <ele>114.80000305176</ele>
        <time>2022-09-04T06:46:02.000Z</time>
      </trkpt>
      <trkpt lat="48.48255" lon="-2.75139">
        <ele>115</ele>
        <time>2022-09-04T06:46:03.000Z</time>
      </trkpt>
      <trkpt lat="48.48253" lon="-2.75139">
        <ele>115.19999694824</ele>
        <time>2022-09-04T06:46:04.000Z</time>
      </trkpt>
      <trkpt lat="48.48251" lon="-2.75138">
        <ele>115.40000152588</ele>
        <time>2022-09-04T06:46:05.000Z</time>
      </trkpt>
      <trkpt lat="48.48248" lon="-2.75138">
        <ele>115.59999847412</ele>
        <time>2022-09-04T06:46:06.000Z</time>
      </trkpt>
      <trkpt lat="48.48245" lon="-2.75138">
        <ele>115.80000305176</ele>
        <time>2022-09-04T06:46:07.000Z</time>
      </trkpt>
      <trkpt lat="48.48241" lon="-2.75138">
        <ele>116</ele>
        <time>2022-09-04T06:46:08.000Z</time>
      </trkpt>
      <trkpt lat="48.48239" lon="-2.75137">
        <ele>116</ele>
        <time>2022-09-04T06:46:09.000Z</time>
      </trkpt>
      <trkpt lat="48.48236" lon="-2.75136">
        <ele>116.19999694824</ele>
        <time>2022-09-04T06:46:10.000Z</time>
      </trkpt>
      <trkpt lat="48.48232" lon="-2.75135">
        <ele>116.19999694824</ele>
        <time>2022-09-04T06:46:11.000Z</time>
      </trkpt>
      <trkpt lat="48.48228" lon="-2.75134">
        <ele>116.19999694824</ele>
        <time>2022-09-04T06:46:12.000Z</time>
      </trkpt>
      <trkpt lat="48.48224" lon="-2.75132">
        <ele>116.19999694824</ele>
        <time>2022-09-04T06:46:13.000Z</time>
      </trkpt>
      <trkpt lat="48.4822" lon="-2.75131">
        <ele>116.40000152588</ele>
        <time>2022-09-04T06:46:14.000Z</time>
      </trkpt>
      <trkpt lat="48.48214" lon="-2.75129">
        <ele>116.40000152588</ele>
        <time>2022-09-04T06:46:15.000Z</time>
      </trkpt>
      <trkpt lat="48.48209" lon="-2.75127">
        <ele>116.59999847412</ele>
        <time>2022-09-04T06:46:16.000Z</time>
      </trkpt>
      <trkpt lat="48.48204" lon="-2.75125">
        <ele>116.59999847412</ele>
        <time>2022-09-04T06:46:17.000Z</time>
      </trkpt>
      <trkpt lat="48.482" lon="-2.75121">
        <ele>116.59999847412</ele>
        <time>2022-09-04T06:46:18.000Z</time>
      </trkpt>
      <trkpt lat="48.48195" lon="-2.75118">
        <ele>117</ele>
        <time>2022-09-04T06:46:19.000Z</time>
      </trkpt>
      <trkpt lat="48.4819" lon="-2.75114">
        <ele>117</ele>
        <time>2022-09-04T06:46:20.000Z</time>
      </trkpt>
      <trkpt lat="48.48185" lon="-2.7511">
        <ele>117.19999694824</ele>
        <time>2022-09-04T06:46:21.000Z</time>
      </trkpt>
      <trkpt lat="48.4818" lon="-2.75107">
        <ele>117.59999847412</ele>
        <time>2022-09-04T06:46:22.000Z</time>
      </trkpt>
      <trkpt lat="48.48177" lon="-2.75104">
        <ele>117.80000305176</ele>
        <time>2022-09-04T06:46:23.000Z</time>
      </trkpt>
      <trkpt lat="48.48174" lon="-2.75101">
        <ele>118.19999694824</ele>
        <time>2022-09-04T06:46:24.000Z</time>
      </trkpt>
      <trkpt lat="48.4817" lon="-2.75099">
        <ele>118.19999694824</ele>
        <time>2022-09-04T06:46:25.000Z</time>
      </trkpt>
      <trkpt lat="48.48166" lon="-2.75096">
        <ele>118.40000152588</ele>
        <time>2022-09-04T06:46:26.000Z</time>
      </trkpt>
      <trkpt lat="48.48162" lon="-2.75092">
        <ele>118.59999847412</ele>
        <time>2022-09-04T06:46:27.000Z</time>
      </trkpt>
      <trkpt lat="48.48158" lon="-2.75088">
        <ele>118.80000305176</ele>
        <time>2022-09-04T06:46:28.000Z</time>
      </trkpt>
      <trkpt lat="48.48154" lon="-2.75084">
        <ele>118.80000305176</ele>
        <time>2022-09-04T06:46:29.000Z</time>
      </trkpt>
      <trkpt lat="48.48151" lon="-2.75079">
        <ele>119</ele>
        <time>2022-09-04T06:46:30.000Z</time>
      </trkpt>
      <trkpt lat="48.48147" lon="-2.75075">
        <ele>119</ele>
        <time>2022-09-04T06:46:31.000Z</time>
      </trkpt>
      <trkpt lat="48.48144" lon="-2.75072">
        <ele>119.40000152588</ele>
        <time>2022-09-04T06:46:32.000Z</time>
      </trkpt>
      <trkpt lat="48.48141" lon="-2.75068">
        <ele>119.59999847412</ele>
        <time>2022-09-04T06:46:33.000Z</time>
      </trkpt>
      <trkpt lat="48.48137" lon="-2.75063">
        <ele>119.59999847412</ele>
        <time>2022-09-04T06:46:34.000Z</time>
      </trkpt>
      <trkpt lat="48.48132" lon="-2.75059">
        <ele>119.80000305176</ele>
        <time>2022-09-04T06:46:35.000Z</time>
      </trkpt>
      <trkpt lat="48.48128" lon="-2.75054">
        <ele>120</ele>
        <time>2022-09-04T06:46:36.000Z</time>
      </trkpt>
      <trkpt lat="48.48123" lon="-2.75049">
        <ele>120</ele>
        <time>2022-09-04T06:46:37.000Z</time>
      </trkpt>
      <trkpt lat="48.48119" lon="-2.75042">
        <ele>120.19999694824</ele>
        <time>2022-09-04T06:46:38.000Z</time>
      </trkpt>
      <trkpt lat="48.48113" lon="-2.75034">
        <ele>120.19999694824</ele>
        <time>2022-09-04T06:46:39.000Z</time>
      </trkpt>
      <trkpt lat="48.48109" lon="-2.7503">
        <ele>120.40000152588</ele>
        <time>2022-09-04T06:46:40.000Z</time>
      </trkpt>
      <trkpt lat="48.48106" lon="-2.75026">
        <ele>120.40000152588</ele>
        <time>2022-09-04T06:46:41.000Z</time>
      </trkpt>
      <trkpt lat="48.48104" lon="-2.75023">
        <ele>120.59999847412</ele>
        <time>2022-09-04T06:46:42.000Z</time>
      </trkpt>
      <trkpt lat="48.48101" lon="-2.75019">
        <ele>120.59999847412</ele>
        <time>2022-09-04T06:46:43.000Z</time>
      </trkpt>
      <trkpt lat="48.48098" lon="-2.75015">
        <ele>120.80000305176</ele>
        <time>2022-09-04T06:46:44.000Z</time>
      </trkpt>
      <trkpt lat="48.48098" lon="-2.7501">
        <ele>120.80000305176</ele>
        <time>2022-09-04T06:46:45.000Z</time>
      </trkpt>
      <trkpt lat="48.48099" lon="-2.75002">
        <ele>121</ele>
        <time>2022-09-04T06:46:46.000Z</time>
      </trkpt>
      <trkpt lat="48.48101" lon="-2.74998">
        <ele>121.19999694824</ele>
        <time>2022-09-04T06:46:47.000Z</time>
      </trkpt>
      <trkpt lat="48.48104" lon="-2.74993">
        <ele>121.19999694824</ele>
        <time>2022-09-04T06:46:48.000Z</time>
      </trkpt>
      <trkpt lat="48.48107" lon="-2.74988">
        <ele>121.19999694824</ele>
        <time>2022-09-04T06:46:49.000Z</time>
      </trkpt>
      <trkpt lat="48.48111" lon="-2.74982">
        <ele>121.40000152588</ele>
        <time>2022-09-04T06:46:50.000Z</time>
      </trkpt>
      <trkpt lat="48.48113" lon="-2.74978">
        <ele>121.40000152588</ele>
        <time>2022-09-04T06:46:51.000Z</time>
      </trkpt>
      <trkpt lat="48.48114" lon="-2.74972">
        <ele>121.59999847412</ele>
        <time>2022-09-04T06:46:52.000Z</time>
      </trkpt>
      <trkpt lat="48.48114" lon="-2.74965">
        <ele>121.59999847412</ele>
        <time>2022-09-04T06:46:53.000Z</time>
      </trkpt>
      <trkpt lat="48.48112" lon="-2.74959">
        <ele>121.59999847412</ele>
        <time>2022-09-04T06:46:54.000Z</time>
      </trkpt>
      <trkpt lat="48.4811" lon="-2.74954">
        <ele>121.80000305176</ele>
        <time>2022-09-04T06:46:55.000Z</time>
      </trkpt>
      <trkpt lat="48.48108" lon="-2.74949">
        <ele>121.80000305176</ele>
        <time>2022-09-04T06:46:56.000Z</time>
      </trkpt>
      <trkpt lat="48.48106" lon="-2.74944">
        <ele>122</ele>
        <time>2022-09-04T06:46:57.000Z</time>
      </trkpt>
      <trkpt lat="48.48103" lon="-2.74937">
        <ele>122.19999694824</ele>
        <time>2022-09-04T06:46:58.000Z</time>
      </trkpt>
      <trkpt lat="48.48101" lon="-2.74932">
        <ele>122.59999847412</ele>
        <time>2022-09-04T06:46:59.000Z</time>
      </trkpt>
      <trkpt lat="48.481" lon="-2.74928">
        <ele>123</ele>
        <time>2022-09-04T06:47:00.000Z</time>
      </trkpt>
      <trkpt lat="48.48099" lon="-2.74923">
        <ele>123.19999694824</ele>
        <time>2022-09-04T06:47:01.000Z</time>
      </trkpt>
      <trkpt lat="48.48098" lon="-2.74918">
        <ele>123.40000152588</ele>
        <time>2022-09-04T06:47:02.000Z</time>
      </trkpt>
      <trkpt lat="48.48096" lon="-2.74914">
        <ele>123.59999847412</ele>
        <time>2022-09-04T06:47:03.000Z</time>
      </trkpt>
      <trkpt lat="48.48095" lon="-2.74911">
        <ele>123.80000305176</ele>
        <time>2022-09-04T06:47:04.000Z</time>
      </trkpt>
      <trkpt lat="48.48094" lon="-2.74908">
        <ele>124.19999694824</ele>
        <time>2022-09-04T06:47:05.000Z</time>
      </trkpt>
      <trkpt lat="48.48092" lon="-2.74903">
        <ele>124.59999847412</ele>
        <time>2022-09-04T06:47:06.000Z</time>
      </trkpt>
      <trkpt lat="48.48089" lon="-2.74896">
        <ele>125</ele>
        <time>2022-09-04T06:47:07.000Z</time>
      </trkpt>
      <trkpt lat="48.48087" lon="-2.74891">
        <ele>125.59999847412</ele>
        <time>2022-09-04T06:47:08.000Z</time>
      </trkpt>
      <trkpt lat="48.48085" lon="-2.74886">
        <ele>126</ele>
        <time>2022-09-04T06:47:09.000Z</time>
      </trkpt>
      <trkpt lat="48.48083" lon="-2.74881">
        <ele>126.19999694824</ele>
        <time>2022-09-04T06:47:10.000Z</time>
      </trkpt>
      <trkpt lat="48.4808" lon="-2.74876">
        <ele>126.40000152588</ele>
        <time>2022-09-04T06:47:11.000Z</time>
      </trkpt>
      <trkpt lat="48.48077" lon="-2.74871">
        <ele>126.59999847412</ele>
        <time>2022-09-04T06:47:12.000Z</time>
      </trkpt>
      <trkpt lat="48.48073" lon="-2.74868">
        <ele>126.59999847412</ele>
        <time>2022-09-04T06:47:13.000Z</time>
      </trkpt>
      <trkpt lat="48.4807" lon="-2.74866">
        <ele>126.80000305176</ele>
        <time>2022-09-04T06:47:14.000Z</time>
      </trkpt>
      <trkpt lat="48.48067" lon="-2.74865">
        <ele>126.80000305176</ele>
        <time>2022-09-04T06:47:15.000Z</time>
      </trkpt>
      <trkpt lat="48.48063" lon="-2.74863">
        <ele>127</ele>
        <time>2022-09-04T06:47:16.000Z</time>
      </trkpt>
      <trkpt lat="48.48058" lon="-2.74863">
        <ele>127</ele>
        <time>2022-09-04T06:47:17.000Z</time>
      </trkpt>
      <trkpt lat="48.48054" lon="-2.74862">
        <ele>127.19999694824</ele>
        <time>2022-09-04T06:47:18.000Z</time>
      </trkpt>
      <trkpt lat="48.4805" lon="-2.7486">
        <ele>127.59999847412</ele>
        <time>2022-09-04T06:47:19.000Z</time>
      </trkpt>
      <trkpt lat="48.48046" lon="-2.74858">
        <ele>127.59999847412</ele>
        <time>2022-09-04T06:47:20.000Z</time>
      </trkpt>
      <trkpt lat="48.48041" lon="-2.74855">
        <ele>127.80000305176</ele>
        <time>2022-09-04T06:47:21.000Z</time>
      </trkpt>
      <trkpt lat="48.48037" lon="-2.74851">
        <ele>128</ele>
        <time>2022-09-04T06:47:22.000Z</time>
      </trkpt>
      <trkpt lat="48.48035" lon="-2.74846">
        <ele>128.19999694824</ele>
        <time>2022-09-04T06:47:23.000Z</time>
      </trkpt>
      <trkpt lat="48.48032" lon="-2.7484">
        <ele>128.19999694824</ele>
        <time>2022-09-04T06:47:24.000Z</time>
      </trkpt>
      <trkpt lat="48.48031" lon="-2.74834">
        <ele>128.39999389648</ele>
        <time>2022-09-04T06:47:25.000Z</time>
      </trkpt>
      <trkpt lat="48.4803" lon="-2.74828">
        <ele>128.60000610352</ele>
        <time>2022-09-04T06:47:26.000Z</time>
      </trkpt>
      <trkpt lat="48.48029" lon="-2.74821">
        <ele>128.80000305176</ele>
        <time>2022-09-04T06:47:27.000Z</time>
      </trkpt>
      <trkpt lat="48.48029" lon="-2.74815">
        <ele>129</ele>
        <time>2022-09-04T06:47:28.000Z</time>
      </trkpt>
      <trkpt lat="48.48029" lon="-2.74809">
        <ele>129.19999694824</ele>
        <time>2022-09-04T06:47:29.000Z</time>
      </trkpt>
      <trkpt lat="48.48029" lon="-2.74803">
        <ele>129.39999389648</ele>
        <time>2022-09-04T06:47:30.000Z</time>
      </trkpt>
      <trkpt lat="48.48029" lon="-2.74797">
        <ele>129.80000305176</ele>
        <time>2022-09-04T06:47:31.000Z</time>
      </trkpt>
      <trkpt lat="48.48029" lon="-2.74791">
        <ele>130</ele>
        <time>2022-09-04T06:47:32.000Z</time>
      </trkpt>
      <trkpt lat="48.48028" lon="-2.74786">
        <ele>130.19999694824</ele>
        <time>2022-09-04T06:47:33.000Z</time>
      </trkpt>
      <trkpt lat="48.48028" lon="-2.7478">
        <ele>130.60000610352</ele>
        <time>2022-09-04T06:47:34.000Z</time>
      </trkpt>
      <trkpt lat="48.48028" lon="-2.74774">
        <ele>130.80000305176</ele>
        <time>2022-09-04T06:47:35.000Z</time>
      </trkpt>
      <trkpt lat="48.48028" lon="-2.74768">
        <ele>131.39999389648</ele>
        <time>2022-09-04T06:47:36.000Z</time>
      </trkpt>
      <trkpt lat="48.48028" lon="-2.74763">
        <ele>131.80000305176</ele>
        <time>2022-09-04T06:47:37.000Z</time>
      </trkpt>
      <trkpt lat="48.48028" lon="-2.74757">
        <ele>132.19999694824</ele>
        <time>2022-09-04T06:47:38.000Z</time>
      </trkpt>
      <trkpt lat="48.48028" lon="-2.74751">
        <ele>132.19999694824</ele>
        <time>2022-09-04T06:47:39.000Z</time>
      </trkpt>
      <trkpt lat="48.48027" lon="-2.74746">
        <ele>132.60000610352</ele>
        <time>2022-09-04T06:47:40.000Z</time>
      </trkpt>
      <trkpt lat="48.48027" lon="-2.7474">
        <ele>132.80000305176</ele>
        <time>2022-09-04T06:47:41.000Z</time>
      </trkpt>
      <trkpt lat="48.48026" lon="-2.74735">
        <ele>133</ele>
        <time>2022-09-04T06:47:42.000Z</time>
      </trkpt>
      <trkpt lat="48.48026" lon="-2.74729">
        <ele>133.19999694824</ele>
        <time>2022-09-04T06:47:43.000Z</time>
      </trkpt>
      <trkpt lat="48.48026" lon="-2.74724">
        <ele>133.39999389648</ele>
        <time>2022-09-04T06:47:44.000Z</time>
      </trkpt>
      <trkpt lat="48.48026" lon="-2.74718">
        <ele>133.80000305176</ele>
        <time>2022-09-04T06:47:45.000Z</time>
      </trkpt>
      <trkpt lat="48.48025" lon="-2.74712">
        <ele>133.80000305176</ele>
        <time>2022-09-04T06:47:46.000Z</time>
      </trkpt>
      <trkpt lat="48.48025" lon="-2.74707">
        <ele>134.19999694824</ele>
        <time>2022-09-04T06:47:47.000Z</time>
      </trkpt>
      <trkpt lat="48.48025" lon="-2.74701">
        <ele>134.39999389648</ele>
        <time>2022-09-04T06:47:48.000Z</time>
      </trkpt>
      <trkpt lat="48.48024" lon="-2.74695">
        <ele>134.80000305176</ele>
        <time>2022-09-04T06:47:49.000Z</time>
      </trkpt>
      <trkpt lat="48.48023" lon="-2.7469">
        <ele>134.80000305176</ele>
        <time>2022-09-04T06:47:50.000Z</time>
      </trkpt>
      <trkpt lat="48.48022" lon="-2.74684">
        <ele>135.19999694824</ele>
        <time>2022-09-04T06:47:51.000Z</time>
      </trkpt>
      <trkpt lat="48.48021" lon="-2.74678">
        <ele>135.39999389648</ele>
        <time>2022-09-04T06:47:52.000Z</time>
      </trkpt>
      <trkpt lat="48.48019" lon="-2.74672">
        <ele>135.60000610352</ele>
        <time>2022-09-04T06:47:53.000Z</time>
      </trkpt>
      <trkpt lat="48.48017" lon="-2.74668">
        <ele>135.60000610352</ele>
        <time>2022-09-04T06:47:54.000Z</time>
      </trkpt>
      <trkpt lat="48.48014" lon="-2.74665">
        <ele>135.60000610352</ele>
        <time>2022-09-04T06:47:55.000Z</time>
      </trkpt>
      <trkpt lat="48.48009" lon="-2.74664">
        <ele>135.60000610352</ele>
        <time>2022-09-04T06:47:56.000Z</time>
      </trkpt>
      <trkpt lat="48.48004" lon="-2.74663">
        <ele>135.60000610352</ele>
        <time>2022-09-04T06:47:57.000Z</time>
      </trkpt>
      <trkpt lat="48.47999" lon="-2.74661">
        <ele>135.80000305176</ele>
        <time>2022-09-04T06:47:58.000Z</time>
      </trkpt>
      <trkpt lat="48.47994" lon="-2.74659">
        <ele>135.39999389648</ele>
        <time>2022-09-04T06:47:59.000Z</time>
      </trkpt>
      <trkpt lat="48.47989" lon="-2.74657">
        <ele>135.39999389648</ele>
        <time>2022-09-04T06:48:00.000Z</time>
      </trkpt>
      <trkpt lat="48.47985" lon="-2.74655">
        <ele>135.39999389648</ele>
        <time>2022-09-04T06:48:01.000Z</time>
      </trkpt>
      <trkpt lat="48.47981" lon="-2.74652">
        <ele>135.39999389648</ele>
        <time>2022-09-04T06:48:02.000Z</time>
      </trkpt>
      <trkpt lat="48.47981" lon="-2.74652">
        <ele>135.39999389648</ele>
        <time>2022-09-04T06:48:03.000Z</time>
      </trkpt>
      <trkpt lat="48.47975" lon="-2.74643">
        <ele>135.19999694824</ele>
        <time>2022-09-04T06:48:04.000Z</time>
      </trkpt>
      <trkpt lat="48.47974" lon="-2.74637">
        <ele>135</ele>
        <time>2022-09-04T06:48:05.000Z</time>
      </trkpt>
      <trkpt lat="48.47975" lon="-2.7463">
        <ele>134.80000305176</ele>
        <time>2022-09-04T06:48:06.000Z</time>
      </trkpt>
      <trkpt lat="48.47977" lon="-2.74622">
        <ele>134.60000610352</ele>
        <time>2022-09-04T06:48:07.000Z</time>
      </trkpt>
      <trkpt lat="48.47979" lon="-2.74615">
        <ele>134.60000610352</ele>
        <time>2022-09-04T06:48:08.000Z</time>
      </trkpt>
      <trkpt lat="48.47981" lon="-2.74608">
        <ele>134.39999389648</ele>
        <time>2022-09-04T06:48:09.000Z</time>
      </trkpt>
      <trkpt lat="48.47983" lon="-2.746">
        <ele>134.39999389648</ele>
        <time>2022-09-04T06:48:10.000Z</time>
      </trkpt>
      <trkpt lat="48.47992" lon="-2.7457">
        <ele>134.19999694824</ele>
        <time>2022-09-04T06:48:14.000Z</time>
      </trkpt>
      <trkpt lat="48.47994" lon="-2.74563">
        <ele>134</ele>
        <time>2022-09-04T06:48:15.000Z</time>
      </trkpt>
      <trkpt lat="48.48" lon="-2.74541">
        <ele>133.39999389648</ele>
        <time>2022-09-04T06:48:18.000Z</time>
      </trkpt>
      <trkpt lat="48.48003" lon="-2.74534">
        <ele>133.39999389648</ele>
        <time>2022-09-04T06:48:19.000Z</time>
      </trkpt>
      <trkpt lat="48.48005" lon="-2.74526">
        <ele>133.19999694824</ele>
        <time>2022-09-04T06:48:20.000Z</time>
      </trkpt>
      <trkpt lat="48.4801" lon="-2.74511">
        <ele>133.19999694824</ele>
        <time>2022-09-04T06:48:22.000Z</time>
      </trkpt>
      <trkpt lat="48.48011" lon="-2.74504">
        <ele>133.19999694824</ele>
        <time>2022-09-04T06:48:23.000Z</time>
      </trkpt>
      <trkpt lat="48.48013" lon="-2.74496">
        <ele>133.19999694824</ele>
        <time>2022-09-04T06:48:24.000Z</time>
      </trkpt>
      <trkpt lat="48.48015" lon="-2.74489">
        <ele>133.19999694824</ele>
        <time>2022-09-04T06:48:25.000Z</time>
      </trkpt>
      <trkpt lat="48.48018" lon="-2.74482">
        <ele>133.19999694824</ele>
        <time>2022-09-04T06:48:26.000Z</time>
      </trkpt>
      <trkpt lat="48.4802" lon="-2.74475">
        <ele>133.19999694824</ele>
        <time>2022-09-04T06:48:27.000Z</time>
      </trkpt>
      <trkpt lat="48.48022" lon="-2.74468">
        <ele>133.19999694824</ele>
        <time>2022-09-04T06:48:28.000Z</time>
      </trkpt>
      <trkpt lat="48.48031" lon="-2.74429">
        <ele>134</ele>
        <time>2022-09-04T06:48:33.000Z</time>
      </trkpt>
      <trkpt lat="48.48032" lon="-2.74422">
        <ele>134</ele>
        <time>2022-09-04T06:48:34.000Z</time>
      </trkpt>
      <trkpt lat="48.48033" lon="-2.74414">
        <ele>134</ele>
        <time>2022-09-04T06:48:35.000Z</time>
      </trkpt>
      <trkpt lat="48.48034" lon="-2.74406">
        <ele>134</ele>
        <time>2022-09-04T06:48:36.000Z</time>
      </trkpt>
      <trkpt lat="48.48034" lon="-2.74398">
        <ele>134</ele>
        <time>2022-09-04T06:48:37.000Z</time>
      </trkpt>
      <trkpt lat="48.4804" lon="-2.74362">
        <ele>134</ele>
        <time>2022-09-04T06:48:42.000Z</time>
      </trkpt>
      <trkpt lat="48.48044" lon="-2.74347">
        <ele>134.19999694824</ele>
        <time>2022-09-04T06:48:44.000Z</time>
      </trkpt>
      <trkpt lat="48.48049" lon="-2.74334">
        <ele>134.19999694824</ele>
        <time>2022-09-04T06:48:46.000Z</time>
      </trkpt>
      <trkpt lat="48.48052" lon="-2.74328">
        <ele>134.19999694824</ele>
        <time>2022-09-04T06:48:47.000Z</time>
      </trkpt>
      <trkpt lat="48.48055" lon="-2.74322">
        <ele>134.39999389648</ele>
        <time>2022-09-04T06:48:48.000Z</time>
      </trkpt>
      <trkpt lat="48.48063" lon="-2.74301">
        <ele>134.60000610352</ele>
        <time>2022-09-04T06:48:51.000Z</time>
      </trkpt>
      <trkpt lat="48.48069" lon="-2.74276">
        <ele>134.80000305176</ele>
        <time>2022-09-04T06:48:54.000Z</time>
      </trkpt>
      <trkpt lat="48.48072" lon="-2.7426">
        <ele>135</ele>
        <time>2022-09-04T06:48:56.000Z</time>
      </trkpt>
      <trkpt lat="48.48074" lon="-2.74252">
        <ele>135.19999694824</ele>
        <time>2022-09-04T06:48:57.000Z</time>
      </trkpt>
      <trkpt lat="48.48075" lon="-2.74245">
        <ele>135.19999694824</ele>
        <time>2022-09-04T06:48:58.000Z</time>
      </trkpt>
      <trkpt lat="48.48075" lon="-2.74237">
        <ele>135.39999389648</ele>
        <time>2022-09-04T06:48:59.000Z</time>
      </trkpt>
      <trkpt lat="48.48076" lon="-2.74229">
        <ele>135.39999389648</ele>
        <time>2022-09-04T06:49:00.000Z</time>
      </trkpt>
      <trkpt lat="48.48083" lon="-2.74169">
        <ele>135.80000305176</ele>
        <time>2022-09-04T06:49:07.000Z</time>
      </trkpt>
      <trkpt lat="48.48092" lon="-2.74124">
        <ele>135.80000305176</ele>
        <time>2022-09-04T06:49:12.000Z</time>
      </trkpt>
      <trkpt lat="48.48095" lon="-2.74117">
        <ele>135.80000305176</ele>
        <time>2022-09-04T06:49:13.000Z</time>
      </trkpt>
      <trkpt lat="48.48099" lon="-2.74112">
        <ele>135.60000610352</ele>
        <time>2022-09-04T06:49:14.000Z</time>
      </trkpt>
      <trkpt lat="48.48104" lon="-2.74107">
        <ele>135.39999389648</ele>
        <time>2022-09-04T06:49:15.000Z</time>
      </trkpt>
      <trkpt lat="48.48114" lon="-2.74099">
        <ele>135.19999694824</ele>
        <time>2022-09-04T06:49:17.000Z</time>
      </trkpt>
      <trkpt lat="48.48122" lon="-2.74094">
        <ele>135.19999694824</ele>
        <time>2022-09-04T06:49:18.000Z</time>
      </trkpt>
      <trkpt lat="48.48155" lon="-2.7408">
        <ele>134.39999389648</ele>
        <time>2022-09-04T06:49:23.000Z</time>
      </trkpt>
      <trkpt lat="48.48161" lon="-2.74078">
        <ele>134.19999694824</ele>
        <time>2022-09-04T06:49:24.000Z</time>
      </trkpt>
      <trkpt lat="48.48174" lon="-2.74075">
        <ele>134</ele>
        <time>2022-09-04T06:49:26.000Z</time>
      </trkpt>
      <trkpt lat="48.48189" lon="-2.74072">
        <ele>133.39999389648</ele>
        <time>2022-09-04T06:49:28.000Z</time>
      </trkpt>
      <trkpt lat="48.48195" lon="-2.74067">
        <ele>133.39999389648</ele>
        <time>2022-09-04T06:49:29.000Z</time>
      </trkpt>
      <trkpt lat="48.48199" lon="-2.74061">
        <ele>133.19999694824</ele>
        <time>2022-09-04T06:49:30.000Z</time>
      </trkpt>
      <trkpt lat="48.48203" lon="-2.74051">
        <ele>133</ele>
        <time>2022-09-04T06:49:31.000Z</time>
      </trkpt>
      <trkpt lat="48.48204" lon="-2.7404">
        <ele>132.80000305176</ele>
        <time>2022-09-04T06:49:32.000Z</time>
      </trkpt>
      <trkpt lat="48.48203" lon="-2.74018">
        <ele>132.60000610352</ele>
        <time>2022-09-04T06:49:34.000Z</time>
      </trkpt>
      <trkpt lat="48.48203" lon="-2.74006">
        <ele>132.39999389648</ele>
        <time>2022-09-04T06:49:35.000Z</time>
      </trkpt>
      <trkpt lat="48.48202" lon="-2.73997">
        <ele>132.19999694824</ele>
        <time>2022-09-04T06:49:36.000Z</time>
      </trkpt>
      <trkpt lat="48.48202" lon="-2.73984">
        <ele>132</ele>
        <time>2022-09-04T06:49:37.000Z</time>
      </trkpt>
      <trkpt lat="48.48202" lon="-2.73973">
        <ele>131.80000305176</ele>
        <time>2022-09-04T06:49:38.000Z</time>
      </trkpt>
      <trkpt lat="48.48201" lon="-2.73964">
        <ele>131.39999389648</ele>
        <time>2022-09-04T06:49:39.000Z</time>
      </trkpt>
      <trkpt lat="48.48201" lon="-2.73954">
        <ele>131.19999694824</ele>
        <time>2022-09-04T06:49:40.000Z</time>
      </trkpt>
      <trkpt lat="48.482" lon="-2.73942">
        <ele>130.80000305176</ele>
        <time>2022-09-04T06:49:41.000Z</time>
      </trkpt>
      <trkpt lat="48.482" lon="-2.73932">
        <ele>130.60000610352</ele>
        <time>2022-09-04T06:49:42.000Z</time>
      </trkpt>
      <trkpt lat="48.48199" lon="-2.73922">
        <ele>130.60000610352</ele>
        <time>2022-09-04T06:49:43.000Z</time>
      </trkpt>
      <trkpt lat="48.48196" lon="-2.73915">
        <ele>130.60000610352</ele>
        <time>2022-09-04T06:49:44.000Z</time>
      </trkpt>
      <trkpt lat="48.48193" lon="-2.73911">
        <ele>130.39999389648</ele>
        <time>2022-09-04T06:49:45.000Z</time>
      </trkpt>
      <trkpt lat="48.48186" lon="-2.73907">
        <ele>130.39999389648</ele>
        <time>2022-09-04T06:49:46.000Z</time>
      </trkpt>
      <trkpt lat="48.4818" lon="-2.73906">
        <ele>130.39999389648</ele>
        <time>2022-09-04T06:49:47.000Z</time>
      </trkpt>
      <trkpt lat="48.48174" lon="-2.73904">
        <ele>130.39999389648</ele>
        <time>2022-09-04T06:49:48.000Z</time>
      </trkpt>
      <trkpt lat="48.48169" lon="-2.73903">
        <ele>130.39999389648</ele>
        <time>2022-09-04T06:49:49.000Z</time>
      </trkpt>
      <trkpt lat="48.48164" lon="-2.739">
        <ele>130.19999694824</ele>
        <time>2022-09-04T06:49:50.000Z</time>
      </trkpt>
      <trkpt lat="48.48159" lon="-2.73895">
        <ele>130.19999694824</ele>
        <time>2022-09-04T06:49:51.000Z</time>
      </trkpt>
      <trkpt lat="48.48154" lon="-2.73889">
        <ele>130.19999694824</ele>
        <time>2022-09-04T06:49:52.000Z</time>
      </trkpt>
      <trkpt lat="48.4815" lon="-2.73883">
        <ele>130.19999694824</ele>
        <time>2022-09-04T06:49:53.000Z</time>
      </trkpt>
      <trkpt lat="48.48146" lon="-2.73877">
        <ele>130.19999694824</ele>
        <time>2022-09-04T06:49:54.000Z</time>
      </trkpt>
      <trkpt lat="48.48141" lon="-2.7387">
        <ele>130</ele>
        <time>2022-09-04T06:49:55.000Z</time>
      </trkpt>
      <trkpt lat="48.48132" lon="-2.73856">
        <ele>130</ele>
        <time>2022-09-04T06:49:57.000Z</time>
      </trkpt>
      <trkpt lat="48.48123" lon="-2.73843">
        <ele>129.80000305176</ele>
        <time>2022-09-04T06:49:59.000Z</time>
      </trkpt>
      <trkpt lat="48.48096" lon="-2.73811">
        <ele>129</ele>
        <time>2022-09-04T06:50:04.000Z</time>
      </trkpt>
      <trkpt lat="48.48084" lon="-2.738">
        <ele>128.60000610352</ele>
        <time>2022-09-04T06:50:06.000Z</time>
      </trkpt>
      <trkpt lat="48.48078" lon="-2.73796">
        <ele>128.19999694824</ele>
        <time>2022-09-04T06:50:07.000Z</time>
      </trkpt>
      <trkpt lat="48.48073" lon="-2.73792">
        <ele>128</ele>
        <time>2022-09-04T06:50:08.000Z</time>
      </trkpt>
      <trkpt lat="48.48069" lon="-2.7379">
        <ele>127.80000305176</ele>
        <time>2022-09-04T06:50:09.000Z</time>
      </trkpt>
      <trkpt lat="48.48067" lon="-2.73788">
        <ele>127.59999847412</ele>
        <time>2022-09-04T06:50:10.000Z</time>
      </trkpt>
      <trkpt lat="48.48066" lon="-2.73787">
        <ele>127</ele>
        <time>2022-09-04T06:50:11.000Z</time>
      </trkpt>
      <trkpt lat="48.48066" lon="-2.73787">
        <ele>126.40000152588</ele>
        <time>2022-09-04T06:50:12.000Z</time>
      </trkpt>
      <trkpt lat="48.48066" lon="-2.73787">
        <ele>126.19999694824</ele>
        <time>2022-09-04T06:50:13.000Z</time>
      </trkpt>
      <trkpt lat="48.48066" lon="-2.73787">
        <ele>125.80000305176</ele>
        <time>2022-09-04T06:50:14.000Z</time>
      </trkpt>
      <trkpt lat="48.48067" lon="-2.73787">
        <ele>125.59999847412</ele>
        <time>2022-09-04T06:50:15.000Z</time>
      </trkpt>
      <trkpt lat="48.48068" lon="-2.73785">
        <ele>125.59999847412</ele>
        <time>2022-09-04T06:50:16.000Z</time>
      </trkpt>
      <trkpt lat="48.48069" lon="-2.73779">
        <ele>125.19999694824</ele>
        <time>2022-09-04T06:50:18.000Z</time>
      </trkpt>
      <trkpt lat="48.4807" lon="-2.73771">
        <ele>125.19999694824</ele>
        <time>2022-09-04T06:50:20.000Z</time>
      </trkpt>
      <trkpt lat="48.4807" lon="-2.73766">
        <ele>125.19999694824</ele>
        <time>2022-09-04T06:50:21.000Z</time>
      </trkpt>
      <trkpt lat="48.4807" lon="-2.7376">
        <ele>125.40000152588</ele>
        <time>2022-09-04T06:50:22.000Z</time>
      </trkpt>
      <trkpt lat="48.48071" lon="-2.73754">
        <ele>125.19999694824</ele>
        <time>2022-09-04T06:50:23.000Z</time>
      </trkpt>
      <trkpt lat="48.48076" lon="-2.73729">
        <ele>125.19999694824</ele>
        <time>2022-09-04T06:50:26.000Z</time>
      </trkpt>
      <trkpt lat="48.48091" lon="-2.73676">
        <ele>124.40000152588</ele>
        <time>2022-09-04T06:50:31.000Z</time>
      </trkpt>
      <trkpt lat="48.48097" lon="-2.73654">
        <ele>123</ele>
        <time>2022-09-04T06:50:33.000Z</time>
      </trkpt>
      <trkpt lat="48.48104" lon="-2.73619">
        <ele>122</ele>
        <time>2022-09-04T06:50:36.000Z</time>
      </trkpt>
      <trkpt lat="48.48112" lon="-2.73583">
        <ele>121.40000152588</ele>
        <time>2022-09-04T06:50:39.000Z</time>
      </trkpt>
      <trkpt lat="48.48118" lon="-2.7356">
        <ele>120.80000305176</ele>
        <time>2022-09-04T06:50:41.000Z</time>
      </trkpt>
      <trkpt lat="48.4812" lon="-2.73549">
        <ele>120.40000152588</ele>
        <time>2022-09-04T06:50:42.000Z</time>
      </trkpt>
      <trkpt lat="48.48123" lon="-2.73538">
        <ele>120.19999694824</ele>
        <time>2022-09-04T06:50:43.000Z</time>
      </trkpt>
      <trkpt lat="48.48126" lon="-2.73528">
        <ele>120</ele>
        <time>2022-09-04T06:50:44.000Z</time>
      </trkpt>
      <trkpt lat="48.48133" lon="-2.73507">
        <ele>119.80000305176</ele>
        <time>2022-09-04T06:50:46.000Z</time>
      </trkpt>
      <trkpt lat="48.48136" lon="-2.73497">
        <ele>119.59999847412</ele>
        <time>2022-09-04T06:50:47.000Z</time>
      </trkpt>
      <trkpt lat="48.48142" lon="-2.73477">
        <ele>119.59999847412</ele>
        <time>2022-09-04T06:50:49.000Z</time>
      </trkpt>
      <trkpt lat="48.48144" lon="-2.73469">
        <ele>119.40000152588</ele>
        <time>2022-09-04T06:50:50.000Z</time>
      </trkpt>
      <trkpt lat="48.48144" lon="-2.73463">
        <ele>119</ele>
        <time>2022-09-04T06:50:51.000Z</time>
      </trkpt>
      <trkpt lat="48.48144" lon="-2.7346">
        <ele>118.80000305176</ele>
        <time>2022-09-04T06:50:52.000Z</time>
      </trkpt>
      <trkpt lat="48.48142" lon="-2.73457">
        <ele>118.59999847412</ele>
        <time>2022-09-04T06:50:53.000Z</time>
      </trkpt>
      <trkpt lat="48.48138" lon="-2.73454">
        <ele>118.40000152588</ele>
        <time>2022-09-04T06:50:54.000Z</time>
      </trkpt>
      <trkpt lat="48.48133" lon="-2.73451">
        <ele>118</ele>
        <time>2022-09-04T06:50:55.000Z</time>
      </trkpt>
      <trkpt lat="48.48116" lon="-2.73442">
        <ele>117.59999847412</ele>
        <time>2022-09-04T06:50:58.000Z</time>
      </trkpt>
      <trkpt lat="48.48112" lon="-2.7344">
        <ele>117.59999847412</ele>
        <time>2022-09-04T06:50:59.000Z</time>
      </trkpt>
      <trkpt lat="48.48111" lon="-2.73438">
        <ele>117.40000152588</ele>
        <time>2022-09-04T06:51:00.000Z</time>
      </trkpt>
      <trkpt lat="48.48112" lon="-2.73437">
        <ele>117.40000152588</ele>
        <time>2022-09-04T06:51:01.000Z</time>
      </trkpt>
      <trkpt lat="48.48113" lon="-2.73436">
        <ele>117.19999694824</ele>
        <time>2022-09-04T06:51:02.000Z</time>
      </trkpt>
      <trkpt lat="48.48116" lon="-2.73436">
        <ele>117.19999694824</ele>
        <time>2022-09-04T06:51:03.000Z</time>
      </trkpt>
      <trkpt lat="48.48127" lon="-2.73441">
        <ele>116.80000305176</ele>
        <time>2022-09-04T06:51:07.000Z</time>
      </trkpt>
      <trkpt lat="48.48131" lon="-2.73438">
        <ele>116.59999847412</ele>
        <time>2022-09-04T06:51:08.000Z</time>
      </trkpt>
      <trkpt lat="48.48134" lon="-2.73433">
        <ele>116.40000152588</ele>
        <time>2022-09-04T06:51:09.000Z</time>
      </trkpt>
      <trkpt lat="48.48137" lon="-2.73427">
        <ele>116.40000152588</ele>
        <time>2022-09-04T06:51:10.000Z</time>
      </trkpt>
      <trkpt lat="48.48144" lon="-2.73413">
        <ele>116.40000152588</ele>
        <time>2022-09-04T06:51:12.000Z</time>
      </trkpt>
      <trkpt lat="48.48147" lon="-2.73406">
        <ele>116.19999694824</ele>
        <time>2022-09-04T06:51:13.000Z</time>
      </trkpt>
      <trkpt lat="48.48153" lon="-2.73389">
        <ele>116</ele>
        <time>2022-09-04T06:51:15.000Z</time>
      </trkpt>
      <trkpt lat="48.48161" lon="-2.73361">
        <ele>115.40000152588</ele>
        <time>2022-09-04T06:51:18.000Z</time>
      </trkpt>
      <trkpt lat="48.48165" lon="-2.7334">
        <ele>114.59999847412</ele>
        <time>2022-09-04T06:51:20.000Z</time>
      </trkpt>
      <trkpt lat="48.48167" lon="-2.7333">
        <ele>114.19999694824</ele>
        <time>2022-09-04T06:51:21.000Z</time>
      </trkpt>
      <trkpt lat="48.4817" lon="-2.73319">
        <ele>113.80000305176</ele>
        <time>2022-09-04T06:51:22.000Z</time>
      </trkpt>
      <trkpt lat="48.48182" lon="-2.73288">
        <ele>113.19999694824</ele>
        <time>2022-09-04T06:51:25.000Z</time>
      </trkpt>
      <trkpt lat="48.48185" lon="-2.73278">
        <ele>113</ele>
        <time>2022-09-04T06:51:26.000Z</time>
      </trkpt>
      <trkpt lat="48.48191" lon="-2.73254">
        <ele>112.40000152588</ele>
        <time>2022-09-04T06:51:28.000Z</time>
      </trkpt>
      <trkpt lat="48.48197" lon="-2.73234">
        <ele>111.19999694824</ele>
        <time>2022-09-04T06:51:30.000Z</time>
      </trkpt>
      <trkpt lat="48.482" lon="-2.73221">
        <ele>110.59999847412</ele>
        <time>2022-09-04T06:51:31.000Z</time>
      </trkpt>
      <trkpt lat="48.48202" lon="-2.73213">
        <ele>110</ele>
        <time>2022-09-04T06:51:32.000Z</time>
      </trkpt>
      <trkpt lat="48.48202" lon="-2.73206">
        <ele>109.19999694824</ele>
        <time>2022-09-04T06:51:33.000Z</time>
      </trkpt>
      <trkpt lat="48.48201" lon="-2.73203">
        <ele>109</ele>
        <time>2022-09-04T06:51:34.000Z</time>
      </trkpt>
      <trkpt lat="48.482" lon="-2.732">
        <ele>108.80000305176</ele>
        <time>2022-09-04T06:51:35.000Z</time>
      </trkpt>
      <trkpt lat="48.48197" lon="-2.73197">
        <ele>108.59999847412</ele>
        <time>2022-09-04T06:51:36.000Z</time>
      </trkpt>
      <trkpt lat="48.48192" lon="-2.73193">
        <ele>108.19999694824</ele>
        <time>2022-09-04T06:51:38.000Z</time>
      </trkpt>
      <trkpt lat="48.48189" lon="-2.73191">
        <ele>107.80000305176</ele>
        <time>2022-09-04T06:51:39.000Z</time>
      </trkpt>
      <trkpt lat="48.48186" lon="-2.73188">
        <ele>107.80000305176</ele>
        <time>2022-09-04T06:51:40.000Z</time>
      </trkpt>
      <trkpt lat="48.48183" lon="-2.73185">
        <ele>107.40000152588</ele>
        <time>2022-09-04T06:51:41.000Z</time>
      </trkpt>
      <trkpt lat="48.48182" lon="-2.73181">
        <ele>107.40000152588</ele>
        <time>2022-09-04T06:51:42.000Z</time>
      </trkpt>
      <trkpt lat="48.48182" lon="-2.73175">
        <ele>107.19999694824</ele>
        <time>2022-09-04T06:51:43.000Z</time>
      </trkpt>
      <trkpt lat="48.48185" lon="-2.73162">
        <ele>107</ele>
        <time>2022-09-04T06:51:45.000Z</time>
      </trkpt>
      <trkpt lat="48.48191" lon="-2.73147">
        <ele>106.80000305176</ele>
        <time>2022-09-04T06:51:47.000Z</time>
      </trkpt>
      <trkpt lat="48.48194" lon="-2.7314">
        <ele>106.59999847412</ele>
        <time>2022-09-04T06:51:48.000Z</time>
      </trkpt>
      <trkpt lat="48.48208" lon="-2.73099">
        <ele>106.40000152588</ele>
        <time>2022-09-04T06:51:53.000Z</time>
      </trkpt>
      <trkpt lat="48.48214" lon="-2.7308">
        <ele>106.40000152588</ele>
        <time>2022-09-04T06:51:55.000Z</time>
      </trkpt>
      <trkpt lat="48.4822" lon="-2.73062">
        <ele>106.19999694824</ele>
        <time>2022-09-04T06:51:57.000Z</time>
      </trkpt>
      <trkpt lat="48.48222" lon="-2.73055">
        <ele>106.19999694824</ele>
        <time>2022-09-04T06:51:58.000Z</time>
      </trkpt>
      <trkpt lat="48.48234" lon="-2.73025">
        <ele>105.59999847412</ele>
        <time>2022-09-04T06:52:01.000Z</time>
      </trkpt>
      <trkpt lat="48.48236" lon="-2.73018">
        <ele>105.19999694824</ele>
        <time>2022-09-04T06:52:02.000Z</time>
      </trkpt>
      <trkpt lat="48.48239" lon="-2.73009">
        <ele>104.80000305176</ele>
        <time>2022-09-04T06:52:03.000Z</time>
      </trkpt>
      <trkpt lat="48.48242" lon="-2.73002">
        <ele>104.59999847412</ele>
        <time>2022-09-04T06:52:04.000Z</time>
      </trkpt>
      <trkpt lat="48.48245" lon="-2.72998">
        <ele>104.40000152588</ele>
        <time>2022-09-04T06:52:05.000Z</time>
      </trkpt>
      <trkpt lat="48.48246" lon="-2.72995">
        <ele>104.40000152588</ele>
        <time>2022-09-04T06:52:06.000Z</time>
      </trkpt>
      <trkpt lat="48.48248" lon="-2.72991">
        <ele>104.19999694824</ele>
        <time>2022-09-04T06:52:07.000Z</time>
      </trkpt>
      <trkpt lat="48.48251" lon="-2.72987">
        <ele>104.19999694824</ele>
        <time>2022-09-04T06:52:08.000Z</time>
      </trkpt>
      <trkpt lat="48.4826" lon="-2.72971">
        <ele>104</ele>
        <time>2022-09-04T06:52:11.000Z</time>
      </trkpt>
      <trkpt lat="48.48264" lon="-2.72963">
        <ele>104</ele>
        <time>2022-09-04T06:52:12.000Z</time>
      </trkpt>
      <trkpt lat="48.48276" lon="-2.72929">
        <ele>103.19999694824</ele>
        <time>2022-09-04T06:52:16.000Z</time>
      </trkpt>
      <trkpt lat="48.48279" lon="-2.72919">
        <ele>103</ele>
        <time>2022-09-04T06:52:17.000Z</time>
      </trkpt>
      <trkpt lat="48.48292" lon="-2.72879">
        <ele>102</ele>
        <time>2022-09-04T06:52:21.000Z</time>
      </trkpt>
      <trkpt lat="48.48306" lon="-2.72838">
        <ele>101.40000152588</ele>
        <time>2022-09-04T06:52:25.000Z</time>
      </trkpt>
      <trkpt lat="48.48329" lon="-2.72777">
        <ele>101</ele>
        <time>2022-09-04T06:52:31.000Z</time>
      </trkpt>
      <trkpt lat="48.48332" lon="-2.72767">
        <ele>100.80000305176</ele>
        <time>2022-09-04T06:52:32.000Z</time>
      </trkpt>
      <trkpt lat="48.48339" lon="-2.72747">
        <ele>100</ele>
        <time>2022-09-04T06:52:34.000Z</time>
      </trkpt>
      <trkpt lat="48.48342" lon="-2.72737">
        <ele>100</ele>
        <time>2022-09-04T06:52:35.000Z</time>
      </trkpt>
      <trkpt lat="48.48345" lon="-2.72727">
        <ele>100</ele>
        <time>2022-09-04T06:52:36.000Z</time>
      </trkpt>
      <trkpt lat="48.48349" lon="-2.72715">
        <ele>100</ele>
        <time>2022-09-04T06:52:37.000Z</time>
      </trkpt>
      <trkpt lat="48.48355" lon="-2.72695">
        <ele>99.599998474121</ele>
        <time>2022-09-04T06:52:39.000Z</time>
      </trkpt>
      <trkpt lat="48.48366" lon="-2.72652">
        <ele>99</ele>
        <time>2022-09-04T06:52:43.000Z</time>
      </trkpt>
      <trkpt lat="48.48371" lon="-2.72633">
        <ele>99</ele>
        <time>2022-09-04T06:52:45.000Z</time>
      </trkpt>
      <trkpt lat="48.48374" lon="-2.72621">
        <ele>98.400001525879</ele>
        <time>2022-09-04T06:52:46.000Z</time>
      </trkpt>
      <trkpt lat="48.48377" lon="-2.72612">
        <ele>98</ele>
        <time>2022-09-04T06:52:47.000Z</time>
      </trkpt>
      <trkpt lat="48.48378" lon="-2.72604">
        <ele>97.800003051758</ele>
        <time>2022-09-04T06:52:48.000Z</time>
      </trkpt>
      <trkpt lat="48.4838" lon="-2.72595">
        <ele>97.400001525879</ele>
        <time>2022-09-04T06:52:49.000Z</time>
      </trkpt>
      <trkpt lat="48.48381" lon="-2.72588">
        <ele>97.400001525879</ele>
        <time>2022-09-04T06:52:50.000Z</time>
      </trkpt>
      <trkpt lat="48.48383" lon="-2.72579">
        <ele>97.199996948242</ele>
        <time>2022-09-04T06:52:51.000Z</time>
      </trkpt>
      <trkpt lat="48.48384" lon="-2.72573">
        <ele>97.199996948242</ele>
        <time>2022-09-04T06:52:52.000Z</time>
      </trkpt>
      <trkpt lat="48.48385" lon="-2.72568">
        <ele>97.199996948242</ele>
        <time>2022-09-04T06:52:53.000Z</time>
      </trkpt>
      <trkpt lat="48.48386" lon="-2.72562">
        <ele>97.199996948242</ele>
        <time>2022-09-04T06:52:54.000Z</time>
      </trkpt>
      <trkpt lat="48.48387" lon="-2.72556">
        <ele>97.199996948242</ele>
        <time>2022-09-04T06:52:55.000Z</time>
      </trkpt>
      <trkpt lat="48.48389" lon="-2.72543">
        <ele>97.199996948242</ele>
        <time>2022-09-04T06:52:57.000Z</time>
      </trkpt>
      <trkpt lat="48.48394" lon="-2.72485">
        <ele>97</ele>
        <time>2022-09-04T06:53:05.000Z</time>
      </trkpt>
      <trkpt lat="48.48395" lon="-2.7248">
        <ele>97.199996948242</ele>
        <time>2022-09-04T06:53:06.000Z</time>
      </trkpt>
      <trkpt lat="48.48399" lon="-2.72477">
        <ele>97.199996948242</ele>
        <time>2022-09-04T06:53:07.000Z</time>
      </trkpt>
      <trkpt lat="48.48407" lon="-2.72474">
        <ele>96.800003051758</ele>
        <time>2022-09-04T06:53:09.000Z</time>
      </trkpt>
      <trkpt lat="48.48418" lon="-2.72477">
        <ele>96.800003051758</ele>
        <time>2022-09-04T06:53:11.000Z</time>
      </trkpt>
      <trkpt lat="48.48422" lon="-2.72479">
        <ele>96.800003051758</ele>
        <time>2022-09-04T06:53:12.000Z</time>
      </trkpt>
      <trkpt lat="48.48427" lon="-2.72481">
        <ele>96.599998474121</ele>
        <time>2022-09-04T06:53:13.000Z</time>
      </trkpt>
      <trkpt lat="48.48438" lon="-2.72485">
        <ele>96.400001525879</ele>
        <time>2022-09-04T06:53:15.000Z</time>
      </trkpt>
      <trkpt lat="48.48462" lon="-2.72491">
        <ele>96.199996948242</ele>
        <time>2022-09-04T06:53:19.000Z</time>
      </trkpt>
      <trkpt lat="48.48467" lon="-2.72492">
        <ele>96.199996948242</ele>
        <time>2022-09-04T06:53:20.000Z</time>
      </trkpt>
      <trkpt lat="48.48472" lon="-2.72492">
        <ele>96.199996948242</ele>
        <time>2022-09-04T06:53:21.000Z</time>
      </trkpt>
      <trkpt lat="48.48475" lon="-2.72492">
        <ele>96.199996948242</ele>
        <time>2022-09-04T06:53:22.000Z</time>
      </trkpt>
      <trkpt lat="48.48479" lon="-2.72489">
        <ele>96.199996948242</ele>
        <time>2022-09-04T06:53:23.000Z</time>
      </trkpt>
      <trkpt lat="48.48481" lon="-2.72485">
        <ele>96.199996948242</ele>
        <time>2022-09-04T06:53:24.000Z</time>
      </trkpt>
      <trkpt lat="48.48481" lon="-2.72478">
        <ele>96.199996948242</ele>
        <time>2022-09-04T06:53:25.000Z</time>
      </trkpt>
      <trkpt lat="48.48477" lon="-2.72465">
        <ele>96.199996948242</ele>
        <time>2022-09-04T06:53:27.000Z</time>
      </trkpt>
      <trkpt lat="48.4847" lon="-2.72447">
        <ele>96.400001525879</ele>
        <time>2022-09-04T06:53:29.000Z</time>
      </trkpt>
      <trkpt lat="48.48468" lon="-2.7244">
        <ele>96.400001525879</ele>
        <time>2022-09-04T06:53:30.000Z</time>
      </trkpt>
      <trkpt lat="48.48462" lon="-2.72411">
        <ele>96.400001525879</ele>
        <time>2022-09-04T06:53:33.000Z</time>
      </trkpt>
      <trkpt lat="48.48461" lon="-2.72399">
        <ele>96.400001525879</ele>
        <time>2022-09-04T06:53:34.000Z</time>
      </trkpt>
      <trkpt lat="48.48458" lon="-2.72322">
        <ele>95.800003051758</ele>
        <time>2022-09-04T06:53:41.000Z</time>
      </trkpt>
      <trkpt lat="48.48451" lon="-2.72254">
        <ele>95.800003051758</ele>
        <time>2022-09-04T06:53:47.000Z</time>
      </trkpt>
      <trkpt lat="48.48444" lon="-2.72221">
        <ele>95.800003051758</ele>
        <time>2022-09-04T06:53:50.000Z</time>
      </trkpt>
      <trkpt lat="48.48442" lon="-2.7221">
        <ele>95.800003051758</ele>
        <time>2022-09-04T06:53:51.000Z</time>
      </trkpt>
      <trkpt lat="48.4844" lon="-2.72199">
        <ele>96</ele>
        <time>2022-09-04T06:53:52.000Z</time>
      </trkpt>
      <trkpt lat="48.48438" lon="-2.72188">
        <ele>96</ele>
        <time>2022-09-04T06:53:53.000Z</time>
      </trkpt>
      <trkpt lat="48.48435" lon="-2.72176">
        <ele>96</ele>
        <time>2022-09-04T06:53:54.000Z</time>
      </trkpt>
      <trkpt lat="48.48433" lon="-2.72168">
        <ele>96.199996948242</ele>
        <time>2022-09-04T06:53:55.000Z</time>
      </trkpt>
      <trkpt lat="48.48431" lon="-2.72157">
        <ele>96.199996948242</ele>
        <time>2022-09-04T06:53:56.000Z</time>
      </trkpt>
      <trkpt lat="48.48429" lon="-2.72145">
        <ele>96.199996948242</ele>
        <time>2022-09-04T06:53:57.000Z</time>
      </trkpt>
      <trkpt lat="48.48427" lon="-2.72135">
        <ele>96.199996948242</ele>
        <time>2022-09-04T06:53:58.000Z</time>
      </trkpt>
      <trkpt lat="48.48425" lon="-2.72127">
        <ele>96</ele>
        <time>2022-09-04T06:53:59.000Z</time>
      </trkpt>
      <trkpt lat="48.48421" lon="-2.72107">
        <ele>95.800003051758</ele>
        <time>2022-09-04T06:54:01.000Z</time>
      </trkpt>
      <trkpt lat="48.48419" lon="-2.72095">
        <ele>95.800003051758</ele>
        <time>2022-09-04T06:54:02.000Z</time>
      </trkpt>
      <trkpt lat="48.48414" lon="-2.72068">
        <ele>95.800003051758</ele>
        <time>2022-09-04T06:54:05.000Z</time>
      </trkpt>
      <trkpt lat="48.48412" lon="-2.72059">
        <ele>95.800003051758</ele>
        <time>2022-09-04T06:54:06.000Z</time>
      </trkpt>
      <trkpt lat="48.4841" lon="-2.72048">
        <ele>95.800003051758</ele>
        <time>2022-09-04T06:54:07.000Z</time>
      </trkpt>
      <trkpt lat="48.48408" lon="-2.72039">
        <ele>95.599998474121</ele>
        <time>2022-09-04T06:54:08.000Z</time>
      </trkpt>
      <trkpt lat="48.48403" lon="-2.72012">
        <ele>95.599998474121</ele>
        <time>2022-09-04T06:54:11.000Z</time>
      </trkpt>
      <trkpt lat="48.48399" lon="-2.72005">
        <ele>95.599998474121</ele>
        <time>2022-09-04T06:54:12.000Z</time>
      </trkpt>
      <trkpt lat="48.48395" lon="-2.72">
        <ele>95.599998474121</ele>
        <time>2022-09-04T06:54:13.000Z</time>
      </trkpt>
      <trkpt lat="48.4839" lon="-2.71997">
        <ele>95.599998474121</ele>
        <time>2022-09-04T06:54:14.000Z</time>
      </trkpt>
      <trkpt lat="48.48385" lon="-2.71994">
        <ele>95.599998474121</ele>
        <time>2022-09-04T06:54:15.000Z</time>
      </trkpt>
      <trkpt lat="48.48379" lon="-2.71991">
        <ele>95.599998474121</ele>
        <time>2022-09-04T06:54:16.000Z</time>
      </trkpt>
      <trkpt lat="48.48372" lon="-2.71989">
        <ele>95.599998474121</ele>
        <time>2022-09-04T06:54:17.000Z</time>
      </trkpt>
      <trkpt lat="48.48367" lon="-2.71987">
        <ele>95.599998474121</ele>
        <time>2022-09-04T06:54:18.000Z</time>
      </trkpt>
      <trkpt lat="48.48362" lon="-2.71985">
        <ele>95.599998474121</ele>
        <time>2022-09-04T06:54:19.000Z</time>
      </trkpt>
      <trkpt lat="48.48357" lon="-2.71982">
        <ele>95.599998474121</ele>
        <time>2022-09-04T06:54:20.000Z</time>
      </trkpt>
      <trkpt lat="48.48346" lon="-2.71978">
        <ele>95.599998474121</ele>
        <time>2022-09-04T06:54:22.000Z</time>
      </trkpt>
      <trkpt lat="48.48328" lon="-2.7197">
        <ele>95.599998474121</ele>
        <time>2022-09-04T06:54:25.000Z</time>
      </trkpt>
      <trkpt lat="48.48316" lon="-2.71964">
        <ele>95.800003051758</ele>
        <time>2022-09-04T06:54:27.000Z</time>
      </trkpt>
      <trkpt lat="48.48312" lon="-2.71962">
        <ele>95.800003051758</ele>
        <time>2022-09-04T06:54:28.000Z</time>
      </trkpt>
      <trkpt lat="48.48307" lon="-2.71959">
        <ele>95.800003051758</ele>
        <time>2022-09-04T06:54:29.000Z</time>
      </trkpt>
      <trkpt lat="48.48301" lon="-2.71956">
        <ele>95.800003051758</ele>
        <time>2022-09-04T06:54:30.000Z</time>
      </trkpt>
      <trkpt lat="48.48296" lon="-2.71953">
        <ele>95.800003051758</ele>
        <time>2022-09-04T06:54:31.000Z</time>
      </trkpt>
      <trkpt lat="48.48291" lon="-2.71951">
        <ele>96</ele>
        <time>2022-09-04T06:54:32.000Z</time>
      </trkpt>
      <trkpt lat="48.48287" lon="-2.71949">
        <ele>96</ele>
        <time>2022-09-04T06:54:33.000Z</time>
      </trkpt>
      <trkpt lat="48.48283" lon="-2.71946">
        <ele>96</ele>
        <time>2022-09-04T06:54:34.000Z</time>
      </trkpt>
      <trkpt lat="48.48278" lon="-2.71944">
        <ele>96</ele>
        <time>2022-09-04T06:54:35.000Z</time>
      </trkpt>
      <trkpt lat="48.48273" lon="-2.71942">
        <ele>96.199996948242</ele>
        <time>2022-09-04T06:54:36.000Z</time>
      </trkpt>
      <trkpt lat="48.4827" lon="-2.7194">
        <ele>96.199996948242</ele>
        <time>2022-09-04T06:54:37.000Z</time>
      </trkpt>
      <trkpt lat="48.48266" lon="-2.71936">
        <ele>96.199996948242</ele>
        <time>2022-09-04T06:54:38.000Z</time>
      </trkpt>
      <trkpt lat="48.48263" lon="-2.71931">
        <ele>96.400001525879</ele>
        <time>2022-09-04T06:54:39.000Z</time>
      </trkpt>
      <trkpt lat="48.48258" lon="-2.71917">
        <ele>96.400001525879</ele>
        <time>2022-09-04T06:54:41.000Z</time>
      </trkpt>
      <trkpt lat="48.48247" lon="-2.719">
        <ele>96.400001525879</ele>
        <time>2022-09-04T06:54:44.000Z</time>
      </trkpt>
      <trkpt lat="48.48244" lon="-2.71896">
        <ele>96.400001525879</ele>
        <time>2022-09-04T06:54:45.000Z</time>
      </trkpt>
      <trkpt lat="48.4823" lon="-2.71873">
        <ele>96.400001525879</ele>
        <time>2022-09-04T06:54:49.000Z</time>
      </trkpt>
      <trkpt lat="48.48225" lon="-2.71867">
        <ele>96.400001525879</ele>
        <time>2022-09-04T06:54:50.000Z</time>
      </trkpt>
      <trkpt lat="48.48206" lon="-2.71852">
        <ele>96.400001525879</ele>
        <time>2022-09-04T06:54:54.000Z</time>
      </trkpt>
      <trkpt lat="48.48201" lon="-2.71847">
        <ele>96.400001525879</ele>
        <time>2022-09-04T06:54:55.000Z</time>
      </trkpt>
      <trkpt lat="48.48197" lon="-2.71843">
        <ele>96.599998474121</ele>
        <time>2022-09-04T06:54:56.000Z</time>
      </trkpt>
      <trkpt lat="48.48189" lon="-2.71833">
        <ele>96.599998474121</ele>
        <time>2022-09-04T06:54:58.000Z</time>
      </trkpt>
      <trkpt lat="48.48184" lon="-2.71823">
        <ele>96.800003051758</ele>
        <time>2022-09-04T06:55:00.000Z</time>
      </trkpt>
      <trkpt lat="48.48179" lon="-2.71809">
        <ele>97</ele>
        <time>2022-09-04T06:55:02.000Z</time>
      </trkpt>
      <trkpt lat="48.48177" lon="-2.71801">
        <ele>97.199996948242</ele>
        <time>2022-09-04T06:55:03.000Z</time>
      </trkpt>
      <trkpt lat="48.48176" lon="-2.71792">
        <ele>97.199996948242</ele>
        <time>2022-09-04T06:55:04.000Z</time>
      </trkpt>
      <trkpt lat="48.48176" lon="-2.71781">
        <ele>97.199996948242</ele>
        <time>2022-09-04T06:55:05.000Z</time>
      </trkpt>
      <trkpt lat="48.48177" lon="-2.71773">
        <ele>97.199996948242</ele>
        <time>2022-09-04T06:55:06.000Z</time>
      </trkpt>
      <trkpt lat="48.48178" lon="-2.71763">
        <ele>97.199996948242</ele>
        <time>2022-09-04T06:55:07.000Z</time>
      </trkpt>
      <trkpt lat="48.48178" lon="-2.71753">
        <ele>97</ele>
        <time>2022-09-04T06:55:08.000Z</time>
      </trkpt>
      <trkpt lat="48.48173" lon="-2.71733">
        <ele>97</ele>
        <time>2022-09-04T06:55:10.000Z</time>
      </trkpt>
      <trkpt lat="48.48161" lon="-2.71711">
        <ele>96.599998474121</ele>
        <time>2022-09-04T06:55:13.000Z</time>
      </trkpt>
      <trkpt lat="48.48156" lon="-2.71704">
        <ele>96.599998474121</ele>
        <time>2022-09-04T06:55:14.000Z</time>
      </trkpt>
      <trkpt lat="48.48147" lon="-2.71692">
        <ele>96.400001525879</ele>
        <time>2022-09-04T06:55:16.000Z</time>
      </trkpt>
      <trkpt lat="48.48122" lon="-2.71659">
        <ele>96.400001525879</ele>
        <time>2022-09-04T06:55:21.000Z</time>
      </trkpt>
      <trkpt lat="48.48118" lon="-2.71652">
        <ele>96.400001525879</ele>
        <time>2022-09-04T06:55:22.000Z</time>
      </trkpt>
      <trkpt lat="48.48115" lon="-2.71644">
        <ele>96.400001525879</ele>
        <time>2022-09-04T06:55:23.000Z</time>
      </trkpt>
      <trkpt lat="48.48112" lon="-2.71634">
        <ele>96.199996948242</ele>
        <time>2022-09-04T06:55:24.000Z</time>
      </trkpt>
      <trkpt lat="48.48105" lon="-2.71618">
        <ele>96.199996948242</ele>
        <time>2022-09-04T06:55:26.000Z</time>
      </trkpt>
      <trkpt lat="48.48088" lon="-2.71595">
        <ele>96.400001525879</ele>
        <time>2022-09-04T06:55:29.000Z</time>
      </trkpt>
      <trkpt lat="48.48076" lon="-2.71578">
        <ele>96.199996948242</ele>
        <time>2022-09-04T06:55:31.000Z</time>
      </trkpt>
      <trkpt lat="48.48067" lon="-2.71558">
        <ele>96</ele>
        <time>2022-09-04T06:55:33.000Z</time>
      </trkpt>
      <trkpt lat="48.48064" lon="-2.7155">
        <ele>96</ele>
        <time>2022-09-04T06:55:34.000Z</time>
      </trkpt>
      <trkpt lat="48.48052" lon="-2.7152">
        <ele>95.800003051758</ele>
        <time>2022-09-04T06:55:37.000Z</time>
      </trkpt>
      <trkpt lat="48.48048" lon="-2.7151">
        <ele>95.599998474121</ele>
        <time>2022-09-04T06:55:38.000Z</time>
      </trkpt>
      <trkpt lat="48.48045" lon="-2.715">
        <ele>95.400001525879</ele>
        <time>2022-09-04T06:55:39.000Z</time>
      </trkpt>
      <trkpt lat="48.48042" lon="-2.7149">
        <ele>95</ele>
        <time>2022-09-04T06:55:40.000Z</time>
      </trkpt>
      <trkpt lat="48.48039" lon="-2.71479">
        <ele>94.800003051758</ele>
        <time>2022-09-04T06:55:41.000Z</time>
      </trkpt>
      <trkpt lat="48.48036" lon="-2.71466">
        <ele>94.800003051758</ele>
        <time>2022-09-04T06:55:42.000Z</time>
      </trkpt>
      <trkpt lat="48.48033" lon="-2.71446">
        <ele>94.599998474121</ele>
        <time>2022-09-04T06:55:44.000Z</time>
      </trkpt>
      <trkpt lat="48.48031" lon="-2.71436">
        <ele>94.599998474121</ele>
        <time>2022-09-04T06:55:45.000Z</time>
      </trkpt>
      <trkpt lat="48.4803" lon="-2.71426">
        <ele>94.400001525879</ele>
        <time>2022-09-04T06:55:46.000Z</time>
      </trkpt>
      <trkpt lat="48.48027" lon="-2.71414">
        <ele>94.400001525879</ele>
        <time>2022-09-04T06:55:47.000Z</time>
      </trkpt>
      <trkpt lat="48.48026" lon="-2.71406">
        <ele>94</ele>
        <time>2022-09-04T06:55:48.000Z</time>
      </trkpt>
      <trkpt lat="48.48025" lon="-2.71396">
        <ele>93.800003051758</ele>
        <time>2022-09-04T06:55:49.000Z</time>
      </trkpt>
      <trkpt lat="48.48023" lon="-2.71372">
        <ele>93.599998474121</ele>
        <time>2022-09-04T06:55:51.000Z</time>
      </trkpt>
      <trkpt lat="48.48017" lon="-2.71344">
        <ele>93.199996948242</ele>
        <time>2022-09-04T06:55:54.000Z</time>
      </trkpt>
      <trkpt lat="48.48011" lon="-2.71325">
        <ele>93</ele>
        <time>2022-09-04T06:55:56.000Z</time>
      </trkpt>
      <trkpt lat="48.48008" lon="-2.71319">
        <ele>93</ele>
        <time>2022-09-04T06:55:57.000Z</time>
      </trkpt>
      <trkpt lat="48.48" lon="-2.713">
        <ele>93</ele>
        <time>2022-09-04T06:55:59.000Z</time>
      </trkpt>
      <trkpt lat="48.47997" lon="-2.71291">
        <ele>93</ele>
        <time>2022-09-04T06:56:00.000Z</time>
      </trkpt>
      <trkpt lat="48.47993" lon="-2.71282">
        <ele>92.800003051758</ele>
        <time>2022-09-04T06:56:01.000Z</time>
      </trkpt>
      <trkpt lat="48.47985" lon="-2.71266">
        <ele>92.800003051758</ele>
        <time>2022-09-04T06:56:03.000Z</time>
      </trkpt>
      <trkpt lat="48.47981" lon="-2.71257">
        <ele>92.800003051758</ele>
        <time>2022-09-04T06:56:04.000Z</time>
      </trkpt>
      <trkpt lat="48.47978" lon="-2.71248">
        <ele>92.599998474121</ele>
        <time>2022-09-04T06:56:05.000Z</time>
      </trkpt>
      <trkpt lat="48.47975" lon="-2.71238">
        <ele>92.599998474121</ele>
        <time>2022-09-04T06:56:06.000Z</time>
      </trkpt>
      <trkpt lat="48.47972" lon="-2.71231">
        <ele>92.599998474121</ele>
        <time>2022-09-04T06:56:07.000Z</time>
      </trkpt>
      <trkpt lat="48.47969" lon="-2.71223">
        <ele>92.800003051758</ele>
        <time>2022-09-04T06:56:08.000Z</time>
      </trkpt>
      <trkpt lat="48.47966" lon="-2.71214">
        <ele>92.800003051758</ele>
        <time>2022-09-04T06:56:09.000Z</time>
      </trkpt>
      <trkpt lat="48.47962" lon="-2.71204">
        <ele>92.800003051758</ele>
        <time>2022-09-04T06:56:10.000Z</time>
      </trkpt>
      <trkpt lat="48.47959" lon="-2.71198">
        <ele>92.800003051758</ele>
        <time>2022-09-04T06:56:11.000Z</time>
      </trkpt>
      <trkpt lat="48.47956" lon="-2.7119">
        <ele>92.800003051758</ele>
        <time>2022-09-04T06:56:12.000Z</time>
      </trkpt>
      <trkpt lat="48.47953" lon="-2.71182">
        <ele>92.800003051758</ele>
        <time>2022-09-04T06:56:13.000Z</time>
      </trkpt>
      <trkpt lat="48.47921" lon="-2.71118">
        <ele>93</ele>
        <time>2022-09-04T06:56:21.000Z</time>
      </trkpt>
      <trkpt lat="48.47901" lon="-2.71077">
        <ele>92.800003051758</ele>
        <time>2022-09-04T06:56:26.000Z</time>
      </trkpt>
      <trkpt lat="48.47898" lon="-2.71069">
        <ele>92.599998474121</ele>
        <time>2022-09-04T06:56:27.000Z</time>
      </trkpt>
      <trkpt lat="48.47895" lon="-2.71061">
        <ele>92.599998474121</ele>
        <time>2022-09-04T06:56:28.000Z</time>
      </trkpt>
      <trkpt lat="48.47892" lon="-2.71054">
        <ele>92.599998474121</ele>
        <time>2022-09-04T06:56:29.000Z</time>
      </trkpt>
      <trkpt lat="48.47888" lon="-2.71047">
        <ele>92</ele>
        <time>2022-09-04T06:56:30.000Z</time>
      </trkpt>
      <trkpt lat="48.47885" lon="-2.71042">
        <ele>92</ele>
        <time>2022-09-04T06:56:31.000Z</time>
      </trkpt>
      <trkpt lat="48.47882" lon="-2.71035">
        <ele>91.800003051758</ele>
        <time>2022-09-04T06:56:32.000Z</time>
      </trkpt>
      <trkpt lat="48.4788" lon="-2.7103">
        <ele>91.800003051758</ele>
        <time>2022-09-04T06:56:33.000Z</time>
      </trkpt>
      <trkpt lat="48.47877" lon="-2.71021">
        <ele>91.599998474121</ele>
        <time>2022-09-04T06:56:34.000Z</time>
      </trkpt>
      <trkpt lat="48.47874" lon="-2.71015">
        <ele>91.599998474121</ele>
        <time>2022-09-04T06:56:35.000Z</time>
      </trkpt>
      <trkpt lat="48.47865" lon="-2.71002">
        <ele>91.400001525879</ele>
        <time>2022-09-04T06:56:37.000Z</time>
      </trkpt>
      <trkpt lat="48.47859" lon="-2.70995">
        <ele>91.199996948242</ele>
        <time>2022-09-04T06:56:38.000Z</time>
      </trkpt>
      <trkpt lat="48.47854" lon="-2.7099">
        <ele>91.199996948242</ele>
        <time>2022-09-04T06:56:39.000Z</time>
      </trkpt>
      <trkpt lat="48.47849" lon="-2.70986">
        <ele>91</ele>
        <time>2022-09-04T06:56:40.000Z</time>
      </trkpt>
      <trkpt lat="48.47837" lon="-2.70973">
        <ele>91</ele>
        <time>2022-09-04T06:56:42.000Z</time>
      </trkpt>
      <trkpt lat="48.47831" lon="-2.70967">
        <ele>90.800003051758</ele>
        <time>2022-09-04T06:56:43.000Z</time>
      </trkpt>
      <trkpt lat="48.47806" lon="-2.70945">
        <ele>90.400001525879</ele>
        <time>2022-09-04T06:56:47.000Z</time>
      </trkpt>
      <trkpt lat="48.47785" lon="-2.70927">
        <ele>89.599998474121</ele>
        <time>2022-09-04T06:56:50.000Z</time>
      </trkpt>
      <trkpt lat="48.47761" lon="-2.70907">
        <ele>89</ele>
        <time>2022-09-04T06:56:53.000Z</time>
      </trkpt>
      <trkpt lat="48.47755" lon="-2.70901">
        <ele>88.400001525879</ele>
        <time>2022-09-04T06:56:54.000Z</time>
      </trkpt>
      <trkpt lat="48.47732" lon="-2.70876">
        <ele>87.599998474121</ele>
        <time>2022-09-04T06:56:57.000Z</time>
      </trkpt>
      <trkpt lat="48.47727" lon="-2.7087">
        <ele>86.800003051758</ele>
        <time>2022-09-04T06:56:58.000Z</time>
      </trkpt>
      <trkpt lat="48.4772" lon="-2.70862">
        <ele>86.599998474121</ele>
        <time>2022-09-04T06:56:59.000Z</time>
      </trkpt>
      <trkpt lat="48.47713" lon="-2.70852">
        <ele>86.199996948242</ele>
        <time>2022-09-04T06:57:00.000Z</time>
      </trkpt>
      <trkpt lat="48.47706" lon="-2.70845">
        <ele>86</ele>
        <time>2022-09-04T06:57:01.000Z</time>
      </trkpt>
      <trkpt lat="48.47701" lon="-2.70838">
        <ele>85.800003051758</ele>
        <time>2022-09-04T06:57:02.000Z</time>
      </trkpt>
      <trkpt lat="48.47695" lon="-2.70831">
        <ele>85.599998474121</ele>
        <time>2022-09-04T06:57:03.000Z</time>
      </trkpt>
      <trkpt lat="48.47669" lon="-2.70794">
        <ele>84.599998474121</ele>
        <time>2022-09-04T06:57:07.000Z</time>
      </trkpt>
      <trkpt lat="48.47664" lon="-2.70787">
        <ele>84.599998474121</ele>
        <time>2022-09-04T06:57:08.000Z</time>
      </trkpt>
      <trkpt lat="48.47643" lon="-2.70761">
        <ele>83.400001525879</ele>
        <time>2022-09-04T06:57:11.000Z</time>
      </trkpt>
      <trkpt lat="48.4763" lon="-2.70743">
        <ele>82.599998474121</ele>
        <time>2022-09-04T06:57:13.000Z</time>
      </trkpt>
      <trkpt lat="48.47624" lon="-2.70734">
        <ele>82</ele>
        <time>2022-09-04T06:57:14.000Z</time>
      </trkpt>
      <trkpt lat="48.47618" lon="-2.70726">
        <ele>81.599998474121</ele>
        <time>2022-09-04T06:57:15.000Z</time>
      </trkpt>
      <trkpt lat="48.47611" lon="-2.70716">
        <ele>81.199996948242</ele>
        <time>2022-09-04T06:57:16.000Z</time>
      </trkpt>
      <trkpt lat="48.47606" lon="-2.7071">
        <ele>81.199996948242</ele>
        <time>2022-09-04T06:57:17.000Z</time>
      </trkpt>
      <trkpt lat="48.47601" lon="-2.70703">
        <ele>81</ele>
        <time>2022-09-04T06:57:18.000Z</time>
      </trkpt>
      <trkpt lat="48.47594" lon="-2.70694">
        <ele>81</ele>
        <time>2022-09-04T06:57:19.000Z</time>
      </trkpt>
      <trkpt lat="48.47589" lon="-2.70687">
        <ele>80.800003051758</ele>
        <time>2022-09-04T06:57:20.000Z</time>
      </trkpt>
      <trkpt lat="48.47585" lon="-2.70682">
        <ele>80.800003051758</ele>
        <time>2022-09-04T06:57:21.000Z</time>
      </trkpt>
      <trkpt lat="48.4758" lon="-2.70676">
        <ele>80.800003051758</ele>
        <time>2022-09-04T06:57:22.000Z</time>
      </trkpt>
      <trkpt lat="48.47576" lon="-2.70669">
        <ele>80.599998474121</ele>
        <time>2022-09-04T06:57:23.000Z</time>
      </trkpt>
      <trkpt lat="48.47572" lon="-2.70663">
        <ele>80.599998474121</ele>
        <time>2022-09-04T06:57:24.000Z</time>
      </trkpt>
      <trkpt lat="48.47567" lon="-2.70655">
        <ele>80.599998474121</ele>
        <time>2022-09-04T06:57:25.000Z</time>
      </trkpt>
      <trkpt lat="48.47566" lon="-2.70652">
        <ele>80.599998474121</ele>
        <time>2022-09-04T06:57:26.000Z</time>
      </trkpt>
      <trkpt lat="48.47564" lon="-2.7065">
        <ele>80.400001525879</ele>
        <time>2022-09-04T06:57:27.000Z</time>
      </trkpt>
      <trkpt lat="48.47562" lon="-2.70648">
        <ele>80.400001525879</ele>
        <time>2022-09-04T06:57:28.000Z</time>
      </trkpt>
      <trkpt lat="48.47561" lon="-2.70646">
        <ele>80.199996948242</ele>
        <time>2022-09-04T06:57:29.000Z</time>
      </trkpt>
      <trkpt lat="48.47557" lon="-2.70641">
        <ele>80.199996948242</ele>
        <time>2022-09-04T06:57:31.000Z</time>
      </trkpt>
      <trkpt lat="48.47555" lon="-2.70636">
        <ele>80</ele>
        <time>2022-09-04T06:57:32.000Z</time>
      </trkpt>
      <trkpt lat="48.47552" lon="-2.7063">
        <ele>79.800003051758</ele>
        <time>2022-09-04T06:57:33.000Z</time>
      </trkpt>
      <trkpt lat="48.47547" lon="-2.70612">
        <ele>79.599998474121</ele>
        <time>2022-09-04T06:57:35.000Z</time>
      </trkpt>
      <trkpt lat="48.47547" lon="-2.70601">
        <ele>79.199996948242</ele>
        <time>2022-09-04T06:57:36.000Z</time>
      </trkpt>
      <trkpt lat="48.47548" lon="-2.7059">
        <ele>79</ele>
        <time>2022-09-04T06:57:37.000Z</time>
      </trkpt>
      <trkpt lat="48.4755" lon="-2.70576">
        <ele>78.599998474121</ele>
        <time>2022-09-04T06:57:38.000Z</time>
      </trkpt>
      <trkpt lat="48.47551" lon="-2.70566">
        <ele>78.400001525879</ele>
        <time>2022-09-04T06:57:39.000Z</time>
      </trkpt>
      <trkpt lat="48.47553" lon="-2.70554">
        <ele>78.199996948242</ele>
        <time>2022-09-04T06:57:40.000Z</time>
      </trkpt>
      <trkpt lat="48.47558" lon="-2.70514">
        <ele>77.599998474121</ele>
        <time>2022-09-04T06:57:43.000Z</time>
      </trkpt>
      <trkpt lat="48.4756" lon="-2.70501">
        <ele>77.400001525879</ele>
        <time>2022-09-04T06:57:44.000Z</time>
      </trkpt>
      <trkpt lat="48.47561" lon="-2.70492">
        <ele>77.199996948242</ele>
        <time>2022-09-04T06:57:45.000Z</time>
      </trkpt>
      <trkpt lat="48.47563" lon="-2.70481">
        <ele>76.800003051758</ele>
        <time>2022-09-04T06:57:46.000Z</time>
      </trkpt>
      <trkpt lat="48.47565" lon="-2.7047">
        <ele>76.800003051758</ele>
        <time>2022-09-04T06:57:47.000Z</time>
      </trkpt>
      <trkpt lat="48.47566" lon="-2.70461">
        <ele>76.599998474121</ele>
        <time>2022-09-04T06:57:48.000Z</time>
      </trkpt>
      <trkpt lat="48.47567" lon="-2.7045">
        <ele>76.400001525879</ele>
        <time>2022-09-04T06:57:49.000Z</time>
      </trkpt>
      <trkpt lat="48.47568" lon="-2.70445">
        <ele>76.400001525879</ele>
        <time>2022-09-04T06:57:50.000Z</time>
      </trkpt>
      <trkpt lat="48.47567" lon="-2.70441">
        <ele>76.199996948242</ele>
        <time>2022-09-04T06:57:51.000Z</time>
      </trkpt>
      <trkpt lat="48.47565" lon="-2.70437">
        <ele>76</ele>
        <time>2022-09-04T06:57:52.000Z</time>
      </trkpt>
      <trkpt lat="48.47561" lon="-2.70436">
        <ele>76</ele>
        <time>2022-09-04T06:57:53.000Z</time>
      </trkpt>
      <trkpt lat="48.47554" lon="-2.70436">
        <ele>75.800003051758</ele>
        <time>2022-09-04T06:57:54.000Z</time>
      </trkpt>
      <trkpt lat="48.47537" lon="-2.70432">
        <ele>74.800003051758</ele>
        <time>2022-09-04T06:57:57.000Z</time>
      </trkpt>
      <trkpt lat="48.47531" lon="-2.70431">
        <ele>74.599998474121</ele>
        <time>2022-09-04T06:57:58.000Z</time>
      </trkpt>
      <trkpt lat="48.47501" lon="-2.7042">
        <ele>74</ele>
        <time>2022-09-04T06:58:03.000Z</time>
      </trkpt>
      <trkpt lat="48.47497" lon="-2.70419">
        <ele>73.599998474121</ele>
        <time>2022-09-04T06:58:04.000Z</time>
      </trkpt>
      <trkpt lat="48.47491" lon="-2.70418">
        <ele>73.400001525879</ele>
        <time>2022-09-04T06:58:05.000Z</time>
      </trkpt>
      <trkpt lat="48.47486" lon="-2.70417">
        <ele>73.199996948242</ele>
        <time>2022-09-04T06:58:06.000Z</time>
      </trkpt>
      <trkpt lat="48.4748" lon="-2.70415">
        <ele>73.199996948242</ele>
        <time>2022-09-04T06:58:07.000Z</time>
      </trkpt>
      <trkpt lat="48.47475" lon="-2.70413">
        <ele>73</ele>
        <time>2022-09-04T06:58:08.000Z</time>
      </trkpt>
      <trkpt lat="48.4746" lon="-2.70405">
        <ele>72.800003051758</ele>
        <time>2022-09-04T06:58:11.000Z</time>
      </trkpt>
      <trkpt lat="48.47453" lon="-2.70395">
        <ele>72.800003051758</ele>
        <time>2022-09-04T06:58:13.000Z</time>
      </trkpt>
      <trkpt lat="48.47451" lon="-2.70388">
        <ele>72.800003051758</ele>
        <time>2022-09-04T06:58:14.000Z</time>
      </trkpt>
      <trkpt lat="48.47451" lon="-2.70379">
        <ele>72.800003051758</ele>
        <time>2022-09-04T06:58:15.000Z</time>
      </trkpt>
      <trkpt lat="48.47451" lon="-2.7036">
        <ele>72.800003051758</ele>
        <time>2022-09-04T06:58:17.000Z</time>
      </trkpt>
      <trkpt lat="48.47452" lon="-2.70353">
        <ele>72.800003051758</ele>
        <time>2022-09-04T06:58:18.000Z</time>
      </trkpt>
      <trkpt lat="48.47453" lon="-2.70344">
        <ele>72.800003051758</ele>
        <time>2022-09-04T06:58:19.000Z</time>
      </trkpt>
      <trkpt lat="48.47458" lon="-2.70317">
        <ele>72.800003051758</ele>
        <time>2022-09-04T06:58:22.000Z</time>
      </trkpt>
      <trkpt lat="48.4746" lon="-2.70309">
        <ele>72.400001525879</ele>
        <time>2022-09-04T06:58:23.000Z</time>
      </trkpt>
      <trkpt lat="48.47461" lon="-2.70292">
        <ele>72.199996948242</ele>
        <time>2022-09-04T06:58:25.000Z</time>
      </trkpt>
      <trkpt lat="48.47461" lon="-2.70284">
        <ele>72</ele>
        <time>2022-09-04T06:58:26.000Z</time>
      </trkpt>
      <trkpt lat="48.4746" lon="-2.7028">
        <ele>72</ele>
        <time>2022-09-04T06:58:27.000Z</time>
      </trkpt>
      <trkpt lat="48.47458" lon="-2.70277">
        <ele>71.800003051758</ele>
        <time>2022-09-04T06:58:28.000Z</time>
      </trkpt>
      <trkpt lat="48.47455" lon="-2.70277">
        <ele>71.599998474121</ele>
        <time>2022-09-04T06:58:29.000Z</time>
      </trkpt>
      <trkpt lat="48.47453" lon="-2.7028">
        <ele>71</ele>
        <time>2022-09-04T06:58:30.000Z</time>
      </trkpt>
      <trkpt lat="48.4745" lon="-2.70285">
        <ele>71</ele>
        <time>2022-09-04T06:58:31.000Z</time>
      </trkpt>
      <trkpt lat="48.47445" lon="-2.70311">
        <ele>70</ele>
        <time>2022-09-04T06:58:34.000Z</time>
      </trkpt>
      <trkpt lat="48.47443" lon="-2.70322">
        <ele>69.400001525879</ele>
        <time>2022-09-04T06:58:35.000Z</time>
      </trkpt>
      <trkpt lat="48.4744" lon="-2.70333">
        <ele>68.800003051758</ele>
        <time>2022-09-04T06:58:36.000Z</time>
      </trkpt>
      <trkpt lat="48.47433" lon="-2.70369">
        <ele>67.400001525879</ele>
        <time>2022-09-04T06:58:39.000Z</time>
      </trkpt>
      <trkpt lat="48.4743" lon="-2.70381">
        <ele>67.199996948242</ele>
        <time>2022-09-04T06:58:40.000Z</time>
      </trkpt>
      <trkpt lat="48.47422" lon="-2.70418">
        <ele>66.400001525879</ele>
        <time>2022-09-04T06:58:43.000Z</time>
      </trkpt>
      <trkpt lat="48.47419" lon="-2.7043">
        <ele>65.800003051758</ele>
        <time>2022-09-04T06:58:44.000Z</time>
      </trkpt>
      <trkpt lat="48.47416" lon="-2.70442">
        <ele>65.199996948242</ele>
        <time>2022-09-04T06:58:45.000Z</time>
      </trkpt>
      <trkpt lat="48.47409" lon="-2.70482">
        <ele>62.799999237061</ele>
        <time>2022-09-04T06:58:48.000Z</time>
      </trkpt>
      <trkpt lat="48.47407" lon="-2.70495">
        <ele>61.799999237061</ele>
        <time>2022-09-04T06:58:49.000Z</time>
      </trkpt>
      <trkpt lat="48.47406" lon="-2.7051">
        <ele>60.400001525879</ele>
        <time>2022-09-04T06:58:50.000Z</time>
      </trkpt>
      <trkpt lat="48.47405" lon="-2.7052">
        <ele>59.799999237061</ele>
        <time>2022-09-04T06:58:51.000Z</time>
      </trkpt>
      <trkpt lat="48.47405" lon="-2.70531">
        <ele>58.799999237061</ele>
        <time>2022-09-04T06:58:52.000Z</time>
      </trkpt>
      <trkpt lat="48.47404" lon="-2.70543">
        <ele>58.400001525879</ele>
        <time>2022-09-04T06:58:53.000Z</time>
      </trkpt>
      <trkpt lat="48.47403" lon="-2.70554">
        <ele>57.799999237061</ele>
        <time>2022-09-04T06:58:54.000Z</time>
      </trkpt>
      <trkpt lat="48.47401" lon="-2.70564">
        <ele>56.799999237061</ele>
        <time>2022-09-04T06:58:55.000Z</time>
      </trkpt>
      <trkpt lat="48.47397" lon="-2.70572">
        <ele>55.799999237061</ele>
        <time>2022-09-04T06:58:56.000Z</time>
      </trkpt>
      <trkpt lat="48.47393" lon="-2.70577">
        <ele>54.599998474121</ele>
        <time>2022-09-04T06:58:57.000Z</time>
      </trkpt>
      <trkpt lat="48.47391" lon="-2.70581">
        <ele>53.799999237061</ele>
        <time>2022-09-04T06:58:58.000Z</time>
      </trkpt>
      <trkpt lat="48.47388" lon="-2.70585">
        <ele>52.599998474121</ele>
        <time>2022-09-04T06:58:59.000Z</time>
      </trkpt>
      <trkpt lat="48.47387" lon="-2.7059">
        <ele>52</ele>
        <time>2022-09-04T06:59:00.000Z</time>
      </trkpt>
      <trkpt lat="48.47386" lon="-2.70594">
        <ele>51</ele>
        <time>2022-09-04T06:59:01.000Z</time>
      </trkpt>
      <trkpt lat="48.47387" lon="-2.70601">
        <ele>50.799999237061</ele>
        <time>2022-09-04T06:59:02.000Z</time>
      </trkpt>
      <trkpt lat="48.47388" lon="-2.70608">
        <ele>50.400001525879</ele>
        <time>2022-09-04T06:59:03.000Z</time>
      </trkpt>
      <trkpt lat="48.47387" lon="-2.70614">
        <ele>50.200000762939</ele>
        <time>2022-09-04T06:59:04.000Z</time>
      </trkpt>
      <trkpt lat="48.47386" lon="-2.70619">
        <ele>50</ele>
        <time>2022-09-04T06:59:05.000Z</time>
      </trkpt>
      <trkpt lat="48.47383" lon="-2.70624">
        <ele>50</ele>
        <time>2022-09-04T06:59:06.000Z</time>
      </trkpt>
      <trkpt lat="48.47382" lon="-2.70629">
        <ele>50</ele>
        <time>2022-09-04T06:59:07.000Z</time>
      </trkpt>
      <trkpt lat="48.47382" lon="-2.70637">
        <ele>49.799999237061</ele>
        <time>2022-09-04T06:59:08.000Z</time>
      </trkpt>
      <trkpt lat="48.47381" lon="-2.7065">
        <ele>50</ele>
        <time>2022-09-04T06:59:10.000Z</time>
      </trkpt>
      <trkpt lat="48.47381" lon="-2.70654">
        <ele>50</ele>
        <time>2022-09-04T06:59:11.000Z</time>
      </trkpt>
      <trkpt lat="48.47382" lon="-2.70659">
        <ele>50</ele>
        <time>2022-09-04T06:59:12.000Z</time>
      </trkpt>
      <trkpt lat="48.47383" lon="-2.70664">
        <ele>50</ele>
        <time>2022-09-04T06:59:13.000Z</time>
      </trkpt>
      <trkpt lat="48.47383" lon="-2.70669">
        <ele>50.400001525879</ele>
        <time>2022-09-04T06:59:14.000Z</time>
      </trkpt>
      <trkpt lat="48.47384" lon="-2.70673">
        <ele>50.599998474121</ele>
        <time>2022-09-04T06:59:15.000Z</time>
      </trkpt>
      <trkpt lat="48.47384" lon="-2.70679">
        <ele>51.200000762939</ele>
        <time>2022-09-04T06:59:16.000Z</time>
      </trkpt>
      <trkpt lat="48.47384" lon="-2.70693">
        <ele>51.799999237061</ele>
        <time>2022-09-04T06:59:18.000Z</time>
      </trkpt>
      <trkpt lat="48.47386" lon="-2.70705">
        <ele>52</ele>
        <time>2022-09-04T06:59:20.000Z</time>
      </trkpt>
      <trkpt lat="48.47388" lon="-2.70713">
        <ele>52.200000762939</ele>
        <time>2022-09-04T06:59:21.000Z</time>
      </trkpt>
      <trkpt lat="48.4739" lon="-2.70718">
        <ele>52.400001525879</ele>
        <time>2022-09-04T06:59:22.000Z</time>
      </trkpt>
      <trkpt lat="48.47393" lon="-2.70725">
        <ele>52.599998474121</ele>
        <time>2022-09-04T06:59:23.000Z</time>
      </trkpt>
      <trkpt lat="48.47399" lon="-2.70734">
        <ele>53</ele>
        <time>2022-09-04T06:59:25.000Z</time>
      </trkpt>
      <trkpt lat="48.47402" lon="-2.70738">
        <ele>53.200000762939</ele>
        <time>2022-09-04T06:59:26.000Z</time>
      </trkpt>
      <trkpt lat="48.47405" lon="-2.70744">
        <ele>53.400001525879</ele>
        <time>2022-09-04T06:59:27.000Z</time>
      </trkpt>
      <trkpt lat="48.47413" lon="-2.70756">
        <ele>53.799999237061</ele>
        <time>2022-09-04T06:59:29.000Z</time>
      </trkpt>
      <trkpt lat="48.47423" lon="-2.70763">
        <ele>54</ele>
        <time>2022-09-04T06:59:31.000Z</time>
      </trkpt>
      <trkpt lat="48.47431" lon="-2.70774">
        <ele>54.200000762939</ele>
        <time>2022-09-04T06:59:33.000Z</time>
      </trkpt>
      <trkpt lat="48.4744" lon="-2.70788">
        <ele>54.200000762939</ele>
        <time>2022-09-04T06:59:35.000Z</time>
      </trkpt>
      <trkpt lat="48.47447" lon="-2.70796">
        <ele>53.799999237061</ele>
        <time>2022-09-04T06:59:37.000Z</time>
      </trkpt>
      <trkpt lat="48.4745" lon="-2.70799">
        <ele>53.799999237061</ele>
        <time>2022-09-04T06:59:38.000Z</time>
      </trkpt>
      <trkpt lat="48.47456" lon="-2.70802">
        <ele>53.599998474121</ele>
        <time>2022-09-04T06:59:39.000Z</time>
      </trkpt>
      <trkpt lat="48.47463" lon="-2.70806">
        <ele>53.599998474121</ele>
        <time>2022-09-04T06:59:40.000Z</time>
      </trkpt>
      <trkpt lat="48.47468" lon="-2.70809">
        <ele>53.400001525879</ele>
        <time>2022-09-04T06:59:41.000Z</time>
      </trkpt>
      <trkpt lat="48.47473" lon="-2.70811">
        <ele>53.200000762939</ele>
        <time>2022-09-04T06:59:42.000Z</time>
      </trkpt>
      <trkpt lat="48.47478" lon="-2.70814">
        <ele>53.200000762939</ele>
        <time>2022-09-04T06:59:43.000Z</time>
      </trkpt>
      <trkpt lat="48.47483" lon="-2.70817">
        <ele>53.200000762939</ele>
        <time>2022-09-04T06:59:44.000Z</time>
      </trkpt>
      <trkpt lat="48.47491" lon="-2.70825">
        <ele>53</ele>
        <time>2022-09-04T06:59:46.000Z</time>
      </trkpt>
      <trkpt lat="48.47495" lon="-2.7083">
        <ele>53</ele>
        <time>2022-09-04T06:59:47.000Z</time>
      </trkpt>
      <trkpt lat="48.47508" lon="-2.70851">
        <ele>53</ele>
        <time>2022-09-04T06:59:50.000Z</time>
      </trkpt>
      <trkpt lat="48.47513" lon="-2.70855">
        <ele>52.799999237061</ele>
        <time>2022-09-04T06:59:51.000Z</time>
      </trkpt>
      <trkpt lat="48.47518" lon="-2.70861">
        <ele>52.799999237061</ele>
        <time>2022-09-04T06:59:52.000Z</time>
      </trkpt>
      <trkpt lat="48.47523" lon="-2.70868">
        <ele>52.400001525879</ele>
        <time>2022-09-04T06:59:53.000Z</time>
      </trkpt>
      <trkpt lat="48.47524" lon="-2.70875">
        <ele>52.200000762939</ele>
        <time>2022-09-04T06:59:54.000Z</time>
      </trkpt>
      <trkpt lat="48.47518" lon="-2.70883">
        <ele>51.400001525879</ele>
        <time>2022-09-04T06:59:56.000Z</time>
      </trkpt>
      <trkpt lat="48.47511" lon="-2.70887">
        <ele>51.200000762939</ele>
        <time>2022-09-04T06:59:58.000Z</time>
      </trkpt>
      <trkpt lat="48.47506" lon="-2.70894">
        <ele>50.599998474121</ele>
        <time>2022-09-04T06:59:59.000Z</time>
      </trkpt>
      <trkpt lat="48.47503" lon="-2.70901">
        <ele>50</ele>
        <time>2022-09-04T07:00:00.000Z</time>
      </trkpt>
      <trkpt lat="48.47502" lon="-2.70909">
        <ele>49.799999237061</ele>
        <time>2022-09-04T07:00:01.000Z</time>
      </trkpt>
      <trkpt lat="48.47502" lon="-2.70916">
        <ele>49.799999237061</ele>
        <time>2022-09-04T07:00:02.000Z</time>
      </trkpt>
      <trkpt lat="48.47502" lon="-2.70921">
        <ele>49.599998474121</ele>
        <time>2022-09-04T07:00:03.000Z</time>
      </trkpt>
      <trkpt lat="48.47506" lon="-2.70925">
        <ele>49.599998474121</ele>
        <time>2022-09-04T07:00:04.000Z</time>
      </trkpt>
      <trkpt lat="48.47513" lon="-2.70933">
        <ele>49.599998474121</ele>
        <time>2022-09-04T07:00:06.000Z</time>
      </trkpt>
      <trkpt lat="48.47515" lon="-2.70938">
        <ele>49.599998474121</ele>
        <time>2022-09-04T07:00:07.000Z</time>
      </trkpt>
      <trkpt lat="48.47518" lon="-2.70945">
        <ele>49.599998474121</ele>
        <time>2022-09-04T07:00:08.000Z</time>
      </trkpt>
      <trkpt lat="48.47521" lon="-2.70951">
        <ele>49.599998474121</ele>
        <time>2022-09-04T07:00:09.000Z</time>
      </trkpt>
      <trkpt lat="48.47522" lon="-2.70957">
        <ele>49.599998474121</ele>
        <time>2022-09-04T07:00:10.000Z</time>
      </trkpt>
      <trkpt lat="48.47523" lon="-2.70963">
        <ele>49.599998474121</ele>
        <time>2022-09-04T07:00:11.000Z</time>
      </trkpt>
      <trkpt lat="48.47523" lon="-2.70969">
        <ele>49.799999237061</ele>
        <time>2022-09-04T07:00:12.000Z</time>
      </trkpt>
      <trkpt lat="48.47522" lon="-2.70973">
        <ele>49.799999237061</ele>
        <time>2022-09-04T07:00:13.000Z</time>
      </trkpt>
      <trkpt lat="48.47522" lon="-2.70977">
        <ele>49.799999237061</ele>
        <time>2022-09-04T07:00:14.000Z</time>
      </trkpt>
      <trkpt lat="48.47521" lon="-2.7098">
        <ele>50.200000762939</ele>
        <time>2022-09-04T07:00:15.000Z</time>
      </trkpt>
      <trkpt lat="48.47517" lon="-2.70983">
        <ele>50.599998474121</ele>
        <time>2022-09-04T07:00:16.000Z</time>
      </trkpt>
      <trkpt lat="48.47513" lon="-2.70988">
        <ele>50.799999237061</ele>
        <time>2022-09-04T07:00:17.000Z</time>
      </trkpt>
      <trkpt lat="48.47509" lon="-2.70991">
        <ele>51.200000762939</ele>
        <time>2022-09-04T07:00:18.000Z</time>
      </trkpt>
      <trkpt lat="48.47507" lon="-2.70995">
        <ele>51.400001525879</ele>
        <time>2022-09-04T07:00:19.000Z</time>
      </trkpt>
      <trkpt lat="48.47504" lon="-2.71001">
        <ele>51.400001525879</ele>
        <time>2022-09-04T07:00:20.000Z</time>
      </trkpt>
      <trkpt lat="48.47494" lon="-2.71018">
        <ele>51.599998474121</ele>
        <time>2022-09-04T07:00:22.000Z</time>
      </trkpt>
      <trkpt lat="48.47485" lon="-2.71036">
        <ele>51.599998474121</ele>
        <time>2022-09-04T07:00:24.000Z</time>
      </trkpt>
      <trkpt lat="48.47476" lon="-2.71049">
        <ele>51.599998474121</ele>
        <time>2022-09-04T07:00:26.000Z</time>
      </trkpt>
      <trkpt lat="48.47467" lon="-2.71059">
        <ele>51.400001525879</ele>
        <time>2022-09-04T07:00:28.000Z</time>
      </trkpt>
      <trkpt lat="48.47455" lon="-2.71068">
        <ele>51.400001525879</ele>
        <time>2022-09-04T07:00:30.000Z</time>
      </trkpt>
      <trkpt lat="48.47444" lon="-2.71084">
        <ele>51.400001525879</ele>
        <time>2022-09-04T07:00:32.000Z</time>
      </trkpt>
      <trkpt lat="48.4744" lon="-2.71093">
        <ele>51.400001525879</ele>
        <time>2022-09-04T07:00:33.000Z</time>
      </trkpt>
      <trkpt lat="48.47437" lon="-2.71101">
        <ele>51.400001525879</ele>
        <time>2022-09-04T07:00:34.000Z</time>
      </trkpt>
      <trkpt lat="48.47433" lon="-2.7111">
        <ele>51.200000762939</ele>
        <time>2022-09-04T07:00:35.000Z</time>
      </trkpt>
      <trkpt lat="48.4743" lon="-2.71118">
        <ele>51.200000762939</ele>
        <time>2022-09-04T07:00:36.000Z</time>
      </trkpt>
      <trkpt lat="48.47428" lon="-2.71126">
        <ele>51.200000762939</ele>
        <time>2022-09-04T07:00:37.000Z</time>
      </trkpt>
      <trkpt lat="48.47416" lon="-2.7118">
        <ele>51</ele>
        <time>2022-09-04T07:00:43.000Z</time>
      </trkpt>
      <trkpt lat="48.47415" lon="-2.71188">
        <ele>51</ele>
        <time>2022-09-04T07:00:44.000Z</time>
      </trkpt>
      <trkpt lat="48.47412" lon="-2.71196">
        <ele>51</ele>
        <time>2022-09-04T07:00:45.000Z</time>
      </trkpt>
      <trkpt lat="48.4741" lon="-2.71203">
        <ele>51</ele>
        <time>2022-09-04T07:00:46.000Z</time>
      </trkpt>
      <trkpt lat="48.47407" lon="-2.71211">
        <ele>51</ele>
        <time>2022-09-04T07:00:47.000Z</time>
      </trkpt>
      <trkpt lat="48.47406" lon="-2.71219">
        <ele>51</ele>
        <time>2022-09-04T07:00:48.000Z</time>
      </trkpt>
      <trkpt lat="48.47406" lon="-2.71227">
        <ele>51</ele>
        <time>2022-09-04T07:00:49.000Z</time>
      </trkpt>
      <trkpt lat="48.47406" lon="-2.71235">
        <ele>50.799999237061</ele>
        <time>2022-09-04T07:00:50.000Z</time>
      </trkpt>
      <trkpt lat="48.47407" lon="-2.71243">
        <ele>50.799999237061</ele>
        <time>2022-09-04T07:00:51.000Z</time>
      </trkpt>
      <trkpt lat="48.47408" lon="-2.71251">
        <ele>50.799999237061</ele>
        <time>2022-09-04T07:00:52.000Z</time>
      </trkpt>
      <trkpt lat="48.47408" lon="-2.71259">
        <ele>50.599998474121</ele>
        <time>2022-09-04T07:00:53.000Z</time>
      </trkpt>
      <trkpt lat="48.4741" lon="-2.71267">
        <ele>50.599998474121</ele>
        <time>2022-09-04T07:00:54.000Z</time>
      </trkpt>
      <trkpt lat="48.4741" lon="-2.71283">
        <ele>50.799999237061</ele>
        <time>2022-09-04T07:00:56.000Z</time>
      </trkpt>
      <trkpt lat="48.47409" lon="-2.71292">
        <ele>50.599998474121</ele>
        <time>2022-09-04T07:00:57.000Z</time>
      </trkpt>
      <trkpt lat="48.4741" lon="-2.71299">
        <ele>50.599998474121</ele>
        <time>2022-09-04T07:00:58.000Z</time>
      </trkpt>
      <trkpt lat="48.47411" lon="-2.71307">
        <ele>50.599998474121</ele>
        <time>2022-09-04T07:00:59.000Z</time>
      </trkpt>
      <trkpt lat="48.47412" lon="-2.71314">
        <ele>50.599998474121</ele>
        <time>2022-09-04T07:01:00.000Z</time>
      </trkpt>
      <trkpt lat="48.47413" lon="-2.7132">
        <ele>50.599998474121</ele>
        <time>2022-09-04T07:01:01.000Z</time>
      </trkpt>
      <trkpt lat="48.47414" lon="-2.71327">
        <ele>50.599998474121</ele>
        <time>2022-09-04T07:01:02.000Z</time>
      </trkpt>
      <trkpt lat="48.47414" lon="-2.71333">
        <ele>50.599998474121</ele>
        <time>2022-09-04T07:01:03.000Z</time>
      </trkpt>
      <trkpt lat="48.47413" lon="-2.71339">
        <ele>50.799999237061</ele>
        <time>2022-09-04T07:01:04.000Z</time>
      </trkpt>
      <trkpt lat="48.47412" lon="-2.71344">
        <ele>50.799999237061</ele>
        <time>2022-09-04T07:01:05.000Z</time>
      </trkpt>
      <trkpt lat="48.47409" lon="-2.71349">
        <ele>51</ele>
        <time>2022-09-04T07:01:06.000Z</time>
      </trkpt>
      <trkpt lat="48.47407" lon="-2.71354">
        <ele>51</ele>
        <time>2022-09-04T07:01:07.000Z</time>
      </trkpt>
      <trkpt lat="48.47403" lon="-2.71362">
        <ele>51.200000762939</ele>
        <time>2022-09-04T07:01:08.000Z</time>
      </trkpt>
      <trkpt lat="48.47393" lon="-2.71379">
        <ele>51.200000762939</ele>
        <time>2022-09-04T07:01:10.000Z</time>
      </trkpt>
      <trkpt lat="48.47389" lon="-2.71384">
        <ele>51.200000762939</ele>
        <time>2022-09-04T07:01:11.000Z</time>
      </trkpt>
      <trkpt lat="48.47386" lon="-2.71391">
        <ele>51.400001525879</ele>
        <time>2022-09-04T07:01:12.000Z</time>
      </trkpt>
      <trkpt lat="48.47385" lon="-2.71399">
        <ele>51.400001525879</ele>
        <time>2022-09-04T07:01:13.000Z</time>
      </trkpt>
      <trkpt lat="48.47385" lon="-2.71407">
        <ele>51.400001525879</ele>
        <time>2022-09-04T07:01:14.000Z</time>
      </trkpt>
      <trkpt lat="48.47384" lon="-2.71416">
        <ele>51.599998474121</ele>
        <time>2022-09-04T07:01:15.000Z</time>
      </trkpt>
      <trkpt lat="48.47384" lon="-2.71425">
        <ele>51.599998474121</ele>
        <time>2022-09-04T07:01:16.000Z</time>
      </trkpt>
      <trkpt lat="48.47385" lon="-2.71431">
        <ele>51.599998474121</ele>
        <time>2022-09-04T07:01:17.000Z</time>
      </trkpt>
      <trkpt lat="48.47387" lon="-2.71438">
        <ele>51.400001525879</ele>
        <time>2022-09-04T07:01:18.000Z</time>
      </trkpt>
      <trkpt lat="48.47388" lon="-2.71448">
        <ele>51.400001525879</ele>
        <time>2022-09-04T07:01:19.000Z</time>
      </trkpt>
      <trkpt lat="48.47386" lon="-2.71468">
        <ele>51.599998474121</ele>
        <time>2022-09-04T07:01:21.000Z</time>
      </trkpt>
      <trkpt lat="48.47384" lon="-2.71476">
        <ele>51.799999237061</ele>
        <time>2022-09-04T07:01:22.000Z</time>
      </trkpt>
      <trkpt lat="48.47382" lon="-2.71485">
        <ele>51.799999237061</ele>
        <time>2022-09-04T07:01:23.000Z</time>
      </trkpt>
      <trkpt lat="48.47381" lon="-2.71494">
        <ele>51.799999237061</ele>
        <time>2022-09-04T07:01:24.000Z</time>
      </trkpt>
      <trkpt lat="48.47381" lon="-2.71502">
        <ele>51.799999237061</ele>
        <time>2022-09-04T07:01:25.000Z</time>
      </trkpt>
      <trkpt lat="48.4738" lon="-2.71509">
        <ele>51.799999237061</ele>
        <time>2022-09-04T07:01:26.000Z</time>
      </trkpt>
      <trkpt lat="48.47376" lon="-2.71531">
        <ele>52</ele>
        <time>2022-09-04T07:01:29.000Z</time>
      </trkpt>
      <trkpt lat="48.47375" lon="-2.71539">
        <ele>52.200000762939</ele>
        <time>2022-09-04T07:01:30.000Z</time>
      </trkpt>
      <trkpt lat="48.47373" lon="-2.71556">
        <ele>52.200000762939</ele>
        <time>2022-09-04T07:01:32.000Z</time>
      </trkpt>
      <trkpt lat="48.47374" lon="-2.71566">
        <ele>52.599998474121</ele>
        <time>2022-09-04T07:01:33.000Z</time>
      </trkpt>
      <trkpt lat="48.47373" lon="-2.71575">
        <ele>52.599998474121</ele>
        <time>2022-09-04T07:01:34.000Z</time>
      </trkpt>
      <trkpt lat="48.47369" lon="-2.71592">
        <ele>52.799999237061</ele>
        <time>2022-09-04T07:01:37.000Z</time>
      </trkpt>
      <trkpt lat="48.47363" lon="-2.71605">
        <ele>53</ele>
        <time>2022-09-04T07:01:39.000Z</time>
      </trkpt>
      <trkpt lat="48.4736" lon="-2.71611">
        <ele>53</ele>
        <time>2022-09-04T07:01:40.000Z</time>
      </trkpt>
      <trkpt lat="48.47361" lon="-2.71619">
        <ele>53</ele>
        <time>2022-09-04T07:01:41.000Z</time>
      </trkpt>
      <trkpt lat="48.47359" lon="-2.7163">
        <ele>53</ele>
        <time>2022-09-04T07:01:42.000Z</time>
      </trkpt>
      <trkpt lat="48.47361" lon="-2.71635">
        <ele>53</ele>
        <time>2022-09-04T07:01:43.000Z</time>
      </trkpt>
      <trkpt lat="48.47364" lon="-2.7164">
        <ele>53</ele>
        <time>2022-09-04T07:01:44.000Z</time>
      </trkpt>
      <trkpt lat="48.47366" lon="-2.71648">
        <ele>53</ele>
        <time>2022-09-04T07:01:45.000Z</time>
      </trkpt>
      <trkpt lat="48.47367" lon="-2.71653">
        <ele>53</ele>
        <time>2022-09-04T07:01:46.000Z</time>
      </trkpt>
      <trkpt lat="48.47368" lon="-2.7166">
        <ele>52.799999237061</ele>
        <time>2022-09-04T07:01:47.000Z</time>
      </trkpt>
      <trkpt lat="48.47368" lon="-2.71668">
        <ele>53</ele>
        <time>2022-09-04T07:01:48.000Z</time>
      </trkpt>
      <trkpt lat="48.47369" lon="-2.71678">
        <ele>53</ele>
        <time>2022-09-04T07:01:49.000Z</time>
      </trkpt>
      <trkpt lat="48.4737" lon="-2.71706">
        <ele>53</ele>
        <time>2022-09-04T07:01:52.000Z</time>
      </trkpt>
      <trkpt lat="48.47372" lon="-2.71713">
        <ele>53</ele>
        <time>2022-09-04T07:01:53.000Z</time>
      </trkpt>
      <trkpt lat="48.47373" lon="-2.71721">
        <ele>53</ele>
        <time>2022-09-04T07:01:54.000Z</time>
      </trkpt>
      <trkpt lat="48.47374" lon="-2.71729">
        <ele>53</ele>
        <time>2022-09-04T07:01:55.000Z</time>
      </trkpt>
      <trkpt lat="48.47376" lon="-2.71735">
        <ele>53</ele>
        <time>2022-09-04T07:01:56.000Z</time>
      </trkpt>
      <trkpt lat="48.47377" lon="-2.71742">
        <ele>53</ele>
        <time>2022-09-04T07:01:57.000Z</time>
      </trkpt>
      <trkpt lat="48.47378" lon="-2.71759">
        <ele>53</ele>
        <time>2022-09-04T07:01:59.000Z</time>
      </trkpt>
      <trkpt lat="48.47378" lon="-2.71766">
        <ele>53</ele>
        <time>2022-09-04T07:02:00.000Z</time>
      </trkpt>
      <trkpt lat="48.4738" lon="-2.71773">
        <ele>53</ele>
        <time>2022-09-04T07:02:01.000Z</time>
      </trkpt>
      <trkpt lat="48.47382" lon="-2.71778">
        <ele>53</ele>
        <time>2022-09-04T07:02:02.000Z</time>
      </trkpt>
      <trkpt lat="48.47385" lon="-2.71785">
        <ele>53.200000762939</ele>
        <time>2022-09-04T07:02:03.000Z</time>
      </trkpt>
      <trkpt lat="48.47386" lon="-2.71799">
        <ele>53.200000762939</ele>
        <time>2022-09-04T07:02:05.000Z</time>
      </trkpt>
      <trkpt lat="48.47382" lon="-2.71811">
        <ele>53.200000762939</ele>
        <time>2022-09-04T07:02:06.000Z</time>
      </trkpt>
      <trkpt lat="48.4738" lon="-2.71817">
        <ele>53.400001525879</ele>
        <time>2022-09-04T07:02:07.000Z</time>
      </trkpt>
      <trkpt lat="48.47378" lon="-2.71824">
        <ele>53.400001525879</ele>
        <time>2022-09-04T07:02:08.000Z</time>
      </trkpt>
      <trkpt lat="48.47377" lon="-2.71832">
        <ele>53.599998474121</ele>
        <time>2022-09-04T07:02:09.000Z</time>
      </trkpt>
      <trkpt lat="48.47378" lon="-2.71838">
        <ele>53.799999237061</ele>
        <time>2022-09-04T07:02:10.000Z</time>
      </trkpt>
      <trkpt lat="48.47379" lon="-2.71845">
        <ele>53.799999237061</ele>
        <time>2022-09-04T07:02:11.000Z</time>
      </trkpt>
      <trkpt lat="48.4738" lon="-2.71852">
        <ele>53.799999237061</ele>
        <time>2022-09-04T07:02:12.000Z</time>
      </trkpt>
      <trkpt lat="48.47381" lon="-2.71864">
        <ele>54.200000762939</ele>
        <time>2022-09-04T07:02:14.000Z</time>
      </trkpt>
      <trkpt lat="48.47382" lon="-2.71873">
        <ele>54.400001525879</ele>
        <time>2022-09-04T07:02:15.000Z</time>
      </trkpt>
      <trkpt lat="48.47383" lon="-2.71882">
        <ele>54.400001525879</ele>
        <time>2022-09-04T07:02:16.000Z</time>
      </trkpt>
      <trkpt lat="48.47384" lon="-2.71891">
        <ele>54.599998474121</ele>
        <time>2022-09-04T07:02:17.000Z</time>
      </trkpt>
      <trkpt lat="48.47385" lon="-2.71899">
        <ele>54.599998474121</ele>
        <time>2022-09-04T07:02:18.000Z</time>
      </trkpt>
      <trkpt lat="48.47386" lon="-2.71906">
        <ele>54.599998474121</ele>
        <time>2022-09-04T07:02:19.000Z</time>
      </trkpt>
      <trkpt lat="48.47386" lon="-2.71923">
        <ele>54.799999237061</ele>
        <time>2022-09-04T07:02:21.000Z</time>
      </trkpt>
      <trkpt lat="48.47386" lon="-2.71931">
        <ele>54.799999237061</ele>
        <time>2022-09-04T07:02:22.000Z</time>
      </trkpt>
      <trkpt lat="48.47387" lon="-2.71937">
        <ele>54.799999237061</ele>
        <time>2022-09-04T07:02:23.000Z</time>
      </trkpt>
      <trkpt lat="48.4739" lon="-2.71943">
        <ele>54.799999237061</ele>
        <time>2022-09-04T07:02:24.000Z</time>
      </trkpt>
      <trkpt lat="48.47389" lon="-2.71955">
        <ele>54.799999237061</ele>
        <time>2022-09-04T07:02:26.000Z</time>
      </trkpt>
      <trkpt lat="48.4739" lon="-2.71961">
        <ele>55</ele>
        <time>2022-09-04T07:02:27.000Z</time>
      </trkpt>
      <trkpt lat="48.47392" lon="-2.71975">
        <ele>55.200000762939</ele>
        <time>2022-09-04T07:02:29.000Z</time>
      </trkpt>
      <trkpt lat="48.47392" lon="-2.71982">
        <ele>55.400001525879</ele>
        <time>2022-09-04T07:02:30.000Z</time>
      </trkpt>
      <trkpt lat="48.47391" lon="-2.71988">
        <ele>55.400001525879</ele>
        <time>2022-09-04T07:02:31.000Z</time>
      </trkpt>
      <trkpt lat="48.47391" lon="-2.71993">
        <ele>55.599998474121</ele>
        <time>2022-09-04T07:02:32.000Z</time>
      </trkpt>
      <trkpt lat="48.4739" lon="-2.71998">
        <ele>55.599998474121</ele>
        <time>2022-09-04T07:02:33.000Z</time>
      </trkpt>
      <trkpt lat="48.47391" lon="-2.72004">
        <ele>55.599998474121</ele>
        <time>2022-09-04T07:02:34.000Z</time>
      </trkpt>
      <trkpt lat="48.47392" lon="-2.72019">
        <ele>55.599998474121</ele>
        <time>2022-09-04T07:02:36.000Z</time>
      </trkpt>
      <trkpt lat="48.47391" lon="-2.72023">
        <ele>55.799999237061</ele>
        <time>2022-09-04T07:02:37.000Z</time>
      </trkpt>
      <trkpt lat="48.4739" lon="-2.72027">
        <ele>56</ele>
        <time>2022-09-04T07:02:38.000Z</time>
      </trkpt>
      <trkpt lat="48.47388" lon="-2.7203">
        <ele>56</ele>
        <time>2022-09-04T07:02:39.000Z</time>
      </trkpt>
      <trkpt lat="48.47385" lon="-2.72031">
        <ele>56</ele>
        <time>2022-09-04T07:02:40.000Z</time>
      </trkpt>
      <trkpt lat="48.47382" lon="-2.72032">
        <ele>56.400001525879</ele>
        <time>2022-09-04T07:02:41.000Z</time>
      </trkpt>
      <trkpt lat="48.47373" lon="-2.7203">
        <ele>57</ele>
        <time>2022-09-04T07:02:44.000Z</time>
      </trkpt>
      <trkpt lat="48.4737" lon="-2.72029">
        <ele>57.400001525879</ele>
        <time>2022-09-04T07:02:45.000Z</time>
      </trkpt>
      <trkpt lat="48.47362" lon="-2.72022">
        <ele>58.200000762939</ele>
        <time>2022-09-04T07:02:48.000Z</time>
      </trkpt>
      <trkpt lat="48.47359" lon="-2.72019">
        <ele>58.599998474121</ele>
        <time>2022-09-04T07:02:49.000Z</time>
      </trkpt>
      <trkpt lat="48.47357" lon="-2.72017">
        <ele>58.799999237061</ele>
        <time>2022-09-04T07:02:50.000Z</time>
      </trkpt>
      <trkpt lat="48.47354" lon="-2.72014">
        <ele>59</ele>
        <time>2022-09-04T07:02:51.000Z</time>
      </trkpt>
      <trkpt lat="48.47352" lon="-2.7201">
        <ele>59.599998474121</ele>
        <time>2022-09-04T07:02:52.000Z</time>
      </trkpt>
      <trkpt lat="48.47351" lon="-2.72007">
        <ele>59.799999237061</ele>
        <time>2022-09-04T07:02:53.000Z</time>
      </trkpt>
      <trkpt lat="48.4735" lon="-2.72002">
        <ele>60.400001525879</ele>
        <time>2022-09-04T07:02:54.000Z</time>
      </trkpt>
      <trkpt lat="48.47349" lon="-2.71998">
        <ele>60.599998474121</ele>
        <time>2022-09-04T07:02:55.000Z</time>
      </trkpt>
      <trkpt lat="48.47347" lon="-2.71994">
        <ele>61.200000762939</ele>
        <time>2022-09-04T07:02:56.000Z</time>
      </trkpt>
      <trkpt lat="48.47345" lon="-2.71991">
        <ele>61.200000762939</ele>
        <time>2022-09-04T07:02:57.000Z</time>
      </trkpt>
      <trkpt lat="48.47344" lon="-2.71989">
        <ele>61.599998474121</ele>
        <time>2022-09-04T07:02:58.000Z</time>
      </trkpt>
      <trkpt lat="48.47342" lon="-2.7199">
        <ele>61.799999237061</ele>
        <time>2022-09-04T07:02:59.000Z</time>
      </trkpt>
      <trkpt lat="48.47341" lon="-2.71993">
        <ele>62.400001525879</ele>
        <time>2022-09-04T07:03:00.000Z</time>
      </trkpt>
      <trkpt lat="48.47341" lon="-2.71997">
        <ele>62.400001525879</ele>
        <time>2022-09-04T07:03:01.000Z</time>
      </trkpt>
      <trkpt lat="48.47342" lon="-2.72001">
        <ele>62.799999237061</ele>
        <time>2022-09-04T07:03:02.000Z</time>
      </trkpt>
      <trkpt lat="48.47342" lon="-2.72006">
        <ele>63.200000762939</ele>
        <time>2022-09-04T07:03:03.000Z</time>
      </trkpt>
      <trkpt lat="48.47341" lon="-2.72012">
        <ele>63.200000762939</ele>
        <time>2022-09-04T07:03:04.000Z</time>
      </trkpt>
      <trkpt lat="48.47341" lon="-2.72018">
        <ele>63.400001525879</ele>
        <time>2022-09-04T07:03:05.000Z</time>
      </trkpt>
      <trkpt lat="48.4734" lon="-2.72023">
        <ele>63.400001525879</ele>
        <time>2022-09-04T07:03:06.000Z</time>
      </trkpt>
      <trkpt lat="48.47338" lon="-2.72027">
        <ele>63.599998474121</ele>
        <time>2022-09-04T07:03:07.000Z</time>
      </trkpt>
      <trkpt lat="48.47332" lon="-2.72049">
        <ele>63.799999237061</ele>
        <time>2022-09-04T07:03:11.000Z</time>
      </trkpt>
      <trkpt lat="48.47331" lon="-2.72057">
        <ele>63.799999237061</ele>
        <time>2022-09-04T07:03:12.000Z</time>
      </trkpt>
      <trkpt lat="48.47329" lon="-2.7207">
        <ele>63.799999237061</ele>
        <time>2022-09-04T07:03:13.000Z</time>
      </trkpt>
      <trkpt lat="48.47328" lon="-2.72081">
        <ele>63.400001525879</ele>
        <time>2022-09-04T07:03:14.000Z</time>
      </trkpt>
      <trkpt lat="48.47327" lon="-2.72091">
        <ele>63.200000762939</ele>
        <time>2022-09-04T07:03:15.000Z</time>
      </trkpt>
      <trkpt lat="48.47325" lon="-2.72101">
        <ele>63</ele>
        <time>2022-09-04T07:03:16.000Z</time>
      </trkpt>
      <trkpt lat="48.47324" lon="-2.72111">
        <ele>63</ele>
        <time>2022-09-04T07:03:17.000Z</time>
      </trkpt>
      <trkpt lat="48.47322" lon="-2.72121">
        <ele>62.799999237061</ele>
        <time>2022-09-04T07:03:18.000Z</time>
      </trkpt>
      <trkpt lat="48.47321" lon="-2.72132">
        <ele>62.799999237061</ele>
        <time>2022-09-04T07:03:19.000Z</time>
      </trkpt>
      <trkpt lat="48.4732" lon="-2.72143">
        <ele>62.400001525879</ele>
        <time>2022-09-04T07:03:20.000Z</time>
      </trkpt>
      <trkpt lat="48.4732" lon="-2.72154">
        <ele>62.200000762939</ele>
        <time>2022-09-04T07:03:21.000Z</time>
      </trkpt>
      <trkpt lat="48.47321" lon="-2.72165">
        <ele>62</ele>
        <time>2022-09-04T07:03:22.000Z</time>
      </trkpt>
      <trkpt lat="48.47325" lon="-2.72176">
        <ele>61.799999237061</ele>
        <time>2022-09-04T07:03:23.000Z</time>
      </trkpt>
      <trkpt lat="48.47328" lon="-2.72186">
        <ele>61.200000762939</ele>
        <time>2022-09-04T07:03:24.000Z</time>
      </trkpt>
      <trkpt lat="48.47332" lon="-2.72195">
        <ele>60.599998474121</ele>
        <time>2022-09-04T07:03:25.000Z</time>
      </trkpt>
      <trkpt lat="48.47336" lon="-2.72203">
        <ele>60.400001525879</ele>
        <time>2022-09-04T07:03:26.000Z</time>
      </trkpt>
      <trkpt lat="48.47341" lon="-2.72209">
        <ele>60.200000762939</ele>
        <time>2022-09-04T07:03:27.000Z</time>
      </trkpt>
      <trkpt lat="48.47347" lon="-2.72213">
        <ele>59.799999237061</ele>
        <time>2022-09-04T07:03:28.000Z</time>
      </trkpt>
      <trkpt lat="48.47353" lon="-2.72218">
        <ele>59.400001525879</ele>
        <time>2022-09-04T07:03:29.000Z</time>
      </trkpt>
      <trkpt lat="48.47358" lon="-2.72222">
        <ele>59.200000762939</ele>
        <time>2022-09-04T07:03:30.000Z</time>
      </trkpt>
      <trkpt lat="48.47363" lon="-2.72225">
        <ele>58.599998474121</ele>
        <time>2022-09-04T07:03:31.000Z</time>
      </trkpt>
      <trkpt lat="48.47368" lon="-2.72227">
        <ele>58.200000762939</ele>
        <time>2022-09-04T07:03:32.000Z</time>
      </trkpt>
      <trkpt lat="48.47371" lon="-2.72227">
        <ele>58</ele>
        <time>2022-09-04T07:03:33.000Z</time>
      </trkpt>
      <trkpt lat="48.47376" lon="-2.72226">
        <ele>58</ele>
        <time>2022-09-04T07:03:34.000Z</time>
      </trkpt>
      <trkpt lat="48.4738" lon="-2.72224">
        <ele>58</ele>
        <time>2022-09-04T07:03:35.000Z</time>
      </trkpt>
      <trkpt lat="48.47385" lon="-2.72221">
        <ele>58</ele>
        <time>2022-09-04T07:03:36.000Z</time>
      </trkpt>
      <trkpt lat="48.4739" lon="-2.72217">
        <ele>58.200000762939</ele>
        <time>2022-09-04T07:03:37.000Z</time>
      </trkpt>
      <trkpt lat="48.47394" lon="-2.72215">
        <ele>58.400001525879</ele>
        <time>2022-09-04T07:03:38.000Z</time>
      </trkpt>
      <trkpt lat="48.47398" lon="-2.72216">
        <ele>58.599998474121</ele>
        <time>2022-09-04T07:03:39.000Z</time>
      </trkpt>
      <trkpt lat="48.474" lon="-2.72219">
        <ele>58.599998474121</ele>
        <time>2022-09-04T07:03:40.000Z</time>
      </trkpt>
      <trkpt lat="48.47397" lon="-2.72232">
        <ele>58.799999237061</ele>
        <time>2022-09-04T07:03:42.000Z</time>
      </trkpt>
      <trkpt lat="48.47389" lon="-2.72247">
        <ele>58.799999237061</ele>
        <time>2022-09-04T07:03:44.000Z</time>
      </trkpt>
      <trkpt lat="48.47388" lon="-2.72257">
        <ele>58.799999237061</ele>
        <time>2022-09-04T07:03:45.000Z</time>
      </trkpt>
      <trkpt lat="48.47388" lon="-2.72267">
        <ele>58.799999237061</ele>
        <time>2022-09-04T07:03:46.000Z</time>
      </trkpt>
      <trkpt lat="48.47389" lon="-2.72277">
        <ele>58.799999237061</ele>
        <time>2022-09-04T07:03:47.000Z</time>
      </trkpt>
      <trkpt lat="48.47389" lon="-2.72288">
        <ele>58.400001525879</ele>
        <time>2022-09-04T07:03:48.000Z</time>
      </trkpt>
      <trkpt lat="48.4739" lon="-2.72298">
        <ele>58.200000762939</ele>
        <time>2022-09-04T07:03:49.000Z</time>
      </trkpt>
      <trkpt lat="48.47391" lon="-2.72308">
        <ele>58</ele>
        <time>2022-09-04T07:03:50.000Z</time>
      </trkpt>
      <trkpt lat="48.47391" lon="-2.72317">
        <ele>57.599998474121</ele>
        <time>2022-09-04T07:03:51.000Z</time>
      </trkpt>
      <trkpt lat="48.47393" lon="-2.72327">
        <ele>57.599998474121</ele>
        <time>2022-09-04T07:03:52.000Z</time>
      </trkpt>
      <trkpt lat="48.47393" lon="-2.72335">
        <ele>57.200000762939</ele>
        <time>2022-09-04T07:03:53.000Z</time>
      </trkpt>
      <trkpt lat="48.47393" lon="-2.72344">
        <ele>57.200000762939</ele>
        <time>2022-09-04T07:03:54.000Z</time>
      </trkpt>
      <trkpt lat="48.47394" lon="-2.72352">
        <ele>57</ele>
        <time>2022-09-04T07:03:55.000Z</time>
      </trkpt>
      <trkpt lat="48.47394" lon="-2.7236">
        <ele>57</ele>
        <time>2022-09-04T07:03:56.000Z</time>
      </trkpt>
      <trkpt lat="48.47393" lon="-2.72379">
        <ele>57.200000762939</ele>
        <time>2022-09-04T07:03:58.000Z</time>
      </trkpt>
      <trkpt lat="48.47392" lon="-2.72426">
        <ele>57.599998474121</ele>
        <time>2022-09-04T07:04:03.000Z</time>
      </trkpt>
      <trkpt lat="48.47386" lon="-2.72486">
        <ele>57.599998474121</ele>
        <time>2022-09-04T07:04:09.000Z</time>
      </trkpt>
      <trkpt lat="48.47387" lon="-2.72514">
        <ele>57.400001525879</ele>
        <time>2022-09-04T07:04:12.000Z</time>
      </trkpt>
      <trkpt lat="48.47387" lon="-2.72542">
        <ele>57.200000762939</ele>
        <time>2022-09-04T07:04:15.000Z</time>
      </trkpt>
      <trkpt lat="48.47387" lon="-2.72552">
        <ele>57.200000762939</ele>
        <time>2022-09-04T07:04:16.000Z</time>
      </trkpt>
      <trkpt lat="48.47384" lon="-2.72591">
        <ele>57.200000762939</ele>
        <time>2022-09-04T07:04:20.000Z</time>
      </trkpt>
      <trkpt lat="48.47381" lon="-2.72641">
        <ele>57.400001525879</ele>
        <time>2022-09-04T07:04:25.000Z</time>
      </trkpt>
      <trkpt lat="48.47381" lon="-2.7265">
        <ele>57.400001525879</ele>
        <time>2022-09-04T07:04:26.000Z</time>
      </trkpt>
      <trkpt lat="48.4738" lon="-2.7266">
        <ele>57.400001525879</ele>
        <time>2022-09-04T07:04:27.000Z</time>
      </trkpt>
      <trkpt lat="48.4738" lon="-2.72669">
        <ele>57.200000762939</ele>
        <time>2022-09-04T07:04:28.000Z</time>
      </trkpt>
      <trkpt lat="48.47379" lon="-2.72679">
        <ele>57.200000762939</ele>
        <time>2022-09-04T07:04:29.000Z</time>
      </trkpt>
      <trkpt lat="48.47379" lon="-2.72688">
        <ele>57.200000762939</ele>
        <time>2022-09-04T07:04:30.000Z</time>
      </trkpt>
      <trkpt lat="48.47378" lon="-2.72697">
        <ele>57.200000762939</ele>
        <time>2022-09-04T07:04:31.000Z</time>
      </trkpt>
      <trkpt lat="48.47375" lon="-2.72724">
        <ele>57.200000762939</ele>
        <time>2022-09-04T07:04:34.000Z</time>
      </trkpt>
      <trkpt lat="48.47374" lon="-2.72733">
        <ele>57</ele>
        <time>2022-09-04T07:04:35.000Z</time>
      </trkpt>
      <trkpt lat="48.47374" lon="-2.72742">
        <ele>57</ele>
        <time>2022-09-04T07:04:36.000Z</time>
      </trkpt>
      <trkpt lat="48.47374" lon="-2.7275">
        <ele>57</ele>
        <time>2022-09-04T07:04:37.000Z</time>
      </trkpt>
      <trkpt lat="48.47374" lon="-2.72758">
        <ele>57</ele>
        <time>2022-09-04T07:04:38.000Z</time>
      </trkpt>
      <trkpt lat="48.47374" lon="-2.72765">
        <ele>57</ele>
        <time>2022-09-04T07:04:39.000Z</time>
      </trkpt>
      <trkpt lat="48.47374" lon="-2.72772">
        <ele>57.200000762939</ele>
        <time>2022-09-04T07:04:40.000Z</time>
      </trkpt>
      <trkpt lat="48.47375" lon="-2.72779">
        <ele>57.599998474121</ele>
        <time>2022-09-04T07:04:41.000Z</time>
      </trkpt>
      <trkpt lat="48.47375" lon="-2.72787">
        <ele>57.599998474121</ele>
        <time>2022-09-04T07:04:42.000Z</time>
      </trkpt>
      <trkpt lat="48.47375" lon="-2.72801">
        <ele>58</ele>
        <time>2022-09-04T07:04:44.000Z</time>
      </trkpt>
      <trkpt lat="48.47374" lon="-2.72814">
        <ele>58.200000762939</ele>
        <time>2022-09-04T07:04:46.000Z</time>
      </trkpt>
      <trkpt lat="48.47373" lon="-2.72828">
        <ele>58.400001525879</ele>
        <time>2022-09-04T07:04:48.000Z</time>
      </trkpt>
      <trkpt lat="48.47371" lon="-2.72845">
        <ele>58.400001525879</ele>
        <time>2022-09-04T07:04:50.000Z</time>
      </trkpt>
      <trkpt lat="48.47369" lon="-2.72874">
        <ele>58.400001525879</ele>
        <time>2022-09-04T07:04:53.000Z</time>
      </trkpt>
      <trkpt lat="48.47369" lon="-2.72882">
        <ele>58.400001525879</ele>
        <time>2022-09-04T07:04:54.000Z</time>
      </trkpt>
      <trkpt lat="48.47369" lon="-2.7289">
        <ele>58.200000762939</ele>
        <time>2022-09-04T07:04:55.000Z</time>
      </trkpt>
      <trkpt lat="48.47368" lon="-2.72897">
        <ele>58.400001525879</ele>
        <time>2022-09-04T07:04:56.000Z</time>
      </trkpt>
      <trkpt lat="48.47366" lon="-2.72906">
        <ele>58.200000762939</ele>
        <time>2022-09-04T07:04:57.000Z</time>
      </trkpt>
      <trkpt lat="48.47365" lon="-2.72915">
        <ele>58</ele>
        <time>2022-09-04T07:04:58.000Z</time>
      </trkpt>
      <trkpt lat="48.47368" lon="-2.72935">
        <ele>58</ele>
        <time>2022-09-04T07:05:00.000Z</time>
      </trkpt>
      <trkpt lat="48.4737" lon="-2.72946">
        <ele>57.799999237061</ele>
        <time>2022-09-04T07:05:01.000Z</time>
      </trkpt>
      <trkpt lat="48.47371" lon="-2.72956">
        <ele>57.799999237061</ele>
        <time>2022-09-04T07:05:02.000Z</time>
      </trkpt>
      <trkpt lat="48.47372" lon="-2.72967">
        <ele>57.799999237061</ele>
        <time>2022-09-04T07:05:03.000Z</time>
      </trkpt>
      <trkpt lat="48.47374" lon="-2.72976">
        <ele>57.799999237061</ele>
        <time>2022-09-04T07:05:04.000Z</time>
      </trkpt>
      <trkpt lat="48.47374" lon="-2.72982">
        <ele>57.799999237061</ele>
        <time>2022-09-04T07:05:05.000Z</time>
      </trkpt>
      <trkpt lat="48.47374" lon="-2.72988">
        <ele>58</ele>
        <time>2022-09-04T07:05:06.000Z</time>
      </trkpt>
      <trkpt lat="48.47375" lon="-2.72993">
        <ele>58.200000762939</ele>
        <time>2022-09-04T07:05:07.000Z</time>
      </trkpt>
      <trkpt lat="48.47377" lon="-2.72998">
        <ele>58.400001525879</ele>
        <time>2022-09-04T07:05:08.000Z</time>
      </trkpt>
      <trkpt lat="48.47379" lon="-2.73004">
        <ele>58.599998474121</ele>
        <time>2022-09-04T07:05:09.000Z</time>
      </trkpt>
      <trkpt lat="48.47379" lon="-2.73011">
        <ele>58.799999237061</ele>
        <time>2022-09-04T07:05:10.000Z</time>
      </trkpt>
      <trkpt lat="48.47379" lon="-2.73019">
        <ele>59</ele>
        <time>2022-09-04T07:05:11.000Z</time>
      </trkpt>
      <trkpt lat="48.47381" lon="-2.73025">
        <ele>59.400001525879</ele>
        <time>2022-09-04T07:05:12.000Z</time>
      </trkpt>
      <trkpt lat="48.47383" lon="-2.73028">
        <ele>59.400001525879</ele>
        <time>2022-09-04T07:05:13.000Z</time>
      </trkpt>
      <trkpt lat="48.47386" lon="-2.73031">
        <ele>60</ele>
        <time>2022-09-04T07:05:14.000Z</time>
      </trkpt>
      <trkpt lat="48.47389" lon="-2.73034">
        <ele>60.200000762939</ele>
        <time>2022-09-04T07:05:15.000Z</time>
      </trkpt>
      <trkpt lat="48.47391" lon="-2.73036">
        <ele>60.799999237061</ele>
        <time>2022-09-04T07:05:16.000Z</time>
      </trkpt>
      <trkpt lat="48.47394" lon="-2.73038">
        <ele>61.200000762939</ele>
        <time>2022-09-04T07:05:17.000Z</time>
      </trkpt>
      <trkpt lat="48.47396" lon="-2.73039">
        <ele>62</ele>
        <time>2022-09-04T07:05:18.000Z</time>
      </trkpt>
      <trkpt lat="48.47397" lon="-2.73038">
        <ele>62.400001525879</ele>
        <time>2022-09-04T07:05:19.000Z</time>
      </trkpt>
      <trkpt lat="48.47398" lon="-2.73038">
        <ele>62.599998474121</ele>
        <time>2022-09-04T07:05:20.000Z</time>
      </trkpt>
      <trkpt lat="48.474" lon="-2.73039">
        <ele>62.799999237061</ele>
        <time>2022-09-04T07:05:21.000Z</time>
      </trkpt>
      <trkpt lat="48.47401" lon="-2.73037">
        <ele>62.799999237061</ele>
        <time>2022-09-04T07:05:22.000Z</time>
      </trkpt>
      <trkpt lat="48.47403" lon="-2.73039">
        <ele>63</ele>
        <time>2022-09-04T07:05:23.000Z</time>
      </trkpt>
      <trkpt lat="48.47404" lon="-2.7304">
        <ele>63.200000762939</ele>
        <time>2022-09-04T07:05:24.000Z</time>
      </trkpt>
      <trkpt lat="48.47405" lon="-2.73043">
        <ele>63.799999237061</ele>
        <time>2022-09-04T07:05:25.000Z</time>
      </trkpt>
      <trkpt lat="48.47406" lon="-2.73046">
        <ele>64</ele>
        <time>2022-09-04T07:05:26.000Z</time>
      </trkpt>
      <trkpt lat="48.47406" lon="-2.7305">
        <ele>64.599998474121</ele>
        <time>2022-09-04T07:05:27.000Z</time>
      </trkpt>
      <trkpt lat="48.47406" lon="-2.73054">
        <ele>64.800003051758</ele>
        <time>2022-09-04T07:05:28.000Z</time>
      </trkpt>
      <trkpt lat="48.47406" lon="-2.73059">
        <ele>65.199996948242</ele>
        <time>2022-09-04T07:05:29.000Z</time>
      </trkpt>
      <trkpt lat="48.47405" lon="-2.73065">
        <ele>65.199996948242</ele>
        <time>2022-09-04T07:05:30.000Z</time>
      </trkpt>
      <trkpt lat="48.47402" lon="-2.73071">
        <ele>65.199996948242</ele>
        <time>2022-09-04T07:05:31.000Z</time>
      </trkpt>
      <trkpt lat="48.47399" lon="-2.73078">
        <ele>65.199996948242</ele>
        <time>2022-09-04T07:05:32.000Z</time>
      </trkpt>
      <trkpt lat="48.47397" lon="-2.73085">
        <ele>65.199996948242</ele>
        <time>2022-09-04T07:05:33.000Z</time>
      </trkpt>
      <trkpt lat="48.47395" lon="-2.73093">
        <ele>65.199996948242</ele>
        <time>2022-09-04T07:05:34.000Z</time>
      </trkpt>
      <trkpt lat="48.47392" lon="-2.73101">
        <ele>65.199996948242</ele>
        <time>2022-09-04T07:05:35.000Z</time>
      </trkpt>
      <trkpt lat="48.47388" lon="-2.73109">
        <ele>64.599998474121</ele>
        <time>2022-09-04T07:05:36.000Z</time>
      </trkpt>
      <trkpt lat="48.47384" lon="-2.73118">
        <ele>64.199996948242</ele>
        <time>2022-09-04T07:05:37.000Z</time>
      </trkpt>
      <trkpt lat="48.47381" lon="-2.73128">
        <ele>63.599998474121</ele>
        <time>2022-09-04T07:05:38.000Z</time>
      </trkpt>
      <trkpt lat="48.47377" lon="-2.73138">
        <ele>63.200000762939</ele>
        <time>2022-09-04T07:05:39.000Z</time>
      </trkpt>
      <trkpt lat="48.47375" lon="-2.73146">
        <ele>63</ele>
        <time>2022-09-04T07:05:40.000Z</time>
      </trkpt>
      <trkpt lat="48.47372" lon="-2.73159">
        <ele>62.599998474121</ele>
        <time>2022-09-04T07:05:41.000Z</time>
      </trkpt>
      <trkpt lat="48.47371" lon="-2.7317">
        <ele>62</ele>
        <time>2022-09-04T07:05:42.000Z</time>
      </trkpt>
      <trkpt lat="48.47369" lon="-2.7318">
        <ele>61.599998474121</ele>
        <time>2022-09-04T07:05:43.000Z</time>
      </trkpt>
      <trkpt lat="48.47367" lon="-2.73192">
        <ele>61.400001525879</ele>
        <time>2022-09-04T07:05:44.000Z</time>
      </trkpt>
      <trkpt lat="48.47367" lon="-2.73192">
        <ele>61.200000762939</ele>
        <time>2022-09-04T07:05:45.000Z</time>
      </trkpt>
      <trkpt lat="48.47361" lon="-2.73213">
        <ele>60.799999237061</ele>
        <time>2022-09-04T07:05:46.000Z</time>
      </trkpt>
      <trkpt lat="48.47361" lon="-2.73224">
        <ele>60.200000762939</ele>
        <time>2022-09-04T07:05:47.000Z</time>
      </trkpt>
      <trkpt lat="48.47361" lon="-2.73235">
        <ele>60</ele>
        <time>2022-09-04T07:05:48.000Z</time>
      </trkpt>
      <trkpt lat="48.47361" lon="-2.73255">
        <ele>59.599998474121</ele>
        <time>2022-09-04T07:05:50.000Z</time>
      </trkpt>
      <trkpt lat="48.47362" lon="-2.73267">
        <ele>59</ele>
        <time>2022-09-04T07:05:51.000Z</time>
      </trkpt>
      <trkpt lat="48.47363" lon="-2.73278">
        <ele>59</ele>
        <time>2022-09-04T07:05:52.000Z</time>
      </trkpt>
      <trkpt lat="48.47366" lon="-2.73286">
        <ele>58.799999237061</ele>
        <time>2022-09-04T07:05:53.000Z</time>
      </trkpt>
      <trkpt lat="48.47367" lon="-2.73295">
        <ele>58.599998474121</ele>
        <time>2022-09-04T07:05:54.000Z</time>
      </trkpt>
      <trkpt lat="48.47367" lon="-2.73302">
        <ele>58.599998474121</ele>
        <time>2022-09-04T07:05:55.000Z</time>
      </trkpt>
      <trkpt lat="48.47368" lon="-2.73309">
        <ele>58.799999237061</ele>
        <time>2022-09-04T07:05:56.000Z</time>
      </trkpt>
      <trkpt lat="48.47368" lon="-2.73317">
        <ele>58.799999237061</ele>
        <time>2022-09-04T07:05:57.000Z</time>
      </trkpt>
      <trkpt lat="48.47367" lon="-2.73335">
        <ele>58.799999237061</ele>
        <time>2022-09-04T07:05:59.000Z</time>
      </trkpt>
      <trkpt lat="48.47366" lon="-2.73344">
        <ele>59</ele>
        <time>2022-09-04T07:06:00.000Z</time>
      </trkpt>
      <trkpt lat="48.47355" lon="-2.7339">
        <ele>59.400001525879</ele>
        <time>2022-09-04T07:06:06.000Z</time>
      </trkpt>
      <trkpt lat="48.47352" lon="-2.73398">
        <ele>59.200000762939</ele>
        <time>2022-09-04T07:06:07.000Z</time>
      </trkpt>
      <trkpt lat="48.4735" lon="-2.73406">
        <ele>59.200000762939</ele>
        <time>2022-09-04T07:06:08.000Z</time>
      </trkpt>
      <trkpt lat="48.47349" lon="-2.73413">
        <ele>59</ele>
        <time>2022-09-04T07:06:09.000Z</time>
      </trkpt>
      <trkpt lat="48.47347" lon="-2.73423">
        <ele>59.200000762939</ele>
        <time>2022-09-04T07:06:10.000Z</time>
      </trkpt>
      <trkpt lat="48.47346" lon="-2.73432">
        <ele>59.200000762939</ele>
        <time>2022-09-04T07:06:11.000Z</time>
      </trkpt>
      <trkpt lat="48.47344" lon="-2.7344">
        <ele>59.200000762939</ele>
        <time>2022-09-04T07:06:12.000Z</time>
      </trkpt>
      <trkpt lat="48.47342" lon="-2.73449">
        <ele>59.200000762939</ele>
        <time>2022-09-04T07:06:13.000Z</time>
      </trkpt>
      <trkpt lat="48.47338" lon="-2.73484">
        <ele>59.200000762939</ele>
        <time>2022-09-04T07:06:17.000Z</time>
      </trkpt>
      <trkpt lat="48.47338" lon="-2.73492">
        <ele>59.200000762939</ele>
        <time>2022-09-04T07:06:18.000Z</time>
      </trkpt>
      <trkpt lat="48.47338" lon="-2.73501">
        <ele>59.200000762939</ele>
        <time>2022-09-04T07:06:19.000Z</time>
      </trkpt>
      <trkpt lat="48.47338" lon="-2.7351">
        <ele>59.400001525879</ele>
        <time>2022-09-04T07:06:20.000Z</time>
      </trkpt>
      <trkpt lat="48.47338" lon="-2.73529">
        <ele>59.599998474121</ele>
        <time>2022-09-04T07:06:22.000Z</time>
      </trkpt>
      <trkpt lat="48.47339" lon="-2.73538">
        <ele>59.599998474121</ele>
        <time>2022-09-04T07:06:23.000Z</time>
      </trkpt>
      <trkpt lat="48.4734" lon="-2.73556">
        <ele>59.799999237061</ele>
        <time>2022-09-04T07:06:25.000Z</time>
      </trkpt>
      <trkpt lat="48.47342" lon="-2.73564">
        <ele>59.799999237061</ele>
        <time>2022-09-04T07:06:26.000Z</time>
      </trkpt>
      <trkpt lat="48.47344" lon="-2.73571">
        <ele>59.799999237061</ele>
        <time>2022-09-04T07:06:27.000Z</time>
      </trkpt>
      <trkpt lat="48.47345" lon="-2.73579">
        <ele>60</ele>
        <time>2022-09-04T07:06:28.000Z</time>
      </trkpt>
      <trkpt lat="48.47346" lon="-2.73586">
        <ele>60</ele>
        <time>2022-09-04T07:06:29.000Z</time>
      </trkpt>
      <trkpt lat="48.47345" lon="-2.73594">
        <ele>60</ele>
        <time>2022-09-04T07:06:30.000Z</time>
      </trkpt>
      <trkpt lat="48.47345" lon="-2.73608">
        <ele>60.200000762939</ele>
        <time>2022-09-04T07:06:32.000Z</time>
      </trkpt>
      <trkpt lat="48.47343" lon="-2.73638">
        <ele>60.799999237061</ele>
        <time>2022-09-04T07:06:36.000Z</time>
      </trkpt>
      <trkpt lat="48.47341" lon="-2.73646">
        <ele>61.200000762939</ele>
        <time>2022-09-04T07:06:37.000Z</time>
      </trkpt>
      <trkpt lat="48.47334" lon="-2.73702">
        <ele>61.400001525879</ele>
        <time>2022-09-04T07:06:44.000Z</time>
      </trkpt>
      <trkpt lat="48.47332" lon="-2.7371">
        <ele>61.400001525879</ele>
        <time>2022-09-04T07:06:45.000Z</time>
      </trkpt>
      <trkpt lat="48.47323" lon="-2.7374">
        <ele>61</ele>
        <time>2022-09-04T07:06:49.000Z</time>
      </trkpt>
      <trkpt lat="48.47322" lon="-2.73747">
        <ele>61</ele>
        <time>2022-09-04T07:06:50.000Z</time>
      </trkpt>
      <trkpt lat="48.47322" lon="-2.73753">
        <ele>61</ele>
        <time>2022-09-04T07:06:51.000Z</time>
      </trkpt>
      <trkpt lat="48.47322" lon="-2.73759">
        <ele>61</ele>
        <time>2022-09-04T07:06:52.000Z</time>
      </trkpt>
      <trkpt lat="48.47322" lon="-2.73765">
        <ele>61</ele>
        <time>2022-09-04T07:06:53.000Z</time>
      </trkpt>
      <trkpt lat="48.47321" lon="-2.73771">
        <ele>61</ele>
        <time>2022-09-04T07:06:54.000Z</time>
      </trkpt>
      <trkpt lat="48.47318" lon="-2.73781">
        <ele>61</ele>
        <time>2022-09-04T07:06:56.000Z</time>
      </trkpt>
      <trkpt lat="48.47315" lon="-2.73785">
        <ele>61</ele>
        <time>2022-09-04T07:06:57.000Z</time>
      </trkpt>
      <trkpt lat="48.47313" lon="-2.73788">
        <ele>61</ele>
        <time>2022-09-04T07:06:58.000Z</time>
      </trkpt>
      <trkpt lat="48.47311" lon="-2.73794">
        <ele>60.799999237061</ele>
        <time>2022-09-04T07:06:59.000Z</time>
      </trkpt>
      <trkpt lat="48.47308" lon="-2.738">
        <ele>60.799999237061</ele>
        <time>2022-09-04T07:07:00.000Z</time>
      </trkpt>
      <trkpt lat="48.47304" lon="-2.73806">
        <ele>60.799999237061</ele>
        <time>2022-09-04T07:07:01.000Z</time>
      </trkpt>
      <trkpt lat="48.47294" lon="-2.73829">
        <ele>60.200000762939</ele>
        <time>2022-09-04T07:07:04.000Z</time>
      </trkpt>
      <trkpt lat="48.4729" lon="-2.73837">
        <ele>60.200000762939</ele>
        <time>2022-09-04T07:07:05.000Z</time>
      </trkpt>
      <trkpt lat="48.47287" lon="-2.73846">
        <ele>60.200000762939</ele>
        <time>2022-09-04T07:07:06.000Z</time>
      </trkpt>
      <trkpt lat="48.47286" lon="-2.73854">
        <ele>60.200000762939</ele>
        <time>2022-09-04T07:07:07.000Z</time>
      </trkpt>
      <trkpt lat="48.47285" lon="-2.73861">
        <ele>60.200000762939</ele>
        <time>2022-09-04T07:07:08.000Z</time>
      </trkpt>
      <trkpt lat="48.47284" lon="-2.73867">
        <ele>60.200000762939</ele>
        <time>2022-09-04T07:07:09.000Z</time>
      </trkpt>
      <trkpt lat="48.47283" lon="-2.73873">
        <ele>60.400001525879</ele>
        <time>2022-09-04T07:07:10.000Z</time>
      </trkpt>
      <trkpt lat="48.47282" lon="-2.73879">
        <ele>60.599998474121</ele>
        <time>2022-09-04T07:07:11.000Z</time>
      </trkpt>
      <trkpt lat="48.47282" lon="-2.73879">
        <ele>60.799999237061</ele>
        <time>2022-09-04T07:07:12.000Z</time>
      </trkpt>
      <trkpt lat="48.4728" lon="-2.73891">
        <ele>61</ele>
        <time>2022-09-04T07:07:13.000Z</time>
      </trkpt>
      <trkpt lat="48.47279" lon="-2.73897">
        <ele>61.400001525879</ele>
        <time>2022-09-04T07:07:14.000Z</time>
      </trkpt>
      <trkpt lat="48.47278" lon="-2.73901">
        <ele>61.799999237061</ele>
        <time>2022-09-04T07:07:15.000Z</time>
      </trkpt>
      <trkpt lat="48.47275" lon="-2.73904">
        <ele>62</ele>
        <time>2022-09-04T07:07:16.000Z</time>
      </trkpt>
      <trkpt lat="48.47275" lon="-2.73904">
        <ele>62.200000762939</ele>
        <time>2022-09-04T07:07:17.000Z</time>
      </trkpt>
      <trkpt lat="48.4727" lon="-2.73913">
        <ele>62.400001525879</ele>
        <time>2022-09-04T07:07:18.000Z</time>
      </trkpt>
      <trkpt lat="48.47269" lon="-2.73918">
        <ele>63</ele>
        <time>2022-09-04T07:07:19.000Z</time>
      </trkpt>
      <trkpt lat="48.47267" lon="-2.73922">
        <ele>63</ele>
        <time>2022-09-04T07:07:20.000Z</time>
      </trkpt>
      <trkpt lat="48.47264" lon="-2.73927">
        <ele>63.400001525879</ele>
        <time>2022-09-04T07:07:21.000Z</time>
      </trkpt>
      <trkpt lat="48.47257" lon="-2.73937">
        <ele>64</ele>
        <time>2022-09-04T07:07:23.000Z</time>
      </trkpt>
      <trkpt lat="48.47254" lon="-2.73943">
        <ele>64</ele>
        <time>2022-09-04T07:07:24.000Z</time>
      </trkpt>
      <trkpt lat="48.47253" lon="-2.73948">
        <ele>64.199996948242</ele>
        <time>2022-09-04T07:07:25.000Z</time>
      </trkpt>
      <trkpt lat="48.47251" lon="-2.73952">
        <ele>64.400001525879</ele>
        <time>2022-09-04T07:07:26.000Z</time>
      </trkpt>
      <trkpt lat="48.47248" lon="-2.73956">
        <ele>64.400001525879</ele>
        <time>2022-09-04T07:07:27.000Z</time>
      </trkpt>
      <trkpt lat="48.47241" lon="-2.73959">
        <ele>64.599998474121</ele>
        <time>2022-09-04T07:07:28.000Z</time>
      </trkpt>
      <trkpt lat="48.47236" lon="-2.73964">
        <ele>64.599998474121</ele>
        <time>2022-09-04T07:07:29.000Z</time>
      </trkpt>
      <trkpt lat="48.47229" lon="-2.73969">
        <ele>64.599998474121</ele>
        <time>2022-09-04T07:07:30.000Z</time>
      </trkpt>
      <trkpt lat="48.47221" lon="-2.73975">
        <ele>64.599998474121</ele>
        <time>2022-09-04T07:07:31.000Z</time>
      </trkpt>
      <trkpt lat="48.47215" lon="-2.73978">
        <ele>64.599998474121</ele>
        <time>2022-09-04T07:07:32.000Z</time>
      </trkpt>
      <trkpt lat="48.47212" lon="-2.73982">
        <ele>64.599998474121</ele>
        <time>2022-09-04T07:07:33.000Z</time>
      </trkpt>
      <trkpt lat="48.47208" lon="-2.73986">
        <ele>64.599998474121</ele>
        <time>2022-09-04T07:07:34.000Z</time>
      </trkpt>
      <trkpt lat="48.47204" lon="-2.7399">
        <ele>64.599998474121</ele>
        <time>2022-09-04T07:07:35.000Z</time>
      </trkpt>
      <trkpt lat="48.472" lon="-2.73993">
        <ele>64.599998474121</ele>
        <time>2022-09-04T07:07:36.000Z</time>
      </trkpt>
      <trkpt lat="48.47195" lon="-2.73998">
        <ele>64.400001525879</ele>
        <time>2022-09-04T07:07:37.000Z</time>
      </trkpt>
      <trkpt lat="48.4719" lon="-2.74003">
        <ele>64.199996948242</ele>
        <time>2022-09-04T07:07:38.000Z</time>
      </trkpt>
      <trkpt lat="48.47182" lon="-2.74008">
        <ele>64</ele>
        <time>2022-09-04T07:07:39.000Z</time>
      </trkpt>
      <trkpt lat="48.47176" lon="-2.74012">
        <ele>64</ele>
        <time>2022-09-04T07:07:40.000Z</time>
      </trkpt>
      <trkpt lat="48.47171" lon="-2.74017">
        <ele>63.400001525879</ele>
        <time>2022-09-04T07:07:41.000Z</time>
      </trkpt>
      <trkpt lat="48.47166" lon="-2.74021">
        <ele>63.200000762939</ele>
        <time>2022-09-04T07:07:42.000Z</time>
      </trkpt>
      <trkpt lat="48.47151" lon="-2.74031">
        <ele>63</ele>
        <time>2022-09-04T07:07:44.000Z</time>
      </trkpt>
      <trkpt lat="48.47145" lon="-2.74038">
        <ele>62.599998474121</ele>
        <time>2022-09-04T07:07:45.000Z</time>
      </trkpt>
      <trkpt lat="48.47136" lon="-2.74055">
        <ele>62</ele>
        <time>2022-09-04T07:07:48.000Z</time>
      </trkpt>
      <trkpt lat="48.47129" lon="-2.74072">
        <ele>62</ele>
        <time>2022-09-04T07:07:49.000Z</time>
      </trkpt>
      <trkpt lat="48.47126" lon="-2.74082">
        <ele>61.799999237061</ele>
        <time>2022-09-04T07:07:50.000Z</time>
      </trkpt>
      <trkpt lat="48.47123" lon="-2.74091">
        <ele>61.799999237061</ele>
        <time>2022-09-04T07:07:51.000Z</time>
      </trkpt>
      <trkpt lat="48.4712" lon="-2.74099">
        <ele>61.599998474121</ele>
        <time>2022-09-04T07:07:52.000Z</time>
      </trkpt>
      <trkpt lat="48.47117" lon="-2.74107">
        <ele>61.599998474121</ele>
        <time>2022-09-04T07:07:53.000Z</time>
      </trkpt>
      <trkpt lat="48.47111" lon="-2.74123">
        <ele>61.200000762939</ele>
        <time>2022-09-04T07:07:55.000Z</time>
      </trkpt>
      <trkpt lat="48.47109" lon="-2.74129">
        <ele>61</ele>
        <time>2022-09-04T07:07:56.000Z</time>
      </trkpt>
      <trkpt lat="48.47107" lon="-2.74133">
        <ele>61</ele>
        <time>2022-09-04T07:07:57.000Z</time>
      </trkpt>
      <trkpt lat="48.47105" lon="-2.74135">
        <ele>60.799999237061</ele>
        <time>2022-09-04T07:07:58.000Z</time>
      </trkpt>
      <trkpt lat="48.47105" lon="-2.74137">
        <ele>60.799999237061</ele>
        <time>2022-09-04T07:07:59.000Z</time>
      </trkpt>
      <trkpt lat="48.47105" lon="-2.74139">
        <ele>60.799999237061</ele>
        <time>2022-09-04T07:08:00.000Z</time>
      </trkpt>
      <trkpt lat="48.47105" lon="-2.74142">
        <ele>60.799999237061</ele>
        <time>2022-09-04T07:08:01.000Z</time>
      </trkpt>
      <trkpt lat="48.47106" lon="-2.74145">
        <ele>60.799999237061</ele>
        <time>2022-09-04T07:08:02.000Z</time>
      </trkpt>
      <trkpt lat="48.47107" lon="-2.74148">
        <ele>61</ele>
        <time>2022-09-04T07:08:03.000Z</time>
      </trkpt>
      <trkpt lat="48.47108" lon="-2.74151">
        <ele>61</ele>
        <time>2022-09-04T07:08:04.000Z</time>
      </trkpt>
      <trkpt lat="48.47111" lon="-2.74164">
        <ele>61.200000762939</ele>
        <time>2022-09-04T07:08:07.000Z</time>
      </trkpt>
      <trkpt lat="48.4711" lon="-2.74169">
        <ele>61.400001525879</ele>
        <time>2022-09-04T07:08:08.000Z</time>
      </trkpt>
      <trkpt lat="48.47108" lon="-2.74174">
        <ele>61.400001525879</ele>
        <time>2022-09-04T07:08:09.000Z</time>
      </trkpt>
      <trkpt lat="48.47106" lon="-2.74178">
        <ele>61.599998474121</ele>
        <time>2022-09-04T07:08:10.000Z</time>
      </trkpt>
      <trkpt lat="48.47104" lon="-2.74182">
        <ele>61.599998474121</ele>
        <time>2022-09-04T07:08:11.000Z</time>
      </trkpt>
      <trkpt lat="48.47102" lon="-2.74187">
        <ele>61.799999237061</ele>
        <time>2022-09-04T07:08:12.000Z</time>
      </trkpt>
      <trkpt lat="48.471" lon="-2.74191">
        <ele>61.799999237061</ele>
        <time>2022-09-04T07:08:13.000Z</time>
      </trkpt>
      <trkpt lat="48.47095" lon="-2.74195">
        <ele>62</ele>
        <time>2022-09-04T07:08:14.000Z</time>
      </trkpt>
      <trkpt lat="48.47091" lon="-2.74201">
        <ele>62</ele>
        <time>2022-09-04T07:08:15.000Z</time>
      </trkpt>
      <trkpt lat="48.47078" lon="-2.74217">
        <ele>62.200000762939</ele>
        <time>2022-09-04T07:08:18.000Z</time>
      </trkpt>
      <trkpt lat="48.47071" lon="-2.74227">
        <ele>62.200000762939</ele>
        <time>2022-09-04T07:08:20.000Z</time>
      </trkpt>
      <trkpt lat="48.47064" lon="-2.74241">
        <ele>62.200000762939</ele>
        <time>2022-09-04T07:08:22.000Z</time>
      </trkpt>
      <trkpt lat="48.4705" lon="-2.7427">
        <ele>62</ele>
        <time>2022-09-04T07:08:26.000Z</time>
      </trkpt>
      <trkpt lat="48.47044" lon="-2.74283">
        <ele>62</ele>
        <time>2022-09-04T07:08:28.000Z</time>
      </trkpt>
      <trkpt lat="48.47036" lon="-2.74297">
        <ele>62</ele>
        <time>2022-09-04T07:08:30.000Z</time>
      </trkpt>
      <trkpt lat="48.47029" lon="-2.74308">
        <ele>62</ele>
        <time>2022-09-04T07:08:32.000Z</time>
      </trkpt>
      <trkpt lat="48.47025" lon="-2.74314">
        <ele>62</ele>
        <time>2022-09-04T07:08:33.000Z</time>
      </trkpt>
      <trkpt lat="48.47022" lon="-2.74321">
        <ele>62</ele>
        <time>2022-09-04T07:08:34.000Z</time>
      </trkpt>
      <trkpt lat="48.47019" lon="-2.74329">
        <ele>62</ele>
        <time>2022-09-04T07:08:35.000Z</time>
      </trkpt>
      <trkpt lat="48.47018" lon="-2.74335">
        <ele>62.200000762939</ele>
        <time>2022-09-04T07:08:36.000Z</time>
      </trkpt>
      <trkpt lat="48.47018" lon="-2.74341">
        <ele>62.200000762939</ele>
        <time>2022-09-04T07:08:37.000Z</time>
      </trkpt>
      <trkpt lat="48.4702" lon="-2.74346">
        <ele>62.400001525879</ele>
        <time>2022-09-04T07:08:38.000Z</time>
      </trkpt>
      <trkpt lat="48.4702" lon="-2.74352">
        <ele>62.599998474121</ele>
        <time>2022-09-04T07:08:39.000Z</time>
      </trkpt>
      <trkpt lat="48.47018" lon="-2.74356">
        <ele>62.799999237061</ele>
        <time>2022-09-04T07:08:40.000Z</time>
      </trkpt>
      <trkpt lat="48.47008" lon="-2.74371">
        <ele>63.200000762939</ele>
        <time>2022-09-04T07:08:43.000Z</time>
      </trkpt>
      <trkpt lat="48.47004" lon="-2.74377">
        <ele>63.200000762939</ele>
        <time>2022-09-04T07:08:44.000Z</time>
      </trkpt>
      <trkpt lat="48.46993" lon="-2.74401">
        <ele>63</ele>
        <time>2022-09-04T07:08:47.000Z</time>
      </trkpt>
      <trkpt lat="48.46988" lon="-2.74418">
        <ele>63</ele>
        <time>2022-09-04T07:08:49.000Z</time>
      </trkpt>
      <trkpt lat="48.46983" lon="-2.74436">
        <ele>62.400001525879</ele>
        <time>2022-09-04T07:08:51.000Z</time>
      </trkpt>
      <trkpt lat="48.4698" lon="-2.74452">
        <ele>62.200000762939</ele>
        <time>2022-09-04T07:08:53.000Z</time>
      </trkpt>
      <trkpt lat="48.4698" lon="-2.7446">
        <ele>62.200000762939</ele>
        <time>2022-09-04T07:08:54.000Z</time>
      </trkpt>
      <trkpt lat="48.4698" lon="-2.74469">
        <ele>62</ele>
        <time>2022-09-04T07:08:55.000Z</time>
      </trkpt>
      <trkpt lat="48.46979" lon="-2.74475">
        <ele>61.799999237061</ele>
        <time>2022-09-04T07:08:56.000Z</time>
      </trkpt>
      <trkpt lat="48.46976" lon="-2.74483">
        <ele>61.799999237061</ele>
        <time>2022-09-04T07:08:57.000Z</time>
      </trkpt>
      <trkpt lat="48.46973" lon="-2.7449">
        <ele>61.799999237061</ele>
        <time>2022-09-04T07:08:58.000Z</time>
      </trkpt>
      <trkpt lat="48.4697" lon="-2.74496">
        <ele>61.799999237061</ele>
        <time>2022-09-04T07:08:59.000Z</time>
      </trkpt>
      <trkpt lat="48.46968" lon="-2.74504">
        <ele>61.599998474121</ele>
        <time>2022-09-04T07:09:00.000Z</time>
      </trkpt>
      <trkpt lat="48.46963" lon="-2.74522">
        <ele>61.599998474121</ele>
        <time>2022-09-04T07:09:02.000Z</time>
      </trkpt>
      <trkpt lat="48.46961" lon="-2.74531">
        <ele>61.599998474121</ele>
        <time>2022-09-04T07:09:03.000Z</time>
      </trkpt>
      <trkpt lat="48.4696" lon="-2.7454">
        <ele>61.400001525879</ele>
        <time>2022-09-04T07:09:04.000Z</time>
      </trkpt>
      <trkpt lat="48.46958" lon="-2.74549">
        <ele>61.400001525879</ele>
        <time>2022-09-04T07:09:05.000Z</time>
      </trkpt>
      <trkpt lat="48.46957" lon="-2.74558">
        <ele>61.400001525879</ele>
        <time>2022-09-04T07:09:06.000Z</time>
      </trkpt>
      <trkpt lat="48.46951" lon="-2.74594">
        <ele>61.799999237061</ele>
        <time>2022-09-04T07:09:10.000Z</time>
      </trkpt>
      <trkpt lat="48.46949" lon="-2.74603">
        <ele>61.799999237061</ele>
        <time>2022-09-04T07:09:11.000Z</time>
      </trkpt>
      <trkpt lat="48.46947" lon="-2.74611">
        <ele>62</ele>
        <time>2022-09-04T07:09:12.000Z</time>
      </trkpt>
      <trkpt lat="48.46937" lon="-2.74647">
        <ele>62.400001525879</ele>
        <time>2022-09-04T07:09:16.000Z</time>
      </trkpt>
      <trkpt lat="48.46934" lon="-2.74654">
        <ele>62.400001525879</ele>
        <time>2022-09-04T07:09:17.000Z</time>
      </trkpt>
      <trkpt lat="48.46929" lon="-2.7466">
        <ele>62.400001525879</ele>
        <time>2022-09-04T07:09:18.000Z</time>
      </trkpt>
      <trkpt lat="48.46925" lon="-2.74664">
        <ele>62.400001525879</ele>
        <time>2022-09-04T07:09:19.000Z</time>
      </trkpt>
      <trkpt lat="48.46922" lon="-2.74667">
        <ele>62.400001525879</ele>
        <time>2022-09-04T07:09:20.000Z</time>
      </trkpt>
      <trkpt lat="48.46918" lon="-2.74673">
        <ele>62.599998474121</ele>
        <time>2022-09-04T07:09:21.000Z</time>
      </trkpt>
      <trkpt lat="48.4691" lon="-2.74688">
        <ele>62.799999237061</ele>
        <time>2022-09-04T07:09:23.000Z</time>
      </trkpt>
      <trkpt lat="48.469" lon="-2.74716">
        <ele>62.799999237061</ele>
        <time>2022-09-04T07:09:27.000Z</time>
      </trkpt>
      <trkpt lat="48.46898" lon="-2.74725">
        <ele>63</ele>
        <time>2022-09-04T07:09:28.000Z</time>
      </trkpt>
      <trkpt lat="48.46896" lon="-2.74732">
        <ele>63.200000762939</ele>
        <time>2022-09-04T07:09:29.000Z</time>
      </trkpt>
      <trkpt lat="48.46893" lon="-2.7474">
        <ele>63.200000762939</ele>
        <time>2022-09-04T07:09:30.000Z</time>
      </trkpt>
      <trkpt lat="48.4689" lon="-2.74748">
        <ele>63.400001525879</ele>
        <time>2022-09-04T07:09:31.000Z</time>
      </trkpt>
      <trkpt lat="48.46874" lon="-2.74795">
        <ele>64</ele>
        <time>2022-09-04T07:09:37.000Z</time>
      </trkpt>
      <trkpt lat="48.46868" lon="-2.74812">
        <ele>64</ele>
        <time>2022-09-04T07:09:39.000Z</time>
      </trkpt>
      <trkpt lat="48.46862" lon="-2.74827">
        <ele>64</ele>
        <time>2022-09-04T07:09:41.000Z</time>
      </trkpt>
      <trkpt lat="48.46856" lon="-2.74843">
        <ele>64</ele>
        <time>2022-09-04T07:09:43.000Z</time>
      </trkpt>
      <trkpt lat="48.46841" lon="-2.74893">
        <ele>64.199996948242</ele>
        <time>2022-09-04T07:09:49.000Z</time>
      </trkpt>
      <trkpt lat="48.46839" lon="-2.74902">
        <ele>64.199996948242</ele>
        <time>2022-09-04T07:09:50.000Z</time>
      </trkpt>
      <trkpt lat="48.46837" lon="-2.7491">
        <ele>64.199996948242</ele>
        <time>2022-09-04T07:09:51.000Z</time>
      </trkpt>
      <trkpt lat="48.46835" lon="-2.74918">
        <ele>64.400001525879</ele>
        <time>2022-09-04T07:09:52.000Z</time>
      </trkpt>
      <trkpt lat="48.46833" lon="-2.74926">
        <ele>64.599998474121</ele>
        <time>2022-09-04T07:09:53.000Z</time>
      </trkpt>
      <trkpt lat="48.46832" lon="-2.74934">
        <ele>64.599998474121</ele>
        <time>2022-09-04T07:09:54.000Z</time>
      </trkpt>
      <trkpt lat="48.4683" lon="-2.74943">
        <ele>64.800003051758</ele>
        <time>2022-09-04T07:09:55.000Z</time>
      </trkpt>
      <trkpt lat="48.46826" lon="-2.74967">
        <ele>65.199996948242</ele>
        <time>2022-09-04T07:09:58.000Z</time>
      </trkpt>
      <trkpt lat="48.46824" lon="-2.74983">
        <ele>65.599998474121</ele>
        <time>2022-09-04T07:10:00.000Z</time>
      </trkpt>
      <trkpt lat="48.46823" lon="-2.74992">
        <ele>65.599998474121</ele>
        <time>2022-09-04T07:10:01.000Z</time>
      </trkpt>
      <trkpt lat="48.46822" lon="-2.75">
        <ele>65.800003051758</ele>
        <time>2022-09-04T07:10:02.000Z</time>
      </trkpt>
      <trkpt lat="48.46821" lon="-2.75007">
        <ele>66</ele>
        <time>2022-09-04T07:10:03.000Z</time>
      </trkpt>
      <trkpt lat="48.4682" lon="-2.75015">
        <ele>66</ele>
        <time>2022-09-04T07:10:04.000Z</time>
      </trkpt>
      <trkpt lat="48.46819" lon="-2.75023">
        <ele>66</ele>
        <time>2022-09-04T07:10:05.000Z</time>
      </trkpt>
      <trkpt lat="48.46818" lon="-2.75031">
        <ele>66.199996948242</ele>
        <time>2022-09-04T07:10:06.000Z</time>
      </trkpt>
      <trkpt lat="48.46817" lon="-2.75039">
        <ele>66.199996948242</ele>
        <time>2022-09-04T07:10:07.000Z</time>
      </trkpt>
      <trkpt lat="48.46818" lon="-2.75056">
        <ele>66.599998474121</ele>
        <time>2022-09-04T07:10:09.000Z</time>
      </trkpt>
      <trkpt lat="48.46818" lon="-2.75063">
        <ele>66.800003051758</ele>
        <time>2022-09-04T07:10:10.000Z</time>
      </trkpt>
      <trkpt lat="48.46819" lon="-2.75072">
        <ele>67</ele>
        <time>2022-09-04T07:10:11.000Z</time>
      </trkpt>
      <trkpt lat="48.46819" lon="-2.75079">
        <ele>67.199996948242</ele>
        <time>2022-09-04T07:10:12.000Z</time>
      </trkpt>
      <trkpt lat="48.4682" lon="-2.75085">
        <ele>67.199996948242</ele>
        <time>2022-09-04T07:10:13.000Z</time>
      </trkpt>
      <trkpt lat="48.46821" lon="-2.7509">
        <ele>67.400001525879</ele>
        <time>2022-09-04T07:10:14.000Z</time>
      </trkpt>
      <trkpt lat="48.46822" lon="-2.75096">
        <ele>67.800003051758</ele>
        <time>2022-09-04T07:10:15.000Z</time>
      </trkpt>
      <trkpt lat="48.46824" lon="-2.75101">
        <ele>67.800003051758</ele>
        <time>2022-09-04T07:10:16.000Z</time>
      </trkpt>
      <trkpt lat="48.46825" lon="-2.75107">
        <ele>68.199996948242</ele>
        <time>2022-09-04T07:10:17.000Z</time>
      </trkpt>
      <trkpt lat="48.46827" lon="-2.75112">
        <ele>68.400001525879</ele>
        <time>2022-09-04T07:10:18.000Z</time>
      </trkpt>
      <trkpt lat="48.46828" lon="-2.75117">
        <ele>68.800003051758</ele>
        <time>2022-09-04T07:10:19.000Z</time>
      </trkpt>
      <trkpt lat="48.4683" lon="-2.75122">
        <ele>69</ele>
        <time>2022-09-04T07:10:20.000Z</time>
      </trkpt>
      <trkpt lat="48.46831" lon="-2.75127">
        <ele>69.400001525879</ele>
        <time>2022-09-04T07:10:21.000Z</time>
      </trkpt>
      <trkpt lat="48.46833" lon="-2.75133">
        <ele>69.800003051758</ele>
        <time>2022-09-04T07:10:22.000Z</time>
      </trkpt>
      <trkpt lat="48.46834" lon="-2.75137">
        <ele>70.599998474121</ele>
        <time>2022-09-04T07:10:23.000Z</time>
      </trkpt>
      <trkpt lat="48.46835" lon="-2.75142">
        <ele>70.800003051758</ele>
        <time>2022-09-04T07:10:24.000Z</time>
      </trkpt>
      <trkpt lat="48.46837" lon="-2.75147">
        <ele>71.199996948242</ele>
        <time>2022-09-04T07:10:25.000Z</time>
      </trkpt>
      <trkpt lat="48.4684" lon="-2.75152">
        <ele>71.800003051758</ele>
        <time>2022-09-04T07:10:26.000Z</time>
      </trkpt>
      <trkpt lat="48.46842" lon="-2.75156">
        <ele>72</ele>
        <time>2022-09-04T07:10:27.000Z</time>
      </trkpt>
      <trkpt lat="48.46842" lon="-2.75156">
        <ele>72.400001525879</ele>
        <time>2022-09-04T07:10:28.000Z</time>
      </trkpt>
      <trkpt lat="48.46844" lon="-2.75166">
        <ele>72.599998474121</ele>
        <time>2022-09-04T07:10:29.000Z</time>
      </trkpt>
      <trkpt lat="48.46845" lon="-2.7517">
        <ele>73</ele>
        <time>2022-09-04T07:10:30.000Z</time>
      </trkpt>
      <trkpt lat="48.46846" lon="-2.75174">
        <ele>73.199996948242</ele>
        <time>2022-09-04T07:10:31.000Z</time>
      </trkpt>
      <trkpt lat="48.46847" lon="-2.75179">
        <ele>73.599998474121</ele>
        <time>2022-09-04T07:10:32.000Z</time>
      </trkpt>
      <trkpt lat="48.46847" lon="-2.75184">
        <ele>73.800003051758</ele>
        <time>2022-09-04T07:10:33.000Z</time>
      </trkpt>
      <trkpt lat="48.46848" lon="-2.75189">
        <ele>74.199996948242</ele>
        <time>2022-09-04T07:10:34.000Z</time>
      </trkpt>
      <trkpt lat="48.46849" lon="-2.75194">
        <ele>74.199996948242</ele>
        <time>2022-09-04T07:10:35.000Z</time>
      </trkpt>
      <trkpt lat="48.4685" lon="-2.75201">
        <ele>74.599998474121</ele>
        <time>2022-09-04T07:10:36.000Z</time>
      </trkpt>
      <trkpt lat="48.46852" lon="-2.75207">
        <ele>74.599998474121</ele>
        <time>2022-09-04T07:10:37.000Z</time>
      </trkpt>
      <trkpt lat="48.46854" lon="-2.75213">
        <ele>74.800003051758</ele>
        <time>2022-09-04T07:10:38.000Z</time>
      </trkpt>
      <trkpt lat="48.46857" lon="-2.75219">
        <ele>74.800003051758</ele>
        <time>2022-09-04T07:10:39.000Z</time>
      </trkpt>
      <trkpt lat="48.4686" lon="-2.75224">
        <ele>74.800003051758</ele>
        <time>2022-09-04T07:10:40.000Z</time>
      </trkpt>
      <trkpt lat="48.46863" lon="-2.75228">
        <ele>74.800003051758</ele>
        <time>2022-09-04T07:10:41.000Z</time>
      </trkpt>
      <trkpt lat="48.46868" lon="-2.75235">
        <ele>74.800003051758</ele>
        <time>2022-09-04T07:10:42.000Z</time>
      </trkpt>
      <trkpt lat="48.46872" lon="-2.75241">
        <ele>74.800003051758</ele>
        <time>2022-09-04T07:10:43.000Z</time>
      </trkpt>
      <trkpt lat="48.46876" lon="-2.75248">
        <ele>74.800003051758</ele>
        <time>2022-09-04T07:10:44.000Z</time>
      </trkpt>
      <trkpt lat="48.4688" lon="-2.75255">
        <ele>74.599998474121</ele>
        <time>2022-09-04T07:10:45.000Z</time>
      </trkpt>
      <trkpt lat="48.46883" lon="-2.75261">
        <ele>74.400001525879</ele>
        <time>2022-09-04T07:10:46.000Z</time>
      </trkpt>
      <trkpt lat="48.46886" lon="-2.75271">
        <ele>74.400001525879</ele>
        <time>2022-09-04T07:10:47.000Z</time>
      </trkpt>
      <trkpt lat="48.46889" lon="-2.75279">
        <ele>74.199996948242</ele>
        <time>2022-09-04T07:10:48.000Z</time>
      </trkpt>
      <trkpt lat="48.46893" lon="-2.75287">
        <ele>74.199996948242</ele>
        <time>2022-09-04T07:10:49.000Z</time>
      </trkpt>
      <trkpt lat="48.46895" lon="-2.75296">
        <ele>74</ele>
        <time>2022-09-04T07:10:50.000Z</time>
      </trkpt>
      <trkpt lat="48.46898" lon="-2.75305">
        <ele>73.800003051758</ele>
        <time>2022-09-04T07:10:51.000Z</time>
      </trkpt>
      <trkpt lat="48.46901" lon="-2.75314">
        <ele>73.400001525879</ele>
        <time>2022-09-04T07:10:52.000Z</time>
      </trkpt>
      <trkpt lat="48.46903" lon="-2.75323">
        <ele>73.400001525879</ele>
        <time>2022-09-04T07:10:53.000Z</time>
      </trkpt>
      <trkpt lat="48.46905" lon="-2.75332">
        <ele>73.199996948242</ele>
        <time>2022-09-04T07:10:54.000Z</time>
      </trkpt>
      <trkpt lat="48.46907" lon="-2.7534">
        <ele>73.199996948242</ele>
        <time>2022-09-04T07:10:55.000Z</time>
      </trkpt>
      <trkpt lat="48.4691" lon="-2.75349">
        <ele>73.199996948242</ele>
        <time>2022-09-04T07:10:56.000Z</time>
      </trkpt>
      <trkpt lat="48.46912" lon="-2.75356">
        <ele>73.199996948242</ele>
        <time>2022-09-04T07:10:57.000Z</time>
      </trkpt>
      <trkpt lat="48.46914" lon="-2.75364">
        <ele>73.199996948242</ele>
        <time>2022-09-04T07:10:58.000Z</time>
      </trkpt>
      <trkpt lat="48.46915" lon="-2.75372">
        <ele>73.199996948242</ele>
        <time>2022-09-04T07:10:59.000Z</time>
      </trkpt>
      <trkpt lat="48.46917" lon="-2.7538">
        <ele>73.400001525879</ele>
        <time>2022-09-04T07:11:00.000Z</time>
      </trkpt>
      <trkpt lat="48.46918" lon="-2.75387">
        <ele>73.599998474121</ele>
        <time>2022-09-04T07:11:01.000Z</time>
      </trkpt>
      <trkpt lat="48.46919" lon="-2.75395">
        <ele>73.599998474121</ele>
        <time>2022-09-04T07:11:02.000Z</time>
      </trkpt>
      <trkpt lat="48.46919" lon="-2.75418">
        <ele>74.400001525879</ele>
        <time>2022-09-04T07:11:05.000Z</time>
      </trkpt>
      <trkpt lat="48.46917" lon="-2.75426">
        <ele>74.400001525879</ele>
        <time>2022-09-04T07:11:06.000Z</time>
      </trkpt>
      <trkpt lat="48.46915" lon="-2.75441">
        <ele>75</ele>
        <time>2022-09-04T07:11:08.000Z</time>
      </trkpt>
      <trkpt lat="48.46914" lon="-2.75449">
        <ele>75.199996948242</ele>
        <time>2022-09-04T07:11:09.000Z</time>
      </trkpt>
      <trkpt lat="48.46913" lon="-2.75456">
        <ele>75.400001525879</ele>
        <time>2022-09-04T07:11:10.000Z</time>
      </trkpt>
      <trkpt lat="48.46912" lon="-2.75463">
        <ele>75.599998474121</ele>
        <time>2022-09-04T07:11:11.000Z</time>
      </trkpt>
      <trkpt lat="48.4691" lon="-2.75469">
        <ele>75.800003051758</ele>
        <time>2022-09-04T07:11:12.000Z</time>
      </trkpt>
      <trkpt lat="48.46908" lon="-2.75477">
        <ele>75.800003051758</ele>
        <time>2022-09-04T07:11:13.000Z</time>
      </trkpt>
      <trkpt lat="48.46906" lon="-2.75484">
        <ele>76</ele>
        <time>2022-09-04T07:11:14.000Z</time>
      </trkpt>
      <trkpt lat="48.46904" lon="-2.75491">
        <ele>76</ele>
        <time>2022-09-04T07:11:15.000Z</time>
      </trkpt>
      <trkpt lat="48.46903" lon="-2.75498">
        <ele>76.400001525879</ele>
        <time>2022-09-04T07:11:16.000Z</time>
      </trkpt>
      <trkpt lat="48.46901" lon="-2.75505">
        <ele>76.599998474121</ele>
        <time>2022-09-04T07:11:17.000Z</time>
      </trkpt>
      <trkpt lat="48.46899" lon="-2.75519">
        <ele>77</ele>
        <time>2022-09-04T07:11:19.000Z</time>
      </trkpt>
      <trkpt lat="48.46897" lon="-2.75527">
        <ele>77.400001525879</ele>
        <time>2022-09-04T07:11:20.000Z</time>
      </trkpt>
      <trkpt lat="48.46896" lon="-2.75532">
        <ele>77.400001525879</ele>
        <time>2022-09-04T07:11:21.000Z</time>
      </trkpt>
      <trkpt lat="48.46895" lon="-2.7554">
        <ele>77.599998474121</ele>
        <time>2022-09-04T07:11:22.000Z</time>
      </trkpt>
      <trkpt lat="48.46893" lon="-2.75547">
        <ele>77.800003051758</ele>
        <time>2022-09-04T07:11:23.000Z</time>
      </trkpt>
      <trkpt lat="48.46892" lon="-2.75554">
        <ele>78</ele>
        <time>2022-09-04T07:11:24.000Z</time>
      </trkpt>
      <trkpt lat="48.46891" lon="-2.75561">
        <ele>78.199996948242</ele>
        <time>2022-09-04T07:11:25.000Z</time>
      </trkpt>
      <trkpt lat="48.4689" lon="-2.75568">
        <ele>78.400001525879</ele>
        <time>2022-09-04T07:11:26.000Z</time>
      </trkpt>
      <trkpt lat="48.46889" lon="-2.75574">
        <ele>78.599998474121</ele>
        <time>2022-09-04T07:11:27.000Z</time>
      </trkpt>
      <trkpt lat="48.46888" lon="-2.75581">
        <ele>78.800003051758</ele>
        <time>2022-09-04T07:11:28.000Z</time>
      </trkpt>
      <trkpt lat="48.46887" lon="-2.75588">
        <ele>79</ele>
        <time>2022-09-04T07:11:29.000Z</time>
      </trkpt>
      <trkpt lat="48.46886" lon="-2.75595">
        <ele>79.199996948242</ele>
        <time>2022-09-04T07:11:30.000Z</time>
      </trkpt>
      <trkpt lat="48.46885" lon="-2.75601">
        <ele>79.199996948242</ele>
        <time>2022-09-04T07:11:31.000Z</time>
      </trkpt>
      <trkpt lat="48.46886" lon="-2.75608">
        <ele>79.199996948242</ele>
        <time>2022-09-04T07:11:32.000Z</time>
      </trkpt>
      <trkpt lat="48.46885" lon="-2.75614">
        <ele>79.400001525879</ele>
        <time>2022-09-04T07:11:33.000Z</time>
      </trkpt>
      <trkpt lat="48.46885" lon="-2.75621">
        <ele>79.599998474121</ele>
        <time>2022-09-04T07:11:34.000Z</time>
      </trkpt>
      <trkpt lat="48.46885" lon="-2.75628">
        <ele>79.599998474121</ele>
        <time>2022-09-04T07:11:35.000Z</time>
      </trkpt>
      <trkpt lat="48.46885" lon="-2.75634">
        <ele>79.800003051758</ele>
        <time>2022-09-04T07:11:36.000Z</time>
      </trkpt>
      <trkpt lat="48.46885" lon="-2.75641">
        <ele>79.800003051758</ele>
        <time>2022-09-04T07:11:37.000Z</time>
      </trkpt>
      <trkpt lat="48.46886" lon="-2.75648">
        <ele>80</ele>
        <time>2022-09-04T07:11:38.000Z</time>
      </trkpt>
      <trkpt lat="48.46887" lon="-2.75655">
        <ele>80.199996948242</ele>
        <time>2022-09-04T07:11:39.000Z</time>
      </trkpt>
      <trkpt lat="48.46888" lon="-2.75661">
        <ele>80.599998474121</ele>
        <time>2022-09-04T07:11:40.000Z</time>
      </trkpt>
      <trkpt lat="48.4689" lon="-2.75667">
        <ele>80.800003051758</ele>
        <time>2022-09-04T07:11:41.000Z</time>
      </trkpt>
      <trkpt lat="48.46892" lon="-2.75674">
        <ele>81</ele>
        <time>2022-09-04T07:11:42.000Z</time>
      </trkpt>
      <trkpt lat="48.46894" lon="-2.75681">
        <ele>81.199996948242</ele>
        <time>2022-09-04T07:11:43.000Z</time>
      </trkpt>
      <trkpt lat="48.46896" lon="-2.75687">
        <ele>81.599998474121</ele>
        <time>2022-09-04T07:11:44.000Z</time>
      </trkpt>
      <trkpt lat="48.46899" lon="-2.75692">
        <ele>81.800003051758</ele>
        <time>2022-09-04T07:11:45.000Z</time>
      </trkpt>
      <trkpt lat="48.46901" lon="-2.75697">
        <ele>81.800003051758</ele>
        <time>2022-09-04T07:11:46.000Z</time>
      </trkpt>
      <trkpt lat="48.46903" lon="-2.75703">
        <ele>82</ele>
        <time>2022-09-04T07:11:47.000Z</time>
      </trkpt>
      <trkpt lat="48.46906" lon="-2.75708">
        <ele>82.199996948242</ele>
        <time>2022-09-04T07:11:48.000Z</time>
      </trkpt>
      <trkpt lat="48.46908" lon="-2.75714">
        <ele>82.400001525879</ele>
        <time>2022-09-04T07:11:49.000Z</time>
      </trkpt>
      <trkpt lat="48.4691" lon="-2.75719">
        <ele>82.599998474121</ele>
        <time>2022-09-04T07:11:50.000Z</time>
      </trkpt>
      <trkpt lat="48.46912" lon="-2.75726">
        <ele>83</ele>
        <time>2022-09-04T07:11:51.000Z</time>
      </trkpt>
      <trkpt lat="48.46914" lon="-2.75732">
        <ele>83.199996948242</ele>
        <time>2022-09-04T07:11:52.000Z</time>
      </trkpt>
      <trkpt lat="48.46916" lon="-2.75738">
        <ele>83.400001525879</ele>
        <time>2022-09-04T07:11:53.000Z</time>
      </trkpt>
      <trkpt lat="48.46918" lon="-2.75745">
        <ele>83.400001525879</ele>
        <time>2022-09-04T07:11:54.000Z</time>
      </trkpt>
      <trkpt lat="48.4692" lon="-2.75751">
        <ele>83.800003051758</ele>
        <time>2022-09-04T07:11:55.000Z</time>
      </trkpt>
      <trkpt lat="48.46922" lon="-2.75757">
        <ele>83.800003051758</ele>
        <time>2022-09-04T07:11:56.000Z</time>
      </trkpt>
      <trkpt lat="48.46924" lon="-2.75764">
        <ele>84</ele>
        <time>2022-09-04T07:11:57.000Z</time>
      </trkpt>
      <trkpt lat="48.46926" lon="-2.7577">
        <ele>84.199996948242</ele>
        <time>2022-09-04T07:11:58.000Z</time>
      </trkpt>
      <trkpt lat="48.46929" lon="-2.75777">
        <ele>84.199996948242</ele>
        <time>2022-09-04T07:11:59.000Z</time>
      </trkpt>
      <trkpt lat="48.46932" lon="-2.75783">
        <ele>84.599998474121</ele>
        <time>2022-09-04T07:12:00.000Z</time>
      </trkpt>
      <trkpt lat="48.46934" lon="-2.75789">
        <ele>84.599998474121</ele>
        <time>2022-09-04T07:12:01.000Z</time>
      </trkpt>
      <trkpt lat="48.46937" lon="-2.75795">
        <ele>85</ele>
        <time>2022-09-04T07:12:02.000Z</time>
      </trkpt>
      <trkpt lat="48.4694" lon="-2.758">
        <ele>85</ele>
        <time>2022-09-04T07:12:03.000Z</time>
      </trkpt>
      <trkpt lat="48.46943" lon="-2.75805">
        <ele>85.199996948242</ele>
        <time>2022-09-04T07:12:04.000Z</time>
      </trkpt>
      <trkpt lat="48.46946" lon="-2.7581">
        <ele>85.199996948242</ele>
        <time>2022-09-04T07:12:05.000Z</time>
      </trkpt>
      <trkpt lat="48.4695" lon="-2.75815">
        <ele>85.599998474121</ele>
        <time>2022-09-04T07:12:06.000Z</time>
      </trkpt>
      <trkpt lat="48.46953" lon="-2.7582">
        <ele>85.800003051758</ele>
        <time>2022-09-04T07:12:07.000Z</time>
      </trkpt>
      <trkpt lat="48.46957" lon="-2.75825">
        <ele>86</ele>
        <time>2022-09-04T07:12:08.000Z</time>
      </trkpt>
      <trkpt lat="48.4696" lon="-2.75829">
        <ele>86.199996948242</ele>
        <time>2022-09-04T07:12:09.000Z</time>
      </trkpt>
      <trkpt lat="48.46964" lon="-2.75833">
        <ele>86.400001525879</ele>
        <time>2022-09-04T07:12:10.000Z</time>
      </trkpt>
      <trkpt lat="48.46968" lon="-2.75837">
        <ele>86.599998474121</ele>
        <time>2022-09-04T07:12:11.000Z</time>
      </trkpt>
      <trkpt lat="48.46972" lon="-2.7584">
        <ele>86.800003051758</ele>
        <time>2022-09-04T07:12:12.000Z</time>
      </trkpt>
      <trkpt lat="48.46976" lon="-2.75843">
        <ele>87.199996948242</ele>
        <time>2022-09-04T07:12:13.000Z</time>
      </trkpt>
      <trkpt lat="48.46981" lon="-2.75846">
        <ele>87.199996948242</ele>
        <time>2022-09-04T07:12:14.000Z</time>
      </trkpt>
      <trkpt lat="48.46985" lon="-2.75848">
        <ele>87.400001525879</ele>
        <time>2022-09-04T07:12:15.000Z</time>
      </trkpt>
      <trkpt lat="48.46989" lon="-2.7585">
        <ele>87.599998474121</ele>
        <time>2022-09-04T07:12:16.000Z</time>
      </trkpt>
      <trkpt lat="48.46993" lon="-2.75852">
        <ele>87.800003051758</ele>
        <time>2022-09-04T07:12:17.000Z</time>
      </trkpt>
      <trkpt lat="48.46997" lon="-2.75854">
        <ele>88</ele>
        <time>2022-09-04T07:12:18.000Z</time>
      </trkpt>
      <trkpt lat="48.47002" lon="-2.75855">
        <ele>88</ele>
        <time>2022-09-04T07:12:19.000Z</time>
      </trkpt>
      <trkpt lat="48.47006" lon="-2.75857">
        <ele>88.199996948242</ele>
        <time>2022-09-04T07:12:20.000Z</time>
      </trkpt>
      <trkpt lat="48.4701" lon="-2.75859">
        <ele>88.400001525879</ele>
        <time>2022-09-04T07:12:21.000Z</time>
      </trkpt>
      <trkpt lat="48.47014" lon="-2.75861">
        <ele>88.400001525879</ele>
        <time>2022-09-04T07:12:22.000Z</time>
      </trkpt>
      <trkpt lat="48.47018" lon="-2.75863">
        <ele>88.599998474121</ele>
        <time>2022-09-04T07:12:23.000Z</time>
      </trkpt>
      <trkpt lat="48.47022" lon="-2.75864">
        <ele>88.800003051758</ele>
        <time>2022-09-04T07:12:24.000Z</time>
      </trkpt>
      <trkpt lat="48.47026" lon="-2.75866">
        <ele>89</ele>
        <time>2022-09-04T07:12:25.000Z</time>
      </trkpt>
      <trkpt lat="48.47031" lon="-2.75867">
        <ele>89.199996948242</ele>
        <time>2022-09-04T07:12:26.000Z</time>
      </trkpt>
      <trkpt lat="48.47035" lon="-2.75869">
        <ele>89.400001525879</ele>
        <time>2022-09-04T07:12:27.000Z</time>
      </trkpt>
      <trkpt lat="48.47039" lon="-2.75871">
        <ele>89.800003051758</ele>
        <time>2022-09-04T07:12:28.000Z</time>
      </trkpt>
      <trkpt lat="48.47043" lon="-2.75872">
        <ele>89.800003051758</ele>
        <time>2022-09-04T07:12:29.000Z</time>
      </trkpt>
      <trkpt lat="48.47048" lon="-2.75873">
        <ele>90</ele>
        <time>2022-09-04T07:12:30.000Z</time>
      </trkpt>
      <trkpt lat="48.47052" lon="-2.75873">
        <ele>90.199996948242</ele>
        <time>2022-09-04T07:12:31.000Z</time>
      </trkpt>
      <trkpt lat="48.47056" lon="-2.75874">
        <ele>90.199996948242</ele>
        <time>2022-09-04T07:12:32.000Z</time>
      </trkpt>
      <trkpt lat="48.47061" lon="-2.75875">
        <ele>90.400001525879</ele>
        <time>2022-09-04T07:12:33.000Z</time>
      </trkpt>
      <trkpt lat="48.47066" lon="-2.75876">
        <ele>90.599998474121</ele>
        <time>2022-09-04T07:12:34.000Z</time>
      </trkpt>
      <trkpt lat="48.4707" lon="-2.75876">
        <ele>90.800003051758</ele>
        <time>2022-09-04T07:12:35.000Z</time>
      </trkpt>
      <trkpt lat="48.47074" lon="-2.75876">
        <ele>91</ele>
        <time>2022-09-04T07:12:36.000Z</time>
      </trkpt>
      <trkpt lat="48.47079" lon="-2.75876">
        <ele>91.400001525879</ele>
        <time>2022-09-04T07:12:37.000Z</time>
      </trkpt>
      <trkpt lat="48.47083" lon="-2.75876">
        <ele>91.599998474121</ele>
        <time>2022-09-04T07:12:38.000Z</time>
      </trkpt>
      <trkpt lat="48.47087" lon="-2.75877">
        <ele>91.800003051758</ele>
        <time>2022-09-04T07:12:39.000Z</time>
      </trkpt>
      <trkpt lat="48.47092" lon="-2.75877">
        <ele>92</ele>
        <time>2022-09-04T07:12:40.000Z</time>
      </trkpt>
      <trkpt lat="48.47097" lon="-2.75877">
        <ele>92.199996948242</ele>
        <time>2022-09-04T07:12:41.000Z</time>
      </trkpt>
      <trkpt lat="48.47101" lon="-2.75877">
        <ele>92.599998474121</ele>
        <time>2022-09-04T07:12:42.000Z</time>
      </trkpt>
      <trkpt lat="48.47105" lon="-2.75877">
        <ele>92.599998474121</ele>
        <time>2022-09-04T07:12:43.000Z</time>
      </trkpt>
      <trkpt lat="48.4711" lon="-2.75877">
        <ele>92.800003051758</ele>
        <time>2022-09-04T07:12:44.000Z</time>
      </trkpt>
      <trkpt lat="48.47115" lon="-2.75877">
        <ele>92.599998474121</ele>
        <time>2022-09-04T07:12:45.000Z</time>
      </trkpt>
      <trkpt lat="48.47119" lon="-2.75877">
        <ele>92.800003051758</ele>
        <time>2022-09-04T07:12:46.000Z</time>
      </trkpt>
      <trkpt lat="48.47124" lon="-2.75876">
        <ele>93</ele>
        <time>2022-09-04T07:12:47.000Z</time>
      </trkpt>
      <trkpt lat="48.47128" lon="-2.75877">
        <ele>93.400001525879</ele>
        <time>2022-09-04T07:12:48.000Z</time>
      </trkpt>
      <trkpt lat="48.47132" lon="-2.75877">
        <ele>93.400001525879</ele>
        <time>2022-09-04T07:12:49.000Z</time>
      </trkpt>
      <trkpt lat="48.47136" lon="-2.75877">
        <ele>93.599998474121</ele>
        <time>2022-09-04T07:12:50.000Z</time>
      </trkpt>
      <trkpt lat="48.47141" lon="-2.75877">
        <ele>93.800003051758</ele>
        <time>2022-09-04T07:12:51.000Z</time>
      </trkpt>
      <trkpt lat="48.47146" lon="-2.75876">
        <ele>94</ele>
        <time>2022-09-04T07:12:52.000Z</time>
      </trkpt>
      <trkpt lat="48.47151" lon="-2.75875">
        <ele>94.199996948242</ele>
        <time>2022-09-04T07:12:53.000Z</time>
      </trkpt>
      <trkpt lat="48.47155" lon="-2.75873">
        <ele>94.400001525879</ele>
        <time>2022-09-04T07:12:54.000Z</time>
      </trkpt>
      <trkpt lat="48.4716" lon="-2.75872">
        <ele>94.599998474121</ele>
        <time>2022-09-04T07:12:55.000Z</time>
      </trkpt>
      <trkpt lat="48.47165" lon="-2.7587">
        <ele>94.599998474121</ele>
        <time>2022-09-04T07:12:56.000Z</time>
      </trkpt>
      <trkpt lat="48.4717" lon="-2.75868">
        <ele>94.800003051758</ele>
        <time>2022-09-04T07:12:57.000Z</time>
      </trkpt>
      <trkpt lat="48.47175" lon="-2.75866">
        <ele>94.800003051758</ele>
        <time>2022-09-04T07:12:58.000Z</time>
      </trkpt>
      <trkpt lat="48.4718" lon="-2.75863">
        <ele>95.199996948242</ele>
        <time>2022-09-04T07:12:59.000Z</time>
      </trkpt>
      <trkpt lat="48.47184" lon="-2.7586">
        <ele>95.199996948242</ele>
        <time>2022-09-04T07:13:00.000Z</time>
      </trkpt>
      <trkpt lat="48.47189" lon="-2.75857">
        <ele>95.400001525879</ele>
        <time>2022-09-04T07:13:01.000Z</time>
      </trkpt>
      <trkpt lat="48.47193" lon="-2.75855">
        <ele>95.400001525879</ele>
        <time>2022-09-04T07:13:02.000Z</time>
      </trkpt>
      <trkpt lat="48.47198" lon="-2.75853">
        <ele>95.400001525879</ele>
        <time>2022-09-04T07:13:03.000Z</time>
      </trkpt>
      <trkpt lat="48.47202" lon="-2.75851">
        <ele>95.599998474121</ele>
        <time>2022-09-04T07:13:04.000Z</time>
      </trkpt>
      <trkpt lat="48.47207" lon="-2.75849">
        <ele>95.599998474121</ele>
        <time>2022-09-04T07:13:05.000Z</time>
      </trkpt>
      <trkpt lat="48.47211" lon="-2.75846">
        <ele>95.800003051758</ele>
        <time>2022-09-04T07:13:06.000Z</time>
      </trkpt>
      <trkpt lat="48.47214" lon="-2.7584">
        <ele>96</ele>
        <time>2022-09-04T07:13:07.000Z</time>
      </trkpt>
      <trkpt lat="48.47216" lon="-2.75833">
        <ele>96</ele>
        <time>2022-09-04T07:13:08.000Z</time>
      </trkpt>
      <trkpt lat="48.47219" lon="-2.75827">
        <ele>96.199996948242</ele>
        <time>2022-09-04T07:13:09.000Z</time>
      </trkpt>
      <trkpt lat="48.47221" lon="-2.7582">
        <ele>96.199996948242</ele>
        <time>2022-09-04T07:13:10.000Z</time>
      </trkpt>
      <trkpt lat="48.47223" lon="-2.75813">
        <ele>96.400001525879</ele>
        <time>2022-09-04T07:13:11.000Z</time>
      </trkpt>
      <trkpt lat="48.47225" lon="-2.75806">
        <ele>96.400001525879</ele>
        <time>2022-09-04T07:13:12.000Z</time>
      </trkpt>
      <trkpt lat="48.47227" lon="-2.75799">
        <ele>96.599998474121</ele>
        <time>2022-09-04T07:13:13.000Z</time>
      </trkpt>
      <trkpt lat="48.47229" lon="-2.75793">
        <ele>96.800003051758</ele>
        <time>2022-09-04T07:13:14.000Z</time>
      </trkpt>
      <trkpt lat="48.47231" lon="-2.75786">
        <ele>97</ele>
        <time>2022-09-04T07:13:15.000Z</time>
      </trkpt>
      <trkpt lat="48.47233" lon="-2.75779">
        <ele>97</ele>
        <time>2022-09-04T07:13:16.000Z</time>
      </trkpt>
      <trkpt lat="48.47235" lon="-2.75772">
        <ele>97.400001525879</ele>
        <time>2022-09-04T07:13:17.000Z</time>
      </trkpt>
      <trkpt lat="48.47237" lon="-2.75766">
        <ele>97.400001525879</ele>
        <time>2022-09-04T07:13:18.000Z</time>
      </trkpt>
      <trkpt lat="48.47239" lon="-2.75759">
        <ele>97.599998474121</ele>
        <time>2022-09-04T07:13:19.000Z</time>
      </trkpt>
      <trkpt lat="48.47241" lon="-2.75753">
        <ele>97.800003051758</ele>
        <time>2022-09-04T07:13:20.000Z</time>
      </trkpt>
      <trkpt lat="48.47243" lon="-2.75747">
        <ele>98</ele>
        <time>2022-09-04T07:13:21.000Z</time>
      </trkpt>
      <trkpt lat="48.47244" lon="-2.7574">
        <ele>98</ele>
        <time>2022-09-04T07:13:22.000Z</time>
      </trkpt>
      <trkpt lat="48.47246" lon="-2.75734">
        <ele>98.199996948242</ele>
        <time>2022-09-04T07:13:23.000Z</time>
      </trkpt>
      <trkpt lat="48.47248" lon="-2.75728">
        <ele>98.199996948242</ele>
        <time>2022-09-04T07:13:24.000Z</time>
      </trkpt>
      <trkpt lat="48.4725" lon="-2.75721">
        <ele>98.400001525879</ele>
        <time>2022-09-04T07:13:25.000Z</time>
      </trkpt>
      <trkpt lat="48.47252" lon="-2.75715">
        <ele>98.599998474121</ele>
        <time>2022-09-04T07:13:26.000Z</time>
      </trkpt>
      <trkpt lat="48.47254" lon="-2.75709">
        <ele>98.800003051758</ele>
        <time>2022-09-04T07:13:27.000Z</time>
      </trkpt>
      <trkpt lat="48.47256" lon="-2.75703">
        <ele>98.800003051758</ele>
        <time>2022-09-04T07:13:28.000Z</time>
      </trkpt>
      <trkpt lat="48.47258" lon="-2.75697">
        <ele>99</ele>
        <time>2022-09-04T07:13:29.000Z</time>
      </trkpt>
      <trkpt lat="48.4726" lon="-2.75691">
        <ele>99</ele>
        <time>2022-09-04T07:13:30.000Z</time>
      </trkpt>
      <trkpt lat="48.47261" lon="-2.75684">
        <ele>99.199996948242</ele>
        <time>2022-09-04T07:13:31.000Z</time>
      </trkpt>
      <trkpt lat="48.47263" lon="-2.75678">
        <ele>99.599998474121</ele>
        <time>2022-09-04T07:13:32.000Z</time>
      </trkpt>
      <trkpt lat="48.47265" lon="-2.75672">
        <ele>99.800003051758</ele>
        <time>2022-09-04T07:13:33.000Z</time>
      </trkpt>
      <trkpt lat="48.47267" lon="-2.75666">
        <ele>100</ele>
        <time>2022-09-04T07:13:34.000Z</time>
      </trkpt>
      <trkpt lat="48.47269" lon="-2.7566">
        <ele>100.19999694824</ele>
        <time>2022-09-04T07:13:35.000Z</time>
      </trkpt>
      <trkpt lat="48.47271" lon="-2.75653">
        <ele>100.59999847412</ele>
        <time>2022-09-04T07:13:36.000Z</time>
      </trkpt>
      <trkpt lat="48.47273" lon="-2.75647">
        <ele>101</ele>
        <time>2022-09-04T07:13:37.000Z</time>
      </trkpt>
      <trkpt lat="48.47275" lon="-2.75641">
        <ele>101.19999694824</ele>
        <time>2022-09-04T07:13:38.000Z</time>
      </trkpt>
      <trkpt lat="48.47277" lon="-2.75635">
        <ele>101.59999847412</ele>
        <time>2022-09-04T07:13:39.000Z</time>
      </trkpt>
      <trkpt lat="48.47279" lon="-2.75629">
        <ele>101.80000305176</ele>
        <time>2022-09-04T07:13:40.000Z</time>
      </trkpt>
      <trkpt lat="48.47281" lon="-2.75623">
        <ele>102.19999694824</ele>
        <time>2022-09-04T07:13:41.000Z</time>
      </trkpt>
      <trkpt lat="48.47283" lon="-2.75617">
        <ele>102.40000152588</ele>
        <time>2022-09-04T07:13:42.000Z</time>
      </trkpt>
      <trkpt lat="48.47285" lon="-2.75611">
        <ele>102.59999847412</ele>
        <time>2022-09-04T07:13:43.000Z</time>
      </trkpt>
      <trkpt lat="48.47287" lon="-2.75605">
        <ele>102.80000305176</ele>
        <time>2022-09-04T07:13:44.000Z</time>
      </trkpt>
      <trkpt lat="48.47289" lon="-2.75599">
        <ele>103.19999694824</ele>
        <time>2022-09-04T07:13:45.000Z</time>
      </trkpt>
      <trkpt lat="48.47291" lon="-2.75593">
        <ele>103.40000152588</ele>
        <time>2022-09-04T07:13:46.000Z</time>
      </trkpt>
      <trkpt lat="48.47293" lon="-2.75587">
        <ele>103.59999847412</ele>
        <time>2022-09-04T07:13:47.000Z</time>
      </trkpt>
      <trkpt lat="48.47295" lon="-2.75581">
        <ele>104</ele>
        <time>2022-09-04T07:13:48.000Z</time>
      </trkpt>
      <trkpt lat="48.47297" lon="-2.75575">
        <ele>104</ele>
        <time>2022-09-04T07:13:49.000Z</time>
      </trkpt>
      <trkpt lat="48.47299" lon="-2.75569">
        <ele>104.19999694824</ele>
        <time>2022-09-04T07:13:50.000Z</time>
      </trkpt>
      <trkpt lat="48.47302" lon="-2.75563">
        <ele>104.59999847412</ele>
        <time>2022-09-04T07:13:51.000Z</time>
      </trkpt>
      <trkpt lat="48.47305" lon="-2.75557">
        <ele>105</ele>
        <time>2022-09-04T07:13:52.000Z</time>
      </trkpt>
      <trkpt lat="48.47307" lon="-2.7555">
        <ele>105</ele>
        <time>2022-09-04T07:13:53.000Z</time>
      </trkpt>
      <trkpt lat="48.47309" lon="-2.75544">
        <ele>105.19999694824</ele>
        <time>2022-09-04T07:13:54.000Z</time>
      </trkpt>
      <trkpt lat="48.47312" lon="-2.75538">
        <ele>105.40000152588</ele>
        <time>2022-09-04T07:13:55.000Z</time>
      </trkpt>
      <trkpt lat="48.47315" lon="-2.75532">
        <ele>105.59999847412</ele>
        <time>2022-09-04T07:13:56.000Z</time>
      </trkpt>
      <trkpt lat="48.47317" lon="-2.75525">
        <ele>105.59999847412</ele>
        <time>2022-09-04T07:13:57.000Z</time>
      </trkpt>
      <trkpt lat="48.4732" lon="-2.75519">
        <ele>106</ele>
        <time>2022-09-04T07:13:58.000Z</time>
      </trkpt>
      <trkpt lat="48.47323" lon="-2.75513">
        <ele>106.19999694824</ele>
        <time>2022-09-04T07:13:59.000Z</time>
      </trkpt>
      <trkpt lat="48.47325" lon="-2.75507">
        <ele>106.19999694824</ele>
        <time>2022-09-04T07:14:00.000Z</time>
      </trkpt>
      <trkpt lat="48.47328" lon="-2.755">
        <ele>106.59999847412</ele>
        <time>2022-09-04T07:14:01.000Z</time>
      </trkpt>
      <trkpt lat="48.47331" lon="-2.75493">
        <ele>106.59999847412</ele>
        <time>2022-09-04T07:14:02.000Z</time>
      </trkpt>
      <trkpt lat="48.47333" lon="-2.75487">
        <ele>107</ele>
        <time>2022-09-04T07:14:03.000Z</time>
      </trkpt>
      <trkpt lat="48.47336" lon="-2.7548">
        <ele>107</ele>
        <time>2022-09-04T07:14:04.000Z</time>
      </trkpt>
      <trkpt lat="48.47339" lon="-2.75473">
        <ele>107.40000152588</ele>
        <time>2022-09-04T07:14:05.000Z</time>
      </trkpt>
      <trkpt lat="48.47342" lon="-2.75466">
        <ele>107.40000152588</ele>
        <time>2022-09-04T07:14:06.000Z</time>
      </trkpt>
      <trkpt lat="48.47345" lon="-2.75459">
        <ele>107.59999847412</ele>
        <time>2022-09-04T07:14:07.000Z</time>
      </trkpt>
      <trkpt lat="48.47348" lon="-2.75452">
        <ele>107.80000305176</ele>
        <time>2022-09-04T07:14:08.000Z</time>
      </trkpt>
      <trkpt lat="48.47351" lon="-2.75445">
        <ele>108</ele>
        <time>2022-09-04T07:14:09.000Z</time>
      </trkpt>
      <trkpt lat="48.47354" lon="-2.75438">
        <ele>108.19999694824</ele>
        <time>2022-09-04T07:14:10.000Z</time>
      </trkpt>
      <trkpt lat="48.47356" lon="-2.75431">
        <ele>108.19999694824</ele>
        <time>2022-09-04T07:14:11.000Z</time>
      </trkpt>
      <trkpt lat="48.47359" lon="-2.75425">
        <ele>108.40000152588</ele>
        <time>2022-09-04T07:14:12.000Z</time>
      </trkpt>
      <trkpt lat="48.47362" lon="-2.75419">
        <ele>108.59999847412</ele>
        <time>2022-09-04T07:14:13.000Z</time>
      </trkpt>
      <trkpt lat="48.47365" lon="-2.75413">
        <ele>108.80000305176</ele>
        <time>2022-09-04T07:14:14.000Z</time>
      </trkpt>
      <trkpt lat="48.47367" lon="-2.75408">
        <ele>108.80000305176</ele>
        <time>2022-09-04T07:14:15.000Z</time>
      </trkpt>
      <trkpt lat="48.4737" lon="-2.75404">
        <ele>109</ele>
        <time>2022-09-04T07:14:16.000Z</time>
      </trkpt>
      <trkpt lat="48.47372" lon="-2.75398">
        <ele>109</ele>
        <time>2022-09-04T07:14:17.000Z</time>
      </trkpt>
      <trkpt lat="48.47374" lon="-2.75393">
        <ele>109.19999694824</ele>
        <time>2022-09-04T07:14:18.000Z</time>
      </trkpt>
      <trkpt lat="48.47377" lon="-2.75387">
        <ele>109.19999694824</ele>
        <time>2022-09-04T07:14:19.000Z</time>
      </trkpt>
      <trkpt lat="48.47379" lon="-2.75381">
        <ele>109.59999847412</ele>
        <time>2022-09-04T07:14:20.000Z</time>
      </trkpt>
      <trkpt lat="48.47381" lon="-2.75375">
        <ele>109.80000305176</ele>
        <time>2022-09-04T07:14:21.000Z</time>
      </trkpt>
      <trkpt lat="48.47384" lon="-2.7537">
        <ele>110</ele>
        <time>2022-09-04T07:14:22.000Z</time>
      </trkpt>
      <trkpt lat="48.47387" lon="-2.75366">
        <ele>110.19999694824</ele>
        <time>2022-09-04T07:14:23.000Z</time>
      </trkpt>
      <trkpt lat="48.47391" lon="-2.75365">
        <ele>110.19999694824</ele>
        <time>2022-09-04T07:14:24.000Z</time>
      </trkpt>
      <trkpt lat="48.47395" lon="-2.75368">
        <ele>110.40000152588</ele>
        <time>2022-09-04T07:14:25.000Z</time>
      </trkpt>
      <trkpt lat="48.47398" lon="-2.75373">
        <ele>110.40000152588</ele>
        <time>2022-09-04T07:14:26.000Z</time>
      </trkpt>
      <trkpt lat="48.47402" lon="-2.7538">
        <ele>110.40000152588</ele>
        <time>2022-09-04T07:14:27.000Z</time>
      </trkpt>
      <trkpt lat="48.47405" lon="-2.75389">
        <ele>110.59999847412</ele>
        <time>2022-09-04T07:14:28.000Z</time>
      </trkpt>
      <trkpt lat="48.47408" lon="-2.75399">
        <ele>110.59999847412</ele>
        <time>2022-09-04T07:14:29.000Z</time>
      </trkpt>
      <trkpt lat="48.47411" lon="-2.75409">
        <ele>110.59999847412</ele>
        <time>2022-09-04T07:14:30.000Z</time>
      </trkpt>
      <trkpt lat="48.47414" lon="-2.75419">
        <ele>110.59999847412</ele>
        <time>2022-09-04T07:14:31.000Z</time>
      </trkpt>
      <trkpt lat="48.47418" lon="-2.75428">
        <ele>110.40000152588</ele>
        <time>2022-09-04T07:14:32.000Z</time>
      </trkpt>
      <trkpt lat="48.47422" lon="-2.75437">
        <ele>110.19999694824</ele>
        <time>2022-09-04T07:14:33.000Z</time>
      </trkpt>
      <trkpt lat="48.47427" lon="-2.75444">
        <ele>109.40000152588</ele>
        <time>2022-09-04T07:14:34.000Z</time>
      </trkpt>
      <trkpt lat="48.47431" lon="-2.75451">
        <ele>109</ele>
        <time>2022-09-04T07:14:35.000Z</time>
      </trkpt>
      <trkpt lat="48.47435" lon="-2.75457">
        <ele>108.19999694824</ele>
        <time>2022-09-04T07:14:36.000Z</time>
      </trkpt>
      <trkpt lat="48.47439" lon="-2.75464">
        <ele>108</ele>
        <time>2022-09-04T07:14:37.000Z</time>
      </trkpt>
      <trkpt lat="48.47443" lon="-2.7547">
        <ele>107.80000305176</ele>
        <time>2022-09-04T07:14:38.000Z</time>
      </trkpt>
      <trkpt lat="48.47446" lon="-2.75478">
        <ele>107.59999847412</ele>
        <time>2022-09-04T07:14:39.000Z</time>
      </trkpt>
      <trkpt lat="48.47448" lon="-2.75486">
        <ele>107.40000152588</ele>
        <time>2022-09-04T07:14:40.000Z</time>
      </trkpt>
      <trkpt lat="48.47449" lon="-2.75495">
        <ele>106.59999847412</ele>
        <time>2022-09-04T07:14:41.000Z</time>
      </trkpt>
      <trkpt lat="48.4745" lon="-2.75503">
        <ele>106.40000152588</ele>
        <time>2022-09-04T07:14:42.000Z</time>
      </trkpt>
      <trkpt lat="48.47451" lon="-2.7551">
        <ele>106</ele>
        <time>2022-09-04T07:14:43.000Z</time>
      </trkpt>
      <trkpt lat="48.47453" lon="-2.75517">
        <ele>105.80000305176</ele>
        <time>2022-09-04T07:14:44.000Z</time>
      </trkpt>
      <trkpt lat="48.47454" lon="-2.75523">
        <ele>105.59999847412</ele>
        <time>2022-09-04T07:14:45.000Z</time>
      </trkpt>
      <trkpt lat="48.47457" lon="-2.75531">
        <ele>105.59999847412</ele>
        <time>2022-09-04T07:14:46.000Z</time>
      </trkpt>
      <trkpt lat="48.4746" lon="-2.75537">
        <ele>105.40000152588</ele>
        <time>2022-09-04T07:14:47.000Z</time>
      </trkpt>
      <trkpt lat="48.47464" lon="-2.75541">
        <ele>105.40000152588</ele>
        <time>2022-09-04T07:14:48.000Z</time>
      </trkpt>
      <trkpt lat="48.47468" lon="-2.75545">
        <ele>105.40000152588</ele>
        <time>2022-09-04T07:14:49.000Z</time>
      </trkpt>
      <trkpt lat="48.47472" lon="-2.75549">
        <ele>105.40000152588</ele>
        <time>2022-09-04T07:14:50.000Z</time>
      </trkpt>
      <trkpt lat="48.47477" lon="-2.75553">
        <ele>105.40000152588</ele>
        <time>2022-09-04T07:14:51.000Z</time>
      </trkpt>
      <trkpt lat="48.47481" lon="-2.75556">
        <ele>105.19999694824</ele>
        <time>2022-09-04T07:14:52.000Z</time>
      </trkpt>
      <trkpt lat="48.47485" lon="-2.75558">
        <ele>105</ele>
        <time>2022-09-04T07:14:53.000Z</time>
      </trkpt>
      <trkpt lat="48.4749" lon="-2.7556">
        <ele>105</ele>
        <time>2022-09-04T07:14:54.000Z</time>
      </trkpt>
      <trkpt lat="48.47495" lon="-2.75562">
        <ele>105</ele>
        <time>2022-09-04T07:14:55.000Z</time>
      </trkpt>
      <trkpt lat="48.47499" lon="-2.75564">
        <ele>105.19999694824</ele>
        <time>2022-09-04T07:14:56.000Z</time>
      </trkpt>
      <trkpt lat="48.47503" lon="-2.75566">
        <ele>105.19999694824</ele>
        <time>2022-09-04T07:14:57.000Z</time>
      </trkpt>
      <trkpt lat="48.47506" lon="-2.75566">
        <ele>105.40000152588</ele>
        <time>2022-09-04T07:14:58.000Z</time>
      </trkpt>
      <trkpt lat="48.47511" lon="-2.75568">
        <ele>105.59999847412</ele>
        <time>2022-09-04T07:14:59.000Z</time>
      </trkpt>
      <trkpt lat="48.47514" lon="-2.75568">
        <ele>105.80000305176</ele>
        <time>2022-09-04T07:15:00.000Z</time>
      </trkpt>
      <trkpt lat="48.47518" lon="-2.7557">
        <ele>105.80000305176</ele>
        <time>2022-09-04T07:15:01.000Z</time>
      </trkpt>
      <trkpt lat="48.47522" lon="-2.75571">
        <ele>105.80000305176</ele>
        <time>2022-09-04T07:15:02.000Z</time>
      </trkpt>
      <trkpt lat="48.47526" lon="-2.75573">
        <ele>106</ele>
        <time>2022-09-04T07:15:03.000Z</time>
      </trkpt>
      <trkpt lat="48.47529" lon="-2.75575">
        <ele>106.19999694824</ele>
        <time>2022-09-04T07:15:04.000Z</time>
      </trkpt>
      <trkpt lat="48.47535" lon="-2.75579">
        <ele>106.80000305176</ele>
        <time>2022-09-04T07:15:06.000Z</time>
      </trkpt>
      <trkpt lat="48.47538" lon="-2.75582">
        <ele>107.40000152588</ele>
        <time>2022-09-04T07:15:07.000Z</time>
      </trkpt>
      <trkpt lat="48.4754" lon="-2.75586">
        <ele>107.59999847412</ele>
        <time>2022-09-04T07:15:08.000Z</time>
      </trkpt>
      <trkpt lat="48.47541" lon="-2.7559">
        <ele>108</ele>
        <time>2022-09-04T07:15:09.000Z</time>
      </trkpt>
      <trkpt lat="48.4754" lon="-2.75595">
        <ele>108.40000152588</ele>
        <time>2022-09-04T07:15:10.000Z</time>
      </trkpt>
      <trkpt lat="48.47537" lon="-2.75606">
        <ele>109</ele>
        <time>2022-09-04T07:15:12.000Z</time>
      </trkpt>
      <trkpt lat="48.47535" lon="-2.75612">
        <ele>109.59999847412</ele>
        <time>2022-09-04T07:15:13.000Z</time>
      </trkpt>
      <trkpt lat="48.47532" lon="-2.75619">
        <ele>109.80000305176</ele>
        <time>2022-09-04T07:15:14.000Z</time>
      </trkpt>
      <trkpt lat="48.47529" lon="-2.75625">
        <ele>110</ele>
        <time>2022-09-04T07:15:15.000Z</time>
      </trkpt>
      <trkpt lat="48.47527" lon="-2.75631">
        <ele>110.19999694824</ele>
        <time>2022-09-04T07:15:16.000Z</time>
      </trkpt>
      <trkpt lat="48.47524" lon="-2.75637">
        <ele>110.19999694824</ele>
        <time>2022-09-04T07:15:17.000Z</time>
      </trkpt>
      <trkpt lat="48.47522" lon="-2.75644">
        <ele>110.19999694824</ele>
        <time>2022-09-04T07:15:18.000Z</time>
      </trkpt>
      <trkpt lat="48.47519" lon="-2.75651">
        <ele>110.19999694824</ele>
        <time>2022-09-04T07:15:19.000Z</time>
      </trkpt>
      <trkpt lat="48.47517" lon="-2.75659">
        <ele>110.19999694824</ele>
        <time>2022-09-04T07:15:20.000Z</time>
      </trkpt>
      <trkpt lat="48.47514" lon="-2.75666">
        <ele>110.19999694824</ele>
        <time>2022-09-04T07:15:21.000Z</time>
      </trkpt>
      <trkpt lat="48.47511" lon="-2.75674">
        <ele>110.19999694824</ele>
        <time>2022-09-04T07:15:22.000Z</time>
      </trkpt>
      <trkpt lat="48.47508" lon="-2.75681">
        <ele>110.19999694824</ele>
        <time>2022-09-04T07:15:23.000Z</time>
      </trkpt>
      <trkpt lat="48.47504" lon="-2.75691">
        <ele>110</ele>
        <time>2022-09-04T07:15:24.000Z</time>
      </trkpt>
      <trkpt lat="48.47502" lon="-2.75697">
        <ele>109.80000305176</ele>
        <time>2022-09-04T07:15:25.000Z</time>
      </trkpt>
      <trkpt lat="48.47499" lon="-2.75705">
        <ele>109.80000305176</ele>
        <time>2022-09-04T07:15:26.000Z</time>
      </trkpt>
      <trkpt lat="48.47496" lon="-2.75713">
        <ele>109.59999847412</ele>
        <time>2022-09-04T07:15:27.000Z</time>
      </trkpt>
      <trkpt lat="48.47493" lon="-2.75722">
        <ele>109.40000152588</ele>
        <time>2022-09-04T07:15:28.000Z</time>
      </trkpt>
      <trkpt lat="48.4749" lon="-2.75733">
        <ele>109.19999694824</ele>
        <time>2022-09-04T07:15:29.000Z</time>
      </trkpt>
      <trkpt lat="48.47488" lon="-2.75741">
        <ele>109</ele>
        <time>2022-09-04T07:15:30.000Z</time>
      </trkpt>
      <trkpt lat="48.47487" lon="-2.7575">
        <ele>108.80000305176</ele>
        <time>2022-09-04T07:15:31.000Z</time>
      </trkpt>
      <trkpt lat="48.47485" lon="-2.7576">
        <ele>108.59999847412</ele>
        <time>2022-09-04T07:15:32.000Z</time>
      </trkpt>
      <trkpt lat="48.47484" lon="-2.7577">
        <ele>108.59999847412</ele>
        <time>2022-09-04T07:15:33.000Z</time>
      </trkpt>
      <trkpt lat="48.47484" lon="-2.7578">
        <ele>108.59999847412</ele>
        <time>2022-09-04T07:15:34.000Z</time>
      </trkpt>
      <trkpt lat="48.47484" lon="-2.7579">
        <ele>108.19999694824</ele>
        <time>2022-09-04T07:15:35.000Z</time>
      </trkpt>
      <trkpt lat="48.47484" lon="-2.758">
        <ele>108</ele>
        <time>2022-09-04T07:15:36.000Z</time>
      </trkpt>
      <trkpt lat="48.47485" lon="-2.75809">
        <ele>108</ele>
        <time>2022-09-04T07:15:37.000Z</time>
      </trkpt>
      <trkpt lat="48.47486" lon="-2.75819">
        <ele>107.80000305176</ele>
        <time>2022-09-04T07:15:38.000Z</time>
      </trkpt>
      <trkpt lat="48.47487" lon="-2.75828">
        <ele>107.80000305176</ele>
        <time>2022-09-04T07:15:39.000Z</time>
      </trkpt>
      <trkpt lat="48.47487" lon="-2.75837">
        <ele>107.80000305176</ele>
        <time>2022-09-04T07:15:40.000Z</time>
      </trkpt>
      <trkpt lat="48.47488" lon="-2.75855">
        <ele>107.59999847412</ele>
        <time>2022-09-04T07:15:42.000Z</time>
      </trkpt>
      <trkpt lat="48.47487" lon="-2.75874">
        <ele>107.40000152588</ele>
        <time>2022-09-04T07:15:44.000Z</time>
      </trkpt>
      <trkpt lat="48.47482" lon="-2.75892">
        <ele>107.19999694824</ele>
        <time>2022-09-04T07:15:46.000Z</time>
      </trkpt>
      <trkpt lat="48.47477" lon="-2.759">
        <ele>107.19999694824</ele>
        <time>2022-09-04T07:15:47.000Z</time>
      </trkpt>
      <trkpt lat="48.47472" lon="-2.75907">
        <ele>107.19999694824</ele>
        <time>2022-09-04T07:15:48.000Z</time>
      </trkpt>
      <trkpt lat="48.47467" lon="-2.75913">
        <ele>106.80000305176</ele>
        <time>2022-09-04T07:15:49.000Z</time>
      </trkpt>
      <trkpt lat="48.47463" lon="-2.7592">
        <ele>106.59999847412</ele>
        <time>2022-09-04T07:15:50.000Z</time>
      </trkpt>
      <trkpt lat="48.47458" lon="-2.75927">
        <ele>106.40000152588</ele>
        <time>2022-09-04T07:15:51.000Z</time>
      </trkpt>
      <trkpt lat="48.47454" lon="-2.75934">
        <ele>106.19999694824</ele>
        <time>2022-09-04T07:15:52.000Z</time>
      </trkpt>
      <trkpt lat="48.4745" lon="-2.75941">
        <ele>106.19999694824</ele>
        <time>2022-09-04T07:15:53.000Z</time>
      </trkpt>
      <trkpt lat="48.47446" lon="-2.75947">
        <ele>106.19999694824</ele>
        <time>2022-09-04T07:15:54.000Z</time>
      </trkpt>
      <trkpt lat="48.47443" lon="-2.75955">
        <ele>106</ele>
        <time>2022-09-04T07:15:55.000Z</time>
      </trkpt>
      <trkpt lat="48.4744" lon="-2.75963">
        <ele>106</ele>
        <time>2022-09-04T07:15:56.000Z</time>
      </trkpt>
      <trkpt lat="48.47438" lon="-2.75972">
        <ele>106</ele>
        <time>2022-09-04T07:15:57.000Z</time>
      </trkpt>
      <trkpt lat="48.47437" lon="-2.7598">
        <ele>106.19999694824</ele>
        <time>2022-09-04T07:15:58.000Z</time>
      </trkpt>
      <trkpt lat="48.47435" lon="-2.75988">
        <ele>106.19999694824</ele>
        <time>2022-09-04T07:15:59.000Z</time>
      </trkpt>
      <trkpt lat="48.47429" lon="-2.76003">
        <ele>105.80000305176</ele>
        <time>2022-09-04T07:16:01.000Z</time>
      </trkpt>
      <trkpt lat="48.47424" lon="-2.7601">
        <ele>105.40000152588</ele>
        <time>2022-09-04T07:16:02.000Z</time>
      </trkpt>
      <trkpt lat="48.47419" lon="-2.76017">
        <ele>105.19999694824</ele>
        <time>2022-09-04T07:16:03.000Z</time>
      </trkpt>
      <trkpt lat="48.47391" lon="-2.76051">
        <ele>104.19999694824</ele>
        <time>2022-09-04T07:16:08.000Z</time>
      </trkpt>
      <trkpt lat="48.47374" lon="-2.76069">
        <ele>103.40000152588</ele>
        <time>2022-09-04T07:16:11.000Z</time>
      </trkpt>
      <trkpt lat="48.47353" lon="-2.76082">
        <ele>103</ele>
        <time>2022-09-04T07:16:14.000Z</time>
      </trkpt>
      <trkpt lat="48.47339" lon="-2.76088">
        <ele>102.80000305176</ele>
        <time>2022-09-04T07:16:16.000Z</time>
      </trkpt>
      <trkpt lat="48.47331" lon="-2.7609">
        <ele>102.59999847412</ele>
        <time>2022-09-04T07:16:17.000Z</time>
      </trkpt>
      <trkpt lat="48.47324" lon="-2.76091">
        <ele>102.59999847412</ele>
        <time>2022-09-04T07:16:18.000Z</time>
      </trkpt>
      <trkpt lat="48.47317" lon="-2.76091">
        <ele>102.19999694824</ele>
        <time>2022-09-04T07:16:19.000Z</time>
      </trkpt>
      <trkpt lat="48.4731" lon="-2.76091">
        <ele>102</ele>
        <time>2022-09-04T07:16:20.000Z</time>
      </trkpt>
      <trkpt lat="48.47303" lon="-2.76091">
        <ele>101.80000305176</ele>
        <time>2022-09-04T07:16:21.000Z</time>
      </trkpt>
      <trkpt lat="48.47298" lon="-2.76094">
        <ele>101.59999847412</ele>
        <time>2022-09-04T07:16:22.000Z</time>
      </trkpt>
      <trkpt lat="48.47293" lon="-2.76099">
        <ele>101.19999694824</ele>
        <time>2022-09-04T07:16:23.000Z</time>
      </trkpt>
      <trkpt lat="48.47291" lon="-2.76107">
        <ele>100.80000305176</ele>
        <time>2022-09-04T07:16:24.000Z</time>
      </trkpt>
      <trkpt lat="48.47291" lon="-2.76116">
        <ele>100.59999847412</ele>
        <time>2022-09-04T07:16:25.000Z</time>
      </trkpt>
      <trkpt lat="48.47293" lon="-2.76136">
        <ele>100.40000152588</ele>
        <time>2022-09-04T07:16:27.000Z</time>
      </trkpt>
      <trkpt lat="48.47295" lon="-2.76156">
        <ele>100.19999694824</ele>
        <time>2022-09-04T07:16:29.000Z</time>
      </trkpt>
      <trkpt lat="48.47297" lon="-2.76167">
        <ele>99.599998474121</ele>
        <time>2022-09-04T07:16:30.000Z</time>
      </trkpt>
      <trkpt lat="48.47299" lon="-2.76177">
        <ele>99.400001525879</ele>
        <time>2022-09-04T07:16:31.000Z</time>
      </trkpt>
      <trkpt lat="48.47302" lon="-2.76186">
        <ele>99</ele>
        <time>2022-09-04T07:16:32.000Z</time>
      </trkpt>
      <trkpt lat="48.47305" lon="-2.76194">
        <ele>98.800003051758</ele>
        <time>2022-09-04T07:16:33.000Z</time>
      </trkpt>
      <trkpt lat="48.47308" lon="-2.76201">
        <ele>98.800003051758</ele>
        <time>2022-09-04T07:16:34.000Z</time>
      </trkpt>
      <trkpt lat="48.47312" lon="-2.76208">
        <ele>98.599998474121</ele>
        <time>2022-09-04T07:16:35.000Z</time>
      </trkpt>
      <trkpt lat="48.47316" lon="-2.76214">
        <ele>98.599998474121</ele>
        <time>2022-09-04T07:16:36.000Z</time>
      </trkpt>
      <trkpt lat="48.47319" lon="-2.76221">
        <ele>98.599998474121</ele>
        <time>2022-09-04T07:16:37.000Z</time>
      </trkpt>
      <trkpt lat="48.47323" lon="-2.76227">
        <ele>98.599998474121</ele>
        <time>2022-09-04T07:16:38.000Z</time>
      </trkpt>
      <trkpt lat="48.47326" lon="-2.76234">
        <ele>98.800003051758</ele>
        <time>2022-09-04T07:16:39.000Z</time>
      </trkpt>
      <trkpt lat="48.47329" lon="-2.7624">
        <ele>98.800003051758</ele>
        <time>2022-09-04T07:16:40.000Z</time>
      </trkpt>
      <trkpt lat="48.47331" lon="-2.76245">
        <ele>99</ele>
        <time>2022-09-04T07:16:41.000Z</time>
      </trkpt>
      <trkpt lat="48.47334" lon="-2.7625">
        <ele>99.199996948242</ele>
        <time>2022-09-04T07:16:42.000Z</time>
      </trkpt>
      <trkpt lat="48.47337" lon="-2.76255">
        <ele>99.800003051758</ele>
        <time>2022-09-04T07:16:43.000Z</time>
      </trkpt>
      <trkpt lat="48.4734" lon="-2.76259">
        <ele>100.19999694824</ele>
        <time>2022-09-04T07:16:44.000Z</time>
      </trkpt>
      <trkpt lat="48.47347" lon="-2.76268">
        <ele>101</ele>
        <time>2022-09-04T07:16:46.000Z</time>
      </trkpt>
      <trkpt lat="48.4735" lon="-2.76273">
        <ele>101.19999694824</ele>
        <time>2022-09-04T07:16:47.000Z</time>
      </trkpt>
      <trkpt lat="48.47354" lon="-2.76277">
        <ele>101.59999847412</ele>
        <time>2022-09-04T07:16:48.000Z</time>
      </trkpt>
      <trkpt lat="48.47358" lon="-2.76281">
        <ele>101.59999847412</ele>
        <time>2022-09-04T07:16:49.000Z</time>
      </trkpt>
      <trkpt lat="48.47364" lon="-2.7629">
        <ele>101.80000305176</ele>
        <time>2022-09-04T07:16:51.000Z</time>
      </trkpt>
      <trkpt lat="48.47367" lon="-2.76294">
        <ele>102.19999694824</ele>
        <time>2022-09-04T07:16:52.000Z</time>
      </trkpt>
      <trkpt lat="48.4737" lon="-2.76299">
        <ele>102.40000152588</ele>
        <time>2022-09-04T07:16:53.000Z</time>
      </trkpt>
      <trkpt lat="48.47372" lon="-2.76303">
        <ele>102.59999847412</ele>
        <time>2022-09-04T07:16:54.000Z</time>
      </trkpt>
      <trkpt lat="48.47375" lon="-2.76308">
        <ele>102.80000305176</ele>
        <time>2022-09-04T07:16:55.000Z</time>
      </trkpt>
      <trkpt lat="48.47377" lon="-2.76313">
        <ele>103</ele>
        <time>2022-09-04T07:16:56.000Z</time>
      </trkpt>
      <trkpt lat="48.47379" lon="-2.76317">
        <ele>103.19999694824</ele>
        <time>2022-09-04T07:16:57.000Z</time>
      </trkpt>
      <trkpt lat="48.47381" lon="-2.76322">
        <ele>103.40000152588</ele>
        <time>2022-09-04T07:16:58.000Z</time>
      </trkpt>
      <trkpt lat="48.47382" lon="-2.76327">
        <ele>103.80000305176</ele>
        <time>2022-09-04T07:16:59.000Z</time>
      </trkpt>
      <trkpt lat="48.47384" lon="-2.76332">
        <ele>103.80000305176</ele>
        <time>2022-09-04T07:17:00.000Z</time>
      </trkpt>
      <trkpt lat="48.47385" lon="-2.76337">
        <ele>104.40000152588</ele>
        <time>2022-09-04T07:17:01.000Z</time>
      </trkpt>
      <trkpt lat="48.47386" lon="-2.76342">
        <ele>104.40000152588</ele>
        <time>2022-09-04T07:17:02.000Z</time>
      </trkpt>
      <trkpt lat="48.47387" lon="-2.76347">
        <ele>105.19999694824</ele>
        <time>2022-09-04T07:17:03.000Z</time>
      </trkpt>
      <trkpt lat="48.47387" lon="-2.76352">
        <ele>105.40000152588</ele>
        <time>2022-09-04T07:17:04.000Z</time>
      </trkpt>
      <trkpt lat="48.47388" lon="-2.76357">
        <ele>106</ele>
        <time>2022-09-04T07:17:05.000Z</time>
      </trkpt>
      <trkpt lat="48.47389" lon="-2.76362">
        <ele>106.40000152588</ele>
        <time>2022-09-04T07:17:06.000Z</time>
      </trkpt>
      <trkpt lat="48.47389" lon="-2.76367">
        <ele>106.59999847412</ele>
        <time>2022-09-04T07:17:07.000Z</time>
      </trkpt>
      <trkpt lat="48.47388" lon="-2.76372">
        <ele>107.19999694824</ele>
        <time>2022-09-04T07:17:08.000Z</time>
      </trkpt>
      <trkpt lat="48.47388" lon="-2.76378">
        <ele>107.19999694824</ele>
        <time>2022-09-04T07:17:09.000Z</time>
      </trkpt>
      <trkpt lat="48.47388" lon="-2.76383">
        <ele>107.59999847412</ele>
        <time>2022-09-04T07:17:10.000Z</time>
      </trkpt>
      <trkpt lat="48.47388" lon="-2.76388">
        <ele>107.80000305176</ele>
        <time>2022-09-04T07:17:11.000Z</time>
      </trkpt>
      <trkpt lat="48.47388" lon="-2.76393">
        <ele>108.19999694824</ele>
        <time>2022-09-04T07:17:12.000Z</time>
      </trkpt>
      <trkpt lat="48.47389" lon="-2.76398">
        <ele>108.19999694824</ele>
        <time>2022-09-04T07:17:13.000Z</time>
      </trkpt>
      <trkpt lat="48.4739" lon="-2.76403">
        <ele>108.40000152588</ele>
        <time>2022-09-04T07:17:14.000Z</time>
      </trkpt>
      <trkpt lat="48.4739" lon="-2.76408">
        <ele>108.59999847412</ele>
        <time>2022-09-04T07:17:15.000Z</time>
      </trkpt>
      <trkpt lat="48.47391" lon="-2.76412">
        <ele>109</ele>
        <time>2022-09-04T07:17:16.000Z</time>
      </trkpt>
      <trkpt lat="48.47392" lon="-2.76417">
        <ele>109.19999694824</ele>
        <time>2022-09-04T07:17:17.000Z</time>
      </trkpt>
      <trkpt lat="48.47392" lon="-2.76422">
        <ele>109.19999694824</ele>
        <time>2022-09-04T07:17:18.000Z</time>
      </trkpt>
      <trkpt lat="48.47392" lon="-2.76428">
        <ele>109.59999847412</ele>
        <time>2022-09-04T07:17:19.000Z</time>
      </trkpt>
      <trkpt lat="48.47391" lon="-2.76433">
        <ele>109.80000305176</ele>
        <time>2022-09-04T07:17:20.000Z</time>
      </trkpt>
      <trkpt lat="48.47391" lon="-2.76439">
        <ele>110.40000152588</ele>
        <time>2022-09-04T07:17:21.000Z</time>
      </trkpt>
      <trkpt lat="48.4739" lon="-2.76446">
        <ele>110.40000152588</ele>
        <time>2022-09-04T07:17:22.000Z</time>
      </trkpt>
      <trkpt lat="48.47389" lon="-2.76452">
        <ele>110.59999847412</ele>
        <time>2022-09-04T07:17:23.000Z</time>
      </trkpt>
      <trkpt lat="48.47388" lon="-2.76459">
        <ele>110.80000305176</ele>
        <time>2022-09-04T07:17:24.000Z</time>
      </trkpt>
      <trkpt lat="48.47387" lon="-2.76466">
        <ele>110.80000305176</ele>
        <time>2022-09-04T07:17:25.000Z</time>
      </trkpt>
      <trkpt lat="48.47386" lon="-2.76475">
        <ele>110.80000305176</ele>
        <time>2022-09-04T07:17:26.000Z</time>
      </trkpt>
      <trkpt lat="48.47386" lon="-2.7648">
        <ele>111</ele>
        <time>2022-09-04T07:17:27.000Z</time>
      </trkpt>
      <trkpt lat="48.47386" lon="-2.76488">
        <ele>111.19999694824</ele>
        <time>2022-09-04T07:17:28.000Z</time>
      </trkpt>
      <trkpt lat="48.47385" lon="-2.76495">
        <ele>111.19999694824</ele>
        <time>2022-09-04T07:17:29.000Z</time>
      </trkpt>
      <trkpt lat="48.47385" lon="-2.76503">
        <ele>111.19999694824</ele>
        <time>2022-09-04T07:17:30.000Z</time>
      </trkpt>
      <trkpt lat="48.47384" lon="-2.76511">
        <ele>111.40000152588</ele>
        <time>2022-09-04T07:17:31.000Z</time>
      </trkpt>
      <trkpt lat="48.47384" lon="-2.76519">
        <ele>111.40000152588</ele>
        <time>2022-09-04T07:17:32.000Z</time>
      </trkpt>
      <trkpt lat="48.47384" lon="-2.76527">
        <ele>111.40000152588</ele>
        <time>2022-09-04T07:17:33.000Z</time>
      </trkpt>
      <trkpt lat="48.47384" lon="-2.76535">
        <ele>111.40000152588</ele>
        <time>2022-09-04T07:17:34.000Z</time>
      </trkpt>
      <trkpt lat="48.47385" lon="-2.76543">
        <ele>111.40000152588</ele>
        <time>2022-09-04T07:17:35.000Z</time>
      </trkpt>
      <trkpt lat="48.47386" lon="-2.76551">
        <ele>111.59999847412</ele>
        <time>2022-09-04T07:17:36.000Z</time>
      </trkpt>
      <trkpt lat="48.47388" lon="-2.76558">
        <ele>111.59999847412</ele>
        <time>2022-09-04T07:17:37.000Z</time>
      </trkpt>
      <trkpt lat="48.47389" lon="-2.76565">
        <ele>111.59999847412</ele>
        <time>2022-09-04T07:17:38.000Z</time>
      </trkpt>
      <trkpt lat="48.4739" lon="-2.76572">
        <ele>111.59999847412</ele>
        <time>2022-09-04T07:17:39.000Z</time>
      </trkpt>
      <trkpt lat="48.47392" lon="-2.7658">
        <ele>111.59999847412</ele>
        <time>2022-09-04T07:17:40.000Z</time>
      </trkpt>
      <trkpt lat="48.47394" lon="-2.76587">
        <ele>111.59999847412</ele>
        <time>2022-09-04T07:17:41.000Z</time>
      </trkpt>
      <trkpt lat="48.47395" lon="-2.76594">
        <ele>111.59999847412</ele>
        <time>2022-09-04T07:17:42.000Z</time>
      </trkpt>
      <trkpt lat="48.47396" lon="-2.76602">
        <ele>111.59999847412</ele>
        <time>2022-09-04T07:17:43.000Z</time>
      </trkpt>
      <trkpt lat="48.47397" lon="-2.7661">
        <ele>111.59999847412</ele>
        <time>2022-09-04T07:17:44.000Z</time>
      </trkpt>
      <trkpt lat="48.47398" lon="-2.76616">
        <ele>111.59999847412</ele>
        <time>2022-09-04T07:17:45.000Z</time>
      </trkpt>
      <trkpt lat="48.47398" lon="-2.76623">
        <ele>111.80000305176</ele>
        <time>2022-09-04T07:17:46.000Z</time>
      </trkpt>
      <trkpt lat="48.47399" lon="-2.7663">
        <ele>112</ele>
        <time>2022-09-04T07:17:47.000Z</time>
      </trkpt>
      <trkpt lat="48.47399" lon="-2.76637">
        <ele>112</ele>
        <time>2022-09-04T07:17:48.000Z</time>
      </trkpt>
      <trkpt lat="48.47399" lon="-2.76653">
        <ele>112.40000152588</ele>
        <time>2022-09-04T07:17:50.000Z</time>
      </trkpt>
      <trkpt lat="48.47399" lon="-2.7666">
        <ele>112.40000152588</ele>
        <time>2022-09-04T07:17:51.000Z</time>
      </trkpt>
      <trkpt lat="48.47398" lon="-2.76668">
        <ele>112.80000305176</ele>
        <time>2022-09-04T07:17:52.000Z</time>
      </trkpt>
      <trkpt lat="48.47396" lon="-2.76674">
        <ele>113</ele>
        <time>2022-09-04T07:17:53.000Z</time>
      </trkpt>
      <trkpt lat="48.47393" lon="-2.76679">
        <ele>113.19999694824</ele>
        <time>2022-09-04T07:17:54.000Z</time>
      </trkpt>
      <trkpt lat="48.47389" lon="-2.76685">
        <ele>113.19999694824</ele>
        <time>2022-09-04T07:17:55.000Z</time>
      </trkpt>
      <trkpt lat="48.47385" lon="-2.76691">
        <ele>113</ele>
        <time>2022-09-04T07:17:56.000Z</time>
      </trkpt>
      <trkpt lat="48.47382" lon="-2.76697">
        <ele>113</ele>
        <time>2022-09-04T07:17:57.000Z</time>
      </trkpt>
      <trkpt lat="48.47371" lon="-2.76718">
        <ele>113</ele>
        <time>2022-09-04T07:18:00.000Z</time>
      </trkpt>
      <trkpt lat="48.47345" lon="-2.76774">
        <ele>112.19999694824</ele>
        <time>2022-09-04T07:18:07.000Z</time>
      </trkpt>
      <trkpt lat="48.47334" lon="-2.76798">
        <ele>111.80000305176</ele>
        <time>2022-09-04T07:18:10.000Z</time>
      </trkpt>
      <trkpt lat="48.4733" lon="-2.76806">
        <ele>111.40000152588</ele>
        <time>2022-09-04T07:18:11.000Z</time>
      </trkpt>
      <trkpt lat="48.47327" lon="-2.76811">
        <ele>111.19999694824</ele>
        <time>2022-09-04T07:18:12.000Z</time>
      </trkpt>
      <trkpt lat="48.47321" lon="-2.76819">
        <ele>111.19999694824</ele>
        <time>2022-09-04T07:18:13.000Z</time>
      </trkpt>
      <trkpt lat="48.47311" lon="-2.7683">
        <ele>110.80000305176</ele>
        <time>2022-09-04T07:18:15.000Z</time>
      </trkpt>
      <trkpt lat="48.47304" lon="-2.76835">
        <ele>110.59999847412</ele>
        <time>2022-09-04T07:18:16.000Z</time>
      </trkpt>
      <trkpt lat="48.47298" lon="-2.76838">
        <ele>110.40000152588</ele>
        <time>2022-09-04T07:18:17.000Z</time>
      </trkpt>
      <trkpt lat="48.47291" lon="-2.7684">
        <ele>110.19999694824</ele>
        <time>2022-09-04T07:18:18.000Z</time>
      </trkpt>
      <trkpt lat="48.47285" lon="-2.76841">
        <ele>110</ele>
        <time>2022-09-04T07:18:19.000Z</time>
      </trkpt>
      <trkpt lat="48.47281" lon="-2.76841">
        <ele>109.59999847412</ele>
        <time>2022-09-04T07:18:20.000Z</time>
      </trkpt>
      <trkpt lat="48.47275" lon="-2.76838">
        <ele>109.40000152588</ele>
        <time>2022-09-04T07:18:21.000Z</time>
      </trkpt>
      <trkpt lat="48.47269" lon="-2.76833">
        <ele>109.19999694824</ele>
        <time>2022-09-04T07:18:22.000Z</time>
      </trkpt>
      <trkpt lat="48.47263" lon="-2.76827">
        <ele>109</ele>
        <time>2022-09-04T07:18:23.000Z</time>
      </trkpt>
      <trkpt lat="48.47258" lon="-2.76823">
        <ele>108.80000305176</ele>
        <time>2022-09-04T07:18:24.000Z</time>
      </trkpt>
      <trkpt lat="48.47244" lon="-2.76811">
        <ele>108.40000152588</ele>
        <time>2022-09-04T07:18:26.000Z</time>
      </trkpt>
      <trkpt lat="48.47237" lon="-2.76804">
        <ele>107.40000152588</ele>
        <time>2022-09-04T07:18:27.000Z</time>
      </trkpt>
      <trkpt lat="48.47232" lon="-2.76799">
        <ele>107.19999694824</ele>
        <time>2022-09-04T07:18:28.000Z</time>
      </trkpt>
      <trkpt lat="48.47226" lon="-2.76793">
        <ele>106.80000305176</ele>
        <time>2022-09-04T07:18:29.000Z</time>
      </trkpt>
      <trkpt lat="48.47213" lon="-2.76784">
        <ele>106.40000152588</ele>
        <time>2022-09-04T07:18:31.000Z</time>
      </trkpt>
      <trkpt lat="48.47207" lon="-2.76781">
        <ele>106.19999694824</ele>
        <time>2022-09-04T07:18:32.000Z</time>
      </trkpt>
      <trkpt lat="48.472" lon="-2.76779">
        <ele>106</ele>
        <time>2022-09-04T07:18:33.000Z</time>
      </trkpt>
      <trkpt lat="48.47194" lon="-2.76779">
        <ele>105.80000305176</ele>
        <time>2022-09-04T07:18:34.000Z</time>
      </trkpt>
      <trkpt lat="48.47189" lon="-2.76781">
        <ele>105.80000305176</ele>
        <time>2022-09-04T07:18:35.000Z</time>
      </trkpt>
      <trkpt lat="48.47185" lon="-2.76786">
        <ele>105.40000152588</ele>
        <time>2022-09-04T07:18:36.000Z</time>
      </trkpt>
      <trkpt lat="48.47182" lon="-2.7679">
        <ele>105.40000152588</ele>
        <time>2022-09-04T07:18:37.000Z</time>
      </trkpt>
      <trkpt lat="48.47179" lon="-2.76796">
        <ele>105.19999694824</ele>
        <time>2022-09-04T07:18:38.000Z</time>
      </trkpt>
      <trkpt lat="48.47178" lon="-2.76805">
        <ele>105</ele>
        <time>2022-09-04T07:18:39.000Z</time>
      </trkpt>
      <trkpt lat="48.47177" lon="-2.76812">
        <ele>104.80000305176</ele>
        <time>2022-09-04T07:18:40.000Z</time>
      </trkpt>
      <trkpt lat="48.47176" lon="-2.76818">
        <ele>104.80000305176</ele>
        <time>2022-09-04T07:18:41.000Z</time>
      </trkpt>
      <trkpt lat="48.47174" lon="-2.76823">
        <ele>104.80000305176</ele>
        <time>2022-09-04T07:18:42.000Z</time>
      </trkpt>
      <trkpt lat="48.47171" lon="-2.76825">
        <ele>104.80000305176</ele>
        <time>2022-09-04T07:18:43.000Z</time>
      </trkpt>
      <trkpt lat="48.47168" lon="-2.76824">
        <ele>104.59999847412</ele>
        <time>2022-09-04T07:18:44.000Z</time>
      </trkpt>
      <trkpt lat="48.47158" lon="-2.76816">
        <ele>104.59999847412</ele>
        <time>2022-09-04T07:18:46.000Z</time>
      </trkpt>
      <trkpt lat="48.47151" lon="-2.76806">
        <ele>104.59999847412</ele>
        <time>2022-09-04T07:18:48.000Z</time>
      </trkpt>
      <trkpt lat="48.47141" lon="-2.76793">
        <ele>104.59999847412</ele>
        <time>2022-09-04T07:18:50.000Z</time>
      </trkpt>
      <trkpt lat="48.47138" lon="-2.76789">
        <ele>104.80000305176</ele>
        <time>2022-09-04T07:18:51.000Z</time>
      </trkpt>
      <trkpt lat="48.47127" lon="-2.76777">
        <ele>104.80000305176</ele>
        <time>2022-09-04T07:18:53.000Z</time>
      </trkpt>
      <trkpt lat="48.47117" lon="-2.76761">
        <ele>105.19999694824</ele>
        <time>2022-09-04T07:18:56.000Z</time>
      </trkpt>
      <trkpt lat="48.47099" lon="-2.76727">
        <ele>105.80000305176</ele>
        <time>2022-09-04T07:19:01.000Z</time>
      </trkpt>
      <trkpt lat="48.47089" lon="-2.76713">
        <ele>105.80000305176</ele>
        <time>2022-09-04T07:19:03.000Z</time>
      </trkpt>
      <trkpt lat="48.47062" lon="-2.76683">
        <ele>105.40000152588</ele>
        <time>2022-09-04T07:19:08.000Z</time>
      </trkpt>
      <trkpt lat="48.47031" lon="-2.76659">
        <ele>104.19999694824</ele>
        <time>2022-09-04T07:19:13.000Z</time>
      </trkpt>
      <trkpt lat="48.47025" lon="-2.76658">
        <ele>104.19999694824</ele>
        <time>2022-09-04T07:19:14.000Z</time>
      </trkpt>
      <trkpt lat="48.47019" lon="-2.7666">
        <ele>103.80000305176</ele>
        <time>2022-09-04T07:19:15.000Z</time>
      </trkpt>
      <trkpt lat="48.47013" lon="-2.76666">
        <ele>103.59999847412</ele>
        <time>2022-09-04T07:19:16.000Z</time>
      </trkpt>
      <trkpt lat="48.47008" lon="-2.76673">
        <ele>103.40000152588</ele>
        <time>2022-09-04T07:19:17.000Z</time>
      </trkpt>
      <trkpt lat="48.47004" lon="-2.76679">
        <ele>103.40000152588</ele>
        <time>2022-09-04T07:19:18.000Z</time>
      </trkpt>
      <trkpt lat="48.47" lon="-2.76684">
        <ele>103.40000152588</ele>
        <time>2022-09-04T07:19:19.000Z</time>
      </trkpt>
      <trkpt lat="48.46994" lon="-2.7669">
        <ele>103.40000152588</ele>
        <time>2022-09-04T07:19:20.000Z</time>
      </trkpt>
      <trkpt lat="48.46988" lon="-2.76694">
        <ele>103.19999694824</ele>
        <time>2022-09-04T07:19:21.000Z</time>
      </trkpt>
      <trkpt lat="48.46982" lon="-2.76697">
        <ele>103.19999694824</ele>
        <time>2022-09-04T07:19:22.000Z</time>
      </trkpt>
      <trkpt lat="48.46976" lon="-2.76699">
        <ele>103.19999694824</ele>
        <time>2022-09-04T07:19:23.000Z</time>
      </trkpt>
      <trkpt lat="48.46971" lon="-2.76701">
        <ele>103.40000152588</ele>
        <time>2022-09-04T07:19:24.000Z</time>
      </trkpt>
      <trkpt lat="48.46966" lon="-2.76703">
        <ele>103.40000152588</ele>
        <time>2022-09-04T07:19:25.000Z</time>
      </trkpt>
      <trkpt lat="48.46961" lon="-2.76705">
        <ele>103.40000152588</ele>
        <time>2022-09-04T07:19:26.000Z</time>
      </trkpt>
      <trkpt lat="48.46957" lon="-2.76703">
        <ele>103.40000152588</ele>
        <time>2022-09-04T07:19:27.000Z</time>
      </trkpt>
      <trkpt lat="48.46954" lon="-2.767">
        <ele>103.40000152588</ele>
        <time>2022-09-04T07:19:28.000Z</time>
      </trkpt>
      <trkpt lat="48.46943" lon="-2.76681">
        <ele>103.59999847412</ele>
        <time>2022-09-04T07:19:31.000Z</time>
      </trkpt>
      <trkpt lat="48.4694" lon="-2.76675">
        <ele>103.59999847412</ele>
        <time>2022-09-04T07:19:32.000Z</time>
      </trkpt>
      <trkpt lat="48.46921" lon="-2.76641">
        <ele>104.40000152588</ele>
        <time>2022-09-04T07:19:37.000Z</time>
      </trkpt>
      <trkpt lat="48.46917" lon="-2.76636">
        <ele>104.40000152588</ele>
        <time>2022-09-04T07:19:38.000Z</time>
      </trkpt>
      <trkpt lat="48.469" lon="-2.76614">
        <ele>104.59999847412</ele>
        <time>2022-09-04T07:19:42.000Z</time>
      </trkpt>
      <trkpt lat="48.46895" lon="-2.76609">
        <ele>104.80000305176</ele>
        <time>2022-09-04T07:19:43.000Z</time>
      </trkpt>
      <trkpt lat="48.4689" lon="-2.76603">
        <ele>104.80000305176</ele>
        <time>2022-09-04T07:19:44.000Z</time>
      </trkpt>
      <trkpt lat="48.46886" lon="-2.76597">
        <ele>104.80000305176</ele>
        <time>2022-09-04T07:19:45.000Z</time>
      </trkpt>
      <trkpt lat="48.46881" lon="-2.76592">
        <ele>104.80000305176</ele>
        <time>2022-09-04T07:19:46.000Z</time>
      </trkpt>
      <trkpt lat="48.46877" lon="-2.76588">
        <ele>105</ele>
        <time>2022-09-04T07:19:47.000Z</time>
      </trkpt>
      <trkpt lat="48.46871" lon="-2.76583">
        <ele>105</ele>
        <time>2022-09-04T07:19:48.000Z</time>
      </trkpt>
      <trkpt lat="48.46867" lon="-2.76578">
        <ele>105.19999694824</ele>
        <time>2022-09-04T07:19:49.000Z</time>
      </trkpt>
      <trkpt lat="48.46862" lon="-2.76573">
        <ele>105.19999694824</ele>
        <time>2022-09-04T07:19:50.000Z</time>
      </trkpt>
      <trkpt lat="48.46853" lon="-2.76565">
        <ele>105.40000152588</ele>
        <time>2022-09-04T07:19:52.000Z</time>
      </trkpt>
      <trkpt lat="48.46848" lon="-2.7656">
        <ele>105.40000152588</ele>
        <time>2022-09-04T07:19:53.000Z</time>
      </trkpt>
      <trkpt lat="48.46844" lon="-2.76556">
        <ele>105.40000152588</ele>
        <time>2022-09-04T07:19:54.000Z</time>
      </trkpt>
      <trkpt lat="48.4684" lon="-2.76553">
        <ele>105.59999847412</ele>
        <time>2022-09-04T07:19:55.000Z</time>
      </trkpt>
      <trkpt lat="48.46838" lon="-2.76552">
        <ele>105.59999847412</ele>
        <time>2022-09-04T07:19:56.000Z</time>
      </trkpt>
      <trkpt lat="48.46835" lon="-2.7655">
        <ele>105.80000305176</ele>
        <time>2022-09-04T07:19:57.000Z</time>
      </trkpt>
      <trkpt lat="48.46832" lon="-2.76549">
        <ele>106</ele>
        <time>2022-09-04T07:19:58.000Z</time>
      </trkpt>
      <trkpt lat="48.46826" lon="-2.76545">
        <ele>106.19999694824</ele>
        <time>2022-09-04T07:20:00.000Z</time>
      </trkpt>
      <trkpt lat="48.46818" lon="-2.7654">
        <ele>106.40000152588</ele>
        <time>2022-09-04T07:20:02.000Z</time>
      </trkpt>
      <trkpt lat="48.46805" lon="-2.76529">
        <ele>106.80000305176</ele>
        <time>2022-09-04T07:20:05.000Z</time>
      </trkpt>
      <trkpt lat="48.46796" lon="-2.76519">
        <ele>107.19999694824</ele>
        <time>2022-09-04T07:20:07.000Z</time>
      </trkpt>
      <trkpt lat="48.46792" lon="-2.76515">
        <ele>107.59999847412</ele>
        <time>2022-09-04T07:20:08.000Z</time>
      </trkpt>
      <trkpt lat="48.46783" lon="-2.76508">
        <ele>108</ele>
        <time>2022-09-04T07:20:10.000Z</time>
      </trkpt>
      <trkpt lat="48.4678" lon="-2.76505">
        <ele>108.19999694824</ele>
        <time>2022-09-04T07:20:11.000Z</time>
      </trkpt>
      <trkpt lat="48.46775" lon="-2.76501">
        <ele>108.40000152588</ele>
        <time>2022-09-04T07:20:12.000Z</time>
      </trkpt>
      <trkpt lat="48.46771" lon="-2.76499">
        <ele>108.59999847412</ele>
        <time>2022-09-04T07:20:13.000Z</time>
      </trkpt>
      <trkpt lat="48.46768" lon="-2.76496">
        <ele>108.59999847412</ele>
        <time>2022-09-04T07:20:14.000Z</time>
      </trkpt>
      <trkpt lat="48.46764" lon="-2.76493">
        <ele>108.80000305176</ele>
        <time>2022-09-04T07:20:15.000Z</time>
      </trkpt>
      <trkpt lat="48.46759" lon="-2.7649">
        <ele>108.80000305176</ele>
        <time>2022-09-04T07:20:16.000Z</time>
      </trkpt>
      <trkpt lat="48.46755" lon="-2.76486">
        <ele>109</ele>
        <time>2022-09-04T07:20:17.000Z</time>
      </trkpt>
      <trkpt lat="48.46753" lon="-2.7648">
        <ele>109.19999694824</ele>
        <time>2022-09-04T07:20:18.000Z</time>
      </trkpt>
      <trkpt lat="48.46751" lon="-2.76475">
        <ele>109.40000152588</ele>
        <time>2022-09-04T07:20:19.000Z</time>
      </trkpt>
      <trkpt lat="48.46752" lon="-2.76469">
        <ele>109.40000152588</ele>
        <time>2022-09-04T07:20:20.000Z</time>
      </trkpt>
      <trkpt lat="48.46755" lon="-2.76462">
        <ele>109.80000305176</ele>
        <time>2022-09-04T07:20:21.000Z</time>
      </trkpt>
      <trkpt lat="48.46757" lon="-2.76456">
        <ele>109.80000305176</ele>
        <time>2022-09-04T07:20:22.000Z</time>
      </trkpt>
      <trkpt lat="48.4676" lon="-2.76451">
        <ele>110.19999694824</ele>
        <time>2022-09-04T07:20:23.000Z</time>
      </trkpt>
      <trkpt lat="48.46763" lon="-2.76445">
        <ele>110.40000152588</ele>
        <time>2022-09-04T07:20:24.000Z</time>
      </trkpt>
      <trkpt lat="48.46767" lon="-2.76438">
        <ele>110.59999847412</ele>
        <time>2022-09-04T07:20:25.000Z</time>
      </trkpt>
      <trkpt lat="48.4677" lon="-2.76433">
        <ele>110.59999847412</ele>
        <time>2022-09-04T07:20:26.000Z</time>
      </trkpt>
      <trkpt lat="48.46774" lon="-2.76428">
        <ele>110.80000305176</ele>
        <time>2022-09-04T07:20:27.000Z</time>
      </trkpt>
      <trkpt lat="48.46777" lon="-2.76423">
        <ele>110.80000305176</ele>
        <time>2022-09-04T07:20:28.000Z</time>
      </trkpt>
      <trkpt lat="48.4678" lon="-2.76418">
        <ele>110.80000305176</ele>
        <time>2022-09-04T07:20:29.000Z</time>
      </trkpt>
      <trkpt lat="48.46784" lon="-2.76412">
        <ele>111</ele>
        <time>2022-09-04T07:20:30.000Z</time>
      </trkpt>
      <trkpt lat="48.46788" lon="-2.76407">
        <ele>111.19999694824</ele>
        <time>2022-09-04T07:20:31.000Z</time>
      </trkpt>
      <trkpt lat="48.46793" lon="-2.76401">
        <ele>111.19999694824</ele>
        <time>2022-09-04T07:20:32.000Z</time>
      </trkpt>
      <trkpt lat="48.46796" lon="-2.76397">
        <ele>111.19999694824</ele>
        <time>2022-09-04T07:20:33.000Z</time>
      </trkpt>
      <trkpt lat="48.46802" lon="-2.76391">
        <ele>111.40000152588</ele>
        <time>2022-09-04T07:20:34.000Z</time>
      </trkpt>
      <trkpt lat="48.46806" lon="-2.76385">
        <ele>111.40000152588</ele>
        <time>2022-09-04T07:20:35.000Z</time>
      </trkpt>
      <trkpt lat="48.46811" lon="-2.76379">
        <ele>111.40000152588</ele>
        <time>2022-09-04T07:20:36.000Z</time>
      </trkpt>
      <trkpt lat="48.46814" lon="-2.76375">
        <ele>111.40000152588</ele>
        <time>2022-09-04T07:20:37.000Z</time>
      </trkpt>
      <trkpt lat="48.46819" lon="-2.76369">
        <ele>111.40000152588</ele>
        <time>2022-09-04T07:20:38.000Z</time>
      </trkpt>
      <trkpt lat="48.46824" lon="-2.76361">
        <ele>111.40000152588</ele>
        <time>2022-09-04T07:20:39.000Z</time>
      </trkpt>
      <trkpt lat="48.46829" lon="-2.76355">
        <ele>111.40000152588</ele>
        <time>2022-09-04T07:20:40.000Z</time>
      </trkpt>
      <trkpt lat="48.46834" lon="-2.76348">
        <ele>111.19999694824</ele>
        <time>2022-09-04T07:20:41.000Z</time>
      </trkpt>
      <trkpt lat="48.46837" lon="-2.76342">
        <ele>111</ele>
        <time>2022-09-04T07:20:42.000Z</time>
      </trkpt>
      <trkpt lat="48.46841" lon="-2.76332">
        <ele>110.80000305176</ele>
        <time>2022-09-04T07:20:43.000Z</time>
      </trkpt>
      <trkpt lat="48.46844" lon="-2.76323">
        <ele>110.80000305176</ele>
        <time>2022-09-04T07:20:44.000Z</time>
      </trkpt>
      <trkpt lat="48.46845" lon="-2.76314">
        <ele>110.59999847412</ele>
        <time>2022-09-04T07:20:45.000Z</time>
      </trkpt>
      <trkpt lat="48.46844" lon="-2.76307">
        <ele>110.59999847412</ele>
        <time>2022-09-04T07:20:46.000Z</time>
      </trkpt>
      <trkpt lat="48.46842" lon="-2.76298">
        <ele>110.40000152588</ele>
        <time>2022-09-04T07:20:47.000Z</time>
      </trkpt>
      <trkpt lat="48.46839" lon="-2.76287">
        <ele>110.19999694824</ele>
        <time>2022-09-04T07:20:48.000Z</time>
      </trkpt>
      <trkpt lat="48.46837" lon="-2.76279">
        <ele>110.19999694824</ele>
        <time>2022-09-04T07:20:49.000Z</time>
      </trkpt>
      <trkpt lat="48.46835" lon="-2.7627">
        <ele>110.19999694824</ele>
        <time>2022-09-04T07:20:50.000Z</time>
      </trkpt>
      <trkpt lat="48.46833" lon="-2.76263">
        <ele>110.19999694824</ele>
        <time>2022-09-04T07:20:51.000Z</time>
      </trkpt>
      <trkpt lat="48.46831" lon="-2.76254">
        <ele>110.19999694824</ele>
        <time>2022-09-04T07:20:52.000Z</time>
      </trkpt>
      <trkpt lat="48.46828" lon="-2.76243">
        <ele>110.19999694824</ele>
        <time>2022-09-04T07:20:53.000Z</time>
      </trkpt>
      <trkpt lat="48.46827" lon="-2.76234">
        <ele>110.19999694824</ele>
        <time>2022-09-04T07:20:54.000Z</time>
      </trkpt>
      <trkpt lat="48.46826" lon="-2.76226">
        <ele>110.19999694824</ele>
        <time>2022-09-04T07:20:55.000Z</time>
      </trkpt>
      <trkpt lat="48.46825" lon="-2.76219">
        <ele>110.19999694824</ele>
        <time>2022-09-04T07:20:56.000Z</time>
      </trkpt>
      <trkpt lat="48.46822" lon="-2.76201">
        <ele>110.59999847412</ele>
        <time>2022-09-04T07:20:58.000Z</time>
      </trkpt>
      <trkpt lat="48.46819" lon="-2.76185">
        <ele>111</ele>
        <time>2022-09-04T07:21:00.000Z</time>
      </trkpt>
      <trkpt lat="48.46819" lon="-2.76179">
        <ele>111.40000152588</ele>
        <time>2022-09-04T07:21:01.000Z</time>
      </trkpt>
      <trkpt lat="48.4682" lon="-2.76171">
        <ele>111.40000152588</ele>
        <time>2022-09-04T07:21:02.000Z</time>
      </trkpt>
      <trkpt lat="48.46824" lon="-2.76167">
        <ele>111.40000152588</ele>
        <time>2022-09-04T07:21:03.000Z</time>
      </trkpt>
      <trkpt lat="48.4683" lon="-2.76166">
        <ele>111.40000152588</ele>
        <time>2022-09-04T07:21:04.000Z</time>
      </trkpt>
      <trkpt lat="48.46868" lon="-2.76162">
        <ele>110.80000305176</ele>
        <time>2022-09-04T07:21:09.000Z</time>
      </trkpt>
      <trkpt lat="48.46886" lon="-2.76159">
        <ele>110.19999694824</ele>
        <time>2022-09-04T07:21:11.000Z</time>
      </trkpt>
      <trkpt lat="48.46895" lon="-2.76157">
        <ele>109.40000152588</ele>
        <time>2022-09-04T07:21:12.000Z</time>
      </trkpt>
      <trkpt lat="48.46903" lon="-2.76156">
        <ele>109.19999694824</ele>
        <time>2022-09-04T07:21:13.000Z</time>
      </trkpt>
      <trkpt lat="48.4691" lon="-2.76155">
        <ele>108</ele>
        <time>2022-09-04T07:21:14.000Z</time>
      </trkpt>
      <trkpt lat="48.46918" lon="-2.76153">
        <ele>107.40000152588</ele>
        <time>2022-09-04T07:21:15.000Z</time>
      </trkpt>
      <trkpt lat="48.46924" lon="-2.76147">
        <ele>106.80000305176</ele>
        <time>2022-09-04T07:21:16.000Z</time>
      </trkpt>
      <trkpt lat="48.46924" lon="-2.76141">
        <ele>106.59999847412</ele>
        <time>2022-09-04T07:21:17.000Z</time>
      </trkpt>
      <trkpt lat="48.46922" lon="-2.76133">
        <ele>105.80000305176</ele>
        <time>2022-09-04T07:21:18.000Z</time>
      </trkpt>
      <trkpt lat="48.46916" lon="-2.76127">
        <ele>105.40000152588</ele>
        <time>2022-09-04T07:21:19.000Z</time>
      </trkpt>
      <trkpt lat="48.46911" lon="-2.76116">
        <ele>105</ele>
        <time>2022-09-04T07:21:20.000Z</time>
      </trkpt>
      <trkpt lat="48.46902" lon="-2.76096">
        <ele>104.59999847412</ele>
        <time>2022-09-04T07:21:22.000Z</time>
      </trkpt>
      <trkpt lat="48.46901" lon="-2.76085">
        <ele>104</ele>
        <time>2022-09-04T07:21:23.000Z</time>
      </trkpt>
      <trkpt lat="48.46902" lon="-2.76074">
        <ele>103.59999847412</ele>
        <time>2022-09-04T07:21:24.000Z</time>
      </trkpt>
      <trkpt lat="48.46905" lon="-2.76061">
        <ele>103</ele>
        <time>2022-09-04T07:21:25.000Z</time>
      </trkpt>
      <trkpt lat="48.46907" lon="-2.76049">
        <ele>102.59999847412</ele>
        <time>2022-09-04T07:21:26.000Z</time>
      </trkpt>
      <trkpt lat="48.46909" lon="-2.76037">
        <ele>101.80000305176</ele>
        <time>2022-09-04T07:21:27.000Z</time>
      </trkpt>
      <trkpt lat="48.46909" lon="-2.76028">
        <ele>101.40000152588</ele>
        <time>2022-09-04T07:21:28.000Z</time>
      </trkpt>
      <trkpt lat="48.46908" lon="-2.76015">
        <ele>100.80000305176</ele>
        <time>2022-09-04T07:21:29.000Z</time>
      </trkpt>
      <trkpt lat="48.46906" lon="-2.75984">
        <ele>98.199996948242</ele>
        <time>2022-09-04T07:21:31.000Z</time>
      </trkpt>
      <trkpt lat="48.46905" lon="-2.75971">
        <ele>97.599998474121</ele>
        <time>2022-09-04T07:21:32.000Z</time>
      </trkpt>
      <trkpt lat="48.46903" lon="-2.75959">
        <ele>96</ele>
        <time>2022-09-04T07:21:33.000Z</time>
      </trkpt>
      <trkpt lat="48.46899" lon="-2.75948">
        <ele>95</ele>
        <time>2022-09-04T07:21:34.000Z</time>
      </trkpt>
      <trkpt lat="48.46894" lon="-2.75937">
        <ele>94.599998474121</ele>
        <time>2022-09-04T07:21:35.000Z</time>
      </trkpt>
      <trkpt lat="48.46888" lon="-2.75927">
        <ele>94</ele>
        <time>2022-09-04T07:21:36.000Z</time>
      </trkpt>
      <trkpt lat="48.46884" lon="-2.75918">
        <ele>93.800003051758</ele>
        <time>2022-09-04T07:21:37.000Z</time>
      </trkpt>
      <trkpt lat="48.4688" lon="-2.75906">
        <ele>92.199996948242</ele>
        <time>2022-09-04T07:21:38.000Z</time>
      </trkpt>
      <trkpt lat="48.46873" lon="-2.75881">
        <ele>89.599998474121</ele>
        <time>2022-09-04T07:21:40.000Z</time>
      </trkpt>
      <trkpt lat="48.4687" lon="-2.75868">
        <ele>89</ele>
        <time>2022-09-04T07:21:41.000Z</time>
      </trkpt>
      <trkpt lat="48.46865" lon="-2.75855">
        <ele>87.800003051758</ele>
        <time>2022-09-04T07:21:42.000Z</time>
      </trkpt>
      <trkpt lat="48.46858" lon="-2.75841">
        <ele>87.199996948242</ele>
        <time>2022-09-04T07:21:43.000Z</time>
      </trkpt>
      <trkpt lat="48.46852" lon="-2.75833">
        <ele>86.599998474121</ele>
        <time>2022-09-04T07:21:44.000Z</time>
      </trkpt>
      <trkpt lat="48.46846" lon="-2.75823">
        <ele>86.199996948242</ele>
        <time>2022-09-04T07:21:45.000Z</time>
      </trkpt>
      <trkpt lat="48.46841" lon="-2.75812">
        <ele>85.599998474121</ele>
        <time>2022-09-04T07:21:46.000Z</time>
      </trkpt>
      <trkpt lat="48.46838" lon="-2.758">
        <ele>84.800003051758</ele>
        <time>2022-09-04T07:21:47.000Z</time>
      </trkpt>
      <trkpt lat="48.46836" lon="-2.75788">
        <ele>84.400001525879</ele>
        <time>2022-09-04T07:21:48.000Z</time>
      </trkpt>
      <trkpt lat="48.46835" lon="-2.75775">
        <ele>84</ele>
        <time>2022-09-04T07:21:49.000Z</time>
      </trkpt>
      <trkpt lat="48.46833" lon="-2.75763">
        <ele>83.800003051758</ele>
        <time>2022-09-04T07:21:50.000Z</time>
      </trkpt>
      <trkpt lat="48.46831" lon="-2.75751">
        <ele>83.199996948242</ele>
        <time>2022-09-04T07:21:51.000Z</time>
      </trkpt>
      <trkpt lat="48.4683" lon="-2.7571">
        <ele>82.400001525879</ele>
        <time>2022-09-04T07:21:54.000Z</time>
      </trkpt>
      <trkpt lat="48.46828" lon="-2.75696">
        <ele>82.199996948242</ele>
        <time>2022-09-04T07:21:55.000Z</time>
      </trkpt>
      <trkpt lat="48.46825" lon="-2.75683">
        <ele>82.199996948242</ele>
        <time>2022-09-04T07:21:56.000Z</time>
      </trkpt>
      <trkpt lat="48.46824" lon="-2.75669">
        <ele>81.800003051758</ele>
        <time>2022-09-04T07:21:57.000Z</time>
      </trkpt>
      <trkpt lat="48.46824" lon="-2.75654">
        <ele>80.800003051758</ele>
        <time>2022-09-04T07:21:58.000Z</time>
      </trkpt>
      <trkpt lat="48.46823" lon="-2.75643">
        <ele>80.400001525879</ele>
        <time>2022-09-04T07:21:59.000Z</time>
      </trkpt>
      <trkpt lat="48.46822" lon="-2.75633">
        <ele>79.800003051758</ele>
        <time>2022-09-04T07:22:00.000Z</time>
      </trkpt>
      <trkpt lat="48.46821" lon="-2.75621">
        <ele>79.599998474121</ele>
        <time>2022-09-04T07:22:01.000Z</time>
      </trkpt>
      <trkpt lat="48.46821" lon="-2.75609">
        <ele>79.400001525879</ele>
        <time>2022-09-04T07:22:02.000Z</time>
      </trkpt>
      <trkpt lat="48.46823" lon="-2.75598">
        <ele>79.199996948242</ele>
        <time>2022-09-04T07:22:03.000Z</time>
      </trkpt>
      <trkpt lat="48.46823" lon="-2.75586">
        <ele>78.599998474121</ele>
        <time>2022-09-04T07:22:04.000Z</time>
      </trkpt>
      <trkpt lat="48.46827" lon="-2.75575">
        <ele>78.400001525879</ele>
        <time>2022-09-04T07:22:05.000Z</time>
      </trkpt>
      <trkpt lat="48.4683" lon="-2.75566">
        <ele>78.199996948242</ele>
        <time>2022-09-04T07:22:06.000Z</time>
      </trkpt>
      <trkpt lat="48.46832" lon="-2.75555">
        <ele>78</ele>
        <time>2022-09-04T07:22:07.000Z</time>
      </trkpt>
      <trkpt lat="48.46832" lon="-2.75543">
        <ele>77.800003051758</ele>
        <time>2022-09-04T07:22:08.000Z</time>
      </trkpt>
      <trkpt lat="48.46832" lon="-2.75537">
        <ele>77.400001525879</ele>
        <time>2022-09-04T07:22:09.000Z</time>
      </trkpt>
      <trkpt lat="48.46831" lon="-2.75529">
        <ele>77.400001525879</ele>
        <time>2022-09-04T07:22:10.000Z</time>
      </trkpt>
      <trkpt lat="48.46831" lon="-2.75524">
        <ele>77.199996948242</ele>
        <time>2022-09-04T07:22:11.000Z</time>
      </trkpt>
      <trkpt lat="48.4683" lon="-2.75519">
        <ele>77</ele>
        <time>2022-09-04T07:22:12.000Z</time>
      </trkpt>
      <trkpt lat="48.4683" lon="-2.75515">
        <ele>76.199996948242</ele>
        <time>2022-09-04T07:22:13.000Z</time>
      </trkpt>
      <trkpt lat="48.4683" lon="-2.75513">
        <ele>76</ele>
        <time>2022-09-04T07:22:14.000Z</time>
      </trkpt>
      <trkpt lat="48.4683" lon="-2.75509">
        <ele>75.800003051758</ele>
        <time>2022-09-04T07:22:15.000Z</time>
      </trkpt>
      <trkpt lat="48.4682" lon="-2.75502">
        <ele>75.800003051758</ele>
        <time>2022-09-04T07:22:18.000Z</time>
      </trkpt>
      <trkpt lat="48.46818" lon="-2.755">
        <ele>75.800003051758</ele>
        <time>2022-09-04T07:22:19.000Z</time>
      </trkpt>
      <trkpt lat="48.46816" lon="-2.75497">
        <ele>76</ele>
        <time>2022-09-04T07:22:20.000Z</time>
      </trkpt>
      <trkpt lat="48.46811" lon="-2.7549">
        <ele>76.599998474121</ele>
        <time>2022-09-04T07:22:22.000Z</time>
      </trkpt>
      <trkpt lat="48.46808" lon="-2.75488">
        <ele>76.800003051758</ele>
        <time>2022-09-04T07:22:23.000Z</time>
      </trkpt>
      <trkpt lat="48.46807" lon="-2.75488">
        <ele>77.599998474121</ele>
        <time>2022-09-04T07:22:24.000Z</time>
      </trkpt>
      <trkpt lat="48.46807" lon="-2.75487">
        <ele>77.800003051758</ele>
        <time>2022-09-04T07:22:25.000Z</time>
      </trkpt>
      <trkpt lat="48.46805" lon="-2.75486">
        <ele>78.599998474121</ele>
        <time>2022-09-04T07:22:26.000Z</time>
      </trkpt>
      <trkpt lat="48.46803" lon="-2.75485">
        <ele>78.800003051758</ele>
        <time>2022-09-04T07:22:27.000Z</time>
      </trkpt>
      <trkpt lat="48.468" lon="-2.75483">
        <ele>79.199996948242</ele>
        <time>2022-09-04T07:22:28.000Z</time>
      </trkpt>
      <trkpt lat="48.46795" lon="-2.75481">
        <ele>79.400001525879</ele>
        <time>2022-09-04T07:22:29.000Z</time>
      </trkpt>
      <trkpt lat="48.46792" lon="-2.7548">
        <ele>79.800003051758</ele>
        <time>2022-09-04T07:22:30.000Z</time>
      </trkpt>
      <trkpt lat="48.46785" lon="-2.75473">
        <ele>80</ele>
        <time>2022-09-04T07:22:32.000Z</time>
      </trkpt>
      <trkpt lat="48.46777" lon="-2.75468">
        <ele>80.599998474121</ele>
        <time>2022-09-04T07:22:34.000Z</time>
      </trkpt>
      <trkpt lat="48.46769" lon="-2.75461">
        <ele>80.800003051758</ele>
        <time>2022-09-04T07:22:36.000Z</time>
      </trkpt>
      <trkpt lat="48.46763" lon="-2.75454">
        <ele>81</ele>
        <time>2022-09-04T07:22:38.000Z</time>
      </trkpt>
      <trkpt lat="48.46758" lon="-2.75451">
        <ele>81</ele>
        <time>2022-09-04T07:22:39.000Z</time>
      </trkpt>
      <trkpt lat="48.46753" lon="-2.7545">
        <ele>81</ele>
        <time>2022-09-04T07:22:40.000Z</time>
      </trkpt>
      <trkpt lat="48.4675" lon="-2.75448">
        <ele>81</ele>
        <time>2022-09-04T07:22:41.000Z</time>
      </trkpt>
      <trkpt lat="48.46749" lon="-2.75445">
        <ele>81</ele>
        <time>2022-09-04T07:22:42.000Z</time>
      </trkpt>
      <trkpt lat="48.46748" lon="-2.75438">
        <ele>81</ele>
        <time>2022-09-04T07:22:43.000Z</time>
      </trkpt>
      <trkpt lat="48.46747" lon="-2.7543">
        <ele>80.599998474121</ele>
        <time>2022-09-04T07:22:44.000Z</time>
      </trkpt>
      <trkpt lat="48.46747" lon="-2.75421">
        <ele>80.599998474121</ele>
        <time>2022-09-04T07:22:45.000Z</time>
      </trkpt>
      <trkpt lat="48.46746" lon="-2.75411">
        <ele>80.400001525879</ele>
        <time>2022-09-04T07:22:46.000Z</time>
      </trkpt>
      <trkpt lat="48.46744" lon="-2.754">
        <ele>80.199996948242</ele>
        <time>2022-09-04T07:22:47.000Z</time>
      </trkpt>
      <trkpt lat="48.46741" lon="-2.75385">
        <ele>79.800003051758</ele>
        <time>2022-09-04T07:22:48.000Z</time>
      </trkpt>
      <trkpt lat="48.4674" lon="-2.75375">
        <ele>79.800003051758</ele>
        <time>2022-09-04T07:22:49.000Z</time>
      </trkpt>
      <trkpt lat="48.46737" lon="-2.75362">
        <ele>79.400001525879</ele>
        <time>2022-09-04T07:22:50.000Z</time>
      </trkpt>
      <trkpt lat="48.46731" lon="-2.75336">
        <ele>78.199996948242</ele>
        <time>2022-09-04T07:22:52.000Z</time>
      </trkpt>
      <trkpt lat="48.46728" lon="-2.75322">
        <ele>77</ele>
        <time>2022-09-04T07:22:53.000Z</time>
      </trkpt>
      <trkpt lat="48.46725" lon="-2.75307">
        <ele>76.400001525879</ele>
        <time>2022-09-04T07:22:54.000Z</time>
      </trkpt>
      <trkpt lat="48.46723" lon="-2.75291">
        <ele>75.400001525879</ele>
        <time>2022-09-04T07:22:55.000Z</time>
      </trkpt>
      <trkpt lat="48.46722" lon="-2.75275">
        <ele>75</ele>
        <time>2022-09-04T07:22:56.000Z</time>
      </trkpt>
      <trkpt lat="48.46722" lon="-2.75258">
        <ele>73.800003051758</ele>
        <time>2022-09-04T07:22:57.000Z</time>
      </trkpt>
      <trkpt lat="48.46723" lon="-2.75249">
        <ele>73</ele>
        <time>2022-09-04T07:22:58.000Z</time>
      </trkpt>
      <trkpt lat="48.46722" lon="-2.75241">
        <ele>72</ele>
        <time>2022-09-04T07:22:59.000Z</time>
      </trkpt>
      <trkpt lat="48.4672" lon="-2.75237">
        <ele>71</ele>
        <time>2022-09-04T07:23:00.000Z</time>
      </trkpt>
      <trkpt lat="48.46716" lon="-2.75237">
        <ele>69.400001525879</ele>
        <time>2022-09-04T07:23:01.000Z</time>
      </trkpt>
      <trkpt lat="48.46709" lon="-2.75246">
        <ele>68</ele>
        <time>2022-09-04T07:23:03.000Z</time>
      </trkpt>
      <trkpt lat="48.46705" lon="-2.75253">
        <ele>67.199996948242</ele>
        <time>2022-09-04T07:23:04.000Z</time>
      </trkpt>
      <trkpt lat="48.46701" lon="-2.7526">
        <ele>67</ele>
        <time>2022-09-04T07:23:05.000Z</time>
      </trkpt>
      <trkpt lat="48.46697" lon="-2.75267">
        <ele>66.400001525879</ele>
        <time>2022-09-04T07:23:06.000Z</time>
      </trkpt>
      <trkpt lat="48.46694" lon="-2.75276">
        <ele>66.400001525879</ele>
        <time>2022-09-04T07:23:07.000Z</time>
      </trkpt>
      <trkpt lat="48.46688" lon="-2.75294">
        <ele>65.800003051758</ele>
        <time>2022-09-04T07:23:09.000Z</time>
      </trkpt>
      <trkpt lat="48.46683" lon="-2.75312">
        <ele>65.400001525879</ele>
        <time>2022-09-04T07:23:11.000Z</time>
      </trkpt>
      <trkpt lat="48.4668" lon="-2.75319">
        <ele>65.199996948242</ele>
        <time>2022-09-04T07:23:12.000Z</time>
      </trkpt>
      <trkpt lat="48.46676" lon="-2.75326">
        <ele>65.199996948242</ele>
        <time>2022-09-04T07:23:13.000Z</time>
      </trkpt>
      <trkpt lat="48.46672" lon="-2.75333">
        <ele>65.199996948242</ele>
        <time>2022-09-04T07:23:14.000Z</time>
      </trkpt>
      <trkpt lat="48.46658" lon="-2.75352">
        <ele>64.800003051758</ele>
        <time>2022-09-04T07:23:17.000Z</time>
      </trkpt>
      <trkpt lat="48.46653" lon="-2.75358">
        <ele>64.599998474121</ele>
        <time>2022-09-04T07:23:18.000Z</time>
      </trkpt>
      <trkpt lat="48.46649" lon="-2.75363">
        <ele>64.599998474121</ele>
        <time>2022-09-04T07:23:19.000Z</time>
      </trkpt>
      <trkpt lat="48.46644" lon="-2.75371">
        <ele>64.599998474121</ele>
        <time>2022-09-04T07:23:20.000Z</time>
      </trkpt>
      <trkpt lat="48.4664" lon="-2.75377">
        <ele>64.800003051758</ele>
        <time>2022-09-04T07:23:21.000Z</time>
      </trkpt>
      <trkpt lat="48.4663" lon="-2.75388">
        <ele>65</ele>
        <time>2022-09-04T07:23:23.000Z</time>
      </trkpt>
      <trkpt lat="48.46616" lon="-2.75396">
        <ele>64.800003051758</ele>
        <time>2022-09-04T07:23:25.000Z</time>
      </trkpt>
      <trkpt lat="48.46603" lon="-2.75405">
        <ele>65</ele>
        <time>2022-09-04T07:23:27.000Z</time>
      </trkpt>
      <trkpt lat="48.46592" lon="-2.75413">
        <ele>64.800003051758</ele>
        <time>2022-09-04T07:23:29.000Z</time>
      </trkpt>
      <trkpt lat="48.4658" lon="-2.75412">
        <ele>64.800003051758</ele>
        <time>2022-09-04T07:23:31.000Z</time>
      </trkpt>
      <trkpt lat="48.46574" lon="-2.75409">
        <ele>64.599998474121</ele>
        <time>2022-09-04T07:23:32.000Z</time>
      </trkpt>
      <trkpt lat="48.46569" lon="-2.75406">
        <ele>64.599998474121</ele>
        <time>2022-09-04T07:23:33.000Z</time>
      </trkpt>
      <trkpt lat="48.46563" lon="-2.75403">
        <ele>64.199996948242</ele>
        <time>2022-09-04T07:23:34.000Z</time>
      </trkpt>
      <trkpt lat="48.46557" lon="-2.75401">
        <ele>64.199996948242</ele>
        <time>2022-09-04T07:23:35.000Z</time>
      </trkpt>
      <trkpt lat="48.46551" lon="-2.75398">
        <ele>64</ele>
        <time>2022-09-04T07:23:36.000Z</time>
      </trkpt>
      <trkpt lat="48.46544" lon="-2.75395">
        <ele>64.199996948242</ele>
        <time>2022-09-04T07:23:37.000Z</time>
      </trkpt>
      <trkpt lat="48.46536" lon="-2.75391">
        <ele>64.599998474121</ele>
        <time>2022-09-04T07:23:38.000Z</time>
      </trkpt>
      <trkpt lat="48.46532" lon="-2.7539">
        <ele>64.800003051758</ele>
        <time>2022-09-04T07:23:39.000Z</time>
      </trkpt>
      <trkpt lat="48.46527" lon="-2.75386">
        <ele>64.800003051758</ele>
        <time>2022-09-04T07:23:40.000Z</time>
      </trkpt>
      <trkpt lat="48.46523" lon="-2.75384">
        <ele>65.199996948242</ele>
        <time>2022-09-04T07:23:41.000Z</time>
      </trkpt>
      <trkpt lat="48.46519" lon="-2.7538">
        <ele>65.199996948242</ele>
        <time>2022-09-04T07:23:42.000Z</time>
      </trkpt>
      <trkpt lat="48.46515" lon="-2.75378">
        <ele>65.400001525879</ele>
        <time>2022-09-04T07:23:43.000Z</time>
      </trkpt>
      <trkpt lat="48.46512" lon="-2.75376">
        <ele>65.400001525879</ele>
        <time>2022-09-04T07:23:44.000Z</time>
      </trkpt>
      <trkpt lat="48.46507" lon="-2.75374">
        <ele>65.800003051758</ele>
        <time>2022-09-04T07:23:45.000Z</time>
      </trkpt>
      <trkpt lat="48.46503" lon="-2.75371">
        <ele>65.800003051758</ele>
        <time>2022-09-04T07:23:46.000Z</time>
      </trkpt>
      <trkpt lat="48.465" lon="-2.75367">
        <ele>66.199996948242</ele>
        <time>2022-09-04T07:23:47.000Z</time>
      </trkpt>
      <trkpt lat="48.46497" lon="-2.75365">
        <ele>66.400001525879</ele>
        <time>2022-09-04T07:23:48.000Z</time>
      </trkpt>
      <trkpt lat="48.46496" lon="-2.75362">
        <ele>67</ele>
        <time>2022-09-04T07:23:49.000Z</time>
      </trkpt>
      <trkpt lat="48.46494" lon="-2.75359">
        <ele>67.400001525879</ele>
        <time>2022-09-04T07:23:50.000Z</time>
      </trkpt>
      <trkpt lat="48.46494" lon="-2.75357">
        <ele>67.599998474121</ele>
        <time>2022-09-04T07:23:51.000Z</time>
      </trkpt>
      <trkpt lat="48.46493" lon="-2.75354">
        <ele>68</ele>
        <time>2022-09-04T07:23:52.000Z</time>
      </trkpt>
      <trkpt lat="48.46491" lon="-2.75352">
        <ele>68.199996948242</ele>
        <time>2022-09-04T07:23:53.000Z</time>
      </trkpt>
      <trkpt lat="48.4649" lon="-2.75349">
        <ele>68.800003051758</ele>
        <time>2022-09-04T07:23:54.000Z</time>
      </trkpt>
      <trkpt lat="48.46489" lon="-2.75347">
        <ele>69</ele>
        <time>2022-09-04T07:23:55.000Z</time>
      </trkpt>
      <trkpt lat="48.46488" lon="-2.75345">
        <ele>69.599998474121</ele>
        <time>2022-09-04T07:23:56.000Z</time>
      </trkpt>
      <trkpt lat="48.46486" lon="-2.75344">
        <ele>70</ele>
        <time>2022-09-04T07:23:57.000Z</time>
      </trkpt>
      <trkpt lat="48.46485" lon="-2.75344">
        <ele>70.400001525879</ele>
        <time>2022-09-04T07:23:58.000Z</time>
      </trkpt>
      <trkpt lat="48.46483" lon="-2.75346">
        <ele>70.599998474121</ele>
        <time>2022-09-04T07:23:59.000Z</time>
      </trkpt>
      <trkpt lat="48.46481" lon="-2.75348">
        <ele>71.199996948242</ele>
        <time>2022-09-04T07:24:00.000Z</time>
      </trkpt>
      <trkpt lat="48.4648" lon="-2.75352">
        <ele>71.800003051758</ele>
        <time>2022-09-04T07:24:01.000Z</time>
      </trkpt>
      <trkpt lat="48.46479" lon="-2.75356">
        <ele>72</ele>
        <time>2022-09-04T07:24:02.000Z</time>
      </trkpt>
      <trkpt lat="48.46478" lon="-2.75362">
        <ele>72.199996948242</ele>
        <time>2022-09-04T07:24:03.000Z</time>
      </trkpt>
      <trkpt lat="48.46477" lon="-2.75368">
        <ele>72.400001525879</ele>
        <time>2022-09-04T07:24:04.000Z</time>
      </trkpt>
      <trkpt lat="48.46476" lon="-2.75375">
        <ele>72.400001525879</ele>
        <time>2022-09-04T07:24:05.000Z</time>
      </trkpt>
      <trkpt lat="48.46475" lon="-2.75382">
        <ele>72.400001525879</ele>
        <time>2022-09-04T07:24:06.000Z</time>
      </trkpt>
      <trkpt lat="48.46474" lon="-2.75389">
        <ele>72.400001525879</ele>
        <time>2022-09-04T07:24:07.000Z</time>
      </trkpt>
      <trkpt lat="48.46472" lon="-2.75396">
        <ele>72.400001525879</ele>
        <time>2022-09-04T07:24:08.000Z</time>
      </trkpt>
      <trkpt lat="48.4647" lon="-2.75403">
        <ele>72</ele>
        <time>2022-09-04T07:24:09.000Z</time>
      </trkpt>
      <trkpt lat="48.46467" lon="-2.7541">
        <ele>72</ele>
        <time>2022-09-04T07:24:10.000Z</time>
      </trkpt>
      <trkpt lat="48.46465" lon="-2.75418">
        <ele>71.599998474121</ele>
        <time>2022-09-04T07:24:11.000Z</time>
      </trkpt>
      <trkpt lat="48.46462" lon="-2.75425">
        <ele>71.599998474121</ele>
        <time>2022-09-04T07:24:12.000Z</time>
      </trkpt>
      <trkpt lat="48.46459" lon="-2.75432">
        <ele>71.199996948242</ele>
        <time>2022-09-04T07:24:13.000Z</time>
      </trkpt>
      <trkpt lat="48.46455" lon="-2.75439">
        <ele>71.199996948242</ele>
        <time>2022-09-04T07:24:14.000Z</time>
      </trkpt>
      <trkpt lat="48.46451" lon="-2.75445">
        <ele>71.199996948242</ele>
        <time>2022-09-04T07:24:15.000Z</time>
      </trkpt>
      <trkpt lat="48.46447" lon="-2.75451">
        <ele>71.199996948242</ele>
        <time>2022-09-04T07:24:16.000Z</time>
      </trkpt>
      <trkpt lat="48.46443" lon="-2.75456">
        <ele>71.199996948242</ele>
        <time>2022-09-04T07:24:17.000Z</time>
      </trkpt>
      <trkpt lat="48.46438" lon="-2.75462">
        <ele>70.800003051758</ele>
        <time>2022-09-04T07:24:18.000Z</time>
      </trkpt>
      <trkpt lat="48.46433" lon="-2.75468">
        <ele>70.800003051758</ele>
        <time>2022-09-04T07:24:19.000Z</time>
      </trkpt>
      <trkpt lat="48.46428" lon="-2.75473">
        <ele>70.800003051758</ele>
        <time>2022-09-04T07:24:20.000Z</time>
      </trkpt>
      <trkpt lat="48.46424" lon="-2.75479">
        <ele>70.800003051758</ele>
        <time>2022-09-04T07:24:21.000Z</time>
      </trkpt>
      <trkpt lat="48.46419" lon="-2.75485">
        <ele>70.599998474121</ele>
        <time>2022-09-04T07:24:22.000Z</time>
      </trkpt>
      <trkpt lat="48.46411" lon="-2.75499">
        <ele>70.599998474121</ele>
        <time>2022-09-04T07:24:24.000Z</time>
      </trkpt>
      <trkpt lat="48.46405" lon="-2.75514">
        <ele>70.599998474121</ele>
        <time>2022-09-04T07:24:26.000Z</time>
      </trkpt>
      <trkpt lat="48.46404" lon="-2.75523">
        <ele>70.599998474121</ele>
        <time>2022-09-04T07:24:27.000Z</time>
      </trkpt>
      <trkpt lat="48.464" lon="-2.75547">
        <ele>70.199996948242</ele>
        <time>2022-09-04T07:24:30.000Z</time>
      </trkpt>
      <trkpt lat="48.464" lon="-2.75555">
        <ele>70.199996948242</ele>
        <time>2022-09-04T07:24:31.000Z</time>
      </trkpt>
      <trkpt lat="48.46398" lon="-2.75564">
        <ele>70.199996948242</ele>
        <time>2022-09-04T07:24:32.000Z</time>
      </trkpt>
      <trkpt lat="48.46389" lon="-2.75601">
        <ele>69.599998474121</ele>
        <time>2022-09-04T07:24:36.000Z</time>
      </trkpt>
      <trkpt lat="48.46386" lon="-2.7561">
        <ele>69.400001525879</ele>
        <time>2022-09-04T07:24:37.000Z</time>
      </trkpt>
      <trkpt lat="48.46383" lon="-2.75617">
        <ele>69.199996948242</ele>
        <time>2022-09-04T07:24:38.000Z</time>
      </trkpt>
      <trkpt lat="48.4638" lon="-2.75621">
        <ele>69.199996948242</ele>
        <time>2022-09-04T07:24:39.000Z</time>
      </trkpt>
      <trkpt lat="48.46376" lon="-2.75625">
        <ele>69</ele>
        <time>2022-09-04T07:24:40.000Z</time>
      </trkpt>
      <trkpt lat="48.46372" lon="-2.75627">
        <ele>69</ele>
        <time>2022-09-04T07:24:41.000Z</time>
      </trkpt>
      <trkpt lat="48.46369" lon="-2.75627">
        <ele>68.800003051758</ele>
        <time>2022-09-04T07:24:42.000Z</time>
      </trkpt>
      <trkpt lat="48.46366" lon="-2.75625">
        <ele>68.800003051758</ele>
        <time>2022-09-04T07:24:43.000Z</time>
      </trkpt>
      <trkpt lat="48.46364" lon="-2.75623">
        <ele>68.599998474121</ele>
        <time>2022-09-04T07:24:44.000Z</time>
      </trkpt>
      <trkpt lat="48.46361" lon="-2.75621">
        <ele>68.599998474121</ele>
        <time>2022-09-04T07:24:45.000Z</time>
      </trkpt>
      <trkpt lat="48.46359" lon="-2.75619">
        <ele>68.599998474121</ele>
        <time>2022-09-04T07:24:46.000Z</time>
      </trkpt>
      <trkpt lat="48.46358" lon="-2.75617">
        <ele>68.599998474121</ele>
        <time>2022-09-04T07:24:47.000Z</time>
      </trkpt>
      <trkpt lat="48.46357" lon="-2.75616">
        <ele>68.800003051758</ele>
        <time>2022-09-04T07:24:48.000Z</time>
      </trkpt>
      <trkpt lat="48.46355" lon="-2.75616">
        <ele>68.800003051758</ele>
        <time>2022-09-04T07:24:49.000Z</time>
      </trkpt>
      <trkpt lat="48.46353" lon="-2.75616">
        <ele>69</ele>
        <time>2022-09-04T07:24:50.000Z</time>
      </trkpt>
      <trkpt lat="48.4635" lon="-2.75616">
        <ele>69</ele>
        <time>2022-09-04T07:24:51.000Z</time>
      </trkpt>
      <trkpt lat="48.46346" lon="-2.75615">
        <ele>69</ele>
        <time>2022-09-04T07:24:52.000Z</time>
      </trkpt>
      <trkpt lat="48.46339" lon="-2.75614">
        <ele>70.199996948242</ele>
        <time>2022-09-04T07:24:55.000Z</time>
      </trkpt>
      <trkpt lat="48.46337" lon="-2.75613">
        <ele>70.400001525879</ele>
        <time>2022-09-04T07:24:56.000Z</time>
      </trkpt>
      <trkpt lat="48.46334" lon="-2.75612">
        <ele>70.800003051758</ele>
        <time>2022-09-04T07:24:57.000Z</time>
      </trkpt>
      <trkpt lat="48.46332" lon="-2.75611">
        <ele>71.599998474121</ele>
        <time>2022-09-04T07:24:58.000Z</time>
      </trkpt>
      <trkpt lat="48.46331" lon="-2.7561">
        <ele>71.800003051758</ele>
        <time>2022-09-04T07:24:59.000Z</time>
      </trkpt>
      <trkpt lat="48.46327" lon="-2.75608">
        <ele>72.599998474121</ele>
        <time>2022-09-04T07:25:01.000Z</time>
      </trkpt>
      <trkpt lat="48.46325" lon="-2.75608">
        <ele>73</ele>
        <time>2022-09-04T07:25:02.000Z</time>
      </trkpt>
      <trkpt lat="48.46322" lon="-2.75607">
        <ele>73.199996948242</ele>
        <time>2022-09-04T07:25:03.000Z</time>
      </trkpt>
      <trkpt lat="48.46321" lon="-2.75608">
        <ele>74</ele>
        <time>2022-09-04T07:25:04.000Z</time>
      </trkpt>
      <trkpt lat="48.46318" lon="-2.75608">
        <ele>74.400001525879</ele>
        <time>2022-09-04T07:25:05.000Z</time>
      </trkpt>
      <trkpt lat="48.46316" lon="-2.75609">
        <ele>74.800003051758</ele>
        <time>2022-09-04T07:25:06.000Z</time>
      </trkpt>
      <trkpt lat="48.46313" lon="-2.75609">
        <ele>75</ele>
        <time>2022-09-04T07:25:07.000Z</time>
      </trkpt>
      <trkpt lat="48.4631" lon="-2.7561">
        <ele>75.199996948242</ele>
        <time>2022-09-04T07:25:08.000Z</time>
      </trkpt>
      <trkpt lat="48.46308" lon="-2.7561">
        <ele>75.599998474121</ele>
        <time>2022-09-04T07:25:09.000Z</time>
      </trkpt>
      <trkpt lat="48.46304" lon="-2.75611">
        <ele>75.800003051758</ele>
        <time>2022-09-04T07:25:10.000Z</time>
      </trkpt>
      <trkpt lat="48.46302" lon="-2.75612">
        <ele>76.199996948242</ele>
        <time>2022-09-04T07:25:11.000Z</time>
      </trkpt>
      <trkpt lat="48.46299" lon="-2.75612">
        <ele>76.400001525879</ele>
        <time>2022-09-04T07:25:12.000Z</time>
      </trkpt>
      <trkpt lat="48.46296" lon="-2.75613">
        <ele>77</ele>
        <time>2022-09-04T07:25:13.000Z</time>
      </trkpt>
      <trkpt lat="48.46293" lon="-2.75613">
        <ele>77.199996948242</ele>
        <time>2022-09-04T07:25:14.000Z</time>
      </trkpt>
      <trkpt lat="48.4629" lon="-2.75614">
        <ele>77.400001525879</ele>
        <time>2022-09-04T07:25:15.000Z</time>
      </trkpt>
      <trkpt lat="48.46287" lon="-2.75615">
        <ele>77.599998474121</ele>
        <time>2022-09-04T07:25:16.000Z</time>
      </trkpt>
      <trkpt lat="48.46285" lon="-2.75617">
        <ele>77.800003051758</ele>
        <time>2022-09-04T07:25:17.000Z</time>
      </trkpt>
      <trkpt lat="48.46283" lon="-2.75619">
        <ele>78</ele>
        <time>2022-09-04T07:25:18.000Z</time>
      </trkpt>
      <trkpt lat="48.46282" lon="-2.75621">
        <ele>78.400001525879</ele>
        <time>2022-09-04T07:25:19.000Z</time>
      </trkpt>
      <trkpt lat="48.4628" lon="-2.75623">
        <ele>78.800003051758</ele>
        <time>2022-09-04T07:25:20.000Z</time>
      </trkpt>
      <trkpt lat="48.46279" lon="-2.75627">
        <ele>79</ele>
        <time>2022-09-04T07:25:21.000Z</time>
      </trkpt>
      <trkpt lat="48.46277" lon="-2.75631">
        <ele>79.199996948242</ele>
        <time>2022-09-04T07:25:22.000Z</time>
      </trkpt>
      <trkpt lat="48.46274" lon="-2.75634">
        <ele>79.599998474121</ele>
        <time>2022-09-04T07:25:23.000Z</time>
      </trkpt>
      <trkpt lat="48.46272" lon="-2.75636">
        <ele>80</ele>
        <time>2022-09-04T07:25:24.000Z</time>
      </trkpt>
      <trkpt lat="48.46268" lon="-2.75639">
        <ele>80.400001525879</ele>
        <time>2022-09-04T07:25:25.000Z</time>
      </trkpt>
      <trkpt lat="48.46265" lon="-2.75642">
        <ele>80.800003051758</ele>
        <time>2022-09-04T07:25:26.000Z</time>
      </trkpt>
      <trkpt lat="48.46262" lon="-2.75646">
        <ele>81.199996948242</ele>
        <time>2022-09-04T07:25:27.000Z</time>
      </trkpt>
      <trkpt lat="48.46258" lon="-2.75649">
        <ele>81.400001525879</ele>
        <time>2022-09-04T07:25:28.000Z</time>
      </trkpt>
      <trkpt lat="48.46254" lon="-2.7565">
        <ele>81.599998474121</ele>
        <time>2022-09-04T07:25:29.000Z</time>
      </trkpt>
      <trkpt lat="48.46251" lon="-2.75652">
        <ele>81.800003051758</ele>
        <time>2022-09-04T07:25:30.000Z</time>
      </trkpt>
      <trkpt lat="48.46248" lon="-2.75656">
        <ele>81.800003051758</ele>
        <time>2022-09-04T07:25:31.000Z</time>
      </trkpt>
      <trkpt lat="48.46244" lon="-2.75659">
        <ele>82</ele>
        <time>2022-09-04T07:25:32.000Z</time>
      </trkpt>
      <trkpt lat="48.4624" lon="-2.75661">
        <ele>82</ele>
        <time>2022-09-04T07:25:33.000Z</time>
      </trkpt>
      <trkpt lat="48.46237" lon="-2.75664">
        <ele>82</ele>
        <time>2022-09-04T07:25:34.000Z</time>
      </trkpt>
      <trkpt lat="48.46233" lon="-2.75668">
        <ele>82.199996948242</ele>
        <time>2022-09-04T07:25:35.000Z</time>
      </trkpt>
      <trkpt lat="48.46228" lon="-2.75673">
        <ele>82.199996948242</ele>
        <time>2022-09-04T07:25:36.000Z</time>
      </trkpt>
      <trkpt lat="48.46225" lon="-2.75674">
        <ele>82.400001525879</ele>
        <time>2022-09-04T07:25:37.000Z</time>
      </trkpt>
      <trkpt lat="48.46221" lon="-2.75676">
        <ele>82.400001525879</ele>
        <time>2022-09-04T07:25:38.000Z</time>
      </trkpt>
      <trkpt lat="48.46218" lon="-2.75678">
        <ele>82.599998474121</ele>
        <time>2022-09-04T07:25:39.000Z</time>
      </trkpt>
      <trkpt lat="48.46215" lon="-2.7568">
        <ele>82.599998474121</ele>
        <time>2022-09-04T07:25:40.000Z</time>
      </trkpt>
      <trkpt lat="48.4621" lon="-2.75681">
        <ele>82.599998474121</ele>
        <time>2022-09-04T07:25:41.000Z</time>
      </trkpt>
      <trkpt lat="48.46207" lon="-2.75683">
        <ele>82.800003051758</ele>
        <time>2022-09-04T07:25:42.000Z</time>
      </trkpt>
      <trkpt lat="48.46205" lon="-2.75684">
        <ele>82.800003051758</ele>
        <time>2022-09-04T07:25:43.000Z</time>
      </trkpt>
      <trkpt lat="48.46202" lon="-2.75686">
        <ele>83</ele>
        <time>2022-09-04T07:25:44.000Z</time>
      </trkpt>
      <trkpt lat="48.46199" lon="-2.75687">
        <ele>83</ele>
        <time>2022-09-04T07:25:45.000Z</time>
      </trkpt>
      <trkpt lat="48.46196" lon="-2.75688">
        <ele>83.199996948242</ele>
        <time>2022-09-04T07:25:46.000Z</time>
      </trkpt>
      <trkpt lat="48.46193" lon="-2.75687">
        <ele>83.400001525879</ele>
        <time>2022-09-04T07:25:47.000Z</time>
      </trkpt>
      <trkpt lat="48.4619" lon="-2.75687">
        <ele>83.599998474121</ele>
        <time>2022-09-04T07:25:48.000Z</time>
      </trkpt>
      <trkpt lat="48.46187" lon="-2.75687">
        <ele>83.599998474121</ele>
        <time>2022-09-04T07:25:49.000Z</time>
      </trkpt>
      <trkpt lat="48.46185" lon="-2.75688">
        <ele>83.599998474121</ele>
        <time>2022-09-04T07:25:50.000Z</time>
      </trkpt>
      <trkpt lat="48.46182" lon="-2.75688">
        <ele>83.800003051758</ele>
        <time>2022-09-04T07:25:51.000Z</time>
      </trkpt>
      <trkpt lat="48.4618" lon="-2.75687">
        <ele>84</ele>
        <time>2022-09-04T07:25:52.000Z</time>
      </trkpt>
      <trkpt lat="48.46177" lon="-2.75687">
        <ele>84.199996948242</ele>
        <time>2022-09-04T07:25:53.000Z</time>
      </trkpt>
      <trkpt lat="48.46173" lon="-2.75686">
        <ele>84.199996948242</ele>
        <time>2022-09-04T07:25:54.000Z</time>
      </trkpt>
      <trkpt lat="48.46169" lon="-2.75684">
        <ele>84.400001525879</ele>
        <time>2022-09-04T07:25:55.000Z</time>
      </trkpt>
      <trkpt lat="48.46167" lon="-2.75683">
        <ele>84.599998474121</ele>
        <time>2022-09-04T07:25:56.000Z</time>
      </trkpt>
      <trkpt lat="48.46164" lon="-2.75683">
        <ele>85</ele>
        <time>2022-09-04T07:25:57.000Z</time>
      </trkpt>
      <trkpt lat="48.46161" lon="-2.75681">
        <ele>85</ele>
        <time>2022-09-04T07:25:58.000Z</time>
      </trkpt>
      <trkpt lat="48.46158" lon="-2.75681">
        <ele>85.199996948242</ele>
        <time>2022-09-04T07:25:59.000Z</time>
      </trkpt>
      <trkpt lat="48.46155" lon="-2.7568">
        <ele>85.400001525879</ele>
        <time>2022-09-04T07:26:00.000Z</time>
      </trkpt>
      <trkpt lat="48.46153" lon="-2.7568">
        <ele>85.800003051758</ele>
        <time>2022-09-04T07:26:01.000Z</time>
      </trkpt>
      <trkpt lat="48.4615" lon="-2.75679">
        <ele>86</ele>
        <time>2022-09-04T07:26:02.000Z</time>
      </trkpt>
      <trkpt lat="48.46147" lon="-2.75678">
        <ele>86.599998474121</ele>
        <time>2022-09-04T07:26:03.000Z</time>
      </trkpt>
      <trkpt lat="48.46143" lon="-2.75678">
        <ele>87</ele>
        <time>2022-09-04T07:26:04.000Z</time>
      </trkpt>
      <trkpt lat="48.4614" lon="-2.75679">
        <ele>87.199996948242</ele>
        <time>2022-09-04T07:26:05.000Z</time>
      </trkpt>
      <trkpt lat="48.46137" lon="-2.75681">
        <ele>87.400001525879</ele>
        <time>2022-09-04T07:26:06.000Z</time>
      </trkpt>
      <trkpt lat="48.46133" lon="-2.75681">
        <ele>87.599998474121</ele>
        <time>2022-09-04T07:26:07.000Z</time>
      </trkpt>
      <trkpt lat="48.4613" lon="-2.75683">
        <ele>87.800003051758</ele>
        <time>2022-09-04T07:26:08.000Z</time>
      </trkpt>
      <trkpt lat="48.46126" lon="-2.75685">
        <ele>88</ele>
        <time>2022-09-04T07:26:09.000Z</time>
      </trkpt>
      <trkpt lat="48.46122" lon="-2.75686">
        <ele>88.400001525879</ele>
        <time>2022-09-04T07:26:10.000Z</time>
      </trkpt>
      <trkpt lat="48.46117" lon="-2.75687">
        <ele>88.599998474121</ele>
        <time>2022-09-04T07:26:11.000Z</time>
      </trkpt>
      <trkpt lat="48.46112" lon="-2.75689">
        <ele>88.800003051758</ele>
        <time>2022-09-04T07:26:12.000Z</time>
      </trkpt>
      <trkpt lat="48.46107" lon="-2.75692">
        <ele>89</ele>
        <time>2022-09-04T07:26:13.000Z</time>
      </trkpt>
      <trkpt lat="48.46103" lon="-2.75695">
        <ele>89.199996948242</ele>
        <time>2022-09-04T07:26:14.000Z</time>
      </trkpt>
      <trkpt lat="48.461" lon="-2.75697">
        <ele>89.400001525879</ele>
        <time>2022-09-04T07:26:15.000Z</time>
      </trkpt>
      <trkpt lat="48.46095" lon="-2.75698">
        <ele>89.400001525879</ele>
        <time>2022-09-04T07:26:16.000Z</time>
      </trkpt>
      <trkpt lat="48.4609" lon="-2.757">
        <ele>89.599998474121</ele>
        <time>2022-09-04T07:26:17.000Z</time>
      </trkpt>
      <trkpt lat="48.46086" lon="-2.75702">
        <ele>89.599998474121</ele>
        <time>2022-09-04T07:26:18.000Z</time>
      </trkpt>
      <trkpt lat="48.46083" lon="-2.75703">
        <ele>89.599998474121</ele>
        <time>2022-09-04T07:26:19.000Z</time>
      </trkpt>
      <trkpt lat="48.46078" lon="-2.75703">
        <ele>89.800003051758</ele>
        <time>2022-09-04T07:26:20.000Z</time>
      </trkpt>
      <trkpt lat="48.46074" lon="-2.75704">
        <ele>89.800003051758</ele>
        <time>2022-09-04T07:26:21.000Z</time>
      </trkpt>
      <trkpt lat="48.46069" lon="-2.75703">
        <ele>90</ele>
        <time>2022-09-04T07:26:22.000Z</time>
      </trkpt>
      <trkpt lat="48.46063" lon="-2.75702">
        <ele>90</ele>
        <time>2022-09-04T07:26:23.000Z</time>
      </trkpt>
      <trkpt lat="48.46061" lon="-2.75702">
        <ele>90.199996948242</ele>
        <time>2022-09-04T07:26:24.000Z</time>
      </trkpt>
      <trkpt lat="48.46059" lon="-2.75703">
        <ele>90.400001525879</ele>
        <time>2022-09-04T07:26:25.000Z</time>
      </trkpt>
      <trkpt lat="48.46054" lon="-2.75702">
        <ele>90.599998474121</ele>
        <time>2022-09-04T07:26:26.000Z</time>
      </trkpt>
      <trkpt lat="48.46049" lon="-2.75701">
        <ele>90.800003051758</ele>
        <time>2022-09-04T07:26:27.000Z</time>
      </trkpt>
      <trkpt lat="48.46044" lon="-2.75699">
        <ele>91.199996948242</ele>
        <time>2022-09-04T07:26:28.000Z</time>
      </trkpt>
      <trkpt lat="48.46041" lon="-2.75699">
        <ele>91.199996948242</ele>
        <time>2022-09-04T07:26:29.000Z</time>
      </trkpt>
      <trkpt lat="48.46038" lon="-2.75699">
        <ele>91.400001525879</ele>
        <time>2022-09-04T07:26:30.000Z</time>
      </trkpt>
      <trkpt lat="48.46034" lon="-2.75699">
        <ele>91.599998474121</ele>
        <time>2022-09-04T07:26:31.000Z</time>
      </trkpt>
      <trkpt lat="48.46031" lon="-2.75699">
        <ele>92</ele>
        <time>2022-09-04T07:26:32.000Z</time>
      </trkpt>
      <trkpt lat="48.46028" lon="-2.75699">
        <ele>92.199996948242</ele>
        <time>2022-09-04T07:26:33.000Z</time>
      </trkpt>
      <trkpt lat="48.46026" lon="-2.757">
        <ele>92.599998474121</ele>
        <time>2022-09-04T07:26:34.000Z</time>
      </trkpt>
      <trkpt lat="48.46022" lon="-2.757">
        <ele>92.800003051758</ele>
        <time>2022-09-04T07:26:35.000Z</time>
      </trkpt>
      <trkpt lat="48.46019" lon="-2.75701">
        <ele>93</ele>
        <time>2022-09-04T07:26:36.000Z</time>
      </trkpt>
      <trkpt lat="48.46017" lon="-2.75702">
        <ele>93.199996948242</ele>
        <time>2022-09-04T07:26:37.000Z</time>
      </trkpt>
      <trkpt lat="48.46014" lon="-2.75701">
        <ele>93.400001525879</ele>
        <time>2022-09-04T07:26:38.000Z</time>
      </trkpt>
      <trkpt lat="48.46012" lon="-2.757">
        <ele>93.599998474121</ele>
        <time>2022-09-04T07:26:39.000Z</time>
      </trkpt>
      <trkpt lat="48.46009" lon="-2.757">
        <ele>93.800003051758</ele>
        <time>2022-09-04T07:26:40.000Z</time>
      </trkpt>
      <trkpt lat="48.46007" lon="-2.75701">
        <ele>94</ele>
        <time>2022-09-04T07:26:41.000Z</time>
      </trkpt>
      <trkpt lat="48.46004" lon="-2.75701">
        <ele>94.199996948242</ele>
        <time>2022-09-04T07:26:42.000Z</time>
      </trkpt>
      <trkpt lat="48.46001" lon="-2.75702">
        <ele>94.599998474121</ele>
        <time>2022-09-04T07:26:43.000Z</time>
      </trkpt>
      <trkpt lat="48.45998" lon="-2.75703">
        <ele>94.800003051758</ele>
        <time>2022-09-04T07:26:44.000Z</time>
      </trkpt>
      <trkpt lat="48.45995" lon="-2.75703">
        <ele>95.199996948242</ele>
        <time>2022-09-04T07:26:45.000Z</time>
      </trkpt>
      <trkpt lat="48.45991" lon="-2.75704">
        <ele>95.599998474121</ele>
        <time>2022-09-04T07:26:46.000Z</time>
      </trkpt>
      <trkpt lat="48.45988" lon="-2.75705">
        <ele>96</ele>
        <time>2022-09-04T07:26:47.000Z</time>
      </trkpt>
      <trkpt lat="48.45985" lon="-2.75707">
        <ele>96.199996948242</ele>
        <time>2022-09-04T07:26:48.000Z</time>
      </trkpt>
      <trkpt lat="48.45981" lon="-2.75709">
        <ele>96.400001525879</ele>
        <time>2022-09-04T07:26:49.000Z</time>
      </trkpt>
      <trkpt lat="48.45978" lon="-2.75711">
        <ele>96.599998474121</ele>
        <time>2022-09-04T07:26:50.000Z</time>
      </trkpt>
      <trkpt lat="48.45975" lon="-2.75713">
        <ele>96.599998474121</ele>
        <time>2022-09-04T07:26:51.000Z</time>
      </trkpt>
      <trkpt lat="48.45972" lon="-2.75714">
        <ele>96.800003051758</ele>
        <time>2022-09-04T07:26:52.000Z</time>
      </trkpt>
      <trkpt lat="48.45969" lon="-2.75717">
        <ele>96.800003051758</ele>
        <time>2022-09-04T07:26:53.000Z</time>
      </trkpt>
      <trkpt lat="48.45966" lon="-2.75721">
        <ele>96.800003051758</ele>
        <time>2022-09-04T07:26:54.000Z</time>
      </trkpt>
      <trkpt lat="48.45962" lon="-2.75724">
        <ele>96.800003051758</ele>
        <time>2022-09-04T07:26:55.000Z</time>
      </trkpt>
      <trkpt lat="48.45959" lon="-2.75727">
        <ele>96.800003051758</ele>
        <time>2022-09-04T07:26:56.000Z</time>
      </trkpt>
      <trkpt lat="48.45955" lon="-2.7573">
        <ele>96.800003051758</ele>
        <time>2022-09-04T07:26:57.000Z</time>
      </trkpt>
      <trkpt lat="48.45952" lon="-2.75731">
        <ele>96.800003051758</ele>
        <time>2022-09-04T07:26:58.000Z</time>
      </trkpt>
      <trkpt lat="48.45949" lon="-2.75732">
        <ele>96.800003051758</ele>
        <time>2022-09-04T07:26:59.000Z</time>
      </trkpt>
      <trkpt lat="48.45945" lon="-2.75732">
        <ele>96.800003051758</ele>
        <time>2022-09-04T07:27:00.000Z</time>
      </trkpt>
      <trkpt lat="48.45941" lon="-2.75732">
        <ele>96.599998474121</ele>
        <time>2022-09-04T07:27:01.000Z</time>
      </trkpt>
      <trkpt lat="48.45937" lon="-2.75733">
        <ele>96.400001525879</ele>
        <time>2022-09-04T07:27:02.000Z</time>
      </trkpt>
      <trkpt lat="48.45933" lon="-2.75734">
        <ele>96.199996948242</ele>
        <time>2022-09-04T07:27:03.000Z</time>
      </trkpt>
      <trkpt lat="48.45931" lon="-2.75737">
        <ele>96.199996948242</ele>
        <time>2022-09-04T07:27:04.000Z</time>
      </trkpt>
      <trkpt lat="48.45931" lon="-2.75743">
        <ele>96</ele>
        <time>2022-09-04T07:27:05.000Z</time>
      </trkpt>
      <trkpt lat="48.4593" lon="-2.7575">
        <ele>95.800003051758</ele>
        <time>2022-09-04T07:27:06.000Z</time>
      </trkpt>
      <trkpt lat="48.45928" lon="-2.7576">
        <ele>95.400001525879</ele>
        <time>2022-09-04T07:27:07.000Z</time>
      </trkpt>
      <trkpt lat="48.45926" lon="-2.75768">
        <ele>95.400001525879</ele>
        <time>2022-09-04T07:27:08.000Z</time>
      </trkpt>
      <trkpt lat="48.45922" lon="-2.75787">
        <ele>95.199996948242</ele>
        <time>2022-09-04T07:27:10.000Z</time>
      </trkpt>
      <trkpt lat="48.4592" lon="-2.75798">
        <ele>94</ele>
        <time>2022-09-04T07:27:11.000Z</time>
      </trkpt>
      <trkpt lat="48.4592" lon="-2.75808">
        <ele>93.400001525879</ele>
        <time>2022-09-04T07:27:12.000Z</time>
      </trkpt>
      <trkpt lat="48.45912" lon="-2.75829">
        <ele>92.199996948242</ele>
        <time>2022-09-04T07:27:14.000Z</time>
      </trkpt>
      <trkpt lat="48.45908" lon="-2.75836">
        <ele>92</ele>
        <time>2022-09-04T07:27:15.000Z</time>
      </trkpt>
      <trkpt lat="48.45903" lon="-2.75841">
        <ele>91.400001525879</ele>
        <time>2022-09-04T07:27:16.000Z</time>
      </trkpt>
      <trkpt lat="48.45898" lon="-2.75845">
        <ele>91.400001525879</ele>
        <time>2022-09-04T07:27:17.000Z</time>
      </trkpt>
      <trkpt lat="48.45891" lon="-2.75845">
        <ele>91</ele>
        <time>2022-09-04T07:27:18.000Z</time>
      </trkpt>
      <trkpt lat="48.45885" lon="-2.75845">
        <ele>91</ele>
        <time>2022-09-04T07:27:19.000Z</time>
      </trkpt>
      <trkpt lat="48.45877" lon="-2.75843">
        <ele>90.400001525879</ele>
        <time>2022-09-04T07:27:20.000Z</time>
      </trkpt>
      <trkpt lat="48.45872" lon="-2.75843">
        <ele>90.199996948242</ele>
        <time>2022-09-04T07:27:21.000Z</time>
      </trkpt>
      <trkpt lat="48.45865" lon="-2.75842">
        <ele>89.800003051758</ele>
        <time>2022-09-04T07:27:22.000Z</time>
      </trkpt>
      <trkpt lat="48.45858" lon="-2.75841">
        <ele>89.599998474121</ele>
        <time>2022-09-04T07:27:23.000Z</time>
      </trkpt>
      <trkpt lat="48.45852" lon="-2.7584">
        <ele>89.599998474121</ele>
        <time>2022-09-04T07:27:24.000Z</time>
      </trkpt>
      <trkpt lat="48.45845" lon="-2.75838">
        <ele>89.400001525879</ele>
        <time>2022-09-04T07:27:25.000Z</time>
      </trkpt>
      <trkpt lat="48.45841" lon="-2.75837">
        <ele>89.400001525879</ele>
        <time>2022-09-04T07:27:26.000Z</time>
      </trkpt>
      <trkpt lat="48.45836" lon="-2.75834">
        <ele>89.400001525879</ele>
        <time>2022-09-04T07:27:27.000Z</time>
      </trkpt>
      <trkpt lat="48.45832" lon="-2.75832">
        <ele>89.400001525879</ele>
        <time>2022-09-04T07:27:28.000Z</time>
      </trkpt>
      <trkpt lat="48.45828" lon="-2.75832">
        <ele>89.400001525879</ele>
        <time>2022-09-04T07:27:29.000Z</time>
      </trkpt>
      <trkpt lat="48.45827" lon="-2.75834">
        <ele>89.400001525879</ele>
        <time>2022-09-04T07:27:30.000Z</time>
      </trkpt>
      <trkpt lat="48.45828" lon="-2.75847">
        <ele>89.199996948242</ele>
        <time>2022-09-04T07:27:32.000Z</time>
      </trkpt>
      <trkpt lat="48.4583" lon="-2.75866">
        <ele>89</ele>
        <time>2022-09-04T07:27:34.000Z</time>
      </trkpt>
      <trkpt lat="48.45832" lon="-2.75895">
        <ele>88.599998474121</ele>
        <time>2022-09-04T07:27:37.000Z</time>
      </trkpt>
      <trkpt lat="48.45834" lon="-2.75927">
        <ele>87.400001525879</ele>
        <time>2022-09-04T07:27:40.000Z</time>
      </trkpt>
      <trkpt lat="48.45834" lon="-2.75936">
        <ele>87</ele>
        <time>2022-09-04T07:27:41.000Z</time>
      </trkpt>
      <trkpt lat="48.45833" lon="-2.75943">
        <ele>86.599998474121</ele>
        <time>2022-09-04T07:27:42.000Z</time>
      </trkpt>
      <trkpt lat="48.45833" lon="-2.75951">
        <ele>86.400001525879</ele>
        <time>2022-09-04T07:27:43.000Z</time>
      </trkpt>
      <trkpt lat="48.45833" lon="-2.75958">
        <ele>85.800003051758</ele>
        <time>2022-09-04T07:27:44.000Z</time>
      </trkpt>
      <trkpt lat="48.4583" lon="-2.75964">
        <ele>85</ele>
        <time>2022-09-04T07:27:45.000Z</time>
      </trkpt>
      <trkpt lat="48.45828" lon="-2.75968">
        <ele>84.800003051758</ele>
        <time>2022-09-04T07:27:46.000Z</time>
      </trkpt>
      <trkpt lat="48.45825" lon="-2.75971">
        <ele>84.400001525879</ele>
        <time>2022-09-04T07:27:47.000Z</time>
      </trkpt>
      <trkpt lat="48.45824" lon="-2.75974">
        <ele>84.199996948242</ele>
        <time>2022-09-04T07:27:48.000Z</time>
      </trkpt>
      <trkpt lat="48.45824" lon="-2.75977">
        <ele>83.599998474121</ele>
        <time>2022-09-04T07:27:49.000Z</time>
      </trkpt>
      <trkpt lat="48.45824" lon="-2.75981">
        <ele>83.599998474121</ele>
        <time>2022-09-04T07:27:50.000Z</time>
      </trkpt>
      <trkpt lat="48.45824" lon="-2.75986">
        <ele>83.400001525879</ele>
        <time>2022-09-04T07:27:51.000Z</time>
      </trkpt>
      <trkpt lat="48.45826" lon="-2.75993">
        <ele>83.400001525879</ele>
        <time>2022-09-04T07:27:52.000Z</time>
      </trkpt>
      <trkpt lat="48.45827" lon="-2.76">
        <ele>82.800003051758</ele>
        <time>2022-09-04T07:27:53.000Z</time>
      </trkpt>
      <trkpt lat="48.45828" lon="-2.76015">
        <ele>82.400001525879</ele>
        <time>2022-09-04T07:27:55.000Z</time>
      </trkpt>
      <trkpt lat="48.45829" lon="-2.76033">
        <ele>82.199996948242</ele>
        <time>2022-09-04T07:27:57.000Z</time>
      </trkpt>
      <trkpt lat="48.45829" lon="-2.76037">
        <ele>81.599998474121</ele>
        <time>2022-09-04T07:27:58.000Z</time>
      </trkpt>
      <trkpt lat="48.45828" lon="-2.7604">
        <ele>81.400001525879</ele>
        <time>2022-09-04T07:27:59.000Z</time>
      </trkpt>
      <trkpt lat="48.45826" lon="-2.76041">
        <ele>80.599998474121</ele>
        <time>2022-09-04T07:28:00.000Z</time>
      </trkpt>
      <trkpt lat="48.45823" lon="-2.7604">
        <ele>80.199996948242</ele>
        <time>2022-09-04T07:28:01.000Z</time>
      </trkpt>
      <trkpt lat="48.4582" lon="-2.7604">
        <ele>80</ele>
        <time>2022-09-04T07:28:02.000Z</time>
      </trkpt>
      <trkpt lat="48.45817" lon="-2.76041">
        <ele>79.800003051758</ele>
        <time>2022-09-04T07:28:03.000Z</time>
      </trkpt>
      <trkpt lat="48.45815" lon="-2.76044">
        <ele>79.800003051758</ele>
        <time>2022-09-04T07:28:04.000Z</time>
      </trkpt>
      <trkpt lat="48.45811" lon="-2.76048">
        <ele>79.800003051758</ele>
        <time>2022-09-04T07:28:05.000Z</time>
      </trkpt>
      <trkpt lat="48.45807" lon="-2.76052">
        <ele>79.800003051758</ele>
        <time>2022-09-04T07:28:06.000Z</time>
      </trkpt>
      <trkpt lat="48.45803" lon="-2.76057">
        <ele>79.800003051758</ele>
        <time>2022-09-04T07:28:07.000Z</time>
      </trkpt>
      <trkpt lat="48.45801" lon="-2.76062">
        <ele>79.800003051758</ele>
        <time>2022-09-04T07:28:08.000Z</time>
      </trkpt>
      <trkpt lat="48.45799" lon="-2.76067">
        <ele>79.800003051758</ele>
        <time>2022-09-04T07:28:09.000Z</time>
      </trkpt>
      <trkpt lat="48.45797" lon="-2.76073">
        <ele>79.800003051758</ele>
        <time>2022-09-04T07:28:10.000Z</time>
      </trkpt>
      <trkpt lat="48.45794" lon="-2.76079">
        <ele>79.800003051758</ele>
        <time>2022-09-04T07:28:11.000Z</time>
      </trkpt>
      <trkpt lat="48.45791" lon="-2.76083">
        <ele>79.800003051758</ele>
        <time>2022-09-04T07:28:12.000Z</time>
      </trkpt>
      <trkpt lat="48.45787" lon="-2.76087">
        <ele>80</ele>
        <time>2022-09-04T07:28:13.000Z</time>
      </trkpt>
      <trkpt lat="48.45782" lon="-2.76091">
        <ele>80</ele>
        <time>2022-09-04T07:28:14.000Z</time>
      </trkpt>
      <trkpt lat="48.45778" lon="-2.76093">
        <ele>80.199996948242</ele>
        <time>2022-09-04T07:28:15.000Z</time>
      </trkpt>
      <trkpt lat="48.45774" lon="-2.76096">
        <ele>80.199996948242</ele>
        <time>2022-09-04T07:28:16.000Z</time>
      </trkpt>
      <trkpt lat="48.45765" lon="-2.76101">
        <ele>80.400001525879</ele>
        <time>2022-09-04T07:28:18.000Z</time>
      </trkpt>
      <trkpt lat="48.45762" lon="-2.76103">
        <ele>80.400001525879</ele>
        <time>2022-09-04T07:28:19.000Z</time>
      </trkpt>
      <trkpt lat="48.4576" lon="-2.76105">
        <ele>80.400001525879</ele>
        <time>2022-09-04T07:28:20.000Z</time>
      </trkpt>
      <trkpt lat="48.45757" lon="-2.76106">
        <ele>80.400001525879</ele>
        <time>2022-09-04T07:28:21.000Z</time>
      </trkpt>
      <trkpt lat="48.45753" lon="-2.76105">
        <ele>80.400001525879</ele>
        <time>2022-09-04T07:28:22.000Z</time>
      </trkpt>
      <trkpt lat="48.45749" lon="-2.76105">
        <ele>80.400001525879</ele>
        <time>2022-09-04T07:28:23.000Z</time>
      </trkpt>
      <trkpt lat="48.45744" lon="-2.76107">
        <ele>80.400001525879</ele>
        <time>2022-09-04T07:28:24.000Z</time>
      </trkpt>
      <trkpt lat="48.45741" lon="-2.76107">
        <ele>80.599998474121</ele>
        <time>2022-09-04T07:28:25.000Z</time>
      </trkpt>
      <trkpt lat="48.45736" lon="-2.76109">
        <ele>80.599998474121</ele>
        <time>2022-09-04T07:28:26.000Z</time>
      </trkpt>
      <trkpt lat="48.45726" lon="-2.76111">
        <ele>81</ele>
        <time>2022-09-04T07:28:28.000Z</time>
      </trkpt>
      <trkpt lat="48.45724" lon="-2.76114">
        <ele>81.400001525879</ele>
        <time>2022-09-04T07:28:29.000Z</time>
      </trkpt>
      <trkpt lat="48.45721" lon="-2.76117">
        <ele>81.599998474121</ele>
        <time>2022-09-04T07:28:30.000Z</time>
      </trkpt>
      <trkpt lat="48.45716" lon="-2.76119">
        <ele>82</ele>
        <time>2022-09-04T07:28:31.000Z</time>
      </trkpt>
      <trkpt lat="48.45713" lon="-2.76122">
        <ele>82</ele>
        <time>2022-09-04T07:28:32.000Z</time>
      </trkpt>
      <trkpt lat="48.45713" lon="-2.76124">
        <ele>82.400001525879</ele>
        <time>2022-09-04T07:28:33.000Z</time>
      </trkpt>
      <trkpt lat="48.45711" lon="-2.76125">
        <ele>82.800003051758</ele>
        <time>2022-09-04T07:28:34.000Z</time>
      </trkpt>
      <trkpt lat="48.45703" lon="-2.76131">
        <ele>83.199996948242</ele>
        <time>2022-09-04T07:28:37.000Z</time>
      </trkpt>
      <trkpt lat="48.457" lon="-2.76131">
        <ele>83.199996948242</ele>
        <time>2022-09-04T07:28:38.000Z</time>
      </trkpt>
      <trkpt lat="48.45698" lon="-2.76135">
        <ele>83.400001525879</ele>
        <time>2022-09-04T07:28:39.000Z</time>
      </trkpt>
      <trkpt lat="48.45696" lon="-2.76136">
        <ele>83.800003051758</ele>
        <time>2022-09-04T07:28:40.000Z</time>
      </trkpt>
      <trkpt lat="48.45695" lon="-2.76139">
        <ele>84</ele>
        <time>2022-09-04T07:28:41.000Z</time>
      </trkpt>
      <trkpt lat="48.45693" lon="-2.76142">
        <ele>84.400001525879</ele>
        <time>2022-09-04T07:28:42.000Z</time>
      </trkpt>
      <trkpt lat="48.45693" lon="-2.76145">
        <ele>84.599998474121</ele>
        <time>2022-09-04T07:28:43.000Z</time>
      </trkpt>
      <trkpt lat="48.45692" lon="-2.7615">
        <ele>84.800003051758</ele>
        <time>2022-09-04T07:28:44.000Z</time>
      </trkpt>
      <trkpt lat="48.45696" lon="-2.76155">
        <ele>84.800003051758</ele>
        <time>2022-09-04T07:28:45.000Z</time>
      </trkpt>
      <trkpt lat="48.45698" lon="-2.76161">
        <ele>84.800003051758</ele>
        <time>2022-09-04T07:28:46.000Z</time>
      </trkpt>
      <trkpt lat="48.45699" lon="-2.76166">
        <ele>84.800003051758</ele>
        <time>2022-09-04T07:28:47.000Z</time>
      </trkpt>
      <trkpt lat="48.45699" lon="-2.76172">
        <ele>84.800003051758</ele>
        <time>2022-09-04T07:28:48.000Z</time>
      </trkpt>
      <trkpt lat="48.45701" lon="-2.76179">
        <ele>84.800003051758</ele>
        <time>2022-09-04T07:28:49.000Z</time>
      </trkpt>
      <trkpt lat="48.45705" lon="-2.76186">
        <ele>84.800003051758</ele>
        <time>2022-09-04T07:28:50.000Z</time>
      </trkpt>
      <trkpt lat="48.45709" lon="-2.76191">
        <ele>84.800003051758</ele>
        <time>2022-09-04T07:28:51.000Z</time>
      </trkpt>
      <trkpt lat="48.45713" lon="-2.76194">
        <ele>84.599998474121</ele>
        <time>2022-09-04T07:28:52.000Z</time>
      </trkpt>
      <trkpt lat="48.45717" lon="-2.76192">
        <ele>83.800003051758</ele>
        <time>2022-09-04T07:28:53.000Z</time>
      </trkpt>
      <trkpt lat="48.45721" lon="-2.7619">
        <ele>83.400001525879</ele>
        <time>2022-09-04T07:28:54.000Z</time>
      </trkpt>
      <trkpt lat="48.45726" lon="-2.76187">
        <ele>82.400001525879</ele>
        <time>2022-09-04T07:28:55.000Z</time>
      </trkpt>
      <trkpt lat="48.45732" lon="-2.76185">
        <ele>82</ele>
        <time>2022-09-04T07:28:56.000Z</time>
      </trkpt>
      <trkpt lat="48.45737" lon="-2.76185">
        <ele>81.800003051758</ele>
        <time>2022-09-04T07:28:57.000Z</time>
      </trkpt>
      <trkpt lat="48.45741" lon="-2.76185">
        <ele>81.400001525879</ele>
        <time>2022-09-04T07:28:58.000Z</time>
      </trkpt>
      <trkpt lat="48.45751" lon="-2.76185">
        <ele>81.199996948242</ele>
        <time>2022-09-04T07:29:00.000Z</time>
      </trkpt>
      <trkpt lat="48.45753" lon="-2.76186">
        <ele>80.800003051758</ele>
        <time>2022-09-04T07:29:01.000Z</time>
      </trkpt>
      <trkpt lat="48.45752" lon="-2.76188">
        <ele>79.800003051758</ele>
        <time>2022-09-04T07:29:02.000Z</time>
      </trkpt>
      <trkpt lat="48.45751" lon="-2.76196">
        <ele>79.199996948242</ele>
        <time>2022-09-04T07:29:04.000Z</time>
      </trkpt>
      <trkpt lat="48.4575" lon="-2.76199">
        <ele>79.199996948242</ele>
        <time>2022-09-04T07:29:05.000Z</time>
      </trkpt>
      <trkpt lat="48.45749" lon="-2.76205">
        <ele>79.199996948242</ele>
        <time>2022-09-04T07:29:06.000Z</time>
      </trkpt>
      <trkpt lat="48.45747" lon="-2.76209">
        <ele>78.800003051758</ele>
        <time>2022-09-04T07:29:07.000Z</time>
      </trkpt>
      <trkpt lat="48.45744" lon="-2.76215">
        <ele>78.599998474121</ele>
        <time>2022-09-04T07:29:08.000Z</time>
      </trkpt>
      <trkpt lat="48.45741" lon="-2.7622">
        <ele>78.599998474121</ele>
        <time>2022-09-04T07:29:09.000Z</time>
      </trkpt>
      <trkpt lat="48.45738" lon="-2.76225">
        <ele>78.599998474121</ele>
        <time>2022-09-04T07:29:10.000Z</time>
      </trkpt>
      <trkpt lat="48.45727" lon="-2.7624">
        <ele>78.199996948242</ele>
        <time>2022-09-04T07:29:14.000Z</time>
      </trkpt>
      <trkpt lat="48.45711" lon="-2.76269">
        <ele>78.199996948242</ele>
        <time>2022-09-04T07:29:19.000Z</time>
      </trkpt>
      <trkpt lat="48.45708" lon="-2.76275">
        <ele>78.400001525879</ele>
        <time>2022-09-04T07:29:20.000Z</time>
      </trkpt>
      <trkpt lat="48.45705" lon="-2.7628">
        <ele>78.599998474121</ele>
        <time>2022-09-04T07:29:21.000Z</time>
      </trkpt>
      <trkpt lat="48.45696" lon="-2.76296">
        <ele>79</ele>
        <time>2022-09-04T07:29:24.000Z</time>
      </trkpt>
      <trkpt lat="48.45691" lon="-2.76303">
        <ele>79.199996948242</ele>
        <time>2022-09-04T07:29:25.000Z</time>
      </trkpt>
      <trkpt lat="48.45688" lon="-2.76309">
        <ele>79.400001525879</ele>
        <time>2022-09-04T07:29:26.000Z</time>
      </trkpt>
      <trkpt lat="48.45685" lon="-2.76314">
        <ele>79.599998474121</ele>
        <time>2022-09-04T07:29:27.000Z</time>
      </trkpt>
      <trkpt lat="48.45678" lon="-2.76326">
        <ele>79.800003051758</ele>
        <time>2022-09-04T07:29:29.000Z</time>
      </trkpt>
      <trkpt lat="48.45672" lon="-2.76333">
        <ele>79.800003051758</ele>
        <time>2022-09-04T07:29:30.000Z</time>
      </trkpt>
      <trkpt lat="48.45668" lon="-2.7634">
        <ele>79.800003051758</ele>
        <time>2022-09-04T07:29:31.000Z</time>
      </trkpt>
      <trkpt lat="48.45663" lon="-2.76346">
        <ele>80</ele>
        <time>2022-09-04T07:29:32.000Z</time>
      </trkpt>
      <trkpt lat="48.45658" lon="-2.76352">
        <ele>80</ele>
        <time>2022-09-04T07:29:33.000Z</time>
      </trkpt>
      <trkpt lat="48.45653" lon="-2.76358">
        <ele>80</ele>
        <time>2022-09-04T07:29:34.000Z</time>
      </trkpt>
      <trkpt lat="48.4565" lon="-2.76364">
        <ele>79.800003051758</ele>
        <time>2022-09-04T07:29:35.000Z</time>
      </trkpt>
      <trkpt lat="48.45644" lon="-2.76374">
        <ele>79.599998474121</ele>
        <time>2022-09-04T07:29:37.000Z</time>
      </trkpt>
      <trkpt lat="48.45642" lon="-2.7638">
        <ele>79.599998474121</ele>
        <time>2022-09-04T07:29:38.000Z</time>
      </trkpt>
      <trkpt lat="48.45639" lon="-2.76386">
        <ele>79.599998474121</ele>
        <time>2022-09-04T07:29:39.000Z</time>
      </trkpt>
      <trkpt lat="48.45636" lon="-2.76392">
        <ele>79.599998474121</ele>
        <time>2022-09-04T07:29:40.000Z</time>
      </trkpt>
      <trkpt lat="48.45634" lon="-2.76398">
        <ele>79.599998474121</ele>
        <time>2022-09-04T07:29:41.000Z</time>
      </trkpt>
      <trkpt lat="48.45631" lon="-2.76404">
        <ele>79.599998474121</ele>
        <time>2022-09-04T07:29:42.000Z</time>
      </trkpt>
      <trkpt lat="48.45627" lon="-2.76419">
        <ele>79.599998474121</ele>
        <time>2022-09-04T07:29:44.000Z</time>
      </trkpt>
      <trkpt lat="48.45621" lon="-2.76427">
        <ele>79.599998474121</ele>
        <time>2022-09-04T07:29:45.000Z</time>
      </trkpt>
      <trkpt lat="48.45617" lon="-2.7643">
        <ele>79.599998474121</ele>
        <time>2022-09-04T07:29:46.000Z</time>
      </trkpt>
      <trkpt lat="48.45613" lon="-2.76432">
        <ele>79.599998474121</ele>
        <time>2022-09-04T07:29:47.000Z</time>
      </trkpt>
      <trkpt lat="48.45609" lon="-2.76435">
        <ele>79.400001525879</ele>
        <time>2022-09-04T07:29:48.000Z</time>
      </trkpt>
      <trkpt lat="48.45606" lon="-2.76439">
        <ele>79.400001525879</ele>
        <time>2022-09-04T07:29:49.000Z</time>
      </trkpt>
      <trkpt lat="48.456" lon="-2.7645">
        <ele>79.599998474121</ele>
        <time>2022-09-04T07:29:51.000Z</time>
      </trkpt>
      <trkpt lat="48.45596" lon="-2.76456">
        <ele>79.599998474121</ele>
        <time>2022-09-04T07:29:52.000Z</time>
      </trkpt>
      <trkpt lat="48.4559" lon="-2.76464">
        <ele>79.599998474121</ele>
        <time>2022-09-04T07:29:53.000Z</time>
      </trkpt>
      <trkpt lat="48.45586" lon="-2.7647">
        <ele>79.800003051758</ele>
        <time>2022-09-04T07:29:54.000Z</time>
      </trkpt>
      <trkpt lat="48.45583" lon="-2.76476">
        <ele>79.800003051758</ele>
        <time>2022-09-04T07:29:55.000Z</time>
      </trkpt>
      <trkpt lat="48.4558" lon="-2.76481">
        <ele>80</ele>
        <time>2022-09-04T07:29:56.000Z</time>
      </trkpt>
      <trkpt lat="48.45574" lon="-2.76485">
        <ele>80</ele>
        <time>2022-09-04T07:29:57.000Z</time>
      </trkpt>
      <trkpt lat="48.4557" lon="-2.76492">
        <ele>80</ele>
        <time>2022-09-04T07:29:58.000Z</time>
      </trkpt>
      <trkpt lat="48.45566" lon="-2.76498">
        <ele>80.400001525879</ele>
        <time>2022-09-04T07:29:59.000Z</time>
      </trkpt>
      <trkpt lat="48.45561" lon="-2.7651">
        <ele>80.599998474121</ele>
        <time>2022-09-04T07:30:01.000Z</time>
      </trkpt>
      <trkpt lat="48.45557" lon="-2.76516">
        <ele>80.800003051758</ele>
        <time>2022-09-04T07:30:02.000Z</time>
      </trkpt>
      <trkpt lat="48.45551" lon="-2.76523">
        <ele>80.800003051758</ele>
        <time>2022-09-04T07:30:03.000Z</time>
      </trkpt>
      <trkpt lat="48.45547" lon="-2.7653">
        <ele>80.800003051758</ele>
        <time>2022-09-04T07:30:04.000Z</time>
      </trkpt>
      <trkpt lat="48.45545" lon="-2.76533">
        <ele>81</ele>
        <time>2022-09-04T07:30:05.000Z</time>
      </trkpt>
      <trkpt lat="48.45542" lon="-2.76534">
        <ele>81</ele>
        <time>2022-09-04T07:30:06.000Z</time>
      </trkpt>
      <trkpt lat="48.45539" lon="-2.76534">
        <ele>81.400001525879</ele>
        <time>2022-09-04T07:30:07.000Z</time>
      </trkpt>
      <trkpt lat="48.45537" lon="-2.76532">
        <ele>81.800003051758</ele>
        <time>2022-09-04T07:30:08.000Z</time>
      </trkpt>
      <trkpt lat="48.45535" lon="-2.7653">
        <ele>82</ele>
        <time>2022-09-04T07:30:09.000Z</time>
      </trkpt>
      <trkpt lat="48.45533" lon="-2.76528">
        <ele>82.199996948242</ele>
        <time>2022-09-04T07:30:10.000Z</time>
      </trkpt>
      <trkpt lat="48.45531" lon="-2.76525">
        <ele>82.199996948242</ele>
        <time>2022-09-04T07:30:11.000Z</time>
      </trkpt>
      <trkpt lat="48.45529" lon="-2.76522">
        <ele>83</ele>
        <time>2022-09-04T07:30:12.000Z</time>
      </trkpt>
      <trkpt lat="48.45527" lon="-2.76516">
        <ele>83.800003051758</ele>
        <time>2022-09-04T07:30:14.000Z</time>
      </trkpt>
      <trkpt lat="48.45525" lon="-2.76513">
        <ele>84</ele>
        <time>2022-09-04T07:30:15.000Z</time>
      </trkpt>
      <trkpt lat="48.45524" lon="-2.76509">
        <ele>84.400001525879</ele>
        <time>2022-09-04T07:30:16.000Z</time>
      </trkpt>
      <trkpt lat="48.45523" lon="-2.76506">
        <ele>84.800003051758</ele>
        <time>2022-09-04T07:30:17.000Z</time>
      </trkpt>
      <trkpt lat="48.45522" lon="-2.76504">
        <ele>85</ele>
        <time>2022-09-04T07:30:18.000Z</time>
      </trkpt>
      <trkpt lat="48.45521" lon="-2.76501">
        <ele>85</ele>
        <time>2022-09-04T07:30:19.000Z</time>
      </trkpt>
      <trkpt lat="48.45519" lon="-2.765">
        <ele>85.199996948242</ele>
        <time>2022-09-04T07:30:20.000Z</time>
      </trkpt>
      <trkpt lat="48.45518" lon="-2.76501">
        <ele>85.599998474121</ele>
        <time>2022-09-04T07:30:21.000Z</time>
      </trkpt>
      <trkpt lat="48.45516" lon="-2.76504">
        <ele>86</ele>
        <time>2022-09-04T07:30:22.000Z</time>
      </trkpt>
      <trkpt lat="48.45516" lon="-2.76507">
        <ele>86.400001525879</ele>
        <time>2022-09-04T07:30:23.000Z</time>
      </trkpt>
      <trkpt lat="48.45515" lon="-2.76511">
        <ele>86.599998474121</ele>
        <time>2022-09-04T07:30:24.000Z</time>
      </trkpt>
      <trkpt lat="48.45515" lon="-2.76514">
        <ele>87</ele>
        <time>2022-09-04T07:30:25.000Z</time>
      </trkpt>
      <trkpt lat="48.45514" lon="-2.76517">
        <ele>87.199996948242</ele>
        <time>2022-09-04T07:30:26.000Z</time>
      </trkpt>
      <trkpt lat="48.45514" lon="-2.7652">
        <ele>87.400001525879</ele>
        <time>2022-09-04T07:30:27.000Z</time>
      </trkpt>
      <trkpt lat="48.45514" lon="-2.76524">
        <ele>87.400001525879</ele>
        <time>2022-09-04T07:30:28.000Z</time>
      </trkpt>
      <trkpt lat="48.45514" lon="-2.76528">
        <ele>87.800003051758</ele>
        <time>2022-09-04T07:30:29.000Z</time>
      </trkpt>
      <trkpt lat="48.45514" lon="-2.76532">
        <ele>88</ele>
        <time>2022-09-04T07:30:30.000Z</time>
      </trkpt>
      <trkpt lat="48.45514" lon="-2.76537">
        <ele>88.199996948242</ele>
        <time>2022-09-04T07:30:31.000Z</time>
      </trkpt>
      <trkpt lat="48.45514" lon="-2.76543">
        <ele>88.199996948242</ele>
        <time>2022-09-04T07:30:32.000Z</time>
      </trkpt>
      <trkpt lat="48.45514" lon="-2.76549">
        <ele>88.199996948242</ele>
        <time>2022-09-04T07:30:33.000Z</time>
      </trkpt>
      <trkpt lat="48.45516" lon="-2.76556">
        <ele>88.400001525879</ele>
        <time>2022-09-04T07:30:34.000Z</time>
      </trkpt>
      <trkpt lat="48.45518" lon="-2.76563">
        <ele>88.199996948242</ele>
        <time>2022-09-04T07:30:35.000Z</time>
      </trkpt>
      <trkpt lat="48.45518" lon="-2.76567">
        <ele>88</ele>
        <time>2022-09-04T07:30:36.000Z</time>
      </trkpt>
      <trkpt lat="48.45517" lon="-2.76571">
        <ele>87.800003051758</ele>
        <time>2022-09-04T07:30:37.000Z</time>
      </trkpt>
      <trkpt lat="48.45515" lon="-2.76574">
        <ele>87.599998474121</ele>
        <time>2022-09-04T07:30:38.000Z</time>
      </trkpt>
      <trkpt lat="48.45513" lon="-2.76577">
        <ele>87.400001525879</ele>
        <time>2022-09-04T07:30:39.000Z</time>
      </trkpt>
      <trkpt lat="48.4551" lon="-2.7658">
        <ele>87.199996948242</ele>
        <time>2022-09-04T07:30:40.000Z</time>
      </trkpt>
      <trkpt lat="48.45506" lon="-2.76583">
        <ele>87</ele>
        <time>2022-09-04T07:30:41.000Z</time>
      </trkpt>
      <trkpt lat="48.45502" lon="-2.76586">
        <ele>86.800003051758</ele>
        <time>2022-09-04T07:30:42.000Z</time>
      </trkpt>
      <trkpt lat="48.45498" lon="-2.7659">
        <ele>86.800003051758</ele>
        <time>2022-09-04T07:30:43.000Z</time>
      </trkpt>
      <trkpt lat="48.45495" lon="-2.76594">
        <ele>86.599998474121</ele>
        <time>2022-09-04T07:30:44.000Z</time>
      </trkpt>
      <trkpt lat="48.45492" lon="-2.76598">
        <ele>86.599998474121</ele>
        <time>2022-09-04T07:30:45.000Z</time>
      </trkpt>
      <trkpt lat="48.4549" lon="-2.76602">
        <ele>86.800003051758</ele>
        <time>2022-09-04T07:30:46.000Z</time>
      </trkpt>
      <trkpt lat="48.45488" lon="-2.76607">
        <ele>87</ele>
        <time>2022-09-04T07:30:47.000Z</time>
      </trkpt>
      <trkpt lat="48.45485" lon="-2.76612">
        <ele>87</ele>
        <time>2022-09-04T07:30:48.000Z</time>
      </trkpt>
      <trkpt lat="48.45482" lon="-2.76616">
        <ele>87.400001525879</ele>
        <time>2022-09-04T07:30:49.000Z</time>
      </trkpt>
      <trkpt lat="48.4548" lon="-2.76617">
        <ele>87.400001525879</ele>
        <time>2022-09-04T07:30:50.000Z</time>
      </trkpt>
      <trkpt lat="48.45477" lon="-2.76619">
        <ele>87.800003051758</ele>
        <time>2022-09-04T07:30:51.000Z</time>
      </trkpt>
      <trkpt lat="48.45474" lon="-2.76622">
        <ele>87.800003051758</ele>
        <time>2022-09-04T07:30:52.000Z</time>
      </trkpt>
      <trkpt lat="48.45472" lon="-2.76625">
        <ele>88</ele>
        <time>2022-09-04T07:30:53.000Z</time>
      </trkpt>
      <trkpt lat="48.4547" lon="-2.7663">
        <ele>88</ele>
        <time>2022-09-04T07:30:54.000Z</time>
      </trkpt>
      <trkpt lat="48.45468" lon="-2.76636">
        <ele>88</ele>
        <time>2022-09-04T07:30:55.000Z</time>
      </trkpt>
      <trkpt lat="48.45466" lon="-2.76641">
        <ele>88.199996948242</ele>
        <time>2022-09-04T07:30:56.000Z</time>
      </trkpt>
      <trkpt lat="48.4546" lon="-2.76647">
        <ele>88.400001525879</ele>
        <time>2022-09-04T07:30:58.000Z</time>
      </trkpt>
      <trkpt lat="48.45458" lon="-2.76649">
        <ele>88.599998474121</ele>
        <time>2022-09-04T07:30:59.000Z</time>
      </trkpt>
      <trkpt lat="48.45455" lon="-2.7665">
        <ele>88.599998474121</ele>
        <time>2022-09-04T07:31:00.000Z</time>
      </trkpt>
      <trkpt lat="48.45451" lon="-2.76653">
        <ele>88.599998474121</ele>
        <time>2022-09-04T07:31:01.000Z</time>
      </trkpt>
      <trkpt lat="48.45448" lon="-2.76658">
        <ele>88.599998474121</ele>
        <time>2022-09-04T07:31:02.000Z</time>
      </trkpt>
      <trkpt lat="48.45445" lon="-2.76662">
        <ele>88.800003051758</ele>
        <time>2022-09-04T07:31:03.000Z</time>
      </trkpt>
      <trkpt lat="48.4544" lon="-2.76666">
        <ele>89</ele>
        <time>2022-09-04T07:31:05.000Z</time>
      </trkpt>
      <trkpt lat="48.45437" lon="-2.76669">
        <ele>89</ele>
        <time>2022-09-04T07:31:06.000Z</time>
      </trkpt>
      <trkpt lat="48.45434" lon="-2.76672">
        <ele>89.199996948242</ele>
        <time>2022-09-04T07:31:07.000Z</time>
      </trkpt>
      <trkpt lat="48.45432" lon="-2.76675">
        <ele>89.199996948242</ele>
        <time>2022-09-04T07:31:08.000Z</time>
      </trkpt>
      <trkpt lat="48.45423" lon="-2.76683">
        <ele>89.800003051758</ele>
        <time>2022-09-04T07:31:11.000Z</time>
      </trkpt>
      <trkpt lat="48.45417" lon="-2.7669">
        <ele>90.199996948242</ele>
        <time>2022-09-04T07:31:13.000Z</time>
      </trkpt>
      <trkpt lat="48.45413" lon="-2.76692">
        <ele>90.400001525879</ele>
        <time>2022-09-04T07:31:14.000Z</time>
      </trkpt>
      <trkpt lat="48.45406" lon="-2.76697">
        <ele>90.800003051758</ele>
        <time>2022-09-04T07:31:16.000Z</time>
      </trkpt>
      <trkpt lat="48.45401" lon="-2.767">
        <ele>91.199996948242</ele>
        <time>2022-09-04T07:31:17.000Z</time>
      </trkpt>
      <trkpt lat="48.45397" lon="-2.76703">
        <ele>91.400001525879</ele>
        <time>2022-09-04T07:31:18.000Z</time>
      </trkpt>
      <trkpt lat="48.45393" lon="-2.76706">
        <ele>91.599998474121</ele>
        <time>2022-09-04T07:31:19.000Z</time>
      </trkpt>
      <trkpt lat="48.4539" lon="-2.76708">
        <ele>91.800003051758</ele>
        <time>2022-09-04T07:31:20.000Z</time>
      </trkpt>
      <trkpt lat="48.4539" lon="-2.76711">
        <ele>91.800003051758</ele>
        <time>2022-09-04T07:31:21.000Z</time>
      </trkpt>
      <trkpt lat="48.45388" lon="-2.76713">
        <ele>91.800003051758</ele>
        <time>2022-09-04T07:31:22.000Z</time>
      </trkpt>
      <trkpt lat="48.45386" lon="-2.76714">
        <ele>91.800003051758</ele>
        <time>2022-09-04T07:31:23.000Z</time>
      </trkpt>
      <trkpt lat="48.45383" lon="-2.76715">
        <ele>92</ele>
        <time>2022-09-04T07:31:24.000Z</time>
      </trkpt>
      <trkpt lat="48.4538" lon="-2.76714">
        <ele>92</ele>
        <time>2022-09-04T07:31:25.000Z</time>
      </trkpt>
      <trkpt lat="48.45378" lon="-2.76714">
        <ele>92</ele>
        <time>2022-09-04T07:31:26.000Z</time>
      </trkpt>
      <trkpt lat="48.45374" lon="-2.76716">
        <ele>92</ele>
        <time>2022-09-04T07:31:27.000Z</time>
      </trkpt>
      <trkpt lat="48.45371" lon="-2.7672">
        <ele>92</ele>
        <time>2022-09-04T07:31:28.000Z</time>
      </trkpt>
      <trkpt lat="48.45366" lon="-2.76725">
        <ele>91.800003051758</ele>
        <time>2022-09-04T07:31:29.000Z</time>
      </trkpt>
      <trkpt lat="48.45362" lon="-2.76729">
        <ele>91.800003051758</ele>
        <time>2022-09-04T07:31:30.000Z</time>
      </trkpt>
      <trkpt lat="48.45358" lon="-2.76732">
        <ele>91.800003051758</ele>
        <time>2022-09-04T07:31:31.000Z</time>
      </trkpt>
      <trkpt lat="48.45353" lon="-2.76733">
        <ele>91.800003051758</ele>
        <time>2022-09-04T07:31:32.000Z</time>
      </trkpt>
      <trkpt lat="48.45349" lon="-2.76731">
        <ele>91.599998474121</ele>
        <time>2022-09-04T07:31:33.000Z</time>
      </trkpt>
      <trkpt lat="48.45345" lon="-2.76728">
        <ele>91.599998474121</ele>
        <time>2022-09-04T07:31:34.000Z</time>
      </trkpt>
      <trkpt lat="48.45342" lon="-2.76727">
        <ele>91</ele>
        <time>2022-09-04T07:31:35.000Z</time>
      </trkpt>
      <trkpt lat="48.45341" lon="-2.76726">
        <ele>90.400001525879</ele>
        <time>2022-09-04T07:31:36.000Z</time>
      </trkpt>
      <trkpt lat="48.45338" lon="-2.76724">
        <ele>89.599998474121</ele>
        <time>2022-09-04T07:31:37.000Z</time>
      </trkpt>
      <trkpt lat="48.45335" lon="-2.7672">
        <ele>89.199996948242</ele>
        <time>2022-09-04T07:31:38.000Z</time>
      </trkpt>
      <trkpt lat="48.45332" lon="-2.76716">
        <ele>88.800003051758</ele>
        <time>2022-09-04T07:31:39.000Z</time>
      </trkpt>
      <trkpt lat="48.45327" lon="-2.76711">
        <ele>88.599998474121</ele>
        <time>2022-09-04T07:31:40.000Z</time>
      </trkpt>
      <trkpt lat="48.45323" lon="-2.76708">
        <ele>88.599998474121</ele>
        <time>2022-09-04T07:31:41.000Z</time>
      </trkpt>
      <trkpt lat="48.45321" lon="-2.76707">
        <ele>88.400001525879</ele>
        <time>2022-09-04T07:31:42.000Z</time>
      </trkpt>
      <trkpt lat="48.45315" lon="-2.76703">
        <ele>88.800003051758</ele>
        <time>2022-09-04T07:31:44.000Z</time>
      </trkpt>
      <trkpt lat="48.45311" lon="-2.767">
        <ele>89</ele>
        <time>2022-09-04T07:31:45.000Z</time>
      </trkpt>
      <trkpt lat="48.45308" lon="-2.76698">
        <ele>89.400001525879</ele>
        <time>2022-09-04T07:31:46.000Z</time>
      </trkpt>
      <trkpt lat="48.45306" lon="-2.76696">
        <ele>89.599998474121</ele>
        <time>2022-09-04T07:31:47.000Z</time>
      </trkpt>
      <trkpt lat="48.45305" lon="-2.76695">
        <ele>89.800003051758</ele>
        <time>2022-09-04T07:31:48.000Z</time>
      </trkpt>
      <trkpt lat="48.45304" lon="-2.76694">
        <ele>90</ele>
        <time>2022-09-04T07:31:49.000Z</time>
      </trkpt>
      <trkpt lat="48.45302" lon="-2.76696">
        <ele>90</ele>
        <time>2022-09-04T07:31:50.000Z</time>
      </trkpt>
      <trkpt lat="48.45301" lon="-2.76699">
        <ele>90.199996948242</ele>
        <time>2022-09-04T07:31:51.000Z</time>
      </trkpt>
      <trkpt lat="48.453" lon="-2.76702">
        <ele>90.199996948242</ele>
        <time>2022-09-04T07:31:52.000Z</time>
      </trkpt>
      <trkpt lat="48.453" lon="-2.76703">
        <ele>90.199996948242</ele>
        <time>2022-09-04T07:31:53.000Z</time>
      </trkpt>
      <trkpt lat="48.453" lon="-2.76705">
        <ele>90.199996948242</ele>
        <time>2022-09-04T07:31:54.000Z</time>
      </trkpt>
      <trkpt lat="48.45301" lon="-2.76707">
        <ele>90</ele>
        <time>2022-09-04T07:31:55.000Z</time>
      </trkpt>
      <trkpt lat="48.45301" lon="-2.76708">
        <ele>90</ele>
        <time>2022-09-04T07:31:56.000Z</time>
      </trkpt>
      <trkpt lat="48.45301" lon="-2.76709">
        <ele>90</ele>
        <time>2022-09-04T07:31:57.000Z</time>
      </trkpt>
      <trkpt lat="48.453" lon="-2.76713">
        <ele>89.199996948242</ele>
        <time>2022-09-04T07:31:59.000Z</time>
      </trkpt>
      <trkpt lat="48.453" lon="-2.76714">
        <ele>89</ele>
        <time>2022-09-04T07:32:00.000Z</time>
      </trkpt>
      <trkpt lat="48.45301" lon="-2.76716">
        <ele>88.800003051758</ele>
        <time>2022-09-04T07:32:01.000Z</time>
      </trkpt>
      <trkpt lat="48.45303" lon="-2.76718">
        <ele>88.599998474121</ele>
        <time>2022-09-04T07:32:02.000Z</time>
      </trkpt>
      <trkpt lat="48.45305" lon="-2.76721">
        <ele>88.599998474121</ele>
        <time>2022-09-04T07:32:03.000Z</time>
      </trkpt>
      <trkpt lat="48.45309" lon="-2.76725">
        <ele>88.400001525879</ele>
        <time>2022-09-04T07:32:04.000Z</time>
      </trkpt>
      <trkpt lat="48.45313" lon="-2.76737">
        <ele>88.199996948242</ele>
        <time>2022-09-04T07:32:06.000Z</time>
      </trkpt>
      <trkpt lat="48.45315" lon="-2.76745">
        <ele>88.199996948242</ele>
        <time>2022-09-04T07:32:07.000Z</time>
      </trkpt>
      <trkpt lat="48.45317" lon="-2.76752">
        <ele>87.800003051758</ele>
        <time>2022-09-04T07:32:08.000Z</time>
      </trkpt>
      <trkpt lat="48.45318" lon="-2.7676">
        <ele>87.599998474121</ele>
        <time>2022-09-04T07:32:09.000Z</time>
      </trkpt>
      <trkpt lat="48.45317" lon="-2.76767">
        <ele>87</ele>
        <time>2022-09-04T07:32:10.000Z</time>
      </trkpt>
      <trkpt lat="48.45315" lon="-2.76774">
        <ele>86.800003051758</ele>
        <time>2022-09-04T07:32:11.000Z</time>
      </trkpt>
      <trkpt lat="48.45312" lon="-2.7678">
        <ele>86.400001525879</ele>
        <time>2022-09-04T07:32:12.000Z</time>
      </trkpt>
      <trkpt lat="48.4531" lon="-2.76786">
        <ele>85.800003051758</ele>
        <time>2022-09-04T07:32:13.000Z</time>
      </trkpt>
      <trkpt lat="48.45306" lon="-2.7679">
        <ele>85.599998474121</ele>
        <time>2022-09-04T07:32:14.000Z</time>
      </trkpt>
      <trkpt lat="48.45301" lon="-2.76792">
        <ele>85.400001525879</ele>
        <time>2022-09-04T07:32:15.000Z</time>
      </trkpt>
      <trkpt lat="48.45298" lon="-2.76795">
        <ele>85.400001525879</ele>
        <time>2022-09-04T07:32:16.000Z</time>
      </trkpt>
      <trkpt lat="48.45296" lon="-2.76798">
        <ele>85.400001525879</ele>
        <time>2022-09-04T07:32:17.000Z</time>
      </trkpt>
      <trkpt lat="48.45284" lon="-2.76809">
        <ele>85.800003051758</ele>
        <time>2022-09-04T07:32:20.000Z</time>
      </trkpt>
      <trkpt lat="48.4528" lon="-2.76813">
        <ele>86</ele>
        <time>2022-09-04T07:32:21.000Z</time>
      </trkpt>
      <trkpt lat="48.45261" lon="-2.7683">
        <ele>86.400001525879</ele>
        <time>2022-09-04T07:32:25.000Z</time>
      </trkpt>
      <trkpt lat="48.45257" lon="-2.76835">
        <ele>86.400001525879</ele>
        <time>2022-09-04T07:32:26.000Z</time>
      </trkpt>
      <trkpt lat="48.45246" lon="-2.76844">
        <ele>86.599998474121</ele>
        <time>2022-09-04T07:32:28.000Z</time>
      </trkpt>
      <trkpt lat="48.45241" lon="-2.76856">
        <ele>86.599998474121</ele>
        <time>2022-09-04T07:32:30.000Z</time>
      </trkpt>
      <trkpt lat="48.45238" lon="-2.76863">
        <ele>86.599998474121</ele>
        <time>2022-09-04T07:32:31.000Z</time>
      </trkpt>
      <trkpt lat="48.45234" lon="-2.7687">
        <ele>86.800003051758</ele>
        <time>2022-09-04T07:32:32.000Z</time>
      </trkpt>
      <trkpt lat="48.45221" lon="-2.76888">
        <ele>86.800003051758</ele>
        <time>2022-09-04T07:32:35.000Z</time>
      </trkpt>
      <trkpt lat="48.45217" lon="-2.76893">
        <ele>86.800003051758</ele>
        <time>2022-09-04T07:32:36.000Z</time>
      </trkpt>
      <trkpt lat="48.45205" lon="-2.7691">
        <ele>87</ele>
        <time>2022-09-04T07:32:39.000Z</time>
      </trkpt>
      <trkpt lat="48.45202" lon="-2.76917">
        <ele>87</ele>
        <time>2022-09-04T07:32:40.000Z</time>
      </trkpt>
      <trkpt lat="48.45193" lon="-2.76933">
        <ele>86.599998474121</ele>
        <time>2022-09-04T07:32:42.000Z</time>
      </trkpt>
      <trkpt lat="48.45188" lon="-2.7694">
        <ele>86.599998474121</ele>
        <time>2022-09-04T07:32:43.000Z</time>
      </trkpt>
      <trkpt lat="48.45183" lon="-2.76947">
        <ele>86.400001525879</ele>
        <time>2022-09-04T07:32:44.000Z</time>
      </trkpt>
      <trkpt lat="48.45179" lon="-2.76954">
        <ele>86.400001525879</ele>
        <time>2022-09-04T07:32:45.000Z</time>
      </trkpt>
      <trkpt lat="48.45175" lon="-2.76961">
        <ele>85.800003051758</ele>
        <time>2022-09-04T07:32:46.000Z</time>
      </trkpt>
      <trkpt lat="48.45171" lon="-2.76968">
        <ele>85.599998474121</ele>
        <time>2022-09-04T07:32:47.000Z</time>
      </trkpt>
      <trkpt lat="48.45168" lon="-2.76974">
        <ele>85.199996948242</ele>
        <time>2022-09-04T07:32:48.000Z</time>
      </trkpt>
      <trkpt lat="48.45164" lon="-2.76981">
        <ele>85.199996948242</ele>
        <time>2022-09-04T07:32:49.000Z</time>
      </trkpt>
      <trkpt lat="48.45153" lon="-2.77006">
        <ele>85</ele>
        <time>2022-09-04T07:32:52.000Z</time>
      </trkpt>
      <trkpt lat="48.45149" lon="-2.77013">
        <ele>84.800003051758</ele>
        <time>2022-09-04T07:32:53.000Z</time>
      </trkpt>
      <trkpt lat="48.45146" lon="-2.7702">
        <ele>84.599998474121</ele>
        <time>2022-09-04T07:32:54.000Z</time>
      </trkpt>
      <trkpt lat="48.45142" lon="-2.77027">
        <ele>84.599998474121</ele>
        <time>2022-09-04T07:32:55.000Z</time>
      </trkpt>
      <trkpt lat="48.45139" lon="-2.77033">
        <ele>84.400001525879</ele>
        <time>2022-09-04T07:32:56.000Z</time>
      </trkpt>
      <trkpt lat="48.45136" lon="-2.77039">
        <ele>84.400001525879</ele>
        <time>2022-09-04T07:32:57.000Z</time>
      </trkpt>
      <trkpt lat="48.45133" lon="-2.77044">
        <ele>84.400001525879</ele>
        <time>2022-09-04T07:32:58.000Z</time>
      </trkpt>
      <trkpt lat="48.45131" lon="-2.77048">
        <ele>84.599998474121</ele>
        <time>2022-09-04T07:32:59.000Z</time>
      </trkpt>
      <trkpt lat="48.45127" lon="-2.77052">
        <ele>84.599998474121</ele>
        <time>2022-09-04T07:33:00.000Z</time>
      </trkpt>
      <trkpt lat="48.45121" lon="-2.77059">
        <ele>84.800003051758</ele>
        <time>2022-09-04T07:33:02.000Z</time>
      </trkpt>
      <trkpt lat="48.45115" lon="-2.77066">
        <ele>85</ele>
        <time>2022-09-04T07:33:04.000Z</time>
      </trkpt>
      <trkpt lat="48.45099" lon="-2.7708">
        <ele>85.199996948242</ele>
        <time>2022-09-04T07:33:08.000Z</time>
      </trkpt>
      <trkpt lat="48.45095" lon="-2.77084">
        <ele>85.199996948242</ele>
        <time>2022-09-04T07:33:09.000Z</time>
      </trkpt>
      <trkpt lat="48.45091" lon="-2.7709">
        <ele>85.199996948242</ele>
        <time>2022-09-04T07:33:10.000Z</time>
      </trkpt>
      <trkpt lat="48.45084" lon="-2.77098">
        <ele>85.199996948242</ele>
        <time>2022-09-04T07:33:12.000Z</time>
      </trkpt>
      <trkpt lat="48.4508" lon="-2.77103">
        <ele>85.199996948242</ele>
        <time>2022-09-04T07:33:13.000Z</time>
      </trkpt>
      <trkpt lat="48.45076" lon="-2.77105">
        <ele>85.199996948242</ele>
        <time>2022-09-04T07:33:14.000Z</time>
      </trkpt>
      <trkpt lat="48.45071" lon="-2.77107">
        <ele>85.199996948242</ele>
        <time>2022-09-04T07:33:15.000Z</time>
      </trkpt>
      <trkpt lat="48.45068" lon="-2.77108">
        <ele>85.199996948242</ele>
        <time>2022-09-04T07:33:16.000Z</time>
      </trkpt>
      <trkpt lat="48.45063" lon="-2.77109">
        <ele>85</ele>
        <time>2022-09-04T07:33:17.000Z</time>
      </trkpt>
      <trkpt lat="48.45057" lon="-2.77109">
        <ele>85</ele>
        <time>2022-09-04T07:33:18.000Z</time>
      </trkpt>
      <trkpt lat="48.45052" lon="-2.77109">
        <ele>85</ele>
        <time>2022-09-04T07:33:19.000Z</time>
      </trkpt>
      <trkpt lat="48.45042" lon="-2.77107">
        <ele>85.199996948242</ele>
        <time>2022-09-04T07:33:21.000Z</time>
      </trkpt>
      <trkpt lat="48.45032" lon="-2.77107">
        <ele>85.199996948242</ele>
        <time>2022-09-04T07:33:23.000Z</time>
      </trkpt>
      <trkpt lat="48.45026" lon="-2.77107">
        <ele>85.199996948242</ele>
        <time>2022-09-04T07:33:24.000Z</time>
      </trkpt>
      <trkpt lat="48.45012" lon="-2.77104">
        <ele>85.199996948242</ele>
        <time>2022-09-04T07:33:27.000Z</time>
      </trkpt>
      <trkpt lat="48.45005" lon="-2.77102">
        <ele>85.199996948242</ele>
        <time>2022-09-04T07:33:28.000Z</time>
      </trkpt>
      <trkpt lat="48.44998" lon="-2.771">
        <ele>85.199996948242</ele>
        <time>2022-09-04T07:33:29.000Z</time>
      </trkpt>
      <trkpt lat="48.44992" lon="-2.77098">
        <ele>85.400001525879</ele>
        <time>2022-09-04T07:33:30.000Z</time>
      </trkpt>
      <trkpt lat="48.44985" lon="-2.77097">
        <ele>85.599998474121</ele>
        <time>2022-09-04T07:33:31.000Z</time>
      </trkpt>
      <trkpt lat="48.44978" lon="-2.77096">
        <ele>85.599998474121</ele>
        <time>2022-09-04T07:33:32.000Z</time>
      </trkpt>
      <trkpt lat="48.44972" lon="-2.77095">
        <ele>85.599998474121</ele>
        <time>2022-09-04T07:33:33.000Z</time>
      </trkpt>
      <trkpt lat="48.44965" lon="-2.77093">
        <ele>85.800003051758</ele>
        <time>2022-09-04T07:33:34.000Z</time>
      </trkpt>
      <trkpt lat="48.44958" lon="-2.77091">
        <ele>85.800003051758</ele>
        <time>2022-09-04T07:33:35.000Z</time>
      </trkpt>
      <trkpt lat="48.44953" lon="-2.77088">
        <ele>85.800003051758</ele>
        <time>2022-09-04T07:33:36.000Z</time>
      </trkpt>
      <trkpt lat="48.44947" lon="-2.77087">
        <ele>85.800003051758</ele>
        <time>2022-09-04T07:33:37.000Z</time>
      </trkpt>
      <trkpt lat="48.44943" lon="-2.77084">
        <ele>86</ele>
        <time>2022-09-04T07:33:38.000Z</time>
      </trkpt>
      <trkpt lat="48.44937" lon="-2.77085">
        <ele>86.199996948242</ele>
        <time>2022-09-04T07:33:39.000Z</time>
      </trkpt>
      <trkpt lat="48.44933" lon="-2.77083">
        <ele>86.599998474121</ele>
        <time>2022-09-04T07:33:40.000Z</time>
      </trkpt>
      <trkpt lat="48.44929" lon="-2.77081">
        <ele>86.800003051758</ele>
        <time>2022-09-04T07:33:41.000Z</time>
      </trkpt>
      <trkpt lat="48.44926" lon="-2.77081">
        <ele>87</ele>
        <time>2022-09-04T07:33:42.000Z</time>
      </trkpt>
      <trkpt lat="48.44921" lon="-2.77079">
        <ele>87.400001525879</ele>
        <time>2022-09-04T07:33:43.000Z</time>
      </trkpt>
      <trkpt lat="48.44918" lon="-2.77079">
        <ele>87.400001525879</ele>
        <time>2022-09-04T07:33:44.000Z</time>
      </trkpt>
      <trkpt lat="48.44901" lon="-2.77074">
        <ele>88</ele>
        <time>2022-09-04T07:33:48.000Z</time>
      </trkpt>
      <trkpt lat="48.44897" lon="-2.77073">
        <ele>88</ele>
        <time>2022-09-04T07:33:49.000Z</time>
      </trkpt>
      <trkpt lat="48.44894" lon="-2.7707">
        <ele>88</ele>
        <time>2022-09-04T07:33:50.000Z</time>
      </trkpt>
      <trkpt lat="48.44892" lon="-2.7707">
        <ele>88</ele>
        <time>2022-09-04T07:33:51.000Z</time>
      </trkpt>
      <trkpt lat="48.4489" lon="-2.77071">
        <ele>88.199996948242</ele>
        <time>2022-09-04T07:33:52.000Z</time>
      </trkpt>
      <trkpt lat="48.44888" lon="-2.77072">
        <ele>88.400001525879</ele>
        <time>2022-09-04T07:33:53.000Z</time>
      </trkpt>
      <trkpt lat="48.44885" lon="-2.77075">
        <ele>88.599998474121</ele>
        <time>2022-09-04T07:33:54.000Z</time>
      </trkpt>
      <trkpt lat="48.44883" lon="-2.77078">
        <ele>88.800003051758</ele>
        <time>2022-09-04T07:33:55.000Z</time>
      </trkpt>
      <trkpt lat="48.4488" lon="-2.77082">
        <ele>89</ele>
        <time>2022-09-04T07:33:56.000Z</time>
      </trkpt>
      <trkpt lat="48.44877" lon="-2.77087">
        <ele>89</ele>
        <time>2022-09-04T07:33:57.000Z</time>
      </trkpt>
      <trkpt lat="48.44874" lon="-2.77093">
        <ele>89.199996948242</ele>
        <time>2022-09-04T07:33:58.000Z</time>
      </trkpt>
      <trkpt lat="48.44872" lon="-2.77099">
        <ele>89.199996948242</ele>
        <time>2022-09-04T07:33:59.000Z</time>
      </trkpt>
      <trkpt lat="48.44869" lon="-2.77105">
        <ele>89</ele>
        <time>2022-09-04T07:34:00.000Z</time>
      </trkpt>
      <trkpt lat="48.44867" lon="-2.7711">
        <ele>89</ele>
        <time>2022-09-04T07:34:01.000Z</time>
      </trkpt>
      <trkpt lat="48.44865" lon="-2.77113">
        <ele>88.599998474121</ele>
        <time>2022-09-04T07:34:02.000Z</time>
      </trkpt>
      <trkpt lat="48.44863" lon="-2.77116">
        <ele>88</ele>
        <time>2022-09-04T07:34:03.000Z</time>
      </trkpt>
      <trkpt lat="48.44861" lon="-2.77121">
        <ele>87.400001525879</ele>
        <time>2022-09-04T07:34:04.000Z</time>
      </trkpt>
      <trkpt lat="48.4486" lon="-2.77127">
        <ele>87</ele>
        <time>2022-09-04T07:34:05.000Z</time>
      </trkpt>
      <trkpt lat="48.44859" lon="-2.77134">
        <ele>86.800003051758</ele>
        <time>2022-09-04T07:34:06.000Z</time>
      </trkpt>
      <trkpt lat="48.44857" lon="-2.77148">
        <ele>86.400001525879</ele>
        <time>2022-09-04T07:34:07.000Z</time>
      </trkpt>
      <trkpt lat="48.44855" lon="-2.77156">
        <ele>86</ele>
        <time>2022-09-04T07:34:09.000Z</time>
      </trkpt>
      <trkpt lat="48.44855" lon="-2.77163">
        <ele>86</ele>
        <time>2022-09-04T07:34:10.000Z</time>
      </trkpt>
      <trkpt lat="48.44853" lon="-2.77189">
        <ele>85.599998474121</ele>
        <time>2022-09-04T07:34:13.000Z</time>
      </trkpt>
      <trkpt lat="48.44852" lon="-2.77206">
        <ele>85.599998474121</ele>
        <time>2022-09-04T07:34:15.000Z</time>
      </trkpt>
      <trkpt lat="48.44847" lon="-2.77221">
        <ele>85.400001525879</ele>
        <time>2022-09-04T07:34:17.000Z</time>
      </trkpt>
      <trkpt lat="48.44841" lon="-2.77226">
        <ele>85.400001525879</ele>
        <time>2022-09-04T07:34:18.000Z</time>
      </trkpt>
      <trkpt lat="48.4483" lon="-2.77231">
        <ele>85.400001525879</ele>
        <time>2022-09-04T07:34:20.000Z</time>
      </trkpt>
      <trkpt lat="48.44825" lon="-2.77233">
        <ele>85.400001525879</ele>
        <time>2022-09-04T07:34:21.000Z</time>
      </trkpt>
      <trkpt lat="48.44819" lon="-2.77235">
        <ele>85.400001525879</ele>
        <time>2022-09-04T07:34:22.000Z</time>
      </trkpt>
      <trkpt lat="48.44807" lon="-2.77237">
        <ele>85.599998474121</ele>
        <time>2022-09-04T07:34:24.000Z</time>
      </trkpt>
      <trkpt lat="48.44802" lon="-2.77239">
        <ele>85.599998474121</ele>
        <time>2022-09-04T07:34:25.000Z</time>
      </trkpt>
      <trkpt lat="48.44797" lon="-2.7724">
        <ele>85.599998474121</ele>
        <time>2022-09-04T07:34:26.000Z</time>
      </trkpt>
      <trkpt lat="48.44791" lon="-2.77241">
        <ele>85.800003051758</ele>
        <time>2022-09-04T07:34:27.000Z</time>
      </trkpt>
      <trkpt lat="48.44781" lon="-2.77243">
        <ele>85.800003051758</ele>
        <time>2022-09-04T07:34:29.000Z</time>
      </trkpt>
      <trkpt lat="48.44764" lon="-2.77244">
        <ele>86</ele>
        <time>2022-09-04T07:34:32.000Z</time>
      </trkpt>
      <trkpt lat="48.44758" lon="-2.77245">
        <ele>86.400001525879</ele>
        <time>2022-09-04T07:34:33.000Z</time>
      </trkpt>
      <trkpt lat="48.44753" lon="-2.77247">
        <ele>86.400001525879</ele>
        <time>2022-09-04T07:34:34.000Z</time>
      </trkpt>
      <trkpt lat="48.44748" lon="-2.77248">
        <ele>86.800003051758</ele>
        <time>2022-09-04T07:34:35.000Z</time>
      </trkpt>
      <trkpt lat="48.44742" lon="-2.77251">
        <ele>87</ele>
        <time>2022-09-04T07:34:36.000Z</time>
      </trkpt>
      <trkpt lat="48.44738" lon="-2.77252">
        <ele>87.199996948242</ele>
        <time>2022-09-04T07:34:37.000Z</time>
      </trkpt>
      <trkpt lat="48.44734" lon="-2.77255">
        <ele>87.400001525879</ele>
        <time>2022-09-04T07:34:38.000Z</time>
      </trkpt>
      <trkpt lat="48.44729" lon="-2.77258">
        <ele>87.400001525879</ele>
        <time>2022-09-04T07:34:39.000Z</time>
      </trkpt>
      <trkpt lat="48.44725" lon="-2.77262">
        <ele>87.800003051758</ele>
        <time>2022-09-04T07:34:40.000Z</time>
      </trkpt>
      <trkpt lat="48.44721" lon="-2.77266">
        <ele>88</ele>
        <time>2022-09-04T07:34:41.000Z</time>
      </trkpt>
      <trkpt lat="48.44716" lon="-2.7727">
        <ele>88.199996948242</ele>
        <time>2022-09-04T07:34:42.000Z</time>
      </trkpt>
      <trkpt lat="48.44712" lon="-2.77274">
        <ele>88.400001525879</ele>
        <time>2022-09-04T07:34:43.000Z</time>
      </trkpt>
      <trkpt lat="48.44708" lon="-2.77279">
        <ele>88.599998474121</ele>
        <time>2022-09-04T07:34:44.000Z</time>
      </trkpt>
      <trkpt lat="48.44705" lon="-2.77284">
        <ele>88.599998474121</ele>
        <time>2022-09-04T07:34:45.000Z</time>
      </trkpt>
      <trkpt lat="48.44701" lon="-2.7729">
        <ele>89</ele>
        <time>2022-09-04T07:34:46.000Z</time>
      </trkpt>
      <trkpt lat="48.44698" lon="-2.77296">
        <ele>89</ele>
        <time>2022-09-04T07:34:47.000Z</time>
      </trkpt>
      <trkpt lat="48.44695" lon="-2.77302">
        <ele>89.400001525879</ele>
        <time>2022-09-04T07:34:48.000Z</time>
      </trkpt>
      <trkpt lat="48.44692" lon="-2.77307">
        <ele>89.800003051758</ele>
        <time>2022-09-04T07:34:49.000Z</time>
      </trkpt>
      <trkpt lat="48.44689" lon="-2.77313">
        <ele>90</ele>
        <time>2022-09-04T07:34:50.000Z</time>
      </trkpt>
      <trkpt lat="48.44686" lon="-2.77319">
        <ele>90.199996948242</ele>
        <time>2022-09-04T07:34:51.000Z</time>
      </trkpt>
      <trkpt lat="48.44683" lon="-2.77325">
        <ele>90.400001525879</ele>
        <time>2022-09-04T07:34:52.000Z</time>
      </trkpt>
      <trkpt lat="48.44681" lon="-2.77331">
        <ele>90.599998474121</ele>
        <time>2022-09-04T07:34:53.000Z</time>
      </trkpt>
      <trkpt lat="48.44678" lon="-2.77337">
        <ele>90.800003051758</ele>
        <time>2022-09-04T07:34:54.000Z</time>
      </trkpt>
      <trkpt lat="48.44675" lon="-2.77342">
        <ele>91.199996948242</ele>
        <time>2022-09-04T07:34:55.000Z</time>
      </trkpt>
      <trkpt lat="48.44669" lon="-2.77354">
        <ele>91.199996948242</ele>
        <time>2022-09-04T07:34:56.000Z</time>
      </trkpt>
      <trkpt lat="48.44669" lon="-2.77354">
        <ele>91.599998474121</ele>
        <time>2022-09-04T07:34:57.000Z</time>
      </trkpt>
      <trkpt lat="48.44666" lon="-2.77359">
        <ele>91.800003051758</ele>
        <time>2022-09-04T07:34:58.000Z</time>
      </trkpt>
      <trkpt lat="48.44663" lon="-2.77364">
        <ele>92.400001525879</ele>
        <time>2022-09-04T07:34:59.000Z</time>
      </trkpt>
      <trkpt lat="48.4466" lon="-2.77369">
        <ele>92.599998474121</ele>
        <time>2022-09-04T07:35:00.000Z</time>
      </trkpt>
      <trkpt lat="48.44656" lon="-2.77373">
        <ele>92.800003051758</ele>
        <time>2022-09-04T07:35:01.000Z</time>
      </trkpt>
      <trkpt lat="48.44652" lon="-2.77378">
        <ele>93.199996948242</ele>
        <time>2022-09-04T07:35:02.000Z</time>
      </trkpt>
      <trkpt lat="48.44649" lon="-2.77382">
        <ele>93.199996948242</ele>
        <time>2022-09-04T07:35:03.000Z</time>
      </trkpt>
      <trkpt lat="48.44645" lon="-2.77386">
        <ele>93.400001525879</ele>
        <time>2022-09-04T07:35:04.000Z</time>
      </trkpt>
      <trkpt lat="48.44637" lon="-2.77395">
        <ele>93.599998474121</ele>
        <time>2022-09-04T07:35:05.000Z</time>
      </trkpt>
      <trkpt lat="48.44634" lon="-2.77399">
        <ele>93.800003051758</ele>
        <time>2022-09-04T07:35:06.000Z</time>
      </trkpt>
      <trkpt lat="48.44631" lon="-2.77404">
        <ele>94</ele>
        <time>2022-09-04T07:35:07.000Z</time>
      </trkpt>
      <trkpt lat="48.44631" lon="-2.77404">
        <ele>94.199996948242</ele>
        <time>2022-09-04T07:35:08.000Z</time>
      </trkpt>
      <trkpt lat="48.44628" lon="-2.77409">
        <ele>94.400001525879</ele>
        <time>2022-09-04T07:35:09.000Z</time>
      </trkpt>
      <trkpt lat="48.44621" lon="-2.77418">
        <ele>94.599998474121</ele>
        <time>2022-09-04T07:35:10.000Z</time>
      </trkpt>
      <trkpt lat="48.44618" lon="-2.77423">
        <ele>94.800003051758</ele>
        <time>2022-09-04T07:35:11.000Z</time>
      </trkpt>
      <trkpt lat="48.44615" lon="-2.77428">
        <ele>95</ele>
        <time>2022-09-04T07:35:12.000Z</time>
      </trkpt>
      <trkpt lat="48.44615" lon="-2.77428">
        <ele>95.199996948242</ele>
        <time>2022-09-04T07:35:13.000Z</time>
      </trkpt>
      <trkpt lat="48.44612" lon="-2.77432">
        <ele>95.400001525879</ele>
        <time>2022-09-04T07:35:14.000Z</time>
      </trkpt>
      <trkpt lat="48.44609" lon="-2.77437">
        <ele>95.599998474121</ele>
        <time>2022-09-04T07:35:15.000Z</time>
      </trkpt>
      <trkpt lat="48.44604" lon="-2.77447">
        <ele>95.599998474121</ele>
        <time>2022-09-04T07:35:16.000Z</time>
      </trkpt>
      <trkpt lat="48.44601" lon="-2.77451">
        <ele>96</ele>
        <time>2022-09-04T07:35:17.000Z</time>
      </trkpt>
      <trkpt lat="48.44601" lon="-2.77451">
        <ele>96</ele>
        <time>2022-09-04T07:35:18.000Z</time>
      </trkpt>
      <trkpt lat="48.44598" lon="-2.77456">
        <ele>96.199996948242</ele>
        <time>2022-09-04T07:35:19.000Z</time>
      </trkpt>
      <trkpt lat="48.44595" lon="-2.77461">
        <ele>96.400001525879</ele>
        <time>2022-09-04T07:35:20.000Z</time>
      </trkpt>
      <trkpt lat="48.44592" lon="-2.77465">
        <ele>96.400001525879</ele>
        <time>2022-09-04T07:35:21.000Z</time>
      </trkpt>
      <trkpt lat="48.44587" lon="-2.77475">
        <ele>96.599998474121</ele>
        <time>2022-09-04T07:35:22.000Z</time>
      </trkpt>
      <trkpt lat="48.44584" lon="-2.7748">
        <ele>96.599998474121</ele>
        <time>2022-09-04T07:35:23.000Z</time>
      </trkpt>
      <trkpt lat="48.44581" lon="-2.77484">
        <ele>96.599998474121</ele>
        <time>2022-09-04T07:35:24.000Z</time>
      </trkpt>
      <trkpt lat="48.44578" lon="-2.77489">
        <ele>96.800003051758</ele>
        <time>2022-09-04T07:35:25.000Z</time>
      </trkpt>
      <trkpt lat="48.44575" lon="-2.77494">
        <ele>96.800003051758</ele>
        <time>2022-09-04T07:35:26.000Z</time>
      </trkpt>
      <trkpt lat="48.44571" lon="-2.77499">
        <ele>97</ele>
        <time>2022-09-04T07:35:27.000Z</time>
      </trkpt>
      <trkpt lat="48.44571" lon="-2.77499">
        <ele>97.199996948242</ele>
        <time>2022-09-04T07:35:28.000Z</time>
      </trkpt>
      <trkpt lat="48.44565" lon="-2.77509">
        <ele>97.199996948242</ele>
        <time>2022-09-04T07:35:29.000Z</time>
      </trkpt>
      <trkpt lat="48.44565" lon="-2.77509">
        <ele>97.400001525879</ele>
        <time>2022-09-04T07:35:30.000Z</time>
      </trkpt>
      <trkpt lat="48.44559" lon="-2.77518">
        <ele>97.400001525879</ele>
        <time>2022-09-04T07:35:31.000Z</time>
      </trkpt>
      <trkpt lat="48.44556" lon="-2.77523">
        <ele>97.599998474121</ele>
        <time>2022-09-04T07:35:32.000Z</time>
      </trkpt>
      <trkpt lat="48.44556" lon="-2.77523">
        <ele>97.800003051758</ele>
        <time>2022-09-04T07:35:33.000Z</time>
      </trkpt>
      <trkpt lat="48.44553" lon="-2.77528">
        <ele>98.199996948242</ele>
        <time>2022-09-04T07:35:34.000Z</time>
      </trkpt>
      <trkpt lat="48.44547" lon="-2.77537">
        <ele>98.400001525879</ele>
        <time>2022-09-04T07:35:35.000Z</time>
      </trkpt>
      <trkpt lat="48.44547" lon="-2.77537">
        <ele>98.400001525879</ele>
        <time>2022-09-04T07:35:36.000Z</time>
      </trkpt>
      <trkpt lat="48.4454" lon="-2.77546">
        <ele>98.599998474121</ele>
        <time>2022-09-04T07:35:37.000Z</time>
      </trkpt>
      <trkpt lat="48.44537" lon="-2.77551">
        <ele>98.800003051758</ele>
        <time>2022-09-04T07:35:38.000Z</time>
      </trkpt>
      <trkpt lat="48.44537" lon="-2.77551">
        <ele>99</ele>
        <time>2022-09-04T07:35:39.000Z</time>
      </trkpt>
      <trkpt lat="48.44531" lon="-2.77561">
        <ele>99.199996948242</ele>
        <time>2022-09-04T07:35:40.000Z</time>
      </trkpt>
      <trkpt lat="48.44528" lon="-2.77565">
        <ele>99.400001525879</ele>
        <time>2022-09-04T07:35:41.000Z</time>
      </trkpt>
      <trkpt lat="48.44524" lon="-2.7757">
        <ele>99.400001525879</ele>
        <time>2022-09-04T07:35:42.000Z</time>
      </trkpt>
      <trkpt lat="48.44521" lon="-2.77575">
        <ele>99.599998474121</ele>
        <time>2022-09-04T07:35:43.000Z</time>
      </trkpt>
      <trkpt lat="48.44521" lon="-2.77575">
        <ele>99.599998474121</ele>
        <time>2022-09-04T07:35:44.000Z</time>
      </trkpt>
      <trkpt lat="48.44517" lon="-2.77579">
        <ele>99.800003051758</ele>
        <time>2022-09-04T07:35:45.000Z</time>
      </trkpt>
      <trkpt lat="48.44514" lon="-2.77584">
        <ele>99.800003051758</ele>
        <time>2022-09-04T07:35:46.000Z</time>
      </trkpt>
      <trkpt lat="48.44507" lon="-2.77593">
        <ele>99.800003051758</ele>
        <time>2022-09-04T07:35:47.000Z</time>
      </trkpt>
      <trkpt lat="48.44507" lon="-2.77593">
        <ele>99.599998474121</ele>
        <time>2022-09-04T07:35:48.000Z</time>
      </trkpt>
      <trkpt lat="48.44505" lon="-2.77599">
        <ele>99.599998474121</ele>
        <time>2022-09-04T07:35:49.000Z</time>
      </trkpt>
      <trkpt lat="48.44503" lon="-2.77606">
        <ele>99.599998474121</ele>
        <time>2022-09-04T07:35:50.000Z</time>
      </trkpt>
      <trkpt lat="48.44505" lon="-2.7762">
        <ele>99.599998474121</ele>
        <time>2022-09-04T07:35:51.000Z</time>
      </trkpt>
      <trkpt lat="48.44505" lon="-2.7762">
        <ele>99.599998474121</ele>
        <time>2022-09-04T07:35:52.000Z</time>
      </trkpt>
      <trkpt lat="48.44508" lon="-2.77627">
        <ele>99.599998474121</ele>
        <time>2022-09-04T07:35:53.000Z</time>
      </trkpt>
      <trkpt lat="48.44511" lon="-2.77633">
        <ele>99.599998474121</ele>
        <time>2022-09-04T07:35:54.000Z</time>
      </trkpt>
      <trkpt lat="48.44514" lon="-2.77639">
        <ele>99.599998474121</ele>
        <time>2022-09-04T07:35:55.000Z</time>
      </trkpt>
      <trkpt lat="48.4452" lon="-2.77651">
        <ele>99.599998474121</ele>
        <time>2022-09-04T07:35:56.000Z</time>
      </trkpt>
      <trkpt lat="48.44523" lon="-2.77656">
        <ele>99.800003051758</ele>
        <time>2022-09-04T07:35:57.000Z</time>
      </trkpt>
      <trkpt lat="48.44523" lon="-2.77656">
        <ele>99.800003051758</ele>
        <time>2022-09-04T07:35:58.000Z</time>
      </trkpt>
      <trkpt lat="48.44526" lon="-2.77662">
        <ele>99.800003051758</ele>
        <time>2022-09-04T07:35:59.000Z</time>
      </trkpt>
      <trkpt lat="48.44548" lon="-2.77695">
        <ele>100.59999847412</ele>
        <time>2022-09-04T07:36:04.000Z</time>
      </trkpt>
      <trkpt lat="48.44556" lon="-2.77704">
        <ele>101</ele>
        <time>2022-09-04T07:36:06.000Z</time>
      </trkpt>
      <trkpt lat="48.44569" lon="-2.77718">
        <ele>101</ele>
        <time>2022-09-04T07:36:10.000Z</time>
      </trkpt>
      <trkpt lat="48.44577" lon="-2.77727">
        <ele>101</ele>
        <time>2022-09-04T07:36:11.000Z</time>
      </trkpt>
      <trkpt lat="48.44589" lon="-2.77742">
        <ele>101</ele>
        <time>2022-09-04T07:36:14.000Z</time>
      </trkpt>
      <trkpt lat="48.44589" lon="-2.77742">
        <ele>101</ele>
        <time>2022-09-04T07:36:15.000Z</time>
      </trkpt>
      <trkpt lat="48.44601" lon="-2.77758">
        <ele>100.80000305176</ele>
        <time>2022-09-04T07:36:17.000Z</time>
      </trkpt>
      <trkpt lat="48.44601" lon="-2.77758">
        <ele>100.80000305176</ele>
        <time>2022-09-04T07:36:18.000Z</time>
      </trkpt>
      <trkpt lat="48.44608" lon="-2.77769">
        <ele>100.19999694824</ele>
        <time>2022-09-04T07:36:20.000Z</time>
      </trkpt>
      <trkpt lat="48.44614" lon="-2.77775">
        <ele>99.599998474121</ele>
        <time>2022-09-04T07:36:21.000Z</time>
      </trkpt>
      <trkpt lat="48.44614" lon="-2.77778">
        <ele>99.400001525879</ele>
        <time>2022-09-04T07:36:22.000Z</time>
      </trkpt>
      <trkpt lat="48.44617" lon="-2.77782">
        <ele>99</ele>
        <time>2022-09-04T07:36:23.000Z</time>
      </trkpt>
      <trkpt lat="48.44617" lon="-2.77794">
        <ele>98.800003051758</ele>
        <time>2022-09-04T07:36:25.000Z</time>
      </trkpt>
      <trkpt lat="48.44615" lon="-2.77799">
        <ele>98.800003051758</ele>
        <time>2022-09-04T07:36:26.000Z</time>
      </trkpt>
      <trkpt lat="48.44612" lon="-2.77805">
        <ele>98.599998474121</ele>
        <time>2022-09-04T07:36:27.000Z</time>
      </trkpt>
      <trkpt lat="48.4461" lon="-2.77808">
        <ele>98.199996948242</ele>
        <time>2022-09-04T07:36:29.000Z</time>
      </trkpt>
      <trkpt lat="48.44604" lon="-2.77817">
        <ele>98</ele>
        <time>2022-09-04T07:36:30.000Z</time>
      </trkpt>
      <trkpt lat="48.44599" lon="-2.77822">
        <ele>97.800003051758</ele>
        <time>2022-09-04T07:36:31.000Z</time>
      </trkpt>
      <trkpt lat="48.44595" lon="-2.77827">
        <ele>97.599998474121</ele>
        <time>2022-09-04T07:36:33.000Z</time>
      </trkpt>
      <trkpt lat="48.4459" lon="-2.77832">
        <ele>97.599998474121</ele>
        <time>2022-09-04T07:36:34.000Z</time>
      </trkpt>
      <trkpt lat="48.44584" lon="-2.77843">
        <ele>97.400001525879</ele>
        <time>2022-09-04T07:36:35.000Z</time>
      </trkpt>
      <trkpt lat="48.44583" lon="-2.7785">
        <ele>97.400001525879</ele>
        <time>2022-09-04T07:36:36.000Z</time>
      </trkpt>
      <trkpt lat="48.44582" lon="-2.77857">
        <ele>97.400001525879</ele>
        <time>2022-09-04T07:36:37.000Z</time>
      </trkpt>
      <trkpt lat="48.44582" lon="-2.77857">
        <ele>97.400001525879</ele>
        <time>2022-09-04T07:36:38.000Z</time>
      </trkpt>
      <trkpt lat="48.44581" lon="-2.77865">
        <ele>97.400001525879</ele>
        <time>2022-09-04T07:36:39.000Z</time>
      </trkpt>
      <trkpt lat="48.4458" lon="-2.7788">
        <ele>97.400001525879</ele>
        <time>2022-09-04T07:36:40.000Z</time>
      </trkpt>
      <trkpt lat="48.4458" lon="-2.77887">
        <ele>97.599998474121</ele>
        <time>2022-09-04T07:36:41.000Z</time>
      </trkpt>
      <trkpt lat="48.44579" lon="-2.77893">
        <ele>97.599998474121</ele>
        <time>2022-09-04T07:36:42.000Z</time>
      </trkpt>
      <trkpt lat="48.44578" lon="-2.77899">
        <ele>97.800003051758</ele>
        <time>2022-09-04T07:36:43.000Z</time>
      </trkpt>
      <trkpt lat="48.44578" lon="-2.77904">
        <ele>97.800003051758</ele>
        <time>2022-09-04T07:36:44.000Z</time>
      </trkpt>
      <trkpt lat="48.44576" lon="-2.7791">
        <ele>98</ele>
        <time>2022-09-04T07:36:45.000Z</time>
      </trkpt>
      <trkpt lat="48.44576" lon="-2.77914">
        <ele>98.199996948242</ele>
        <time>2022-09-04T07:36:46.000Z</time>
      </trkpt>
      <trkpt lat="48.44574" lon="-2.77918">
        <ele>98.400001525879</ele>
        <time>2022-09-04T07:36:47.000Z</time>
      </trkpt>
      <trkpt lat="48.44574" lon="-2.77918">
        <ele>98.400001525879</ele>
        <time>2022-09-04T07:36:48.000Z</time>
      </trkpt>
      <trkpt lat="48.44573" lon="-2.77922">
        <ele>98.800003051758</ele>
        <time>2022-09-04T07:36:49.000Z</time>
      </trkpt>
      <trkpt lat="48.44572" lon="-2.77928">
        <ele>99</ele>
        <time>2022-09-04T07:36:50.000Z</time>
      </trkpt>
      <trkpt lat="48.44571" lon="-2.77931">
        <ele>99.599998474121</ele>
        <time>2022-09-04T07:36:51.000Z</time>
      </trkpt>
      <trkpt lat="48.4457" lon="-2.77935">
        <ele>100.40000152588</ele>
        <time>2022-09-04T07:36:52.000Z</time>
      </trkpt>
      <trkpt lat="48.44569" lon="-2.77938">
        <ele>100.59999847412</ele>
        <time>2022-09-04T07:36:53.000Z</time>
      </trkpt>
      <trkpt lat="48.44569" lon="-2.77938">
        <ele>101</ele>
        <time>2022-09-04T07:36:54.000Z</time>
      </trkpt>
      <trkpt lat="48.44569" lon="-2.77956">
        <ele>102.19999694824</ele>
        <time>2022-09-04T07:36:58.000Z</time>
      </trkpt>
      <trkpt lat="48.44569" lon="-2.77962">
        <ele>102.40000152588</ele>
        <time>2022-09-04T07:36:59.000Z</time>
      </trkpt>
      <trkpt lat="48.44572" lon="-2.77973">
        <ele>102.80000305176</ele>
        <time>2022-09-04T07:37:00.000Z</time>
      </trkpt>
      <trkpt lat="48.44572" lon="-2.77973">
        <ele>102.80000305176</ele>
        <time>2022-09-04T07:37:01.000Z</time>
      </trkpt>
      <trkpt lat="48.44573" lon="-2.77985">
        <ele>103.19999694824</ele>
        <time>2022-09-04T07:37:02.000Z</time>
      </trkpt>
      <trkpt lat="48.44574" lon="-2.7799">
        <ele>103.59999847412</ele>
        <time>2022-09-04T07:37:03.000Z</time>
      </trkpt>
      <trkpt lat="48.44574" lon="-2.7799">
        <ele>103.59999847412</ele>
        <time>2022-09-04T07:37:04.000Z</time>
      </trkpt>
      <trkpt lat="48.44575" lon="-2.78003">
        <ele>103.80000305176</ele>
        <time>2022-09-04T07:37:05.000Z</time>
      </trkpt>
      <trkpt lat="48.44576" lon="-2.78009">
        <ele>104</ele>
        <time>2022-09-04T07:37:06.000Z</time>
      </trkpt>
      <trkpt lat="48.44577" lon="-2.78015">
        <ele>104.19999694824</ele>
        <time>2022-09-04T07:37:07.000Z</time>
      </trkpt>
      <trkpt lat="48.44578" lon="-2.78022">
        <ele>104.19999694824</ele>
        <time>2022-09-04T07:37:08.000Z</time>
      </trkpt>
      <trkpt lat="48.44578" lon="-2.78022">
        <ele>104.40000152588</ele>
        <time>2022-09-04T07:37:09.000Z</time>
      </trkpt>
      <trkpt lat="48.44579" lon="-2.78035">
        <ele>104.40000152588</ele>
        <time>2022-09-04T07:37:10.000Z</time>
      </trkpt>
      <trkpt lat="48.44579" lon="-2.78043">
        <ele>104.59999847412</ele>
        <time>2022-09-04T07:37:11.000Z</time>
      </trkpt>
      <trkpt lat="48.4458" lon="-2.78048">
        <ele>104.59999847412</ele>
        <time>2022-09-04T07:37:12.000Z</time>
      </trkpt>
      <trkpt lat="48.4458" lon="-2.78054">
        <ele>104.80000305176</ele>
        <time>2022-09-04T07:37:13.000Z</time>
      </trkpt>
      <trkpt lat="48.4458" lon="-2.78054">
        <ele>105</ele>
        <time>2022-09-04T07:37:14.000Z</time>
      </trkpt>
      <trkpt lat="48.4458" lon="-2.78061">
        <ele>105</ele>
        <time>2022-09-04T07:37:15.000Z</time>
      </trkpt>
      <trkpt lat="48.44581" lon="-2.78073">
        <ele>105.19999694824</ele>
        <time>2022-09-04T07:37:16.000Z</time>
      </trkpt>
      <trkpt lat="48.44581" lon="-2.7808">
        <ele>105.40000152588</ele>
        <time>2022-09-04T07:37:17.000Z</time>
      </trkpt>
      <trkpt lat="48.44581" lon="-2.7808">
        <ele>105.59999847412</ele>
        <time>2022-09-04T07:37:18.000Z</time>
      </trkpt>
      <trkpt lat="48.44581" lon="-2.78085">
        <ele>105.59999847412</ele>
        <time>2022-09-04T07:37:19.000Z</time>
      </trkpt>
      <trkpt lat="48.44581" lon="-2.78097">
        <ele>105.80000305176</ele>
        <time>2022-09-04T07:37:20.000Z</time>
      </trkpt>
      <trkpt lat="48.4458" lon="-2.78104">
        <ele>105.80000305176</ele>
        <time>2022-09-04T07:37:21.000Z</time>
      </trkpt>
      <trkpt lat="48.44579" lon="-2.7811">
        <ele>106</ele>
        <time>2022-09-04T07:37:22.000Z</time>
      </trkpt>
      <trkpt lat="48.44579" lon="-2.7811">
        <ele>106</ele>
        <time>2022-09-04T07:37:23.000Z</time>
      </trkpt>
      <trkpt lat="48.44579" lon="-2.78115">
        <ele>106.19999694824</ele>
        <time>2022-09-04T07:37:24.000Z</time>
      </trkpt>
      <trkpt lat="48.44576" lon="-2.78126">
        <ele>106.40000152588</ele>
        <time>2022-09-04T07:37:25.000Z</time>
      </trkpt>
      <trkpt lat="48.44574" lon="-2.78131">
        <ele>106.59999847412</ele>
        <time>2022-09-04T07:37:26.000Z</time>
      </trkpt>
      <trkpt lat="48.44572" lon="-2.78137">
        <ele>106.80000305176</ele>
        <time>2022-09-04T07:37:27.000Z</time>
      </trkpt>
      <trkpt lat="48.4457" lon="-2.78143">
        <ele>107</ele>
        <time>2022-09-04T07:37:28.000Z</time>
      </trkpt>
      <trkpt lat="48.4457" lon="-2.78143">
        <ele>107.19999694824</ele>
        <time>2022-09-04T07:37:29.000Z</time>
      </trkpt>
      <trkpt lat="48.44565" lon="-2.78153">
        <ele>107.40000152588</ele>
        <time>2022-09-04T07:37:30.000Z</time>
      </trkpt>
      <trkpt lat="48.44563" lon="-2.78158">
        <ele>107.59999847412</ele>
        <time>2022-09-04T07:37:31.000Z</time>
      </trkpt>
      <trkpt lat="48.4456" lon="-2.78163">
        <ele>107.59999847412</ele>
        <time>2022-09-04T07:37:32.000Z</time>
      </trkpt>
      <trkpt lat="48.44559" lon="-2.78169">
        <ele>107.59999847412</ele>
        <time>2022-09-04T07:37:33.000Z</time>
      </trkpt>
      <trkpt lat="48.44558" lon="-2.78175">
        <ele>107.80000305176</ele>
        <time>2022-09-04T07:37:34.000Z</time>
      </trkpt>
      <trkpt lat="48.44557" lon="-2.78182">
        <ele>108</ele>
        <time>2022-09-04T07:37:35.000Z</time>
      </trkpt>
      <trkpt lat="48.44555" lon="-2.78188">
        <ele>108.19999694824</ele>
        <time>2022-09-04T07:37:36.000Z</time>
      </trkpt>
      <trkpt lat="48.44553" lon="-2.78194">
        <ele>108.59999847412</ele>
        <time>2022-09-04T07:37:37.000Z</time>
      </trkpt>
      <trkpt lat="48.44552" lon="-2.782">
        <ele>108.80000305176</ele>
        <time>2022-09-04T07:37:38.000Z</time>
      </trkpt>
      <trkpt lat="48.4455" lon="-2.78205">
        <ele>109</ele>
        <time>2022-09-04T07:37:39.000Z</time>
      </trkpt>
      <trkpt lat="48.44548" lon="-2.7821">
        <ele>109</ele>
        <time>2022-09-04T07:37:40.000Z</time>
      </trkpt>
      <trkpt lat="48.44546" lon="-2.78216">
        <ele>109.19999694824</ele>
        <time>2022-09-04T07:37:41.000Z</time>
      </trkpt>
      <trkpt lat="48.44544" lon="-2.78222">
        <ele>109.40000152588</ele>
        <time>2022-09-04T07:37:42.000Z</time>
      </trkpt>
      <trkpt lat="48.44542" lon="-2.78228">
        <ele>109.40000152588</ele>
        <time>2022-09-04T07:37:43.000Z</time>
      </trkpt>
      <trkpt lat="48.44541" lon="-2.78233">
        <ele>109.59999847412</ele>
        <time>2022-09-04T07:37:44.000Z</time>
      </trkpt>
      <trkpt lat="48.44538" lon="-2.78239">
        <ele>109.59999847412</ele>
        <time>2022-09-04T07:37:45.000Z</time>
      </trkpt>
      <trkpt lat="48.44536" lon="-2.78244">
        <ele>109.80000305176</ele>
        <time>2022-09-04T07:37:46.000Z</time>
      </trkpt>
      <trkpt lat="48.44534" lon="-2.78249">
        <ele>109.80000305176</ele>
        <time>2022-09-04T07:37:47.000Z</time>
      </trkpt>
      <trkpt lat="48.44531" lon="-2.78254">
        <ele>110</ele>
        <time>2022-09-04T07:37:48.000Z</time>
      </trkpt>
      <trkpt lat="48.44529" lon="-2.78259">
        <ele>110.19999694824</ele>
        <time>2022-09-04T07:37:49.000Z</time>
      </trkpt>
      <trkpt lat="48.44526" lon="-2.78264">
        <ele>110.19999694824</ele>
        <time>2022-09-04T07:37:50.000Z</time>
      </trkpt>
      <trkpt lat="48.44523" lon="-2.7827">
        <ele>110.40000152588</ele>
        <time>2022-09-04T07:37:51.000Z</time>
      </trkpt>
      <trkpt lat="48.4452" lon="-2.78274">
        <ele>110.40000152588</ele>
        <time>2022-09-04T07:37:52.000Z</time>
      </trkpt>
      <trkpt lat="48.44518" lon="-2.78279">
        <ele>111</ele>
        <time>2022-09-04T07:37:53.000Z</time>
      </trkpt>
      <trkpt lat="48.44515" lon="-2.78284">
        <ele>111</ele>
        <time>2022-09-04T07:37:54.000Z</time>
      </trkpt>
      <trkpt lat="48.44513" lon="-2.78288">
        <ele>111.40000152588</ele>
        <time>2022-09-04T07:37:55.000Z</time>
      </trkpt>
      <trkpt lat="48.44513" lon="-2.78288">
        <ele>111.40000152588</ele>
        <time>2022-09-04T07:37:56.000Z</time>
      </trkpt>
      <trkpt lat="48.4451" lon="-2.78292">
        <ele>111.80000305176</ele>
        <time>2022-09-04T07:37:57.000Z</time>
      </trkpt>
      <trkpt lat="48.44508" lon="-2.78296">
        <ele>112</ele>
        <time>2022-09-04T07:37:58.000Z</time>
      </trkpt>
      <trkpt lat="48.44503" lon="-2.78305">
        <ele>112.40000152588</ele>
        <time>2022-09-04T07:37:59.000Z</time>
      </trkpt>
      <trkpt lat="48.44501" lon="-2.78309">
        <ele>113</ele>
        <time>2022-09-04T07:38:00.000Z</time>
      </trkpt>
      <trkpt lat="48.44498" lon="-2.78314">
        <ele>113</ele>
        <time>2022-09-04T07:38:01.000Z</time>
      </trkpt>
      <trkpt lat="48.44496" lon="-2.78318">
        <ele>113.40000152588</ele>
        <time>2022-09-04T07:38:02.000Z</time>
      </trkpt>
      <trkpt lat="48.44494" lon="-2.78322">
        <ele>113.59999847412</ele>
        <time>2022-09-04T07:38:03.000Z</time>
      </trkpt>
      <trkpt lat="48.44494" lon="-2.78322">
        <ele>113.80000305176</ele>
        <time>2022-09-04T07:38:04.000Z</time>
      </trkpt>
      <trkpt lat="48.4449" lon="-2.78329">
        <ele>113.80000305176</ele>
        <time>2022-09-04T07:38:05.000Z</time>
      </trkpt>
      <trkpt lat="48.44488" lon="-2.78333">
        <ele>114</ele>
        <time>2022-09-04T07:38:06.000Z</time>
      </trkpt>
      <trkpt lat="48.44485" lon="-2.78337">
        <ele>114.19999694824</ele>
        <time>2022-09-04T07:38:07.000Z</time>
      </trkpt>
      <trkpt lat="48.44485" lon="-2.78337">
        <ele>114.40000152588</ele>
        <time>2022-09-04T07:38:08.000Z</time>
      </trkpt>
      <trkpt lat="48.44482" lon="-2.78344">
        <ele>114.59999847412</ele>
        <time>2022-09-04T07:38:09.000Z</time>
      </trkpt>
      <trkpt lat="48.4448" lon="-2.78348">
        <ele>115.19999694824</ele>
        <time>2022-09-04T07:38:10.000Z</time>
      </trkpt>
      <trkpt lat="48.44478" lon="-2.78352">
        <ele>115.40000152588</ele>
        <time>2022-09-04T07:38:11.000Z</time>
      </trkpt>
      <trkpt lat="48.44476" lon="-2.78356">
        <ele>115.59999847412</ele>
        <time>2022-09-04T07:38:12.000Z</time>
      </trkpt>
      <trkpt lat="48.44474" lon="-2.7836">
        <ele>115.80000305176</ele>
        <time>2022-09-04T07:38:13.000Z</time>
      </trkpt>
      <trkpt lat="48.44472" lon="-2.78364">
        <ele>115.80000305176</ele>
        <time>2022-09-04T07:38:14.000Z</time>
      </trkpt>
      <trkpt lat="48.4447" lon="-2.78368">
        <ele>116</ele>
        <time>2022-09-04T07:38:15.000Z</time>
      </trkpt>
      <trkpt lat="48.44468" lon="-2.78372">
        <ele>116</ele>
        <time>2022-09-04T07:38:16.000Z</time>
      </trkpt>
      <trkpt lat="48.44466" lon="-2.78377">
        <ele>116.19999694824</ele>
        <time>2022-09-04T07:38:17.000Z</time>
      </trkpt>
      <trkpt lat="48.44464" lon="-2.7838">
        <ele>116.19999694824</ele>
        <time>2022-09-04T07:38:18.000Z</time>
      </trkpt>
      <trkpt lat="48.44461" lon="-2.78384">
        <ele>116.59999847412</ele>
        <time>2022-09-04T07:38:19.000Z</time>
      </trkpt>
      <trkpt lat="48.44459" lon="-2.78387">
        <ele>116.59999847412</ele>
        <time>2022-09-04T07:38:20.000Z</time>
      </trkpt>
      <trkpt lat="48.44459" lon="-2.78387">
        <ele>116.80000305176</ele>
        <time>2022-09-04T07:38:21.000Z</time>
      </trkpt>
      <trkpt lat="48.44455" lon="-2.78395">
        <ele>117</ele>
        <time>2022-09-04T07:38:22.000Z</time>
      </trkpt>
      <trkpt lat="48.44452" lon="-2.78399">
        <ele>117</ele>
        <time>2022-09-04T07:38:23.000Z</time>
      </trkpt>
      <trkpt lat="48.44452" lon="-2.78399">
        <ele>117.40000152588</ele>
        <time>2022-09-04T07:38:24.000Z</time>
      </trkpt>
      <trkpt lat="48.44448" lon="-2.78407">
        <ele>117.59999847412</ele>
        <time>2022-09-04T07:38:25.000Z</time>
      </trkpt>
      <trkpt lat="48.44448" lon="-2.78407">
        <ele>118.19999694824</ele>
        <time>2022-09-04T07:38:26.000Z</time>
      </trkpt>
      <trkpt lat="48.44444" lon="-2.78415">
        <ele>118.19999694824</ele>
        <time>2022-09-04T07:38:27.000Z</time>
      </trkpt>
      <trkpt lat="48.44442" lon="-2.78418">
        <ele>118.40000152588</ele>
        <time>2022-09-04T07:38:28.000Z</time>
      </trkpt>
      <trkpt lat="48.44441" lon="-2.78422">
        <ele>118.59999847412</ele>
        <time>2022-09-04T07:38:29.000Z</time>
      </trkpt>
      <trkpt lat="48.44439" lon="-2.78426">
        <ele>118.80000305176</ele>
        <time>2022-09-04T07:38:30.000Z</time>
      </trkpt>
      <trkpt lat="48.44437" lon="-2.78429">
        <ele>118.80000305176</ele>
        <time>2022-09-04T07:38:31.000Z</time>
      </trkpt>
      <trkpt lat="48.44434" lon="-2.78433">
        <ele>119</ele>
        <time>2022-09-04T07:38:32.000Z</time>
      </trkpt>
      <trkpt lat="48.44434" lon="-2.78433">
        <ele>119</ele>
        <time>2022-09-04T07:38:33.000Z</time>
      </trkpt>
      <trkpt lat="48.4443" lon="-2.78441">
        <ele>119.19999694824</ele>
        <time>2022-09-04T07:38:34.000Z</time>
      </trkpt>
      <trkpt lat="48.44428" lon="-2.78445">
        <ele>119.19999694824</ele>
        <time>2022-09-04T07:38:35.000Z</time>
      </trkpt>
      <trkpt lat="48.44426" lon="-2.78448">
        <ele>119.40000152588</ele>
        <time>2022-09-04T07:38:36.000Z</time>
      </trkpt>
      <trkpt lat="48.44424" lon="-2.78451">
        <ele>119.59999847412</ele>
        <time>2022-09-04T07:38:37.000Z</time>
      </trkpt>
      <trkpt lat="48.44422" lon="-2.78454">
        <ele>119.40000152588</ele>
        <time>2022-09-04T07:38:38.000Z</time>
      </trkpt>
      <trkpt lat="48.44421" lon="-2.78458">
        <ele>119.80000305176</ele>
        <time>2022-09-04T07:38:39.000Z</time>
      </trkpt>
      <trkpt lat="48.44418" lon="-2.78462">
        <ele>120</ele>
        <time>2022-09-04T07:38:40.000Z</time>
      </trkpt>
      <trkpt lat="48.44416" lon="-2.78466">
        <ele>120.40000152588</ele>
        <time>2022-09-04T07:38:41.000Z</time>
      </trkpt>
      <trkpt lat="48.44414" lon="-2.78471">
        <ele>120.80000305176</ele>
        <time>2022-09-04T07:38:42.000Z</time>
      </trkpt>
      <trkpt lat="48.44411" lon="-2.78475">
        <ele>121.19999694824</ele>
        <time>2022-09-04T07:38:43.000Z</time>
      </trkpt>
      <trkpt lat="48.44409" lon="-2.7848">
        <ele>121.40000152588</ele>
        <time>2022-09-04T07:38:44.000Z</time>
      </trkpt>
      <trkpt lat="48.44407" lon="-2.78485">
        <ele>121.59999847412</ele>
        <time>2022-09-04T07:38:45.000Z</time>
      </trkpt>
      <trkpt lat="48.44405" lon="-2.78489">
        <ele>121.80000305176</ele>
        <time>2022-09-04T07:38:46.000Z</time>
      </trkpt>
      <trkpt lat="48.44405" lon="-2.78489">
        <ele>121.80000305176</ele>
        <time>2022-09-04T07:38:47.000Z</time>
      </trkpt>
      <trkpt lat="48.444" lon="-2.78498">
        <ele>122</ele>
        <time>2022-09-04T07:38:48.000Z</time>
      </trkpt>
      <trkpt lat="48.44398" lon="-2.78502">
        <ele>122</ele>
        <time>2022-09-04T07:38:49.000Z</time>
      </trkpt>
      <trkpt lat="48.44396" lon="-2.78506">
        <ele>122.40000152588</ele>
        <time>2022-09-04T07:38:50.000Z</time>
      </trkpt>
      <trkpt lat="48.44394" lon="-2.7851">
        <ele>122.40000152588</ele>
        <time>2022-09-04T07:38:51.000Z</time>
      </trkpt>
      <trkpt lat="48.44392" lon="-2.78514">
        <ele>122.80000305176</ele>
        <time>2022-09-04T07:38:52.000Z</time>
      </trkpt>
      <trkpt lat="48.44392" lon="-2.78514">
        <ele>122.80000305176</ele>
        <time>2022-09-04T07:38:53.000Z</time>
      </trkpt>
      <trkpt lat="48.44388" lon="-2.78523">
        <ele>123</ele>
        <time>2022-09-04T07:38:54.000Z</time>
      </trkpt>
      <trkpt lat="48.44386" lon="-2.78528">
        <ele>123.40000152588</ele>
        <time>2022-09-04T07:38:55.000Z</time>
      </trkpt>
      <trkpt lat="48.44384" lon="-2.78533">
        <ele>123.80000305176</ele>
        <time>2022-09-04T07:38:56.000Z</time>
      </trkpt>
      <trkpt lat="48.44382" lon="-2.78537">
        <ele>124.19999694824</ele>
        <time>2022-09-04T07:38:57.000Z</time>
      </trkpt>
      <trkpt lat="48.4438" lon="-2.78541">
        <ele>124.59999847412</ele>
        <time>2022-09-04T07:38:58.000Z</time>
      </trkpt>
      <trkpt lat="48.44378" lon="-2.78546">
        <ele>125.19999694824</ele>
        <time>2022-09-04T07:38:59.000Z</time>
      </trkpt>
      <trkpt lat="48.44376" lon="-2.7855">
        <ele>125.59999847412</ele>
        <time>2022-09-04T07:39:00.000Z</time>
      </trkpt>
      <trkpt lat="48.44373" lon="-2.78554">
        <ele>126</ele>
        <time>2022-09-04T07:39:01.000Z</time>
      </trkpt>
      <trkpt lat="48.44371" lon="-2.78559">
        <ele>126.40000152588</ele>
        <time>2022-09-04T07:39:02.000Z</time>
      </trkpt>
      <trkpt lat="48.44369" lon="-2.78563">
        <ele>126.59999847412</ele>
        <time>2022-09-04T07:39:03.000Z</time>
      </trkpt>
      <trkpt lat="48.44366" lon="-2.78568">
        <ele>126.80000305176</ele>
        <time>2022-09-04T07:39:04.000Z</time>
      </trkpt>
      <trkpt lat="48.44364" lon="-2.78572">
        <ele>127</ele>
        <time>2022-09-04T07:39:05.000Z</time>
      </trkpt>
      <trkpt lat="48.44363" lon="-2.78576">
        <ele>127</ele>
        <time>2022-09-04T07:39:06.000Z</time>
      </trkpt>
      <trkpt lat="48.4436" lon="-2.78581">
        <ele>127</ele>
        <time>2022-09-04T07:39:07.000Z</time>
      </trkpt>
      <trkpt lat="48.44358" lon="-2.78585">
        <ele>127.19999694824</ele>
        <time>2022-09-04T07:39:08.000Z</time>
      </trkpt>
      <trkpt lat="48.44356" lon="-2.78589">
        <ele>127.40000152588</ele>
        <time>2022-09-04T07:39:09.000Z</time>
      </trkpt>
      <trkpt lat="48.44354" lon="-2.78594">
        <ele>127.59999847412</ele>
        <time>2022-09-04T07:39:10.000Z</time>
      </trkpt>
      <trkpt lat="48.44352" lon="-2.78598">
        <ele>127.80000305176</ele>
        <time>2022-09-04T07:39:11.000Z</time>
      </trkpt>
      <trkpt lat="48.44349" lon="-2.78602">
        <ele>128</ele>
        <time>2022-09-04T07:39:12.000Z</time>
      </trkpt>
      <trkpt lat="48.44347" lon="-2.78606">
        <ele>128</ele>
        <time>2022-09-04T07:39:13.000Z</time>
      </trkpt>
      <trkpt lat="48.44346" lon="-2.78611">
        <ele>128.39999389648</ele>
        <time>2022-09-04T07:39:14.000Z</time>
      </trkpt>
      <trkpt lat="48.44345" lon="-2.78615">
        <ele>128.60000610352</ele>
        <time>2022-09-04T07:39:15.000Z</time>
      </trkpt>
      <trkpt lat="48.44343" lon="-2.7862">
        <ele>129.19999694824</ele>
        <time>2022-09-04T07:39:16.000Z</time>
      </trkpt>
      <trkpt lat="48.44342" lon="-2.78624">
        <ele>129.39999389648</ele>
        <time>2022-09-04T07:39:17.000Z</time>
      </trkpt>
      <trkpt lat="48.4434" lon="-2.78629">
        <ele>129.60000610352</ele>
        <time>2022-09-04T07:39:18.000Z</time>
      </trkpt>
      <trkpt lat="48.4434" lon="-2.78629">
        <ele>129.80000305176</ele>
        <time>2022-09-04T07:39:19.000Z</time>
      </trkpt>
      <trkpt lat="48.44337" lon="-2.78639">
        <ele>129.80000305176</ele>
        <time>2022-09-04T07:39:20.000Z</time>
      </trkpt>
      <trkpt lat="48.44335" lon="-2.78644">
        <ele>130</ele>
        <time>2022-09-04T07:39:21.000Z</time>
      </trkpt>
      <trkpt lat="48.44334" lon="-2.78648">
        <ele>130.19999694824</ele>
        <time>2022-09-04T07:39:22.000Z</time>
      </trkpt>
      <trkpt lat="48.44331" lon="-2.78653">
        <ele>130.39999389648</ele>
        <time>2022-09-04T07:39:23.000Z</time>
      </trkpt>
      <trkpt lat="48.44329" lon="-2.78657">
        <ele>130.60000610352</ele>
        <time>2022-09-04T07:39:24.000Z</time>
      </trkpt>
      <trkpt lat="48.44326" lon="-2.78661">
        <ele>130.80000305176</ele>
        <time>2022-09-04T07:39:25.000Z</time>
      </trkpt>
      <trkpt lat="48.44325" lon="-2.78665">
        <ele>130.80000305176</ele>
        <time>2022-09-04T07:39:26.000Z</time>
      </trkpt>
      <trkpt lat="48.44323" lon="-2.78669">
        <ele>131</ele>
        <time>2022-09-04T07:39:27.000Z</time>
      </trkpt>
      <trkpt lat="48.44321" lon="-2.78674">
        <ele>131</ele>
        <time>2022-09-04T07:39:28.000Z</time>
      </trkpt>
      <trkpt lat="48.44319" lon="-2.78678">
        <ele>131</ele>
        <time>2022-09-04T07:39:29.000Z</time>
      </trkpt>
      <trkpt lat="48.44316" lon="-2.78682">
        <ele>131.19999694824</ele>
        <time>2022-09-04T07:39:30.000Z</time>
      </trkpt>
      <trkpt lat="48.44314" lon="-2.78686">
        <ele>131.19999694824</ele>
        <time>2022-09-04T07:39:31.000Z</time>
      </trkpt>
      <trkpt lat="48.44313" lon="-2.7869">
        <ele>131.19999694824</ele>
        <time>2022-09-04T07:39:32.000Z</time>
      </trkpt>
      <trkpt lat="48.44311" lon="-2.78694">
        <ele>131.19999694824</ele>
        <time>2022-09-04T07:39:33.000Z</time>
      </trkpt>
      <trkpt lat="48.44309" lon="-2.78697">
        <ele>131.39999389648</ele>
        <time>2022-09-04T07:39:34.000Z</time>
      </trkpt>
      <trkpt lat="48.44308" lon="-2.78701">
        <ele>131.39999389648</ele>
        <time>2022-09-04T07:39:35.000Z</time>
      </trkpt>
      <trkpt lat="48.44305" lon="-2.78704">
        <ele>131.60000610352</ele>
        <time>2022-09-04T07:39:36.000Z</time>
      </trkpt>
      <trkpt lat="48.44303" lon="-2.78709">
        <ele>131.60000610352</ele>
        <time>2022-09-04T07:39:37.000Z</time>
      </trkpt>
      <trkpt lat="48.44301" lon="-2.78713">
        <ele>131.80000305176</ele>
        <time>2022-09-04T07:39:38.000Z</time>
      </trkpt>
      <trkpt lat="48.443" lon="-2.78717">
        <ele>131.80000305176</ele>
        <time>2022-09-04T07:39:39.000Z</time>
      </trkpt>
      <trkpt lat="48.44298" lon="-2.78723">
        <ele>132</ele>
        <time>2022-09-04T07:39:40.000Z</time>
      </trkpt>
      <trkpt lat="48.44296" lon="-2.78727">
        <ele>132</ele>
        <time>2022-09-04T07:39:41.000Z</time>
      </trkpt>
      <trkpt lat="48.44295" lon="-2.78732">
        <ele>132.19999694824</ele>
        <time>2022-09-04T07:39:42.000Z</time>
      </trkpt>
      <trkpt lat="48.44293" lon="-2.78737">
        <ele>132.19999694824</ele>
        <time>2022-09-04T07:39:43.000Z</time>
      </trkpt>
      <trkpt lat="48.4429" lon="-2.78741">
        <ele>132.19999694824</ele>
        <time>2022-09-04T07:39:44.000Z</time>
      </trkpt>
      <trkpt lat="48.44288" lon="-2.78745">
        <ele>132.19999694824</ele>
        <time>2022-09-04T07:39:45.000Z</time>
      </trkpt>
      <trkpt lat="48.44286" lon="-2.7875">
        <ele>132.19999694824</ele>
        <time>2022-09-04T07:39:46.000Z</time>
      </trkpt>
      <trkpt lat="48.44284" lon="-2.78754">
        <ele>132.19999694824</ele>
        <time>2022-09-04T07:39:47.000Z</time>
      </trkpt>
      <trkpt lat="48.44282" lon="-2.7876">
        <ele>132.19999694824</ele>
        <time>2022-09-04T07:39:48.000Z</time>
      </trkpt>
      <trkpt lat="48.44281" lon="-2.78766">
        <ele>132.19999694824</ele>
        <time>2022-09-04T07:39:49.000Z</time>
      </trkpt>
      <trkpt lat="48.44279" lon="-2.78773">
        <ele>132.39999389648</ele>
        <time>2022-09-04T07:39:50.000Z</time>
      </trkpt>
      <trkpt lat="48.44277" lon="-2.78781">
        <ele>132.39999389648</ele>
        <time>2022-09-04T07:39:51.000Z</time>
      </trkpt>
      <trkpt lat="48.44278" lon="-2.78795">
        <ele>132.60000610352</ele>
        <time>2022-09-04T07:39:53.000Z</time>
      </trkpt>
      <trkpt lat="48.44279" lon="-2.78801">
        <ele>132.80000305176</ele>
        <time>2022-09-04T07:39:54.000Z</time>
      </trkpt>
      <trkpt lat="48.44281" lon="-2.78807">
        <ele>132.80000305176</ele>
        <time>2022-09-04T07:39:55.000Z</time>
      </trkpt>
      <trkpt lat="48.44289" lon="-2.78832">
        <ele>133.19999694824</ele>
        <time>2022-09-04T07:39:59.000Z</time>
      </trkpt>
      <trkpt lat="48.44289" lon="-2.78838">
        <ele>133.19999694824</ele>
        <time>2022-09-04T07:40:00.000Z</time>
      </trkpt>
      <trkpt lat="48.44289" lon="-2.78838">
        <ele>133.19999694824</ele>
        <time>2022-09-04T07:40:01.000Z</time>
      </trkpt>
      <trkpt lat="48.44291" lon="-2.7885">
        <ele>133.19999694824</ele>
        <time>2022-09-04T07:40:02.000Z</time>
      </trkpt>
      <trkpt lat="48.44298" lon="-2.7888">
        <ele>133.39999389648</ele>
        <time>2022-09-04T07:40:06.000Z</time>
      </trkpt>
      <trkpt lat="48.44308" lon="-2.78933">
        <ele>133.60000610352</ele>
        <time>2022-09-04T07:40:12.000Z</time>
      </trkpt>
      <trkpt lat="48.44309" lon="-2.78942">
        <ele>133.19999694824</ele>
        <time>2022-09-04T07:40:13.000Z</time>
      </trkpt>
      <trkpt lat="48.4431" lon="-2.78962">
        <ele>133</ele>
        <time>2022-09-04T07:40:15.000Z</time>
      </trkpt>
      <trkpt lat="48.44314" lon="-2.78992">
        <ele>132</ele>
        <time>2022-09-04T07:40:18.000Z</time>
      </trkpt>
      <trkpt lat="48.44316" lon="-2.79001">
        <ele>132</ele>
        <time>2022-09-04T07:40:19.000Z</time>
      </trkpt>
      <trkpt lat="48.44317" lon="-2.79011">
        <ele>131.60000610352</ele>
        <time>2022-09-04T07:40:20.000Z</time>
      </trkpt>
      <trkpt lat="48.44318" lon="-2.79021">
        <ele>131.60000610352</ele>
        <time>2022-09-04T07:40:21.000Z</time>
      </trkpt>
      <trkpt lat="48.44318" lon="-2.7903">
        <ele>131.39999389648</ele>
        <time>2022-09-04T07:40:22.000Z</time>
      </trkpt>
      <trkpt lat="48.44318" lon="-2.7904">
        <ele>131.19999694824</ele>
        <time>2022-09-04T07:40:23.000Z</time>
      </trkpt>
      <trkpt lat="48.44319" lon="-2.7905">
        <ele>130.80000305176</ele>
        <time>2022-09-04T07:40:24.000Z</time>
      </trkpt>
      <trkpt lat="48.44319" lon="-2.79089">
        <ele>129.80000305176</ele>
        <time>2022-09-04T07:40:28.000Z</time>
      </trkpt>
      <trkpt lat="48.44318" lon="-2.79111">
        <ele>129.39999389648</ele>
        <time>2022-09-04T07:40:30.000Z</time>
      </trkpt>
      <trkpt lat="48.44317" lon="-2.79122">
        <ele>129.19999694824</ele>
        <time>2022-09-04T07:40:31.000Z</time>
      </trkpt>
      <trkpt lat="48.44316" lon="-2.79144">
        <ele>128.80000305176</ele>
        <time>2022-09-04T07:40:33.000Z</time>
      </trkpt>
      <trkpt lat="48.44315" lon="-2.79154">
        <ele>128.60000610352</ele>
        <time>2022-09-04T07:40:34.000Z</time>
      </trkpt>
      <trkpt lat="48.44315" lon="-2.79165">
        <ele>128</ele>
        <time>2022-09-04T07:40:35.000Z</time>
      </trkpt>
      <trkpt lat="48.44313" lon="-2.79185">
        <ele>127.19999694824</ele>
        <time>2022-09-04T07:40:37.000Z</time>
      </trkpt>
      <trkpt lat="48.44312" lon="-2.79195">
        <ele>126.59999847412</ele>
        <time>2022-09-04T07:40:38.000Z</time>
      </trkpt>
      <trkpt lat="48.44311" lon="-2.79204">
        <ele>126.40000152588</ele>
        <time>2022-09-04T07:40:39.000Z</time>
      </trkpt>
      <trkpt lat="48.4431" lon="-2.79215">
        <ele>126</ele>
        <time>2022-09-04T07:40:40.000Z</time>
      </trkpt>
      <trkpt lat="48.4431" lon="-2.79221">
        <ele>125.80000305176</ele>
        <time>2022-09-04T07:40:41.000Z</time>
      </trkpt>
      <trkpt lat="48.4431" lon="-2.79231">
        <ele>125.40000152588</ele>
        <time>2022-09-04T07:40:42.000Z</time>
      </trkpt>
      <trkpt lat="48.4431" lon="-2.79239">
        <ele>125.19999694824</ele>
        <time>2022-09-04T07:40:43.000Z</time>
      </trkpt>
      <trkpt lat="48.4431" lon="-2.79239">
        <ele>125</ele>
        <time>2022-09-04T07:40:44.000Z</time>
      </trkpt>
      <trkpt lat="48.44315" lon="-2.79252">
        <ele>124.80000305176</ele>
        <time>2022-09-04T07:40:45.000Z</time>
      </trkpt>
      <trkpt lat="48.44317" lon="-2.79258">
        <ele>124.80000305176</ele>
        <time>2022-09-04T07:40:46.000Z</time>
      </trkpt>
      <trkpt lat="48.44319" lon="-2.79263">
        <ele>124.80000305176</ele>
        <time>2022-09-04T07:40:47.000Z</time>
      </trkpt>
      <trkpt lat="48.44319" lon="-2.79263">
        <ele>124.80000305176</ele>
        <time>2022-09-04T07:40:48.000Z</time>
      </trkpt>
      <trkpt lat="48.4432" lon="-2.79268">
        <ele>124.80000305176</ele>
        <time>2022-09-04T07:40:49.000Z</time>
      </trkpt>
      <trkpt lat="48.44322" lon="-2.79274">
        <ele>125</ele>
        <time>2022-09-04T07:40:50.000Z</time>
      </trkpt>
      <trkpt lat="48.44325" lon="-2.79285">
        <ele>125.59999847412</ele>
        <time>2022-09-04T07:40:51.000Z</time>
      </trkpt>
      <trkpt lat="48.44327" lon="-2.7929">
        <ele>125.59999847412</ele>
        <time>2022-09-04T07:40:52.000Z</time>
      </trkpt>
      <trkpt lat="48.4433" lon="-2.79296">
        <ele>126</ele>
        <time>2022-09-04T07:40:53.000Z</time>
      </trkpt>
      <trkpt lat="48.44334" lon="-2.79308">
        <ele>126.59999847412</ele>
        <time>2022-09-04T07:40:55.000Z</time>
      </trkpt>
      <trkpt lat="48.44338" lon="-2.79319">
        <ele>127.59999847412</ele>
        <time>2022-09-04T07:40:57.000Z</time>
      </trkpt>
      <trkpt lat="48.44341" lon="-2.79331">
        <ele>128.60000610352</ele>
        <time>2022-09-04T07:40:59.000Z</time>
      </trkpt>
      <trkpt lat="48.44344" lon="-2.79339">
        <ele>129.19999694824</ele>
        <time>2022-09-04T07:41:00.000Z</time>
      </trkpt>
      <trkpt lat="48.44346" lon="-2.79346">
        <ele>129.39999389648</ele>
        <time>2022-09-04T07:41:01.000Z</time>
      </trkpt>
      <trkpt lat="48.44347" lon="-2.79352">
        <ele>129.80000305176</ele>
        <time>2022-09-04T07:41:02.000Z</time>
      </trkpt>
      <trkpt lat="48.44347" lon="-2.7936">
        <ele>130</ele>
        <time>2022-09-04T07:41:03.000Z</time>
      </trkpt>
      <trkpt lat="48.44349" lon="-2.79377">
        <ele>130.60000610352</ele>
        <time>2022-09-04T07:41:05.000Z</time>
      </trkpt>
      <trkpt lat="48.4435" lon="-2.79385">
        <ele>131</ele>
        <time>2022-09-04T07:41:06.000Z</time>
      </trkpt>
      <trkpt lat="48.4435" lon="-2.79392">
        <ele>131</ele>
        <time>2022-09-04T07:41:07.000Z</time>
      </trkpt>
      <trkpt lat="48.44351" lon="-2.794">
        <ele>131.39999389648</ele>
        <time>2022-09-04T07:41:08.000Z</time>
      </trkpt>
      <trkpt lat="48.44352" lon="-2.79408">
        <ele>131.60000610352</ele>
        <time>2022-09-04T07:41:09.000Z</time>
      </trkpt>
      <trkpt lat="48.44353" lon="-2.79417">
        <ele>131.60000610352</ele>
        <time>2022-09-04T07:41:10.000Z</time>
      </trkpt>
      <trkpt lat="48.44354" lon="-2.79425">
        <ele>131.80000305176</ele>
        <time>2022-09-04T07:41:11.000Z</time>
      </trkpt>
      <trkpt lat="48.44355" lon="-2.79432">
        <ele>131.80000305176</ele>
        <time>2022-09-04T07:41:12.000Z</time>
      </trkpt>
      <trkpt lat="48.44357" lon="-2.79439">
        <ele>132</ele>
        <time>2022-09-04T07:41:13.000Z</time>
      </trkpt>
      <trkpt lat="48.44358" lon="-2.79446">
        <ele>132</ele>
        <time>2022-09-04T07:41:14.000Z</time>
      </trkpt>
      <trkpt lat="48.44358" lon="-2.79446">
        <ele>132.19999694824</ele>
        <time>2022-09-04T07:41:15.000Z</time>
      </trkpt>
      <trkpt lat="48.44362" lon="-2.79461">
        <ele>132.19999694824</ele>
        <time>2022-09-04T07:41:16.000Z</time>
      </trkpt>
      <trkpt lat="48.44363" lon="-2.79471">
        <ele>132.19999694824</ele>
        <time>2022-09-04T07:41:17.000Z</time>
      </trkpt>
      <trkpt lat="48.44364" lon="-2.79478">
        <ele>132.19999694824</ele>
        <time>2022-09-04T07:41:18.000Z</time>
      </trkpt>
      <trkpt lat="48.44366" lon="-2.79486">
        <ele>132.19999694824</ele>
        <time>2022-09-04T07:41:19.000Z</time>
      </trkpt>
      <trkpt lat="48.44366" lon="-2.79486">
        <ele>132.19999694824</ele>
        <time>2022-09-04T07:41:20.000Z</time>
      </trkpt>
      <trkpt lat="48.44368" lon="-2.79505">
        <ele>132.19999694824</ele>
        <time>2022-09-04T07:41:21.000Z</time>
      </trkpt>
      <trkpt lat="48.44369" lon="-2.79514">
        <ele>132</ele>
        <time>2022-09-04T07:41:22.000Z</time>
      </trkpt>
      <trkpt lat="48.44371" lon="-2.79523">
        <ele>132</ele>
        <time>2022-09-04T07:41:23.000Z</time>
      </trkpt>
      <trkpt lat="48.44372" lon="-2.7953">
        <ele>131.80000305176</ele>
        <time>2022-09-04T07:41:24.000Z</time>
      </trkpt>
      <trkpt lat="48.44372" lon="-2.7953">
        <ele>131.80000305176</ele>
        <time>2022-09-04T07:41:25.000Z</time>
      </trkpt>
      <trkpt lat="48.44376" lon="-2.7955">
        <ele>131.19999694824</ele>
        <time>2022-09-04T07:41:26.000Z</time>
      </trkpt>
      <trkpt lat="48.44377" lon="-2.7956">
        <ele>131</ele>
        <time>2022-09-04T07:41:27.000Z</time>
      </trkpt>
      <trkpt lat="48.44379" lon="-2.79571">
        <ele>130.80000305176</ele>
        <time>2022-09-04T07:41:28.000Z</time>
      </trkpt>
      <trkpt lat="48.44381" lon="-2.79579">
        <ele>130.39999389648</ele>
        <time>2022-09-04T07:41:29.000Z</time>
      </trkpt>
      <trkpt lat="48.44388" lon="-2.79616">
        <ele>129.60000610352</ele>
        <time>2022-09-04T07:41:32.000Z</time>
      </trkpt>
      <trkpt lat="48.44389" lon="-2.79627">
        <ele>129.39999389648</ele>
        <time>2022-09-04T07:41:33.000Z</time>
      </trkpt>
      <trkpt lat="48.44391" lon="-2.79638">
        <ele>129.19999694824</ele>
        <time>2022-09-04T07:41:34.000Z</time>
      </trkpt>
      <trkpt lat="48.44391" lon="-2.79638">
        <ele>129.19999694824</ele>
        <time>2022-09-04T07:41:35.000Z</time>
      </trkpt>
      <trkpt lat="48.44394" lon="-2.79658">
        <ele>129</ele>
        <time>2022-09-04T07:41:36.000Z</time>
      </trkpt>
      <trkpt lat="48.44396" lon="-2.79668">
        <ele>128.60000610352</ele>
        <time>2022-09-04T07:41:37.000Z</time>
      </trkpt>
      <trkpt lat="48.44398" lon="-2.79678">
        <ele>128.39999389648</ele>
        <time>2022-09-04T07:41:38.000Z</time>
      </trkpt>
      <trkpt lat="48.444" lon="-2.79686">
        <ele>127.80000305176</ele>
        <time>2022-09-04T07:41:39.000Z</time>
      </trkpt>
      <trkpt lat="48.444" lon="-2.79686">
        <ele>127.59999847412</ele>
        <time>2022-09-04T07:41:40.000Z</time>
      </trkpt>
      <trkpt lat="48.44406" lon="-2.79705">
        <ele>127.40000152588</ele>
        <time>2022-09-04T07:41:41.000Z</time>
      </trkpt>
      <trkpt lat="48.4441" lon="-2.79714">
        <ele>127.19999694824</ele>
        <time>2022-09-04T07:41:42.000Z</time>
      </trkpt>
      <trkpt lat="48.44413" lon="-2.79722">
        <ele>127</ele>
        <time>2022-09-04T07:41:43.000Z</time>
      </trkpt>
      <trkpt lat="48.44415" lon="-2.79731">
        <ele>127</ele>
        <time>2022-09-04T07:41:44.000Z</time>
      </trkpt>
      <trkpt lat="48.44417" lon="-2.79739">
        <ele>127</ele>
        <time>2022-09-04T07:41:45.000Z</time>
      </trkpt>
      <trkpt lat="48.44419" lon="-2.79746">
        <ele>127</ele>
        <time>2022-09-04T07:41:46.000Z</time>
      </trkpt>
      <trkpt lat="48.44421" lon="-2.79753">
        <ele>127</ele>
        <time>2022-09-04T07:41:47.000Z</time>
      </trkpt>
      <trkpt lat="48.44422" lon="-2.79759">
        <ele>127</ele>
        <time>2022-09-04T07:41:48.000Z</time>
      </trkpt>
      <trkpt lat="48.44424" lon="-2.79765">
        <ele>127.19999694824</ele>
        <time>2022-09-04T07:41:49.000Z</time>
      </trkpt>
      <trkpt lat="48.44426" lon="-2.79773">
        <ele>127.59999847412</ele>
        <time>2022-09-04T07:41:50.000Z</time>
      </trkpt>
      <trkpt lat="48.44428" lon="-2.79779">
        <ele>128</ele>
        <time>2022-09-04T07:41:51.000Z</time>
      </trkpt>
      <trkpt lat="48.44429" lon="-2.79786">
        <ele>128.39999389648</ele>
        <time>2022-09-04T07:41:52.000Z</time>
      </trkpt>
      <trkpt lat="48.44431" lon="-2.79791">
        <ele>128.60000610352</ele>
        <time>2022-09-04T07:41:53.000Z</time>
      </trkpt>
      <trkpt lat="48.44438" lon="-2.79817">
        <ele>129.80000305176</ele>
        <time>2022-09-04T07:41:57.000Z</time>
      </trkpt>
      <trkpt lat="48.44442" lon="-2.79831">
        <ele>130.19999694824</ele>
        <time>2022-09-04T07:41:59.000Z</time>
      </trkpt>
      <trkpt lat="48.44444" lon="-2.79839">
        <ele>130.19999694824</ele>
        <time>2022-09-04T07:42:00.000Z</time>
      </trkpt>
      <trkpt lat="48.44446" lon="-2.79843">
        <ele>130.80000305176</ele>
        <time>2022-09-04T07:42:01.000Z</time>
      </trkpt>
      <trkpt lat="48.44448" lon="-2.79849">
        <ele>131</ele>
        <time>2022-09-04T07:42:02.000Z</time>
      </trkpt>
      <trkpt lat="48.4445" lon="-2.79856">
        <ele>131.60000610352</ele>
        <time>2022-09-04T07:42:03.000Z</time>
      </trkpt>
      <trkpt lat="48.44452" lon="-2.79861">
        <ele>132.39999389648</ele>
        <time>2022-09-04T07:42:05.000Z</time>
      </trkpt>
      <trkpt lat="48.44457" lon="-2.79873">
        <ele>132.80000305176</ele>
        <time>2022-09-04T07:42:06.000Z</time>
      </trkpt>
      <trkpt lat="48.44459" lon="-2.79879">
        <ele>133.19999694824</ele>
        <time>2022-09-04T07:42:07.000Z</time>
      </trkpt>
      <trkpt lat="48.44461" lon="-2.79884">
        <ele>133.60000610352</ele>
        <time>2022-09-04T07:42:08.000Z</time>
      </trkpt>
      <trkpt lat="48.44463" lon="-2.79889">
        <ele>133.80000305176</ele>
        <time>2022-09-04T07:42:09.000Z</time>
      </trkpt>
      <trkpt lat="48.44465" lon="-2.79895">
        <ele>134.19999694824</ele>
        <time>2022-09-04T07:42:10.000Z</time>
      </trkpt>
      <trkpt lat="48.44467" lon="-2.79901">
        <ele>134.60000610352</ele>
        <time>2022-09-04T07:42:11.000Z</time>
      </trkpt>
      <trkpt lat="48.44469" lon="-2.79906">
        <ele>135.19999694824</ele>
        <time>2022-09-04T07:42:12.000Z</time>
      </trkpt>
      <trkpt lat="48.44471" lon="-2.79912">
        <ele>135.19999694824</ele>
        <time>2022-09-04T07:42:13.000Z</time>
      </trkpt>
      <trkpt lat="48.44472" lon="-2.79918">
        <ele>135.60000610352</ele>
        <time>2022-09-04T07:42:14.000Z</time>
      </trkpt>
      <trkpt lat="48.44474" lon="-2.79923">
        <ele>135.80000305176</ele>
        <time>2022-09-04T07:42:15.000Z</time>
      </trkpt>
      <trkpt lat="48.44476" lon="-2.79929">
        <ele>136</ele>
        <time>2022-09-04T07:42:16.000Z</time>
      </trkpt>
      <trkpt lat="48.44478" lon="-2.79935">
        <ele>136.19999694824</ele>
        <time>2022-09-04T07:42:17.000Z</time>
      </trkpt>
      <trkpt lat="48.4448" lon="-2.79941">
        <ele>136.39999389648</ele>
        <time>2022-09-04T07:42:18.000Z</time>
      </trkpt>
      <trkpt lat="48.44482" lon="-2.79947">
        <ele>136.60000610352</ele>
        <time>2022-09-04T07:42:19.000Z</time>
      </trkpt>
      <trkpt lat="48.44483" lon="-2.79953">
        <ele>136.60000610352</ele>
        <time>2022-09-04T07:42:20.000Z</time>
      </trkpt>
      <trkpt lat="48.44485" lon="-2.79959">
        <ele>136.80000305176</ele>
        <time>2022-09-04T07:42:21.000Z</time>
      </trkpt>
      <trkpt lat="48.44487" lon="-2.79965">
        <ele>136.80000305176</ele>
        <time>2022-09-04T07:42:22.000Z</time>
      </trkpt>
      <trkpt lat="48.44488" lon="-2.7997">
        <ele>137</ele>
        <time>2022-09-04T07:42:23.000Z</time>
      </trkpt>
      <trkpt lat="48.4449" lon="-2.79976">
        <ele>137.19999694824</ele>
        <time>2022-09-04T07:42:24.000Z</time>
      </trkpt>
      <trkpt lat="48.44491" lon="-2.79983">
        <ele>137.39999389648</ele>
        <time>2022-09-04T07:42:25.000Z</time>
      </trkpt>
      <trkpt lat="48.44493" lon="-2.79989">
        <ele>137.60000610352</ele>
        <time>2022-09-04T07:42:26.000Z</time>
      </trkpt>
      <trkpt lat="48.44495" lon="-2.79995">
        <ele>137.80000305176</ele>
        <time>2022-09-04T07:42:27.000Z</time>
      </trkpt>
      <trkpt lat="48.44497" lon="-2.80002">
        <ele>137.80000305176</ele>
        <time>2022-09-04T07:42:28.000Z</time>
      </trkpt>
      <trkpt lat="48.44499" lon="-2.80008">
        <ele>138</ele>
        <time>2022-09-04T07:42:29.000Z</time>
      </trkpt>
      <trkpt lat="48.44502" lon="-2.80015">
        <ele>138.19999694824</ele>
        <time>2022-09-04T07:42:30.000Z</time>
      </trkpt>
      <trkpt lat="48.44502" lon="-2.80015">
        <ele>138.19999694824</ele>
        <time>2022-09-04T07:42:31.000Z</time>
      </trkpt>
      <trkpt lat="48.44506" lon="-2.80029">
        <ele>138.39999389648</ele>
        <time>2022-09-04T07:42:32.000Z</time>
      </trkpt>
      <trkpt lat="48.44509" lon="-2.80037">
        <ele>138.39999389648</ele>
        <time>2022-09-04T07:42:33.000Z</time>
      </trkpt>
      <trkpt lat="48.44511" lon="-2.80045">
        <ele>138.60000610352</ele>
        <time>2022-09-04T07:42:34.000Z</time>
      </trkpt>
      <trkpt lat="48.44513" lon="-2.80053">
        <ele>138.60000610352</ele>
        <time>2022-09-04T07:42:35.000Z</time>
      </trkpt>
      <trkpt lat="48.44514" lon="-2.80061">
        <ele>138.60000610352</ele>
        <time>2022-09-04T07:42:36.000Z</time>
      </trkpt>
      <trkpt lat="48.44515" lon="-2.80069">
        <ele>138.60000610352</ele>
        <time>2022-09-04T07:42:37.000Z</time>
      </trkpt>
      <trkpt lat="48.44516" lon="-2.80077">
        <ele>138.60000610352</ele>
        <time>2022-09-04T07:42:38.000Z</time>
      </trkpt>
      <trkpt lat="48.44517" lon="-2.80085">
        <ele>138.60000610352</ele>
        <time>2022-09-04T07:42:39.000Z</time>
      </trkpt>
      <trkpt lat="48.44517" lon="-2.80093">
        <ele>138.80000305176</ele>
        <time>2022-09-04T07:42:40.000Z</time>
      </trkpt>
      <trkpt lat="48.44517" lon="-2.801">
        <ele>138.80000305176</ele>
        <time>2022-09-04T07:42:41.000Z</time>
      </trkpt>
      <trkpt lat="48.44518" lon="-2.80107">
        <ele>138.80000305176</ele>
        <time>2022-09-04T07:42:42.000Z</time>
      </trkpt>
      <trkpt lat="48.44518" lon="-2.80115">
        <ele>139</ele>
        <time>2022-09-04T07:42:43.000Z</time>
      </trkpt>
      <trkpt lat="48.44518" lon="-2.80122">
        <ele>139</ele>
        <time>2022-09-04T07:42:44.000Z</time>
      </trkpt>
      <trkpt lat="48.44517" lon="-2.80129">
        <ele>139.19999694824</ele>
        <time>2022-09-04T07:42:45.000Z</time>
      </trkpt>
      <trkpt lat="48.44517" lon="-2.80137">
        <ele>139.19999694824</ele>
        <time>2022-09-04T07:42:46.000Z</time>
      </trkpt>
      <trkpt lat="48.44517" lon="-2.80144">
        <ele>139.80000305176</ele>
        <time>2022-09-04T07:42:47.000Z</time>
      </trkpt>
      <trkpt lat="48.44516" lon="-2.80151">
        <ele>140</ele>
        <time>2022-09-04T07:42:48.000Z</time>
      </trkpt>
      <trkpt lat="48.44516" lon="-2.80158">
        <ele>140.19999694824</ele>
        <time>2022-09-04T07:42:49.000Z</time>
      </trkpt>
      <trkpt lat="48.44516" lon="-2.80165">
        <ele>140.39999389648</ele>
        <time>2022-09-04T07:42:50.000Z</time>
      </trkpt>
      <trkpt lat="48.44516" lon="-2.80172">
        <ele>140.80000305176</ele>
        <time>2022-09-04T07:42:51.000Z</time>
      </trkpt>
      <trkpt lat="48.44516" lon="-2.80179">
        <ele>140.80000305176</ele>
        <time>2022-09-04T07:42:52.000Z</time>
      </trkpt>
      <trkpt lat="48.44516" lon="-2.80186">
        <ele>141</ele>
        <time>2022-09-04T07:42:53.000Z</time>
      </trkpt>
      <trkpt lat="48.44516" lon="-2.80193">
        <ele>141.39999389648</ele>
        <time>2022-09-04T07:42:54.000Z</time>
      </trkpt>
      <trkpt lat="48.44517" lon="-2.80199">
        <ele>141.60000610352</ele>
        <time>2022-09-04T07:42:55.000Z</time>
      </trkpt>
      <trkpt lat="48.44519" lon="-2.80206">
        <ele>141.80000305176</ele>
        <time>2022-09-04T07:42:56.000Z</time>
      </trkpt>
      <trkpt lat="48.4452" lon="-2.80213">
        <ele>142</ele>
        <time>2022-09-04T07:42:57.000Z</time>
      </trkpt>
      <trkpt lat="48.44522" lon="-2.80219">
        <ele>142</ele>
        <time>2022-09-04T07:42:58.000Z</time>
      </trkpt>
      <trkpt lat="48.44525" lon="-2.80226">
        <ele>142.19999694824</ele>
        <time>2022-09-04T07:42:59.000Z</time>
      </trkpt>
      <trkpt lat="48.44528" lon="-2.80233">
        <ele>142.39999389648</ele>
        <time>2022-09-04T07:43:00.000Z</time>
      </trkpt>
      <trkpt lat="48.44531" lon="-2.8024">
        <ele>142.39999389648</ele>
        <time>2022-09-04T07:43:01.000Z</time>
      </trkpt>
      <trkpt lat="48.44535" lon="-2.80247">
        <ele>142.39999389648</ele>
        <time>2022-09-04T07:43:02.000Z</time>
      </trkpt>
      <trkpt lat="48.44539" lon="-2.80254">
        <ele>142.60000610352</ele>
        <time>2022-09-04T07:43:03.000Z</time>
      </trkpt>
      <trkpt lat="48.44543" lon="-2.8026">
        <ele>142.60000610352</ele>
        <time>2022-09-04T07:43:04.000Z</time>
      </trkpt>
      <trkpt lat="48.44548" lon="-2.80266">
        <ele>142.60000610352</ele>
        <time>2022-09-04T07:43:05.000Z</time>
      </trkpt>
      <trkpt lat="48.44553" lon="-2.80272">
        <ele>142.60000610352</ele>
        <time>2022-09-04T07:43:06.000Z</time>
      </trkpt>
      <trkpt lat="48.44553" lon="-2.80272">
        <ele>142.39999389648</ele>
        <time>2022-09-04T07:43:07.000Z</time>
      </trkpt>
      <trkpt lat="48.44564" lon="-2.80281">
        <ele>142.19999694824</ele>
        <time>2022-09-04T07:43:08.000Z</time>
      </trkpt>
      <trkpt lat="48.4457" lon="-2.80285">
        <ele>142.19999694824</ele>
        <time>2022-09-04T07:43:09.000Z</time>
      </trkpt>
      <trkpt lat="48.44576" lon="-2.80289">
        <ele>142</ele>
        <time>2022-09-04T07:43:10.000Z</time>
      </trkpt>
      <trkpt lat="48.44583" lon="-2.80293">
        <ele>141.80000305176</ele>
        <time>2022-09-04T07:43:11.000Z</time>
      </trkpt>
      <trkpt lat="48.44589" lon="-2.80298">
        <ele>141.60000610352</ele>
        <time>2022-09-04T07:43:12.000Z</time>
      </trkpt>
      <trkpt lat="48.44596" lon="-2.80302">
        <ele>141.39999389648</ele>
        <time>2022-09-04T07:43:13.000Z</time>
      </trkpt>
      <trkpt lat="48.44602" lon="-2.80306">
        <ele>141.39999389648</ele>
        <time>2022-09-04T07:43:14.000Z</time>
      </trkpt>
      <trkpt lat="48.44636" lon="-2.80326">
        <ele>140.80000305176</ele>
        <time>2022-09-04T07:43:19.000Z</time>
      </trkpt>
      <trkpt lat="48.44642" lon="-2.80331">
        <ele>140.60000610352</ele>
        <time>2022-09-04T07:43:20.000Z</time>
      </trkpt>
      <trkpt lat="48.44648" lon="-2.80334">
        <ele>140.39999389648</ele>
        <time>2022-09-04T07:43:21.000Z</time>
      </trkpt>
      <trkpt lat="48.44655" lon="-2.8034">
        <ele>140.19999694824</ele>
        <time>2022-09-04T07:43:22.000Z</time>
      </trkpt>
      <trkpt lat="48.4467" lon="-2.80351">
        <ele>139.80000305176</ele>
        <time>2022-09-04T07:43:24.000Z</time>
      </trkpt>
      <trkpt lat="48.44684" lon="-2.80361">
        <ele>139.60000610352</ele>
        <time>2022-09-04T07:43:26.000Z</time>
      </trkpt>
      <trkpt lat="48.44727" lon="-2.80384">
        <ele>138.39999389648</ele>
        <time>2022-09-04T07:43:32.000Z</time>
      </trkpt>
      <trkpt lat="48.44727" lon="-2.80384">
        <ele>138.39999389648</ele>
        <time>2022-09-04T07:43:33.000Z</time>
      </trkpt>
      <trkpt lat="48.44762" lon="-2.8041">
        <ele>138</ele>
        <time>2022-09-04T07:43:38.000Z</time>
      </trkpt>
      <trkpt lat="48.44774" lon="-2.80422">
        <ele>137.80000305176</ele>
        <time>2022-09-04T07:43:39.000Z</time>
      </trkpt>
      <trkpt lat="48.44781" lon="-2.80429">
        <ele>137.80000305176</ele>
        <time>2022-09-04T07:43:40.000Z</time>
      </trkpt>
      <trkpt lat="48.44787" lon="-2.80436">
        <ele>137.80000305176</ele>
        <time>2022-09-04T07:43:41.000Z</time>
      </trkpt>
      <trkpt lat="48.44792" lon="-2.80443">
        <ele>137.80000305176</ele>
        <time>2022-09-04T07:43:42.000Z</time>
      </trkpt>
      <trkpt lat="48.44798" lon="-2.8045">
        <ele>137.80000305176</ele>
        <time>2022-09-04T07:43:43.000Z</time>
      </trkpt>
      <trkpt lat="48.44803" lon="-2.80458">
        <ele>137.80000305176</ele>
        <time>2022-09-04T07:43:44.000Z</time>
      </trkpt>
      <trkpt lat="48.44808" lon="-2.80465">
        <ele>137.80000305176</ele>
        <time>2022-09-04T07:43:45.000Z</time>
      </trkpt>
      <trkpt lat="48.44813" lon="-2.80472">
        <ele>137.60000610352</ele>
        <time>2022-09-04T07:43:46.000Z</time>
      </trkpt>
      <trkpt lat="48.44827" lon="-2.80494">
        <ele>137.60000610352</ele>
        <time>2022-09-04T07:43:49.000Z</time>
      </trkpt>
      <trkpt lat="48.44837" lon="-2.80508">
        <ele>137.80000305176</ele>
        <time>2022-09-04T07:43:51.000Z</time>
      </trkpt>
      <trkpt lat="48.44842" lon="-2.80515">
        <ele>137.80000305176</ele>
        <time>2022-09-04T07:43:52.000Z</time>
      </trkpt>
      <trkpt lat="48.44846" lon="-2.80521">
        <ele>138</ele>
        <time>2022-09-04T07:43:53.000Z</time>
      </trkpt>
      <trkpt lat="48.44851" lon="-2.80528">
        <ele>138</ele>
        <time>2022-09-04T07:43:54.000Z</time>
      </trkpt>
      <trkpt lat="48.44856" lon="-2.80535">
        <ele>138.19999694824</ele>
        <time>2022-09-04T07:43:55.000Z</time>
      </trkpt>
      <trkpt lat="48.4486" lon="-2.80542">
        <ele>138.39999389648</ele>
        <time>2022-09-04T07:43:56.000Z</time>
      </trkpt>
      <trkpt lat="48.44865" lon="-2.80549">
        <ele>138.80000305176</ele>
        <time>2022-09-04T07:43:57.000Z</time>
      </trkpt>
      <trkpt lat="48.44868" lon="-2.80556">
        <ele>139</ele>
        <time>2022-09-04T07:43:58.000Z</time>
      </trkpt>
      <trkpt lat="48.44872" lon="-2.80563">
        <ele>139.19999694824</ele>
        <time>2022-09-04T07:43:59.000Z</time>
      </trkpt>
      <trkpt lat="48.44876" lon="-2.80569">
        <ele>139.19999694824</ele>
        <time>2022-09-04T07:44:00.000Z</time>
      </trkpt>
      <trkpt lat="48.4488" lon="-2.80576">
        <ele>139.60000610352</ele>
        <time>2022-09-04T07:44:01.000Z</time>
      </trkpt>
      <trkpt lat="48.44885" lon="-2.80583">
        <ele>139.80000305176</ele>
        <time>2022-09-04T07:44:02.000Z</time>
      </trkpt>
      <trkpt lat="48.44888" lon="-2.80589">
        <ele>139.80000305176</ele>
        <time>2022-09-04T07:44:03.000Z</time>
      </trkpt>
      <trkpt lat="48.44892" lon="-2.80596">
        <ele>140</ele>
        <time>2022-09-04T07:44:04.000Z</time>
      </trkpt>
      <trkpt lat="48.44896" lon="-2.80602">
        <ele>140</ele>
        <time>2022-09-04T07:44:05.000Z</time>
      </trkpt>
      <trkpt lat="48.449" lon="-2.80607">
        <ele>140.19999694824</ele>
        <time>2022-09-04T07:44:06.000Z</time>
      </trkpt>
      <trkpt lat="48.44903" lon="-2.80613">
        <ele>140.39999389648</ele>
        <time>2022-09-04T07:44:07.000Z</time>
      </trkpt>
      <trkpt lat="48.44907" lon="-2.80618">
        <ele>140.60000610352</ele>
        <time>2022-09-04T07:44:08.000Z</time>
      </trkpt>
      <trkpt lat="48.4491" lon="-2.80623">
        <ele>140.60000610352</ele>
        <time>2022-09-04T07:44:09.000Z</time>
      </trkpt>
      <trkpt lat="48.44913" lon="-2.80628">
        <ele>141</ele>
        <time>2022-09-04T07:44:10.000Z</time>
      </trkpt>
      <trkpt lat="48.4492" lon="-2.80638">
        <ele>141.39999389648</ele>
        <time>2022-09-04T07:44:12.000Z</time>
      </trkpt>
      <trkpt lat="48.44924" lon="-2.8064">
        <ele>142</ele>
        <time>2022-09-04T07:44:13.000Z</time>
      </trkpt>
      <trkpt lat="48.44929" lon="-2.80641">
        <ele>142.19999694824</ele>
        <time>2022-09-04T07:44:14.000Z</time>
      </trkpt>
      <trkpt lat="48.44933" lon="-2.80642">
        <ele>142.80000305176</ele>
        <time>2022-09-04T07:44:15.000Z</time>
      </trkpt>
      <trkpt lat="48.44937" lon="-2.80643">
        <ele>143</ele>
        <time>2022-09-04T07:44:16.000Z</time>
      </trkpt>
      <trkpt lat="48.44942" lon="-2.80646">
        <ele>143.19999694824</ele>
        <time>2022-09-04T07:44:17.000Z</time>
      </trkpt>
      <trkpt lat="48.44947" lon="-2.80649">
        <ele>143.39999389648</ele>
        <time>2022-09-04T07:44:18.000Z</time>
      </trkpt>
      <trkpt lat="48.44951" lon="-2.80654">
        <ele>143.80000305176</ele>
        <time>2022-09-04T07:44:19.000Z</time>
      </trkpt>
      <trkpt lat="48.44955" lon="-2.80658">
        <ele>143.80000305176</ele>
        <time>2022-09-04T07:44:20.000Z</time>
      </trkpt>
      <trkpt lat="48.44959" lon="-2.80663">
        <ele>143.80000305176</ele>
        <time>2022-09-04T07:44:21.000Z</time>
      </trkpt>
      <trkpt lat="48.44963" lon="-2.80667">
        <ele>143.80000305176</ele>
        <time>2022-09-04T07:44:22.000Z</time>
      </trkpt>
      <trkpt lat="48.44967" lon="-2.80672">
        <ele>144</ele>
        <time>2022-09-04T07:44:23.000Z</time>
      </trkpt>
      <trkpt lat="48.4497" lon="-2.80677">
        <ele>144</ele>
        <time>2022-09-04T07:44:24.000Z</time>
      </trkpt>
      <trkpt lat="48.44973" lon="-2.80682">
        <ele>144</ele>
        <time>2022-09-04T07:44:25.000Z</time>
      </trkpt>
      <trkpt lat="48.44977" lon="-2.80687">
        <ele>144</ele>
        <time>2022-09-04T07:44:26.000Z</time>
      </trkpt>
      <trkpt lat="48.4498" lon="-2.80693">
        <ele>144</ele>
        <time>2022-09-04T07:44:27.000Z</time>
      </trkpt>
      <trkpt lat="48.44984" lon="-2.80699">
        <ele>144</ele>
        <time>2022-09-04T07:44:28.000Z</time>
      </trkpt>
      <trkpt lat="48.44987" lon="-2.80705">
        <ele>144</ele>
        <time>2022-09-04T07:44:29.000Z</time>
      </trkpt>
      <trkpt lat="48.44991" lon="-2.8071">
        <ele>144</ele>
        <time>2022-09-04T07:44:30.000Z</time>
      </trkpt>
      <trkpt lat="48.44994" lon="-2.80717">
        <ele>144</ele>
        <time>2022-09-04T07:44:31.000Z</time>
      </trkpt>
      <trkpt lat="48.44998" lon="-2.80723">
        <ele>144</ele>
        <time>2022-09-04T07:44:32.000Z</time>
      </trkpt>
      <trkpt lat="48.44998" lon="-2.80723">
        <ele>144</ele>
        <time>2022-09-04T07:44:33.000Z</time>
      </trkpt>
      <trkpt lat="48.45006" lon="-2.80735">
        <ele>144</ele>
        <time>2022-09-04T07:44:34.000Z</time>
      </trkpt>
      <trkpt lat="48.45009" lon="-2.80742">
        <ele>144.19999694824</ele>
        <time>2022-09-04T07:44:35.000Z</time>
      </trkpt>
      <trkpt lat="48.45012" lon="-2.8075">
        <ele>144.19999694824</ele>
        <time>2022-09-04T07:44:36.000Z</time>
      </trkpt>
      <trkpt lat="48.45015" lon="-2.80758">
        <ele>144.19999694824</ele>
        <time>2022-09-04T07:44:37.000Z</time>
      </trkpt>
      <trkpt lat="48.45018" lon="-2.80765">
        <ele>144.19999694824</ele>
        <time>2022-09-04T07:44:38.000Z</time>
      </trkpt>
      <trkpt lat="48.45021" lon="-2.80773">
        <ele>144.19999694824</ele>
        <time>2022-09-04T07:44:39.000Z</time>
      </trkpt>
      <trkpt lat="48.45023" lon="-2.80781">
        <ele>144.19999694824</ele>
        <time>2022-09-04T07:44:40.000Z</time>
      </trkpt>
      <trkpt lat="48.45025" lon="-2.8079">
        <ele>144.39999389648</ele>
        <time>2022-09-04T07:44:41.000Z</time>
      </trkpt>
      <trkpt lat="48.45026" lon="-2.80799">
        <ele>144.60000610352</ele>
        <time>2022-09-04T07:44:42.000Z</time>
      </trkpt>
      <trkpt lat="48.45027" lon="-2.80807">
        <ele>144.80000305176</ele>
        <time>2022-09-04T07:44:43.000Z</time>
      </trkpt>
      <trkpt lat="48.45029" lon="-2.80815">
        <ele>144.80000305176</ele>
        <time>2022-09-04T07:44:44.000Z</time>
      </trkpt>
      <trkpt lat="48.4503" lon="-2.80822">
        <ele>145</ele>
        <time>2022-09-04T07:44:45.000Z</time>
      </trkpt>
      <trkpt lat="48.45032" lon="-2.80828">
        <ele>145</ele>
        <time>2022-09-04T07:44:46.000Z</time>
      </trkpt>
      <trkpt lat="48.45033" lon="-2.80834">
        <ele>145</ele>
        <time>2022-09-04T07:44:47.000Z</time>
      </trkpt>
      <trkpt lat="48.45033" lon="-2.80836">
        <ele>145.19999694824</ele>
        <time>2022-09-04T07:44:48.000Z</time>
      </trkpt>
      <trkpt lat="48.45033" lon="-2.80838">
        <ele>145.19999694824</ele>
        <time>2022-09-04T07:44:49.000Z</time>
      </trkpt>
      <trkpt lat="48.45031" lon="-2.8084">
        <ele>145.19999694824</ele>
        <time>2022-09-04T07:44:50.000Z</time>
      </trkpt>
      <trkpt lat="48.4503" lon="-2.80842">
        <ele>145.19999694824</ele>
        <time>2022-09-04T07:44:51.000Z</time>
      </trkpt>
      <trkpt lat="48.4503" lon="-2.8085">
        <ele>145.39999389648</ele>
        <time>2022-09-04T07:44:53.000Z</time>
      </trkpt>
      <trkpt lat="48.45031" lon="-2.80855">
        <ele>145.60000610352</ele>
        <time>2022-09-04T07:44:54.000Z</time>
      </trkpt>
      <trkpt lat="48.45038" lon="-2.80873">
        <ele>145.60000610352</ele>
        <time>2022-09-04T07:44:57.000Z</time>
      </trkpt>
      <trkpt lat="48.4504" lon="-2.80879">
        <ele>145.80000305176</ele>
        <time>2022-09-04T07:44:58.000Z</time>
      </trkpt>
      <trkpt lat="48.45054" lon="-2.8092">
        <ele>146.19999694824</ele>
        <time>2022-09-04T07:45:04.000Z</time>
      </trkpt>
      <trkpt lat="48.45062" lon="-2.80941">
        <ele>146.60000610352</ele>
        <time>2022-09-04T07:45:07.000Z</time>
      </trkpt>
      <trkpt lat="48.45075" lon="-2.80964">
        <ele>147</ele>
        <time>2022-09-04T07:45:11.000Z</time>
      </trkpt>
      <trkpt lat="48.45078" lon="-2.80969">
        <ele>147.19999694824</ele>
        <time>2022-09-04T07:45:12.000Z</time>
      </trkpt>
      <trkpt lat="48.45088" lon="-2.80979">
        <ele>147.39999389648</ele>
        <time>2022-09-04T07:45:14.000Z</time>
      </trkpt>
      <trkpt lat="48.45094" lon="-2.80982">
        <ele>147.60000610352</ele>
        <time>2022-09-04T07:45:15.000Z</time>
      </trkpt>
      <trkpt lat="48.451" lon="-2.80984">
        <ele>147.80000305176</ele>
        <time>2022-09-04T07:45:16.000Z</time>
      </trkpt>
      <trkpt lat="48.45106" lon="-2.80985">
        <ele>148</ele>
        <time>2022-09-04T07:45:17.000Z</time>
      </trkpt>
      <trkpt lat="48.45112" lon="-2.80986">
        <ele>148</ele>
        <time>2022-09-04T07:45:18.000Z</time>
      </trkpt>
      <trkpt lat="48.45125" lon="-2.80985">
        <ele>148.19999694824</ele>
        <time>2022-09-04T07:45:20.000Z</time>
      </trkpt>
      <trkpt lat="48.45132" lon="-2.80985">
        <ele>148.19999694824</ele>
        <time>2022-09-04T07:45:21.000Z</time>
      </trkpt>
      <trkpt lat="48.45139" lon="-2.80985">
        <ele>148.19999694824</ele>
        <time>2022-09-04T07:45:22.000Z</time>
      </trkpt>
      <trkpt lat="48.45146" lon="-2.80984">
        <ele>148.19999694824</ele>
        <time>2022-09-04T07:45:23.000Z</time>
      </trkpt>
      <trkpt lat="48.45153" lon="-2.80984">
        <ele>148.19999694824</ele>
        <time>2022-09-04T07:45:24.000Z</time>
      </trkpt>
      <trkpt lat="48.4516" lon="-2.80983">
        <ele>148</ele>
        <time>2022-09-04T07:45:25.000Z</time>
      </trkpt>
      <trkpt lat="48.45167" lon="-2.80983">
        <ele>148</ele>
        <time>2022-09-04T07:45:26.000Z</time>
      </trkpt>
      <trkpt lat="48.45174" lon="-2.80983">
        <ele>148</ele>
        <time>2022-09-04T07:45:27.000Z</time>
      </trkpt>
      <trkpt lat="48.45181" lon="-2.80982">
        <ele>148</ele>
        <time>2022-09-04T07:45:28.000Z</time>
      </trkpt>
      <trkpt lat="48.45202" lon="-2.80982">
        <ele>147.60000610352</ele>
        <time>2022-09-04T07:45:31.000Z</time>
      </trkpt>
      <trkpt lat="48.45213" lon="-2.80988">
        <ele>147</ele>
        <time>2022-09-04T07:45:33.000Z</time>
      </trkpt>
      <trkpt lat="48.45219" lon="-2.8099">
        <ele>146.80000305176</ele>
        <time>2022-09-04T07:45:34.000Z</time>
      </trkpt>
      <trkpt lat="48.45223" lon="-2.8099">
        <ele>146.60000610352</ele>
        <time>2022-09-04T07:45:35.000Z</time>
      </trkpt>
      <trkpt lat="48.45227" lon="-2.80993">
        <ele>146.19999694824</ele>
        <time>2022-09-04T07:45:36.000Z</time>
      </trkpt>
      <trkpt lat="48.4523" lon="-2.80997">
        <ele>146.19999694824</ele>
        <time>2022-09-04T07:45:37.000Z</time>
      </trkpt>
      <trkpt lat="48.45233" lon="-2.81005">
        <ele>145.80000305176</ele>
        <time>2022-09-04T07:45:38.000Z</time>
      </trkpt>
      <trkpt lat="48.45234" lon="-2.81013">
        <ele>145.80000305176</ele>
        <time>2022-09-04T07:45:39.000Z</time>
      </trkpt>
      <trkpt lat="48.45234" lon="-2.81031">
        <ele>145.39999389648</ele>
        <time>2022-09-04T07:45:41.000Z</time>
      </trkpt>
      <trkpt lat="48.45234" lon="-2.81041">
        <ele>145.19999694824</ele>
        <time>2022-09-04T07:45:42.000Z</time>
      </trkpt>
      <trkpt lat="48.45233" lon="-2.81051">
        <ele>145</ele>
        <time>2022-09-04T07:45:43.000Z</time>
      </trkpt>
      <trkpt lat="48.45233" lon="-2.81061">
        <ele>145</ele>
        <time>2022-09-04T07:45:44.000Z</time>
      </trkpt>
      <trkpt lat="48.45232" lon="-2.81079">
        <ele>144.80000305176</ele>
        <time>2022-09-04T07:45:46.000Z</time>
      </trkpt>
      <trkpt lat="48.45231" lon="-2.81088">
        <ele>144.80000305176</ele>
        <time>2022-09-04T07:45:47.000Z</time>
      </trkpt>
      <trkpt lat="48.4523" lon="-2.81098">
        <ele>144.80000305176</ele>
        <time>2022-09-04T07:45:48.000Z</time>
      </trkpt>
      <trkpt lat="48.45229" lon="-2.81107">
        <ele>144.80000305176</ele>
        <time>2022-09-04T07:45:49.000Z</time>
      </trkpt>
      <trkpt lat="48.45228" lon="-2.81116">
        <ele>144.80000305176</ele>
        <time>2022-09-04T07:45:50.000Z</time>
      </trkpt>
      <trkpt lat="48.45227" lon="-2.81125">
        <ele>144.80000305176</ele>
        <time>2022-09-04T07:45:51.000Z</time>
      </trkpt>
      <trkpt lat="48.45226" lon="-2.81134">
        <ele>144.80000305176</ele>
        <time>2022-09-04T07:45:52.000Z</time>
      </trkpt>
      <trkpt lat="48.45225" lon="-2.81142">
        <ele>145</ele>
        <time>2022-09-04T07:45:53.000Z</time>
      </trkpt>
      <trkpt lat="48.45224" lon="-2.8115">
        <ele>145</ele>
        <time>2022-09-04T07:45:54.000Z</time>
      </trkpt>
      <trkpt lat="48.45224" lon="-2.81158">
        <ele>145.19999694824</ele>
        <time>2022-09-04T07:45:55.000Z</time>
      </trkpt>
      <trkpt lat="48.45223" lon="-2.81166">
        <ele>145.39999389648</ele>
        <time>2022-09-04T07:45:56.000Z</time>
      </trkpt>
      <trkpt lat="48.45223" lon="-2.81174">
        <ele>145.60000610352</ele>
        <time>2022-09-04T07:45:57.000Z</time>
      </trkpt>
      <trkpt lat="48.45222" lon="-2.81182">
        <ele>145.80000305176</ele>
        <time>2022-09-04T07:45:58.000Z</time>
      </trkpt>
      <trkpt lat="48.45221" lon="-2.81198">
        <ele>146.19999694824</ele>
        <time>2022-09-04T07:46:00.000Z</time>
      </trkpt>
      <trkpt lat="48.45219" lon="-2.8123">
        <ele>147</ele>
        <time>2022-09-04T07:46:04.000Z</time>
      </trkpt>
      <trkpt lat="48.45218" lon="-2.81246">
        <ele>147.39999389648</ele>
        <time>2022-09-04T07:46:06.000Z</time>
      </trkpt>
      <trkpt lat="48.45219" lon="-2.81255">
        <ele>147.39999389648</ele>
        <time>2022-09-04T07:46:07.000Z</time>
      </trkpt>
      <trkpt lat="48.45218" lon="-2.81263">
        <ele>147.60000610352</ele>
        <time>2022-09-04T07:46:08.000Z</time>
      </trkpt>
      <trkpt lat="48.45218" lon="-2.8127">
        <ele>147.60000610352</ele>
        <time>2022-09-04T07:46:09.000Z</time>
      </trkpt>
      <trkpt lat="48.45219" lon="-2.81277">
        <ele>147.60000610352</ele>
        <time>2022-09-04T07:46:10.000Z</time>
      </trkpt>
      <trkpt lat="48.45222" lon="-2.81284">
        <ele>147.80000305176</ele>
        <time>2022-09-04T07:46:11.000Z</time>
      </trkpt>
      <trkpt lat="48.45224" lon="-2.8129">
        <ele>147.80000305176</ele>
        <time>2022-09-04T07:46:12.000Z</time>
      </trkpt>
      <trkpt lat="48.45225" lon="-2.81299">
        <ele>147.80000305176</ele>
        <time>2022-09-04T07:46:13.000Z</time>
      </trkpt>
      <trkpt lat="48.45226" lon="-2.81307">
        <ele>147.80000305176</ele>
        <time>2022-09-04T07:46:14.000Z</time>
      </trkpt>
      <trkpt lat="48.45225" lon="-2.81326">
        <ele>148</ele>
        <time>2022-09-04T07:46:16.000Z</time>
      </trkpt>
      <trkpt lat="48.45225" lon="-2.81326">
        <ele>148</ele>
        <time>2022-09-04T07:46:17.000Z</time>
      </trkpt>
      <trkpt lat="48.45224" lon="-2.81352">
        <ele>148</ele>
        <time>2022-09-04T07:46:19.000Z</time>
      </trkpt>
      <trkpt lat="48.45224" lon="-2.8136">
        <ele>148</ele>
        <time>2022-09-04T07:46:20.000Z</time>
      </trkpt>
      <trkpt lat="48.45224" lon="-2.81366">
        <ele>148</ele>
        <time>2022-09-04T07:46:21.000Z</time>
      </trkpt>
      <trkpt lat="48.45224" lon="-2.81374">
        <ele>148.19999694824</ele>
        <time>2022-09-04T07:46:22.000Z</time>
      </trkpt>
      <trkpt lat="48.45224" lon="-2.81382">
        <ele>148.39999389648</ele>
        <time>2022-09-04T07:46:23.000Z</time>
      </trkpt>
      <trkpt lat="48.45224" lon="-2.81392">
        <ele>148.39999389648</ele>
        <time>2022-09-04T07:46:24.000Z</time>
      </trkpt>
      <trkpt lat="48.45224" lon="-2.81399">
        <ele>148.60000610352</ele>
        <time>2022-09-04T07:46:25.000Z</time>
      </trkpt>
      <trkpt lat="48.45223" lon="-2.81405">
        <ele>148.60000610352</ele>
        <time>2022-09-04T07:46:26.000Z</time>
      </trkpt>
      <trkpt lat="48.45223" lon="-2.81412">
        <ele>148.60000610352</ele>
        <time>2022-09-04T07:46:27.000Z</time>
      </trkpt>
      <trkpt lat="48.45223" lon="-2.81412">
        <ele>148.80000305176</ele>
        <time>2022-09-04T07:46:28.000Z</time>
      </trkpt>
      <trkpt lat="48.45223" lon="-2.81425">
        <ele>148.80000305176</ele>
        <time>2022-09-04T07:46:29.000Z</time>
      </trkpt>
      <trkpt lat="48.45222" lon="-2.81433">
        <ele>148.80000305176</ele>
        <time>2022-09-04T07:46:30.000Z</time>
      </trkpt>
      <trkpt lat="48.45222" lon="-2.81438">
        <ele>148.80000305176</ele>
        <time>2022-09-04T07:46:31.000Z</time>
      </trkpt>
      <trkpt lat="48.45222" lon="-2.81443">
        <ele>148.80000305176</ele>
        <time>2022-09-04T07:46:32.000Z</time>
      </trkpt>
      <trkpt lat="48.45223" lon="-2.81449">
        <ele>148.80000305176</ele>
        <time>2022-09-04T07:46:33.000Z</time>
      </trkpt>
      <trkpt lat="48.45223" lon="-2.81454">
        <ele>148.80000305176</ele>
        <time>2022-09-04T07:46:34.000Z</time>
      </trkpt>
      <trkpt lat="48.45222" lon="-2.81461">
        <ele>148.80000305176</ele>
        <time>2022-09-04T07:46:35.000Z</time>
      </trkpt>
      <trkpt lat="48.4522" lon="-2.81465">
        <ele>148.80000305176</ele>
        <time>2022-09-04T07:46:36.000Z</time>
      </trkpt>
      <trkpt lat="48.45216" lon="-2.81468">
        <ele>148.80000305176</ele>
        <time>2022-09-04T07:46:37.000Z</time>
      </trkpt>
      <trkpt lat="48.45208" lon="-2.8147">
        <ele>149</ele>
        <time>2022-09-04T07:46:39.000Z</time>
      </trkpt>
      <trkpt lat="48.45198" lon="-2.81466">
        <ele>149.19999694824</ele>
        <time>2022-09-04T07:46:41.000Z</time>
      </trkpt>
      <trkpt lat="48.45198" lon="-2.81466">
        <ele>149.39999389648</ele>
        <time>2022-09-04T07:46:42.000Z</time>
      </trkpt>
      <trkpt lat="48.45186" lon="-2.81462">
        <ele>149.39999389648</ele>
        <time>2022-09-04T07:46:43.000Z</time>
      </trkpt>
      <trkpt lat="48.4517" lon="-2.81457">
        <ele>149.80000305176</ele>
        <time>2022-09-04T07:46:46.000Z</time>
      </trkpt>
      <trkpt lat="48.45163" lon="-2.81458">
        <ele>149.80000305176</ele>
        <time>2022-09-04T07:46:47.000Z</time>
      </trkpt>
      <trkpt lat="48.4516" lon="-2.81461">
        <ele>149.80000305176</ele>
        <time>2022-09-04T07:46:48.000Z</time>
      </trkpt>
      <trkpt lat="48.45154" lon="-2.81473">
        <ele>149.80000305176</ele>
        <time>2022-09-04T07:46:50.000Z</time>
      </trkpt>
      <trkpt lat="48.45147" lon="-2.81489">
        <ele>149.80000305176</ele>
        <time>2022-09-04T07:46:52.000Z</time>
      </trkpt>
      <trkpt lat="48.45137" lon="-2.81508">
        <ele>149.80000305176</ele>
        <time>2022-09-04T07:46:55.000Z</time>
      </trkpt>
      <trkpt lat="48.45133" lon="-2.81514">
        <ele>149.80000305176</ele>
        <time>2022-09-04T07:46:56.000Z</time>
      </trkpt>
      <trkpt lat="48.45129" lon="-2.81519">
        <ele>149.80000305176</ele>
        <time>2022-09-04T07:46:57.000Z</time>
      </trkpt>
      <trkpt lat="48.45125" lon="-2.81524">
        <ele>149.80000305176</ele>
        <time>2022-09-04T07:46:58.000Z</time>
      </trkpt>
      <trkpt lat="48.45123" lon="-2.81528">
        <ele>149.80000305176</ele>
        <time>2022-09-04T07:46:59.000Z</time>
      </trkpt>
      <trkpt lat="48.4512" lon="-2.81534">
        <ele>149.80000305176</ele>
        <time>2022-09-04T07:47:00.000Z</time>
      </trkpt>
      <trkpt lat="48.45119" lon="-2.8154">
        <ele>149.80000305176</ele>
        <time>2022-09-04T07:47:01.000Z</time>
      </trkpt>
      <trkpt lat="48.45118" lon="-2.81546">
        <ele>149.80000305176</ele>
        <time>2022-09-04T07:47:02.000Z</time>
      </trkpt>
      <trkpt lat="48.45115" lon="-2.81552">
        <ele>149.80000305176</ele>
        <time>2022-09-04T07:47:03.000Z</time>
      </trkpt>
      <trkpt lat="48.45112" lon="-2.81557">
        <ele>149.80000305176</ele>
        <time>2022-09-04T07:47:04.000Z</time>
      </trkpt>
      <trkpt lat="48.45104" lon="-2.8157">
        <ele>149.60000610352</ele>
        <time>2022-09-04T07:47:06.000Z</time>
      </trkpt>
      <trkpt lat="48.45101" lon="-2.81576">
        <ele>149.60000610352</ele>
        <time>2022-09-04T07:47:07.000Z</time>
      </trkpt>
      <trkpt lat="48.45092" lon="-2.81596">
        <ele>149.39999389648</ele>
        <time>2022-09-04T07:47:10.000Z</time>
      </trkpt>
      <trkpt lat="48.45062" lon="-2.81652">
        <ele>148.60000610352</ele>
        <time>2022-09-04T07:47:18.000Z</time>
      </trkpt>
      <trkpt lat="48.45049" lon="-2.81676">
        <ele>148.39999389648</ele>
        <time>2022-09-04T07:47:21.000Z</time>
      </trkpt>
      <trkpt lat="48.45046" lon="-2.81682">
        <ele>148.19999694824</ele>
        <time>2022-09-04T07:47:22.000Z</time>
      </trkpt>
      <trkpt lat="48.45042" lon="-2.8169">
        <ele>148</ele>
        <time>2022-09-04T07:47:23.000Z</time>
      </trkpt>
      <trkpt lat="48.45026" lon="-2.81723">
        <ele>147.60000610352</ele>
        <time>2022-09-04T07:47:27.000Z</time>
      </trkpt>
      <trkpt lat="48.45024" lon="-2.81728">
        <ele>147</ele>
        <time>2022-09-04T07:47:28.000Z</time>
      </trkpt>
      <trkpt lat="48.45023" lon="-2.81735">
        <ele>147</ele>
        <time>2022-09-04T07:47:29.000Z</time>
      </trkpt>
      <trkpt lat="48.45025" lon="-2.81741">
        <ele>146.80000305176</ele>
        <time>2022-09-04T07:47:30.000Z</time>
      </trkpt>
      <trkpt lat="48.45028" lon="-2.81746">
        <ele>146.80000305176</ele>
        <time>2022-09-04T07:47:31.000Z</time>
      </trkpt>
      <trkpt lat="48.45033" lon="-2.8175">
        <ele>146.39999389648</ele>
        <time>2022-09-04T07:47:32.000Z</time>
      </trkpt>
      <trkpt lat="48.45038" lon="-2.81753">
        <ele>146.19999694824</ele>
        <time>2022-09-04T07:47:33.000Z</time>
      </trkpt>
      <trkpt lat="48.45043" lon="-2.81756">
        <ele>145.80000305176</ele>
        <time>2022-09-04T07:47:34.000Z</time>
      </trkpt>
      <trkpt lat="48.45053" lon="-2.81762">
        <ele>145.60000610352</ele>
        <time>2022-09-04T07:47:36.000Z</time>
      </trkpt>
      <trkpt lat="48.45057" lon="-2.81764">
        <ele>145.60000610352</ele>
        <time>2022-09-04T07:47:37.000Z</time>
      </trkpt>
      <trkpt lat="48.45061" lon="-2.81766">
        <ele>145.39999389648</ele>
        <time>2022-09-04T07:47:38.000Z</time>
      </trkpt>
      <trkpt lat="48.45066" lon="-2.81767">
        <ele>145.39999389648</ele>
        <time>2022-09-04T07:47:39.000Z</time>
      </trkpt>
      <trkpt lat="48.45069" lon="-2.81768">
        <ele>145.60000610352</ele>
        <time>2022-09-04T07:47:40.000Z</time>
      </trkpt>
      <trkpt lat="48.45073" lon="-2.8177">
        <ele>145.80000305176</ele>
        <time>2022-09-04T07:47:41.000Z</time>
      </trkpt>
      <trkpt lat="48.45077" lon="-2.81772">
        <ele>145.80000305176</ele>
        <time>2022-09-04T07:47:42.000Z</time>
      </trkpt>
      <trkpt lat="48.4508" lon="-2.81773">
        <ele>145.80000305176</ele>
        <time>2022-09-04T07:47:43.000Z</time>
      </trkpt>
      <trkpt lat="48.45084" lon="-2.81775">
        <ele>146</ele>
        <time>2022-09-04T07:47:44.000Z</time>
      </trkpt>
      <trkpt lat="48.45096" lon="-2.8178">
        <ele>147.19999694824</ele>
        <time>2022-09-04T07:47:47.000Z</time>
      </trkpt>
      <trkpt lat="48.45107" lon="-2.81783">
        <ele>147.60000610352</ele>
        <time>2022-09-04T07:47:49.000Z</time>
      </trkpt>
      <trkpt lat="48.45113" lon="-2.81786">
        <ele>147.80000305176</ele>
        <time>2022-09-04T07:47:50.000Z</time>
      </trkpt>
      <trkpt lat="48.45117" lon="-2.81789">
        <ele>148</ele>
        <time>2022-09-04T07:47:51.000Z</time>
      </trkpt>
      <trkpt lat="48.45123" lon="-2.81791">
        <ele>148.19999694824</ele>
        <time>2022-09-04T07:47:52.000Z</time>
      </trkpt>
      <trkpt lat="48.45131" lon="-2.81793">
        <ele>148.19999694824</ele>
        <time>2022-09-04T07:47:53.000Z</time>
      </trkpt>
      <trkpt lat="48.45136" lon="-2.81796">
        <ele>148.39999389648</ele>
        <time>2022-09-04T07:47:54.000Z</time>
      </trkpt>
      <trkpt lat="48.45151" lon="-2.81805">
        <ele>148.80000305176</ele>
        <time>2022-09-04T07:47:57.000Z</time>
      </trkpt>
      <trkpt lat="48.45156" lon="-2.81807">
        <ele>149</ele>
        <time>2022-09-04T07:47:58.000Z</time>
      </trkpt>
      <trkpt lat="48.45168" lon="-2.81813">
        <ele>149.19999694824</ele>
        <time>2022-09-04T07:48:01.000Z</time>
      </trkpt>
      <trkpt lat="48.45172" lon="-2.81815">
        <ele>149.19999694824</ele>
        <time>2022-09-04T07:48:02.000Z</time>
      </trkpt>
      <trkpt lat="48.45177" lon="-2.81819">
        <ele>149.39999389648</ele>
        <time>2022-09-04T07:48:03.000Z</time>
      </trkpt>
      <trkpt lat="48.4518" lon="-2.8182">
        <ele>149.39999389648</ele>
        <time>2022-09-04T07:48:04.000Z</time>
      </trkpt>
      <trkpt lat="48.45187" lon="-2.81824">
        <ele>149.39999389648</ele>
        <time>2022-09-04T07:48:05.000Z</time>
      </trkpt>
      <trkpt lat="48.45194" lon="-2.81828">
        <ele>149.39999389648</ele>
        <time>2022-09-04T07:48:06.000Z</time>
      </trkpt>
      <trkpt lat="48.45199" lon="-2.8183">
        <ele>149.60000610352</ele>
        <time>2022-09-04T07:48:07.000Z</time>
      </trkpt>
      <trkpt lat="48.45204" lon="-2.81833">
        <ele>149.60000610352</ele>
        <time>2022-09-04T07:48:08.000Z</time>
      </trkpt>
      <trkpt lat="48.45208" lon="-2.81837">
        <ele>149.60000610352</ele>
        <time>2022-09-04T07:48:09.000Z</time>
      </trkpt>
      <trkpt lat="48.45213" lon="-2.81842">
        <ele>149.60000610352</ele>
        <time>2022-09-04T07:48:10.000Z</time>
      </trkpt>
      <trkpt lat="48.45218" lon="-2.81848">
        <ele>149.60000610352</ele>
        <time>2022-09-04T07:48:11.000Z</time>
      </trkpt>
      <trkpt lat="48.45223" lon="-2.81855">
        <ele>149.80000305176</ele>
        <time>2022-09-04T07:48:12.000Z</time>
      </trkpt>
      <trkpt lat="48.45236" lon="-2.8188">
        <ele>150</ele>
        <time>2022-09-04T07:48:15.000Z</time>
      </trkpt>
      <trkpt lat="48.45262" lon="-2.81922">
        <ele>150.19999694824</ele>
        <time>2022-09-04T07:48:21.000Z</time>
      </trkpt>
      <trkpt lat="48.4529" lon="-2.81955">
        <ele>149.60000610352</ele>
        <time>2022-09-04T07:48:26.000Z</time>
      </trkpt>
      <trkpt lat="48.45302" lon="-2.81968">
        <ele>149.39999389648</ele>
        <time>2022-09-04T07:48:28.000Z</time>
      </trkpt>
      <trkpt lat="48.45307" lon="-2.81974">
        <ele>149</ele>
        <time>2022-09-04T07:48:29.000Z</time>
      </trkpt>
      <trkpt lat="48.45313" lon="-2.81979">
        <ele>149</ele>
        <time>2022-09-04T07:48:30.000Z</time>
      </trkpt>
      <trkpt lat="48.4532" lon="-2.81982">
        <ele>148.80000305176</ele>
        <time>2022-09-04T07:48:31.000Z</time>
      </trkpt>
      <trkpt lat="48.45336" lon="-2.81978">
        <ele>148.39999389648</ele>
        <time>2022-09-04T07:48:33.000Z</time>
      </trkpt>
      <trkpt lat="48.45342" lon="-2.81973">
        <ele>148.39999389648</ele>
        <time>2022-09-04T07:48:34.000Z</time>
      </trkpt>
      <trkpt lat="48.45348" lon="-2.81964">
        <ele>148</ele>
        <time>2022-09-04T07:48:35.000Z</time>
      </trkpt>
      <trkpt lat="48.45358" lon="-2.81944">
        <ele>147.60000610352</ele>
        <time>2022-09-04T07:48:37.000Z</time>
      </trkpt>
      <trkpt lat="48.45362" lon="-2.81934">
        <ele>147.19999694824</ele>
        <time>2022-09-04T07:48:38.000Z</time>
      </trkpt>
      <trkpt lat="48.45366" lon="-2.81923">
        <ele>147.19999694824</ele>
        <time>2022-09-04T07:48:39.000Z</time>
      </trkpt>
      <trkpt lat="48.4537" lon="-2.81913">
        <ele>146.80000305176</ele>
        <time>2022-09-04T07:48:40.000Z</time>
      </trkpt>
      <trkpt lat="48.45374" lon="-2.81903">
        <ele>146.60000610352</ele>
        <time>2022-09-04T07:48:41.000Z</time>
      </trkpt>
      <trkpt lat="48.45378" lon="-2.81892">
        <ele>146.39999389648</ele>
        <time>2022-09-04T07:48:42.000Z</time>
      </trkpt>
      <trkpt lat="48.45382" lon="-2.8188">
        <ele>146.19999694824</ele>
        <time>2022-09-04T07:48:43.000Z</time>
      </trkpt>
      <trkpt lat="48.45389" lon="-2.81862">
        <ele>145.80000305176</ele>
        <time>2022-09-04T07:48:45.000Z</time>
      </trkpt>
      <trkpt lat="48.45394" lon="-2.8185">
        <ele>145.39999389648</ele>
        <time>2022-09-04T07:48:46.000Z</time>
      </trkpt>
      <trkpt lat="48.45397" lon="-2.8184">
        <ele>145.19999694824</ele>
        <time>2022-09-04T07:48:47.000Z</time>
      </trkpt>
      <trkpt lat="48.45399" lon="-2.81832">
        <ele>145.19999694824</ele>
        <time>2022-09-04T07:48:48.000Z</time>
      </trkpt>
      <trkpt lat="48.45401" lon="-2.81821">
        <ele>145.19999694824</ele>
        <time>2022-09-04T07:48:49.000Z</time>
      </trkpt>
      <trkpt lat="48.45403" lon="-2.81812">
        <ele>145.19999694824</ele>
        <time>2022-09-04T07:48:50.000Z</time>
      </trkpt>
      <trkpt lat="48.45404" lon="-2.81801">
        <ele>145.19999694824</ele>
        <time>2022-09-04T07:48:51.000Z</time>
      </trkpt>
      <trkpt lat="48.45406" lon="-2.81793">
        <ele>145.19999694824</ele>
        <time>2022-09-04T07:48:52.000Z</time>
      </trkpt>
      <trkpt lat="48.45407" lon="-2.81786">
        <ele>145.19999694824</ele>
        <time>2022-09-04T07:48:53.000Z</time>
      </trkpt>
      <trkpt lat="48.45408" lon="-2.81781">
        <ele>145.39999389648</ele>
        <time>2022-09-04T07:48:54.000Z</time>
      </trkpt>
      <trkpt lat="48.45411" lon="-2.81775">
        <ele>145.39999389648</ele>
        <time>2022-09-04T07:48:55.000Z</time>
      </trkpt>
      <trkpt lat="48.45414" lon="-2.81771">
        <ele>145.39999389648</ele>
        <time>2022-09-04T07:48:56.000Z</time>
      </trkpt>
      <trkpt lat="48.45418" lon="-2.81765">
        <ele>145.60000610352</ele>
        <time>2022-09-04T07:48:57.000Z</time>
      </trkpt>
      <trkpt lat="48.45423" lon="-2.8176">
        <ele>145.60000610352</ele>
        <time>2022-09-04T07:48:58.000Z</time>
      </trkpt>
      <trkpt lat="48.45427" lon="-2.81754">
        <ele>145.60000610352</ele>
        <time>2022-09-04T07:48:59.000Z</time>
      </trkpt>
      <trkpt lat="48.45435" lon="-2.81742">
        <ele>145.80000305176</ele>
        <time>2022-09-04T07:49:01.000Z</time>
      </trkpt>
      <trkpt lat="48.45439" lon="-2.81735">
        <ele>146</ele>
        <time>2022-09-04T07:49:02.000Z</time>
      </trkpt>
      <trkpt lat="48.4545" lon="-2.81717">
        <ele>146.39999389648</ele>
        <time>2022-09-04T07:49:05.000Z</time>
      </trkpt>
      <trkpt lat="48.45457" lon="-2.81707">
        <ele>146.60000610352</ele>
        <time>2022-09-04T07:49:07.000Z</time>
      </trkpt>
      <trkpt lat="48.4546" lon="-2.81702">
        <ele>146.80000305176</ele>
        <time>2022-09-04T07:49:08.000Z</time>
      </trkpt>
      <trkpt lat="48.45463" lon="-2.81698">
        <ele>147</ele>
        <time>2022-09-04T07:49:09.000Z</time>
      </trkpt>
      <trkpt lat="48.45465" lon="-2.81693">
        <ele>147.19999694824</ele>
        <time>2022-09-04T07:49:10.000Z</time>
      </trkpt>
      <trkpt lat="48.45468" lon="-2.81689">
        <ele>147.19999694824</ele>
        <time>2022-09-04T07:49:11.000Z</time>
      </trkpt>
      <trkpt lat="48.45471" lon="-2.81686">
        <ele>147.19999694824</ele>
        <time>2022-09-04T07:49:12.000Z</time>
      </trkpt>
      <trkpt lat="48.45475" lon="-2.81682">
        <ele>147.19999694824</ele>
        <time>2022-09-04T07:49:13.000Z</time>
      </trkpt>
      <trkpt lat="48.45491" lon="-2.81668">
        <ele>147.80000305176</ele>
        <time>2022-09-04T07:49:16.000Z</time>
      </trkpt>
      <trkpt lat="48.45497" lon="-2.81663">
        <ele>148</ele>
        <time>2022-09-04T07:49:17.000Z</time>
      </trkpt>
      <trkpt lat="48.45511" lon="-2.81646">
        <ele>148.39999389648</ele>
        <time>2022-09-04T07:49:20.000Z</time>
      </trkpt>
      <trkpt lat="48.45511" lon="-2.81646">
        <ele>148.39999389648</ele>
        <time>2022-09-04T07:49:21.000Z</time>
      </trkpt>
      <trkpt lat="48.45522" lon="-2.81643">
        <ele>148.19999694824</ele>
        <time>2022-09-04T07:49:22.000Z</time>
      </trkpt>
      <trkpt lat="48.45529" lon="-2.81644">
        <ele>148.19999694824</ele>
        <time>2022-09-04T07:49:23.000Z</time>
      </trkpt>
      <trkpt lat="48.45534" lon="-2.81647">
        <ele>148</ele>
        <time>2022-09-04T07:49:24.000Z</time>
      </trkpt>
      <trkpt lat="48.45545" lon="-2.81655">
        <ele>147.39999389648</ele>
        <time>2022-09-04T07:49:26.000Z</time>
      </trkpt>
      <trkpt lat="48.45551" lon="-2.81658">
        <ele>147.19999694824</ele>
        <time>2022-09-04T07:49:27.000Z</time>
      </trkpt>
      <trkpt lat="48.45571" lon="-2.81665">
        <ele>146.80000305176</ele>
        <time>2022-09-04T07:49:30.000Z</time>
      </trkpt>
      <trkpt lat="48.45576" lon="-2.81667">
        <ele>146.80000305176</ele>
        <time>2022-09-04T07:49:31.000Z</time>
      </trkpt>
      <trkpt lat="48.45584" lon="-2.8167">
        <ele>146.60000610352</ele>
        <time>2022-09-04T07:49:32.000Z</time>
      </trkpt>
      <trkpt lat="48.4559" lon="-2.81673">
        <ele>146.60000610352</ele>
        <time>2022-09-04T07:49:33.000Z</time>
      </trkpt>
      <trkpt lat="48.45595" lon="-2.81676">
        <ele>146.60000610352</ele>
        <time>2022-09-04T07:49:34.000Z</time>
      </trkpt>
      <trkpt lat="48.456" lon="-2.8168">
        <ele>146.60000610352</ele>
        <time>2022-09-04T07:49:35.000Z</time>
      </trkpt>
      <trkpt lat="48.45605" lon="-2.81682">
        <ele>146.39999389648</ele>
        <time>2022-09-04T07:49:36.000Z</time>
      </trkpt>
      <trkpt lat="48.45617" lon="-2.81688">
        <ele>146.19999694824</ele>
        <time>2022-09-04T07:49:38.000Z</time>
      </trkpt>
      <trkpt lat="48.45623" lon="-2.81691">
        <ele>146.19999694824</ele>
        <time>2022-09-04T07:49:39.000Z</time>
      </trkpt>
      <trkpt lat="48.45635" lon="-2.81695">
        <ele>146</ele>
        <time>2022-09-04T07:49:41.000Z</time>
      </trkpt>
      <trkpt lat="48.45646" lon="-2.81703">
        <ele>145.80000305176</ele>
        <time>2022-09-04T07:49:43.000Z</time>
      </trkpt>
      <trkpt lat="48.45653" lon="-2.81706">
        <ele>145.60000610352</ele>
        <time>2022-09-04T07:49:44.000Z</time>
      </trkpt>
      <trkpt lat="48.45681" lon="-2.81715">
        <ele>144.60000610352</ele>
        <time>2022-09-04T07:49:48.000Z</time>
      </trkpt>
      <trkpt lat="48.45736" lon="-2.81725">
        <ele>143.80000305176</ele>
        <time>2022-09-04T07:49:55.000Z</time>
      </trkpt>
      <trkpt lat="48.45744" lon="-2.81726">
        <ele>143.39999389648</ele>
        <time>2022-09-04T07:49:56.000Z</time>
      </trkpt>
      <trkpt lat="48.45751" lon="-2.81728">
        <ele>143.19999694824</ele>
        <time>2022-09-04T07:49:57.000Z</time>
      </trkpt>
      <trkpt lat="48.45758" lon="-2.8173">
        <ele>143.19999694824</ele>
        <time>2022-09-04T07:49:58.000Z</time>
      </trkpt>
      <trkpt lat="48.45765" lon="-2.81733">
        <ele>143</ele>
        <time>2022-09-04T07:49:59.000Z</time>
      </trkpt>
      <trkpt lat="48.45772" lon="-2.81736">
        <ele>143</ele>
        <time>2022-09-04T07:50:00.000Z</time>
      </trkpt>
      <trkpt lat="48.45779" lon="-2.8174">
        <ele>142.80000305176</ele>
        <time>2022-09-04T07:50:01.000Z</time>
      </trkpt>
      <trkpt lat="48.45786" lon="-2.81743">
        <ele>142.80000305176</ele>
        <time>2022-09-04T07:50:02.000Z</time>
      </trkpt>
      <trkpt lat="48.45813" lon="-2.81757">
        <ele>142.60000610352</ele>
        <time>2022-09-04T07:50:06.000Z</time>
      </trkpt>
      <trkpt lat="48.4582" lon="-2.81761">
        <ele>142.60000610352</ele>
        <time>2022-09-04T07:50:07.000Z</time>
      </trkpt>
      <trkpt lat="48.45826" lon="-2.81763">
        <ele>142.60000610352</ele>
        <time>2022-09-04T07:50:08.000Z</time>
      </trkpt>
      <trkpt lat="48.45838" lon="-2.81769">
        <ele>142.39999389648</ele>
        <time>2022-09-04T07:50:10.000Z</time>
      </trkpt>
      <trkpt lat="48.45843" lon="-2.81772">
        <ele>142.39999389648</ele>
        <time>2022-09-04T07:50:11.000Z</time>
      </trkpt>
      <trkpt lat="48.45849" lon="-2.81775">
        <ele>142.39999389648</ele>
        <time>2022-09-04T07:50:12.000Z</time>
      </trkpt>
      <trkpt lat="48.45853" lon="-2.81779">
        <ele>142.39999389648</ele>
        <time>2022-09-04T07:50:13.000Z</time>
      </trkpt>
      <trkpt lat="48.45863" lon="-2.81786">
        <ele>142.19999694824</ele>
        <time>2022-09-04T07:50:15.000Z</time>
      </trkpt>
      <trkpt lat="48.45867" lon="-2.81789">
        <ele>142.19999694824</ele>
        <time>2022-09-04T07:50:16.000Z</time>
      </trkpt>
      <trkpt lat="48.45872" lon="-2.81792">
        <ele>142.19999694824</ele>
        <time>2022-09-04T07:50:17.000Z</time>
      </trkpt>
      <trkpt lat="48.45878" lon="-2.81796">
        <ele>142.19999694824</ele>
        <time>2022-09-04T07:50:18.000Z</time>
      </trkpt>
      <trkpt lat="48.45883" lon="-2.818">
        <ele>142.39999389648</ele>
        <time>2022-09-04T07:50:19.000Z</time>
      </trkpt>
      <trkpt lat="48.45887" lon="-2.81806">
        <ele>142.39999389648</ele>
        <time>2022-09-04T07:50:20.000Z</time>
      </trkpt>
      <trkpt lat="48.45893" lon="-2.81811">
        <ele>142.39999389648</ele>
        <time>2022-09-04T07:50:21.000Z</time>
      </trkpt>
      <trkpt lat="48.45901" lon="-2.81816">
        <ele>142.39999389648</ele>
        <time>2022-09-04T07:50:22.000Z</time>
      </trkpt>
      <trkpt lat="48.45906" lon="-2.8182">
        <ele>142.60000610352</ele>
        <time>2022-09-04T07:50:23.000Z</time>
      </trkpt>
      <trkpt lat="48.45916" lon="-2.81826">
        <ele>142.60000610352</ele>
        <time>2022-09-04T07:50:24.000Z</time>
      </trkpt>
      <trkpt lat="48.45922" lon="-2.81832">
        <ele>142.80000305176</ele>
        <time>2022-09-04T07:50:25.000Z</time>
      </trkpt>
      <trkpt lat="48.45927" lon="-2.81837">
        <ele>142.80000305176</ele>
        <time>2022-09-04T07:50:26.000Z</time>
      </trkpt>
      <trkpt lat="48.45933" lon="-2.81842">
        <ele>143</ele>
        <time>2022-09-04T07:50:27.000Z</time>
      </trkpt>
      <trkpt lat="48.45938" lon="-2.81845">
        <ele>143</ele>
        <time>2022-09-04T07:50:28.000Z</time>
      </trkpt>
      <trkpt lat="48.45943" lon="-2.81848">
        <ele>143.19999694824</ele>
        <time>2022-09-04T07:50:29.000Z</time>
      </trkpt>
      <trkpt lat="48.45947" lon="-2.81852">
        <ele>143.19999694824</ele>
        <time>2022-09-04T07:50:30.000Z</time>
      </trkpt>
      <trkpt lat="48.45953" lon="-2.81855">
        <ele>143.39999389648</ele>
        <time>2022-09-04T07:50:31.000Z</time>
      </trkpt>
      <trkpt lat="48.4596" lon="-2.81858">
        <ele>143.60000610352</ele>
        <time>2022-09-04T07:50:32.000Z</time>
      </trkpt>
      <trkpt lat="48.45966" lon="-2.81858">
        <ele>143.60000610352</ele>
        <time>2022-09-04T07:50:33.000Z</time>
      </trkpt>
      <trkpt lat="48.45971" lon="-2.81857">
        <ele>143.60000610352</ele>
        <time>2022-09-04T07:50:34.000Z</time>
      </trkpt>
      <trkpt lat="48.45976" lon="-2.81858">
        <ele>143.60000610352</ele>
        <time>2022-09-04T07:50:35.000Z</time>
      </trkpt>
      <trkpt lat="48.45981" lon="-2.81857">
        <ele>143.60000610352</ele>
        <time>2022-09-04T07:50:36.000Z</time>
      </trkpt>
      <trkpt lat="48.45986" lon="-2.81857">
        <ele>143.60000610352</ele>
        <time>2022-09-04T07:50:37.000Z</time>
      </trkpt>
      <trkpt lat="48.45991" lon="-2.81856">
        <ele>143.80000305176</ele>
        <time>2022-09-04T07:50:38.000Z</time>
      </trkpt>
      <trkpt lat="48.45995" lon="-2.81855">
        <ele>143.80000305176</ele>
        <time>2022-09-04T07:50:39.000Z</time>
      </trkpt>
      <trkpt lat="48.46" lon="-2.81853">
        <ele>144</ele>
        <time>2022-09-04T07:50:40.000Z</time>
      </trkpt>
      <trkpt lat="48.46003" lon="-2.81852">
        <ele>144.39999389648</ele>
        <time>2022-09-04T07:50:41.000Z</time>
      </trkpt>
      <trkpt lat="48.46006" lon="-2.81851">
        <ele>144.80000305176</ele>
        <time>2022-09-04T07:50:42.000Z</time>
      </trkpt>
      <trkpt lat="48.46009" lon="-2.81851">
        <ele>145.19999694824</ele>
        <time>2022-09-04T07:50:43.000Z</time>
      </trkpt>
      <trkpt lat="48.46016" lon="-2.81851">
        <ele>146</ele>
        <time>2022-09-04T07:50:45.000Z</time>
      </trkpt>
      <trkpt lat="48.46022" lon="-2.81851">
        <ele>147</ele>
        <time>2022-09-04T07:50:47.000Z</time>
      </trkpt>
      <trkpt lat="48.46026" lon="-2.81851">
        <ele>147.19999694824</ele>
        <time>2022-09-04T07:50:48.000Z</time>
      </trkpt>
      <trkpt lat="48.46028" lon="-2.81852">
        <ele>147.80000305176</ele>
        <time>2022-09-04T07:50:49.000Z</time>
      </trkpt>
      <trkpt lat="48.46031" lon="-2.81851">
        <ele>148</ele>
        <time>2022-09-04T07:50:50.000Z</time>
      </trkpt>
      <trkpt lat="48.46035" lon="-2.81851">
        <ele>148</ele>
        <time>2022-09-04T07:50:51.000Z</time>
      </trkpt>
      <trkpt lat="48.46039" lon="-2.8185">
        <ele>148.19999694824</ele>
        <time>2022-09-04T07:50:52.000Z</time>
      </trkpt>
      <trkpt lat="48.46042" lon="-2.8185">
        <ele>148.39999389648</ele>
        <time>2022-09-04T07:50:53.000Z</time>
      </trkpt>
      <trkpt lat="48.46047" lon="-2.81849">
        <ele>149</ele>
        <time>2022-09-04T07:50:54.000Z</time>
      </trkpt>
      <trkpt lat="48.4605" lon="-2.81848">
        <ele>149</ele>
        <time>2022-09-04T07:50:55.000Z</time>
      </trkpt>
      <trkpt lat="48.46054" lon="-2.81848">
        <ele>149.60000610352</ele>
        <time>2022-09-04T07:50:56.000Z</time>
      </trkpt>
      <trkpt lat="48.46059" lon="-2.81847">
        <ele>149.80000305176</ele>
        <time>2022-09-04T07:50:57.000Z</time>
      </trkpt>
      <trkpt lat="48.46062" lon="-2.81846">
        <ele>150.39999389648</ele>
        <time>2022-09-04T07:50:58.000Z</time>
      </trkpt>
      <trkpt lat="48.46066" lon="-2.81845">
        <ele>150.60000610352</ele>
        <time>2022-09-04T07:50:59.000Z</time>
      </trkpt>
      <trkpt lat="48.46071" lon="-2.81845">
        <ele>151.19999694824</ele>
        <time>2022-09-04T07:51:00.000Z</time>
      </trkpt>
      <trkpt lat="48.46077" lon="-2.81846">
        <ele>151.60000610352</ele>
        <time>2022-09-04T07:51:01.000Z</time>
      </trkpt>
      <trkpt lat="48.46082" lon="-2.81845">
        <ele>152.19999694824</ele>
        <time>2022-09-04T07:51:02.000Z</time>
      </trkpt>
      <trkpt lat="48.46087" lon="-2.81845">
        <ele>152.39999389648</ele>
        <time>2022-09-04T07:51:03.000Z</time>
      </trkpt>
      <trkpt lat="48.46091" lon="-2.81845">
        <ele>152.80000305176</ele>
        <time>2022-09-04T07:51:04.000Z</time>
      </trkpt>
      <trkpt lat="48.46096" lon="-2.81844">
        <ele>153</ele>
        <time>2022-09-04T07:51:05.000Z</time>
      </trkpt>
      <trkpt lat="48.461" lon="-2.81843">
        <ele>153.39999389648</ele>
        <time>2022-09-04T07:51:06.000Z</time>
      </trkpt>
      <trkpt lat="48.46104" lon="-2.81844">
        <ele>153.39999389648</ele>
        <time>2022-09-04T07:51:07.000Z</time>
      </trkpt>
      <trkpt lat="48.46108" lon="-2.81843">
        <ele>153.60000610352</ele>
        <time>2022-09-04T07:51:08.000Z</time>
      </trkpt>
      <trkpt lat="48.46112" lon="-2.81841">
        <ele>154.19999694824</ele>
        <time>2022-09-04T07:51:09.000Z</time>
      </trkpt>
      <trkpt lat="48.46116" lon="-2.8184">
        <ele>154.39999389648</ele>
        <time>2022-09-04T07:51:10.000Z</time>
      </trkpt>
      <trkpt lat="48.46121" lon="-2.8184">
        <ele>154.80000305176</ele>
        <time>2022-09-04T07:51:11.000Z</time>
      </trkpt>
      <trkpt lat="48.46124" lon="-2.8184">
        <ele>154.80000305176</ele>
        <time>2022-09-04T07:51:12.000Z</time>
      </trkpt>
      <trkpt lat="48.46129" lon="-2.81841">
        <ele>155.39999389648</ele>
        <time>2022-09-04T07:51:13.000Z</time>
      </trkpt>
      <trkpt lat="48.46133" lon="-2.81841">
        <ele>155.60000610352</ele>
        <time>2022-09-04T07:51:14.000Z</time>
      </trkpt>
      <trkpt lat="48.46137" lon="-2.81841">
        <ele>155.80000305176</ele>
        <time>2022-09-04T07:51:15.000Z</time>
      </trkpt>
      <trkpt lat="48.4614" lon="-2.81843">
        <ele>156</ele>
        <time>2022-09-04T07:51:16.000Z</time>
      </trkpt>
      <trkpt lat="48.46144" lon="-2.81845">
        <ele>156.19999694824</ele>
        <time>2022-09-04T07:51:17.000Z</time>
      </trkpt>
      <trkpt lat="48.46146" lon="-2.8185">
        <ele>156.60000610352</ele>
        <time>2022-09-04T07:51:18.000Z</time>
      </trkpt>
      <trkpt lat="48.46146" lon="-2.81856">
        <ele>156.60000610352</ele>
        <time>2022-09-04T07:51:19.000Z</time>
      </trkpt>
      <trkpt lat="48.46147" lon="-2.81863">
        <ele>156.80000305176</ele>
        <time>2022-09-04T07:51:20.000Z</time>
      </trkpt>
      <trkpt lat="48.46147" lon="-2.81869">
        <ele>157</ele>
        <time>2022-09-04T07:51:21.000Z</time>
      </trkpt>
      <trkpt lat="48.46148" lon="-2.81876">
        <ele>157</ele>
        <time>2022-09-04T07:51:22.000Z</time>
      </trkpt>
      <trkpt lat="48.46149" lon="-2.81884">
        <ele>157.19999694824</ele>
        <time>2022-09-04T07:51:23.000Z</time>
      </trkpt>
      <trkpt lat="48.46149" lon="-2.81891">
        <ele>157.39999389648</ele>
        <time>2022-09-04T07:51:24.000Z</time>
      </trkpt>
      <trkpt lat="48.46149" lon="-2.81898">
        <ele>157.39999389648</ele>
        <time>2022-09-04T07:51:25.000Z</time>
      </trkpt>
      <trkpt lat="48.46149" lon="-2.81905">
        <ele>157.60000610352</ele>
        <time>2022-09-04T07:51:26.000Z</time>
      </trkpt>
      <trkpt lat="48.46149" lon="-2.81913">
        <ele>157.60000610352</ele>
        <time>2022-09-04T07:51:27.000Z</time>
      </trkpt>
      <trkpt lat="48.46148" lon="-2.8192">
        <ele>157.80000305176</ele>
        <time>2022-09-04T07:51:28.000Z</time>
      </trkpt>
      <trkpt lat="48.46147" lon="-2.81927">
        <ele>158</ele>
        <time>2022-09-04T07:51:29.000Z</time>
      </trkpt>
      <trkpt lat="48.46146" lon="-2.81936">
        <ele>158</ele>
        <time>2022-09-04T07:51:30.000Z</time>
      </trkpt>
      <trkpt lat="48.46146" lon="-2.81944">
        <ele>158</ele>
        <time>2022-09-04T07:51:31.000Z</time>
      </trkpt>
      <trkpt lat="48.46145" lon="-2.81954">
        <ele>158</ele>
        <time>2022-09-04T07:51:32.000Z</time>
      </trkpt>
      <trkpt lat="48.46145" lon="-2.81965">
        <ele>158</ele>
        <time>2022-09-04T07:51:33.000Z</time>
      </trkpt>
      <trkpt lat="48.46146" lon="-2.81977">
        <ele>158</ele>
        <time>2022-09-04T07:51:34.000Z</time>
      </trkpt>
      <trkpt lat="48.46148" lon="-2.81988">
        <ele>158</ele>
        <time>2022-09-04T07:51:35.000Z</time>
      </trkpt>
      <trkpt lat="48.4615" lon="-2.82">
        <ele>157.80000305176</ele>
        <time>2022-09-04T07:51:36.000Z</time>
      </trkpt>
      <trkpt lat="48.46153" lon="-2.82013">
        <ele>157.39999389648</ele>
        <time>2022-09-04T07:51:37.000Z</time>
      </trkpt>
      <trkpt lat="48.46157" lon="-2.82025">
        <ele>157.39999389648</ele>
        <time>2022-09-04T07:51:38.000Z</time>
      </trkpt>
      <trkpt lat="48.46161" lon="-2.82036">
        <ele>156.39999389648</ele>
        <time>2022-09-04T07:51:39.000Z</time>
      </trkpt>
      <trkpt lat="48.46165" lon="-2.82047">
        <ele>155.80000305176</ele>
        <time>2022-09-04T07:51:40.000Z</time>
      </trkpt>
      <trkpt lat="48.4617" lon="-2.82058">
        <ele>155.19999694824</ele>
        <time>2022-09-04T07:51:41.000Z</time>
      </trkpt>
      <trkpt lat="48.46175" lon="-2.82069">
        <ele>154.39999389648</ele>
        <time>2022-09-04T07:51:42.000Z</time>
      </trkpt>
      <trkpt lat="48.46179" lon="-2.82079">
        <ele>154</ele>
        <time>2022-09-04T07:51:43.000Z</time>
      </trkpt>
      <trkpt lat="48.46183" lon="-2.8209">
        <ele>153.39999389648</ele>
        <time>2022-09-04T07:51:44.000Z</time>
      </trkpt>
      <trkpt lat="48.46187" lon="-2.82101">
        <ele>153.19999694824</ele>
        <time>2022-09-04T07:51:45.000Z</time>
      </trkpt>
      <trkpt lat="48.46191" lon="-2.82111">
        <ele>153</ele>
        <time>2022-09-04T07:51:46.000Z</time>
      </trkpt>
      <trkpt lat="48.46211" lon="-2.82168">
        <ele>151.80000305176</ele>
        <time>2022-09-04T07:51:51.000Z</time>
      </trkpt>
      <trkpt lat="48.46216" lon="-2.82178">
        <ele>151.60000610352</ele>
        <time>2022-09-04T07:51:52.000Z</time>
      </trkpt>
      <trkpt lat="48.46221" lon="-2.82188">
        <ele>151.39999389648</ele>
        <time>2022-09-04T07:51:53.000Z</time>
      </trkpt>
      <trkpt lat="48.46227" lon="-2.82197">
        <ele>151.39999389648</ele>
        <time>2022-09-04T07:51:54.000Z</time>
      </trkpt>
      <trkpt lat="48.46233" lon="-2.82204">
        <ele>150.80000305176</ele>
        <time>2022-09-04T07:51:55.000Z</time>
      </trkpt>
      <trkpt lat="48.46239" lon="-2.82211">
        <ele>150.60000610352</ele>
        <time>2022-09-04T07:51:56.000Z</time>
      </trkpt>
      <trkpt lat="48.46245" lon="-2.82217">
        <ele>150.39999389648</ele>
        <time>2022-09-04T07:51:57.000Z</time>
      </trkpt>
      <trkpt lat="48.46252" lon="-2.82223">
        <ele>150.39999389648</ele>
        <time>2022-09-04T07:51:58.000Z</time>
      </trkpt>
      <trkpt lat="48.46259" lon="-2.82227">
        <ele>150.39999389648</ele>
        <time>2022-09-04T07:51:59.000Z</time>
      </trkpt>
      <trkpt lat="48.46265" lon="-2.8223">
        <ele>150.19999694824</ele>
        <time>2022-09-04T07:52:00.000Z</time>
      </trkpt>
      <trkpt lat="48.46272" lon="-2.82233">
        <ele>150.19999694824</ele>
        <time>2022-09-04T07:52:01.000Z</time>
      </trkpt>
      <trkpt lat="48.46278" lon="-2.82234">
        <ele>150.39999389648</ele>
        <time>2022-09-04T07:52:02.000Z</time>
      </trkpt>
      <trkpt lat="48.46285" lon="-2.82235">
        <ele>150.80000305176</ele>
        <time>2022-09-04T07:52:03.000Z</time>
      </trkpt>
      <trkpt lat="48.46291" lon="-2.82237">
        <ele>151.19999694824</ele>
        <time>2022-09-04T07:52:04.000Z</time>
      </trkpt>
      <trkpt lat="48.46297" lon="-2.82239">
        <ele>151.39999389648</ele>
        <time>2022-09-04T07:52:05.000Z</time>
      </trkpt>
      <trkpt lat="48.46303" lon="-2.82242">
        <ele>152</ele>
        <time>2022-09-04T07:52:06.000Z</time>
      </trkpt>
      <trkpt lat="48.46309" lon="-2.82247">
        <ele>152</ele>
        <time>2022-09-04T07:52:07.000Z</time>
      </trkpt>
      <trkpt lat="48.4632" lon="-2.82258">
        <ele>153</ele>
        <time>2022-09-04T07:52:09.000Z</time>
      </trkpt>
      <trkpt lat="48.46336" lon="-2.82278">
        <ele>154.19999694824</ele>
        <time>2022-09-04T07:52:12.000Z</time>
      </trkpt>
      <trkpt lat="48.46369" lon="-2.82321">
        <ele>155.19999694824</ele>
        <time>2022-09-04T07:52:18.000Z</time>
      </trkpt>
      <trkpt lat="48.46375" lon="-2.82329">
        <ele>155.39999389648</ele>
        <time>2022-09-04T07:52:19.000Z</time>
      </trkpt>
      <trkpt lat="48.4638" lon="-2.82335">
        <ele>155.39999389648</ele>
        <time>2022-09-04T07:52:20.000Z</time>
      </trkpt>
      <trkpt lat="48.46386" lon="-2.82341">
        <ele>155.39999389648</ele>
        <time>2022-09-04T07:52:21.000Z</time>
      </trkpt>
      <trkpt lat="48.46391" lon="-2.82347">
        <ele>155.39999389648</ele>
        <time>2022-09-04T07:52:22.000Z</time>
      </trkpt>
      <trkpt lat="48.46397" lon="-2.82351">
        <ele>155.39999389648</ele>
        <time>2022-09-04T07:52:23.000Z</time>
      </trkpt>
      <trkpt lat="48.46404" lon="-2.82355">
        <ele>155.39999389648</ele>
        <time>2022-09-04T07:52:24.000Z</time>
      </trkpt>
      <trkpt lat="48.46409" lon="-2.82359">
        <ele>155.39999389648</ele>
        <time>2022-09-04T07:52:25.000Z</time>
      </trkpt>
      <trkpt lat="48.46414" lon="-2.82365">
        <ele>155.39999389648</ele>
        <time>2022-09-04T07:52:26.000Z</time>
      </trkpt>
      <trkpt lat="48.46419" lon="-2.82371">
        <ele>155.19999694824</ele>
        <time>2022-09-04T07:52:27.000Z</time>
      </trkpt>
      <trkpt lat="48.46424" lon="-2.82378">
        <ele>155.19999694824</ele>
        <time>2022-09-04T07:52:28.000Z</time>
      </trkpt>
      <trkpt lat="48.46429" lon="-2.82384">
        <ele>155.19999694824</ele>
        <time>2022-09-04T07:52:29.000Z</time>
      </trkpt>
      <trkpt lat="48.46434" lon="-2.8239">
        <ele>155.19999694824</ele>
        <time>2022-09-04T07:52:30.000Z</time>
      </trkpt>
      <trkpt lat="48.4644" lon="-2.82393">
        <ele>155</ele>
        <time>2022-09-04T07:52:31.000Z</time>
      </trkpt>
      <trkpt lat="48.46447" lon="-2.82394">
        <ele>155</ele>
        <time>2022-09-04T07:52:32.000Z</time>
      </trkpt>
      <trkpt lat="48.46452" lon="-2.82392">
        <ele>155</ele>
        <time>2022-09-04T07:52:33.000Z</time>
      </trkpt>
      <trkpt lat="48.46458" lon="-2.82389">
        <ele>155</ele>
        <time>2022-09-04T07:52:34.000Z</time>
      </trkpt>
      <trkpt lat="48.46463" lon="-2.82384">
        <ele>155</ele>
        <time>2022-09-04T07:52:35.000Z</time>
      </trkpt>
      <trkpt lat="48.46469" lon="-2.82379">
        <ele>155.19999694824</ele>
        <time>2022-09-04T07:52:36.000Z</time>
      </trkpt>
      <trkpt lat="48.46474" lon="-2.82376">
        <ele>155.19999694824</ele>
        <time>2022-09-04T07:52:37.000Z</time>
      </trkpt>
      <trkpt lat="48.46486" lon="-2.82367">
        <ele>155.19999694824</ele>
        <time>2022-09-04T07:52:39.000Z</time>
      </trkpt>
      <trkpt lat="48.4649" lon="-2.82363">
        <ele>155.19999694824</ele>
        <time>2022-09-04T07:52:40.000Z</time>
      </trkpt>
      <trkpt lat="48.46493" lon="-2.82361">
        <ele>155</ele>
        <time>2022-09-04T07:52:41.000Z</time>
      </trkpt>
      <trkpt lat="48.46496" lon="-2.8236">
        <ele>155</ele>
        <time>2022-09-04T07:52:42.000Z</time>
      </trkpt>
      <trkpt lat="48.46499" lon="-2.82361">
        <ele>154.80000305176</ele>
        <time>2022-09-04T07:52:43.000Z</time>
      </trkpt>
      <trkpt lat="48.46505" lon="-2.82372">
        <ele>154.60000610352</ele>
        <time>2022-09-04T07:52:45.000Z</time>
      </trkpt>
      <trkpt lat="48.46506" lon="-2.82376">
        <ele>154.39999389648</ele>
        <time>2022-09-04T07:52:46.000Z</time>
      </trkpt>
      <trkpt lat="48.46507" lon="-2.8238">
        <ele>154.19999694824</ele>
        <time>2022-09-04T07:52:47.000Z</time>
      </trkpt>
      <trkpt lat="48.46506" lon="-2.82382">
        <ele>154.19999694824</ele>
        <time>2022-09-04T07:52:48.000Z</time>
      </trkpt>
      <trkpt lat="48.46505" lon="-2.8238">
        <ele>154</ele>
        <time>2022-09-04T07:52:49.000Z</time>
      </trkpt>
      <trkpt lat="48.46504" lon="-2.82377">
        <ele>154</ele>
        <time>2022-09-04T07:52:50.000Z</time>
      </trkpt>
      <trkpt lat="48.46503" lon="-2.82373">
        <ele>153.80000305176</ele>
        <time>2022-09-04T07:52:51.000Z</time>
      </trkpt>
      <trkpt lat="48.46503" lon="-2.82366">
        <ele>153.80000305176</ele>
        <time>2022-09-04T07:52:52.000Z</time>
      </trkpt>
      <trkpt lat="48.46504" lon="-2.82359">
        <ele>153.80000305176</ele>
        <time>2022-09-04T07:52:53.000Z</time>
      </trkpt>
      <trkpt lat="48.46514" lon="-2.82348">
        <ele>153.80000305176</ele>
        <time>2022-09-04T07:52:55.000Z</time>
      </trkpt>
      <trkpt lat="48.46535" lon="-2.8233">
        <ele>153.60000610352</ele>
        <time>2022-09-04T07:52:58.000Z</time>
      </trkpt>
      <trkpt lat="48.46541" lon="-2.82325">
        <ele>153.39999389648</ele>
        <time>2022-09-04T07:52:59.000Z</time>
      </trkpt>
      <trkpt lat="48.46547" lon="-2.82318">
        <ele>153</ele>
        <time>2022-09-04T07:53:00.000Z</time>
      </trkpt>
      <trkpt lat="48.46576" lon="-2.82287">
        <ele>152</ele>
        <time>2022-09-04T07:53:04.000Z</time>
      </trkpt>
      <trkpt lat="48.46581" lon="-2.82282">
        <ele>151.19999694824</ele>
        <time>2022-09-04T07:53:05.000Z</time>
      </trkpt>
      <trkpt lat="48.46587" lon="-2.82277">
        <ele>150.80000305176</ele>
        <time>2022-09-04T07:53:06.000Z</time>
      </trkpt>
      <trkpt lat="48.46592" lon="-2.82274">
        <ele>150.39999389648</ele>
        <time>2022-09-04T07:53:07.000Z</time>
      </trkpt>
      <trkpt lat="48.46599" lon="-2.82274">
        <ele>150.19999694824</ele>
        <time>2022-09-04T07:53:08.000Z</time>
      </trkpt>
      <trkpt lat="48.46603" lon="-2.82276">
        <ele>149.80000305176</ele>
        <time>2022-09-04T07:53:09.000Z</time>
      </trkpt>
      <trkpt lat="48.46609" lon="-2.82281">
        <ele>149.80000305176</ele>
        <time>2022-09-04T07:53:10.000Z</time>
      </trkpt>
      <trkpt lat="48.46616" lon="-2.82289">
        <ele>149.39999389648</ele>
        <time>2022-09-04T07:53:11.000Z</time>
      </trkpt>
      <trkpt lat="48.46621" lon="-2.82297">
        <ele>149.39999389648</ele>
        <time>2022-09-04T07:53:12.000Z</time>
      </trkpt>
      <trkpt lat="48.46627" lon="-2.82304">
        <ele>149</ele>
        <time>2022-09-04T07:53:13.000Z</time>
      </trkpt>
      <trkpt lat="48.46631" lon="-2.82311">
        <ele>149</ele>
        <time>2022-09-04T07:53:14.000Z</time>
      </trkpt>
      <trkpt lat="48.46644" lon="-2.82329">
        <ele>148.39999389648</ele>
        <time>2022-09-04T07:53:16.000Z</time>
      </trkpt>
      <trkpt lat="48.4665" lon="-2.82338">
        <ele>148.19999694824</ele>
        <time>2022-09-04T07:53:17.000Z</time>
      </trkpt>
      <trkpt lat="48.46669" lon="-2.82362">
        <ele>147</ele>
        <time>2022-09-04T07:53:20.000Z</time>
      </trkpt>
      <trkpt lat="48.46683" lon="-2.82381">
        <ele>146.80000305176</ele>
        <time>2022-09-04T07:53:22.000Z</time>
      </trkpt>
      <trkpt lat="48.46688" lon="-2.82387">
        <ele>146.60000610352</ele>
        <time>2022-09-04T07:53:23.000Z</time>
      </trkpt>
      <trkpt lat="48.46694" lon="-2.82395">
        <ele>146.60000610352</ele>
        <time>2022-09-04T07:53:24.000Z</time>
      </trkpt>
      <trkpt lat="48.4674" lon="-2.82451">
        <ele>146.19999694824</ele>
        <time>2022-09-04T07:53:31.000Z</time>
      </trkpt>
      <trkpt lat="48.46746" lon="-2.82459">
        <ele>146.19999694824</ele>
        <time>2022-09-04T07:53:32.000Z</time>
      </trkpt>
      <trkpt lat="48.46765" lon="-2.82488">
        <ele>146</ele>
        <time>2022-09-04T07:53:35.000Z</time>
      </trkpt>
      <trkpt lat="48.46774" lon="-2.82506">
        <ele>145.80000305176</ele>
        <time>2022-09-04T07:53:37.000Z</time>
      </trkpt>
      <trkpt lat="48.46797" lon="-2.82558">
        <ele>144.80000305176</ele>
        <time>2022-09-04T07:53:42.000Z</time>
      </trkpt>
      <trkpt lat="48.46801" lon="-2.82568">
        <ele>144.60000610352</ele>
        <time>2022-09-04T07:53:43.000Z</time>
      </trkpt>
      <trkpt lat="48.46805" lon="-2.82581">
        <ele>144.19999694824</ele>
        <time>2022-09-04T07:53:44.000Z</time>
      </trkpt>
      <trkpt lat="48.46806" lon="-2.8259">
        <ele>144</ele>
        <time>2022-09-04T07:53:45.000Z</time>
      </trkpt>
      <trkpt lat="48.46808" lon="-2.826">
        <ele>143.80000305176</ele>
        <time>2022-09-04T07:53:46.000Z</time>
      </trkpt>
      <trkpt lat="48.46811" lon="-2.82611">
        <ele>143.80000305176</ele>
        <time>2022-09-04T07:53:47.000Z</time>
      </trkpt>
      <trkpt lat="48.46815" lon="-2.8262">
        <ele>143.80000305176</ele>
        <time>2022-09-04T07:53:48.000Z</time>
      </trkpt>
      <trkpt lat="48.46821" lon="-2.82627">
        <ele>143.60000610352</ele>
        <time>2022-09-04T07:53:49.000Z</time>
      </trkpt>
      <trkpt lat="48.46828" lon="-2.82632">
        <ele>143.39999389648</ele>
        <time>2022-09-04T07:53:50.000Z</time>
      </trkpt>
      <trkpt lat="48.46835" lon="-2.82638">
        <ele>143.19999694824</ele>
        <time>2022-09-04T07:53:51.000Z</time>
      </trkpt>
      <trkpt lat="48.46842" lon="-2.82643">
        <ele>143.19999694824</ele>
        <time>2022-09-04T07:53:52.000Z</time>
      </trkpt>
      <trkpt lat="48.46849" lon="-2.82648">
        <ele>143</ele>
        <time>2022-09-04T07:53:53.000Z</time>
      </trkpt>
      <trkpt lat="48.46871" lon="-2.82663">
        <ele>142.80000305176</ele>
        <time>2022-09-04T07:53:56.000Z</time>
      </trkpt>
      <trkpt lat="48.46893" lon="-2.82683">
        <ele>142.60000610352</ele>
        <time>2022-09-04T07:53:59.000Z</time>
      </trkpt>
      <trkpt lat="48.46915" lon="-2.82696">
        <ele>142.60000610352</ele>
        <time>2022-09-04T07:54:02.000Z</time>
      </trkpt>
      <trkpt lat="48.46945" lon="-2.82714">
        <ele>142.80000305176</ele>
        <time>2022-09-04T07:54:06.000Z</time>
      </trkpt>
      <trkpt lat="48.46963" lon="-2.82722">
        <ele>143</ele>
        <time>2022-09-04T07:54:08.000Z</time>
      </trkpt>
      <trkpt lat="48.47018" lon="-2.82731">
        <ele>143.60000610352</ele>
        <time>2022-09-04T07:54:15.000Z</time>
      </trkpt>
      <trkpt lat="48.47067" lon="-2.82732">
        <ele>143.80000305176</ele>
        <time>2022-09-04T07:54:21.000Z</time>
      </trkpt>
      <trkpt lat="48.47079" lon="-2.82729">
        <ele>143.80000305176</ele>
        <time>2022-09-04T07:54:22.000Z</time>
      </trkpt>
      <trkpt lat="48.47093" lon="-2.82717">
        <ele>143.80000305176</ele>
        <time>2022-09-04T07:54:24.000Z</time>
      </trkpt>
      <trkpt lat="48.47099" lon="-2.82709">
        <ele>143.80000305176</ele>
        <time>2022-09-04T07:54:25.000Z</time>
      </trkpt>
      <trkpt lat="48.47104" lon="-2.82699">
        <ele>143.60000610352</ele>
        <time>2022-09-04T07:54:26.000Z</time>
      </trkpt>
      <trkpt lat="48.47108" lon="-2.82689">
        <ele>143.60000610352</ele>
        <time>2022-09-04T07:54:27.000Z</time>
      </trkpt>
      <trkpt lat="48.47112" lon="-2.82678">
        <ele>143.39999389648</ele>
        <time>2022-09-04T07:54:28.000Z</time>
      </trkpt>
      <trkpt lat="48.47116" lon="-2.82668">
        <ele>143.19999694824</ele>
        <time>2022-09-04T07:54:29.000Z</time>
      </trkpt>
      <trkpt lat="48.4712" lon="-2.82658">
        <ele>143</ele>
        <time>2022-09-04T07:54:30.000Z</time>
      </trkpt>
      <trkpt lat="48.4713" lon="-2.82639">
        <ele>142.39999389648</ele>
        <time>2022-09-04T07:54:32.000Z</time>
      </trkpt>
      <trkpt lat="48.47135" lon="-2.82629">
        <ele>142.19999694824</ele>
        <time>2022-09-04T07:54:33.000Z</time>
      </trkpt>
      <trkpt lat="48.47141" lon="-2.82619">
        <ele>142</ele>
        <time>2022-09-04T07:54:34.000Z</time>
      </trkpt>
      <trkpt lat="48.47147" lon="-2.8261">
        <ele>141.80000305176</ele>
        <time>2022-09-04T07:54:35.000Z</time>
      </trkpt>
      <trkpt lat="48.47154" lon="-2.82601">
        <ele>141.80000305176</ele>
        <time>2022-09-04T07:54:36.000Z</time>
      </trkpt>
      <trkpt lat="48.4716" lon="-2.82592">
        <ele>141.39999389648</ele>
        <time>2022-09-04T07:54:37.000Z</time>
      </trkpt>
      <trkpt lat="48.47167" lon="-2.82583">
        <ele>141.19999694824</ele>
        <time>2022-09-04T07:54:38.000Z</time>
      </trkpt>
      <trkpt lat="48.47175" lon="-2.82571">
        <ele>140.60000610352</ele>
        <time>2022-09-04T07:54:39.000Z</time>
      </trkpt>
      <trkpt lat="48.47194" lon="-2.82546">
        <ele>140.19999694824</ele>
        <time>2022-09-04T07:54:42.000Z</time>
      </trkpt>
      <trkpt lat="48.47207" lon="-2.8253">
        <ele>140</ele>
        <time>2022-09-04T07:54:44.000Z</time>
      </trkpt>
      <trkpt lat="48.47214" lon="-2.82522">
        <ele>139.60000610352</ele>
        <time>2022-09-04T07:54:45.000Z</time>
      </trkpt>
      <trkpt lat="48.47235" lon="-2.82503">
        <ele>139.60000610352</ele>
        <time>2022-09-04T07:54:48.000Z</time>
      </trkpt>
      <trkpt lat="48.47242" lon="-2.82497">
        <ele>139.60000610352</ele>
        <time>2022-09-04T07:54:49.000Z</time>
      </trkpt>
      <trkpt lat="48.47256" lon="-2.82485">
        <ele>139.60000610352</ele>
        <time>2022-09-04T07:54:51.000Z</time>
      </trkpt>
      <trkpt lat="48.47286" lon="-2.8246">
        <ele>139.80000305176</ele>
        <time>2022-09-04T07:54:55.000Z</time>
      </trkpt>
      <trkpt lat="48.47293" lon="-2.82454">
        <ele>139.80000305176</ele>
        <time>2022-09-04T07:54:56.000Z</time>
      </trkpt>
      <trkpt lat="48.473" lon="-2.82448">
        <ele>139.80000305176</ele>
        <time>2022-09-04T07:54:57.000Z</time>
      </trkpt>
      <trkpt lat="48.47307" lon="-2.82442">
        <ele>140</ele>
        <time>2022-09-04T07:54:58.000Z</time>
      </trkpt>
      <trkpt lat="48.47314" lon="-2.82436">
        <ele>140.39999389648</ele>
        <time>2022-09-04T07:54:59.000Z</time>
      </trkpt>
      <trkpt lat="48.47329" lon="-2.82422">
        <ele>140.80000305176</ele>
        <time>2022-09-04T07:55:01.000Z</time>
      </trkpt>
      <trkpt lat="48.47346" lon="-2.82401">
        <ele>140.80000305176</ele>
        <time>2022-09-04T07:55:04.000Z</time>
      </trkpt>
      <trkpt lat="48.47369" lon="-2.82353">
        <ele>140.60000610352</ele>
        <time>2022-09-04T07:55:09.000Z</time>
      </trkpt>
      <trkpt lat="48.47389" lon="-2.823">
        <ele>139.80000305176</ele>
        <time>2022-09-04T07:55:14.000Z</time>
      </trkpt>
      <trkpt lat="48.47393" lon="-2.8229">
        <ele>139.60000610352</ele>
        <time>2022-09-04T07:55:15.000Z</time>
      </trkpt>
      <trkpt lat="48.47398" lon="-2.82278">
        <ele>139.39999389648</ele>
        <time>2022-09-04T07:55:16.000Z</time>
      </trkpt>
      <trkpt lat="48.47402" lon="-2.82268">
        <ele>139.39999389648</ele>
        <time>2022-09-04T07:55:17.000Z</time>
      </trkpt>
      <trkpt lat="48.47405" lon="-2.8226">
        <ele>139.39999389648</ele>
        <time>2022-09-04T07:55:18.000Z</time>
      </trkpt>
      <trkpt lat="48.47409" lon="-2.82251">
        <ele>139.19999694824</ele>
        <time>2022-09-04T07:55:19.000Z</time>
      </trkpt>
      <trkpt lat="48.47414" lon="-2.82239">
        <ele>139.19999694824</ele>
        <time>2022-09-04T07:55:20.000Z</time>
      </trkpt>
      <trkpt lat="48.47423" lon="-2.82222">
        <ele>139</ele>
        <time>2022-09-04T07:55:22.000Z</time>
      </trkpt>
      <trkpt lat="48.47438" lon="-2.82198">
        <ele>138.60000610352</ele>
        <time>2022-09-04T07:55:25.000Z</time>
      </trkpt>
      <trkpt lat="48.47443" lon="-2.8219">
        <ele>138.60000610352</ele>
        <time>2022-09-04T07:55:26.000Z</time>
      </trkpt>
      <trkpt lat="48.47475" lon="-2.82141">
        <ele>138.19999694824</ele>
        <time>2022-09-04T07:55:32.000Z</time>
      </trkpt>
      <trkpt lat="48.47482" lon="-2.82108">
        <ele>137.80000305176</ele>
        <time>2022-09-04T07:55:35.000Z</time>
      </trkpt>
      <trkpt lat="48.47482" lon="-2.82096">
        <ele>137.80000305176</ele>
        <time>2022-09-04T07:55:36.000Z</time>
      </trkpt>
      <trkpt lat="48.47482" lon="-2.82085">
        <ele>137.80000305176</ele>
        <time>2022-09-04T07:55:37.000Z</time>
      </trkpt>
      <trkpt lat="48.47481" lon="-2.82062">
        <ele>137.80000305176</ele>
        <time>2022-09-04T07:55:39.000Z</time>
      </trkpt>
      <trkpt lat="48.47478" lon="-2.8204">
        <ele>137.60000610352</ele>
        <time>2022-09-04T07:55:41.000Z</time>
      </trkpt>
      <trkpt lat="48.47477" lon="-2.82029">
        <ele>137.39999389648</ele>
        <time>2022-09-04T07:55:42.000Z</time>
      </trkpt>
      <trkpt lat="48.47477" lon="-2.82018">
        <ele>137.39999389648</ele>
        <time>2022-09-04T07:55:43.000Z</time>
      </trkpt>
      <trkpt lat="48.47476" lon="-2.82006">
        <ele>137.60000610352</ele>
        <time>2022-09-04T07:55:44.000Z</time>
      </trkpt>
      <trkpt lat="48.47475" lon="-2.81984">
        <ele>137.60000610352</ele>
        <time>2022-09-04T07:55:46.000Z</time>
      </trkpt>
      <trkpt lat="48.47475" lon="-2.81963">
        <ele>137.80000305176</ele>
        <time>2022-09-04T07:55:48.000Z</time>
      </trkpt>
      <trkpt lat="48.47474" lon="-2.81921">
        <ele>137.80000305176</ele>
        <time>2022-09-04T07:55:52.000Z</time>
      </trkpt>
      <trkpt lat="48.47473" lon="-2.8191">
        <ele>137.80000305176</ele>
        <time>2022-09-04T07:55:53.000Z</time>
      </trkpt>
      <trkpt lat="48.47473" lon="-2.81899">
        <ele>137.80000305176</ele>
        <time>2022-09-04T07:55:54.000Z</time>
      </trkpt>
      <trkpt lat="48.47473" lon="-2.81889">
        <ele>137.80000305176</ele>
        <time>2022-09-04T07:55:55.000Z</time>
      </trkpt>
      <trkpt lat="48.47474" lon="-2.81878">
        <ele>137.80000305176</ele>
        <time>2022-09-04T07:55:56.000Z</time>
      </trkpt>
      <trkpt lat="48.47475" lon="-2.81868">
        <ele>137.80000305176</ele>
        <time>2022-09-04T07:55:57.000Z</time>
      </trkpt>
      <trkpt lat="48.4748" lon="-2.81848">
        <ele>137.60000610352</ele>
        <time>2022-09-04T07:55:59.000Z</time>
      </trkpt>
      <trkpt lat="48.47484" lon="-2.81839">
        <ele>137.39999389648</ele>
        <time>2022-09-04T07:56:00.000Z</time>
      </trkpt>
      <trkpt lat="48.4751" lon="-2.81787">
        <ele>137</ele>
        <time>2022-09-04T07:56:06.000Z</time>
      </trkpt>
      <trkpt lat="48.47542" lon="-2.8174">
        <ele>136.39999389648</ele>
        <time>2022-09-04T07:56:12.000Z</time>
      </trkpt>
      <trkpt lat="48.47547" lon="-2.81732">
        <ele>136.39999389648</ele>
        <time>2022-09-04T07:56:13.000Z</time>
      </trkpt>
      <trkpt lat="48.47573" lon="-2.81693">
        <ele>136.19999694824</ele>
        <time>2022-09-04T07:56:18.000Z</time>
      </trkpt>
      <trkpt lat="48.47578" lon="-2.81685">
        <ele>136.19999694824</ele>
        <time>2022-09-04T07:56:19.000Z</time>
      </trkpt>
      <trkpt lat="48.47583" lon="-2.81677">
        <ele>136.19999694824</ele>
        <time>2022-09-04T07:56:20.000Z</time>
      </trkpt>
      <trkpt lat="48.47588" lon="-2.81669">
        <ele>136.19999694824</ele>
        <time>2022-09-04T07:56:21.000Z</time>
      </trkpt>
      <trkpt lat="48.47612" lon="-2.81627">
        <ele>136.39999389648</ele>
        <time>2022-09-04T07:56:26.000Z</time>
      </trkpt>
      <trkpt lat="48.47639" lon="-2.81575">
        <ele>136.39999389648</ele>
        <time>2022-09-04T07:56:32.000Z</time>
      </trkpt>
      <trkpt lat="48.47662" lon="-2.81529">
        <ele>135.60000610352</ele>
        <time>2022-09-04T07:56:37.000Z</time>
      </trkpt>
      <trkpt lat="48.47672" lon="-2.81512">
        <ele>135.39999389648</ele>
        <time>2022-09-04T07:56:39.000Z</time>
      </trkpt>
      <trkpt lat="48.47683" lon="-2.81496">
        <ele>135</ele>
        <time>2022-09-04T07:56:41.000Z</time>
      </trkpt>
      <trkpt lat="48.47705" lon="-2.81463">
        <ele>134.80000305176</ele>
        <time>2022-09-04T07:56:45.000Z</time>
      </trkpt>
      <trkpt lat="48.47715" lon="-2.81448">
        <ele>134.60000610352</ele>
        <time>2022-09-04T07:56:47.000Z</time>
      </trkpt>
      <trkpt lat="48.4772" lon="-2.81443">
        <ele>134.39999389648</ele>
        <time>2022-09-04T07:56:48.000Z</time>
      </trkpt>
      <trkpt lat="48.47725" lon="-2.81441">
        <ele>134.19999694824</ele>
        <time>2022-09-04T07:56:49.000Z</time>
      </trkpt>
      <trkpt lat="48.4773" lon="-2.81441">
        <ele>133.80000305176</ele>
        <time>2022-09-04T07:56:50.000Z</time>
      </trkpt>
      <trkpt lat="48.47735" lon="-2.81444">
        <ele>133.60000610352</ele>
        <time>2022-09-04T07:56:51.000Z</time>
      </trkpt>
      <trkpt lat="48.4774" lon="-2.81449">
        <ele>133.60000610352</ele>
        <time>2022-09-04T07:56:52.000Z</time>
      </trkpt>
      <trkpt lat="48.4775" lon="-2.81461">
        <ele>133.39999389648</ele>
        <time>2022-09-04T07:56:54.000Z</time>
      </trkpt>
      <trkpt lat="48.47756" lon="-2.81467">
        <ele>133.39999389648</ele>
        <time>2022-09-04T07:56:55.000Z</time>
      </trkpt>
      <trkpt lat="48.47761" lon="-2.81474">
        <ele>133.39999389648</ele>
        <time>2022-09-04T07:56:56.000Z</time>
      </trkpt>
      <trkpt lat="48.47766" lon="-2.81482">
        <ele>133.39999389648</ele>
        <time>2022-09-04T07:56:57.000Z</time>
      </trkpt>
      <trkpt lat="48.47798" lon="-2.81528">
        <ele>133.39999389648</ele>
        <time>2022-09-04T07:57:03.000Z</time>
      </trkpt>
      <trkpt lat="48.47807" lon="-2.81544">
        <ele>133.39999389648</ele>
        <time>2022-09-04T07:57:05.000Z</time>
      </trkpt>
      <trkpt lat="48.47809" lon="-2.81554">
        <ele>133.39999389648</ele>
        <time>2022-09-04T07:57:06.000Z</time>
      </trkpt>
      <trkpt lat="48.47809" lon="-2.81565">
        <ele>133.39999389648</ele>
        <time>2022-09-04T07:57:07.000Z</time>
      </trkpt>
      <trkpt lat="48.47808" lon="-2.81576">
        <ele>133.19999694824</ele>
        <time>2022-09-04T07:57:08.000Z</time>
      </trkpt>
      <trkpt lat="48.47806" lon="-2.81587">
        <ele>133.19999694824</ele>
        <time>2022-09-04T07:57:09.000Z</time>
      </trkpt>
      <trkpt lat="48.47804" lon="-2.81598">
        <ele>133.19999694824</ele>
        <time>2022-09-04T07:57:10.000Z</time>
      </trkpt>
      <trkpt lat="48.47802" lon="-2.81609">
        <ele>133.19999694824</ele>
        <time>2022-09-04T07:57:11.000Z</time>
      </trkpt>
      <trkpt lat="48.47802" lon="-2.8162">
        <ele>133.19999694824</ele>
        <time>2022-09-04T07:57:12.000Z</time>
      </trkpt>
      <trkpt lat="48.47804" lon="-2.8163">
        <ele>133.19999694824</ele>
        <time>2022-09-04T07:57:13.000Z</time>
      </trkpt>
      <trkpt lat="48.47808" lon="-2.81639">
        <ele>133.19999694824</ele>
        <time>2022-09-04T07:57:14.000Z</time>
      </trkpt>
      <trkpt lat="48.47813" lon="-2.81646">
        <ele>133.19999694824</ele>
        <time>2022-09-04T07:57:15.000Z</time>
      </trkpt>
      <trkpt lat="48.4782" lon="-2.81652">
        <ele>133.19999694824</ele>
        <time>2022-09-04T07:57:16.000Z</time>
      </trkpt>
      <trkpt lat="48.47827" lon="-2.81657">
        <ele>133.19999694824</ele>
        <time>2022-09-04T07:57:17.000Z</time>
      </trkpt>
      <trkpt lat="48.47834" lon="-2.81663">
        <ele>133.19999694824</ele>
        <time>2022-09-04T07:57:18.000Z</time>
      </trkpt>
      <trkpt lat="48.4784" lon="-2.81669">
        <ele>133.19999694824</ele>
        <time>2022-09-04T07:57:19.000Z</time>
      </trkpt>
      <trkpt lat="48.47846" lon="-2.81677">
        <ele>133</ele>
        <time>2022-09-04T07:57:20.000Z</time>
      </trkpt>
      <trkpt lat="48.47851" lon="-2.81685">
        <ele>133.19999694824</ele>
        <time>2022-09-04T07:57:21.000Z</time>
      </trkpt>
      <trkpt lat="48.47877" lon="-2.81731">
        <ele>132.19999694824</ele>
        <time>2022-09-04T07:57:26.000Z</time>
      </trkpt>
      <trkpt lat="48.47897" lon="-2.81769">
        <ele>131.60000610352</ele>
        <time>2022-09-04T07:57:30.000Z</time>
      </trkpt>
      <trkpt lat="48.4791" lon="-2.81786">
        <ele>131.19999694824</ele>
        <time>2022-09-04T07:57:32.000Z</time>
      </trkpt>
      <trkpt lat="48.47917" lon="-2.81793">
        <ele>131.19999694824</ele>
        <time>2022-09-04T07:57:33.000Z</time>
      </trkpt>
      <trkpt lat="48.47925" lon="-2.81798">
        <ele>131</ele>
        <time>2022-09-04T07:57:34.000Z</time>
      </trkpt>
      <trkpt lat="48.47934" lon="-2.81801">
        <ele>131</ele>
        <time>2022-09-04T07:57:35.000Z</time>
      </trkpt>
      <trkpt lat="48.47943" lon="-2.81801">
        <ele>130.39999389648</ele>
        <time>2022-09-04T07:57:36.000Z</time>
      </trkpt>
      <trkpt lat="48.4795" lon="-2.81799">
        <ele>129.80000305176</ele>
        <time>2022-09-04T07:57:37.000Z</time>
      </trkpt>
      <trkpt lat="48.47958" lon="-2.81794">
        <ele>129.60000610352</ele>
        <time>2022-09-04T07:57:38.000Z</time>
      </trkpt>
      <trkpt lat="48.47966" lon="-2.81791">
        <ele>129.19999694824</ele>
        <time>2022-09-04T07:57:39.000Z</time>
      </trkpt>
      <trkpt lat="48.47974" lon="-2.81789">
        <ele>129.19999694824</ele>
        <time>2022-09-04T07:57:40.000Z</time>
      </trkpt>
      <trkpt lat="48.47991" lon="-2.81787">
        <ele>129</ele>
        <time>2022-09-04T07:57:42.000Z</time>
      </trkpt>
      <trkpt lat="48.47999" lon="-2.81787">
        <ele>128.80000305176</ele>
        <time>2022-09-04T07:57:43.000Z</time>
      </trkpt>
      <trkpt lat="48.48025" lon="-2.81787">
        <ele>128.80000305176</ele>
        <time>2022-09-04T07:57:46.000Z</time>
      </trkpt>
      <trkpt lat="48.48051" lon="-2.81787">
        <ele>128</ele>
        <time>2022-09-04T07:57:49.000Z</time>
      </trkpt>
      <trkpt lat="48.48059" lon="-2.81786">
        <ele>128</ele>
        <time>2022-09-04T07:57:50.000Z</time>
      </trkpt>
      <trkpt lat="48.48066" lon="-2.81786">
        <ele>128</ele>
        <time>2022-09-04T07:57:51.000Z</time>
      </trkpt>
      <trkpt lat="48.48074" lon="-2.81785">
        <ele>127.59999847412</ele>
        <time>2022-09-04T07:57:52.000Z</time>
      </trkpt>
      <trkpt lat="48.48082" lon="-2.81785">
        <ele>127.40000152588</ele>
        <time>2022-09-04T07:57:53.000Z</time>
      </trkpt>
      <trkpt lat="48.4809" lon="-2.81784">
        <ele>127.19999694824</ele>
        <time>2022-09-04T07:57:54.000Z</time>
      </trkpt>
      <trkpt lat="48.48097" lon="-2.81782">
        <ele>127</ele>
        <time>2022-09-04T07:57:55.000Z</time>
      </trkpt>
      <trkpt lat="48.48103" lon="-2.81779">
        <ele>126.59999847412</ele>
        <time>2022-09-04T07:57:56.000Z</time>
      </trkpt>
      <trkpt lat="48.48107" lon="-2.81778">
        <ele>126.40000152588</ele>
        <time>2022-09-04T07:57:57.000Z</time>
      </trkpt>
      <trkpt lat="48.48111" lon="-2.8178">
        <ele>126.19999694824</ele>
        <time>2022-09-04T07:57:58.000Z</time>
      </trkpt>
      <trkpt lat="48.48113" lon="-2.81784">
        <ele>125.80000305176</ele>
        <time>2022-09-04T07:57:59.000Z</time>
      </trkpt>
      <trkpt lat="48.48114" lon="-2.8179">
        <ele>125.59999847412</ele>
        <time>2022-09-04T07:58:00.000Z</time>
      </trkpt>
      <trkpt lat="48.48114" lon="-2.81799">
        <ele>125.59999847412</ele>
        <time>2022-09-04T07:58:01.000Z</time>
      </trkpt>
      <trkpt lat="48.48113" lon="-2.81809">
        <ele>125.40000152588</ele>
        <time>2022-09-04T07:58:02.000Z</time>
      </trkpt>
      <trkpt lat="48.48109" lon="-2.81828">
        <ele>125.19999694824</ele>
        <time>2022-09-04T07:58:04.000Z</time>
      </trkpt>
      <trkpt lat="48.48107" lon="-2.81838">
        <ele>125.19999694824</ele>
        <time>2022-09-04T07:58:05.000Z</time>
      </trkpt>
      <trkpt lat="48.48096" lon="-2.81874">
        <ele>125</ele>
        <time>2022-09-04T07:58:09.000Z</time>
      </trkpt>
      <trkpt lat="48.48093" lon="-2.81882">
        <ele>125</ele>
        <time>2022-09-04T07:58:10.000Z</time>
      </trkpt>
      <trkpt lat="48.48089" lon="-2.81891">
        <ele>125</ele>
        <time>2022-09-04T07:58:11.000Z</time>
      </trkpt>
      <trkpt lat="48.48086" lon="-2.81899">
        <ele>125</ele>
        <time>2022-09-04T07:58:12.000Z</time>
      </trkpt>
      <trkpt lat="48.48075" lon="-2.81923">
        <ele>124.80000305176</ele>
        <time>2022-09-04T07:58:15.000Z</time>
      </trkpt>
      <trkpt lat="48.48066" lon="-2.81938">
        <ele>124.59999847412</ele>
        <time>2022-09-04T07:58:17.000Z</time>
      </trkpt>
      <trkpt lat="48.48063" lon="-2.81945">
        <ele>124.59999847412</ele>
        <time>2022-09-04T07:58:18.000Z</time>
      </trkpt>
      <trkpt lat="48.48059" lon="-2.81952">
        <ele>124.80000305176</ele>
        <time>2022-09-04T07:58:19.000Z</time>
      </trkpt>
      <trkpt lat="48.48055" lon="-2.8196">
        <ele>124.80000305176</ele>
        <time>2022-09-04T07:58:20.000Z</time>
      </trkpt>
      <trkpt lat="48.48038" lon="-2.81998">
        <ele>125</ele>
        <time>2022-09-04T07:58:25.000Z</time>
      </trkpt>
      <trkpt lat="48.48017" lon="-2.82055">
        <ele>125</ele>
        <time>2022-09-04T07:58:32.000Z</time>
      </trkpt>
      <trkpt lat="48.48014" lon="-2.82063">
        <ele>125</ele>
        <time>2022-09-04T07:58:33.000Z</time>
      </trkpt>
      <trkpt lat="48.48012" lon="-2.82071">
        <ele>125</ele>
        <time>2022-09-04T07:58:34.000Z</time>
      </trkpt>
      <trkpt lat="48.48011" lon="-2.8208">
        <ele>125</ele>
        <time>2022-09-04T07:58:35.000Z</time>
      </trkpt>
      <trkpt lat="48.48007" lon="-2.82096">
        <ele>125</ele>
        <time>2022-09-04T07:58:37.000Z</time>
      </trkpt>
      <trkpt lat="48.48005" lon="-2.82105">
        <ele>125</ele>
        <time>2022-09-04T07:58:38.000Z</time>
      </trkpt>
      <trkpt lat="48.48003" lon="-2.82113">
        <ele>125</ele>
        <time>2022-09-04T07:58:39.000Z</time>
      </trkpt>
      <trkpt lat="48.47997" lon="-2.82147">
        <ele>125.19999694824</ele>
        <time>2022-09-04T07:58:43.000Z</time>
      </trkpt>
      <trkpt lat="48.47996" lon="-2.82155">
        <ele>125.40000152588</ele>
        <time>2022-09-04T07:58:44.000Z</time>
      </trkpt>
      <trkpt lat="48.47994" lon="-2.82164">
        <ele>125.40000152588</ele>
        <time>2022-09-04T07:58:45.000Z</time>
      </trkpt>
      <trkpt lat="48.47991" lon="-2.82181">
        <ele>125.80000305176</ele>
        <time>2022-09-04T07:58:47.000Z</time>
      </trkpt>
      <trkpt lat="48.47977" lon="-2.82231">
        <ele>126.59999847412</ele>
        <time>2022-09-04T07:58:53.000Z</time>
      </trkpt>
      <trkpt lat="48.47969" lon="-2.82256">
        <ele>127</ele>
        <time>2022-09-04T07:58:56.000Z</time>
      </trkpt>
      <trkpt lat="48.47958" lon="-2.82289">
        <ele>127.59999847412</ele>
        <time>2022-09-04T07:59:00.000Z</time>
      </trkpt>
      <trkpt lat="48.47955" lon="-2.82298">
        <ele>127.80000305176</ele>
        <time>2022-09-04T07:59:01.000Z</time>
      </trkpt>
      <trkpt lat="48.47952" lon="-2.82306">
        <ele>127.80000305176</ele>
        <time>2022-09-04T07:59:02.000Z</time>
      </trkpt>
      <trkpt lat="48.47946" lon="-2.82322">
        <ele>128</ele>
        <time>2022-09-04T07:59:04.000Z</time>
      </trkpt>
      <trkpt lat="48.47943" lon="-2.8233">
        <ele>128</ele>
        <time>2022-09-04T07:59:05.000Z</time>
      </trkpt>
      <trkpt lat="48.4794" lon="-2.82337">
        <ele>128</ele>
        <time>2022-09-04T07:59:06.000Z</time>
      </trkpt>
      <trkpt lat="48.47937" lon="-2.82345">
        <ele>128</ele>
        <time>2022-09-04T07:59:07.000Z</time>
      </trkpt>
      <trkpt lat="48.47934" lon="-2.82353">
        <ele>128</ele>
        <time>2022-09-04T07:59:08.000Z</time>
      </trkpt>
      <trkpt lat="48.47931" lon="-2.82361">
        <ele>128</ele>
        <time>2022-09-04T07:59:09.000Z</time>
      </trkpt>
      <trkpt lat="48.47927" lon="-2.82369">
        <ele>128</ele>
        <time>2022-09-04T07:59:10.000Z</time>
      </trkpt>
      <trkpt lat="48.47924" lon="-2.82378">
        <ele>128</ele>
        <time>2022-09-04T07:59:11.000Z</time>
      </trkpt>
      <trkpt lat="48.47921" lon="-2.82385">
        <ele>128</ele>
        <time>2022-09-04T07:59:12.000Z</time>
      </trkpt>
      <trkpt lat="48.47918" lon="-2.82393">
        <ele>128.39999389648</ele>
        <time>2022-09-04T07:59:13.000Z</time>
      </trkpt>
      <trkpt lat="48.47913" lon="-2.82407">
        <ele>128.60000610352</ele>
        <time>2022-09-04T07:59:15.000Z</time>
      </trkpt>
      <trkpt lat="48.47911" lon="-2.82414">
        <ele>128.60000610352</ele>
        <time>2022-09-04T07:59:16.000Z</time>
      </trkpt>
      <trkpt lat="48.4791" lon="-2.82421">
        <ele>129</ele>
        <time>2022-09-04T07:59:17.000Z</time>
      </trkpt>
      <trkpt lat="48.4791" lon="-2.82428">
        <ele>129</ele>
        <time>2022-09-04T07:59:18.000Z</time>
      </trkpt>
      <trkpt lat="48.47912" lon="-2.82434">
        <ele>129.19999694824</ele>
        <time>2022-09-04T07:59:19.000Z</time>
      </trkpt>
      <trkpt lat="48.47915" lon="-2.82439">
        <ele>129.39999389648</ele>
        <time>2022-09-04T07:59:20.000Z</time>
      </trkpt>
      <trkpt lat="48.47919" lon="-2.82442">
        <ele>129.39999389648</ele>
        <time>2022-09-04T07:59:21.000Z</time>
      </trkpt>
      <trkpt lat="48.47924" lon="-2.82443">
        <ele>129.39999389648</ele>
        <time>2022-09-04T07:59:22.000Z</time>
      </trkpt>
      <trkpt lat="48.47935" lon="-2.82438">
        <ele>129.39999389648</ele>
        <time>2022-09-04T07:59:24.000Z</time>
      </trkpt>
      <trkpt lat="48.47946" lon="-2.82432">
        <ele>129.39999389648</ele>
        <time>2022-09-04T07:59:26.000Z</time>
      </trkpt>
      <trkpt lat="48.47953" lon="-2.82428">
        <ele>129.19999694824</ele>
        <time>2022-09-04T07:59:27.000Z</time>
      </trkpt>
      <trkpt lat="48.47973" lon="-2.82418">
        <ele>129</ele>
        <time>2022-09-04T07:59:30.000Z</time>
      </trkpt>
      <trkpt lat="48.47993" lon="-2.82409">
        <ele>128.39999389648</ele>
        <time>2022-09-04T07:59:33.000Z</time>
      </trkpt>
      <trkpt lat="48.48" lon="-2.8241">
        <ele>128.39999389648</ele>
        <time>2022-09-04T07:59:34.000Z</time>
      </trkpt>
      <trkpt lat="48.48006" lon="-2.82416">
        <ele>128.19999694824</ele>
        <time>2022-09-04T07:59:35.000Z</time>
      </trkpt>
      <trkpt lat="48.48011" lon="-2.82424">
        <ele>128.19999694824</ele>
        <time>2022-09-04T07:59:36.000Z</time>
      </trkpt>
      <trkpt lat="48.48024" lon="-2.82453">
        <ele>128</ele>
        <time>2022-09-04T07:59:39.000Z</time>
      </trkpt>
      <trkpt lat="48.48028" lon="-2.82462">
        <ele>128</ele>
        <time>2022-09-04T07:59:40.000Z</time>
      </trkpt>
      <trkpt lat="48.48032" lon="-2.82472">
        <ele>128</ele>
        <time>2022-09-04T07:59:41.000Z</time>
      </trkpt>
      <trkpt lat="48.48037" lon="-2.8248">
        <ele>128.39999389648</ele>
        <time>2022-09-04T07:59:42.000Z</time>
      </trkpt>
      <trkpt lat="48.48042" lon="-2.82487">
        <ele>128.39999389648</ele>
        <time>2022-09-04T07:59:43.000Z</time>
      </trkpt>
      <trkpt lat="48.48056" lon="-2.82496">
        <ele>128.80000305176</ele>
        <time>2022-09-04T07:59:45.000Z</time>
      </trkpt>
      <trkpt lat="48.48063" lon="-2.82499">
        <ele>128.80000305176</ele>
        <time>2022-09-04T07:59:46.000Z</time>
      </trkpt>
      <trkpt lat="48.48069" lon="-2.82501">
        <ele>128.80000305176</ele>
        <time>2022-09-04T07:59:47.000Z</time>
      </trkpt>
      <trkpt lat="48.48077" lon="-2.82503">
        <ele>128.80000305176</ele>
        <time>2022-09-04T07:59:48.000Z</time>
      </trkpt>
      <trkpt lat="48.48091" lon="-2.82506">
        <ele>129</ele>
        <time>2022-09-04T07:59:50.000Z</time>
      </trkpt>
      <trkpt lat="48.48111" lon="-2.82512">
        <ele>128.80000305176</ele>
        <time>2022-09-04T07:59:53.000Z</time>
      </trkpt>
      <trkpt lat="48.48125" lon="-2.82515">
        <ele>129</ele>
        <time>2022-09-04T07:59:55.000Z</time>
      </trkpt>
      <trkpt lat="48.48132" lon="-2.82516">
        <ele>129</ele>
        <time>2022-09-04T07:59:56.000Z</time>
      </trkpt>
      <trkpt lat="48.48139" lon="-2.82517">
        <ele>129</ele>
        <time>2022-09-04T07:59:57.000Z</time>
      </trkpt>
      <trkpt lat="48.48145" lon="-2.82517">
        <ele>129</ele>
        <time>2022-09-04T07:59:58.000Z</time>
      </trkpt>
      <trkpt lat="48.48159" lon="-2.82516">
        <ele>129.39999389648</ele>
        <time>2022-09-04T08:00:00.000Z</time>
      </trkpt>
      <trkpt lat="48.48166" lon="-2.82515">
        <ele>129.60000610352</ele>
        <time>2022-09-04T08:00:01.000Z</time>
      </trkpt>
      <trkpt lat="48.48188" lon="-2.82517">
        <ele>129.80000305176</ele>
        <time>2022-09-04T08:00:04.000Z</time>
      </trkpt>
      <trkpt lat="48.48204" lon="-2.82523">
        <ele>130.19999694824</ele>
        <time>2022-09-04T08:00:06.000Z</time>
      </trkpt>
      <trkpt lat="48.48225" lon="-2.82532">
        <ele>130.60000610352</ele>
        <time>2022-09-04T08:00:09.000Z</time>
      </trkpt>
      <trkpt lat="48.48253" lon="-2.82547">
        <ele>131.39999389648</ele>
        <time>2022-09-04T08:00:13.000Z</time>
      </trkpt>
      <trkpt lat="48.48281" lon="-2.82561">
        <ele>131.60000610352</ele>
        <time>2022-09-04T08:00:17.000Z</time>
      </trkpt>
      <trkpt lat="48.48288" lon="-2.82565">
        <ele>131.60000610352</ele>
        <time>2022-09-04T08:00:18.000Z</time>
      </trkpt>
      <trkpt lat="48.48296" lon="-2.82569">
        <ele>131.39999389648</ele>
        <time>2022-09-04T08:00:19.000Z</time>
      </trkpt>
      <trkpt lat="48.48302" lon="-2.82572">
        <ele>131.39999389648</ele>
        <time>2022-09-04T08:00:20.000Z</time>
      </trkpt>
      <trkpt lat="48.4831" lon="-2.82576">
        <ele>131.39999389648</ele>
        <time>2022-09-04T08:00:21.000Z</time>
      </trkpt>
      <trkpt lat="48.48319" lon="-2.82581">
        <ele>131.39999389648</ele>
        <time>2022-09-04T08:00:22.000Z</time>
      </trkpt>
      <trkpt lat="48.48327" lon="-2.82585">
        <ele>131.19999694824</ele>
        <time>2022-09-04T08:00:23.000Z</time>
      </trkpt>
      <trkpt lat="48.48359" lon="-2.82597">
        <ele>130.80000305176</ele>
        <time>2022-09-04T08:00:27.000Z</time>
      </trkpt>
      <trkpt lat="48.48375" lon="-2.82595">
        <ele>130.39999389648</ele>
        <time>2022-09-04T08:00:29.000Z</time>
      </trkpt>
      <trkpt lat="48.48383" lon="-2.8259">
        <ele>130.19999694824</ele>
        <time>2022-09-04T08:00:30.000Z</time>
      </trkpt>
      <trkpt lat="48.48391" lon="-2.82582">
        <ele>130</ele>
        <time>2022-09-04T08:00:31.000Z</time>
      </trkpt>
      <trkpt lat="48.48399" lon="-2.82577">
        <ele>129.80000305176</ele>
        <time>2022-09-04T08:00:32.000Z</time>
      </trkpt>
      <trkpt lat="48.48407" lon="-2.82574">
        <ele>129.60000610352</ele>
        <time>2022-09-04T08:00:33.000Z</time>
      </trkpt>
      <trkpt lat="48.48414" lon="-2.82572">
        <ele>129.19999694824</ele>
        <time>2022-09-04T08:00:34.000Z</time>
      </trkpt>
      <trkpt lat="48.48432" lon="-2.82575">
        <ele>128.60000610352</ele>
        <time>2022-09-04T08:00:36.000Z</time>
      </trkpt>
      <trkpt lat="48.48441" lon="-2.82578">
        <ele>128.39999389648</ele>
        <time>2022-09-04T08:00:37.000Z</time>
      </trkpt>
      <trkpt lat="48.48449" lon="-2.82583">
        <ele>128</ele>
        <time>2022-09-04T08:00:38.000Z</time>
      </trkpt>
      <trkpt lat="48.48493" lon="-2.82603">
        <ele>127</ele>
        <time>2022-09-04T08:00:43.000Z</time>
      </trkpt>
      <trkpt lat="48.48512" lon="-2.82607">
        <ele>126.59999847412</ele>
        <time>2022-09-04T08:00:45.000Z</time>
      </trkpt>
      <trkpt lat="48.4855" lon="-2.82609">
        <ele>125.80000305176</ele>
        <time>2022-09-04T08:00:49.000Z</time>
      </trkpt>
      <trkpt lat="48.48559" lon="-2.82609">
        <ele>125.40000152588</ele>
        <time>2022-09-04T08:00:50.000Z</time>
      </trkpt>
      <trkpt lat="48.48569" lon="-2.82609">
        <ele>125.19999694824</ele>
        <time>2022-09-04T08:00:51.000Z</time>
      </trkpt>
      <trkpt lat="48.48576" lon="-2.8261">
        <ele>124.59999847412</ele>
        <time>2022-09-04T08:00:52.000Z</time>
      </trkpt>
      <trkpt lat="48.48597" lon="-2.82616">
        <ele>124.19999694824</ele>
        <time>2022-09-04T08:00:54.000Z</time>
      </trkpt>
      <trkpt lat="48.48615" lon="-2.82622">
        <ele>123.59999847412</ele>
        <time>2022-09-04T08:00:56.000Z</time>
      </trkpt>
      <trkpt lat="48.48624" lon="-2.82626">
        <ele>123.40000152588</ele>
        <time>2022-09-04T08:00:57.000Z</time>
      </trkpt>
      <trkpt lat="48.48631" lon="-2.8263">
        <ele>123</ele>
        <time>2022-09-04T08:00:58.000Z</time>
      </trkpt>
      <trkpt lat="48.48641" lon="-2.82636">
        <ele>122.80000305176</ele>
        <time>2022-09-04T08:00:59.000Z</time>
      </trkpt>
      <trkpt lat="48.48649" lon="-2.82642">
        <ele>122.19999694824</ele>
        <time>2022-09-04T08:01:00.000Z</time>
      </trkpt>
      <trkpt lat="48.48655" lon="-2.82647">
        <ele>121.80000305176</ele>
        <time>2022-09-04T08:01:01.000Z</time>
      </trkpt>
      <trkpt lat="48.48673" lon="-2.82661">
        <ele>121.19999694824</ele>
        <time>2022-09-04T08:01:03.000Z</time>
      </trkpt>
      <trkpt lat="48.48696" lon="-2.82679">
        <ele>120</ele>
        <time>2022-09-04T08:01:07.000Z</time>
      </trkpt>
      <trkpt lat="48.48723" lon="-2.82696">
        <ele>118.80000305176</ele>
        <time>2022-09-04T08:01:09.000Z</time>
      </trkpt>
      <trkpt lat="48.48728" lon="-2.82698">
        <ele>118.59999847412</ele>
        <time>2022-09-04T08:01:10.000Z</time>
      </trkpt>
      <trkpt lat="48.48734" lon="-2.827">
        <ele>118</ele>
        <time>2022-09-04T08:01:11.000Z</time>
      </trkpt>
      <trkpt lat="48.48739" lon="-2.82701">
        <ele>117.80000305176</ele>
        <time>2022-09-04T08:01:12.000Z</time>
      </trkpt>
      <trkpt lat="48.48741" lon="-2.827">
        <ele>117.19999694824</ele>
        <time>2022-09-04T08:01:13.000Z</time>
      </trkpt>
      <trkpt lat="48.48742" lon="-2.827">
        <ele>116.40000152588</ele>
        <time>2022-09-04T08:01:14.000Z</time>
      </trkpt>
      <trkpt lat="48.48743" lon="-2.827">
        <ele>116.19999694824</ele>
        <time>2022-09-04T08:01:15.000Z</time>
      </trkpt>
      <trkpt lat="48.48744" lon="-2.827">
        <ele>115.80000305176</ele>
        <time>2022-09-04T08:01:16.000Z</time>
      </trkpt>
      <trkpt lat="48.48746" lon="-2.82703">
        <ele>115.59999847412</ele>
        <time>2022-09-04T08:01:17.000Z</time>
      </trkpt>
      <trkpt lat="48.48746" lon="-2.82708">
        <ele>115.19999694824</ele>
        <time>2022-09-04T08:01:18.000Z</time>
      </trkpt>
      <trkpt lat="48.48746" lon="-2.82714">
        <ele>115.19999694824</ele>
        <time>2022-09-04T08:01:19.000Z</time>
      </trkpt>
      <trkpt lat="48.48736" lon="-2.82741">
        <ele>115</ele>
        <time>2022-09-04T08:01:23.000Z</time>
      </trkpt>
      <trkpt lat="48.48733" lon="-2.82748">
        <ele>115</ele>
        <time>2022-09-04T08:01:24.000Z</time>
      </trkpt>
      <trkpt lat="48.48719" lon="-2.82787">
        <ele>116.19999694824</ele>
        <time>2022-09-04T08:01:29.000Z</time>
      </trkpt>
      <trkpt lat="48.48709" lon="-2.82816">
        <ele>116.59999847412</ele>
        <time>2022-09-04T08:01:33.000Z</time>
      </trkpt>
      <trkpt lat="48.48705" lon="-2.82823">
        <ele>116.59999847412</ele>
        <time>2022-09-04T08:01:34.000Z</time>
      </trkpt>
      <trkpt lat="48.48692" lon="-2.82855">
        <ele>117.19999694824</ele>
        <time>2022-09-04T08:01:38.000Z</time>
      </trkpt>
      <trkpt lat="48.4869" lon="-2.82861">
        <ele>117.19999694824</ele>
        <time>2022-09-04T08:01:39.000Z</time>
      </trkpt>
      <trkpt lat="48.48682" lon="-2.82883">
        <ele>117.40000152588</ele>
        <time>2022-09-04T08:01:42.000Z</time>
      </trkpt>
      <trkpt lat="48.48683" lon="-2.82901">
        <ele>117.40000152588</ele>
        <time>2022-09-04T08:01:44.000Z</time>
      </trkpt>
      <trkpt lat="48.48686" lon="-2.82908">
        <ele>117.59999847412</ele>
        <time>2022-09-04T08:01:45.000Z</time>
      </trkpt>
      <trkpt lat="48.48691" lon="-2.82913">
        <ele>117.59999847412</ele>
        <time>2022-09-04T08:01:46.000Z</time>
      </trkpt>
      <trkpt lat="48.48696" lon="-2.82915">
        <ele>117.80000305176</ele>
        <time>2022-09-04T08:01:47.000Z</time>
      </trkpt>
      <trkpt lat="48.48702" lon="-2.82915">
        <ele>117.59999847412</ele>
        <time>2022-09-04T08:01:48.000Z</time>
      </trkpt>
      <trkpt lat="48.48715" lon="-2.82911">
        <ele>117.59999847412</ele>
        <time>2022-09-04T08:01:50.000Z</time>
      </trkpt>
      <trkpt lat="48.4872" lon="-2.82909">
        <ele>117.59999847412</ele>
        <time>2022-09-04T08:01:51.000Z</time>
      </trkpt>
      <trkpt lat="48.48726" lon="-2.82906">
        <ele>117.59999847412</ele>
        <time>2022-09-04T08:01:52.000Z</time>
      </trkpt>
      <trkpt lat="48.48758" lon="-2.82895">
        <ele>117.40000152588</ele>
        <time>2022-09-04T08:01:57.000Z</time>
      </trkpt>
      <trkpt lat="48.48764" lon="-2.82894">
        <ele>117.40000152588</ele>
        <time>2022-09-04T08:01:58.000Z</time>
      </trkpt>
      <trkpt lat="48.48778" lon="-2.82895">
        <ele>117.59999847412</ele>
        <time>2022-09-04T08:02:00.000Z</time>
      </trkpt>
      <trkpt lat="48.48789" lon="-2.82898">
        <ele>117.59999847412</ele>
        <time>2022-09-04T08:02:02.000Z</time>
      </trkpt>
      <trkpt lat="48.48833" lon="-2.82917">
        <ele>117.80000305176</ele>
        <time>2022-09-04T08:02:09.000Z</time>
      </trkpt>
      <trkpt lat="48.48838" lon="-2.82919">
        <ele>117.80000305176</ele>
        <time>2022-09-04T08:02:10.000Z</time>
      </trkpt>
      <trkpt lat="48.48858" lon="-2.8293">
        <ele>118.19999694824</ele>
        <time>2022-09-04T08:02:13.000Z</time>
      </trkpt>
      <trkpt lat="48.48875" lon="-2.82938">
        <ele>118.59999847412</ele>
        <time>2022-09-04T08:02:16.000Z</time>
      </trkpt>
      <trkpt lat="48.48888" lon="-2.82943">
        <ele>118.80000305176</ele>
        <time>2022-09-04T08:02:18.000Z</time>
      </trkpt>
      <trkpt lat="48.489" lon="-2.82945">
        <ele>119.19999694824</ele>
        <time>2022-09-04T08:02:20.000Z</time>
      </trkpt>
      <trkpt lat="48.48907" lon="-2.82947">
        <ele>119.40000152588</ele>
        <time>2022-09-04T08:02:21.000Z</time>
      </trkpt>
      <trkpt lat="48.48913" lon="-2.82947">
        <ele>119.59999847412</ele>
        <time>2022-09-04T08:02:22.000Z</time>
      </trkpt>
      <trkpt lat="48.48919" lon="-2.82945">
        <ele>119.80000305176</ele>
        <time>2022-09-04T08:02:23.000Z</time>
      </trkpt>
      <trkpt lat="48.48923" lon="-2.82941">
        <ele>119.80000305176</ele>
        <time>2022-09-04T08:02:24.000Z</time>
      </trkpt>
      <trkpt lat="48.48927" lon="-2.82935">
        <ele>120</ele>
        <time>2022-09-04T08:02:25.000Z</time>
      </trkpt>
      <trkpt lat="48.48932" lon="-2.82925">
        <ele>120</ele>
        <time>2022-09-04T08:02:26.000Z</time>
      </trkpt>
      <trkpt lat="48.48938" lon="-2.82907">
        <ele>120.19999694824</ele>
        <time>2022-09-04T08:02:28.000Z</time>
      </trkpt>
      <trkpt lat="48.4894" lon="-2.82899">
        <ele>120.19999694824</ele>
        <time>2022-09-04T08:02:29.000Z</time>
      </trkpt>
      <trkpt lat="48.48944" lon="-2.8289">
        <ele>120.19999694824</ele>
        <time>2022-09-04T08:02:30.000Z</time>
      </trkpt>
      <trkpt lat="48.48949" lon="-2.82879">
        <ele>120</ele>
        <time>2022-09-04T08:02:31.000Z</time>
      </trkpt>
      <trkpt lat="48.48953" lon="-2.82869">
        <ele>120</ele>
        <time>2022-09-04T08:02:32.000Z</time>
      </trkpt>
      <trkpt lat="48.48958" lon="-2.8286">
        <ele>119.80000305176</ele>
        <time>2022-09-04T08:02:33.000Z</time>
      </trkpt>
      <trkpt lat="48.48983" lon="-2.8281">
        <ele>118.80000305176</ele>
        <time>2022-09-04T08:02:38.000Z</time>
      </trkpt>
      <trkpt lat="48.49003" lon="-2.82775">
        <ele>117.40000152588</ele>
        <time>2022-09-04T08:02:41.000Z</time>
      </trkpt>
      <trkpt lat="48.49015" lon="-2.82752">
        <ele>116</ele>
        <time>2022-09-04T08:02:43.000Z</time>
      </trkpt>
      <trkpt lat="48.49023" lon="-2.82737">
        <ele>115.80000305176</ele>
        <time>2022-09-04T08:02:44.000Z</time>
      </trkpt>
      <trkpt lat="48.49038" lon="-2.82712">
        <ele>114.59999847412</ele>
        <time>2022-09-04T08:02:46.000Z</time>
      </trkpt>
      <trkpt lat="48.49053" lon="-2.82688">
        <ele>113</ele>
        <time>2022-09-04T08:02:48.000Z</time>
      </trkpt>
      <trkpt lat="48.49067" lon="-2.82662">
        <ele>111.40000152588</ele>
        <time>2022-09-04T08:02:50.000Z</time>
      </trkpt>
      <trkpt lat="48.49073" lon="-2.82649">
        <ele>110.80000305176</ele>
        <time>2022-09-04T08:02:51.000Z</time>
      </trkpt>
      <trkpt lat="48.49079" lon="-2.82637">
        <ele>109.59999847412</ele>
        <time>2022-09-04T08:02:52.000Z</time>
      </trkpt>
      <trkpt lat="48.49085" lon="-2.82626">
        <ele>109.19999694824</ele>
        <time>2022-09-04T08:02:53.000Z</time>
      </trkpt>
      <trkpt lat="48.49091" lon="-2.82617">
        <ele>107.59999847412</ele>
        <time>2022-09-04T08:02:54.000Z</time>
      </trkpt>
      <trkpt lat="48.49096" lon="-2.8261">
        <ele>106.80000305176</ele>
        <time>2022-09-04T08:02:55.000Z</time>
      </trkpt>
      <trkpt lat="48.49102" lon="-2.82605">
        <ele>105.80000305176</ele>
        <time>2022-09-04T08:02:56.000Z</time>
      </trkpt>
      <trkpt lat="48.49109" lon="-2.82602">
        <ele>104.80000305176</ele>
        <time>2022-09-04T08:02:57.000Z</time>
      </trkpt>
      <trkpt lat="48.49115" lon="-2.82601">
        <ele>104.40000152588</ele>
        <time>2022-09-04T08:02:58.000Z</time>
      </trkpt>
      <trkpt lat="48.49119" lon="-2.82601">
        <ele>103.40000152588</ele>
        <time>2022-09-04T08:02:59.000Z</time>
      </trkpt>
      <trkpt lat="48.49125" lon="-2.82602">
        <ele>102.80000305176</ele>
        <time>2022-09-04T08:03:00.000Z</time>
      </trkpt>
      <trkpt lat="48.49131" lon="-2.82603">
        <ele>101.59999847412</ele>
        <time>2022-09-04T08:03:01.000Z</time>
      </trkpt>
      <trkpt lat="48.49136" lon="-2.82603">
        <ele>100.80000305176</ele>
        <time>2022-09-04T08:03:02.000Z</time>
      </trkpt>
      <trkpt lat="48.49141" lon="-2.82602">
        <ele>100</ele>
        <time>2022-09-04T08:03:03.000Z</time>
      </trkpt>
      <trkpt lat="48.49146" lon="-2.826">
        <ele>99.800003051758</ele>
        <time>2022-09-04T08:03:04.000Z</time>
      </trkpt>
      <trkpt lat="48.49149" lon="-2.82596">
        <ele>99.400001525879</ele>
        <time>2022-09-04T08:03:05.000Z</time>
      </trkpt>
      <trkpt lat="48.49151" lon="-2.82593">
        <ele>99.400001525879</ele>
        <time>2022-09-04T08:03:06.000Z</time>
      </trkpt>
      <trkpt lat="48.49152" lon="-2.8259">
        <ele>98.800003051758</ele>
        <time>2022-09-04T08:03:07.000Z</time>
      </trkpt>
      <trkpt lat="48.49152" lon="-2.82587">
        <ele>98.199996948242</ele>
        <time>2022-09-04T08:03:08.000Z</time>
      </trkpt>
      <trkpt lat="48.4915" lon="-2.82581">
        <ele>97.800003051758</ele>
        <time>2022-09-04T08:03:10.000Z</time>
      </trkpt>
      <trkpt lat="48.49145" lon="-2.82575">
        <ele>97.800003051758</ele>
        <time>2022-09-04T08:03:12.000Z</time>
      </trkpt>
      <trkpt lat="48.49139" lon="-2.82565">
        <ele>97.599998474121</ele>
        <time>2022-09-04T08:03:14.000Z</time>
      </trkpt>
      <trkpt lat="48.49138" lon="-2.82559">
        <ele>97.599998474121</ele>
        <time>2022-09-04T08:03:15.000Z</time>
      </trkpt>
      <trkpt lat="48.49136" lon="-2.82552">
        <ele>97.599998474121</ele>
        <time>2022-09-04T08:03:16.000Z</time>
      </trkpt>
      <trkpt lat="48.49134" lon="-2.82547">
        <ele>97.400001525879</ele>
        <time>2022-09-04T08:03:17.000Z</time>
      </trkpt>
      <trkpt lat="48.49132" lon="-2.82543">
        <ele>97.400001525879</ele>
        <time>2022-09-04T08:03:18.000Z</time>
      </trkpt>
      <trkpt lat="48.4913" lon="-2.82537">
        <ele>97.400001525879</ele>
        <time>2022-09-04T08:03:19.000Z</time>
      </trkpt>
      <trkpt lat="48.4913" lon="-2.82531">
        <ele>97.400001525879</ele>
        <time>2022-09-04T08:03:20.000Z</time>
      </trkpt>
      <trkpt lat="48.49129" lon="-2.82525">
        <ele>97.400001525879</ele>
        <time>2022-09-04T08:03:21.000Z</time>
      </trkpt>
      <trkpt lat="48.49129" lon="-2.82506">
        <ele>97.599998474121</ele>
        <time>2022-09-04T08:03:23.000Z</time>
      </trkpt>
      <trkpt lat="48.49128" lon="-2.82498">
        <ele>97.599998474121</ele>
        <time>2022-09-04T08:03:24.000Z</time>
      </trkpt>
      <trkpt lat="48.49125" lon="-2.82484">
        <ele>97.800003051758</ele>
        <time>2022-09-04T08:03:26.000Z</time>
      </trkpt>
      <trkpt lat="48.49125" lon="-2.82477">
        <ele>98</ele>
        <time>2022-09-04T08:03:27.000Z</time>
      </trkpt>
      <trkpt lat="48.49128" lon="-2.8247">
        <ele>98</ele>
        <time>2022-09-04T08:03:28.000Z</time>
      </trkpt>
      <trkpt lat="48.49131" lon="-2.82464">
        <ele>98.199996948242</ele>
        <time>2022-09-04T08:03:29.000Z</time>
      </trkpt>
      <trkpt lat="48.49135" lon="-2.8246">
        <ele>98.400001525879</ele>
        <time>2022-09-04T08:03:30.000Z</time>
      </trkpt>
      <trkpt lat="48.49137" lon="-2.82456">
        <ele>98.599998474121</ele>
        <time>2022-09-04T08:03:31.000Z</time>
      </trkpt>
      <trkpt lat="48.4914" lon="-2.82453">
        <ele>99</ele>
        <time>2022-09-04T08:03:32.000Z</time>
      </trkpt>
      <trkpt lat="48.49143" lon="-2.82452">
        <ele>99</ele>
        <time>2022-09-04T08:03:33.000Z</time>
      </trkpt>
      <trkpt lat="48.49147" lon="-2.82453">
        <ele>99.199996948242</ele>
        <time>2022-09-04T08:03:34.000Z</time>
      </trkpt>
      <trkpt lat="48.49152" lon="-2.82453">
        <ele>99.400001525879</ele>
        <time>2022-09-04T08:03:35.000Z</time>
      </trkpt>
      <trkpt lat="48.49155" lon="-2.82454">
        <ele>99.800003051758</ele>
        <time>2022-09-04T08:03:36.000Z</time>
      </trkpt>
      <trkpt lat="48.49157" lon="-2.82455">
        <ele>100.19999694824</ele>
        <time>2022-09-04T08:03:37.000Z</time>
      </trkpt>
      <trkpt lat="48.49159" lon="-2.82455">
        <ele>100.59999847412</ele>
        <time>2022-09-04T08:03:38.000Z</time>
      </trkpt>
      <trkpt lat="48.49161" lon="-2.82456">
        <ele>100.80000305176</ele>
        <time>2022-09-04T08:03:39.000Z</time>
      </trkpt>
      <trkpt lat="48.49163" lon="-2.82456">
        <ele>101.19999694824</ele>
        <time>2022-09-04T08:03:40.000Z</time>
      </trkpt>
      <trkpt lat="48.49166" lon="-2.82456">
        <ele>101.40000152588</ele>
        <time>2022-09-04T08:03:41.000Z</time>
      </trkpt>
      <trkpt lat="48.49169" lon="-2.82454">
        <ele>101.80000305176</ele>
        <time>2022-09-04T08:03:42.000Z</time>
      </trkpt>
      <trkpt lat="48.49172" lon="-2.82453">
        <ele>102</ele>
        <time>2022-09-04T08:03:43.000Z</time>
      </trkpt>
      <trkpt lat="48.49175" lon="-2.82452">
        <ele>102.19999694824</ele>
        <time>2022-09-04T08:03:44.000Z</time>
      </trkpt>
      <trkpt lat="48.49178" lon="-2.82451">
        <ele>102.59999847412</ele>
        <time>2022-09-04T08:03:45.000Z</time>
      </trkpt>
      <trkpt lat="48.49181" lon="-2.82451">
        <ele>102.80000305176</ele>
        <time>2022-09-04T08:03:46.000Z</time>
      </trkpt>
      <trkpt lat="48.49184" lon="-2.8245">
        <ele>103.19999694824</ele>
        <time>2022-09-04T08:03:47.000Z</time>
      </trkpt>
      <trkpt lat="48.49187" lon="-2.8245">
        <ele>103.40000152588</ele>
        <time>2022-09-04T08:03:48.000Z</time>
      </trkpt>
      <trkpt lat="48.4919" lon="-2.8245">
        <ele>103.80000305176</ele>
        <time>2022-09-04T08:03:49.000Z</time>
      </trkpt>
      <trkpt lat="48.49193" lon="-2.8245">
        <ele>104</ele>
        <time>2022-09-04T08:03:50.000Z</time>
      </trkpt>
      <trkpt lat="48.49197" lon="-2.82452">
        <ele>104.40000152588</ele>
        <time>2022-09-04T08:03:51.000Z</time>
      </trkpt>
      <trkpt lat="48.49201" lon="-2.82453">
        <ele>104.59999847412</ele>
        <time>2022-09-04T08:03:52.000Z</time>
      </trkpt>
      <trkpt lat="48.49204" lon="-2.82454">
        <ele>105</ele>
        <time>2022-09-04T08:03:53.000Z</time>
      </trkpt>
      <trkpt lat="48.49207" lon="-2.82455">
        <ele>105.40000152588</ele>
        <time>2022-09-04T08:03:54.000Z</time>
      </trkpt>
      <trkpt lat="48.4921" lon="-2.82458">
        <ele>105.59999847412</ele>
        <time>2022-09-04T08:03:55.000Z</time>
      </trkpt>
      <trkpt lat="48.49213" lon="-2.82459">
        <ele>106</ele>
        <time>2022-09-04T08:03:56.000Z</time>
      </trkpt>
      <trkpt lat="48.49216" lon="-2.82461">
        <ele>106.19999694824</ele>
        <time>2022-09-04T08:03:57.000Z</time>
      </trkpt>
      <trkpt lat="48.49219" lon="-2.82463">
        <ele>106.80000305176</ele>
        <time>2022-09-04T08:03:58.000Z</time>
      </trkpt>
      <trkpt lat="48.49221" lon="-2.82465">
        <ele>107.19999694824</ele>
        <time>2022-09-04T08:03:59.000Z</time>
      </trkpt>
      <trkpt lat="48.49224" lon="-2.82468">
        <ele>107.80000305176</ele>
        <time>2022-09-04T08:04:00.000Z</time>
      </trkpt>
      <trkpt lat="48.49226" lon="-2.82471">
        <ele>108</ele>
        <time>2022-09-04T08:04:01.000Z</time>
      </trkpt>
      <trkpt lat="48.49229" lon="-2.82474">
        <ele>108.59999847412</ele>
        <time>2022-09-04T08:04:02.000Z</time>
      </trkpt>
      <trkpt lat="48.4923" lon="-2.82477">
        <ele>108.80000305176</ele>
        <time>2022-09-04T08:04:03.000Z</time>
      </trkpt>
      <trkpt lat="48.49233" lon="-2.8248">
        <ele>109.40000152588</ele>
        <time>2022-09-04T08:04:04.000Z</time>
      </trkpt>
      <trkpt lat="48.49236" lon="-2.82485">
        <ele>109.80000305176</ele>
        <time>2022-09-04T08:04:05.000Z</time>
      </trkpt>
      <trkpt lat="48.49238" lon="-2.82489">
        <ele>110</ele>
        <time>2022-09-04T08:04:06.000Z</time>
      </trkpt>
      <trkpt lat="48.49241" lon="-2.82493">
        <ele>110.59999847412</ele>
        <time>2022-09-04T08:04:07.000Z</time>
      </trkpt>
      <trkpt lat="48.49244" lon="-2.82497">
        <ele>110.80000305176</ele>
        <time>2022-09-04T08:04:08.000Z</time>
      </trkpt>
      <trkpt lat="48.49247" lon="-2.825">
        <ele>111.19999694824</ele>
        <time>2022-09-04T08:04:09.000Z</time>
      </trkpt>
      <trkpt lat="48.4925" lon="-2.82503">
        <ele>111.19999694824</ele>
        <time>2022-09-04T08:04:10.000Z</time>
      </trkpt>
      <trkpt lat="48.49253" lon="-2.82506">
        <ele>111.40000152588</ele>
        <time>2022-09-04T08:04:11.000Z</time>
      </trkpt>
      <trkpt lat="48.49257" lon="-2.82508">
        <ele>111.59999847412</ele>
        <time>2022-09-04T08:04:12.000Z</time>
      </trkpt>
      <trkpt lat="48.4926" lon="-2.82509">
        <ele>111.59999847412</ele>
        <time>2022-09-04T08:04:13.000Z</time>
      </trkpt>
      <trkpt lat="48.49265" lon="-2.8251">
        <ele>111.80000305176</ele>
        <time>2022-09-04T08:04:14.000Z</time>
      </trkpt>
      <trkpt lat="48.49269" lon="-2.82511">
        <ele>111.80000305176</ele>
        <time>2022-09-04T08:04:15.000Z</time>
      </trkpt>
      <trkpt lat="48.49272" lon="-2.82512">
        <ele>112</ele>
        <time>2022-09-04T08:04:16.000Z</time>
      </trkpt>
      <trkpt lat="48.49276" lon="-2.82513">
        <ele>112</ele>
        <time>2022-09-04T08:04:17.000Z</time>
      </trkpt>
      <trkpt lat="48.49279" lon="-2.82514">
        <ele>112</ele>
        <time>2022-09-04T08:04:18.000Z</time>
      </trkpt>
      <trkpt lat="48.49283" lon="-2.82516">
        <ele>112</ele>
        <time>2022-09-04T08:04:19.000Z</time>
      </trkpt>
      <trkpt lat="48.49287" lon="-2.82517">
        <ele>112.19999694824</ele>
        <time>2022-09-04T08:04:20.000Z</time>
      </trkpt>
      <trkpt lat="48.49291" lon="-2.82518">
        <ele>112.19999694824</ele>
        <time>2022-09-04T08:04:21.000Z</time>
      </trkpt>
      <trkpt lat="48.49295" lon="-2.82518">
        <ele>112.19999694824</ele>
        <time>2022-09-04T08:04:22.000Z</time>
      </trkpt>
      <trkpt lat="48.49299" lon="-2.82518">
        <ele>112.40000152588</ele>
        <time>2022-09-04T08:04:23.000Z</time>
      </trkpt>
      <trkpt lat="48.49303" lon="-2.82518">
        <ele>112.40000152588</ele>
        <time>2022-09-04T08:04:24.000Z</time>
      </trkpt>
      <trkpt lat="48.49307" lon="-2.82517">
        <ele>112.40000152588</ele>
        <time>2022-09-04T08:04:25.000Z</time>
      </trkpt>
      <trkpt lat="48.49311" lon="-2.82515">
        <ele>112.59999847412</ele>
        <time>2022-09-04T08:04:26.000Z</time>
      </trkpt>
      <trkpt lat="48.49314" lon="-2.82513">
        <ele>112.80000305176</ele>
        <time>2022-09-04T08:04:27.000Z</time>
      </trkpt>
      <trkpt lat="48.49318" lon="-2.82511">
        <ele>112.80000305176</ele>
        <time>2022-09-04T08:04:28.000Z</time>
      </trkpt>
      <trkpt lat="48.49322" lon="-2.8251">
        <ele>112.80000305176</ele>
        <time>2022-09-04T08:04:29.000Z</time>
      </trkpt>
      <trkpt lat="48.49327" lon="-2.8251">
        <ele>112.80000305176</ele>
        <time>2022-09-04T08:04:30.000Z</time>
      </trkpt>
      <trkpt lat="48.49331" lon="-2.82511">
        <ele>113</ele>
        <time>2022-09-04T08:04:31.000Z</time>
      </trkpt>
      <trkpt lat="48.49336" lon="-2.82512">
        <ele>113.19999694824</ele>
        <time>2022-09-04T08:04:32.000Z</time>
      </trkpt>
      <trkpt lat="48.49341" lon="-2.82513">
        <ele>113.40000152588</ele>
        <time>2022-09-04T08:04:33.000Z</time>
      </trkpt>
      <trkpt lat="48.49346" lon="-2.82515">
        <ele>113.40000152588</ele>
        <time>2022-09-04T08:04:34.000Z</time>
      </trkpt>
      <trkpt lat="48.4935" lon="-2.82516">
        <ele>113.59999847412</ele>
        <time>2022-09-04T08:04:35.000Z</time>
      </trkpt>
      <trkpt lat="48.49355" lon="-2.82517">
        <ele>113.59999847412</ele>
        <time>2022-09-04T08:04:36.000Z</time>
      </trkpt>
      <trkpt lat="48.49358" lon="-2.82518">
        <ele>113.80000305176</ele>
        <time>2022-09-04T08:04:37.000Z</time>
      </trkpt>
      <trkpt lat="48.49364" lon="-2.82518">
        <ele>113.80000305176</ele>
        <time>2022-09-04T08:04:38.000Z</time>
      </trkpt>
      <trkpt lat="48.49369" lon="-2.82518">
        <ele>113.80000305176</ele>
        <time>2022-09-04T08:04:39.000Z</time>
      </trkpt>
      <trkpt lat="48.49374" lon="-2.82519">
        <ele>113.80000305176</ele>
        <time>2022-09-04T08:04:40.000Z</time>
      </trkpt>
      <trkpt lat="48.49379" lon="-2.8252">
        <ele>114</ele>
        <time>2022-09-04T08:04:41.000Z</time>
      </trkpt>
      <trkpt lat="48.49384" lon="-2.82521">
        <ele>114</ele>
        <time>2022-09-04T08:04:42.000Z</time>
      </trkpt>
      <trkpt lat="48.49388" lon="-2.82522">
        <ele>114</ele>
        <time>2022-09-04T08:04:43.000Z</time>
      </trkpt>
      <trkpt lat="48.49393" lon="-2.82523">
        <ele>114</ele>
        <time>2022-09-04T08:04:44.000Z</time>
      </trkpt>
      <trkpt lat="48.49397" lon="-2.82522">
        <ele>114</ele>
        <time>2022-09-04T08:04:45.000Z</time>
      </trkpt>
      <trkpt lat="48.49399" lon="-2.8252">
        <ele>114</ele>
        <time>2022-09-04T08:04:46.000Z</time>
      </trkpt>
      <trkpt lat="48.49402" lon="-2.82516">
        <ele>114</ele>
        <time>2022-09-04T08:04:47.000Z</time>
      </trkpt>
      <trkpt lat="48.49402" lon="-2.8251">
        <ele>114.19999694824</ele>
        <time>2022-09-04T08:04:48.000Z</time>
      </trkpt>
      <trkpt lat="48.49399" lon="-2.82497">
        <ele>114.59999847412</ele>
        <time>2022-09-04T08:04:50.000Z</time>
      </trkpt>
      <trkpt lat="48.49397" lon="-2.8249">
        <ele>114.80000305176</ele>
        <time>2022-09-04T08:04:51.000Z</time>
      </trkpt>
      <trkpt lat="48.49392" lon="-2.82476">
        <ele>115</ele>
        <time>2022-09-04T08:04:53.000Z</time>
      </trkpt>
      <trkpt lat="48.49391" lon="-2.82462">
        <ele>115.19999694824</ele>
        <time>2022-09-04T08:04:55.000Z</time>
      </trkpt>
      <trkpt lat="48.49392" lon="-2.82452">
        <ele>115.19999694824</ele>
        <time>2022-09-04T08:04:56.000Z</time>
      </trkpt>
      <trkpt lat="48.49393" lon="-2.82444">
        <ele>115.19999694824</ele>
        <time>2022-09-04T08:04:57.000Z</time>
      </trkpt>
      <trkpt lat="48.49395" lon="-2.82436">
        <ele>115.40000152588</ele>
        <time>2022-09-04T08:04:58.000Z</time>
      </trkpt>
      <trkpt lat="48.49396" lon="-2.82428">
        <ele>115.40000152588</ele>
        <time>2022-09-04T08:04:59.000Z</time>
      </trkpt>
      <trkpt lat="48.49397" lon="-2.8242">
        <ele>115.40000152588</ele>
        <time>2022-09-04T08:05:00.000Z</time>
      </trkpt>
      <trkpt lat="48.49399" lon="-2.82412">
        <ele>115.40000152588</ele>
        <time>2022-09-04T08:05:01.000Z</time>
      </trkpt>
      <trkpt lat="48.494" lon="-2.82406">
        <ele>115.40000152588</ele>
        <time>2022-09-04T08:05:02.000Z</time>
      </trkpt>
      <trkpt lat="48.49403" lon="-2.8239">
        <ele>115.40000152588</ele>
        <time>2022-09-04T08:05:04.000Z</time>
      </trkpt>
      <trkpt lat="48.49405" lon="-2.82382">
        <ele>115.40000152588</ele>
        <time>2022-09-04T08:05:05.000Z</time>
      </trkpt>
      <trkpt lat="48.49407" lon="-2.82373">
        <ele>115.40000152588</ele>
        <time>2022-09-04T08:05:06.000Z</time>
      </trkpt>
      <trkpt lat="48.49413" lon="-2.82352">
        <ele>115.40000152588</ele>
        <time>2022-09-04T08:05:09.000Z</time>
      </trkpt>
      <trkpt lat="48.49416" lon="-2.82345">
        <ele>115.40000152588</ele>
        <time>2022-09-04T08:05:10.000Z</time>
      </trkpt>
      <trkpt lat="48.49418" lon="-2.82338">
        <ele>115.40000152588</ele>
        <time>2022-09-04T08:05:11.000Z</time>
      </trkpt>
      <trkpt lat="48.4942" lon="-2.82332">
        <ele>115.40000152588</ele>
        <time>2022-09-04T08:05:12.000Z</time>
      </trkpt>
      <trkpt lat="48.49423" lon="-2.82325">
        <ele>115.40000152588</ele>
        <time>2022-09-04T08:05:13.000Z</time>
      </trkpt>
      <trkpt lat="48.49426" lon="-2.82318">
        <ele>115.40000152588</ele>
        <time>2022-09-04T08:05:14.000Z</time>
      </trkpt>
      <trkpt lat="48.49435" lon="-2.8227">
        <ele>115.40000152588</ele>
        <time>2022-09-04T08:05:20.000Z</time>
      </trkpt>
      <trkpt lat="48.49443" lon="-2.82229">
        <ele>115.40000152588</ele>
        <time>2022-09-04T08:05:25.000Z</time>
      </trkpt>
      <trkpt lat="48.49444" lon="-2.82221">
        <ele>115.59999847412</ele>
        <time>2022-09-04T08:05:26.000Z</time>
      </trkpt>
      <trkpt lat="48.49446" lon="-2.82213">
        <ele>115.40000152588</ele>
        <time>2022-09-04T08:05:27.000Z</time>
      </trkpt>
      <trkpt lat="48.49447" lon="-2.82207">
        <ele>115.59999847412</ele>
        <time>2022-09-04T08:05:28.000Z</time>
      </trkpt>
      <trkpt lat="48.4945" lon="-2.82198">
        <ele>115.59999847412</ele>
        <time>2022-09-04T08:05:29.000Z</time>
      </trkpt>
      <trkpt lat="48.49451" lon="-2.82191">
        <ele>115.59999847412</ele>
        <time>2022-09-04T08:05:30.000Z</time>
      </trkpt>
      <trkpt lat="48.49453" lon="-2.82184">
        <ele>116</ele>
        <time>2022-09-04T08:05:31.000Z</time>
      </trkpt>
      <trkpt lat="48.49455" lon="-2.82176">
        <ele>116.19999694824</ele>
        <time>2022-09-04T08:05:32.000Z</time>
      </trkpt>
      <trkpt lat="48.49457" lon="-2.82169">
        <ele>116.19999694824</ele>
        <time>2022-09-04T08:05:33.000Z</time>
      </trkpt>
      <trkpt lat="48.49458" lon="-2.82163">
        <ele>116.19999694824</ele>
        <time>2022-09-04T08:05:34.000Z</time>
      </trkpt>
      <trkpt lat="48.4946" lon="-2.82154">
        <ele>116.19999694824</ele>
        <time>2022-09-04T08:05:35.000Z</time>
      </trkpt>
      <trkpt lat="48.49464" lon="-2.8214">
        <ele>116.40000152588</ele>
        <time>2022-09-04T08:05:37.000Z</time>
      </trkpt>
      <trkpt lat="48.49466" lon="-2.82133">
        <ele>116.59999847412</ele>
        <time>2022-09-04T08:05:38.000Z</time>
      </trkpt>
      <trkpt lat="48.49469" lon="-2.8212">
        <ele>116.80000305176</ele>
        <time>2022-09-04T08:05:40.000Z</time>
      </trkpt>
      <trkpt lat="48.49472" lon="-2.82112">
        <ele>117</ele>
        <time>2022-09-04T08:05:41.000Z</time>
      </trkpt>
      <trkpt lat="48.49473" lon="-2.82105">
        <ele>117</ele>
        <time>2022-09-04T08:05:42.000Z</time>
      </trkpt>
      <trkpt lat="48.49478" lon="-2.82083">
        <ele>117.19999694824</ele>
        <time>2022-09-04T08:05:45.000Z</time>
      </trkpt>
      <trkpt lat="48.49483" lon="-2.82068">
        <ele>117.80000305176</ele>
        <time>2022-09-04T08:05:47.000Z</time>
      </trkpt>
      <trkpt lat="48.49484" lon="-2.82061">
        <ele>118.19999694824</ele>
        <time>2022-09-04T08:05:48.000Z</time>
      </trkpt>
      <trkpt lat="48.49487" lon="-2.82054">
        <ele>118.19999694824</ele>
        <time>2022-09-04T08:05:49.000Z</time>
      </trkpt>
      <trkpt lat="48.49501" lon="-2.82017">
        <ele>118.40000152588</ele>
        <time>2022-09-04T08:05:54.000Z</time>
      </trkpt>
      <trkpt lat="48.49503" lon="-2.82009">
        <ele>118.40000152588</ele>
        <time>2022-09-04T08:05:55.000Z</time>
      </trkpt>
      <trkpt lat="48.49507" lon="-2.82001">
        <ele>118.19999694824</ele>
        <time>2022-09-04T08:05:56.000Z</time>
      </trkpt>
      <trkpt lat="48.4951" lon="-2.81994">
        <ele>118</ele>
        <time>2022-09-04T08:05:57.000Z</time>
      </trkpt>
      <trkpt lat="48.49524" lon="-2.81964">
        <ele>117.40000152588</ele>
        <time>2022-09-04T08:06:01.000Z</time>
      </trkpt>
      <trkpt lat="48.49527" lon="-2.81956">
        <ele>117.19999694824</ele>
        <time>2022-09-04T08:06:02.000Z</time>
      </trkpt>
      <trkpt lat="48.49536" lon="-2.81922">
        <ele>117</ele>
        <time>2022-09-04T08:06:06.000Z</time>
      </trkpt>
      <trkpt lat="48.49541" lon="-2.81895">
        <ele>116.59999847412</ele>
        <time>2022-09-04T08:06:09.000Z</time>
      </trkpt>
      <trkpt lat="48.49549" lon="-2.81859">
        <ele>116.40000152588</ele>
        <time>2022-09-04T08:06:13.000Z</time>
      </trkpt>
      <trkpt lat="48.49551" lon="-2.8185">
        <ele>116.19999694824</ele>
        <time>2022-09-04T08:06:14.000Z</time>
      </trkpt>
      <trkpt lat="48.49554" lon="-2.81841">
        <ele>116</ele>
        <time>2022-09-04T08:06:15.000Z</time>
      </trkpt>
      <trkpt lat="48.49556" lon="-2.81832">
        <ele>116</ele>
        <time>2022-09-04T08:06:16.000Z</time>
      </trkpt>
      <trkpt lat="48.49558" lon="-2.81823">
        <ele>116</ele>
        <time>2022-09-04T08:06:17.000Z</time>
      </trkpt>
      <trkpt lat="48.4956" lon="-2.81814">
        <ele>116</ele>
        <time>2022-09-04T08:06:18.000Z</time>
      </trkpt>
      <trkpt lat="48.49564" lon="-2.81796">
        <ele>116</ele>
        <time>2022-09-04T08:06:20.000Z</time>
      </trkpt>
      <trkpt lat="48.49566" lon="-2.81788">
        <ele>116</ele>
        <time>2022-09-04T08:06:21.000Z</time>
      </trkpt>
      <trkpt lat="48.49569" lon="-2.81779">
        <ele>116</ele>
        <time>2022-09-04T08:06:22.000Z</time>
      </trkpt>
      <trkpt lat="48.49571" lon="-2.81771">
        <ele>116</ele>
        <time>2022-09-04T08:06:23.000Z</time>
      </trkpt>
      <trkpt lat="48.49573" lon="-2.81763">
        <ele>116</ele>
        <time>2022-09-04T08:06:24.000Z</time>
      </trkpt>
      <trkpt lat="48.49575" lon="-2.81756">
        <ele>116</ele>
        <time>2022-09-04T08:06:25.000Z</time>
      </trkpt>
      <trkpt lat="48.49576" lon="-2.81748">
        <ele>116</ele>
        <time>2022-09-04T08:06:26.000Z</time>
      </trkpt>
      <trkpt lat="48.49578" lon="-2.81741">
        <ele>116.19999694824</ele>
        <time>2022-09-04T08:06:27.000Z</time>
      </trkpt>
      <trkpt lat="48.49579" lon="-2.81734">
        <ele>116.19999694824</ele>
        <time>2022-09-04T08:06:28.000Z</time>
      </trkpt>
      <trkpt lat="48.49581" lon="-2.81727">
        <ele>116</ele>
        <time>2022-09-04T08:06:29.000Z</time>
      </trkpt>
      <trkpt lat="48.49583" lon="-2.8172">
        <ele>116</ele>
        <time>2022-09-04T08:06:30.000Z</time>
      </trkpt>
      <trkpt lat="48.49584" lon="-2.81714">
        <ele>116</ele>
        <time>2022-09-04T08:06:31.000Z</time>
      </trkpt>
      <trkpt lat="48.49586" lon="-2.81707">
        <ele>116</ele>
        <time>2022-09-04T08:06:32.000Z</time>
      </trkpt>
      <trkpt lat="48.49588" lon="-2.81701">
        <ele>115.80000305176</ele>
        <time>2022-09-04T08:06:33.000Z</time>
      </trkpt>
      <trkpt lat="48.4959" lon="-2.81694">
        <ele>116</ele>
        <time>2022-09-04T08:06:34.000Z</time>
      </trkpt>
      <trkpt lat="48.49591" lon="-2.81687">
        <ele>116.19999694824</ele>
        <time>2022-09-04T08:06:35.000Z</time>
      </trkpt>
      <trkpt lat="48.49592" lon="-2.81681">
        <ele>116.40000152588</ele>
        <time>2022-09-04T08:06:36.000Z</time>
      </trkpt>
      <trkpt lat="48.49592" lon="-2.81674">
        <ele>116.40000152588</ele>
        <time>2022-09-04T08:06:37.000Z</time>
      </trkpt>
      <trkpt lat="48.49592" lon="-2.81661">
        <ele>116.40000152588</ele>
        <time>2022-09-04T08:06:39.000Z</time>
      </trkpt>
      <trkpt lat="48.49592" lon="-2.81654">
        <ele>116.59999847412</ele>
        <time>2022-09-04T08:06:40.000Z</time>
      </trkpt>
      <trkpt lat="48.49592" lon="-2.81647">
        <ele>116.80000305176</ele>
        <time>2022-09-04T08:06:41.000Z</time>
      </trkpt>
      <trkpt lat="48.49591" lon="-2.8164">
        <ele>117.19999694824</ele>
        <time>2022-09-04T08:06:42.000Z</time>
      </trkpt>
      <trkpt lat="48.49589" lon="-2.81599">
        <ele>118</ele>
        <time>2022-09-04T08:06:47.000Z</time>
      </trkpt>
      <trkpt lat="48.49589" lon="-2.81591">
        <ele>118</ele>
        <time>2022-09-04T08:06:48.000Z</time>
      </trkpt>
      <trkpt lat="48.49589" lon="-2.81584">
        <ele>118.19999694824</ele>
        <time>2022-09-04T08:06:49.000Z</time>
      </trkpt>
      <trkpt lat="48.4959" lon="-2.81576">
        <ele>118.19999694824</ele>
        <time>2022-09-04T08:06:50.000Z</time>
      </trkpt>
      <trkpt lat="48.49589" lon="-2.81569">
        <ele>118.19999694824</ele>
        <time>2022-09-04T08:06:51.000Z</time>
      </trkpt>
      <trkpt lat="48.49587" lon="-2.81555">
        <ele>118.40000152588</ele>
        <time>2022-09-04T08:06:53.000Z</time>
      </trkpt>
      <trkpt lat="48.49587" lon="-2.81547">
        <ele>118.40000152588</ele>
        <time>2022-09-04T08:06:54.000Z</time>
      </trkpt>
      <trkpt lat="48.49586" lon="-2.81539">
        <ele>118.40000152588</ele>
        <time>2022-09-04T08:06:55.000Z</time>
      </trkpt>
      <trkpt lat="48.49586" lon="-2.81531">
        <ele>118.59999847412</ele>
        <time>2022-09-04T08:06:56.000Z</time>
      </trkpt>
      <trkpt lat="48.49585" lon="-2.81523">
        <ele>118.59999847412</ele>
        <time>2022-09-04T08:06:57.000Z</time>
      </trkpt>
      <trkpt lat="48.49583" lon="-2.81516">
        <ele>118.59999847412</ele>
        <time>2022-09-04T08:06:58.000Z</time>
      </trkpt>
      <trkpt lat="48.49582" lon="-2.81508">
        <ele>118.59999847412</ele>
        <time>2022-09-04T08:06:59.000Z</time>
      </trkpt>
      <trkpt lat="48.49581" lon="-2.81502">
        <ele>118.59999847412</ele>
        <time>2022-09-04T08:07:00.000Z</time>
      </trkpt>
      <trkpt lat="48.49579" lon="-2.81497">
        <ele>118.59999847412</ele>
        <time>2022-09-04T08:07:01.000Z</time>
      </trkpt>
      <trkpt lat="48.49578" lon="-2.81493">
        <ele>118.80000305176</ele>
        <time>2022-09-04T08:07:02.000Z</time>
      </trkpt>
      <trkpt lat="48.49576" lon="-2.81489">
        <ele>118.80000305176</ele>
        <time>2022-09-04T08:07:03.000Z</time>
      </trkpt>
      <trkpt lat="48.49574" lon="-2.81485">
        <ele>118.80000305176</ele>
        <time>2022-09-04T08:07:04.000Z</time>
      </trkpt>
      <trkpt lat="48.49572" lon="-2.81478">
        <ele>118.80000305176</ele>
        <time>2022-09-04T08:07:05.000Z</time>
      </trkpt>
      <trkpt lat="48.4957" lon="-2.81463">
        <ele>118.80000305176</ele>
        <time>2022-09-04T08:07:07.000Z</time>
      </trkpt>
      <trkpt lat="48.4957" lon="-2.81455">
        <ele>118.80000305176</ele>
        <time>2022-09-04T08:07:08.000Z</time>
      </trkpt>
      <trkpt lat="48.4957" lon="-2.81446">
        <ele>118.80000305176</ele>
        <time>2022-09-04T08:07:09.000Z</time>
      </trkpt>
      <trkpt lat="48.49575" lon="-2.81384">
        <ele>119.19999694824</ele>
        <time>2022-09-04T08:07:16.000Z</time>
      </trkpt>
      <trkpt lat="48.49581" lon="-2.81321">
        <ele>119.19999694824</ele>
        <time>2022-09-04T08:07:23.000Z</time>
      </trkpt>
      <trkpt lat="48.49581" lon="-2.81312">
        <ele>119.19999694824</ele>
        <time>2022-09-04T08:07:24.000Z</time>
      </trkpt>
      <trkpt lat="48.49581" lon="-2.81245">
        <ele>118.80000305176</ele>
        <time>2022-09-04T08:07:31.000Z</time>
      </trkpt>
      <trkpt lat="48.4958" lon="-2.81186">
        <ele>118.80000305176</ele>
        <time>2022-09-04T08:07:37.000Z</time>
      </trkpt>
      <trkpt lat="48.4958" lon="-2.81157">
        <ele>118.59999847412</ele>
        <time>2022-09-04T08:07:40.000Z</time>
      </trkpt>
      <trkpt lat="48.49581" lon="-2.81148">
        <ele>118.59999847412</ele>
        <time>2022-09-04T08:07:41.000Z</time>
      </trkpt>
      <trkpt lat="48.49582" lon="-2.81138">
        <ele>118.59999847412</ele>
        <time>2022-09-04T08:07:42.000Z</time>
      </trkpt>
      <trkpt lat="48.49583" lon="-2.81129">
        <ele>118.40000152588</ele>
        <time>2022-09-04T08:07:43.000Z</time>
      </trkpt>
      <trkpt lat="48.49584" lon="-2.8112">
        <ele>118.40000152588</ele>
        <time>2022-09-04T08:07:44.000Z</time>
      </trkpt>
      <trkpt lat="48.49591" lon="-2.81074">
        <ele>118.40000152588</ele>
        <time>2022-09-04T08:07:49.000Z</time>
      </trkpt>
      <trkpt lat="48.49593" lon="-2.81063">
        <ele>118.40000152588</ele>
        <time>2022-09-04T08:07:50.000Z</time>
      </trkpt>
      <trkpt lat="48.49594" lon="-2.81056">
        <ele>118.40000152588</ele>
        <time>2022-09-04T08:07:51.000Z</time>
      </trkpt>
      <trkpt lat="48.49597" lon="-2.81038">
        <ele>118.59999847412</ele>
        <time>2022-09-04T08:07:53.000Z</time>
      </trkpt>
      <trkpt lat="48.49598" lon="-2.81029">
        <ele>118.59999847412</ele>
        <time>2022-09-04T08:07:54.000Z</time>
      </trkpt>
      <trkpt lat="48.49603" lon="-2.81002">
        <ele>118.59999847412</ele>
        <time>2022-09-04T08:07:57.000Z</time>
      </trkpt>
      <trkpt lat="48.49608" lon="-2.80937">
        <ele>118.40000152588</ele>
        <time>2022-09-04T08:08:04.000Z</time>
      </trkpt>
      <trkpt lat="48.49608" lon="-2.80927">
        <ele>118.40000152588</ele>
        <time>2022-09-04T08:08:05.000Z</time>
      </trkpt>
      <trkpt lat="48.49607" lon="-2.80918">
        <ele>118.19999694824</ele>
        <time>2022-09-04T08:08:06.000Z</time>
      </trkpt>
      <trkpt lat="48.49606" lon="-2.80891">
        <ele>118.19999694824</ele>
        <time>2022-09-04T08:08:09.000Z</time>
      </trkpt>
      <trkpt lat="48.49605" lon="-2.80882">
        <ele>118.19999694824</ele>
        <time>2022-09-04T08:08:10.000Z</time>
      </trkpt>
      <trkpt lat="48.49604" lon="-2.80873">
        <ele>118.19999694824</ele>
        <time>2022-09-04T08:08:11.000Z</time>
      </trkpt>
      <trkpt lat="48.49604" lon="-2.80864">
        <ele>118.19999694824</ele>
        <time>2022-09-04T08:08:12.000Z</time>
      </trkpt>
      <trkpt lat="48.49604" lon="-2.80855">
        <ele>118.19999694824</ele>
        <time>2022-09-04T08:08:13.000Z</time>
      </trkpt>
      <trkpt lat="48.49601" lon="-2.8081">
        <ele>118</ele>
        <time>2022-09-04T08:08:18.000Z</time>
      </trkpt>
      <trkpt lat="48.496" lon="-2.80799">
        <ele>118</ele>
        <time>2022-09-04T08:08:19.000Z</time>
      </trkpt>
      <trkpt lat="48.496" lon="-2.80792">
        <ele>118</ele>
        <time>2022-09-04T08:08:20.000Z</time>
      </trkpt>
      <trkpt lat="48.49599" lon="-2.80783">
        <ele>118</ele>
        <time>2022-09-04T08:08:21.000Z</time>
      </trkpt>
      <trkpt lat="48.49598" lon="-2.80775">
        <ele>118</ele>
        <time>2022-09-04T08:08:22.000Z</time>
      </trkpt>
      <trkpt lat="48.49597" lon="-2.80767">
        <ele>118.19999694824</ele>
        <time>2022-09-04T08:08:23.000Z</time>
      </trkpt>
      <trkpt lat="48.49596" lon="-2.80759">
        <ele>118.40000152588</ele>
        <time>2022-09-04T08:08:24.000Z</time>
      </trkpt>
      <trkpt lat="48.49596" lon="-2.80752">
        <ele>118.40000152588</ele>
        <time>2022-09-04T08:08:25.000Z</time>
      </trkpt>
      <trkpt lat="48.49597" lon="-2.80745">
        <ele>118.40000152588</ele>
        <time>2022-09-04T08:08:26.000Z</time>
      </trkpt>
      <trkpt lat="48.496" lon="-2.8074">
        <ele>118.40000152588</ele>
        <time>2022-09-04T08:08:27.000Z</time>
      </trkpt>
      <trkpt lat="48.49604" lon="-2.80736">
        <ele>118.59999847412</ele>
        <time>2022-09-04T08:08:28.000Z</time>
      </trkpt>
      <trkpt lat="48.49609" lon="-2.80733">
        <ele>118.59999847412</ele>
        <time>2022-09-04T08:08:29.000Z</time>
      </trkpt>
      <trkpt lat="48.4962" lon="-2.80726">
        <ele>118.80000305176</ele>
        <time>2022-09-04T08:08:31.000Z</time>
      </trkpt>
      <trkpt lat="48.49625" lon="-2.80722">
        <ele>118.80000305176</ele>
        <time>2022-09-04T08:08:32.000Z</time>
      </trkpt>
      <trkpt lat="48.49635" lon="-2.8071">
        <ele>118.80000305176</ele>
        <time>2022-09-04T08:08:34.000Z</time>
      </trkpt>
      <trkpt lat="48.49645" lon="-2.80698">
        <ele>119</ele>
        <time>2022-09-04T08:08:36.000Z</time>
      </trkpt>
      <trkpt lat="48.49657" lon="-2.80688">
        <ele>119.19999694824</ele>
        <time>2022-09-04T08:08:38.000Z</time>
      </trkpt>
      <trkpt lat="48.49664" lon="-2.80684">
        <ele>119.19999694824</ele>
        <time>2022-09-04T08:08:39.000Z</time>
      </trkpt>
      <trkpt lat="48.49704" lon="-2.8066">
        <ele>119.19999694824</ele>
        <time>2022-09-04T08:08:45.000Z</time>
      </trkpt>
      <trkpt lat="48.49711" lon="-2.80656">
        <ele>119.19999694824</ele>
        <time>2022-09-04T08:08:46.000Z</time>
      </trkpt>
      <trkpt lat="48.49768" lon="-2.80626">
        <ele>119.19999694824</ele>
        <time>2022-09-04T08:08:54.000Z</time>
      </trkpt>
      <trkpt lat="48.49775" lon="-2.80622">
        <ele>119.19999694824</ele>
        <time>2022-09-04T08:08:55.000Z</time>
      </trkpt>
      <trkpt lat="48.49816" lon="-2.80599">
        <ele>119</ele>
        <time>2022-09-04T08:09:01.000Z</time>
      </trkpt>
      <trkpt lat="48.49823" lon="-2.80595">
        <ele>119</ele>
        <time>2022-09-04T08:09:02.000Z</time>
      </trkpt>
      <trkpt lat="48.49829" lon="-2.80592">
        <ele>119</ele>
        <time>2022-09-04T08:09:03.000Z</time>
      </trkpt>
      <trkpt lat="48.49835" lon="-2.80588">
        <ele>119</ele>
        <time>2022-09-04T08:09:04.000Z</time>
      </trkpt>
      <trkpt lat="48.49841" lon="-2.80585">
        <ele>119</ele>
        <time>2022-09-04T08:09:05.000Z</time>
      </trkpt>
      <trkpt lat="48.49846" lon="-2.80582">
        <ele>119</ele>
        <time>2022-09-04T08:09:06.000Z</time>
      </trkpt>
      <trkpt lat="48.49852" lon="-2.80579">
        <ele>119</ele>
        <time>2022-09-04T08:09:07.000Z</time>
      </trkpt>
      <trkpt lat="48.49857" lon="-2.80576">
        <ele>119</ele>
        <time>2022-09-04T08:09:08.000Z</time>
      </trkpt>
      <trkpt lat="48.49861" lon="-2.80573">
        <ele>118.80000305176</ele>
        <time>2022-09-04T08:09:09.000Z</time>
      </trkpt>
      <trkpt lat="48.49863" lon="-2.8057">
        <ele>119</ele>
        <time>2022-09-04T08:09:10.000Z</time>
      </trkpt>
      <trkpt lat="48.49865" lon="-2.80565">
        <ele>118.80000305176</ele>
        <time>2022-09-04T08:09:11.000Z</time>
      </trkpt>
      <trkpt lat="48.49865" lon="-2.80561">
        <ele>119</ele>
        <time>2022-09-04T08:09:12.000Z</time>
      </trkpt>
      <trkpt lat="48.49864" lon="-2.80554">
        <ele>119</ele>
        <time>2022-09-04T08:09:13.000Z</time>
      </trkpt>
      <trkpt lat="48.49831" lon="-2.8053">
        <ele>118.80000305176</ele>
        <time>2022-09-04T08:09:22.000Z</time>
      </trkpt>
      <trkpt lat="48.49829" lon="-2.80531">
        <ele>118.80000305176</ele>
        <time>2022-09-04T08:09:23.000Z</time>
      </trkpt>
      <trkpt lat="48.49797" lon="-2.80553">
        <ele>119.19999694824</ele>
        <time>2022-09-04T08:09:30.000Z</time>
      </trkpt>
      <trkpt lat="48.49753" lon="-2.80578">
        <ele>120.19999694824</ele>
        <time>2022-09-04T08:09:38.000Z</time>
      </trkpt>
      <trkpt lat="48.49748" lon="-2.80581">
        <ele>120.19999694824</ele>
        <time>2022-09-04T08:09:39.000Z</time>
      </trkpt>
      <trkpt lat="48.49741" lon="-2.80585">
        <ele>120.40000152588</ele>
        <time>2022-09-04T08:09:40.000Z</time>
      </trkpt>
      <trkpt lat="48.4969" lon="-2.80615">
        <ele>120.59999847412</ele>
        <time>2022-09-04T08:09:49.000Z</time>
      </trkpt>
      <trkpt lat="48.49684" lon="-2.80618">
        <ele>120.59999847412</ele>
        <time>2022-09-04T08:09:50.000Z</time>
      </trkpt>
      <trkpt lat="48.49661" lon="-2.80632">
        <ele>120.40000152588</ele>
        <time>2022-09-04T08:09:54.000Z</time>
      </trkpt>
      <trkpt lat="48.49656" lon="-2.80635">
        <ele>120.40000152588</ele>
        <time>2022-09-04T08:09:55.000Z</time>
      </trkpt>
      <trkpt lat="48.49651" lon="-2.80639">
        <ele>120.40000152588</ele>
        <time>2022-09-04T08:09:56.000Z</time>
      </trkpt>
      <trkpt lat="48.49645" lon="-2.80642">
        <ele>120.19999694824</ele>
        <time>2022-09-04T08:09:57.000Z</time>
      </trkpt>
      <trkpt lat="48.4964" lon="-2.80646">
        <ele>120.19999694824</ele>
        <time>2022-09-04T08:09:58.000Z</time>
      </trkpt>
      <trkpt lat="48.49635" lon="-2.80649">
        <ele>120.19999694824</ele>
        <time>2022-09-04T08:09:59.000Z</time>
      </trkpt>
      <trkpt lat="48.4963" lon="-2.80651">
        <ele>120.19999694824</ele>
        <time>2022-09-04T08:10:00.000Z</time>
      </trkpt>
      <trkpt lat="48.49627" lon="-2.80652">
        <ele>120.19999694824</ele>
        <time>2022-09-04T08:10:01.000Z</time>
      </trkpt>
      <trkpt lat="48.49624" lon="-2.8065">
        <ele>120.19999694824</ele>
        <time>2022-09-04T08:10:02.000Z</time>
      </trkpt>
      <trkpt lat="48.49622" lon="-2.80646">
        <ele>120.19999694824</ele>
        <time>2022-09-04T08:10:03.000Z</time>
      </trkpt>
      <trkpt lat="48.49622" lon="-2.8064">
        <ele>120.19999694824</ele>
        <time>2022-09-04T08:10:04.000Z</time>
      </trkpt>
      <trkpt lat="48.49624" lon="-2.80634">
        <ele>120.19999694824</ele>
        <time>2022-09-04T08:10:05.000Z</time>
      </trkpt>
      <trkpt lat="48.49631" lon="-2.80622">
        <ele>120.19999694824</ele>
        <time>2022-09-04T08:10:07.000Z</time>
      </trkpt>
      <trkpt lat="48.49634" lon="-2.80614">
        <ele>120.19999694824</ele>
        <time>2022-09-04T08:10:08.000Z</time>
      </trkpt>
      <trkpt lat="48.49637" lon="-2.80607">
        <ele>120.40000152588</ele>
        <time>2022-09-04T08:10:09.000Z</time>
      </trkpt>
      <trkpt lat="48.4965" lon="-2.80568">
        <ele>120.80000305176</ele>
        <time>2022-09-04T08:10:14.000Z</time>
      </trkpt>
      <trkpt lat="48.49659" lon="-2.80534">
        <ele>121.40000152588</ele>
        <time>2022-09-04T08:10:18.000Z</time>
      </trkpt>
      <trkpt lat="48.49664" lon="-2.80517">
        <ele>121.59999847412</ele>
        <time>2022-09-04T08:10:20.000Z</time>
      </trkpt>
      <trkpt lat="48.49669" lon="-2.80501">
        <ele>121.80000305176</ele>
        <time>2022-09-04T08:10:22.000Z</time>
      </trkpt>
      <trkpt lat="48.49674" lon="-2.80479">
        <ele>121.80000305176</ele>
        <time>2022-09-04T08:10:25.000Z</time>
      </trkpt>
      <trkpt lat="48.49692" lon="-2.8041">
        <ele>121.80000305176</ele>
        <time>2022-09-04T08:10:33.000Z</time>
      </trkpt>
      <trkpt lat="48.49699" lon="-2.80385">
        <ele>121.80000305176</ele>
        <time>2022-09-04T08:10:36.000Z</time>
      </trkpt>
      <trkpt lat="48.49704" lon="-2.80361">
        <ele>122</ele>
        <time>2022-09-04T08:10:39.000Z</time>
      </trkpt>
      <trkpt lat="48.49706" lon="-2.8035">
        <ele>122</ele>
        <time>2022-09-04T08:10:40.000Z</time>
      </trkpt>
      <trkpt lat="48.49707" lon="-2.80341">
        <ele>122</ele>
        <time>2022-09-04T08:10:41.000Z</time>
      </trkpt>
      <trkpt lat="48.49708" lon="-2.80331">
        <ele>122</ele>
        <time>2022-09-04T08:10:42.000Z</time>
      </trkpt>
      <trkpt lat="48.49711" lon="-2.80304">
        <ele>122</ele>
        <time>2022-09-04T08:10:45.000Z</time>
      </trkpt>
      <trkpt lat="48.49712" lon="-2.80295">
        <ele>122</ele>
        <time>2022-09-04T08:10:46.000Z</time>
      </trkpt>
      <trkpt lat="48.49712" lon="-2.80285">
        <ele>122</ele>
        <time>2022-09-04T08:10:47.000Z</time>
      </trkpt>
      <trkpt lat="48.49715" lon="-2.8024">
        <ele>122.19999694824</ele>
        <time>2022-09-04T08:10:52.000Z</time>
      </trkpt>
      <trkpt lat="48.49714" lon="-2.8022">
        <ele>122.40000152588</ele>
        <time>2022-09-04T08:10:54.000Z</time>
      </trkpt>
      <trkpt lat="48.49713" lon="-2.8021">
        <ele>122.40000152588</ele>
        <time>2022-09-04T08:10:55.000Z</time>
      </trkpt>
      <trkpt lat="48.49713" lon="-2.80199">
        <ele>122.40000152588</ele>
        <time>2022-09-04T08:10:56.000Z</time>
      </trkpt>
      <trkpt lat="48.49714" lon="-2.80189">
        <ele>122.59999847412</ele>
        <time>2022-09-04T08:10:57.000Z</time>
      </trkpt>
      <trkpt lat="48.49713" lon="-2.8018">
        <ele>122.59999847412</ele>
        <time>2022-09-04T08:10:58.000Z</time>
      </trkpt>
      <trkpt lat="48.49713" lon="-2.80162">
        <ele>122.59999847412</ele>
        <time>2022-09-04T08:11:00.000Z</time>
      </trkpt>
      <trkpt lat="48.49713" lon="-2.80153">
        <ele>122.80000305176</ele>
        <time>2022-09-04T08:11:01.000Z</time>
      </trkpt>
      <trkpt lat="48.49713" lon="-2.80144">
        <ele>122.80000305176</ele>
        <time>2022-09-04T08:11:02.000Z</time>
      </trkpt>
      <trkpt lat="48.49715" lon="-2.80125">
        <ele>122.80000305176</ele>
        <time>2022-09-04T08:11:04.000Z</time>
      </trkpt>
      <trkpt lat="48.49718" lon="-2.80085">
        <ele>123.19999694824</ele>
        <time>2022-09-04T08:11:08.000Z</time>
      </trkpt>
      <trkpt lat="48.49719" lon="-2.80075">
        <ele>123.19999694824</ele>
        <time>2022-09-04T08:11:09.000Z</time>
      </trkpt>
      <trkpt lat="48.49722" lon="-2.80058">
        <ele>123.40000152588</ele>
        <time>2022-09-04T08:11:11.000Z</time>
      </trkpt>
      <trkpt lat="48.49724" lon="-2.80039">
        <ele>123.40000152588</ele>
        <time>2022-09-04T08:11:13.000Z</time>
      </trkpt>
      <trkpt lat="48.49734" lon="-2.79981">
        <ele>123.59999847412</ele>
        <time>2022-09-04T08:11:19.000Z</time>
      </trkpt>
      <trkpt lat="48.49744" lon="-2.79932">
        <ele>123.40000152588</ele>
        <time>2022-09-04T08:11:24.000Z</time>
      </trkpt>
      <trkpt lat="48.49747" lon="-2.79912">
        <ele>123.40000152588</ele>
        <time>2022-09-04T08:11:26.000Z</time>
      </trkpt>
      <trkpt lat="48.49749" lon="-2.79903">
        <ele>123.19999694824</ele>
        <time>2022-09-04T08:11:27.000Z</time>
      </trkpt>
      <trkpt lat="48.4975" lon="-2.79895">
        <ele>123.19999694824</ele>
        <time>2022-09-04T08:11:28.000Z</time>
      </trkpt>
      <trkpt lat="48.49749" lon="-2.79886">
        <ele>123</ele>
        <time>2022-09-04T08:11:29.000Z</time>
      </trkpt>
      <trkpt lat="48.49746" lon="-2.79879">
        <ele>122.80000305176</ele>
        <time>2022-09-04T08:11:30.000Z</time>
      </trkpt>
      <trkpt lat="48.49742" lon="-2.79871">
        <ele>122.59999847412</ele>
        <time>2022-09-04T08:11:31.000Z</time>
      </trkpt>
      <trkpt lat="48.49736" lon="-2.79865">
        <ele>122.40000152588</ele>
        <time>2022-09-04T08:11:32.000Z</time>
      </trkpt>
      <trkpt lat="48.49731" lon="-2.79858">
        <ele>122.40000152588</ele>
        <time>2022-09-04T08:11:33.000Z</time>
      </trkpt>
      <trkpt lat="48.49724" lon="-2.79852">
        <ele>122.19999694824</ele>
        <time>2022-09-04T08:11:34.000Z</time>
      </trkpt>
      <trkpt lat="48.49718" lon="-2.79846">
        <ele>122</ele>
        <time>2022-09-04T08:11:35.000Z</time>
      </trkpt>
      <trkpt lat="48.49705" lon="-2.79836">
        <ele>122</ele>
        <time>2022-09-04T08:11:37.000Z</time>
      </trkpt>
      <trkpt lat="48.49699" lon="-2.79831">
        <ele>121.80000305176</ele>
        <time>2022-09-04T08:11:38.000Z</time>
      </trkpt>
      <trkpt lat="48.49694" lon="-2.79826">
        <ele>121.80000305176</ele>
        <time>2022-09-04T08:11:39.000Z</time>
      </trkpt>
      <trkpt lat="48.49689" lon="-2.79819">
        <ele>121.80000305176</ele>
        <time>2022-09-04T08:11:40.000Z</time>
      </trkpt>
      <trkpt lat="48.49686" lon="-2.79811">
        <ele>121.80000305176</ele>
        <time>2022-09-04T08:11:41.000Z</time>
      </trkpt>
      <trkpt lat="48.49685" lon="-2.79803">
        <ele>121.80000305176</ele>
        <time>2022-09-04T08:11:42.000Z</time>
      </trkpt>
      <trkpt lat="48.49686" lon="-2.79794">
        <ele>122</ele>
        <time>2022-09-04T08:11:43.000Z</time>
      </trkpt>
      <trkpt lat="48.49693" lon="-2.79766">
        <ele>122.19999694824</ele>
        <time>2022-09-04T08:11:46.000Z</time>
      </trkpt>
      <trkpt lat="48.49696" lon="-2.79757">
        <ele>122.19999694824</ele>
        <time>2022-09-04T08:11:47.000Z</time>
      </trkpt>
      <trkpt lat="48.49698" lon="-2.79748">
        <ele>122.19999694824</ele>
        <time>2022-09-04T08:11:48.000Z</time>
      </trkpt>
      <trkpt lat="48.49701" lon="-2.7974">
        <ele>122</ele>
        <time>2022-09-04T08:11:49.000Z</time>
      </trkpt>
      <trkpt lat="48.49704" lon="-2.79731">
        <ele>122</ele>
        <time>2022-09-04T08:11:50.000Z</time>
      </trkpt>
      <trkpt lat="48.49706" lon="-2.79723">
        <ele>122</ele>
        <time>2022-09-04T08:11:51.000Z</time>
      </trkpt>
      <trkpt lat="48.49708" lon="-2.79715">
        <ele>122</ele>
        <time>2022-09-04T08:11:52.000Z</time>
      </trkpt>
      <trkpt lat="48.4971" lon="-2.79706">
        <ele>121.40000152588</ele>
        <time>2022-09-04T08:11:53.000Z</time>
      </trkpt>
      <trkpt lat="48.49712" lon="-2.79698">
        <ele>121</ele>
        <time>2022-09-04T08:11:54.000Z</time>
      </trkpt>
    </trkseg>
  </trk>
</gpx>